<?xml version="1.0" encoding="UTF-8" standalone="no" ?>
<gpx xmlns="http://www.topografix.com/GPX/1/1" xmlns:xsi="http://www.w3.org/2001/XMLSchema-instance" xsi:schemaLocation="http://www.topografix.com/GPX/1/1 http://www.topografix.com/GPX/1/1/gpx.xsd" version="1.1" creator="VisuGPX - https://www.visugpx.com">
  <metadata>
    <name>Bâle-St Nazaire Etape 3</name>
    <desc><![CDATA[Bâle-St Nazaire Etape 3 - 12.07.2015

Fourbanne - Roset-Fluans

Les Jardins de Fraîche Comté
http://www.chambresdhotes.org/Detailed/37290.html]]></desc>
  </metadata>
  <trk>
    <name><![CDATA[JUIL-12-15 19:16:23]]></name>
    <trkseg>
      <trkpt lat="47.33045" lon="6.30524">
        <ele>330.83</ele>
        <time>2015-07-12T06:47:12.000Z</time>
      </trkpt>
      <trkpt lat="47.33046" lon="6.30526">
        <ele>334.68</ele>
        <time>2015-07-12T06:47:17.000Z</time>
      </trkpt>
      <trkpt lat="47.33046" lon="6.3054">
        <ele>333.71</ele>
        <time>2015-07-12T06:51:26.000Z</time>
      </trkpt>
      <trkpt lat="47.3304" lon="6.30553">
        <ele>332.75</ele>
        <time>2015-07-12T06:51:32.000Z</time>
      </trkpt>
      <trkpt lat="47.33031" lon="6.30546">
        <ele>331.79</ele>
        <time>2015-07-12T06:51:37.000Z</time>
      </trkpt>
      <trkpt lat="47.33031" lon="6.30533">
        <ele>330.83</ele>
        <time>2015-07-12T06:51:41.000Z</time>
      </trkpt>
      <trkpt lat="47.33033" lon="6.30519">
        <ele>329.87</ele>
        <time>2015-07-12T06:51:44.000Z</time>
      </trkpt>
      <trkpt lat="47.33034" lon="6.30503">
        <ele>329.39</ele>
        <time>2015-07-12T06:51:47.000Z</time>
      </trkpt>
      <trkpt lat="47.33035" lon="6.30486">
        <ele>328.43</ele>
        <time>2015-07-12T06:51:50.000Z</time>
      </trkpt>
      <trkpt lat="47.33032" lon="6.30472">
        <ele>328.43</ele>
        <time>2015-07-12T06:51:53.000Z</time>
      </trkpt>
      <trkpt lat="47.33023" lon="6.30461">
        <ele>327.95</ele>
        <time>2015-07-12T06:51:57.000Z</time>
      </trkpt>
      <trkpt lat="47.33014" lon="6.30458">
        <ele>327.95</ele>
        <time>2015-07-12T06:52:01.000Z</time>
      </trkpt>
      <trkpt lat="47.33005" lon="6.30456">
        <ele>327.95</ele>
        <time>2015-07-12T06:52:05.000Z</time>
      </trkpt>
      <trkpt lat="47.32994" lon="6.30455">
        <ele>327.95</ele>
        <time>2015-07-12T06:52:09.000Z</time>
      </trkpt>
      <trkpt lat="47.32983" lon="6.30451">
        <ele>327.47</ele>
        <time>2015-07-12T06:52:13.000Z</time>
      </trkpt>
      <trkpt lat="47.32974" lon="6.30442">
        <ele>327.47</ele>
        <time>2015-07-12T06:52:17.000Z</time>
      </trkpt>
      <trkpt lat="47.32972" lon="6.30428">
        <ele>326.99</ele>
        <time>2015-07-12T06:52:22.000Z</time>
      </trkpt>
      <trkpt lat="47.32972" lon="6.30413">
        <ele>326.5</ele>
        <time>2015-07-12T06:53:00.000Z</time>
      </trkpt>
      <trkpt lat="47.32971" lon="6.30393">
        <ele>326.99</ele>
        <time>2015-07-12T06:53:05.000Z</time>
      </trkpt>
      <trkpt lat="47.32973" lon="6.30375">
        <ele>326.99</ele>
        <time>2015-07-12T06:53:08.000Z</time>
      </trkpt>
      <trkpt lat="47.32976" lon="6.30359">
        <ele>326.02</ele>
        <time>2015-07-12T06:53:10.000Z</time>
      </trkpt>
      <trkpt lat="47.32978" lon="6.30341">
        <ele>325.06</ele>
        <time>2015-07-12T06:53:12.000Z</time>
      </trkpt>
      <trkpt lat="47.32978" lon="6.30324">
        <ele>325.54</ele>
        <time>2015-07-12T06:53:14.000Z</time>
      </trkpt>
      <trkpt lat="47.32979" lon="6.30308">
        <ele>325.54</ele>
        <time>2015-07-12T06:53:16.000Z</time>
      </trkpt>
      <trkpt lat="47.32981" lon="6.30293">
        <ele>325.06</ele>
        <time>2015-07-12T06:53:18.000Z</time>
      </trkpt>
      <trkpt lat="47.32983" lon="6.30278">
        <ele>325.06</ele>
        <time>2015-07-12T06:53:20.000Z</time>
      </trkpt>
      <trkpt lat="47.32986" lon="6.30262">
        <ele>325.06</ele>
        <time>2015-07-12T06:53:22.000Z</time>
      </trkpt>
      <trkpt lat="47.32988" lon="6.30247">
        <ele>325.06</ele>
        <time>2015-07-12T06:53:24.000Z</time>
      </trkpt>
      <trkpt lat="47.3299" lon="6.30233">
        <ele>325.54</ele>
        <time>2015-07-12T06:53:26.000Z</time>
      </trkpt>
      <trkpt lat="47.32992" lon="6.3022">
        <ele>325.06</ele>
        <time>2015-07-12T06:53:28.000Z</time>
      </trkpt>
      <trkpt lat="47.32994" lon="6.30205">
        <ele>325.54</ele>
        <time>2015-07-12T06:53:30.000Z</time>
      </trkpt>
      <trkpt lat="47.32996" lon="6.30192">
        <ele>325.06</ele>
        <time>2015-07-12T06:53:32.000Z</time>
      </trkpt>
      <trkpt lat="47.32999" lon="6.30178">
        <ele>325.06</ele>
        <time>2015-07-12T06:53:34.000Z</time>
      </trkpt>
      <trkpt lat="47.33001" lon="6.30165">
        <ele>325.06</ele>
        <time>2015-07-12T06:53:36.000Z</time>
      </trkpt>
      <trkpt lat="47.33003" lon="6.30151">
        <ele>325.06</ele>
        <time>2015-07-12T06:53:38.000Z</time>
      </trkpt>
      <trkpt lat="47.33005" lon="6.30136">
        <ele>325.06</ele>
        <time>2015-07-12T06:53:40.000Z</time>
      </trkpt>
      <trkpt lat="47.33007" lon="6.30122">
        <ele>325.06</ele>
        <time>2015-07-12T06:53:42.000Z</time>
      </trkpt>
      <trkpt lat="47.33009" lon="6.30108">
        <ele>325.06</ele>
        <time>2015-07-12T06:53:44.000Z</time>
      </trkpt>
      <trkpt lat="47.33011" lon="6.30094">
        <ele>325.54</ele>
        <time>2015-07-12T06:53:46.000Z</time>
      </trkpt>
      <trkpt lat="47.33012" lon="6.30081">
        <ele>325.06</ele>
        <time>2015-07-12T06:53:48.000Z</time>
      </trkpt>
      <trkpt lat="47.33014" lon="6.30068">
        <ele>325.54</ele>
        <time>2015-07-12T06:53:50.000Z</time>
      </trkpt>
      <trkpt lat="47.33015" lon="6.30054">
        <ele>325.06</ele>
        <time>2015-07-12T06:53:52.000Z</time>
      </trkpt>
      <trkpt lat="47.33016" lon="6.3004">
        <ele>325.54</ele>
        <time>2015-07-12T06:53:54.000Z</time>
      </trkpt>
      <trkpt lat="47.33016" lon="6.30027">
        <ele>325.54</ele>
        <time>2015-07-12T06:53:56.000Z</time>
      </trkpt>
      <trkpt lat="47.33017" lon="6.30007">
        <ele>325.06</ele>
        <time>2015-07-12T06:53:59.000Z</time>
      </trkpt>
      <trkpt lat="47.33017" lon="6.29993">
        <ele>325.06</ele>
        <time>2015-07-12T06:54:01.000Z</time>
      </trkpt>
      <trkpt lat="47.33018" lon="6.29979">
        <ele>325.06</ele>
        <time>2015-07-12T06:54:03.000Z</time>
      </trkpt>
      <trkpt lat="47.33018" lon="6.29965">
        <ele>325.06</ele>
        <time>2015-07-12T06:54:05.000Z</time>
      </trkpt>
      <trkpt lat="47.33019" lon="6.29951">
        <ele>325.06</ele>
        <time>2015-07-12T06:54:07.000Z</time>
      </trkpt>
      <trkpt lat="47.33019" lon="6.29936">
        <ele>324.58</ele>
        <time>2015-07-12T06:54:09.000Z</time>
      </trkpt>
      <trkpt lat="47.3302" lon="6.29922">
        <ele>325.06</ele>
        <time>2015-07-12T06:54:11.000Z</time>
      </trkpt>
      <trkpt lat="47.33021" lon="6.29908">
        <ele>324.58</ele>
        <time>2015-07-12T06:54:13.000Z</time>
      </trkpt>
      <trkpt lat="47.33021" lon="6.29893">
        <ele>325.06</ele>
        <time>2015-07-12T06:54:15.000Z</time>
      </trkpt>
      <trkpt lat="47.33022" lon="6.2988">
        <ele>325.06</ele>
        <time>2015-07-12T06:54:17.000Z</time>
      </trkpt>
      <trkpt lat="47.33022" lon="6.29866">
        <ele>325.54</ele>
        <time>2015-07-12T06:54:19.000Z</time>
      </trkpt>
      <trkpt lat="47.33023" lon="6.29853">
        <ele>325.06</ele>
        <time>2015-07-12T06:54:21.000Z</time>
      </trkpt>
      <trkpt lat="47.33023" lon="6.29839">
        <ele>325.06</ele>
        <time>2015-07-12T06:54:23.000Z</time>
      </trkpt>
      <trkpt lat="47.33023" lon="6.29825">
        <ele>325.54</ele>
        <time>2015-07-12T06:54:25.000Z</time>
      </trkpt>
      <trkpt lat="47.33024" lon="6.29806">
        <ele>325.54</ele>
        <time>2015-07-12T06:54:28.000Z</time>
      </trkpt>
      <trkpt lat="47.33025" lon="6.29792">
        <ele>325.06</ele>
        <time>2015-07-12T06:54:30.000Z</time>
      </trkpt>
      <trkpt lat="47.33025" lon="6.29779">
        <ele>326.02</ele>
        <time>2015-07-12T06:54:32.000Z</time>
      </trkpt>
      <trkpt lat="47.33025" lon="6.29765">
        <ele>325.54</ele>
        <time>2015-07-12T06:54:34.000Z</time>
      </trkpt>
      <trkpt lat="47.33023" lon="6.2975">
        <ele>325.06</ele>
        <time>2015-07-12T06:54:36.000Z</time>
      </trkpt>
      <trkpt lat="47.33023" lon="6.29735">
        <ele>325.54</ele>
        <time>2015-07-12T06:54:38.000Z</time>
      </trkpt>
      <trkpt lat="47.33023" lon="6.29721">
        <ele>325.06</ele>
        <time>2015-07-12T06:54:40.000Z</time>
      </trkpt>
      <trkpt lat="47.33023" lon="6.29707">
        <ele>325.06</ele>
        <time>2015-07-12T06:54:42.000Z</time>
      </trkpt>
      <trkpt lat="47.33022" lon="6.29693">
        <ele>325.06</ele>
        <time>2015-07-12T06:54:44.000Z</time>
      </trkpt>
      <trkpt lat="47.33022" lon="6.29678">
        <ele>325.06</ele>
        <time>2015-07-12T06:54:46.000Z</time>
      </trkpt>
      <trkpt lat="47.33021" lon="6.29664">
        <ele>325.06</ele>
        <time>2015-07-12T06:54:48.000Z</time>
      </trkpt>
      <trkpt lat="47.3302" lon="6.2965">
        <ele>325.54</ele>
        <time>2015-07-12T06:54:50.000Z</time>
      </trkpt>
      <trkpt lat="47.3302" lon="6.29637">
        <ele>325.54</ele>
        <time>2015-07-12T06:54:52.000Z</time>
      </trkpt>
      <trkpt lat="47.33018" lon="6.29623">
        <ele>325.06</ele>
        <time>2015-07-12T06:54:54.000Z</time>
      </trkpt>
      <trkpt lat="47.33017" lon="6.29608">
        <ele>325.06</ele>
        <time>2015-07-12T06:54:56.000Z</time>
      </trkpt>
      <trkpt lat="47.33015" lon="6.29595">
        <ele>325.06</ele>
        <time>2015-07-12T06:54:58.000Z</time>
      </trkpt>
      <trkpt lat="47.33014" lon="6.29581">
        <ele>324.58</ele>
        <time>2015-07-12T06:55:00.000Z</time>
      </trkpt>
      <trkpt lat="47.33011" lon="6.29568">
        <ele>325.06</ele>
        <time>2015-07-12T06:55:02.000Z</time>
      </trkpt>
      <trkpt lat="47.33009" lon="6.29554">
        <ele>325.06</ele>
        <time>2015-07-12T06:55:04.000Z</time>
      </trkpt>
      <trkpt lat="47.33007" lon="6.29541">
        <ele>325.06</ele>
        <time>2015-07-12T06:55:06.000Z</time>
      </trkpt>
      <trkpt lat="47.33006" lon="6.29528">
        <ele>325.06</ele>
        <time>2015-07-12T06:55:08.000Z</time>
      </trkpt>
      <trkpt lat="47.33002" lon="6.29508">
        <ele>325.06</ele>
        <time>2015-07-12T06:55:11.000Z</time>
      </trkpt>
      <trkpt lat="47.33001" lon="6.29495">
        <ele>325.54</ele>
        <time>2015-07-12T06:55:13.000Z</time>
      </trkpt>
      <trkpt lat="47.32998" lon="6.29476">
        <ele>325.54</ele>
        <time>2015-07-12T06:55:16.000Z</time>
      </trkpt>
      <trkpt lat="47.32996" lon="6.2946">
        <ele>326.5</ele>
        <time>2015-07-12T06:55:19.000Z</time>
      </trkpt>
      <trkpt lat="47.32993" lon="6.29443">
        <ele>326.5</ele>
        <time>2015-07-12T06:55:22.000Z</time>
      </trkpt>
      <trkpt lat="47.32989" lon="6.29425">
        <ele>326.5</ele>
        <time>2015-07-12T06:55:25.000Z</time>
      </trkpt>
      <trkpt lat="47.32985" lon="6.29406">
        <ele>326.99</ele>
        <time>2015-07-12T06:55:28.000Z</time>
      </trkpt>
      <trkpt lat="47.32981" lon="6.29389">
        <ele>326.5</ele>
        <time>2015-07-12T06:55:31.000Z</time>
      </trkpt>
      <trkpt lat="47.32976" lon="6.2937">
        <ele>326.5</ele>
        <time>2015-07-12T06:55:34.000Z</time>
      </trkpt>
      <trkpt lat="47.32972" lon="6.29358">
        <ele>326.02</ele>
        <time>2015-07-12T06:55:36.000Z</time>
      </trkpt>
      <trkpt lat="47.32968" lon="6.29346">
        <ele>326.5</ele>
        <time>2015-07-12T06:55:38.000Z</time>
      </trkpt>
      <trkpt lat="47.32964" lon="6.29333">
        <ele>326.5</ele>
        <time>2015-07-12T06:55:40.000Z</time>
      </trkpt>
      <trkpt lat="47.32959" lon="6.29322">
        <ele>326.5</ele>
        <time>2015-07-12T06:55:42.000Z</time>
      </trkpt>
      <trkpt lat="47.32954" lon="6.2931">
        <ele>326.5</ele>
        <time>2015-07-12T06:55:44.000Z</time>
      </trkpt>
      <trkpt lat="47.32948" lon="6.29298">
        <ele>326.5</ele>
        <time>2015-07-12T06:55:46.000Z</time>
      </trkpt>
      <trkpt lat="47.32943" lon="6.29286">
        <ele>326.5</ele>
        <time>2015-07-12T06:55:48.000Z</time>
      </trkpt>
      <trkpt lat="47.32938" lon="6.29275">
        <ele>326.5</ele>
        <time>2015-07-12T06:55:50.000Z</time>
      </trkpt>
      <trkpt lat="47.32932" lon="6.29263">
        <ele>326.5</ele>
        <time>2015-07-12T06:55:52.000Z</time>
      </trkpt>
      <trkpt lat="47.32927" lon="6.29252">
        <ele>326.5</ele>
        <time>2015-07-12T06:55:54.000Z</time>
      </trkpt>
      <trkpt lat="47.3292" lon="6.29241">
        <ele>326.5</ele>
        <time>2015-07-12T06:55:56.000Z</time>
      </trkpt>
      <trkpt lat="47.32915" lon="6.29229">
        <ele>326.5</ele>
        <time>2015-07-12T06:55:58.000Z</time>
      </trkpt>
      <trkpt lat="47.32909" lon="6.29218">
        <ele>326.99</ele>
        <time>2015-07-12T06:56:00.000Z</time>
      </trkpt>
      <trkpt lat="47.32903" lon="6.29208">
        <ele>326.5</ele>
        <time>2015-07-12T06:56:02.000Z</time>
      </trkpt>
      <trkpt lat="47.32897" lon="6.29197">
        <ele>326.5</ele>
        <time>2015-07-12T06:56:04.000Z</time>
      </trkpt>
      <trkpt lat="47.32891" lon="6.29185">
        <ele>326.5</ele>
        <time>2015-07-12T06:56:06.000Z</time>
      </trkpt>
      <trkpt lat="47.32885" lon="6.29173">
        <ele>326.02</ele>
        <time>2015-07-12T06:56:08.000Z</time>
      </trkpt>
      <trkpt lat="47.32879" lon="6.29161">
        <ele>326.02</ele>
        <time>2015-07-12T06:56:10.000Z</time>
      </trkpt>
      <trkpt lat="47.32874" lon="6.29148">
        <ele>326.02</ele>
        <time>2015-07-12T06:56:12.000Z</time>
      </trkpt>
      <trkpt lat="47.32867" lon="6.29136">
        <ele>326.02</ele>
        <time>2015-07-12T06:56:14.000Z</time>
      </trkpt>
      <trkpt lat="47.32861" lon="6.29124">
        <ele>325.54</ele>
        <time>2015-07-12T06:56:16.000Z</time>
      </trkpt>
      <trkpt lat="47.32854" lon="6.29112">
        <ele>326.02</ele>
        <time>2015-07-12T06:56:18.000Z</time>
      </trkpt>
      <trkpt lat="47.32849" lon="6.29099">
        <ele>326.02</ele>
        <time>2015-07-12T06:56:20.000Z</time>
      </trkpt>
      <trkpt lat="47.32844" lon="6.29086">
        <ele>326.02</ele>
        <time>2015-07-12T06:56:22.000Z</time>
      </trkpt>
      <trkpt lat="47.32838" lon="6.29074">
        <ele>325.54</ele>
        <time>2015-07-12T06:56:24.000Z</time>
      </trkpt>
      <trkpt lat="47.32832" lon="6.29062">
        <ele>326.02</ele>
        <time>2015-07-12T06:56:26.000Z</time>
      </trkpt>
      <trkpt lat="47.32825" lon="6.2905">
        <ele>325.54</ele>
        <time>2015-07-12T06:56:28.000Z</time>
      </trkpt>
      <trkpt lat="47.32819" lon="6.29037">
        <ele>325.54</ele>
        <time>2015-07-12T06:56:30.000Z</time>
      </trkpt>
      <trkpt lat="47.32814" lon="6.29025">
        <ele>326.02</ele>
        <time>2015-07-12T06:56:32.000Z</time>
      </trkpt>
      <trkpt lat="47.32808" lon="6.29012">
        <ele>325.54</ele>
        <time>2015-07-12T06:56:34.000Z</time>
      </trkpt>
      <trkpt lat="47.328" lon="6.29">
        <ele>325.54</ele>
        <time>2015-07-12T06:56:36.000Z</time>
      </trkpt>
      <trkpt lat="47.32793" lon="6.28988">
        <ele>326.02</ele>
        <time>2015-07-12T06:56:38.000Z</time>
      </trkpt>
      <trkpt lat="47.32788" lon="6.28976">
        <ele>325.54</ele>
        <time>2015-07-12T06:56:40.000Z</time>
      </trkpt>
      <trkpt lat="47.32781" lon="6.28965">
        <ele>326.02</ele>
        <time>2015-07-12T06:56:42.000Z</time>
      </trkpt>
      <trkpt lat="47.32774" lon="6.28953">
        <ele>325.54</ele>
        <time>2015-07-12T06:56:44.000Z</time>
      </trkpt>
      <trkpt lat="47.32767" lon="6.28942">
        <ele>325.54</ele>
        <time>2015-07-12T06:56:46.000Z</time>
      </trkpt>
      <trkpt lat="47.32759" lon="6.28932">
        <ele>325.54</ele>
        <time>2015-07-12T06:56:48.000Z</time>
      </trkpt>
      <trkpt lat="47.32752" lon="6.28921">
        <ele>325.06</ele>
        <time>2015-07-12T06:56:50.000Z</time>
      </trkpt>
      <trkpt lat="47.32744" lon="6.2891">
        <ele>325.54</ele>
        <time>2015-07-12T06:56:52.000Z</time>
      </trkpt>
      <trkpt lat="47.32736" lon="6.28899">
        <ele>326.02</ele>
        <time>2015-07-12T06:56:54.000Z</time>
      </trkpt>
      <trkpt lat="47.32729" lon="6.28889">
        <ele>325.54</ele>
        <time>2015-07-12T06:56:56.000Z</time>
      </trkpt>
      <trkpt lat="47.32721" lon="6.28879">
        <ele>326.02</ele>
        <time>2015-07-12T06:56:58.000Z</time>
      </trkpt>
      <trkpt lat="47.32713" lon="6.2887">
        <ele>325.54</ele>
        <time>2015-07-12T06:57:00.000Z</time>
      </trkpt>
      <trkpt lat="47.32706" lon="6.28859">
        <ele>325.54</ele>
        <time>2015-07-12T06:57:02.000Z</time>
      </trkpt>
      <trkpt lat="47.327" lon="6.28849">
        <ele>325.54</ele>
        <time>2015-07-12T06:57:04.000Z</time>
      </trkpt>
      <trkpt lat="47.32693" lon="6.28839">
        <ele>326.02</ele>
        <time>2015-07-12T06:57:06.000Z</time>
      </trkpt>
      <trkpt lat="47.32686" lon="6.28828">
        <ele>326.02</ele>
        <time>2015-07-12T06:57:08.000Z</time>
      </trkpt>
      <trkpt lat="47.32678" lon="6.28819">
        <ele>325.54</ele>
        <time>2015-07-12T06:57:10.000Z</time>
      </trkpt>
      <trkpt lat="47.32671" lon="6.28808">
        <ele>326.02</ele>
        <time>2015-07-12T06:57:12.000Z</time>
      </trkpt>
      <trkpt lat="47.32664" lon="6.28798">
        <ele>325.54</ele>
        <time>2015-07-12T06:57:14.000Z</time>
      </trkpt>
      <trkpt lat="47.32657" lon="6.2879">
        <ele>325.54</ele>
        <time>2015-07-12T06:57:16.000Z</time>
      </trkpt>
      <trkpt lat="47.32649" lon="6.28781">
        <ele>326.02</ele>
        <time>2015-07-12T06:57:18.000Z</time>
      </trkpt>
      <trkpt lat="47.32639" lon="6.28769">
        <ele>325.54</ele>
        <time>2015-07-12T06:57:21.000Z</time>
      </trkpt>
      <trkpt lat="47.32629" lon="6.28757">
        <ele>325.54</ele>
        <time>2015-07-12T06:57:24.000Z</time>
      </trkpt>
      <trkpt lat="47.32621" lon="6.2875">
        <ele>325.54</ele>
        <time>2015-07-12T06:57:26.000Z</time>
      </trkpt>
      <trkpt lat="47.32614" lon="6.28741">
        <ele>325.54</ele>
        <time>2015-07-12T06:57:28.000Z</time>
      </trkpt>
      <trkpt lat="47.32606" lon="6.28733">
        <ele>325.54</ele>
        <time>2015-07-12T06:57:30.000Z</time>
      </trkpt>
      <trkpt lat="47.32599" lon="6.28725">
        <ele>326.02</ele>
        <time>2015-07-12T06:57:32.000Z</time>
      </trkpt>
      <trkpt lat="47.32592" lon="6.28717">
        <ele>326.02</ele>
        <time>2015-07-12T06:57:34.000Z</time>
      </trkpt>
      <trkpt lat="47.32581" lon="6.28705">
        <ele>326.02</ele>
        <time>2015-07-12T06:57:37.000Z</time>
      </trkpt>
      <trkpt lat="47.32573" lon="6.28697">
        <ele>326.02</ele>
        <time>2015-07-12T06:57:39.000Z</time>
      </trkpt>
      <trkpt lat="47.32565" lon="6.28689">
        <ele>326.02</ele>
        <time>2015-07-12T06:57:41.000Z</time>
      </trkpt>
      <trkpt lat="47.32557" lon="6.28681">
        <ele>326.02</ele>
        <time>2015-07-12T06:57:43.000Z</time>
      </trkpt>
      <trkpt lat="47.32549" lon="6.28673">
        <ele>326.02</ele>
        <time>2015-07-12T06:57:45.000Z</time>
      </trkpt>
      <trkpt lat="47.32541" lon="6.28665">
        <ele>326.02</ele>
        <time>2015-07-12T06:57:47.000Z</time>
      </trkpt>
      <trkpt lat="47.32533" lon="6.28657">
        <ele>326.02</ele>
        <time>2015-07-12T06:57:49.000Z</time>
      </trkpt>
      <trkpt lat="47.32525" lon="6.28648">
        <ele>326.02</ele>
        <time>2015-07-12T06:57:51.000Z</time>
      </trkpt>
      <trkpt lat="47.32517" lon="6.28641">
        <ele>326.02</ele>
        <time>2015-07-12T06:57:53.000Z</time>
      </trkpt>
      <trkpt lat="47.32509" lon="6.28633">
        <ele>326.5</ele>
        <time>2015-07-12T06:57:55.000Z</time>
      </trkpt>
      <trkpt lat="47.32502" lon="6.28624">
        <ele>326.5</ele>
        <time>2015-07-12T06:57:57.000Z</time>
      </trkpt>
      <trkpt lat="47.32494" lon="6.28616">
        <ele>326.5</ele>
        <time>2015-07-12T06:57:59.000Z</time>
      </trkpt>
      <trkpt lat="47.32486" lon="6.28608">
        <ele>326.02</ele>
        <time>2015-07-12T06:58:01.000Z</time>
      </trkpt>
      <trkpt lat="47.32477" lon="6.28601">
        <ele>326.02</ele>
        <time>2015-07-12T06:58:03.000Z</time>
      </trkpt>
      <trkpt lat="47.32469" lon="6.28593">
        <ele>326.02</ele>
        <time>2015-07-12T06:58:05.000Z</time>
      </trkpt>
      <trkpt lat="47.32461" lon="6.28585">
        <ele>326.02</ele>
        <time>2015-07-12T06:58:07.000Z</time>
      </trkpt>
      <trkpt lat="47.32453" lon="6.28577">
        <ele>326.02</ele>
        <time>2015-07-12T06:58:09.000Z</time>
      </trkpt>
      <trkpt lat="47.32444" lon="6.28569">
        <ele>326.02</ele>
        <time>2015-07-12T06:58:11.000Z</time>
      </trkpt>
      <trkpt lat="47.32436" lon="6.28561">
        <ele>326.02</ele>
        <time>2015-07-12T06:58:13.000Z</time>
      </trkpt>
      <trkpt lat="47.32427" lon="6.28554">
        <ele>326.5</ele>
        <time>2015-07-12T06:58:15.000Z</time>
      </trkpt>
      <trkpt lat="47.32419" lon="6.28547">
        <ele>326.5</ele>
        <time>2015-07-12T06:58:17.000Z</time>
      </trkpt>
      <trkpt lat="47.32411" lon="6.28539">
        <ele>326.5</ele>
        <time>2015-07-12T06:58:19.000Z</time>
      </trkpt>
      <trkpt lat="47.32403" lon="6.28532">
        <ele>326.5</ele>
        <time>2015-07-12T06:58:21.000Z</time>
      </trkpt>
      <trkpt lat="47.32395" lon="6.28525">
        <ele>326.5</ele>
        <time>2015-07-12T06:58:23.000Z</time>
      </trkpt>
      <trkpt lat="47.32386" lon="6.28518">
        <ele>326.02</ele>
        <time>2015-07-12T06:58:25.000Z</time>
      </trkpt>
      <trkpt lat="47.32379" lon="6.28511">
        <ele>326.5</ele>
        <time>2015-07-12T06:58:27.000Z</time>
      </trkpt>
      <trkpt lat="47.32371" lon="6.28504">
        <ele>326.02</ele>
        <time>2015-07-12T06:58:29.000Z</time>
      </trkpt>
      <trkpt lat="47.3236" lon="6.28493">
        <ele>326.5</ele>
        <time>2015-07-12T06:58:32.000Z</time>
      </trkpt>
      <trkpt lat="47.32352" lon="6.28485">
        <ele>325.54</ele>
        <time>2015-07-12T06:58:34.000Z</time>
      </trkpt>
      <trkpt lat="47.32344" lon="6.28477">
        <ele>325.54</ele>
        <time>2015-07-12T06:58:36.000Z</time>
      </trkpt>
      <trkpt lat="47.32336" lon="6.28466">
        <ele>325.54</ele>
        <time>2015-07-12T06:58:38.000Z</time>
      </trkpt>
      <trkpt lat="47.32326" lon="6.28454">
        <ele>325.54</ele>
        <time>2015-07-12T06:58:40.000Z</time>
      </trkpt>
      <trkpt lat="47.32317" lon="6.28443">
        <ele>325.06</ele>
        <time>2015-07-12T06:58:42.000Z</time>
      </trkpt>
      <trkpt lat="47.32309" lon="6.28432">
        <ele>325.54</ele>
        <time>2015-07-12T06:58:44.000Z</time>
      </trkpt>
      <trkpt lat="47.32301" lon="6.28421">
        <ele>325.54</ele>
        <time>2015-07-12T06:58:46.000Z</time>
      </trkpt>
      <trkpt lat="47.32294" lon="6.2841">
        <ele>326.02</ele>
        <time>2015-07-12T06:58:48.000Z</time>
      </trkpt>
      <trkpt lat="47.32287" lon="6.28399">
        <ele>326.02</ele>
        <time>2015-07-12T06:58:50.000Z</time>
      </trkpt>
      <trkpt lat="47.32279" lon="6.2839">
        <ele>326.02</ele>
        <time>2015-07-12T06:58:52.000Z</time>
      </trkpt>
      <trkpt lat="47.32272" lon="6.28381">
        <ele>325.54</ele>
        <time>2015-07-12T06:58:54.000Z</time>
      </trkpt>
      <trkpt lat="47.32264" lon="6.28371">
        <ele>326.02</ele>
        <time>2015-07-12T06:58:56.000Z</time>
      </trkpt>
      <trkpt lat="47.32256" lon="6.28361">
        <ele>325.54</ele>
        <time>2015-07-12T06:58:58.000Z</time>
      </trkpt>
      <trkpt lat="47.32248" lon="6.2835">
        <ele>325.54</ele>
        <time>2015-07-12T06:59:00.000Z</time>
      </trkpt>
      <trkpt lat="47.32241" lon="6.28338">
        <ele>326.02</ele>
        <time>2015-07-12T06:59:02.000Z</time>
      </trkpt>
      <trkpt lat="47.32233" lon="6.28326">
        <ele>325.54</ele>
        <time>2015-07-12T06:59:04.000Z</time>
      </trkpt>
      <trkpt lat="47.32225" lon="6.28314">
        <ele>325.54</ele>
        <time>2015-07-12T06:59:06.000Z</time>
      </trkpt>
      <trkpt lat="47.32217" lon="6.28302">
        <ele>325.54</ele>
        <time>2015-07-12T06:59:08.000Z</time>
      </trkpt>
      <trkpt lat="47.32209" lon="6.2829">
        <ele>325.06</ele>
        <time>2015-07-12T06:59:10.000Z</time>
      </trkpt>
      <trkpt lat="47.32202" lon="6.28277">
        <ele>325.06</ele>
        <time>2015-07-12T06:59:12.000Z</time>
      </trkpt>
      <trkpt lat="47.32194" lon="6.28265">
        <ele>325.54</ele>
        <time>2015-07-12T06:59:14.000Z</time>
      </trkpt>
      <trkpt lat="47.32186" lon="6.28253">
        <ele>325.06</ele>
        <time>2015-07-12T06:59:16.000Z</time>
      </trkpt>
      <trkpt lat="47.32179" lon="6.2824">
        <ele>325.06</ele>
        <time>2015-07-12T06:59:18.000Z</time>
      </trkpt>
      <trkpt lat="47.32173" lon="6.28226">
        <ele>325.06</ele>
        <time>2015-07-12T06:59:20.000Z</time>
      </trkpt>
      <trkpt lat="47.32169" lon="6.28212">
        <ele>325.54</ele>
        <time>2015-07-12T06:59:22.000Z</time>
      </trkpt>
      <trkpt lat="47.32166" lon="6.28197">
        <ele>325.54</ele>
        <time>2015-07-12T06:59:24.000Z</time>
      </trkpt>
      <trkpt lat="47.32164" lon="6.28181">
        <ele>325.54</ele>
        <time>2015-07-12T06:59:26.000Z</time>
      </trkpt>
      <trkpt lat="47.32161" lon="6.28165">
        <ele>325.54</ele>
        <time>2015-07-12T06:59:28.000Z</time>
      </trkpt>
      <trkpt lat="47.3216" lon="6.2815">
        <ele>325.54</ele>
        <time>2015-07-12T06:59:30.000Z</time>
      </trkpt>
      <trkpt lat="47.32158" lon="6.28134">
        <ele>325.54</ele>
        <time>2015-07-12T06:59:32.000Z</time>
      </trkpt>
      <trkpt lat="47.32157" lon="6.28119">
        <ele>325.54</ele>
        <time>2015-07-12T06:59:34.000Z</time>
      </trkpt>
      <trkpt lat="47.32155" lon="6.28103">
        <ele>325.54</ele>
        <time>2015-07-12T06:59:36.000Z</time>
      </trkpt>
      <trkpt lat="47.32153" lon="6.28088">
        <ele>326.02</ele>
        <time>2015-07-12T06:59:38.000Z</time>
      </trkpt>
      <trkpt lat="47.32152" lon="6.28072">
        <ele>325.54</ele>
        <time>2015-07-12T06:59:40.000Z</time>
      </trkpt>
      <trkpt lat="47.3215" lon="6.28056">
        <ele>325.54</ele>
        <time>2015-07-12T06:59:42.000Z</time>
      </trkpt>
      <trkpt lat="47.32149" lon="6.28042">
        <ele>326.5</ele>
        <time>2015-07-12T06:59:44.000Z</time>
      </trkpt>
      <trkpt lat="47.32147" lon="6.28029">
        <ele>326.99</ele>
        <time>2015-07-12T06:59:46.000Z</time>
      </trkpt>
      <trkpt lat="47.32144" lon="6.2801">
        <ele>327.47</ele>
        <time>2015-07-12T06:59:49.000Z</time>
      </trkpt>
      <trkpt lat="47.32143" lon="6.27995">
        <ele>326.5</ele>
        <time>2015-07-12T06:59:51.000Z</time>
      </trkpt>
      <trkpt lat="47.32141" lon="6.27977">
        <ele>326.02</ele>
        <time>2015-07-12T06:59:53.000Z</time>
      </trkpt>
      <trkpt lat="47.32138" lon="6.27956">
        <ele>325.06</ele>
        <time>2015-07-12T06:59:55.000Z</time>
      </trkpt>
      <trkpt lat="47.32138" lon="6.27935">
        <ele>325.06</ele>
        <time>2015-07-12T06:59:57.000Z</time>
      </trkpt>
      <trkpt lat="47.32137" lon="6.27916">
        <ele>324.58</ele>
        <time>2015-07-12T06:59:59.000Z</time>
      </trkpt>
      <trkpt lat="47.32138" lon="6.27898">
        <ele>325.06</ele>
        <time>2015-07-12T07:00:01.000Z</time>
      </trkpt>
      <trkpt lat="47.32141" lon="6.27882">
        <ele>324.58</ele>
        <time>2015-07-12T07:00:03.000Z</time>
      </trkpt>
      <trkpt lat="47.32143" lon="6.27866">
        <ele>324.58</ele>
        <time>2015-07-12T07:00:05.000Z</time>
      </trkpt>
      <trkpt lat="47.32145" lon="6.2785">
        <ele>324.58</ele>
        <time>2015-07-12T07:00:07.000Z</time>
      </trkpt>
      <trkpt lat="47.32145" lon="6.27833">
        <ele>325.06</ele>
        <time>2015-07-12T07:00:09.000Z</time>
      </trkpt>
      <trkpt lat="47.32145" lon="6.27815">
        <ele>325.06</ele>
        <time>2015-07-12T07:00:11.000Z</time>
      </trkpt>
      <trkpt lat="47.32145" lon="6.27796">
        <ele>324.58</ele>
        <time>2015-07-12T07:00:13.000Z</time>
      </trkpt>
      <trkpt lat="47.32147" lon="6.27777">
        <ele>324.58</ele>
        <time>2015-07-12T07:00:15.000Z</time>
      </trkpt>
      <trkpt lat="47.32148" lon="6.27759">
        <ele>324.1</ele>
        <time>2015-07-12T07:00:17.000Z</time>
      </trkpt>
      <trkpt lat="47.32149" lon="6.2774">
        <ele>325.06</ele>
        <time>2015-07-12T07:00:19.000Z</time>
      </trkpt>
      <trkpt lat="47.32149" lon="6.27723">
        <ele>324.58</ele>
        <time>2015-07-12T07:00:21.000Z</time>
      </trkpt>
      <trkpt lat="47.32149" lon="6.27705">
        <ele>325.06</ele>
        <time>2015-07-12T07:00:23.000Z</time>
      </trkpt>
      <trkpt lat="47.32149" lon="6.27688">
        <ele>324.58</ele>
        <time>2015-07-12T07:00:25.000Z</time>
      </trkpt>
      <trkpt lat="47.32149" lon="6.2767">
        <ele>324.58</ele>
        <time>2015-07-12T07:00:27.000Z</time>
      </trkpt>
      <trkpt lat="47.32149" lon="6.27654">
        <ele>325.06</ele>
        <time>2015-07-12T07:00:29.000Z</time>
      </trkpt>
      <trkpt lat="47.32148" lon="6.27637">
        <ele>324.58</ele>
        <time>2015-07-12T07:00:31.000Z</time>
      </trkpt>
      <trkpt lat="47.32147" lon="6.2762">
        <ele>325.06</ele>
        <time>2015-07-12T07:00:33.000Z</time>
      </trkpt>
      <trkpt lat="47.32145" lon="6.27604">
        <ele>325.06</ele>
        <time>2015-07-12T07:00:35.000Z</time>
      </trkpt>
      <trkpt lat="47.32141" lon="6.27588">
        <ele>325.06</ele>
        <time>2015-07-12T07:00:37.000Z</time>
      </trkpt>
      <trkpt lat="47.32138" lon="6.27571">
        <ele>324.58</ele>
        <time>2015-07-12T07:00:39.000Z</time>
      </trkpt>
      <trkpt lat="47.32134" lon="6.27555">
        <ele>324.58</ele>
        <time>2015-07-12T07:00:41.000Z</time>
      </trkpt>
      <trkpt lat="47.32131" lon="6.27539">
        <ele>324.58</ele>
        <time>2015-07-12T07:00:43.000Z</time>
      </trkpt>
      <trkpt lat="47.32128" lon="6.27523">
        <ele>324.58</ele>
        <time>2015-07-12T07:00:45.000Z</time>
      </trkpt>
      <trkpt lat="47.32125" lon="6.27506">
        <ele>324.58</ele>
        <time>2015-07-12T07:00:47.000Z</time>
      </trkpt>
      <trkpt lat="47.32124" lon="6.27489">
        <ele>324.58</ele>
        <time>2015-07-12T07:00:49.000Z</time>
      </trkpt>
      <trkpt lat="47.32123" lon="6.27473">
        <ele>325.06</ele>
        <time>2015-07-12T07:00:51.000Z</time>
      </trkpt>
      <trkpt lat="47.32121" lon="6.27459">
        <ele>325.06</ele>
        <time>2015-07-12T07:00:53.000Z</time>
      </trkpt>
      <trkpt lat="47.32118" lon="6.27444">
        <ele>324.1</ele>
        <time>2015-07-12T07:00:55.000Z</time>
      </trkpt>
      <trkpt lat="47.32116" lon="6.27427">
        <ele>324.58</ele>
        <time>2015-07-12T07:00:57.000Z</time>
      </trkpt>
      <trkpt lat="47.32114" lon="6.27411">
        <ele>324.58</ele>
        <time>2015-07-12T07:00:59.000Z</time>
      </trkpt>
      <trkpt lat="47.32112" lon="6.27394">
        <ele>324.58</ele>
        <time>2015-07-12T07:01:01.000Z</time>
      </trkpt>
      <trkpt lat="47.3211" lon="6.27378">
        <ele>324.58</ele>
        <time>2015-07-12T07:01:03.000Z</time>
      </trkpt>
      <trkpt lat="47.32108" lon="6.27362">
        <ele>324.58</ele>
        <time>2015-07-12T07:01:05.000Z</time>
      </trkpt>
      <trkpt lat="47.32105" lon="6.27346">
        <ele>324.58</ele>
        <time>2015-07-12T07:01:07.000Z</time>
      </trkpt>
      <trkpt lat="47.32102" lon="6.27329">
        <ele>324.58</ele>
        <time>2015-07-12T07:01:09.000Z</time>
      </trkpt>
      <trkpt lat="47.321" lon="6.27312">
        <ele>324.58</ele>
        <time>2015-07-12T07:01:11.000Z</time>
      </trkpt>
      <trkpt lat="47.32097" lon="6.27295">
        <ele>324.58</ele>
        <time>2015-07-12T07:01:13.000Z</time>
      </trkpt>
      <trkpt lat="47.32095" lon="6.27278">
        <ele>324.58</ele>
        <time>2015-07-12T07:01:15.000Z</time>
      </trkpt>
      <trkpt lat="47.32093" lon="6.27262">
        <ele>324.58</ele>
        <time>2015-07-12T07:01:17.000Z</time>
      </trkpt>
      <trkpt lat="47.32091" lon="6.27245">
        <ele>324.58</ele>
        <time>2015-07-12T07:01:19.000Z</time>
      </trkpt>
      <trkpt lat="47.32089" lon="6.27228">
        <ele>324.58</ele>
        <time>2015-07-12T07:01:21.000Z</time>
      </trkpt>
      <trkpt lat="47.32087" lon="6.27212">
        <ele>324.1</ele>
        <time>2015-07-12T07:01:23.000Z</time>
      </trkpt>
      <trkpt lat="47.32085" lon="6.27195">
        <ele>324.58</ele>
        <time>2015-07-12T07:01:25.000Z</time>
      </trkpt>
      <trkpt lat="47.32084" lon="6.27178">
        <ele>324.58</ele>
        <time>2015-07-12T07:01:27.000Z</time>
      </trkpt>
      <trkpt lat="47.32084" lon="6.27162">
        <ele>324.58</ele>
        <time>2015-07-12T07:01:29.000Z</time>
      </trkpt>
      <trkpt lat="47.32083" lon="6.27145">
        <ele>324.58</ele>
        <time>2015-07-12T07:01:31.000Z</time>
      </trkpt>
      <trkpt lat="47.32082" lon="6.27129">
        <ele>324.58</ele>
        <time>2015-07-12T07:01:33.000Z</time>
      </trkpt>
      <trkpt lat="47.32082" lon="6.27112">
        <ele>324.58</ele>
        <time>2015-07-12T07:01:35.000Z</time>
      </trkpt>
      <trkpt lat="47.32081" lon="6.27096">
        <ele>325.06</ele>
        <time>2015-07-12T07:01:37.000Z</time>
      </trkpt>
      <trkpt lat="47.32081" lon="6.27079">
        <ele>324.58</ele>
        <time>2015-07-12T07:01:39.000Z</time>
      </trkpt>
      <trkpt lat="47.3208" lon="6.27063">
        <ele>324.58</ele>
        <time>2015-07-12T07:01:41.000Z</time>
      </trkpt>
      <trkpt lat="47.3208" lon="6.27046">
        <ele>324.1</ele>
        <time>2015-07-12T07:01:43.000Z</time>
      </trkpt>
      <trkpt lat="47.3208" lon="6.27029">
        <ele>324.1</ele>
        <time>2015-07-12T07:01:45.000Z</time>
      </trkpt>
      <trkpt lat="47.32081" lon="6.27012">
        <ele>324.1</ele>
        <time>2015-07-12T07:01:47.000Z</time>
      </trkpt>
      <trkpt lat="47.32081" lon="6.26995">
        <ele>324.58</ele>
        <time>2015-07-12T07:01:49.000Z</time>
      </trkpt>
      <trkpt lat="47.32081" lon="6.26978">
        <ele>324.58</ele>
        <time>2015-07-12T07:01:51.000Z</time>
      </trkpt>
      <trkpt lat="47.32082" lon="6.26962">
        <ele>324.1</ele>
        <time>2015-07-12T07:01:53.000Z</time>
      </trkpt>
      <trkpt lat="47.32082" lon="6.26945">
        <ele>324.58</ele>
        <time>2015-07-12T07:01:55.000Z</time>
      </trkpt>
      <trkpt lat="47.32083" lon="6.26928">
        <ele>324.1</ele>
        <time>2015-07-12T07:01:57.000Z</time>
      </trkpt>
      <trkpt lat="47.32084" lon="6.26912">
        <ele>324.58</ele>
        <time>2015-07-12T07:01:59.000Z</time>
      </trkpt>
      <trkpt lat="47.32084" lon="6.26896">
        <ele>324.58</ele>
        <time>2015-07-12T07:02:01.000Z</time>
      </trkpt>
      <trkpt lat="47.32084" lon="6.2688">
        <ele>324.58</ele>
        <time>2015-07-12T07:02:03.000Z</time>
      </trkpt>
      <trkpt lat="47.32085" lon="6.26864">
        <ele>324.58</ele>
        <time>2015-07-12T07:02:05.000Z</time>
      </trkpt>
      <trkpt lat="47.32085" lon="6.26848">
        <ele>324.1</ele>
        <time>2015-07-12T07:02:07.000Z</time>
      </trkpt>
      <trkpt lat="47.32085" lon="6.26832">
        <ele>324.58</ele>
        <time>2015-07-12T07:02:09.000Z</time>
      </trkpt>
      <trkpt lat="47.32086" lon="6.26816">
        <ele>324.1</ele>
        <time>2015-07-12T07:02:11.000Z</time>
      </trkpt>
      <trkpt lat="47.32085" lon="6.268">
        <ele>324.1</ele>
        <time>2015-07-12T07:02:13.000Z</time>
      </trkpt>
      <trkpt lat="47.32085" lon="6.26784">
        <ele>324.1</ele>
        <time>2015-07-12T07:02:15.000Z</time>
      </trkpt>
      <trkpt lat="47.32084" lon="6.26768">
        <ele>324.58</ele>
        <time>2015-07-12T07:02:17.000Z</time>
      </trkpt>
      <trkpt lat="47.32083" lon="6.26752">
        <ele>324.58</ele>
        <time>2015-07-12T07:02:19.000Z</time>
      </trkpt>
      <trkpt lat="47.32082" lon="6.26736">
        <ele>324.1</ele>
        <time>2015-07-12T07:02:21.000Z</time>
      </trkpt>
      <trkpt lat="47.32081" lon="6.26719">
        <ele>324.58</ele>
        <time>2015-07-12T07:02:23.000Z</time>
      </trkpt>
      <trkpt lat="47.32079" lon="6.26703">
        <ele>324.1</ele>
        <time>2015-07-12T07:02:25.000Z</time>
      </trkpt>
      <trkpt lat="47.32077" lon="6.26688">
        <ele>324.1</ele>
        <time>2015-07-12T07:02:27.000Z</time>
      </trkpt>
      <trkpt lat="47.32074" lon="6.26672">
        <ele>324.1</ele>
        <time>2015-07-12T07:02:29.000Z</time>
      </trkpt>
      <trkpt lat="47.32071" lon="6.26656">
        <ele>324.1</ele>
        <time>2015-07-12T07:02:31.000Z</time>
      </trkpt>
      <trkpt lat="47.32067" lon="6.2664">
        <ele>324.1</ele>
        <time>2015-07-12T07:02:33.000Z</time>
      </trkpt>
      <trkpt lat="47.32063" lon="6.26626">
        <ele>324.1</ele>
        <time>2015-07-12T07:02:35.000Z</time>
      </trkpt>
      <trkpt lat="47.32057" lon="6.26613">
        <ele>324.1</ele>
        <time>2015-07-12T07:02:37.000Z</time>
      </trkpt>
      <trkpt lat="47.32051" lon="6.26601">
        <ele>324.1</ele>
        <time>2015-07-12T07:02:39.000Z</time>
      </trkpt>
      <trkpt lat="47.32043" lon="6.26589">
        <ele>324.1</ele>
        <time>2015-07-12T07:02:41.000Z</time>
      </trkpt>
      <trkpt lat="47.32036" lon="6.26578">
        <ele>324.58</ele>
        <time>2015-07-12T07:02:43.000Z</time>
      </trkpt>
      <trkpt lat="47.32028" lon="6.26568">
        <ele>324.58</ele>
        <time>2015-07-12T07:02:45.000Z</time>
      </trkpt>
      <trkpt lat="47.32019" lon="6.26559">
        <ele>324.1</ele>
        <time>2015-07-12T07:02:47.000Z</time>
      </trkpt>
      <trkpt lat="47.3201" lon="6.26549">
        <ele>324.58</ele>
        <time>2015-07-12T07:02:49.000Z</time>
      </trkpt>
      <trkpt lat="47.32001" lon="6.2654">
        <ele>324.58</ele>
        <time>2015-07-12T07:02:51.000Z</time>
      </trkpt>
      <trkpt lat="47.31992" lon="6.26531">
        <ele>324.58</ele>
        <time>2015-07-12T07:02:53.000Z</time>
      </trkpt>
      <trkpt lat="47.31983" lon="6.26522">
        <ele>324.58</ele>
        <time>2015-07-12T07:02:55.000Z</time>
      </trkpt>
      <trkpt lat="47.31973" lon="6.26513">
        <ele>324.1</ele>
        <time>2015-07-12T07:02:57.000Z</time>
      </trkpt>
      <trkpt lat="47.31963" lon="6.26505">
        <ele>324.58</ele>
        <time>2015-07-12T07:02:59.000Z</time>
      </trkpt>
      <trkpt lat="47.31953" lon="6.26498">
        <ele>324.58</ele>
        <time>2015-07-12T07:03:01.000Z</time>
      </trkpt>
      <trkpt lat="47.31944" lon="6.26491">
        <ele>324.58</ele>
        <time>2015-07-12T07:03:03.000Z</time>
      </trkpt>
      <trkpt lat="47.31933" lon="6.26484">
        <ele>324.58</ele>
        <time>2015-07-12T07:03:05.000Z</time>
      </trkpt>
      <trkpt lat="47.31923" lon="6.26478">
        <ele>324.1</ele>
        <time>2015-07-12T07:03:07.000Z</time>
      </trkpt>
      <trkpt lat="47.31914" lon="6.26473">
        <ele>324.58</ele>
        <time>2015-07-12T07:03:09.000Z</time>
      </trkpt>
      <trkpt lat="47.31904" lon="6.26468">
        <ele>324.58</ele>
        <time>2015-07-12T07:03:11.000Z</time>
      </trkpt>
      <trkpt lat="47.31894" lon="6.26462">
        <ele>324.58</ele>
        <time>2015-07-12T07:03:13.000Z</time>
      </trkpt>
      <trkpt lat="47.31884" lon="6.26457">
        <ele>324.58</ele>
        <time>2015-07-12T07:03:15.000Z</time>
      </trkpt>
      <trkpt lat="47.31873" lon="6.26451">
        <ele>324.58</ele>
        <time>2015-07-12T07:03:17.000Z</time>
      </trkpt>
      <trkpt lat="47.31863" lon="6.26445">
        <ele>324.58</ele>
        <time>2015-07-12T07:03:19.000Z</time>
      </trkpt>
      <trkpt lat="47.31853" lon="6.26439">
        <ele>324.58</ele>
        <time>2015-07-12T07:03:21.000Z</time>
      </trkpt>
      <trkpt lat="47.31844" lon="6.26434">
        <ele>324.58</ele>
        <time>2015-07-12T07:03:23.000Z</time>
      </trkpt>
      <trkpt lat="47.31833" lon="6.26427">
        <ele>324.1</ele>
        <time>2015-07-12T07:03:25.000Z</time>
      </trkpt>
      <trkpt lat="47.31822" lon="6.26421">
        <ele>324.1</ele>
        <time>2015-07-12T07:03:27.000Z</time>
      </trkpt>
      <trkpt lat="47.31812" lon="6.26415">
        <ele>324.1</ele>
        <time>2015-07-12T07:03:29.000Z</time>
      </trkpt>
      <trkpt lat="47.31801" lon="6.26409">
        <ele>324.1</ele>
        <time>2015-07-12T07:03:31.000Z</time>
      </trkpt>
      <trkpt lat="47.31791" lon="6.26404">
        <ele>324.1</ele>
        <time>2015-07-12T07:03:33.000Z</time>
      </trkpt>
      <trkpt lat="47.3178" lon="6.26398">
        <ele>324.1</ele>
        <time>2015-07-12T07:03:35.000Z</time>
      </trkpt>
      <trkpt lat="47.31769" lon="6.26392">
        <ele>324.1</ele>
        <time>2015-07-12T07:03:37.000Z</time>
      </trkpt>
      <trkpt lat="47.31758" lon="6.26385">
        <ele>324.1</ele>
        <time>2015-07-12T07:03:39.000Z</time>
      </trkpt>
      <trkpt lat="47.31748" lon="6.26379">
        <ele>324.1</ele>
        <time>2015-07-12T07:03:41.000Z</time>
      </trkpt>
      <trkpt lat="47.31738" lon="6.26372">
        <ele>324.58</ele>
        <time>2015-07-12T07:03:43.000Z</time>
      </trkpt>
      <trkpt lat="47.31728" lon="6.26365">
        <ele>324.1</ele>
        <time>2015-07-12T07:03:45.000Z</time>
      </trkpt>
      <trkpt lat="47.31718" lon="6.26359">
        <ele>324.1</ele>
        <time>2015-07-12T07:03:47.000Z</time>
      </trkpt>
      <trkpt lat="47.31713" lon="6.26356">
        <ele>324.1</ele>
        <time>2015-07-12T07:03:48.000Z</time>
      </trkpt>
      <trkpt lat="47.31697" lon="6.26346">
        <ele>324.1</ele>
        <time>2015-07-12T07:03:51.000Z</time>
      </trkpt>
      <trkpt lat="47.31687" lon="6.26339">
        <ele>324.58</ele>
        <time>2015-07-12T07:03:53.000Z</time>
      </trkpt>
      <trkpt lat="47.31677" lon="6.26332">
        <ele>324.1</ele>
        <time>2015-07-12T07:03:55.000Z</time>
      </trkpt>
      <trkpt lat="47.31667" lon="6.26325">
        <ele>324.1</ele>
        <time>2015-07-12T07:03:57.000Z</time>
      </trkpt>
      <trkpt lat="47.31656" lon="6.26318">
        <ele>324.1</ele>
        <time>2015-07-12T07:03:59.000Z</time>
      </trkpt>
      <trkpt lat="47.31645" lon="6.26311">
        <ele>324.1</ele>
        <time>2015-07-12T07:04:01.000Z</time>
      </trkpt>
      <trkpt lat="47.31634" lon="6.26304">
        <ele>324.1</ele>
        <time>2015-07-12T07:04:03.000Z</time>
      </trkpt>
      <trkpt lat="47.31623" lon="6.26297">
        <ele>324.1</ele>
        <time>2015-07-12T07:04:05.000Z</time>
      </trkpt>
      <trkpt lat="47.31612" lon="6.26289">
        <ele>324.1</ele>
        <time>2015-07-12T07:04:07.000Z</time>
      </trkpt>
      <trkpt lat="47.31601" lon="6.26282">
        <ele>324.1</ele>
        <time>2015-07-12T07:04:09.000Z</time>
      </trkpt>
      <trkpt lat="47.3159" lon="6.26275">
        <ele>324.1</ele>
        <time>2015-07-12T07:04:11.000Z</time>
      </trkpt>
      <trkpt lat="47.31579" lon="6.26267">
        <ele>323.62</ele>
        <time>2015-07-12T07:04:13.000Z</time>
      </trkpt>
      <trkpt lat="47.31569" lon="6.2626">
        <ele>323.62</ele>
        <time>2015-07-12T07:04:15.000Z</time>
      </trkpt>
      <trkpt lat="47.31559" lon="6.26254">
        <ele>323.62</ele>
        <time>2015-07-12T07:04:17.000Z</time>
      </trkpt>
      <trkpt lat="47.31549" lon="6.26248">
        <ele>323.62</ele>
        <time>2015-07-12T07:04:19.000Z</time>
      </trkpt>
      <trkpt lat="47.3154" lon="6.26242">
        <ele>324.1</ele>
        <time>2015-07-12T07:04:21.000Z</time>
      </trkpt>
      <trkpt lat="47.31532" lon="6.26236">
        <ele>324.1</ele>
        <time>2015-07-12T07:04:23.000Z</time>
      </trkpt>
      <trkpt lat="47.31523" lon="6.26228">
        <ele>323.62</ele>
        <time>2015-07-12T07:04:26.000Z</time>
      </trkpt>
      <trkpt lat="47.31512" lon="6.26221">
        <ele>323.62</ele>
        <time>2015-07-12T07:05:07.000Z</time>
      </trkpt>
      <trkpt lat="47.31503" lon="6.26215">
        <ele>323.62</ele>
        <time>2015-07-12T07:05:10.000Z</time>
      </trkpt>
      <trkpt lat="47.31492" lon="6.26207">
        <ele>323.62</ele>
        <time>2015-07-12T07:05:13.000Z</time>
      </trkpt>
      <trkpt lat="47.3148" lon="6.26197">
        <ele>323.62</ele>
        <time>2015-07-12T07:05:16.000Z</time>
      </trkpt>
      <trkpt lat="47.31471" lon="6.26189">
        <ele>323.62</ele>
        <time>2015-07-12T07:05:18.000Z</time>
      </trkpt>
      <trkpt lat="47.31462" lon="6.26182">
        <ele>323.62</ele>
        <time>2015-07-12T07:05:20.000Z</time>
      </trkpt>
      <trkpt lat="47.31454" lon="6.26174">
        <ele>324.1</ele>
        <time>2015-07-12T07:05:22.000Z</time>
      </trkpt>
      <trkpt lat="47.31445" lon="6.26165">
        <ele>324.1</ele>
        <time>2015-07-12T07:05:24.000Z</time>
      </trkpt>
      <trkpt lat="47.31437" lon="6.26156">
        <ele>324.58</ele>
        <time>2015-07-12T07:05:26.000Z</time>
      </trkpt>
      <trkpt lat="47.31429" lon="6.26146">
        <ele>324.58</ele>
        <time>2015-07-12T07:05:28.000Z</time>
      </trkpt>
      <trkpt lat="47.31419" lon="6.26138">
        <ele>324.1</ele>
        <time>2015-07-12T07:05:30.000Z</time>
      </trkpt>
      <trkpt lat="47.31409" lon="6.26129">
        <ele>324.1</ele>
        <time>2015-07-12T07:05:32.000Z</time>
      </trkpt>
      <trkpt lat="47.314" lon="6.26123">
        <ele>323.62</ele>
        <time>2015-07-12T07:05:34.000Z</time>
      </trkpt>
      <trkpt lat="47.31389" lon="6.26116">
        <ele>323.62</ele>
        <time>2015-07-12T07:05:36.000Z</time>
      </trkpt>
      <trkpt lat="47.31379" lon="6.2611">
        <ele>323.62</ele>
        <time>2015-07-12T07:05:38.000Z</time>
      </trkpt>
      <trkpt lat="47.3137" lon="6.26103">
        <ele>323.14</ele>
        <time>2015-07-12T07:05:40.000Z</time>
      </trkpt>
      <trkpt lat="47.31359" lon="6.26097">
        <ele>323.14</ele>
        <time>2015-07-12T07:05:42.000Z</time>
      </trkpt>
      <trkpt lat="47.31348" lon="6.2609">
        <ele>323.14</ele>
        <time>2015-07-12T07:05:44.000Z</time>
      </trkpt>
      <trkpt lat="47.31337" lon="6.26085">
        <ele>323.14</ele>
        <time>2015-07-12T07:05:46.000Z</time>
      </trkpt>
      <trkpt lat="47.31327" lon="6.26079">
        <ele>323.14</ele>
        <time>2015-07-12T07:05:48.000Z</time>
      </trkpt>
      <trkpt lat="47.31316" lon="6.26074">
        <ele>324.1</ele>
        <time>2015-07-12T07:05:50.000Z</time>
      </trkpt>
      <trkpt lat="47.31305" lon="6.26068">
        <ele>324.1</ele>
        <time>2015-07-12T07:05:52.000Z</time>
      </trkpt>
      <trkpt lat="47.31295" lon="6.26062">
        <ele>323.62</ele>
        <time>2015-07-12T07:05:54.000Z</time>
      </trkpt>
      <trkpt lat="47.31285" lon="6.26053">
        <ele>324.1</ele>
        <time>2015-07-12T07:05:56.000Z</time>
      </trkpt>
      <trkpt lat="47.31275" lon="6.26045">
        <ele>324.1</ele>
        <time>2015-07-12T07:05:58.000Z</time>
      </trkpt>
      <trkpt lat="47.31265" lon="6.2604">
        <ele>323.62</ele>
        <time>2015-07-12T07:06:00.000Z</time>
      </trkpt>
      <trkpt lat="47.31254" lon="6.26037">
        <ele>323.62</ele>
        <time>2015-07-12T07:06:02.000Z</time>
      </trkpt>
      <trkpt lat="47.31244" lon="6.26033">
        <ele>324.1</ele>
        <time>2015-07-12T07:06:04.000Z</time>
      </trkpt>
      <trkpt lat="47.31234" lon="6.26027">
        <ele>323.62</ele>
        <time>2015-07-12T07:06:06.000Z</time>
      </trkpt>
      <trkpt lat="47.31223" lon="6.26021">
        <ele>323.62</ele>
        <time>2015-07-12T07:06:08.000Z</time>
      </trkpt>
      <trkpt lat="47.31214" lon="6.26014">
        <ele>323.14</ele>
        <time>2015-07-12T07:06:10.000Z</time>
      </trkpt>
      <trkpt lat="47.31204" lon="6.26006">
        <ele>323.62</ele>
        <time>2015-07-12T07:06:12.000Z</time>
      </trkpt>
      <trkpt lat="47.31195" lon="6.25999">
        <ele>323.62</ele>
        <time>2015-07-12T07:06:14.000Z</time>
      </trkpt>
      <trkpt lat="47.31185" lon="6.25992">
        <ele>323.62</ele>
        <time>2015-07-12T07:06:16.000Z</time>
      </trkpt>
      <trkpt lat="47.31176" lon="6.25984">
        <ele>323.62</ele>
        <time>2015-07-12T07:06:18.000Z</time>
      </trkpt>
      <trkpt lat="47.31167" lon="6.25974">
        <ele>323.62</ele>
        <time>2015-07-12T07:06:20.000Z</time>
      </trkpt>
      <trkpt lat="47.3116" lon="6.25962">
        <ele>323.62</ele>
        <time>2015-07-12T07:06:22.000Z</time>
      </trkpt>
      <trkpt lat="47.31155" lon="6.2595">
        <ele>323.62</ele>
        <time>2015-07-12T07:06:24.000Z</time>
      </trkpt>
      <trkpt lat="47.31149" lon="6.25939">
        <ele>323.62</ele>
        <time>2015-07-12T07:06:26.000Z</time>
      </trkpt>
      <trkpt lat="47.31143" lon="6.25926">
        <ele>324.1</ele>
        <time>2015-07-12T07:06:28.000Z</time>
      </trkpt>
      <trkpt lat="47.31137" lon="6.25915">
        <ele>323.62</ele>
        <time>2015-07-12T07:06:30.000Z</time>
      </trkpt>
      <trkpt lat="47.31132" lon="6.25904">
        <ele>324.1</ele>
        <time>2015-07-12T07:06:32.000Z</time>
      </trkpt>
      <trkpt lat="47.31127" lon="6.25892">
        <ele>324.58</ele>
        <time>2015-07-12T07:06:34.000Z</time>
      </trkpt>
      <trkpt lat="47.31119" lon="6.25877">
        <ele>324.58</ele>
        <time>2015-07-12T07:06:37.000Z</time>
      </trkpt>
      <trkpt lat="47.31111" lon="6.25861">
        <ele>324.58</ele>
        <time>2015-07-12T07:06:40.000Z</time>
      </trkpt>
      <trkpt lat="47.31105" lon="6.2585">
        <ele>325.06</ele>
        <time>2015-07-12T07:06:42.000Z</time>
      </trkpt>
      <trkpt lat="47.31099" lon="6.2584">
        <ele>324.58</ele>
        <time>2015-07-12T07:06:44.000Z</time>
      </trkpt>
      <trkpt lat="47.31092" lon="6.2583">
        <ele>324.58</ele>
        <time>2015-07-12T07:06:46.000Z</time>
      </trkpt>
      <trkpt lat="47.31085" lon="6.2582">
        <ele>325.54</ele>
        <time>2015-07-12T07:06:48.000Z</time>
      </trkpt>
      <trkpt lat="47.31079" lon="6.2581">
        <ele>324.58</ele>
        <time>2015-07-12T07:06:50.000Z</time>
      </trkpt>
      <trkpt lat="47.31072" lon="6.25801">
        <ele>324.58</ele>
        <time>2015-07-12T07:06:52.000Z</time>
      </trkpt>
      <trkpt lat="47.31066" lon="6.2579">
        <ele>324.1</ele>
        <time>2015-07-12T07:06:54.000Z</time>
      </trkpt>
      <trkpt lat="47.3106" lon="6.2578">
        <ele>324.58</ele>
        <time>2015-07-12T07:06:56.000Z</time>
      </trkpt>
      <trkpt lat="47.31054" lon="6.2577">
        <ele>325.06</ele>
        <time>2015-07-12T07:06:58.000Z</time>
      </trkpt>
      <trkpt lat="47.31048" lon="6.2576">
        <ele>324.58</ele>
        <time>2015-07-12T07:07:00.000Z</time>
      </trkpt>
      <trkpt lat="47.31042" lon="6.2575">
        <ele>324.58</ele>
        <time>2015-07-12T07:07:02.000Z</time>
      </trkpt>
      <trkpt lat="47.31035" lon="6.2574">
        <ele>325.54</ele>
        <time>2015-07-12T07:07:04.000Z</time>
      </trkpt>
      <trkpt lat="47.31028" lon="6.25728">
        <ele>325.06</ele>
        <time>2015-07-12T07:07:06.000Z</time>
      </trkpt>
      <trkpt lat="47.3102" lon="6.25714">
        <ele>324.58</ele>
        <time>2015-07-12T07:07:08.000Z</time>
      </trkpt>
      <trkpt lat="47.31016" lon="6.25696">
        <ele>324.1</ele>
        <time>2015-07-12T07:07:10.000Z</time>
      </trkpt>
      <trkpt lat="47.31014" lon="6.25676">
        <ele>323.14</ele>
        <time>2015-07-12T07:07:12.000Z</time>
      </trkpt>
      <trkpt lat="47.31012" lon="6.25656">
        <ele>323.14</ele>
        <time>2015-07-12T07:07:14.000Z</time>
      </trkpt>
      <trkpt lat="47.31009" lon="6.25636">
        <ele>323.14</ele>
        <time>2015-07-12T07:07:16.000Z</time>
      </trkpt>
      <trkpt lat="47.31005" lon="6.25617">
        <ele>323.14</ele>
        <time>2015-07-12T07:07:18.000Z</time>
      </trkpt>
      <trkpt lat="47.31002" lon="6.256">
        <ele>323.62</ele>
        <time>2015-07-12T07:07:20.000Z</time>
      </trkpt>
      <trkpt lat="47.30999" lon="6.25583">
        <ele>323.14</ele>
        <time>2015-07-12T07:07:22.000Z</time>
      </trkpt>
      <trkpt lat="47.30997" lon="6.25566">
        <ele>323.62</ele>
        <time>2015-07-12T07:07:24.000Z</time>
      </trkpt>
      <trkpt lat="47.30996" lon="6.25549">
        <ele>323.14</ele>
        <time>2015-07-12T07:07:26.000Z</time>
      </trkpt>
      <trkpt lat="47.30994" lon="6.25532">
        <ele>323.62</ele>
        <time>2015-07-12T07:07:28.000Z</time>
      </trkpt>
      <trkpt lat="47.30992" lon="6.25516">
        <ele>323.62</ele>
        <time>2015-07-12T07:07:30.000Z</time>
      </trkpt>
      <trkpt lat="47.30989" lon="6.255">
        <ele>323.62</ele>
        <time>2015-07-12T07:07:32.000Z</time>
      </trkpt>
      <trkpt lat="47.30986" lon="6.25484">
        <ele>323.62</ele>
        <time>2015-07-12T07:07:34.000Z</time>
      </trkpt>
      <trkpt lat="47.30984" lon="6.25469">
        <ele>324.1</ele>
        <time>2015-07-12T07:07:36.000Z</time>
      </trkpt>
      <trkpt lat="47.3098" lon="6.25453">
        <ele>323.62</ele>
        <time>2015-07-12T07:07:38.000Z</time>
      </trkpt>
      <trkpt lat="47.30977" lon="6.25437">
        <ele>324.1</ele>
        <time>2015-07-12T07:07:40.000Z</time>
      </trkpt>
      <trkpt lat="47.30974" lon="6.2542">
        <ele>324.1</ele>
        <time>2015-07-12T07:07:42.000Z</time>
      </trkpt>
      <trkpt lat="47.30971" lon="6.25404">
        <ele>324.1</ele>
        <time>2015-07-12T07:07:44.000Z</time>
      </trkpt>
      <trkpt lat="47.30969" lon="6.25388">
        <ele>324.1</ele>
        <time>2015-07-12T07:07:46.000Z</time>
      </trkpt>
      <trkpt lat="47.30966" lon="6.25372">
        <ele>324.58</ele>
        <time>2015-07-12T07:07:48.000Z</time>
      </trkpt>
      <trkpt lat="47.30963" lon="6.25356">
        <ele>324.1</ele>
        <time>2015-07-12T07:07:50.000Z</time>
      </trkpt>
      <trkpt lat="47.3096" lon="6.25341">
        <ele>324.58</ele>
        <time>2015-07-12T07:07:52.000Z</time>
      </trkpt>
      <trkpt lat="47.30958" lon="6.25324">
        <ele>324.58</ele>
        <time>2015-07-12T07:07:54.000Z</time>
      </trkpt>
      <trkpt lat="47.30956" lon="6.25307">
        <ele>324.1</ele>
        <time>2015-07-12T07:07:56.000Z</time>
      </trkpt>
      <trkpt lat="47.30954" lon="6.25289">
        <ele>324.1</ele>
        <time>2015-07-12T07:07:58.000Z</time>
      </trkpt>
      <trkpt lat="47.30952" lon="6.25271">
        <ele>323.62</ele>
        <time>2015-07-12T07:08:00.000Z</time>
      </trkpt>
      <trkpt lat="47.30949" lon="6.25253">
        <ele>323.62</ele>
        <time>2015-07-12T07:08:02.000Z</time>
      </trkpt>
      <trkpt lat="47.30946" lon="6.25235">
        <ele>323.14</ele>
        <time>2015-07-12T07:08:04.000Z</time>
      </trkpt>
      <trkpt lat="47.30944" lon="6.25216">
        <ele>323.14</ele>
        <time>2015-07-12T07:08:06.000Z</time>
      </trkpt>
      <trkpt lat="47.30941" lon="6.25198">
        <ele>323.14</ele>
        <time>2015-07-12T07:08:08.000Z</time>
      </trkpt>
      <trkpt lat="47.30938" lon="6.2518">
        <ele>323.14</ele>
        <time>2015-07-12T07:08:10.000Z</time>
      </trkpt>
      <trkpt lat="47.30935" lon="6.25162">
        <ele>323.14</ele>
        <time>2015-07-12T07:08:12.000Z</time>
      </trkpt>
      <trkpt lat="47.30932" lon="6.25144">
        <ele>323.14</ele>
        <time>2015-07-12T07:08:14.000Z</time>
      </trkpt>
      <trkpt lat="47.30929" lon="6.25127">
        <ele>323.14</ele>
        <time>2015-07-12T07:08:16.000Z</time>
      </trkpt>
      <trkpt lat="47.30927" lon="6.2511">
        <ele>323.14</ele>
        <time>2015-07-12T07:08:18.000Z</time>
      </trkpt>
      <trkpt lat="47.30924" lon="6.25093">
        <ele>323.14</ele>
        <time>2015-07-12T07:08:20.000Z</time>
      </trkpt>
      <trkpt lat="47.30921" lon="6.25076">
        <ele>323.62</ele>
        <time>2015-07-12T07:08:22.000Z</time>
      </trkpt>
      <trkpt lat="47.30918" lon="6.2506">
        <ele>323.14</ele>
        <time>2015-07-12T07:08:24.000Z</time>
      </trkpt>
      <trkpt lat="47.30915" lon="6.25043">
        <ele>323.14</ele>
        <time>2015-07-12T07:08:26.000Z</time>
      </trkpt>
      <trkpt lat="47.30913" lon="6.25026">
        <ele>323.14</ele>
        <time>2015-07-12T07:08:28.000Z</time>
      </trkpt>
      <trkpt lat="47.30911" lon="6.2501">
        <ele>323.62</ele>
        <time>2015-07-12T07:08:30.000Z</time>
      </trkpt>
      <trkpt lat="47.30909" lon="6.24994">
        <ele>323.62</ele>
        <time>2015-07-12T07:08:32.000Z</time>
      </trkpt>
      <trkpt lat="47.30907" lon="6.24978">
        <ele>323.62</ele>
        <time>2015-07-12T07:08:34.000Z</time>
      </trkpt>
      <trkpt lat="47.30904" lon="6.24963">
        <ele>324.1</ele>
        <time>2015-07-12T07:08:36.000Z</time>
      </trkpt>
      <trkpt lat="47.30902" lon="6.24947">
        <ele>324.1</ele>
        <time>2015-07-12T07:08:38.000Z</time>
      </trkpt>
      <trkpt lat="47.309" lon="6.24931">
        <ele>324.1</ele>
        <time>2015-07-12T07:08:40.000Z</time>
      </trkpt>
      <trkpt lat="47.30898" lon="6.24914">
        <ele>323.62</ele>
        <time>2015-07-12T07:08:42.000Z</time>
      </trkpt>
      <trkpt lat="47.30896" lon="6.24897">
        <ele>323.62</ele>
        <time>2015-07-12T07:08:44.000Z</time>
      </trkpt>
      <trkpt lat="47.30893" lon="6.2488">
        <ele>323.62</ele>
        <time>2015-07-12T07:08:46.000Z</time>
      </trkpt>
      <trkpt lat="47.30891" lon="6.24862">
        <ele>323.14</ele>
        <time>2015-07-12T07:08:48.000Z</time>
      </trkpt>
      <trkpt lat="47.30888" lon="6.24845">
        <ele>323.14</ele>
        <time>2015-07-12T07:08:50.000Z</time>
      </trkpt>
      <trkpt lat="47.30885" lon="6.24827">
        <ele>322.66</ele>
        <time>2015-07-12T07:08:52.000Z</time>
      </trkpt>
      <trkpt lat="47.30882" lon="6.2481">
        <ele>323.14</ele>
        <time>2015-07-12T07:08:54.000Z</time>
      </trkpt>
      <trkpt lat="47.30879" lon="6.24793">
        <ele>323.14</ele>
        <time>2015-07-12T07:08:56.000Z</time>
      </trkpt>
      <trkpt lat="47.30877" lon="6.24777">
        <ele>323.14</ele>
        <time>2015-07-12T07:08:58.000Z</time>
      </trkpt>
      <trkpt lat="47.30875" lon="6.2476">
        <ele>323.62</ele>
        <time>2015-07-12T07:09:00.000Z</time>
      </trkpt>
      <trkpt lat="47.30872" lon="6.24744">
        <ele>323.14</ele>
        <time>2015-07-12T07:09:02.000Z</time>
      </trkpt>
      <trkpt lat="47.3087" lon="6.24728">
        <ele>322.66</ele>
        <time>2015-07-12T07:09:04.000Z</time>
      </trkpt>
      <trkpt lat="47.30867" lon="6.24712">
        <ele>323.14</ele>
        <time>2015-07-12T07:09:06.000Z</time>
      </trkpt>
      <trkpt lat="47.30865" lon="6.24696">
        <ele>323.14</ele>
        <time>2015-07-12T07:09:08.000Z</time>
      </trkpt>
      <trkpt lat="47.30862" lon="6.2468">
        <ele>323.14</ele>
        <time>2015-07-12T07:09:10.000Z</time>
      </trkpt>
      <trkpt lat="47.30861" lon="6.24664">
        <ele>323.14</ele>
        <time>2015-07-12T07:09:12.000Z</time>
      </trkpt>
      <trkpt lat="47.30858" lon="6.24649">
        <ele>323.14</ele>
        <time>2015-07-12T07:09:14.000Z</time>
      </trkpt>
      <trkpt lat="47.30856" lon="6.24633">
        <ele>323.14</ele>
        <time>2015-07-12T07:09:16.000Z</time>
      </trkpt>
      <trkpt lat="47.30853" lon="6.24617">
        <ele>323.14</ele>
        <time>2015-07-12T07:09:18.000Z</time>
      </trkpt>
      <trkpt lat="47.30851" lon="6.24602">
        <ele>323.14</ele>
        <time>2015-07-12T07:09:20.000Z</time>
      </trkpt>
      <trkpt lat="47.30849" lon="6.24587">
        <ele>323.14</ele>
        <time>2015-07-12T07:09:22.000Z</time>
      </trkpt>
      <trkpt lat="47.30847" lon="6.24572">
        <ele>323.62</ele>
        <time>2015-07-12T07:09:24.000Z</time>
      </trkpt>
      <trkpt lat="47.30844" lon="6.24556">
        <ele>323.14</ele>
        <time>2015-07-12T07:09:26.000Z</time>
      </trkpt>
      <trkpt lat="47.30841" lon="6.2454">
        <ele>323.14</ele>
        <time>2015-07-12T07:09:28.000Z</time>
      </trkpt>
      <trkpt lat="47.30838" lon="6.24525">
        <ele>323.14</ele>
        <time>2015-07-12T07:09:30.000Z</time>
      </trkpt>
      <trkpt lat="47.30835" lon="6.24509">
        <ele>323.14</ele>
        <time>2015-07-12T07:09:32.000Z</time>
      </trkpt>
      <trkpt lat="47.30833" lon="6.24493">
        <ele>323.14</ele>
        <time>2015-07-12T07:09:34.000Z</time>
      </trkpt>
      <trkpt lat="47.3083" lon="6.24477">
        <ele>323.14</ele>
        <time>2015-07-12T07:09:36.000Z</time>
      </trkpt>
      <trkpt lat="47.30827" lon="6.2446">
        <ele>322.66</ele>
        <time>2015-07-12T07:09:38.000Z</time>
      </trkpt>
      <trkpt lat="47.30824" lon="6.24444">
        <ele>322.66</ele>
        <time>2015-07-12T07:09:40.000Z</time>
      </trkpt>
      <trkpt lat="47.3082" lon="6.24428">
        <ele>323.14</ele>
        <time>2015-07-12T07:09:42.000Z</time>
      </trkpt>
      <trkpt lat="47.30816" lon="6.24412">
        <ele>323.14</ele>
        <time>2015-07-12T07:09:44.000Z</time>
      </trkpt>
      <trkpt lat="47.30812" lon="6.24396">
        <ele>322.66</ele>
        <time>2015-07-12T07:09:46.000Z</time>
      </trkpt>
      <trkpt lat="47.30807" lon="6.24381">
        <ele>323.14</ele>
        <time>2015-07-12T07:09:48.000Z</time>
      </trkpt>
      <trkpt lat="47.30803" lon="6.24366">
        <ele>323.14</ele>
        <time>2015-07-12T07:09:50.000Z</time>
      </trkpt>
      <trkpt lat="47.30798" lon="6.24351">
        <ele>323.14</ele>
        <time>2015-07-12T07:09:52.000Z</time>
      </trkpt>
      <trkpt lat="47.30794" lon="6.24336">
        <ele>323.14</ele>
        <time>2015-07-12T07:09:54.000Z</time>
      </trkpt>
      <trkpt lat="47.30789" lon="6.2432">
        <ele>323.14</ele>
        <time>2015-07-12T07:09:56.000Z</time>
      </trkpt>
      <trkpt lat="47.30785" lon="6.24305">
        <ele>323.14</ele>
        <time>2015-07-12T07:09:58.000Z</time>
      </trkpt>
      <trkpt lat="47.30781" lon="6.2429">
        <ele>323.14</ele>
        <time>2015-07-12T07:10:00.000Z</time>
      </trkpt>
      <trkpt lat="47.30777" lon="6.24274">
        <ele>322.66</ele>
        <time>2015-07-12T07:10:02.000Z</time>
      </trkpt>
      <trkpt lat="47.30772" lon="6.24259">
        <ele>323.14</ele>
        <time>2015-07-12T07:10:04.000Z</time>
      </trkpt>
      <trkpt lat="47.30768" lon="6.24244">
        <ele>323.14</ele>
        <time>2015-07-12T07:10:06.000Z</time>
      </trkpt>
      <trkpt lat="47.30763" lon="6.24229">
        <ele>323.14</ele>
        <time>2015-07-12T07:10:08.000Z</time>
      </trkpt>
      <trkpt lat="47.30759" lon="6.24214">
        <ele>322.66</ele>
        <time>2015-07-12T07:10:10.000Z</time>
      </trkpt>
      <trkpt lat="47.30756" lon="6.242">
        <ele>323.14</ele>
        <time>2015-07-12T07:10:12.000Z</time>
      </trkpt>
      <trkpt lat="47.30753" lon="6.24186">
        <ele>323.62</ele>
        <time>2015-07-12T07:10:14.000Z</time>
      </trkpt>
      <trkpt lat="47.3075" lon="6.24171">
        <ele>323.62</ele>
        <time>2015-07-12T07:10:16.000Z</time>
      </trkpt>
      <trkpt lat="47.30746" lon="6.24156">
        <ele>323.62</ele>
        <time>2015-07-12T07:10:18.000Z</time>
      </trkpt>
      <trkpt lat="47.30743" lon="6.24141">
        <ele>323.62</ele>
        <time>2015-07-12T07:10:20.000Z</time>
      </trkpt>
      <trkpt lat="47.3074" lon="6.24126">
        <ele>323.62</ele>
        <time>2015-07-12T07:10:22.000Z</time>
      </trkpt>
      <trkpt lat="47.30737" lon="6.2411">
        <ele>323.62</ele>
        <time>2015-07-12T07:10:24.000Z</time>
      </trkpt>
      <trkpt lat="47.30734" lon="6.24095">
        <ele>323.62</ele>
        <time>2015-07-12T07:10:26.000Z</time>
      </trkpt>
      <trkpt lat="47.3073" lon="6.2408">
        <ele>323.62</ele>
        <time>2015-07-12T07:10:28.000Z</time>
      </trkpt>
      <trkpt lat="47.30727" lon="6.24064">
        <ele>323.62</ele>
        <time>2015-07-12T07:10:30.000Z</time>
      </trkpt>
      <trkpt lat="47.30723" lon="6.24048">
        <ele>323.62</ele>
        <time>2015-07-12T07:10:32.000Z</time>
      </trkpt>
      <trkpt lat="47.3072" lon="6.24032">
        <ele>323.62</ele>
        <time>2015-07-12T07:10:34.000Z</time>
      </trkpt>
      <trkpt lat="47.30716" lon="6.24017">
        <ele>323.62</ele>
        <time>2015-07-12T07:10:36.000Z</time>
      </trkpt>
      <trkpt lat="47.30713" lon="6.24001">
        <ele>323.62</ele>
        <time>2015-07-12T07:10:38.000Z</time>
      </trkpt>
      <trkpt lat="47.3071" lon="6.23985">
        <ele>323.14</ele>
        <time>2015-07-12T07:10:40.000Z</time>
      </trkpt>
      <trkpt lat="47.30706" lon="6.23969">
        <ele>323.14</ele>
        <time>2015-07-12T07:10:42.000Z</time>
      </trkpt>
      <trkpt lat="47.30702" lon="6.23954">
        <ele>323.14</ele>
        <time>2015-07-12T07:10:44.000Z</time>
      </trkpt>
      <trkpt lat="47.30699" lon="6.23939">
        <ele>323.14</ele>
        <time>2015-07-12T07:10:46.000Z</time>
      </trkpt>
      <trkpt lat="47.30695" lon="6.23924">
        <ele>323.62</ele>
        <time>2015-07-12T07:10:48.000Z</time>
      </trkpt>
      <trkpt lat="47.30691" lon="6.23909">
        <ele>323.62</ele>
        <time>2015-07-12T07:10:50.000Z</time>
      </trkpt>
      <trkpt lat="47.30687" lon="6.23894">
        <ele>323.62</ele>
        <time>2015-07-12T07:10:52.000Z</time>
      </trkpt>
      <trkpt lat="47.30682" lon="6.23879">
        <ele>323.62</ele>
        <time>2015-07-12T07:10:54.000Z</time>
      </trkpt>
      <trkpt lat="47.30677" lon="6.23864">
        <ele>323.14</ele>
        <time>2015-07-12T07:10:56.000Z</time>
      </trkpt>
      <trkpt lat="47.30672" lon="6.2385">
        <ele>323.14</ele>
        <time>2015-07-12T07:10:58.000Z</time>
      </trkpt>
      <trkpt lat="47.30666" lon="6.23836">
        <ele>323.14</ele>
        <time>2015-07-12T07:11:00.000Z</time>
      </trkpt>
      <trkpt lat="47.3066" lon="6.23821">
        <ele>323.14</ele>
        <time>2015-07-12T07:11:02.000Z</time>
      </trkpt>
      <trkpt lat="47.30654" lon="6.23807">
        <ele>323.14</ele>
        <time>2015-07-12T07:11:04.000Z</time>
      </trkpt>
      <trkpt lat="47.30647" lon="6.23792">
        <ele>323.14</ele>
        <time>2015-07-12T07:11:06.000Z</time>
      </trkpt>
      <trkpt lat="47.3064" lon="6.23778">
        <ele>323.14</ele>
        <time>2015-07-12T07:11:08.000Z</time>
      </trkpt>
      <trkpt lat="47.30633" lon="6.23764">
        <ele>322.66</ele>
        <time>2015-07-12T07:11:10.000Z</time>
      </trkpt>
      <trkpt lat="47.30626" lon="6.2375">
        <ele>323.14</ele>
        <time>2015-07-12T07:11:12.000Z</time>
      </trkpt>
      <trkpt lat="47.30619" lon="6.23736">
        <ele>323.14</ele>
        <time>2015-07-12T07:11:14.000Z</time>
      </trkpt>
      <trkpt lat="47.30611" lon="6.23721">
        <ele>322.66</ele>
        <time>2015-07-12T07:11:16.000Z</time>
      </trkpt>
      <trkpt lat="47.30604" lon="6.23707">
        <ele>323.14</ele>
        <time>2015-07-12T07:11:18.000Z</time>
      </trkpt>
      <trkpt lat="47.30597" lon="6.23693">
        <ele>322.66</ele>
        <time>2015-07-12T07:11:20.000Z</time>
      </trkpt>
      <trkpt lat="47.30589" lon="6.2368">
        <ele>322.66</ele>
        <time>2015-07-12T07:11:22.000Z</time>
      </trkpt>
      <trkpt lat="47.30581" lon="6.23667">
        <ele>322.66</ele>
        <time>2015-07-12T07:11:24.000Z</time>
      </trkpt>
      <trkpt lat="47.30572" lon="6.23656">
        <ele>323.14</ele>
        <time>2015-07-12T07:11:26.000Z</time>
      </trkpt>
      <trkpt lat="47.30562" lon="6.23647">
        <ele>322.66</ele>
        <time>2015-07-12T07:11:28.000Z</time>
      </trkpt>
      <trkpt lat="47.30552" lon="6.2364">
        <ele>323.14</ele>
        <time>2015-07-12T07:11:30.000Z</time>
      </trkpt>
      <trkpt lat="47.30541" lon="6.23636">
        <ele>322.66</ele>
        <time>2015-07-12T07:11:32.000Z</time>
      </trkpt>
      <trkpt lat="47.3053" lon="6.23633">
        <ele>322.66</ele>
        <time>2015-07-12T07:11:34.000Z</time>
      </trkpt>
      <trkpt lat="47.30518" lon="6.23631">
        <ele>322.66</ele>
        <time>2015-07-12T07:11:36.000Z</time>
      </trkpt>
      <trkpt lat="47.30507" lon="6.23628">
        <ele>322.66</ele>
        <time>2015-07-12T07:11:38.000Z</time>
      </trkpt>
      <trkpt lat="47.30496" lon="6.23625">
        <ele>322.66</ele>
        <time>2015-07-12T07:11:40.000Z</time>
      </trkpt>
      <trkpt lat="47.30485" lon="6.23621">
        <ele>322.66</ele>
        <time>2015-07-12T07:11:42.000Z</time>
      </trkpt>
      <trkpt lat="47.30474" lon="6.23617">
        <ele>322.66</ele>
        <time>2015-07-12T07:11:44.000Z</time>
      </trkpt>
      <trkpt lat="47.30463" lon="6.23612">
        <ele>322.66</ele>
        <time>2015-07-12T07:11:46.000Z</time>
      </trkpt>
      <trkpt lat="47.30453" lon="6.23607">
        <ele>322.66</ele>
        <time>2015-07-12T07:11:48.000Z</time>
      </trkpt>
      <trkpt lat="47.30442" lon="6.23601">
        <ele>322.66</ele>
        <time>2015-07-12T07:11:50.000Z</time>
      </trkpt>
      <trkpt lat="47.30431" lon="6.23595">
        <ele>323.14</ele>
        <time>2015-07-12T07:11:52.000Z</time>
      </trkpt>
      <trkpt lat="47.30421" lon="6.23589">
        <ele>323.14</ele>
        <time>2015-07-12T07:11:54.000Z</time>
      </trkpt>
      <trkpt lat="47.30411" lon="6.23584">
        <ele>322.66</ele>
        <time>2015-07-12T07:11:56.000Z</time>
      </trkpt>
      <trkpt lat="47.304" lon="6.23578">
        <ele>322.66</ele>
        <time>2015-07-12T07:11:58.000Z</time>
      </trkpt>
      <trkpt lat="47.30389" lon="6.23572">
        <ele>322.66</ele>
        <time>2015-07-12T07:12:00.000Z</time>
      </trkpt>
      <trkpt lat="47.30379" lon="6.23566">
        <ele>322.66</ele>
        <time>2015-07-12T07:12:02.000Z</time>
      </trkpt>
      <trkpt lat="47.30368" lon="6.23558">
        <ele>322.66</ele>
        <time>2015-07-12T07:12:04.000Z</time>
      </trkpt>
      <trkpt lat="47.30359" lon="6.2355">
        <ele>322.66</ele>
        <time>2015-07-12T07:12:06.000Z</time>
      </trkpt>
      <trkpt lat="47.30348" lon="6.23543">
        <ele>323.14</ele>
        <time>2015-07-12T07:12:08.000Z</time>
      </trkpt>
      <trkpt lat="47.30338" lon="6.23536">
        <ele>323.14</ele>
        <time>2015-07-12T07:12:10.000Z</time>
      </trkpt>
      <trkpt lat="47.30326" lon="6.23531">
        <ele>323.14</ele>
        <time>2015-07-12T07:12:12.000Z</time>
      </trkpt>
      <trkpt lat="47.30315" lon="6.23527">
        <ele>323.14</ele>
        <time>2015-07-12T07:12:14.000Z</time>
      </trkpt>
      <trkpt lat="47.30304" lon="6.23524">
        <ele>323.14</ele>
        <time>2015-07-12T07:12:16.000Z</time>
      </trkpt>
      <trkpt lat="47.30293" lon="6.23522">
        <ele>322.66</ele>
        <time>2015-07-12T07:12:18.000Z</time>
      </trkpt>
      <trkpt lat="47.30281" lon="6.23522">
        <ele>322.66</ele>
        <time>2015-07-12T07:12:20.000Z</time>
      </trkpt>
      <trkpt lat="47.30269" lon="6.23521">
        <ele>321.7</ele>
        <time>2015-07-12T07:12:22.000Z</time>
      </trkpt>
      <trkpt lat="47.30257" lon="6.23522">
        <ele>321.7</ele>
        <time>2015-07-12T07:12:24.000Z</time>
      </trkpt>
      <trkpt lat="47.30246" lon="6.23522">
        <ele>321.7</ele>
        <time>2015-07-12T07:12:26.000Z</time>
      </trkpt>
      <trkpt lat="47.30235" lon="6.23522">
        <ele>322.18</ele>
        <time>2015-07-12T07:12:28.000Z</time>
      </trkpt>
      <trkpt lat="47.30223" lon="6.23523">
        <ele>321.7</ele>
        <time>2015-07-12T07:12:30.000Z</time>
      </trkpt>
      <trkpt lat="47.30212" lon="6.23524">
        <ele>321.7</ele>
        <time>2015-07-12T07:12:32.000Z</time>
      </trkpt>
      <trkpt lat="47.30201" lon="6.23525">
        <ele>322.18</ele>
        <time>2015-07-12T07:12:34.000Z</time>
      </trkpt>
      <trkpt lat="47.3019" lon="6.23526">
        <ele>322.18</ele>
        <time>2015-07-12T07:12:36.000Z</time>
      </trkpt>
      <trkpt lat="47.30178" lon="6.23529">
        <ele>322.66</ele>
        <time>2015-07-12T07:12:38.000Z</time>
      </trkpt>
      <trkpt lat="47.30167" lon="6.23531">
        <ele>322.66</ele>
        <time>2015-07-12T07:12:40.000Z</time>
      </trkpt>
      <trkpt lat="47.30156" lon="6.23534">
        <ele>322.66</ele>
        <time>2015-07-12T07:12:42.000Z</time>
      </trkpt>
      <trkpt lat="47.30145" lon="6.23537">
        <ele>322.66</ele>
        <time>2015-07-12T07:12:44.000Z</time>
      </trkpt>
      <trkpt lat="47.30134" lon="6.23539">
        <ele>322.66</ele>
        <time>2015-07-12T07:12:46.000Z</time>
      </trkpt>
      <trkpt lat="47.30124" lon="6.2354">
        <ele>323.14</ele>
        <time>2015-07-12T07:12:48.000Z</time>
      </trkpt>
      <trkpt lat="47.30114" lon="6.23541">
        <ele>322.66</ele>
        <time>2015-07-12T07:12:50.000Z</time>
      </trkpt>
      <trkpt lat="47.30101" lon="6.2354">
        <ele>323.14</ele>
        <time>2015-07-12T07:12:53.000Z</time>
      </trkpt>
      <trkpt lat="47.30091" lon="6.23537">
        <ele>324.58</ele>
        <time>2015-07-12T07:12:56.000Z</time>
      </trkpt>
      <trkpt lat="47.30082" lon="6.23532">
        <ele>324.58</ele>
        <time>2015-07-12T07:12:59.000Z</time>
      </trkpt>
      <trkpt lat="47.30072" lon="6.23529">
        <ele>324.1</ele>
        <time>2015-07-12T07:13:02.000Z</time>
      </trkpt>
      <trkpt lat="47.30061" lon="6.23527">
        <ele>324.58</ele>
        <time>2015-07-12T07:13:05.000Z</time>
      </trkpt>
      <trkpt lat="47.3005" lon="6.23527">
        <ele>325.06</ele>
        <time>2015-07-12T07:13:08.000Z</time>
      </trkpt>
      <trkpt lat="47.30039" lon="6.23526">
        <ele>325.54</ele>
        <time>2015-07-12T07:13:11.000Z</time>
      </trkpt>
      <trkpt lat="47.30029" lon="6.23525">
        <ele>325.06</ele>
        <time>2015-07-12T07:13:14.000Z</time>
      </trkpt>
      <trkpt lat="47.30018" lon="6.23525">
        <ele>326.99</ele>
        <time>2015-07-12T07:13:17.000Z</time>
      </trkpt>
      <trkpt lat="47.30008" lon="6.23526">
        <ele>326.5</ele>
        <time>2015-07-12T07:13:21.000Z</time>
      </trkpt>
      <trkpt lat="47.30015" lon="6.23525">
        <ele>326.99</ele>
        <time>2015-07-12T07:13:34.000Z</time>
      </trkpt>
      <trkpt lat="47.30011" lon="6.23513">
        <ele>327.47</ele>
        <time>2015-07-12T07:13:39.000Z</time>
      </trkpt>
      <trkpt lat="47.30003" lon="6.23503">
        <ele>327.47</ele>
        <time>2015-07-12T07:13:43.000Z</time>
      </trkpt>
      <trkpt lat="47.29994" lon="6.23493">
        <ele>326.99</ele>
        <time>2015-07-12T07:13:47.000Z</time>
      </trkpt>
      <trkpt lat="47.29985" lon="6.23484">
        <ele>328.43</ele>
        <time>2015-07-12T07:13:51.000Z</time>
      </trkpt>
      <trkpt lat="47.29977" lon="6.23474">
        <ele>328.91</ele>
        <time>2015-07-12T07:13:55.000Z</time>
      </trkpt>
      <trkpt lat="47.29968" lon="6.23463">
        <ele>330.35</ele>
        <time>2015-07-12T07:13:59.000Z</time>
      </trkpt>
      <trkpt lat="47.29959" lon="6.23453">
        <ele>330.83</ele>
        <time>2015-07-12T07:14:03.000Z</time>
      </trkpt>
      <trkpt lat="47.29951" lon="6.23441">
        <ele>330.83</ele>
        <time>2015-07-12T07:14:07.000Z</time>
      </trkpt>
      <trkpt lat="47.29943" lon="6.23433">
        <ele>331.79</ele>
        <time>2015-07-12T07:14:10.000Z</time>
      </trkpt>
      <trkpt lat="47.29935" lon="6.23425">
        <ele>331.79</ele>
        <time>2015-07-12T07:14:13.000Z</time>
      </trkpt>
      <trkpt lat="47.29927" lon="6.23418">
        <ele>331.31</ele>
        <time>2015-07-12T07:14:16.000Z</time>
      </trkpt>
      <trkpt lat="47.29918" lon="6.23414">
        <ele>331.79</ele>
        <time>2015-07-12T07:14:19.000Z</time>
      </trkpt>
      <trkpt lat="47.29908" lon="6.2341">
        <ele>331.31</ele>
        <time>2015-07-12T07:14:22.000Z</time>
      </trkpt>
      <trkpt lat="47.29898" lon="6.23407">
        <ele>331.79</ele>
        <time>2015-07-12T07:14:25.000Z</time>
      </trkpt>
      <trkpt lat="47.29887" lon="6.23403">
        <ele>330.83</ele>
        <time>2015-07-12T07:14:29.000Z</time>
      </trkpt>
      <trkpt lat="47.29876" lon="6.23399">
        <ele>331.79</ele>
        <time>2015-07-12T07:14:33.000Z</time>
      </trkpt>
      <trkpt lat="47.29868" lon="6.23407">
        <ele>331.79</ele>
        <time>2015-07-12T07:14:39.000Z</time>
      </trkpt>
      <trkpt lat="47.29859" lon="6.23414">
        <ele>330.83</ele>
        <time>2015-07-12T07:14:43.000Z</time>
      </trkpt>
      <trkpt lat="47.29847" lon="6.23418">
        <ele>329.87</ele>
        <time>2015-07-12T07:14:47.000Z</time>
      </trkpt>
      <trkpt lat="47.29834" lon="6.23423">
        <ele>328.91</ele>
        <time>2015-07-12T07:14:50.000Z</time>
      </trkpt>
      <trkpt lat="47.29821" lon="6.23427">
        <ele>326.02</ele>
        <time>2015-07-12T07:14:53.000Z</time>
      </trkpt>
      <trkpt lat="47.29808" lon="6.23428">
        <ele>324.58</ele>
        <time>2015-07-12T07:14:56.000Z</time>
      </trkpt>
      <trkpt lat="47.298" lon="6.23425">
        <ele>324.1</ele>
        <time>2015-07-12T07:14:58.000Z</time>
      </trkpt>
      <trkpt lat="47.29792" lon="6.23419">
        <ele>324.58</ele>
        <time>2015-07-12T07:15:00.000Z</time>
      </trkpt>
      <trkpt lat="47.29784" lon="6.23407">
        <ele>324.1</ele>
        <time>2015-07-12T07:15:03.000Z</time>
      </trkpt>
      <trkpt lat="47.29777" lon="6.23395">
        <ele>324.1</ele>
        <time>2015-07-12T07:15:06.000Z</time>
      </trkpt>
      <trkpt lat="47.2977" lon="6.23383">
        <ele>324.1</ele>
        <time>2015-07-12T07:15:09.000Z</time>
      </trkpt>
      <trkpt lat="47.29762" lon="6.23372">
        <ele>324.58</ele>
        <time>2015-07-12T07:15:12.000Z</time>
      </trkpt>
      <trkpt lat="47.29755" lon="6.2336">
        <ele>324.58</ele>
        <time>2015-07-12T07:15:15.000Z</time>
      </trkpt>
      <trkpt lat="47.29749" lon="6.23348">
        <ele>325.06</ele>
        <time>2015-07-12T07:15:18.000Z</time>
      </trkpt>
      <trkpt lat="47.29742" lon="6.23335">
        <ele>325.06</ele>
        <time>2015-07-12T07:15:21.000Z</time>
      </trkpt>
      <trkpt lat="47.29736" lon="6.2332">
        <ele>324.58</ele>
        <time>2015-07-12T07:15:24.000Z</time>
      </trkpt>
      <trkpt lat="47.29731" lon="6.23306">
        <ele>325.06</ele>
        <time>2015-07-12T07:15:27.000Z</time>
      </trkpt>
      <trkpt lat="47.29721" lon="6.23302">
        <ele>325.06</ele>
        <time>2015-07-12T07:15:31.000Z</time>
      </trkpt>
      <trkpt lat="47.29711" lon="6.23311">
        <ele>324.1</ele>
        <time>2015-07-12T07:15:34.000Z</time>
      </trkpt>
      <trkpt lat="47.29699" lon="6.2332">
        <ele>324.1</ele>
        <time>2015-07-12T07:15:37.000Z</time>
      </trkpt>
      <trkpt lat="47.29689" lon="6.23322">
        <ele>323.14</ele>
        <time>2015-07-12T07:15:39.000Z</time>
      </trkpt>
      <trkpt lat="47.29678" lon="6.23327">
        <ele>322.66</ele>
        <time>2015-07-12T07:15:41.000Z</time>
      </trkpt>
      <trkpt lat="47.29666" lon="6.23334">
        <ele>322.18</ele>
        <time>2015-07-12T07:15:43.000Z</time>
      </trkpt>
      <trkpt lat="47.29655" lon="6.2334">
        <ele>321.7</ele>
        <time>2015-07-12T07:15:45.000Z</time>
      </trkpt>
      <trkpt lat="47.29646" lon="6.23347">
        <ele>321.7</ele>
        <time>2015-07-12T07:15:47.000Z</time>
      </trkpt>
      <trkpt lat="47.29634" lon="6.23343">
        <ele>321.7</ele>
        <time>2015-07-12T07:15:50.000Z</time>
      </trkpt>
      <trkpt lat="47.29628" lon="6.23327">
        <ele>321.7</ele>
        <time>2015-07-12T07:15:53.000Z</time>
      </trkpt>
      <trkpt lat="47.2962" lon="6.23311">
        <ele>321.7</ele>
        <time>2015-07-12T07:15:56.000Z</time>
      </trkpt>
      <trkpt lat="47.29616" lon="6.23298">
        <ele>321.7</ele>
        <time>2015-07-12T07:15:58.000Z</time>
      </trkpt>
      <trkpt lat="47.29612" lon="6.23285">
        <ele>321.7</ele>
        <time>2015-07-12T07:16:00.000Z</time>
      </trkpt>
      <trkpt lat="47.29608" lon="6.23271">
        <ele>321.7</ele>
        <time>2015-07-12T07:16:02.000Z</time>
      </trkpt>
      <trkpt lat="47.29605" lon="6.23257">
        <ele>322.18</ele>
        <time>2015-07-12T07:16:04.000Z</time>
      </trkpt>
      <trkpt lat="47.29602" lon="6.23242">
        <ele>321.7</ele>
        <time>2015-07-12T07:16:06.000Z</time>
      </trkpt>
      <trkpt lat="47.29599" lon="6.23227">
        <ele>321.7</ele>
        <time>2015-07-12T07:16:08.000Z</time>
      </trkpt>
      <trkpt lat="47.29596" lon="6.23211">
        <ele>321.7</ele>
        <time>2015-07-12T07:16:10.000Z</time>
      </trkpt>
      <trkpt lat="47.29594" lon="6.23196">
        <ele>321.7</ele>
        <time>2015-07-12T07:16:12.000Z</time>
      </trkpt>
      <trkpt lat="47.29593" lon="6.2318">
        <ele>321.7</ele>
        <time>2015-07-12T07:16:14.000Z</time>
      </trkpt>
      <trkpt lat="47.29594" lon="6.23164">
        <ele>321.7</ele>
        <time>2015-07-12T07:16:16.000Z</time>
      </trkpt>
      <trkpt lat="47.29594" lon="6.23149">
        <ele>321.7</ele>
        <time>2015-07-12T07:16:18.000Z</time>
      </trkpt>
      <trkpt lat="47.29597" lon="6.23133">
        <ele>321.7</ele>
        <time>2015-07-12T07:16:20.000Z</time>
      </trkpt>
      <trkpt lat="47.29599" lon="6.23116">
        <ele>321.7</ele>
        <time>2015-07-12T07:16:22.000Z</time>
      </trkpt>
      <trkpt lat="47.296" lon="6.23101">
        <ele>321.22</ele>
        <time>2015-07-12T07:16:24.000Z</time>
      </trkpt>
      <trkpt lat="47.29601" lon="6.23085">
        <ele>321.7</ele>
        <time>2015-07-12T07:16:26.000Z</time>
      </trkpt>
      <trkpt lat="47.29602" lon="6.23069">
        <ele>321.7</ele>
        <time>2015-07-12T07:16:28.000Z</time>
      </trkpt>
      <trkpt lat="47.29602" lon="6.23053">
        <ele>321.22</ele>
        <time>2015-07-12T07:16:30.000Z</time>
      </trkpt>
      <trkpt lat="47.29604" lon="6.23036">
        <ele>321.22</ele>
        <time>2015-07-12T07:16:32.000Z</time>
      </trkpt>
      <trkpt lat="47.29605" lon="6.2302">
        <ele>321.7</ele>
        <time>2015-07-12T07:16:34.000Z</time>
      </trkpt>
      <trkpt lat="47.29606" lon="6.23004">
        <ele>321.22</ele>
        <time>2015-07-12T07:16:36.000Z</time>
      </trkpt>
      <trkpt lat="47.29608" lon="6.22989">
        <ele>321.7</ele>
        <time>2015-07-12T07:16:38.000Z</time>
      </trkpt>
      <trkpt lat="47.2961" lon="6.22973">
        <ele>321.7</ele>
        <time>2015-07-12T07:16:40.000Z</time>
      </trkpt>
      <trkpt lat="47.29613" lon="6.22959">
        <ele>321.7</ele>
        <time>2015-07-12T07:16:42.000Z</time>
      </trkpt>
      <trkpt lat="47.29617" lon="6.22946">
        <ele>322.18</ele>
        <time>2015-07-12T07:16:44.000Z</time>
      </trkpt>
      <trkpt lat="47.2962" lon="6.22932">
        <ele>322.18</ele>
        <time>2015-07-12T07:16:46.000Z</time>
      </trkpt>
      <trkpt lat="47.29624" lon="6.2292">
        <ele>322.18</ele>
        <time>2015-07-12T07:16:48.000Z</time>
      </trkpt>
      <trkpt lat="47.29629" lon="6.22906">
        <ele>322.18</ele>
        <time>2015-07-12T07:16:50.000Z</time>
      </trkpt>
      <trkpt lat="47.29634" lon="6.22893">
        <ele>322.18</ele>
        <time>2015-07-12T07:16:52.000Z</time>
      </trkpt>
      <trkpt lat="47.2964" lon="6.22881">
        <ele>322.18</ele>
        <time>2015-07-12T07:16:54.000Z</time>
      </trkpt>
      <trkpt lat="47.29647" lon="6.2287">
        <ele>322.66</ele>
        <time>2015-07-12T07:16:56.000Z</time>
      </trkpt>
      <trkpt lat="47.29653" lon="6.22858">
        <ele>322.18</ele>
        <time>2015-07-12T07:16:58.000Z</time>
      </trkpt>
      <trkpt lat="47.29658" lon="6.22844">
        <ele>322.18</ele>
        <time>2015-07-12T07:17:00.000Z</time>
      </trkpt>
      <trkpt lat="47.29664" lon="6.22831">
        <ele>322.18</ele>
        <time>2015-07-12T07:17:02.000Z</time>
      </trkpt>
      <trkpt lat="47.2967" lon="6.22819">
        <ele>322.18</ele>
        <time>2015-07-12T07:17:04.000Z</time>
      </trkpt>
      <trkpt lat="47.29676" lon="6.22805">
        <ele>322.18</ele>
        <time>2015-07-12T07:17:06.000Z</time>
      </trkpt>
      <trkpt lat="47.29682" lon="6.22792">
        <ele>322.66</ele>
        <time>2015-07-12T07:17:08.000Z</time>
      </trkpt>
      <trkpt lat="47.29688" lon="6.22779">
        <ele>322.66</ele>
        <time>2015-07-12T07:17:10.000Z</time>
      </trkpt>
      <trkpt lat="47.29695" lon="6.22766">
        <ele>322.18</ele>
        <time>2015-07-12T07:17:12.000Z</time>
      </trkpt>
      <trkpt lat="47.29701" lon="6.22752">
        <ele>322.66</ele>
        <time>2015-07-12T07:17:14.000Z</time>
      </trkpt>
      <trkpt lat="47.29707" lon="6.22739">
        <ele>322.66</ele>
        <time>2015-07-12T07:17:16.000Z</time>
      </trkpt>
      <trkpt lat="47.29713" lon="6.22726">
        <ele>322.18</ele>
        <time>2015-07-12T07:17:18.000Z</time>
      </trkpt>
      <trkpt lat="47.2972" lon="6.22712">
        <ele>322.18</ele>
        <time>2015-07-12T07:17:20.000Z</time>
      </trkpt>
      <trkpt lat="47.29726" lon="6.22698">
        <ele>322.18</ele>
        <time>2015-07-12T07:17:22.000Z</time>
      </trkpt>
      <trkpt lat="47.29732" lon="6.22685">
        <ele>322.66</ele>
        <time>2015-07-12T07:17:24.000Z</time>
      </trkpt>
      <trkpt lat="47.29738" lon="6.22672">
        <ele>323.14</ele>
        <time>2015-07-12T07:17:26.000Z</time>
      </trkpt>
      <trkpt lat="47.29744" lon="6.22659">
        <ele>322.66</ele>
        <time>2015-07-12T07:17:28.000Z</time>
      </trkpt>
      <trkpt lat="47.2975" lon="6.22645">
        <ele>323.14</ele>
        <time>2015-07-12T07:17:30.000Z</time>
      </trkpt>
      <trkpt lat="47.29756" lon="6.2263">
        <ele>322.66</ele>
        <time>2015-07-12T07:17:32.000Z</time>
      </trkpt>
      <trkpt lat="47.29761" lon="6.22614">
        <ele>322.66</ele>
        <time>2015-07-12T07:17:34.000Z</time>
      </trkpt>
      <trkpt lat="47.29768" lon="6.22598">
        <ele>322.18</ele>
        <time>2015-07-12T07:17:36.000Z</time>
      </trkpt>
      <trkpt lat="47.29773" lon="6.22583">
        <ele>322.66</ele>
        <time>2015-07-12T07:17:38.000Z</time>
      </trkpt>
      <trkpt lat="47.29779" lon="6.22567">
        <ele>323.14</ele>
        <time>2015-07-12T07:17:40.000Z</time>
      </trkpt>
      <trkpt lat="47.29784" lon="6.22552">
        <ele>322.66</ele>
        <time>2015-07-12T07:17:42.000Z</time>
      </trkpt>
      <trkpt lat="47.29788" lon="6.22536">
        <ele>322.18</ele>
        <time>2015-07-12T07:17:44.000Z</time>
      </trkpt>
      <trkpt lat="47.29792" lon="6.2252">
        <ele>322.18</ele>
        <time>2015-07-12T07:17:46.000Z</time>
      </trkpt>
      <trkpt lat="47.29797" lon="6.22504">
        <ele>322.18</ele>
        <time>2015-07-12T07:17:48.000Z</time>
      </trkpt>
      <trkpt lat="47.29801" lon="6.22488">
        <ele>322.18</ele>
        <time>2015-07-12T07:17:50.000Z</time>
      </trkpt>
      <trkpt lat="47.29805" lon="6.22473">
        <ele>322.18</ele>
        <time>2015-07-12T07:17:52.000Z</time>
      </trkpt>
      <trkpt lat="47.29809" lon="6.22457">
        <ele>322.18</ele>
        <time>2015-07-12T07:17:54.000Z</time>
      </trkpt>
      <trkpt lat="47.29813" lon="6.22441">
        <ele>322.18</ele>
        <time>2015-07-12T07:17:56.000Z</time>
      </trkpt>
      <trkpt lat="47.29816" lon="6.22425">
        <ele>322.18</ele>
        <time>2015-07-12T07:17:58.000Z</time>
      </trkpt>
      <trkpt lat="47.29819" lon="6.22409">
        <ele>322.18</ele>
        <time>2015-07-12T07:18:00.000Z</time>
      </trkpt>
      <trkpt lat="47.29824" lon="6.22394">
        <ele>322.18</ele>
        <time>2015-07-12T07:18:02.000Z</time>
      </trkpt>
      <trkpt lat="47.29827" lon="6.22378">
        <ele>322.18</ele>
        <time>2015-07-12T07:18:04.000Z</time>
      </trkpt>
      <trkpt lat="47.29831" lon="6.22363">
        <ele>322.18</ele>
        <time>2015-07-12T07:18:06.000Z</time>
      </trkpt>
      <trkpt lat="47.29834" lon="6.22346">
        <ele>322.18</ele>
        <time>2015-07-12T07:18:08.000Z</time>
      </trkpt>
      <trkpt lat="47.29838" lon="6.22331">
        <ele>322.66</ele>
        <time>2015-07-12T07:18:10.000Z</time>
      </trkpt>
      <trkpt lat="47.29842" lon="6.22316">
        <ele>322.18</ele>
        <time>2015-07-12T07:18:12.000Z</time>
      </trkpt>
      <trkpt lat="47.29845" lon="6.223">
        <ele>322.66</ele>
        <time>2015-07-12T07:18:14.000Z</time>
      </trkpt>
      <trkpt lat="47.29849" lon="6.22285">
        <ele>322.18</ele>
        <time>2015-07-12T07:18:16.000Z</time>
      </trkpt>
      <trkpt lat="47.29852" lon="6.22269">
        <ele>321.7</ele>
        <time>2015-07-12T07:18:18.000Z</time>
      </trkpt>
      <trkpt lat="47.29855" lon="6.22254">
        <ele>321.7</ele>
        <time>2015-07-12T07:18:20.000Z</time>
      </trkpt>
      <trkpt lat="47.29858" lon="6.22239">
        <ele>321.7</ele>
        <time>2015-07-12T07:18:22.000Z</time>
      </trkpt>
      <trkpt lat="47.29861" lon="6.22225">
        <ele>321.7</ele>
        <time>2015-07-12T07:18:24.000Z</time>
      </trkpt>
      <trkpt lat="47.29866" lon="6.22211">
        <ele>321.22</ele>
        <time>2015-07-12T07:18:26.000Z</time>
      </trkpt>
      <trkpt lat="47.2987" lon="6.22194">
        <ele>321.22</ele>
        <time>2015-07-12T07:18:29.000Z</time>
      </trkpt>
      <trkpt lat="47.29871" lon="6.22181">
        <ele>320.74</ele>
        <time>2015-07-12T07:18:35.000Z</time>
      </trkpt>
      <trkpt lat="47.29876" lon="6.22166">
        <ele>320.74</ele>
        <time>2015-07-12T07:18:40.000Z</time>
      </trkpt>
      <trkpt lat="47.29882" lon="6.22154">
        <ele>320.74</ele>
        <time>2015-07-12T07:18:43.000Z</time>
      </trkpt>
      <trkpt lat="47.2989" lon="6.22147">
        <ele>321.22</ele>
        <time>2015-07-12T07:18:46.000Z</time>
      </trkpt>
      <trkpt lat="47.29897" lon="6.22134">
        <ele>321.22</ele>
        <time>2015-07-12T07:18:50.000Z</time>
      </trkpt>
      <trkpt lat="47.29902" lon="6.22121">
        <ele>321.22</ele>
        <time>2015-07-12T07:18:53.000Z</time>
      </trkpt>
      <trkpt lat="47.2991" lon="6.2211">
        <ele>320.74</ele>
        <time>2015-07-12T07:18:56.000Z</time>
      </trkpt>
      <trkpt lat="47.29917" lon="6.22094">
        <ele>320.74</ele>
        <time>2015-07-12T07:18:59.000Z</time>
      </trkpt>
      <trkpt lat="47.29922" lon="6.22083">
        <ele>320.74</ele>
        <time>2015-07-12T07:19:01.000Z</time>
      </trkpt>
      <trkpt lat="47.29928" lon="6.22072">
        <ele>320.26</ele>
        <time>2015-07-12T07:19:03.000Z</time>
      </trkpt>
      <trkpt lat="47.29937" lon="6.22057">
        <ele>320.26</ele>
        <time>2015-07-12T07:19:06.000Z</time>
      </trkpt>
      <trkpt lat="47.29946" lon="6.22043">
        <ele>321.7</ele>
        <time>2015-07-12T07:19:09.000Z</time>
      </trkpt>
      <trkpt lat="47.29952" lon="6.22032">
        <ele>321.7</ele>
        <time>2015-07-12T07:19:11.000Z</time>
      </trkpt>
      <trkpt lat="47.29958" lon="6.22022">
        <ele>320.74</ele>
        <time>2015-07-12T07:19:13.000Z</time>
      </trkpt>
      <trkpt lat="47.29964" lon="6.22012">
        <ele>321.22</ele>
        <time>2015-07-12T07:19:15.000Z</time>
      </trkpt>
      <trkpt lat="47.29971" lon="6.22002">
        <ele>321.22</ele>
        <time>2015-07-12T07:19:17.000Z</time>
      </trkpt>
      <trkpt lat="47.2998" lon="6.21993">
        <ele>320.74</ele>
        <time>2015-07-12T07:19:20.000Z</time>
      </trkpt>
      <trkpt lat="47.2999" lon="6.21988">
        <ele>321.22</ele>
        <time>2015-07-12T07:19:23.000Z</time>
      </trkpt>
      <trkpt lat="47.29999" lon="6.21976">
        <ele>321.22</ele>
        <time>2015-07-12T07:19:26.000Z</time>
      </trkpt>
      <trkpt lat="47.30008" lon="6.21961">
        <ele>320.74</ele>
        <time>2015-07-12T07:19:29.000Z</time>
      </trkpt>
      <trkpt lat="47.30015" lon="6.21951">
        <ele>320.74</ele>
        <time>2015-07-12T07:19:31.000Z</time>
      </trkpt>
      <trkpt lat="47.30022" lon="6.21939">
        <ele>320.74</ele>
        <time>2015-07-12T07:19:33.000Z</time>
      </trkpt>
      <trkpt lat="47.30028" lon="6.21928">
        <ele>320.74</ele>
        <time>2015-07-12T07:19:35.000Z</time>
      </trkpt>
      <trkpt lat="47.30035" lon="6.21916">
        <ele>321.22</ele>
        <time>2015-07-12T07:19:37.000Z</time>
      </trkpt>
      <trkpt lat="47.30042" lon="6.21905">
        <ele>321.22</ele>
        <time>2015-07-12T07:19:39.000Z</time>
      </trkpt>
      <trkpt lat="47.30049" lon="6.21893">
        <ele>320.74</ele>
        <time>2015-07-12T07:19:41.000Z</time>
      </trkpt>
      <trkpt lat="47.30056" lon="6.21881">
        <ele>320.74</ele>
        <time>2015-07-12T07:19:43.000Z</time>
      </trkpt>
      <trkpt lat="47.30064" lon="6.2187">
        <ele>320.74</ele>
        <time>2015-07-12T07:19:45.000Z</time>
      </trkpt>
      <trkpt lat="47.3007" lon="6.21858">
        <ele>320.74</ele>
        <time>2015-07-12T07:19:47.000Z</time>
      </trkpt>
      <trkpt lat="47.30077" lon="6.21846">
        <ele>320.74</ele>
        <time>2015-07-12T07:19:49.000Z</time>
      </trkpt>
      <trkpt lat="47.30084" lon="6.21834">
        <ele>320.74</ele>
        <time>2015-07-12T07:19:51.000Z</time>
      </trkpt>
      <trkpt lat="47.30091" lon="6.21822">
        <ele>320.74</ele>
        <time>2015-07-12T07:19:53.000Z</time>
      </trkpt>
      <trkpt lat="47.30098" lon="6.2181">
        <ele>320.74</ele>
        <time>2015-07-12T07:19:55.000Z</time>
      </trkpt>
      <trkpt lat="47.30105" lon="6.21799">
        <ele>320.74</ele>
        <time>2015-07-12T07:19:57.000Z</time>
      </trkpt>
      <trkpt lat="47.30112" lon="6.21786">
        <ele>320.74</ele>
        <time>2015-07-12T07:19:59.000Z</time>
      </trkpt>
      <trkpt lat="47.30119" lon="6.21774">
        <ele>320.74</ele>
        <time>2015-07-12T07:20:01.000Z</time>
      </trkpt>
      <trkpt lat="47.30125" lon="6.21761">
        <ele>320.74</ele>
        <time>2015-07-12T07:20:03.000Z</time>
      </trkpt>
      <trkpt lat="47.30132" lon="6.21749">
        <ele>320.26</ele>
        <time>2015-07-12T07:20:05.000Z</time>
      </trkpt>
      <trkpt lat="47.30138" lon="6.21737">
        <ele>320.74</ele>
        <time>2015-07-12T07:20:07.000Z</time>
      </trkpt>
      <trkpt lat="47.30144" lon="6.21726">
        <ele>321.22</ele>
        <time>2015-07-12T07:20:09.000Z</time>
      </trkpt>
      <trkpt lat="47.30151" lon="6.21715">
        <ele>321.22</ele>
        <time>2015-07-12T07:20:11.000Z</time>
      </trkpt>
      <trkpt lat="47.30157" lon="6.21704">
        <ele>321.22</ele>
        <time>2015-07-12T07:20:13.000Z</time>
      </trkpt>
      <trkpt lat="47.30164" lon="6.21694">
        <ele>321.7</ele>
        <time>2015-07-12T07:20:15.000Z</time>
      </trkpt>
      <trkpt lat="47.30172" lon="6.21685">
        <ele>321.22</ele>
        <time>2015-07-12T07:20:17.000Z</time>
      </trkpt>
      <trkpt lat="47.30179" lon="6.21675">
        <ele>321.22</ele>
        <time>2015-07-12T07:20:19.000Z</time>
      </trkpt>
      <trkpt lat="47.30187" lon="6.21663">
        <ele>321.22</ele>
        <time>2015-07-12T07:20:21.000Z</time>
      </trkpt>
      <trkpt lat="47.30195" lon="6.21651">
        <ele>321.22</ele>
        <time>2015-07-12T07:20:23.000Z</time>
      </trkpt>
      <trkpt lat="47.30204" lon="6.21639">
        <ele>321.22</ele>
        <time>2015-07-12T07:20:25.000Z</time>
      </trkpt>
      <trkpt lat="47.30213" lon="6.21628">
        <ele>320.74</ele>
        <time>2015-07-12T07:20:27.000Z</time>
      </trkpt>
      <trkpt lat="47.30222" lon="6.21616">
        <ele>321.22</ele>
        <time>2015-07-12T07:20:29.000Z</time>
      </trkpt>
      <trkpt lat="47.30231" lon="6.21604">
        <ele>320.74</ele>
        <time>2015-07-12T07:20:31.000Z</time>
      </trkpt>
      <trkpt lat="47.3024" lon="6.21592">
        <ele>320.74</ele>
        <time>2015-07-12T07:20:33.000Z</time>
      </trkpt>
      <trkpt lat="47.3025" lon="6.21581">
        <ele>320.74</ele>
        <time>2015-07-12T07:20:35.000Z</time>
      </trkpt>
      <trkpt lat="47.30258" lon="6.21567">
        <ele>320.74</ele>
        <time>2015-07-12T07:20:37.000Z</time>
      </trkpt>
      <trkpt lat="47.30265" lon="6.21552">
        <ele>320.74</ele>
        <time>2015-07-12T07:20:39.000Z</time>
      </trkpt>
      <trkpt lat="47.30272" lon="6.21536">
        <ele>320.26</ele>
        <time>2015-07-12T07:20:41.000Z</time>
      </trkpt>
      <trkpt lat="47.30279" lon="6.21521">
        <ele>320.26</ele>
        <time>2015-07-12T07:20:43.000Z</time>
      </trkpt>
      <trkpt lat="47.30286" lon="6.21506">
        <ele>320.26</ele>
        <time>2015-07-12T07:20:45.000Z</time>
      </trkpt>
      <trkpt lat="47.30293" lon="6.21492">
        <ele>320.26</ele>
        <time>2015-07-12T07:20:47.000Z</time>
      </trkpt>
      <trkpt lat="47.30301" lon="6.2148">
        <ele>320.26</ele>
        <time>2015-07-12T07:20:49.000Z</time>
      </trkpt>
      <trkpt lat="47.3031" lon="6.21468">
        <ele>320.26</ele>
        <time>2015-07-12T07:20:51.000Z</time>
      </trkpt>
      <trkpt lat="47.30319" lon="6.21456">
        <ele>320.26</ele>
        <time>2015-07-12T07:20:53.000Z</time>
      </trkpt>
      <trkpt lat="47.30327" lon="6.21443">
        <ele>319.78</ele>
        <time>2015-07-12T07:20:55.000Z</time>
      </trkpt>
      <trkpt lat="47.30333" lon="6.21427">
        <ele>320.26</ele>
        <time>2015-07-12T07:20:57.000Z</time>
      </trkpt>
      <trkpt lat="47.30338" lon="6.21411">
        <ele>320.26</ele>
        <time>2015-07-12T07:20:59.000Z</time>
      </trkpt>
      <trkpt lat="47.30341" lon="6.21394">
        <ele>320.26</ele>
        <time>2015-07-12T07:21:01.000Z</time>
      </trkpt>
      <trkpt lat="47.30343" lon="6.21377">
        <ele>320.26</ele>
        <time>2015-07-12T07:21:03.000Z</time>
      </trkpt>
      <trkpt lat="47.30346" lon="6.2136">
        <ele>320.26</ele>
        <time>2015-07-12T07:21:05.000Z</time>
      </trkpt>
      <trkpt lat="47.30348" lon="6.21343">
        <ele>320.26</ele>
        <time>2015-07-12T07:21:07.000Z</time>
      </trkpt>
      <trkpt lat="47.3035" lon="6.21325">
        <ele>320.26</ele>
        <time>2015-07-12T07:21:09.000Z</time>
      </trkpt>
      <trkpt lat="47.30352" lon="6.21308">
        <ele>320.26</ele>
        <time>2015-07-12T07:21:11.000Z</time>
      </trkpt>
      <trkpt lat="47.30355" lon="6.2129">
        <ele>320.74</ele>
        <time>2015-07-12T07:21:13.000Z</time>
      </trkpt>
      <trkpt lat="47.30357" lon="6.21273">
        <ele>320.74</ele>
        <time>2015-07-12T07:21:15.000Z</time>
      </trkpt>
      <trkpt lat="47.30361" lon="6.21257">
        <ele>320.26</ele>
        <time>2015-07-12T07:21:17.000Z</time>
      </trkpt>
      <trkpt lat="47.30364" lon="6.2124">
        <ele>320.26</ele>
        <time>2015-07-12T07:21:19.000Z</time>
      </trkpt>
      <trkpt lat="47.30368" lon="6.21224">
        <ele>320.26</ele>
        <time>2015-07-12T07:21:21.000Z</time>
      </trkpt>
      <trkpt lat="47.30371" lon="6.21208">
        <ele>320.26</ele>
        <time>2015-07-12T07:21:23.000Z</time>
      </trkpt>
      <trkpt lat="47.30375" lon="6.21192">
        <ele>320.74</ele>
        <time>2015-07-12T07:21:25.000Z</time>
      </trkpt>
      <trkpt lat="47.30378" lon="6.21175">
        <ele>320.74</ele>
        <time>2015-07-12T07:21:27.000Z</time>
      </trkpt>
      <trkpt lat="47.30382" lon="6.21159">
        <ele>320.74</ele>
        <time>2015-07-12T07:21:29.000Z</time>
      </trkpt>
      <trkpt lat="47.30385" lon="6.21142">
        <ele>320.74</ele>
        <time>2015-07-12T07:21:31.000Z</time>
      </trkpt>
      <trkpt lat="47.30388" lon="6.21125">
        <ele>320.74</ele>
        <time>2015-07-12T07:21:33.000Z</time>
      </trkpt>
      <trkpt lat="47.30391" lon="6.21107">
        <ele>320.26</ele>
        <time>2015-07-12T07:21:35.000Z</time>
      </trkpt>
      <trkpt lat="47.30393" lon="6.21089">
        <ele>320.74</ele>
        <time>2015-07-12T07:21:37.000Z</time>
      </trkpt>
      <trkpt lat="47.30395" lon="6.21071">
        <ele>320.26</ele>
        <time>2015-07-12T07:21:39.000Z</time>
      </trkpt>
      <trkpt lat="47.30395" lon="6.21054">
        <ele>320.74</ele>
        <time>2015-07-12T07:21:41.000Z</time>
      </trkpt>
      <trkpt lat="47.30395" lon="6.21036">
        <ele>320.26</ele>
        <time>2015-07-12T07:21:43.000Z</time>
      </trkpt>
      <trkpt lat="47.30394" lon="6.21019">
        <ele>320.26</ele>
        <time>2015-07-12T07:21:45.000Z</time>
      </trkpt>
      <trkpt lat="47.30392" lon="6.21002">
        <ele>320.74</ele>
        <time>2015-07-12T07:21:47.000Z</time>
      </trkpt>
      <trkpt lat="47.30391" lon="6.20984">
        <ele>320.74</ele>
        <time>2015-07-12T07:21:49.000Z</time>
      </trkpt>
      <trkpt lat="47.3039" lon="6.20967">
        <ele>320.26</ele>
        <time>2015-07-12T07:21:51.000Z</time>
      </trkpt>
      <trkpt lat="47.30388" lon="6.20949">
        <ele>319.78</ele>
        <time>2015-07-12T07:21:53.000Z</time>
      </trkpt>
      <trkpt lat="47.30386" lon="6.20932">
        <ele>320.26</ele>
        <time>2015-07-12T07:21:55.000Z</time>
      </trkpt>
      <trkpt lat="47.30383" lon="6.20916">
        <ele>320.74</ele>
        <time>2015-07-12T07:21:57.000Z</time>
      </trkpt>
      <trkpt lat="47.30379" lon="6.209">
        <ele>320.74</ele>
        <time>2015-07-12T07:21:59.000Z</time>
      </trkpt>
      <trkpt lat="47.30375" lon="6.20884">
        <ele>320.74</ele>
        <time>2015-07-12T07:22:01.000Z</time>
      </trkpt>
      <trkpt lat="47.3037" lon="6.20869">
        <ele>320.74</ele>
        <time>2015-07-12T07:22:03.000Z</time>
      </trkpt>
      <trkpt lat="47.30365" lon="6.20854">
        <ele>321.22</ele>
        <time>2015-07-12T07:22:05.000Z</time>
      </trkpt>
      <trkpt lat="47.30359" lon="6.2084">
        <ele>320.74</ele>
        <time>2015-07-12T07:22:07.000Z</time>
      </trkpt>
      <trkpt lat="47.30354" lon="6.20826">
        <ele>321.22</ele>
        <time>2015-07-12T07:22:09.000Z</time>
      </trkpt>
      <trkpt lat="47.30347" lon="6.20812">
        <ele>320.74</ele>
        <time>2015-07-12T07:22:11.000Z</time>
      </trkpt>
      <trkpt lat="47.3034" lon="6.20799">
        <ele>321.22</ele>
        <time>2015-07-12T07:22:13.000Z</time>
      </trkpt>
      <trkpt lat="47.30334" lon="6.20786">
        <ele>321.22</ele>
        <time>2015-07-12T07:22:15.000Z</time>
      </trkpt>
      <trkpt lat="47.30328" lon="6.20775">
        <ele>321.7</ele>
        <time>2015-07-12T07:22:17.000Z</time>
      </trkpt>
      <trkpt lat="47.30321" lon="6.20766">
        <ele>322.66</ele>
        <time>2015-07-12T07:22:19.000Z</time>
      </trkpt>
      <trkpt lat="47.30312" lon="6.20754">
        <ele>323.14</ele>
        <time>2015-07-12T07:22:22.000Z</time>
      </trkpt>
      <trkpt lat="47.30302" lon="6.20744">
        <ele>324.58</ele>
        <time>2015-07-12T07:22:25.000Z</time>
      </trkpt>
      <trkpt lat="47.30291" lon="6.20734">
        <ele>324.58</ele>
        <time>2015-07-12T07:22:28.000Z</time>
      </trkpt>
      <trkpt lat="47.3028" lon="6.20723">
        <ele>324.58</ele>
        <time>2015-07-12T07:22:31.000Z</time>
      </trkpt>
      <trkpt lat="47.30269" lon="6.20712">
        <ele>325.06</ele>
        <time>2015-07-12T07:22:34.000Z</time>
      </trkpt>
      <trkpt lat="47.30259" lon="6.20702">
        <ele>325.54</ele>
        <time>2015-07-12T07:22:37.000Z</time>
      </trkpt>
      <trkpt lat="47.30249" lon="6.20693">
        <ele>326.02</ele>
        <time>2015-07-12T07:22:40.000Z</time>
      </trkpt>
      <trkpt lat="47.30239" lon="6.20684">
        <ele>326.5</ele>
        <time>2015-07-12T07:22:43.000Z</time>
      </trkpt>
      <trkpt lat="47.30228" lon="6.20676">
        <ele>326.99</ele>
        <time>2015-07-12T07:22:46.000Z</time>
      </trkpt>
      <trkpt lat="47.30217" lon="6.20667">
        <ele>326.99</ele>
        <time>2015-07-12T07:22:49.000Z</time>
      </trkpt>
      <trkpt lat="47.30205" lon="6.20658">
        <ele>326.99</ele>
        <time>2015-07-12T07:22:52.000Z</time>
      </trkpt>
      <trkpt lat="47.30196" lon="6.20651">
        <ele>326.5</ele>
        <time>2015-07-12T07:22:54.000Z</time>
      </trkpt>
      <trkpt lat="47.30185" lon="6.20644">
        <ele>326.02</ele>
        <time>2015-07-12T07:22:56.000Z</time>
      </trkpt>
      <trkpt lat="47.30172" lon="6.20639">
        <ele>325.06</ele>
        <time>2015-07-12T07:22:58.000Z</time>
      </trkpt>
      <trkpt lat="47.30157" lon="6.20634">
        <ele>324.1</ele>
        <time>2015-07-12T07:23:00.000Z</time>
      </trkpt>
      <trkpt lat="47.30141" lon="6.20628">
        <ele>323.14</ele>
        <time>2015-07-12T07:23:02.000Z</time>
      </trkpt>
      <trkpt lat="47.30125" lon="6.20621">
        <ele>321.7</ele>
        <time>2015-07-12T07:23:04.000Z</time>
      </trkpt>
      <trkpt lat="47.30109" lon="6.20614">
        <ele>321.7</ele>
        <time>2015-07-12T07:23:06.000Z</time>
      </trkpt>
      <trkpt lat="47.30095" lon="6.20607">
        <ele>321.22</ele>
        <time>2015-07-12T07:23:08.000Z</time>
      </trkpt>
      <trkpt lat="47.30081" lon="6.206">
        <ele>321.22</ele>
        <time>2015-07-12T07:23:10.000Z</time>
      </trkpt>
      <trkpt lat="47.30068" lon="6.20594">
        <ele>321.22</ele>
        <time>2015-07-12T07:23:12.000Z</time>
      </trkpt>
      <trkpt lat="47.30055" lon="6.20588">
        <ele>321.22</ele>
        <time>2015-07-12T07:23:14.000Z</time>
      </trkpt>
      <trkpt lat="47.30042" lon="6.20583">
        <ele>320.74</ele>
        <time>2015-07-12T07:23:16.000Z</time>
      </trkpt>
      <trkpt lat="47.3003" lon="6.20579">
        <ele>320.74</ele>
        <time>2015-07-12T07:23:18.000Z</time>
      </trkpt>
      <trkpt lat="47.30018" lon="6.20574">
        <ele>320.74</ele>
        <time>2015-07-12T07:23:20.000Z</time>
      </trkpt>
      <trkpt lat="47.30006" lon="6.20571">
        <ele>320.74</ele>
        <time>2015-07-12T07:23:22.000Z</time>
      </trkpt>
      <trkpt lat="47.29993" lon="6.20567">
        <ele>320.74</ele>
        <time>2015-07-12T07:23:24.000Z</time>
      </trkpt>
      <trkpt lat="47.29982" lon="6.20564">
        <ele>320.74</ele>
        <time>2015-07-12T07:23:26.000Z</time>
      </trkpt>
      <trkpt lat="47.2997" lon="6.2056">
        <ele>320.74</ele>
        <time>2015-07-12T07:23:28.000Z</time>
      </trkpt>
      <trkpt lat="47.29957" lon="6.20556">
        <ele>320.26</ele>
        <time>2015-07-12T07:23:30.000Z</time>
      </trkpt>
      <trkpt lat="47.29945" lon="6.20552">
        <ele>320.26</ele>
        <time>2015-07-12T07:23:32.000Z</time>
      </trkpt>
      <trkpt lat="47.29933" lon="6.20547">
        <ele>320.26</ele>
        <time>2015-07-12T07:23:34.000Z</time>
      </trkpt>
      <trkpt lat="47.29921" lon="6.20543">
        <ele>320.74</ele>
        <time>2015-07-12T07:23:36.000Z</time>
      </trkpt>
      <trkpt lat="47.29909" lon="6.20538">
        <ele>320.26</ele>
        <time>2015-07-12T07:23:38.000Z</time>
      </trkpt>
      <trkpt lat="47.29898" lon="6.20534">
        <ele>319.78</ele>
        <time>2015-07-12T07:23:40.000Z</time>
      </trkpt>
      <trkpt lat="47.29887" lon="6.20529">
        <ele>319.78</ele>
        <time>2015-07-12T07:23:42.000Z</time>
      </trkpt>
      <trkpt lat="47.29876" lon="6.20524">
        <ele>320.74</ele>
        <time>2015-07-12T07:23:44.000Z</time>
      </trkpt>
      <trkpt lat="47.29867" lon="6.20519">
        <ele>320.74</ele>
        <time>2015-07-12T07:23:46.000Z</time>
      </trkpt>
      <trkpt lat="47.29858" lon="6.20515">
        <ele>320.74</ele>
        <time>2015-07-12T07:23:48.000Z</time>
      </trkpt>
      <trkpt lat="47.29848" lon="6.20511">
        <ele>320.74</ele>
        <time>2015-07-12T07:23:50.000Z</time>
      </trkpt>
      <trkpt lat="47.29839" lon="6.20506">
        <ele>320.74</ele>
        <time>2015-07-12T07:23:52.000Z</time>
      </trkpt>
      <trkpt lat="47.29828" lon="6.20501">
        <ele>320.26</ele>
        <time>2015-07-12T07:23:54.000Z</time>
      </trkpt>
      <trkpt lat="47.29818" lon="6.20496">
        <ele>320.26</ele>
        <time>2015-07-12T07:23:56.000Z</time>
      </trkpt>
      <trkpt lat="47.29807" lon="6.20492">
        <ele>320.26</ele>
        <time>2015-07-12T07:23:58.000Z</time>
      </trkpt>
      <trkpt lat="47.29796" lon="6.20488">
        <ele>320.74</ele>
        <time>2015-07-12T07:24:00.000Z</time>
      </trkpt>
      <trkpt lat="47.29785" lon="6.20484">
        <ele>320.26</ele>
        <time>2015-07-12T07:24:02.000Z</time>
      </trkpt>
      <trkpt lat="47.29774" lon="6.2048">
        <ele>320.26</ele>
        <time>2015-07-12T07:24:04.000Z</time>
      </trkpt>
      <trkpt lat="47.29763" lon="6.20476">
        <ele>320.26</ele>
        <time>2015-07-12T07:24:06.000Z</time>
      </trkpt>
      <trkpt lat="47.29751" lon="6.20473">
        <ele>320.26</ele>
        <time>2015-07-12T07:24:08.000Z</time>
      </trkpt>
      <trkpt lat="47.2974" lon="6.2047">
        <ele>320.26</ele>
        <time>2015-07-12T07:24:10.000Z</time>
      </trkpt>
      <trkpt lat="47.29728" lon="6.20467">
        <ele>319.78</ele>
        <time>2015-07-12T07:24:12.000Z</time>
      </trkpt>
      <trkpt lat="47.29717" lon="6.20464">
        <ele>319.78</ele>
        <time>2015-07-12T07:24:14.000Z</time>
      </trkpt>
      <trkpt lat="47.29705" lon="6.20461">
        <ele>320.26</ele>
        <time>2015-07-12T07:24:16.000Z</time>
      </trkpt>
      <trkpt lat="47.29694" lon="6.20458">
        <ele>320.26</ele>
        <time>2015-07-12T07:24:18.000Z</time>
      </trkpt>
      <trkpt lat="47.29683" lon="6.20456">
        <ele>320.26</ele>
        <time>2015-07-12T07:24:20.000Z</time>
      </trkpt>
      <trkpt lat="47.29672" lon="6.20454">
        <ele>319.78</ele>
        <time>2015-07-12T07:24:22.000Z</time>
      </trkpt>
      <trkpt lat="47.29661" lon="6.20451">
        <ele>319.78</ele>
        <time>2015-07-12T07:24:24.000Z</time>
      </trkpt>
      <trkpt lat="47.29652" lon="6.20449">
        <ele>320.26</ele>
        <time>2015-07-12T07:24:26.000Z</time>
      </trkpt>
      <trkpt lat="47.29639" lon="6.20445">
        <ele>319.78</ele>
        <time>2015-07-12T07:24:29.000Z</time>
      </trkpt>
      <trkpt lat="47.29628" lon="6.20442">
        <ele>319.78</ele>
        <time>2015-07-12T07:24:32.000Z</time>
      </trkpt>
      <trkpt lat="47.29616" lon="6.20442">
        <ele>319.78</ele>
        <time>2015-07-12T07:24:35.000Z</time>
      </trkpt>
      <trkpt lat="47.29603" lon="6.20438">
        <ele>319.78</ele>
        <time>2015-07-12T07:24:38.000Z</time>
      </trkpt>
      <trkpt lat="47.29594" lon="6.20436">
        <ele>319.78</ele>
        <time>2015-07-12T07:24:40.000Z</time>
      </trkpt>
      <trkpt lat="47.29584" lon="6.20434">
        <ele>319.78</ele>
        <time>2015-07-12T07:24:42.000Z</time>
      </trkpt>
      <trkpt lat="47.29575" lon="6.20432">
        <ele>319.78</ele>
        <time>2015-07-12T07:24:44.000Z</time>
      </trkpt>
      <trkpt lat="47.29564" lon="6.20429">
        <ele>319.78</ele>
        <time>2015-07-12T07:24:46.000Z</time>
      </trkpt>
      <trkpt lat="47.29554" lon="6.20427">
        <ele>319.78</ele>
        <time>2015-07-12T07:24:48.000Z</time>
      </trkpt>
      <trkpt lat="47.29543" lon="6.20425">
        <ele>319.3</ele>
        <time>2015-07-12T07:24:50.000Z</time>
      </trkpt>
      <trkpt lat="47.29533" lon="6.20422">
        <ele>319.3</ele>
        <time>2015-07-12T07:24:52.000Z</time>
      </trkpt>
      <trkpt lat="47.29522" lon="6.20419">
        <ele>319.3</ele>
        <time>2015-07-12T07:24:54.000Z</time>
      </trkpt>
      <trkpt lat="47.29512" lon="6.20415">
        <ele>319.3</ele>
        <time>2015-07-12T07:24:56.000Z</time>
      </trkpt>
      <trkpt lat="47.29501" lon="6.20411">
        <ele>319.3</ele>
        <time>2015-07-12T07:24:58.000Z</time>
      </trkpt>
      <trkpt lat="47.29491" lon="6.20407">
        <ele>319.3</ele>
        <time>2015-07-12T07:25:00.000Z</time>
      </trkpt>
      <trkpt lat="47.2948" lon="6.20404">
        <ele>319.3</ele>
        <time>2015-07-12T07:25:02.000Z</time>
      </trkpt>
      <trkpt lat="47.29469" lon="6.204">
        <ele>319.3</ele>
        <time>2015-07-12T07:25:04.000Z</time>
      </trkpt>
      <trkpt lat="47.29458" lon="6.20396">
        <ele>319.78</ele>
        <time>2015-07-12T07:25:06.000Z</time>
      </trkpt>
      <trkpt lat="47.29448" lon="6.20393">
        <ele>319.78</ele>
        <time>2015-07-12T07:25:08.000Z</time>
      </trkpt>
      <trkpt lat="47.29437" lon="6.20388">
        <ele>319.3</ele>
        <time>2015-07-12T07:25:10.000Z</time>
      </trkpt>
      <trkpt lat="47.29425" lon="6.20384">
        <ele>319.3</ele>
        <time>2015-07-12T07:25:12.000Z</time>
      </trkpt>
      <trkpt lat="47.29414" lon="6.20379">
        <ele>319.3</ele>
        <time>2015-07-12T07:25:14.000Z</time>
      </trkpt>
      <trkpt lat="47.29403" lon="6.20375">
        <ele>319.3</ele>
        <time>2015-07-12T07:25:16.000Z</time>
      </trkpt>
      <trkpt lat="47.29391" lon="6.2037">
        <ele>319.3</ele>
        <time>2015-07-12T07:25:18.000Z</time>
      </trkpt>
      <trkpt lat="47.2938" lon="6.20365">
        <ele>319.3</ele>
        <time>2015-07-12T07:25:20.000Z</time>
      </trkpt>
      <trkpt lat="47.29369" lon="6.2036">
        <ele>319.3</ele>
        <time>2015-07-12T07:25:22.000Z</time>
      </trkpt>
      <trkpt lat="47.29358" lon="6.20354">
        <ele>318.81</ele>
        <time>2015-07-12T07:25:24.000Z</time>
      </trkpt>
      <trkpt lat="47.29347" lon="6.2035">
        <ele>319.3</ele>
        <time>2015-07-12T07:25:26.000Z</time>
      </trkpt>
      <trkpt lat="47.29337" lon="6.20344">
        <ele>318.81</ele>
        <time>2015-07-12T07:25:28.000Z</time>
      </trkpt>
      <trkpt lat="47.29325" lon="6.20338">
        <ele>319.3</ele>
        <time>2015-07-12T07:25:30.000Z</time>
      </trkpt>
      <trkpt lat="47.29314" lon="6.20333">
        <ele>319.3</ele>
        <time>2015-07-12T07:25:32.000Z</time>
      </trkpt>
      <trkpt lat="47.29305" lon="6.20326">
        <ele>318.81</ele>
        <time>2015-07-12T07:25:34.000Z</time>
      </trkpt>
      <trkpt lat="47.29294" lon="6.20319">
        <ele>318.81</ele>
        <time>2015-07-12T07:25:36.000Z</time>
      </trkpt>
      <trkpt lat="47.29284" lon="6.20314">
        <ele>318.81</ele>
        <time>2015-07-12T07:25:38.000Z</time>
      </trkpt>
      <trkpt lat="47.29275" lon="6.20308">
        <ele>319.3</ele>
        <time>2015-07-12T07:25:40.000Z</time>
      </trkpt>
      <trkpt lat="47.29266" lon="6.20303">
        <ele>319.78</ele>
        <time>2015-07-12T07:25:42.000Z</time>
      </trkpt>
      <trkpt lat="47.29258" lon="6.20296">
        <ele>321.22</ele>
        <time>2015-07-12T07:25:45.000Z</time>
      </trkpt>
      <trkpt lat="47.2925" lon="6.20302">
        <ele>321.22</ele>
        <time>2015-07-12T07:25:49.000Z</time>
      </trkpt>
      <trkpt lat="47.29245" lon="6.20318">
        <ele>322.18</ele>
        <time>2015-07-12T07:25:53.000Z</time>
      </trkpt>
      <trkpt lat="47.29235" lon="6.20323">
        <ele>321.22</ele>
        <time>2015-07-12T07:25:56.000Z</time>
      </trkpt>
      <trkpt lat="47.29226" lon="6.20318">
        <ele>320.74</ele>
        <time>2015-07-12T07:25:58.000Z</time>
      </trkpt>
      <trkpt lat="47.29216" lon="6.20311">
        <ele>320.26</ele>
        <time>2015-07-12T07:26:00.000Z</time>
      </trkpt>
      <trkpt lat="47.29206" lon="6.20304">
        <ele>319.78</ele>
        <time>2015-07-12T07:26:02.000Z</time>
      </trkpt>
      <trkpt lat="47.29196" lon="6.20297">
        <ele>320.26</ele>
        <time>2015-07-12T07:26:04.000Z</time>
      </trkpt>
      <trkpt lat="47.29187" lon="6.20291">
        <ele>319.78</ele>
        <time>2015-07-12T07:26:06.000Z</time>
      </trkpt>
      <trkpt lat="47.29179" lon="6.20285">
        <ele>319.78</ele>
        <time>2015-07-12T07:26:08.000Z</time>
      </trkpt>
      <trkpt lat="47.2917" lon="6.20278">
        <ele>319.3</ele>
        <time>2015-07-12T07:26:10.000Z</time>
      </trkpt>
      <trkpt lat="47.29162" lon="6.20272">
        <ele>319.3</ele>
        <time>2015-07-12T07:26:12.000Z</time>
      </trkpt>
      <trkpt lat="47.29152" lon="6.20265">
        <ele>318.81</ele>
        <time>2015-07-12T07:26:15.000Z</time>
      </trkpt>
      <trkpt lat="47.29144" lon="6.20257">
        <ele>318.81</ele>
        <time>2015-07-12T07:26:20.000Z</time>
      </trkpt>
      <trkpt lat="47.29134" lon="6.20262">
        <ele>318.33</ele>
        <time>2015-07-12T07:26:36.000Z</time>
      </trkpt>
      <trkpt lat="47.29123" lon="6.20266">
        <ele>318.33</ele>
        <time>2015-07-12T07:26:39.000Z</time>
      </trkpt>
      <trkpt lat="47.2911" lon="6.20266">
        <ele>317.85</ele>
        <time>2015-07-12T07:26:42.000Z</time>
      </trkpt>
      <trkpt lat="47.29097" lon="6.20266">
        <ele>317.85</ele>
        <time>2015-07-12T07:26:45.000Z</time>
      </trkpt>
      <trkpt lat="47.29085" lon="6.20263">
        <ele>317.85</ele>
        <time>2015-07-12T07:26:48.000Z</time>
      </trkpt>
      <trkpt lat="47.29075" lon="6.20251">
        <ele>318.33</ele>
        <time>2015-07-12T07:26:51.000Z</time>
      </trkpt>
      <trkpt lat="47.29068" lon="6.20242">
        <ele>318.33</ele>
        <time>2015-07-12T07:26:53.000Z</time>
      </trkpt>
      <trkpt lat="47.29061" lon="6.20232">
        <ele>317.85</ele>
        <time>2015-07-12T07:26:55.000Z</time>
      </trkpt>
      <trkpt lat="47.29056" lon="6.20219">
        <ele>317.85</ele>
        <time>2015-07-12T07:26:57.000Z</time>
      </trkpt>
      <trkpt lat="47.29052" lon="6.20204">
        <ele>317.85</ele>
        <time>2015-07-12T07:26:59.000Z</time>
      </trkpt>
      <trkpt lat="47.29046" lon="6.20191">
        <ele>318.33</ele>
        <time>2015-07-12T07:27:01.000Z</time>
      </trkpt>
      <trkpt lat="47.2904" lon="6.20179">
        <ele>317.85</ele>
        <time>2015-07-12T07:27:03.000Z</time>
      </trkpt>
      <trkpt lat="47.29035" lon="6.20167">
        <ele>318.33</ele>
        <time>2015-07-12T07:27:05.000Z</time>
      </trkpt>
      <trkpt lat="47.29031" lon="6.20155">
        <ele>318.33</ele>
        <time>2015-07-12T07:27:07.000Z</time>
      </trkpt>
      <trkpt lat="47.29026" lon="6.20143">
        <ele>318.33</ele>
        <time>2015-07-12T07:27:09.000Z</time>
      </trkpt>
      <trkpt lat="47.29018" lon="6.20127">
        <ele>318.81</ele>
        <time>2015-07-12T07:27:12.000Z</time>
      </trkpt>
      <trkpt lat="47.29012" lon="6.20112">
        <ele>318.81</ele>
        <time>2015-07-12T07:27:15.000Z</time>
      </trkpt>
      <trkpt lat="47.29007" lon="6.20095">
        <ele>319.3</ele>
        <time>2015-07-12T07:27:18.000Z</time>
      </trkpt>
      <trkpt lat="47.29007" lon="6.20077">
        <ele>319.3</ele>
        <time>2015-07-12T07:27:21.000Z</time>
      </trkpt>
      <trkpt lat="47.29009" lon="6.20064">
        <ele>319.3</ele>
        <time>2015-07-12T07:27:25.000Z</time>
      </trkpt>
      <trkpt lat="47.29002" lon="6.2005">
        <ele>318.81</ele>
        <time>2015-07-12T07:27:34.000Z</time>
      </trkpt>
      <trkpt lat="47.28996" lon="6.20037">
        <ele>318.81</ele>
        <time>2015-07-12T07:27:37.000Z</time>
      </trkpt>
      <trkpt lat="47.28989" lon="6.2002">
        <ele>319.3</ele>
        <time>2015-07-12T07:27:40.000Z</time>
      </trkpt>
      <trkpt lat="47.28984" lon="6.20008">
        <ele>318.81</ele>
        <time>2015-07-12T07:27:42.000Z</time>
      </trkpt>
      <trkpt lat="47.28979" lon="6.19995">
        <ele>318.81</ele>
        <time>2015-07-12T07:27:44.000Z</time>
      </trkpt>
      <trkpt lat="47.28974" lon="6.19978">
        <ele>318.33</ele>
        <time>2015-07-12T07:27:47.000Z</time>
      </trkpt>
      <trkpt lat="47.28969" lon="6.1996">
        <ele>318.33</ele>
        <time>2015-07-12T07:27:50.000Z</time>
      </trkpt>
      <trkpt lat="47.28963" lon="6.19943">
        <ele>318.81</ele>
        <time>2015-07-12T07:27:52.000Z</time>
      </trkpt>
      <trkpt lat="47.28959" lon="6.19928">
        <ele>318.33</ele>
        <time>2015-07-12T07:27:54.000Z</time>
      </trkpt>
      <trkpt lat="47.28954" lon="6.19912">
        <ele>317.85</ele>
        <time>2015-07-12T07:27:56.000Z</time>
      </trkpt>
      <trkpt lat="47.2895" lon="6.19896">
        <ele>318.81</ele>
        <time>2015-07-12T07:27:58.000Z</time>
      </trkpt>
      <trkpt lat="47.28947" lon="6.19881">
        <ele>319.3</ele>
        <time>2015-07-12T07:28:00.000Z</time>
      </trkpt>
      <trkpt lat="47.28943" lon="6.19866">
        <ele>319.3</ele>
        <time>2015-07-12T07:28:02.000Z</time>
      </trkpt>
      <trkpt lat="47.2894" lon="6.1985">
        <ele>319.3</ele>
        <time>2015-07-12T07:28:04.000Z</time>
      </trkpt>
      <trkpt lat="47.28938" lon="6.19835">
        <ele>319.3</ele>
        <time>2015-07-12T07:28:06.000Z</time>
      </trkpt>
      <trkpt lat="47.28935" lon="6.19819">
        <ele>319.3</ele>
        <time>2015-07-12T07:28:08.000Z</time>
      </trkpt>
      <trkpt lat="47.28933" lon="6.19804">
        <ele>319.3</ele>
        <time>2015-07-12T07:28:10.000Z</time>
      </trkpt>
      <trkpt lat="47.2893" lon="6.19788">
        <ele>319.3</ele>
        <time>2015-07-12T07:28:12.000Z</time>
      </trkpt>
      <trkpt lat="47.28928" lon="6.19772">
        <ele>319.3</ele>
        <time>2015-07-12T07:28:14.000Z</time>
      </trkpt>
      <trkpt lat="47.28926" lon="6.19756">
        <ele>319.3</ele>
        <time>2015-07-12T07:28:16.000Z</time>
      </trkpt>
      <trkpt lat="47.28924" lon="6.1974">
        <ele>319.3</ele>
        <time>2015-07-12T07:28:18.000Z</time>
      </trkpt>
      <trkpt lat="47.28922" lon="6.19724">
        <ele>319.3</ele>
        <time>2015-07-12T07:28:20.000Z</time>
      </trkpt>
      <trkpt lat="47.2892" lon="6.19708">
        <ele>319.3</ele>
        <time>2015-07-12T07:28:22.000Z</time>
      </trkpt>
      <trkpt lat="47.28917" lon="6.19692">
        <ele>319.3</ele>
        <time>2015-07-12T07:28:24.000Z</time>
      </trkpt>
      <trkpt lat="47.28915" lon="6.19675">
        <ele>319.3</ele>
        <time>2015-07-12T07:28:26.000Z</time>
      </trkpt>
      <trkpt lat="47.28912" lon="6.19659">
        <ele>319.3</ele>
        <time>2015-07-12T07:28:28.000Z</time>
      </trkpt>
      <trkpt lat="47.28911" lon="6.19643">
        <ele>319.3</ele>
        <time>2015-07-12T07:28:30.000Z</time>
      </trkpt>
      <trkpt lat="47.28909" lon="6.19627">
        <ele>319.3</ele>
        <time>2015-07-12T07:28:32.000Z</time>
      </trkpt>
      <trkpt lat="47.28907" lon="6.19611">
        <ele>319.3</ele>
        <time>2015-07-12T07:28:34.000Z</time>
      </trkpt>
      <trkpt lat="47.28905" lon="6.19596">
        <ele>319.3</ele>
        <time>2015-07-12T07:28:36.000Z</time>
      </trkpt>
      <trkpt lat="47.28905" lon="6.19581">
        <ele>318.81</ele>
        <time>2015-07-12T07:28:38.000Z</time>
      </trkpt>
      <trkpt lat="47.28904" lon="6.19564">
        <ele>319.78</ele>
        <time>2015-07-12T07:28:40.000Z</time>
      </trkpt>
      <trkpt lat="47.28902" lon="6.19547">
        <ele>319.3</ele>
        <time>2015-07-12T07:28:42.000Z</time>
      </trkpt>
      <trkpt lat="47.28901" lon="6.1953">
        <ele>319.3</ele>
        <time>2015-07-12T07:28:44.000Z</time>
      </trkpt>
      <trkpt lat="47.289" lon="6.19514">
        <ele>318.81</ele>
        <time>2015-07-12T07:28:46.000Z</time>
      </trkpt>
      <trkpt lat="47.28899" lon="6.19499">
        <ele>318.81</ele>
        <time>2015-07-12T07:28:48.000Z</time>
      </trkpt>
      <trkpt lat="47.28897" lon="6.19482">
        <ele>318.81</ele>
        <time>2015-07-12T07:28:50.000Z</time>
      </trkpt>
      <trkpt lat="47.28896" lon="6.19465">
        <ele>319.3</ele>
        <time>2015-07-12T07:28:52.000Z</time>
      </trkpt>
      <trkpt lat="47.28894" lon="6.19447">
        <ele>318.81</ele>
        <time>2015-07-12T07:28:54.000Z</time>
      </trkpt>
      <trkpt lat="47.28893" lon="6.1943">
        <ele>319.3</ele>
        <time>2015-07-12T07:28:56.000Z</time>
      </trkpt>
      <trkpt lat="47.28891" lon="6.19413">
        <ele>319.3</ele>
        <time>2015-07-12T07:28:58.000Z</time>
      </trkpt>
      <trkpt lat="47.28889" lon="6.19395">
        <ele>318.81</ele>
        <time>2015-07-12T07:29:00.000Z</time>
      </trkpt>
      <trkpt lat="47.28888" lon="6.19378">
        <ele>318.81</ele>
        <time>2015-07-12T07:29:02.000Z</time>
      </trkpt>
      <trkpt lat="47.28887" lon="6.1936">
        <ele>318.81</ele>
        <time>2015-07-12T07:29:04.000Z</time>
      </trkpt>
      <trkpt lat="47.28885" lon="6.19343">
        <ele>318.81</ele>
        <time>2015-07-12T07:29:06.000Z</time>
      </trkpt>
      <trkpt lat="47.28885" lon="6.19326">
        <ele>318.81</ele>
        <time>2015-07-12T07:29:08.000Z</time>
      </trkpt>
      <trkpt lat="47.28883" lon="6.19311">
        <ele>318.81</ele>
        <time>2015-07-12T07:29:10.000Z</time>
      </trkpt>
      <trkpt lat="47.28882" lon="6.19296">
        <ele>318.81</ele>
        <time>2015-07-12T07:29:12.000Z</time>
      </trkpt>
      <trkpt lat="47.28881" lon="6.1928">
        <ele>318.81</ele>
        <time>2015-07-12T07:29:14.000Z</time>
      </trkpt>
      <trkpt lat="47.2888" lon="6.19264">
        <ele>319.3</ele>
        <time>2015-07-12T07:29:16.000Z</time>
      </trkpt>
      <trkpt lat="47.2888" lon="6.19249">
        <ele>319.3</ele>
        <time>2015-07-12T07:29:18.000Z</time>
      </trkpt>
      <trkpt lat="47.28879" lon="6.19233">
        <ele>319.3</ele>
        <time>2015-07-12T07:29:20.000Z</time>
      </trkpt>
      <trkpt lat="47.28878" lon="6.19217">
        <ele>318.81</ele>
        <time>2015-07-12T07:29:22.000Z</time>
      </trkpt>
      <trkpt lat="47.28877" lon="6.192">
        <ele>319.3</ele>
        <time>2015-07-12T07:29:24.000Z</time>
      </trkpt>
      <trkpt lat="47.28877" lon="6.19183">
        <ele>318.81</ele>
        <time>2015-07-12T07:29:26.000Z</time>
      </trkpt>
      <trkpt lat="47.28877" lon="6.19167">
        <ele>318.81</ele>
        <time>2015-07-12T07:29:28.000Z</time>
      </trkpt>
      <trkpt lat="47.28876" lon="6.1915">
        <ele>318.81</ele>
        <time>2015-07-12T07:29:30.000Z</time>
      </trkpt>
      <trkpt lat="47.28876" lon="6.19133">
        <ele>318.81</ele>
        <time>2015-07-12T07:29:32.000Z</time>
      </trkpt>
      <trkpt lat="47.28877" lon="6.19116">
        <ele>318.81</ele>
        <time>2015-07-12T07:29:34.000Z</time>
      </trkpt>
      <trkpt lat="47.28877" lon="6.191">
        <ele>319.3</ele>
        <time>2015-07-12T07:29:36.000Z</time>
      </trkpt>
      <trkpt lat="47.28878" lon="6.19083">
        <ele>318.81</ele>
        <time>2015-07-12T07:29:38.000Z</time>
      </trkpt>
      <trkpt lat="47.28878" lon="6.19066">
        <ele>318.81</ele>
        <time>2015-07-12T07:29:40.000Z</time>
      </trkpt>
      <trkpt lat="47.28878" lon="6.1905">
        <ele>318.81</ele>
        <time>2015-07-12T07:29:42.000Z</time>
      </trkpt>
      <trkpt lat="47.28878" lon="6.19034">
        <ele>319.3</ele>
        <time>2015-07-12T07:29:44.000Z</time>
      </trkpt>
      <trkpt lat="47.2888" lon="6.19019">
        <ele>319.3</ele>
        <time>2015-07-12T07:29:46.000Z</time>
      </trkpt>
      <trkpt lat="47.28881" lon="6.19003">
        <ele>319.3</ele>
        <time>2015-07-12T07:29:48.000Z</time>
      </trkpt>
      <trkpt lat="47.28883" lon="6.18987">
        <ele>319.3</ele>
        <time>2015-07-12T07:29:50.000Z</time>
      </trkpt>
      <trkpt lat="47.28885" lon="6.18971">
        <ele>319.3</ele>
        <time>2015-07-12T07:29:52.000Z</time>
      </trkpt>
      <trkpt lat="47.28886" lon="6.18955">
        <ele>319.3</ele>
        <time>2015-07-12T07:29:54.000Z</time>
      </trkpt>
      <trkpt lat="47.28888" lon="6.18938">
        <ele>318.81</ele>
        <time>2015-07-12T07:29:56.000Z</time>
      </trkpt>
      <trkpt lat="47.28891" lon="6.18922">
        <ele>318.81</ele>
        <time>2015-07-12T07:29:58.000Z</time>
      </trkpt>
      <trkpt lat="47.28893" lon="6.18905">
        <ele>318.81</ele>
        <time>2015-07-12T07:30:00.000Z</time>
      </trkpt>
      <trkpt lat="47.28896" lon="6.18889">
        <ele>318.81</ele>
        <time>2015-07-12T07:30:02.000Z</time>
      </trkpt>
      <trkpt lat="47.28898" lon="6.18873">
        <ele>318.81</ele>
        <time>2015-07-12T07:30:04.000Z</time>
      </trkpt>
      <trkpt lat="47.28901" lon="6.18857">
        <ele>318.81</ele>
        <time>2015-07-12T07:30:06.000Z</time>
      </trkpt>
      <trkpt lat="47.28905" lon="6.18841">
        <ele>318.81</ele>
        <time>2015-07-12T07:30:08.000Z</time>
      </trkpt>
      <trkpt lat="47.28908" lon="6.18825">
        <ele>318.81</ele>
        <time>2015-07-12T07:30:10.000Z</time>
      </trkpt>
      <trkpt lat="47.2891" lon="6.18808">
        <ele>318.81</ele>
        <time>2015-07-12T07:30:12.000Z</time>
      </trkpt>
      <trkpt lat="47.28914" lon="6.18793">
        <ele>318.81</ele>
        <time>2015-07-12T07:30:14.000Z</time>
      </trkpt>
      <trkpt lat="47.28917" lon="6.18777">
        <ele>318.81</ele>
        <time>2015-07-12T07:30:16.000Z</time>
      </trkpt>
      <trkpt lat="47.28921" lon="6.18761">
        <ele>318.81</ele>
        <time>2015-07-12T07:30:18.000Z</time>
      </trkpt>
      <trkpt lat="47.28924" lon="6.18746">
        <ele>319.3</ele>
        <time>2015-07-12T07:30:20.000Z</time>
      </trkpt>
      <trkpt lat="47.28927" lon="6.18731">
        <ele>318.81</ele>
        <time>2015-07-12T07:30:22.000Z</time>
      </trkpt>
      <trkpt lat="47.2893" lon="6.18716">
        <ele>318.81</ele>
        <time>2015-07-12T07:30:24.000Z</time>
      </trkpt>
      <trkpt lat="47.28934" lon="6.187">
        <ele>318.81</ele>
        <time>2015-07-12T07:30:26.000Z</time>
      </trkpt>
      <trkpt lat="47.28938" lon="6.18685">
        <ele>318.81</ele>
        <time>2015-07-12T07:30:28.000Z</time>
      </trkpt>
      <trkpt lat="47.28941" lon="6.1867">
        <ele>318.81</ele>
        <time>2015-07-12T07:30:30.000Z</time>
      </trkpt>
      <trkpt lat="47.28945" lon="6.18655">
        <ele>318.81</ele>
        <time>2015-07-12T07:30:32.000Z</time>
      </trkpt>
      <trkpt lat="47.28948" lon="6.18641">
        <ele>319.3</ele>
        <time>2015-07-12T07:30:34.000Z</time>
      </trkpt>
      <trkpt lat="47.28952" lon="6.18627">
        <ele>318.81</ele>
        <time>2015-07-12T07:30:36.000Z</time>
      </trkpt>
      <trkpt lat="47.28956" lon="6.18612">
        <ele>318.81</ele>
        <time>2015-07-12T07:30:38.000Z</time>
      </trkpt>
      <trkpt lat="47.2896" lon="6.18598">
        <ele>318.81</ele>
        <time>2015-07-12T07:30:40.000Z</time>
      </trkpt>
      <trkpt lat="47.28965" lon="6.18583">
        <ele>319.3</ele>
        <time>2015-07-12T07:30:42.000Z</time>
      </trkpt>
      <trkpt lat="47.28969" lon="6.18569">
        <ele>318.81</ele>
        <time>2015-07-12T07:30:44.000Z</time>
      </trkpt>
      <trkpt lat="47.28973" lon="6.18554">
        <ele>318.81</ele>
        <time>2015-07-12T07:30:46.000Z</time>
      </trkpt>
      <trkpt lat="47.28976" lon="6.18539">
        <ele>319.3</ele>
        <time>2015-07-12T07:30:48.000Z</time>
      </trkpt>
      <trkpt lat="47.2898" lon="6.18524">
        <ele>319.3</ele>
        <time>2015-07-12T07:30:50.000Z</time>
      </trkpt>
      <trkpt lat="47.28984" lon="6.18509">
        <ele>318.81</ele>
        <time>2015-07-12T07:30:52.000Z</time>
      </trkpt>
      <trkpt lat="47.28988" lon="6.18494">
        <ele>318.81</ele>
        <time>2015-07-12T07:30:54.000Z</time>
      </trkpt>
      <trkpt lat="47.28992" lon="6.18479">
        <ele>318.81</ele>
        <time>2015-07-12T07:30:56.000Z</time>
      </trkpt>
      <trkpt lat="47.28997" lon="6.18464">
        <ele>318.81</ele>
        <time>2015-07-12T07:30:58.000Z</time>
      </trkpt>
      <trkpt lat="47.29001" lon="6.18449">
        <ele>318.81</ele>
        <time>2015-07-12T07:31:00.000Z</time>
      </trkpt>
      <trkpt lat="47.29005" lon="6.18434">
        <ele>318.81</ele>
        <time>2015-07-12T07:31:02.000Z</time>
      </trkpt>
      <trkpt lat="47.29008" lon="6.1842">
        <ele>318.81</ele>
        <time>2015-07-12T07:31:04.000Z</time>
      </trkpt>
      <trkpt lat="47.29012" lon="6.18405">
        <ele>318.81</ele>
        <time>2015-07-12T07:31:06.000Z</time>
      </trkpt>
      <trkpt lat="47.29016" lon="6.18391">
        <ele>318.81</ele>
        <time>2015-07-12T07:31:08.000Z</time>
      </trkpt>
      <trkpt lat="47.29021" lon="6.18376">
        <ele>318.81</ele>
        <time>2015-07-12T07:31:10.000Z</time>
      </trkpt>
      <trkpt lat="47.29025" lon="6.18361">
        <ele>318.81</ele>
        <time>2015-07-12T07:31:12.000Z</time>
      </trkpt>
      <trkpt lat="47.29029" lon="6.18346">
        <ele>318.81</ele>
        <time>2015-07-12T07:31:14.000Z</time>
      </trkpt>
      <trkpt lat="47.29033" lon="6.18331">
        <ele>318.81</ele>
        <time>2015-07-12T07:31:16.000Z</time>
      </trkpt>
      <trkpt lat="47.29036" lon="6.18316">
        <ele>318.81</ele>
        <time>2015-07-12T07:31:18.000Z</time>
      </trkpt>
      <trkpt lat="47.2904" lon="6.18301">
        <ele>318.81</ele>
        <time>2015-07-12T07:31:20.000Z</time>
      </trkpt>
      <trkpt lat="47.29044" lon="6.18287">
        <ele>318.81</ele>
        <time>2015-07-12T07:31:22.000Z</time>
      </trkpt>
      <trkpt lat="47.29048" lon="6.18272">
        <ele>319.3</ele>
        <time>2015-07-12T07:31:24.000Z</time>
      </trkpt>
      <trkpt lat="47.29052" lon="6.18256">
        <ele>318.81</ele>
        <time>2015-07-12T07:31:26.000Z</time>
      </trkpt>
      <trkpt lat="47.29055" lon="6.18241">
        <ele>318.81</ele>
        <time>2015-07-12T07:31:28.000Z</time>
      </trkpt>
      <trkpt lat="47.29059" lon="6.18225">
        <ele>318.81</ele>
        <time>2015-07-12T07:31:30.000Z</time>
      </trkpt>
      <trkpt lat="47.29062" lon="6.18209">
        <ele>318.81</ele>
        <time>2015-07-12T07:31:32.000Z</time>
      </trkpt>
      <trkpt lat="47.29065" lon="6.18192">
        <ele>318.33</ele>
        <time>2015-07-12T07:31:34.000Z</time>
      </trkpt>
      <trkpt lat="47.29068" lon="6.18175">
        <ele>318.81</ele>
        <time>2015-07-12T07:31:36.000Z</time>
      </trkpt>
      <trkpt lat="47.29071" lon="6.18159">
        <ele>318.81</ele>
        <time>2015-07-12T07:31:38.000Z</time>
      </trkpt>
      <trkpt lat="47.29073" lon="6.18143">
        <ele>318.81</ele>
        <time>2015-07-12T07:31:40.000Z</time>
      </trkpt>
      <trkpt lat="47.29075" lon="6.18127">
        <ele>318.81</ele>
        <time>2015-07-12T07:31:42.000Z</time>
      </trkpt>
      <trkpt lat="47.29077" lon="6.1811">
        <ele>318.81</ele>
        <time>2015-07-12T07:31:44.000Z</time>
      </trkpt>
      <trkpt lat="47.29078" lon="6.18094">
        <ele>318.81</ele>
        <time>2015-07-12T07:31:46.000Z</time>
      </trkpt>
      <trkpt lat="47.29079" lon="6.18078">
        <ele>318.81</ele>
        <time>2015-07-12T07:31:48.000Z</time>
      </trkpt>
      <trkpt lat="47.2908" lon="6.18062">
        <ele>317.85</ele>
        <time>2015-07-12T07:31:50.000Z</time>
      </trkpt>
      <trkpt lat="47.2908" lon="6.18046">
        <ele>317.85</ele>
        <time>2015-07-12T07:31:52.000Z</time>
      </trkpt>
      <trkpt lat="47.2908" lon="6.1803">
        <ele>318.33</ele>
        <time>2015-07-12T07:31:54.000Z</time>
      </trkpt>
      <trkpt lat="47.29079" lon="6.18014">
        <ele>318.33</ele>
        <time>2015-07-12T07:31:56.000Z</time>
      </trkpt>
      <trkpt lat="47.29078" lon="6.17997">
        <ele>318.33</ele>
        <time>2015-07-12T07:31:58.000Z</time>
      </trkpt>
      <trkpt lat="47.29077" lon="6.17981">
        <ele>318.33</ele>
        <time>2015-07-12T07:32:00.000Z</time>
      </trkpt>
      <trkpt lat="47.29075" lon="6.17966">
        <ele>318.33</ele>
        <time>2015-07-12T07:32:02.000Z</time>
      </trkpt>
      <trkpt lat="47.29073" lon="6.17951">
        <ele>319.3</ele>
        <time>2015-07-12T07:32:04.000Z</time>
      </trkpt>
      <trkpt lat="47.29073" lon="6.17935">
        <ele>319.3</ele>
        <time>2015-07-12T07:32:06.000Z</time>
      </trkpt>
      <trkpt lat="47.2907" lon="6.17919">
        <ele>318.81</ele>
        <time>2015-07-12T07:32:08.000Z</time>
      </trkpt>
      <trkpt lat="47.29068" lon="6.17904">
        <ele>319.3</ele>
        <time>2015-07-12T07:32:10.000Z</time>
      </trkpt>
      <trkpt lat="47.29065" lon="6.17888">
        <ele>319.3</ele>
        <time>2015-07-12T07:32:12.000Z</time>
      </trkpt>
      <trkpt lat="47.29063" lon="6.17873">
        <ele>319.3</ele>
        <time>2015-07-12T07:32:14.000Z</time>
      </trkpt>
      <trkpt lat="47.29061" lon="6.17857">
        <ele>319.3</ele>
        <time>2015-07-12T07:32:16.000Z</time>
      </trkpt>
      <trkpt lat="47.29059" lon="6.17841">
        <ele>319.3</ele>
        <time>2015-07-12T07:32:18.000Z</time>
      </trkpt>
      <trkpt lat="47.29057" lon="6.17825">
        <ele>319.3</ele>
        <time>2015-07-12T07:32:20.000Z</time>
      </trkpt>
      <trkpt lat="47.29054" lon="6.17808">
        <ele>319.3</ele>
        <time>2015-07-12T07:32:22.000Z</time>
      </trkpt>
      <trkpt lat="47.29052" lon="6.17792">
        <ele>319.78</ele>
        <time>2015-07-12T07:32:24.000Z</time>
      </trkpt>
      <trkpt lat="47.29049" lon="6.17775">
        <ele>318.81</ele>
        <time>2015-07-12T07:32:26.000Z</time>
      </trkpt>
      <trkpt lat="47.29046" lon="6.17758">
        <ele>319.78</ele>
        <time>2015-07-12T07:32:28.000Z</time>
      </trkpt>
      <trkpt lat="47.29044" lon="6.17742">
        <ele>319.78</ele>
        <time>2015-07-12T07:32:30.000Z</time>
      </trkpt>
      <trkpt lat="47.2904" lon="6.17727">
        <ele>319.3</ele>
        <time>2015-07-12T07:32:32.000Z</time>
      </trkpt>
      <trkpt lat="47.29038" lon="6.17712">
        <ele>319.3</ele>
        <time>2015-07-12T07:32:34.000Z</time>
      </trkpt>
      <trkpt lat="47.29036" lon="6.17699">
        <ele>319.3</ele>
        <time>2015-07-12T07:32:36.000Z</time>
      </trkpt>
      <trkpt lat="47.29034" lon="6.17681">
        <ele>319.3</ele>
        <time>2015-07-12T07:32:39.000Z</time>
      </trkpt>
      <trkpt lat="47.29031" lon="6.17667">
        <ele>318.81</ele>
        <time>2015-07-12T07:32:41.000Z</time>
      </trkpt>
      <trkpt lat="47.29027" lon="6.17654">
        <ele>319.3</ele>
        <time>2015-07-12T07:32:43.000Z</time>
      </trkpt>
      <trkpt lat="47.29021" lon="6.17641">
        <ele>319.3</ele>
        <time>2015-07-12T07:32:45.000Z</time>
      </trkpt>
      <trkpt lat="47.29016" lon="6.17627">
        <ele>319.3</ele>
        <time>2015-07-12T07:32:47.000Z</time>
      </trkpt>
      <trkpt lat="47.2901" lon="6.17615">
        <ele>318.81</ele>
        <time>2015-07-12T07:32:49.000Z</time>
      </trkpt>
      <trkpt lat="47.29005" lon="6.17604">
        <ele>318.81</ele>
        <time>2015-07-12T07:32:51.000Z</time>
      </trkpt>
      <trkpt lat="47.29" lon="6.1759">
        <ele>318.33</ele>
        <time>2015-07-12T07:32:54.000Z</time>
      </trkpt>
      <trkpt lat="47.29003" lon="6.17576">
        <ele>319.3</ele>
        <time>2015-07-12T07:32:59.000Z</time>
      </trkpt>
      <trkpt lat="47.29012" lon="6.17568">
        <ele>318.81</ele>
        <time>2015-07-12T07:34:42.000Z</time>
      </trkpt>
      <trkpt lat="47.2901" lon="6.1755">
        <ele>317.37</ele>
        <time>2015-07-12T07:34:46.000Z</time>
      </trkpt>
      <trkpt lat="47.29004" lon="6.17538">
        <ele>316.41</ele>
        <time>2015-07-12T07:34:48.000Z</time>
      </trkpt>
      <trkpt lat="47.28997" lon="6.17525">
        <ele>316.41</ele>
        <time>2015-07-12T07:34:50.000Z</time>
      </trkpt>
      <trkpt lat="47.28989" lon="6.17514">
        <ele>315.93</ele>
        <time>2015-07-12T07:34:52.000Z</time>
      </trkpt>
      <trkpt lat="47.28983" lon="6.17502">
        <ele>315.93</ele>
        <time>2015-07-12T07:34:54.000Z</time>
      </trkpt>
      <trkpt lat="47.28979" lon="6.17489">
        <ele>315.93</ele>
        <time>2015-07-12T07:34:56.000Z</time>
      </trkpt>
      <trkpt lat="47.28973" lon="6.17471">
        <ele>315.93</ele>
        <time>2015-07-12T07:34:59.000Z</time>
      </trkpt>
      <trkpt lat="47.28971" lon="6.17457">
        <ele>315.93</ele>
        <time>2015-07-12T07:35:01.000Z</time>
      </trkpt>
      <trkpt lat="47.2897" lon="6.17444">
        <ele>315.93</ele>
        <time>2015-07-12T07:35:03.000Z</time>
      </trkpt>
      <trkpt lat="47.28968" lon="6.17429">
        <ele>315.93</ele>
        <time>2015-07-12T07:35:05.000Z</time>
      </trkpt>
      <trkpt lat="47.28967" lon="6.17414">
        <ele>315.93</ele>
        <time>2015-07-12T07:35:07.000Z</time>
      </trkpt>
      <trkpt lat="47.28965" lon="6.17398">
        <ele>315.93</ele>
        <time>2015-07-12T07:35:09.000Z</time>
      </trkpt>
      <trkpt lat="47.28964" lon="6.17383">
        <ele>314.97</ele>
        <time>2015-07-12T07:35:11.000Z</time>
      </trkpt>
      <trkpt lat="47.28963" lon="6.17368">
        <ele>314.97</ele>
        <time>2015-07-12T07:35:13.000Z</time>
      </trkpt>
      <trkpt lat="47.28962" lon="6.17353">
        <ele>315.45</ele>
        <time>2015-07-12T07:35:15.000Z</time>
      </trkpt>
      <trkpt lat="47.2896" lon="6.17338">
        <ele>315.45</ele>
        <time>2015-07-12T07:35:17.000Z</time>
      </trkpt>
      <trkpt lat="47.2896" lon="6.17322">
        <ele>315.45</ele>
        <time>2015-07-12T07:35:19.000Z</time>
      </trkpt>
      <trkpt lat="47.28959" lon="6.17307">
        <ele>314.97</ele>
        <time>2015-07-12T07:35:21.000Z</time>
      </trkpt>
      <trkpt lat="47.28958" lon="6.17292">
        <ele>314.97</ele>
        <time>2015-07-12T07:35:23.000Z</time>
      </trkpt>
      <trkpt lat="47.28956" lon="6.17277">
        <ele>315.93</ele>
        <time>2015-07-12T07:35:25.000Z</time>
      </trkpt>
      <trkpt lat="47.28955" lon="6.17262">
        <ele>315.93</ele>
        <time>2015-07-12T07:35:27.000Z</time>
      </trkpt>
      <trkpt lat="47.28954" lon="6.17247">
        <ele>315.93</ele>
        <time>2015-07-12T07:35:29.000Z</time>
      </trkpt>
      <trkpt lat="47.28952" lon="6.17232">
        <ele>315.93</ele>
        <time>2015-07-12T07:35:31.000Z</time>
      </trkpt>
      <trkpt lat="47.28951" lon="6.17216">
        <ele>315.93</ele>
        <time>2015-07-12T07:35:33.000Z</time>
      </trkpt>
      <trkpt lat="47.2895" lon="6.17201">
        <ele>315.93</ele>
        <time>2015-07-12T07:35:35.000Z</time>
      </trkpt>
      <trkpt lat="47.28949" lon="6.17186">
        <ele>315.93</ele>
        <time>2015-07-12T07:35:37.000Z</time>
      </trkpt>
      <trkpt lat="47.28948" lon="6.17171">
        <ele>315.45</ele>
        <time>2015-07-12T07:35:39.000Z</time>
      </trkpt>
      <trkpt lat="47.28947" lon="6.17155">
        <ele>315.45</ele>
        <time>2015-07-12T07:35:41.000Z</time>
      </trkpt>
      <trkpt lat="47.28946" lon="6.1714">
        <ele>315.93</ele>
        <time>2015-07-12T07:35:43.000Z</time>
      </trkpt>
      <trkpt lat="47.28945" lon="6.17124">
        <ele>315.93</ele>
        <time>2015-07-12T07:35:45.000Z</time>
      </trkpt>
      <trkpt lat="47.28944" lon="6.17108">
        <ele>315.45</ele>
        <time>2015-07-12T07:35:47.000Z</time>
      </trkpt>
      <trkpt lat="47.28943" lon="6.17092">
        <ele>315.45</ele>
        <time>2015-07-12T07:35:49.000Z</time>
      </trkpt>
      <trkpt lat="47.28941" lon="6.17076">
        <ele>314.97</ele>
        <time>2015-07-12T07:35:51.000Z</time>
      </trkpt>
      <trkpt lat="47.2894" lon="6.17061">
        <ele>314.97</ele>
        <time>2015-07-12T07:35:53.000Z</time>
      </trkpt>
      <trkpt lat="47.28939" lon="6.17045">
        <ele>315.45</ele>
        <time>2015-07-12T07:35:55.000Z</time>
      </trkpt>
      <trkpt lat="47.28937" lon="6.1703">
        <ele>315.45</ele>
        <time>2015-07-12T07:35:57.000Z</time>
      </trkpt>
      <trkpt lat="47.28936" lon="6.17015">
        <ele>315.45</ele>
        <time>2015-07-12T07:35:59.000Z</time>
      </trkpt>
      <trkpt lat="47.28934" lon="6.17">
        <ele>315.93</ele>
        <time>2015-07-12T07:36:01.000Z</time>
      </trkpt>
      <trkpt lat="47.28934" lon="6.16984">
        <ele>315.45</ele>
        <time>2015-07-12T07:36:03.000Z</time>
      </trkpt>
      <trkpt lat="47.28932" lon="6.1697">
        <ele>315.93</ele>
        <time>2015-07-12T07:36:05.000Z</time>
      </trkpt>
      <trkpt lat="47.28931" lon="6.16954">
        <ele>315.45</ele>
        <time>2015-07-12T07:36:07.000Z</time>
      </trkpt>
      <trkpt lat="47.28931" lon="6.16939">
        <ele>315.45</ele>
        <time>2015-07-12T07:36:09.000Z</time>
      </trkpt>
      <trkpt lat="47.28929" lon="6.16923">
        <ele>315.93</ele>
        <time>2015-07-12T07:36:11.000Z</time>
      </trkpt>
      <trkpt lat="47.28928" lon="6.16908">
        <ele>315.93</ele>
        <time>2015-07-12T07:36:13.000Z</time>
      </trkpt>
      <trkpt lat="47.28927" lon="6.16892">
        <ele>315.45</ele>
        <time>2015-07-12T07:36:15.000Z</time>
      </trkpt>
      <trkpt lat="47.28926" lon="6.16876">
        <ele>314.97</ele>
        <time>2015-07-12T07:36:17.000Z</time>
      </trkpt>
      <trkpt lat="47.28925" lon="6.16859">
        <ele>315.45</ele>
        <time>2015-07-12T07:36:19.000Z</time>
      </trkpt>
      <trkpt lat="47.28923" lon="6.16843">
        <ele>315.45</ele>
        <time>2015-07-12T07:36:21.000Z</time>
      </trkpt>
      <trkpt lat="47.28922" lon="6.16827">
        <ele>315.45</ele>
        <time>2015-07-12T07:36:23.000Z</time>
      </trkpt>
      <trkpt lat="47.28921" lon="6.16811">
        <ele>315.45</ele>
        <time>2015-07-12T07:36:25.000Z</time>
      </trkpt>
      <trkpt lat="47.2892" lon="6.16794">
        <ele>315.45</ele>
        <time>2015-07-12T07:36:27.000Z</time>
      </trkpt>
      <trkpt lat="47.28919" lon="6.16779">
        <ele>315.93</ele>
        <time>2015-07-12T07:36:29.000Z</time>
      </trkpt>
      <trkpt lat="47.28918" lon="6.16763">
        <ele>315.45</ele>
        <time>2015-07-12T07:36:31.000Z</time>
      </trkpt>
      <trkpt lat="47.28918" lon="6.16747">
        <ele>315.45</ele>
        <time>2015-07-12T07:36:33.000Z</time>
      </trkpt>
      <trkpt lat="47.28918" lon="6.16731">
        <ele>315.45</ele>
        <time>2015-07-12T07:36:35.000Z</time>
      </trkpt>
      <trkpt lat="47.28917" lon="6.16715">
        <ele>315.45</ele>
        <time>2015-07-12T07:36:37.000Z</time>
      </trkpt>
      <trkpt lat="47.28917" lon="6.16699">
        <ele>315.93</ele>
        <time>2015-07-12T07:36:39.000Z</time>
      </trkpt>
      <trkpt lat="47.28917" lon="6.16682">
        <ele>315.45</ele>
        <time>2015-07-12T07:36:41.000Z</time>
      </trkpt>
      <trkpt lat="47.28916" lon="6.16666">
        <ele>315.45</ele>
        <time>2015-07-12T07:36:43.000Z</time>
      </trkpt>
      <trkpt lat="47.28915" lon="6.1665">
        <ele>315.45</ele>
        <time>2015-07-12T07:36:45.000Z</time>
      </trkpt>
      <trkpt lat="47.28914" lon="6.16634">
        <ele>315.45</ele>
        <time>2015-07-12T07:36:47.000Z</time>
      </trkpt>
      <trkpt lat="47.28913" lon="6.16617">
        <ele>315.45</ele>
        <time>2015-07-12T07:36:49.000Z</time>
      </trkpt>
      <trkpt lat="47.28912" lon="6.16601">
        <ele>315.45</ele>
        <time>2015-07-12T07:36:51.000Z</time>
      </trkpt>
      <trkpt lat="47.28911" lon="6.16583">
        <ele>315.45</ele>
        <time>2015-07-12T07:36:53.000Z</time>
      </trkpt>
      <trkpt lat="47.2891" lon="6.16567">
        <ele>315.93</ele>
        <time>2015-07-12T07:36:55.000Z</time>
      </trkpt>
      <trkpt lat="47.28909" lon="6.1655">
        <ele>315.45</ele>
        <time>2015-07-12T07:36:57.000Z</time>
      </trkpt>
      <trkpt lat="47.28907" lon="6.16533">
        <ele>315.45</ele>
        <time>2015-07-12T07:36:59.000Z</time>
      </trkpt>
      <trkpt lat="47.28906" lon="6.16517">
        <ele>315.45</ele>
        <time>2015-07-12T07:37:01.000Z</time>
      </trkpt>
      <trkpt lat="47.28905" lon="6.165">
        <ele>315.45</ele>
        <time>2015-07-12T07:37:03.000Z</time>
      </trkpt>
      <trkpt lat="47.28904" lon="6.16483">
        <ele>314.97</ele>
        <time>2015-07-12T07:37:05.000Z</time>
      </trkpt>
      <trkpt lat="47.28903" lon="6.16466">
        <ele>314.97</ele>
        <time>2015-07-12T07:37:07.000Z</time>
      </trkpt>
      <trkpt lat="47.28901" lon="6.1645">
        <ele>314.97</ele>
        <time>2015-07-12T07:37:09.000Z</time>
      </trkpt>
      <trkpt lat="47.289" lon="6.16433">
        <ele>315.45</ele>
        <time>2015-07-12T07:37:11.000Z</time>
      </trkpt>
      <trkpt lat="47.28899" lon="6.16416">
        <ele>314.97</ele>
        <time>2015-07-12T07:37:13.000Z</time>
      </trkpt>
      <trkpt lat="47.28897" lon="6.16399">
        <ele>314.97</ele>
        <time>2015-07-12T07:37:15.000Z</time>
      </trkpt>
      <trkpt lat="47.28896" lon="6.16383">
        <ele>314.49</ele>
        <time>2015-07-12T07:37:17.000Z</time>
      </trkpt>
      <trkpt lat="47.28894" lon="6.16367">
        <ele>314.97</ele>
        <time>2015-07-12T07:37:19.000Z</time>
      </trkpt>
      <trkpt lat="47.28892" lon="6.1635">
        <ele>314.97</ele>
        <time>2015-07-12T07:37:21.000Z</time>
      </trkpt>
      <trkpt lat="47.2889" lon="6.16333">
        <ele>314.49</ele>
        <time>2015-07-12T07:37:23.000Z</time>
      </trkpt>
      <trkpt lat="47.28888" lon="6.16317">
        <ele>314.49</ele>
        <time>2015-07-12T07:37:25.000Z</time>
      </trkpt>
      <trkpt lat="47.28886" lon="6.163">
        <ele>314.49</ele>
        <time>2015-07-12T07:37:27.000Z</time>
      </trkpt>
      <trkpt lat="47.28885" lon="6.16284">
        <ele>314.49</ele>
        <time>2015-07-12T07:37:29.000Z</time>
      </trkpt>
      <trkpt lat="47.28882" lon="6.16267">
        <ele>314.49</ele>
        <time>2015-07-12T07:37:31.000Z</time>
      </trkpt>
      <trkpt lat="47.2888" lon="6.1625">
        <ele>314.49</ele>
        <time>2015-07-12T07:37:33.000Z</time>
      </trkpt>
      <trkpt lat="47.28878" lon="6.16232">
        <ele>314.49</ele>
        <time>2015-07-12T07:37:35.000Z</time>
      </trkpt>
      <trkpt lat="47.28876" lon="6.16216">
        <ele>314.49</ele>
        <time>2015-07-12T07:37:37.000Z</time>
      </trkpt>
      <trkpt lat="47.28873" lon="6.16199">
        <ele>314.49</ele>
        <time>2015-07-12T07:37:39.000Z</time>
      </trkpt>
      <trkpt lat="47.28871" lon="6.16182">
        <ele>314.97</ele>
        <time>2015-07-12T07:37:41.000Z</time>
      </trkpt>
      <trkpt lat="47.28868" lon="6.16165">
        <ele>314.49</ele>
        <time>2015-07-12T07:37:43.000Z</time>
      </trkpt>
      <trkpt lat="47.28866" lon="6.16148">
        <ele>314.49</ele>
        <time>2015-07-12T07:37:45.000Z</time>
      </trkpt>
      <trkpt lat="47.28864" lon="6.1613">
        <ele>314.49</ele>
        <time>2015-07-12T07:37:47.000Z</time>
      </trkpt>
      <trkpt lat="47.28862" lon="6.16113">
        <ele>314.97</ele>
        <time>2015-07-12T07:37:49.000Z</time>
      </trkpt>
      <trkpt lat="47.2886" lon="6.16096">
        <ele>314.97</ele>
        <time>2015-07-12T07:37:51.000Z</time>
      </trkpt>
      <trkpt lat="47.28859" lon="6.16079">
        <ele>314.97</ele>
        <time>2015-07-12T07:37:53.000Z</time>
      </trkpt>
      <trkpt lat="47.28858" lon="6.16063">
        <ele>314.97</ele>
        <time>2015-07-12T07:37:55.000Z</time>
      </trkpt>
      <trkpt lat="47.28856" lon="6.16046">
        <ele>314.49</ele>
        <time>2015-07-12T07:37:57.000Z</time>
      </trkpt>
      <trkpt lat="47.28854" lon="6.1603">
        <ele>314.97</ele>
        <time>2015-07-12T07:37:59.000Z</time>
      </trkpt>
      <trkpt lat="47.28852" lon="6.16014">
        <ele>314.97</ele>
        <time>2015-07-12T07:38:01.000Z</time>
      </trkpt>
      <trkpt lat="47.28849" lon="6.15997">
        <ele>315.45</ele>
        <time>2015-07-12T07:38:03.000Z</time>
      </trkpt>
      <trkpt lat="47.28846" lon="6.1598">
        <ele>314.97</ele>
        <time>2015-07-12T07:38:05.000Z</time>
      </trkpt>
      <trkpt lat="47.28844" lon="6.15963">
        <ele>315.45</ele>
        <time>2015-07-12T07:38:07.000Z</time>
      </trkpt>
      <trkpt lat="47.28842" lon="6.15946">
        <ele>314.97</ele>
        <time>2015-07-12T07:38:09.000Z</time>
      </trkpt>
      <trkpt lat="47.2884" lon="6.15929">
        <ele>314.97</ele>
        <time>2015-07-12T07:38:11.000Z</time>
      </trkpt>
      <trkpt lat="47.28838" lon="6.15913">
        <ele>314.97</ele>
        <time>2015-07-12T07:38:13.000Z</time>
      </trkpt>
      <trkpt lat="47.28836" lon="6.15898">
        <ele>315.45</ele>
        <time>2015-07-12T07:38:15.000Z</time>
      </trkpt>
      <trkpt lat="47.28834" lon="6.15882">
        <ele>315.45</ele>
        <time>2015-07-12T07:38:17.000Z</time>
      </trkpt>
      <trkpt lat="47.28832" lon="6.15866">
        <ele>315.45</ele>
        <time>2015-07-12T07:38:19.000Z</time>
      </trkpt>
      <trkpt lat="47.2883" lon="6.1585">
        <ele>314.97</ele>
        <time>2015-07-12T07:38:21.000Z</time>
      </trkpt>
      <trkpt lat="47.28828" lon="6.15833">
        <ele>314.97</ele>
        <time>2015-07-12T07:38:23.000Z</time>
      </trkpt>
      <trkpt lat="47.28826" lon="6.15817">
        <ele>315.45</ele>
        <time>2015-07-12T07:38:25.000Z</time>
      </trkpt>
      <trkpt lat="47.28824" lon="6.15801">
        <ele>315.45</ele>
        <time>2015-07-12T07:38:27.000Z</time>
      </trkpt>
      <trkpt lat="47.28822" lon="6.15784">
        <ele>315.45</ele>
        <time>2015-07-12T07:38:29.000Z</time>
      </trkpt>
      <trkpt lat="47.2882" lon="6.15767">
        <ele>315.45</ele>
        <time>2015-07-12T07:38:31.000Z</time>
      </trkpt>
      <trkpt lat="47.28817" lon="6.15751">
        <ele>316.41</ele>
        <time>2015-07-12T07:38:33.000Z</time>
      </trkpt>
      <trkpt lat="47.28815" lon="6.15735">
        <ele>316.41</ele>
        <time>2015-07-12T07:38:35.000Z</time>
      </trkpt>
      <trkpt lat="47.28812" lon="6.1572">
        <ele>315.93</ele>
        <time>2015-07-12T07:38:37.000Z</time>
      </trkpt>
      <trkpt lat="47.28809" lon="6.15704">
        <ele>315.45</ele>
        <time>2015-07-12T07:38:39.000Z</time>
      </trkpt>
      <trkpt lat="47.28807" lon="6.15688">
        <ele>315.45</ele>
        <time>2015-07-12T07:38:41.000Z</time>
      </trkpt>
      <trkpt lat="47.28804" lon="6.15672">
        <ele>315.93</ele>
        <time>2015-07-12T07:38:43.000Z</time>
      </trkpt>
      <trkpt lat="47.28801" lon="6.15656">
        <ele>315.45</ele>
        <time>2015-07-12T07:38:45.000Z</time>
      </trkpt>
      <trkpt lat="47.28797" lon="6.1564">
        <ele>315.45</ele>
        <time>2015-07-12T07:38:47.000Z</time>
      </trkpt>
      <trkpt lat="47.28794" lon="6.15623">
        <ele>315.45</ele>
        <time>2015-07-12T07:38:49.000Z</time>
      </trkpt>
      <trkpt lat="47.28791" lon="6.15607">
        <ele>315.93</ele>
        <time>2015-07-12T07:38:51.000Z</time>
      </trkpt>
      <trkpt lat="47.28787" lon="6.1559">
        <ele>315.45</ele>
        <time>2015-07-12T07:38:53.000Z</time>
      </trkpt>
      <trkpt lat="47.28783" lon="6.15572">
        <ele>315.45</ele>
        <time>2015-07-12T07:38:55.000Z</time>
      </trkpt>
      <trkpt lat="47.28779" lon="6.15555">
        <ele>314.97</ele>
        <time>2015-07-12T07:38:57.000Z</time>
      </trkpt>
      <trkpt lat="47.28775" lon="6.15538">
        <ele>314.97</ele>
        <time>2015-07-12T07:38:59.000Z</time>
      </trkpt>
      <trkpt lat="47.28772" lon="6.15521">
        <ele>315.45</ele>
        <time>2015-07-12T07:39:01.000Z</time>
      </trkpt>
      <trkpt lat="47.28769" lon="6.15505">
        <ele>315.45</ele>
        <time>2015-07-12T07:39:03.000Z</time>
      </trkpt>
      <trkpt lat="47.28765" lon="6.15488">
        <ele>315.45</ele>
        <time>2015-07-12T07:39:05.000Z</time>
      </trkpt>
      <trkpt lat="47.28762" lon="6.15472">
        <ele>314.97</ele>
        <time>2015-07-12T07:39:07.000Z</time>
      </trkpt>
      <trkpt lat="47.28759" lon="6.15455">
        <ele>314.97</ele>
        <time>2015-07-12T07:39:09.000Z</time>
      </trkpt>
      <trkpt lat="47.28756" lon="6.15438">
        <ele>314.97</ele>
        <time>2015-07-12T07:39:11.000Z</time>
      </trkpt>
      <trkpt lat="47.28753" lon="6.15421">
        <ele>314.97</ele>
        <time>2015-07-12T07:39:13.000Z</time>
      </trkpt>
      <trkpt lat="47.28749" lon="6.15404">
        <ele>314.97</ele>
        <time>2015-07-12T07:39:15.000Z</time>
      </trkpt>
      <trkpt lat="47.28745" lon="6.15386">
        <ele>314.49</ele>
        <time>2015-07-12T07:39:17.000Z</time>
      </trkpt>
      <trkpt lat="47.28742" lon="6.15368">
        <ele>314.97</ele>
        <time>2015-07-12T07:39:19.000Z</time>
      </trkpt>
      <trkpt lat="47.28739" lon="6.15351">
        <ele>314.49</ele>
        <time>2015-07-12T07:39:21.000Z</time>
      </trkpt>
      <trkpt lat="47.28736" lon="6.15334">
        <ele>314.49</ele>
        <time>2015-07-12T07:39:23.000Z</time>
      </trkpt>
      <trkpt lat="47.28732" lon="6.15317">
        <ele>314.49</ele>
        <time>2015-07-12T07:39:25.000Z</time>
      </trkpt>
      <trkpt lat="47.28729" lon="6.153">
        <ele>314.49</ele>
        <time>2015-07-12T07:39:27.000Z</time>
      </trkpt>
      <trkpt lat="47.28725" lon="6.15282">
        <ele>314.49</ele>
        <time>2015-07-12T07:39:29.000Z</time>
      </trkpt>
      <trkpt lat="47.28722" lon="6.15265">
        <ele>314.49</ele>
        <time>2015-07-12T07:39:31.000Z</time>
      </trkpt>
      <trkpt lat="47.28718" lon="6.15249">
        <ele>314.97</ele>
        <time>2015-07-12T07:39:33.000Z</time>
      </trkpt>
      <trkpt lat="47.28714" lon="6.15232">
        <ele>315.45</ele>
        <time>2015-07-12T07:39:35.000Z</time>
      </trkpt>
      <trkpt lat="47.2871" lon="6.15215">
        <ele>314.97</ele>
        <time>2015-07-12T07:39:37.000Z</time>
      </trkpt>
      <trkpt lat="47.28706" lon="6.15198">
        <ele>314.97</ele>
        <time>2015-07-12T07:39:39.000Z</time>
      </trkpt>
      <trkpt lat="47.28701" lon="6.15181">
        <ele>314.97</ele>
        <time>2015-07-12T07:39:41.000Z</time>
      </trkpt>
      <trkpt lat="47.28695" lon="6.15165">
        <ele>314.49</ele>
        <time>2015-07-12T07:39:43.000Z</time>
      </trkpt>
      <trkpt lat="47.2869" lon="6.15148">
        <ele>314.97</ele>
        <time>2015-07-12T07:39:45.000Z</time>
      </trkpt>
      <trkpt lat="47.28684" lon="6.15132">
        <ele>314.49</ele>
        <time>2015-07-12T07:39:47.000Z</time>
      </trkpt>
      <trkpt lat="47.28679" lon="6.15115">
        <ele>315.45</ele>
        <time>2015-07-12T07:39:49.000Z</time>
      </trkpt>
      <trkpt lat="47.28674" lon="6.15099">
        <ele>314.97</ele>
        <time>2015-07-12T07:39:51.000Z</time>
      </trkpt>
      <trkpt lat="47.28668" lon="6.15082">
        <ele>314.97</ele>
        <time>2015-07-12T07:39:53.000Z</time>
      </trkpt>
      <trkpt lat="47.28664" lon="6.15064">
        <ele>314.97</ele>
        <time>2015-07-12T07:39:55.000Z</time>
      </trkpt>
      <trkpt lat="47.28658" lon="6.15046">
        <ele>314.97</ele>
        <time>2015-07-12T07:39:57.000Z</time>
      </trkpt>
      <trkpt lat="47.28652" lon="6.15029">
        <ele>314.97</ele>
        <time>2015-07-12T07:39:59.000Z</time>
      </trkpt>
      <trkpt lat="47.28646" lon="6.15012">
        <ele>314.97</ele>
        <time>2015-07-12T07:40:01.000Z</time>
      </trkpt>
      <trkpt lat="47.28639" lon="6.14995">
        <ele>314.49</ele>
        <time>2015-07-12T07:40:03.000Z</time>
      </trkpt>
      <trkpt lat="47.28633" lon="6.14979">
        <ele>314.01</ele>
        <time>2015-07-12T07:40:05.000Z</time>
      </trkpt>
      <trkpt lat="47.28626" lon="6.14963">
        <ele>314.01</ele>
        <time>2015-07-12T07:40:07.000Z</time>
      </trkpt>
      <trkpt lat="47.28619" lon="6.14948">
        <ele>314.01</ele>
        <time>2015-07-12T07:40:09.000Z</time>
      </trkpt>
      <trkpt lat="47.28612" lon="6.14933">
        <ele>314.97</ele>
        <time>2015-07-12T07:40:11.000Z</time>
      </trkpt>
      <trkpt lat="47.28605" lon="6.14918">
        <ele>314.49</ele>
        <time>2015-07-12T07:40:13.000Z</time>
      </trkpt>
      <trkpt lat="47.28598" lon="6.14903">
        <ele>314.01</ele>
        <time>2015-07-12T07:40:15.000Z</time>
      </trkpt>
      <trkpt lat="47.28591" lon="6.14887">
        <ele>314.49</ele>
        <time>2015-07-12T07:40:17.000Z</time>
      </trkpt>
      <trkpt lat="47.28584" lon="6.14871">
        <ele>314.01</ele>
        <time>2015-07-12T07:40:19.000Z</time>
      </trkpt>
      <trkpt lat="47.28578" lon="6.14855">
        <ele>314.49</ele>
        <time>2015-07-12T07:40:21.000Z</time>
      </trkpt>
      <trkpt lat="47.28572" lon="6.14837">
        <ele>314.01</ele>
        <time>2015-07-12T07:40:23.000Z</time>
      </trkpt>
      <trkpt lat="47.28567" lon="6.14819">
        <ele>314.01</ele>
        <time>2015-07-12T07:40:25.000Z</time>
      </trkpt>
      <trkpt lat="47.28561" lon="6.14802">
        <ele>314.01</ele>
        <time>2015-07-12T07:40:27.000Z</time>
      </trkpt>
      <trkpt lat="47.28555" lon="6.14785">
        <ele>314.01</ele>
        <time>2015-07-12T07:40:29.000Z</time>
      </trkpt>
      <trkpt lat="47.28548" lon="6.14768">
        <ele>313.53</ele>
        <time>2015-07-12T07:40:31.000Z</time>
      </trkpt>
      <trkpt lat="47.28543" lon="6.1475">
        <ele>313.53</ele>
        <time>2015-07-12T07:40:33.000Z</time>
      </trkpt>
      <trkpt lat="47.28536" lon="6.14733">
        <ele>314.01</ele>
        <time>2015-07-12T07:40:35.000Z</time>
      </trkpt>
      <trkpt lat="47.28531" lon="6.14715">
        <ele>314.01</ele>
        <time>2015-07-12T07:40:37.000Z</time>
      </trkpt>
      <trkpt lat="47.28527" lon="6.14697">
        <ele>314.01</ele>
        <time>2015-07-12T07:40:39.000Z</time>
      </trkpt>
      <trkpt lat="47.28524" lon="6.14679">
        <ele>314.49</ele>
        <time>2015-07-12T07:40:41.000Z</time>
      </trkpt>
      <trkpt lat="47.2852" lon="6.14662">
        <ele>314.49</ele>
        <time>2015-07-12T07:40:43.000Z</time>
      </trkpt>
      <trkpt lat="47.28517" lon="6.14644">
        <ele>314.49</ele>
        <time>2015-07-12T07:40:45.000Z</time>
      </trkpt>
      <trkpt lat="47.28514" lon="6.14626">
        <ele>314.01</ele>
        <time>2015-07-12T07:40:47.000Z</time>
      </trkpt>
      <trkpt lat="47.28511" lon="6.14608">
        <ele>314.49</ele>
        <time>2015-07-12T07:40:49.000Z</time>
      </trkpt>
      <trkpt lat="47.28507" lon="6.1459">
        <ele>314.01</ele>
        <time>2015-07-12T07:40:51.000Z</time>
      </trkpt>
      <trkpt lat="47.28504" lon="6.14571">
        <ele>314.49</ele>
        <time>2015-07-12T07:40:53.000Z</time>
      </trkpt>
      <trkpt lat="47.285" lon="6.14552">
        <ele>314.01</ele>
        <time>2015-07-12T07:40:55.000Z</time>
      </trkpt>
      <trkpt lat="47.28497" lon="6.14534">
        <ele>313.53</ele>
        <time>2015-07-12T07:40:57.000Z</time>
      </trkpt>
      <trkpt lat="47.28494" lon="6.14515">
        <ele>313.53</ele>
        <time>2015-07-12T07:40:59.000Z</time>
      </trkpt>
      <trkpt lat="47.28491" lon="6.14497">
        <ele>313.53</ele>
        <time>2015-07-12T07:41:01.000Z</time>
      </trkpt>
      <trkpt lat="47.28489" lon="6.14478">
        <ele>313.53</ele>
        <time>2015-07-12T07:41:03.000Z</time>
      </trkpt>
      <trkpt lat="47.28487" lon="6.14459">
        <ele>313.53</ele>
        <time>2015-07-12T07:41:05.000Z</time>
      </trkpt>
      <trkpt lat="47.28485" lon="6.14441">
        <ele>314.01</ele>
        <time>2015-07-12T07:41:07.000Z</time>
      </trkpt>
      <trkpt lat="47.28484" lon="6.14422">
        <ele>314.01</ele>
        <time>2015-07-12T07:41:09.000Z</time>
      </trkpt>
      <trkpt lat="47.28484" lon="6.14403">
        <ele>314.01</ele>
        <time>2015-07-12T07:41:11.000Z</time>
      </trkpt>
      <trkpt lat="47.28482" lon="6.14385">
        <ele>314.01</ele>
        <time>2015-07-12T07:41:13.000Z</time>
      </trkpt>
      <trkpt lat="47.28481" lon="6.14366">
        <ele>314.01</ele>
        <time>2015-07-12T07:41:15.000Z</time>
      </trkpt>
      <trkpt lat="47.2848" lon="6.14348">
        <ele>314.01</ele>
        <time>2015-07-12T07:41:17.000Z</time>
      </trkpt>
      <trkpt lat="47.28478" lon="6.1433">
        <ele>314.01</ele>
        <time>2015-07-12T07:41:19.000Z</time>
      </trkpt>
      <trkpt lat="47.28477" lon="6.14311">
        <ele>314.01</ele>
        <time>2015-07-12T07:41:21.000Z</time>
      </trkpt>
      <trkpt lat="47.28476" lon="6.14292">
        <ele>314.01</ele>
        <time>2015-07-12T07:41:23.000Z</time>
      </trkpt>
      <trkpt lat="47.28474" lon="6.14274">
        <ele>314.01</ele>
        <time>2015-07-12T07:41:25.000Z</time>
      </trkpt>
      <trkpt lat="47.28473" lon="6.14255">
        <ele>313.53</ele>
        <time>2015-07-12T07:41:27.000Z</time>
      </trkpt>
      <trkpt lat="47.28471" lon="6.14236">
        <ele>313.53</ele>
        <time>2015-07-12T07:41:29.000Z</time>
      </trkpt>
      <trkpt lat="47.28469" lon="6.14217">
        <ele>314.01</ele>
        <time>2015-07-12T07:41:31.000Z</time>
      </trkpt>
      <trkpt lat="47.28468" lon="6.14198">
        <ele>314.01</ele>
        <time>2015-07-12T07:41:33.000Z</time>
      </trkpt>
      <trkpt lat="47.28466" lon="6.1418">
        <ele>314.49</ele>
        <time>2015-07-12T07:41:35.000Z</time>
      </trkpt>
      <trkpt lat="47.28464" lon="6.14161">
        <ele>314.01</ele>
        <time>2015-07-12T07:41:37.000Z</time>
      </trkpt>
      <trkpt lat="47.28461" lon="6.14142">
        <ele>314.01</ele>
        <time>2015-07-12T07:41:39.000Z</time>
      </trkpt>
      <trkpt lat="47.28459" lon="6.14124">
        <ele>313.53</ele>
        <time>2015-07-12T07:41:41.000Z</time>
      </trkpt>
      <trkpt lat="47.28457" lon="6.14105">
        <ele>313.53</ele>
        <time>2015-07-12T07:41:43.000Z</time>
      </trkpt>
      <trkpt lat="47.28457" lon="6.14086">
        <ele>314.01</ele>
        <time>2015-07-12T07:41:45.000Z</time>
      </trkpt>
      <trkpt lat="47.28457" lon="6.14068">
        <ele>314.01</ele>
        <time>2015-07-12T07:41:47.000Z</time>
      </trkpt>
      <trkpt lat="47.28456" lon="6.14049">
        <ele>314.01</ele>
        <time>2015-07-12T07:41:49.000Z</time>
      </trkpt>
      <trkpt lat="47.28455" lon="6.14031">
        <ele>314.01</ele>
        <time>2015-07-12T07:41:51.000Z</time>
      </trkpt>
      <trkpt lat="47.28453" lon="6.14012">
        <ele>314.01</ele>
        <time>2015-07-12T07:41:53.000Z</time>
      </trkpt>
      <trkpt lat="47.2845" lon="6.13994">
        <ele>314.01</ele>
        <time>2015-07-12T07:41:55.000Z</time>
      </trkpt>
      <trkpt lat="47.28448" lon="6.13977">
        <ele>314.97</ele>
        <time>2015-07-12T07:41:57.000Z</time>
      </trkpt>
      <trkpt lat="47.28445" lon="6.13961">
        <ele>314.97</ele>
        <time>2015-07-12T07:41:59.000Z</time>
      </trkpt>
      <trkpt lat="47.28443" lon="6.13946">
        <ele>315.45</ele>
        <time>2015-07-12T07:42:01.000Z</time>
      </trkpt>
      <trkpt lat="47.28439" lon="6.13932">
        <ele>314.97</ele>
        <time>2015-07-12T07:42:03.000Z</time>
      </trkpt>
      <trkpt lat="47.28433" lon="6.13918">
        <ele>315.93</ele>
        <time>2015-07-12T07:42:05.000Z</time>
      </trkpt>
      <trkpt lat="47.28427" lon="6.13904">
        <ele>315.93</ele>
        <time>2015-07-12T07:42:07.000Z</time>
      </trkpt>
      <trkpt lat="47.28419" lon="6.13891">
        <ele>315.45</ele>
        <time>2015-07-12T07:42:09.000Z</time>
      </trkpt>
      <trkpt lat="47.2841" lon="6.13877">
        <ele>315.45</ele>
        <time>2015-07-12T07:42:11.000Z</time>
      </trkpt>
      <trkpt lat="47.28402" lon="6.13864">
        <ele>314.97</ele>
        <time>2015-07-12T07:42:13.000Z</time>
      </trkpt>
      <trkpt lat="47.28393" lon="6.13851">
        <ele>314.97</ele>
        <time>2015-07-12T07:42:15.000Z</time>
      </trkpt>
      <trkpt lat="47.28384" lon="6.13838">
        <ele>315.45</ele>
        <time>2015-07-12T07:42:17.000Z</time>
      </trkpt>
      <trkpt lat="47.28375" lon="6.13825">
        <ele>315.45</ele>
        <time>2015-07-12T07:42:19.000Z</time>
      </trkpt>
      <trkpt lat="47.28366" lon="6.13812">
        <ele>314.97</ele>
        <time>2015-07-12T07:42:21.000Z</time>
      </trkpt>
      <trkpt lat="47.28357" lon="6.13799">
        <ele>314.97</ele>
        <time>2015-07-12T07:42:23.000Z</time>
      </trkpt>
      <trkpt lat="47.28349" lon="6.13787">
        <ele>314.97</ele>
        <time>2015-07-12T07:42:25.000Z</time>
      </trkpt>
      <trkpt lat="47.28342" lon="6.13775">
        <ele>314.49</ele>
        <time>2015-07-12T07:42:27.000Z</time>
      </trkpt>
      <trkpt lat="47.28334" lon="6.13763">
        <ele>314.97</ele>
        <time>2015-07-12T07:42:29.000Z</time>
      </trkpt>
      <trkpt lat="47.28326" lon="6.13751">
        <ele>315.45</ele>
        <time>2015-07-12T07:42:31.000Z</time>
      </trkpt>
      <trkpt lat="47.28317" lon="6.13739">
        <ele>314.97</ele>
        <time>2015-07-12T07:42:33.000Z</time>
      </trkpt>
      <trkpt lat="47.28309" lon="6.13726">
        <ele>314.97</ele>
        <time>2015-07-12T07:42:35.000Z</time>
      </trkpt>
      <trkpt lat="47.283" lon="6.13714">
        <ele>314.97</ele>
        <time>2015-07-12T07:42:37.000Z</time>
      </trkpt>
      <trkpt lat="47.28291" lon="6.13701">
        <ele>314.97</ele>
        <time>2015-07-12T07:42:39.000Z</time>
      </trkpt>
      <trkpt lat="47.28283" lon="6.13689">
        <ele>314.49</ele>
        <time>2015-07-12T07:42:41.000Z</time>
      </trkpt>
      <trkpt lat="47.28274" lon="6.13676">
        <ele>314.49</ele>
        <time>2015-07-12T07:42:43.000Z</time>
      </trkpt>
      <trkpt lat="47.28265" lon="6.13663">
        <ele>314.97</ele>
        <time>2015-07-12T07:42:45.000Z</time>
      </trkpt>
      <trkpt lat="47.28256" lon="6.13649">
        <ele>314.49</ele>
        <time>2015-07-12T07:42:47.000Z</time>
      </trkpt>
      <trkpt lat="47.28247" lon="6.13636">
        <ele>314.49</ele>
        <time>2015-07-12T07:42:49.000Z</time>
      </trkpt>
      <trkpt lat="47.28239" lon="6.13623">
        <ele>314.49</ele>
        <time>2015-07-12T07:42:51.000Z</time>
      </trkpt>
      <trkpt lat="47.28231" lon="6.1361">
        <ele>314.49</ele>
        <time>2015-07-12T07:42:53.000Z</time>
      </trkpt>
      <trkpt lat="47.28224" lon="6.13596">
        <ele>314.49</ele>
        <time>2015-07-12T07:42:55.000Z</time>
      </trkpt>
      <trkpt lat="47.28217" lon="6.13583">
        <ele>314.49</ele>
        <time>2015-07-12T07:42:57.000Z</time>
      </trkpt>
      <trkpt lat="47.2821" lon="6.13568">
        <ele>314.49</ele>
        <time>2015-07-12T07:42:59.000Z</time>
      </trkpt>
      <trkpt lat="47.28204" lon="6.13553">
        <ele>314.97</ele>
        <time>2015-07-12T07:43:01.000Z</time>
      </trkpt>
      <trkpt lat="47.28199" lon="6.13538">
        <ele>314.49</ele>
        <time>2015-07-12T07:43:03.000Z</time>
      </trkpt>
      <trkpt lat="47.28193" lon="6.13521">
        <ele>314.49</ele>
        <time>2015-07-12T07:43:05.000Z</time>
      </trkpt>
      <trkpt lat="47.28189" lon="6.13504">
        <ele>314.49</ele>
        <time>2015-07-12T07:43:07.000Z</time>
      </trkpt>
      <trkpt lat="47.28185" lon="6.13486">
        <ele>314.97</ele>
        <time>2015-07-12T07:43:09.000Z</time>
      </trkpt>
      <trkpt lat="47.28183" lon="6.13472">
        <ele>315.45</ele>
        <time>2015-07-12T07:43:11.000Z</time>
      </trkpt>
      <trkpt lat="47.28181" lon="6.13457">
        <ele>315.45</ele>
        <time>2015-07-12T07:43:13.000Z</time>
      </trkpt>
      <trkpt lat="47.28178" lon="6.13442">
        <ele>314.97</ele>
        <time>2015-07-12T07:43:15.000Z</time>
      </trkpt>
      <trkpt lat="47.28175" lon="6.13425">
        <ele>314.97</ele>
        <time>2015-07-12T07:43:17.000Z</time>
      </trkpt>
      <trkpt lat="47.28172" lon="6.13406">
        <ele>314.49</ele>
        <time>2015-07-12T07:43:19.000Z</time>
      </trkpt>
      <trkpt lat="47.28169" lon="6.13387">
        <ele>314.49</ele>
        <time>2015-07-12T07:43:21.000Z</time>
      </trkpt>
      <trkpt lat="47.28166" lon="6.13369">
        <ele>314.49</ele>
        <time>2015-07-12T07:43:23.000Z</time>
      </trkpt>
      <trkpt lat="47.28163" lon="6.13351">
        <ele>314.01</ele>
        <time>2015-07-12T07:43:25.000Z</time>
      </trkpt>
      <trkpt lat="47.2816" lon="6.13334">
        <ele>314.01</ele>
        <time>2015-07-12T07:43:27.000Z</time>
      </trkpt>
      <trkpt lat="47.28158" lon="6.13318">
        <ele>314.01</ele>
        <time>2015-07-12T07:43:29.000Z</time>
      </trkpt>
      <trkpt lat="47.28155" lon="6.13302">
        <ele>314.01</ele>
        <time>2015-07-12T07:43:31.000Z</time>
      </trkpt>
      <trkpt lat="47.28152" lon="6.13286">
        <ele>314.49</ele>
        <time>2015-07-12T07:43:33.000Z</time>
      </trkpt>
      <trkpt lat="47.2815" lon="6.1327">
        <ele>314.01</ele>
        <time>2015-07-12T07:43:35.000Z</time>
      </trkpt>
      <trkpt lat="47.28148" lon="6.13255">
        <ele>314.01</ele>
        <time>2015-07-12T07:43:37.000Z</time>
      </trkpt>
      <trkpt lat="47.28145" lon="6.13239">
        <ele>314.01</ele>
        <time>2015-07-12T07:43:39.000Z</time>
      </trkpt>
      <trkpt lat="47.28141" lon="6.13222">
        <ele>314.01</ele>
        <time>2015-07-12T07:43:41.000Z</time>
      </trkpt>
      <trkpt lat="47.28138" lon="6.13204">
        <ele>314.01</ele>
        <time>2015-07-12T07:43:43.000Z</time>
      </trkpt>
      <trkpt lat="47.28135" lon="6.13187">
        <ele>313.53</ele>
        <time>2015-07-12T07:43:45.000Z</time>
      </trkpt>
      <trkpt lat="47.28131" lon="6.1317">
        <ele>314.01</ele>
        <time>2015-07-12T07:43:47.000Z</time>
      </trkpt>
      <trkpt lat="47.28128" lon="6.13152">
        <ele>314.01</ele>
        <time>2015-07-12T07:43:49.000Z</time>
      </trkpt>
      <trkpt lat="47.28125" lon="6.13135">
        <ele>314.01</ele>
        <time>2015-07-12T07:43:51.000Z</time>
      </trkpt>
      <trkpt lat="47.28122" lon="6.13117">
        <ele>313.53</ele>
        <time>2015-07-12T07:43:53.000Z</time>
      </trkpt>
      <trkpt lat="47.28119" lon="6.131">
        <ele>313.53</ele>
        <time>2015-07-12T07:43:55.000Z</time>
      </trkpt>
      <trkpt lat="47.28116" lon="6.13083">
        <ele>313.53</ele>
        <time>2015-07-12T07:43:57.000Z</time>
      </trkpt>
      <trkpt lat="47.28115" lon="6.13066">
        <ele>314.01</ele>
        <time>2015-07-12T07:43:59.000Z</time>
      </trkpt>
      <trkpt lat="47.28113" lon="6.13048">
        <ele>314.01</ele>
        <time>2015-07-12T07:44:01.000Z</time>
      </trkpt>
      <trkpt lat="47.28111" lon="6.13031">
        <ele>313.53</ele>
        <time>2015-07-12T07:44:03.000Z</time>
      </trkpt>
      <trkpt lat="47.2811" lon="6.13013">
        <ele>313.53</ele>
        <time>2015-07-12T07:44:05.000Z</time>
      </trkpt>
      <trkpt lat="47.28108" lon="6.12996">
        <ele>313.53</ele>
        <time>2015-07-12T07:44:07.000Z</time>
      </trkpt>
      <trkpt lat="47.28107" lon="6.12978">
        <ele>314.01</ele>
        <time>2015-07-12T07:44:09.000Z</time>
      </trkpt>
      <trkpt lat="47.28105" lon="6.12961">
        <ele>313.53</ele>
        <time>2015-07-12T07:44:11.000Z</time>
      </trkpt>
      <trkpt lat="47.28104" lon="6.12943">
        <ele>313.53</ele>
        <time>2015-07-12T07:44:13.000Z</time>
      </trkpt>
      <trkpt lat="47.28102" lon="6.12925">
        <ele>313.53</ele>
        <time>2015-07-12T07:44:15.000Z</time>
      </trkpt>
      <trkpt lat="47.281" lon="6.12907">
        <ele>313.53</ele>
        <time>2015-07-12T07:44:17.000Z</time>
      </trkpt>
      <trkpt lat="47.28098" lon="6.1289">
        <ele>314.01</ele>
        <time>2015-07-12T07:44:19.000Z</time>
      </trkpt>
      <trkpt lat="47.28097" lon="6.12872">
        <ele>313.53</ele>
        <time>2015-07-12T07:44:21.000Z</time>
      </trkpt>
      <trkpt lat="47.28096" lon="6.12854">
        <ele>313.53</ele>
        <time>2015-07-12T07:44:23.000Z</time>
      </trkpt>
      <trkpt lat="47.28095" lon="6.12837">
        <ele>313.53</ele>
        <time>2015-07-12T07:44:25.000Z</time>
      </trkpt>
      <trkpt lat="47.28093" lon="6.1282">
        <ele>314.01</ele>
        <time>2015-07-12T07:44:27.000Z</time>
      </trkpt>
      <trkpt lat="47.28091" lon="6.12802">
        <ele>314.01</ele>
        <time>2015-07-12T07:44:29.000Z</time>
      </trkpt>
      <trkpt lat="47.28089" lon="6.12785">
        <ele>313.53</ele>
        <time>2015-07-12T07:44:31.000Z</time>
      </trkpt>
      <trkpt lat="47.28087" lon="6.12768">
        <ele>314.01</ele>
        <time>2015-07-12T07:44:33.000Z</time>
      </trkpt>
      <trkpt lat="47.28086" lon="6.12751">
        <ele>314.01</ele>
        <time>2015-07-12T07:44:35.000Z</time>
      </trkpt>
      <trkpt lat="47.28084" lon="6.12734">
        <ele>314.01</ele>
        <time>2015-07-12T07:44:37.000Z</time>
      </trkpt>
      <trkpt lat="47.28081" lon="6.12718">
        <ele>314.01</ele>
        <time>2015-07-12T07:44:39.000Z</time>
      </trkpt>
      <trkpt lat="47.28079" lon="6.12702">
        <ele>314.49</ele>
        <time>2015-07-12T07:44:41.000Z</time>
      </trkpt>
      <trkpt lat="47.28076" lon="6.12686">
        <ele>314.49</ele>
        <time>2015-07-12T07:44:43.000Z</time>
      </trkpt>
      <trkpt lat="47.28074" lon="6.1267">
        <ele>314.49</ele>
        <time>2015-07-12T07:44:45.000Z</time>
      </trkpt>
      <trkpt lat="47.28072" lon="6.12654">
        <ele>314.97</ele>
        <time>2015-07-12T07:44:47.000Z</time>
      </trkpt>
      <trkpt lat="47.28069" lon="6.12637">
        <ele>314.01</ele>
        <time>2015-07-12T07:44:49.000Z</time>
      </trkpt>
      <trkpt lat="47.28066" lon="6.12621">
        <ele>314.01</ele>
        <time>2015-07-12T07:44:51.000Z</time>
      </trkpt>
      <trkpt lat="47.28063" lon="6.12605">
        <ele>314.01</ele>
        <time>2015-07-12T07:44:53.000Z</time>
      </trkpt>
      <trkpt lat="47.28059" lon="6.12588">
        <ele>314.01</ele>
        <time>2015-07-12T07:44:55.000Z</time>
      </trkpt>
      <trkpt lat="47.28054" lon="6.12572">
        <ele>314.01</ele>
        <time>2015-07-12T07:44:57.000Z</time>
      </trkpt>
      <trkpt lat="47.28048" lon="6.12557">
        <ele>314.01</ele>
        <time>2015-07-12T07:44:59.000Z</time>
      </trkpt>
      <trkpt lat="47.28041" lon="6.12542">
        <ele>314.01</ele>
        <time>2015-07-12T07:45:01.000Z</time>
      </trkpt>
      <trkpt lat="47.28033" lon="6.12528">
        <ele>313.53</ele>
        <time>2015-07-12T07:45:03.000Z</time>
      </trkpt>
      <trkpt lat="47.28027" lon="6.12513">
        <ele>313.53</ele>
        <time>2015-07-12T07:45:05.000Z</time>
      </trkpt>
      <trkpt lat="47.28019" lon="6.12498">
        <ele>313.53</ele>
        <time>2015-07-12T07:45:07.000Z</time>
      </trkpt>
      <trkpt lat="47.28012" lon="6.12485">
        <ele>313.53</ele>
        <time>2015-07-12T07:45:09.000Z</time>
      </trkpt>
      <trkpt lat="47.28004" lon="6.12471">
        <ele>313.05</ele>
        <time>2015-07-12T07:45:11.000Z</time>
      </trkpt>
      <trkpt lat="47.27996" lon="6.12458">
        <ele>314.01</ele>
        <time>2015-07-12T07:45:13.000Z</time>
      </trkpt>
      <trkpt lat="47.27988" lon="6.12444">
        <ele>314.01</ele>
        <time>2015-07-12T07:45:15.000Z</time>
      </trkpt>
      <trkpt lat="47.2798" lon="6.12431">
        <ele>313.53</ele>
        <time>2015-07-12T07:45:17.000Z</time>
      </trkpt>
      <trkpt lat="47.27972" lon="6.12417">
        <ele>313.53</ele>
        <time>2015-07-12T07:45:19.000Z</time>
      </trkpt>
      <trkpt lat="47.27964" lon="6.12403">
        <ele>313.53</ele>
        <time>2015-07-12T07:45:21.000Z</time>
      </trkpt>
      <trkpt lat="47.27956" lon="6.12389">
        <ele>313.53</ele>
        <time>2015-07-12T07:45:23.000Z</time>
      </trkpt>
      <trkpt lat="47.27947" lon="6.12375">
        <ele>314.01</ele>
        <time>2015-07-12T07:45:25.000Z</time>
      </trkpt>
      <trkpt lat="47.27939" lon="6.12361">
        <ele>313.53</ele>
        <time>2015-07-12T07:45:27.000Z</time>
      </trkpt>
      <trkpt lat="47.27931" lon="6.12347">
        <ele>313.05</ele>
        <time>2015-07-12T07:45:29.000Z</time>
      </trkpt>
      <trkpt lat="47.27923" lon="6.12332">
        <ele>314.01</ele>
        <time>2015-07-12T07:45:31.000Z</time>
      </trkpt>
      <trkpt lat="47.27914" lon="6.12318">
        <ele>313.53</ele>
        <time>2015-07-12T07:45:33.000Z</time>
      </trkpt>
      <trkpt lat="47.27906" lon="6.12305">
        <ele>314.01</ele>
        <time>2015-07-12T07:45:35.000Z</time>
      </trkpt>
      <trkpt lat="47.27898" lon="6.12291">
        <ele>314.01</ele>
        <time>2015-07-12T07:45:37.000Z</time>
      </trkpt>
      <trkpt lat="47.27889" lon="6.12278">
        <ele>313.53</ele>
        <time>2015-07-12T07:45:39.000Z</time>
      </trkpt>
      <trkpt lat="47.2788" lon="6.12264">
        <ele>313.53</ele>
        <time>2015-07-12T07:45:41.000Z</time>
      </trkpt>
      <trkpt lat="47.27871" lon="6.12251">
        <ele>313.53</ele>
        <time>2015-07-12T07:45:43.000Z</time>
      </trkpt>
      <trkpt lat="47.27861" lon="6.12238">
        <ele>313.53</ele>
        <time>2015-07-12T07:45:45.000Z</time>
      </trkpt>
      <trkpt lat="47.27853" lon="6.12225">
        <ele>313.53</ele>
        <time>2015-07-12T07:45:47.000Z</time>
      </trkpt>
      <trkpt lat="47.27844" lon="6.12211">
        <ele>313.53</ele>
        <time>2015-07-12T07:45:49.000Z</time>
      </trkpt>
      <trkpt lat="47.27836" lon="6.12198">
        <ele>313.53</ele>
        <time>2015-07-12T07:45:51.000Z</time>
      </trkpt>
      <trkpt lat="47.27828" lon="6.12185">
        <ele>313.53</ele>
        <time>2015-07-12T07:45:53.000Z</time>
      </trkpt>
      <trkpt lat="47.2782" lon="6.12172">
        <ele>314.01</ele>
        <time>2015-07-12T07:45:55.000Z</time>
      </trkpt>
      <trkpt lat="47.2781" lon="6.1216">
        <ele>313.53</ele>
        <time>2015-07-12T07:45:57.000Z</time>
      </trkpt>
      <trkpt lat="47.278" lon="6.12149">
        <ele>314.01</ele>
        <time>2015-07-12T07:45:59.000Z</time>
      </trkpt>
      <trkpt lat="47.2779" lon="6.1214">
        <ele>314.01</ele>
        <time>2015-07-12T07:46:01.000Z</time>
      </trkpt>
      <trkpt lat="47.27779" lon="6.1213">
        <ele>313.53</ele>
        <time>2015-07-12T07:46:03.000Z</time>
      </trkpt>
      <trkpt lat="47.27768" lon="6.12121">
        <ele>313.53</ele>
        <time>2015-07-12T07:46:05.000Z</time>
      </trkpt>
      <trkpt lat="47.27757" lon="6.12113">
        <ele>313.05</ele>
        <time>2015-07-12T07:46:07.000Z</time>
      </trkpt>
      <trkpt lat="47.27748" lon="6.12103">
        <ele>313.05</ele>
        <time>2015-07-12T07:46:09.000Z</time>
      </trkpt>
      <trkpt lat="47.27739" lon="6.12094">
        <ele>313.53</ele>
        <time>2015-07-12T07:46:11.000Z</time>
      </trkpt>
      <trkpt lat="47.27729" lon="6.12086">
        <ele>313.53</ele>
        <time>2015-07-12T07:46:13.000Z</time>
      </trkpt>
      <trkpt lat="47.2772" lon="6.12076">
        <ele>313.53</ele>
        <time>2015-07-12T07:46:15.000Z</time>
      </trkpt>
      <trkpt lat="47.2771" lon="6.12065">
        <ele>313.53</ele>
        <time>2015-07-12T07:46:17.000Z</time>
      </trkpt>
      <trkpt lat="47.27699" lon="6.12054">
        <ele>313.05</ele>
        <time>2015-07-12T07:46:19.000Z</time>
      </trkpt>
      <trkpt lat="47.27689" lon="6.12043">
        <ele>313.53</ele>
        <time>2015-07-12T07:46:21.000Z</time>
      </trkpt>
      <trkpt lat="47.27678" lon="6.12031">
        <ele>313.05</ele>
        <time>2015-07-12T07:46:23.000Z</time>
      </trkpt>
      <trkpt lat="47.27668" lon="6.1202">
        <ele>313.05</ele>
        <time>2015-07-12T07:46:25.000Z</time>
      </trkpt>
      <trkpt lat="47.27659" lon="6.1201">
        <ele>313.05</ele>
        <time>2015-07-12T07:46:27.000Z</time>
      </trkpt>
      <trkpt lat="47.2765" lon="6.12">
        <ele>313.05</ele>
        <time>2015-07-12T07:46:29.000Z</time>
      </trkpt>
      <trkpt lat="47.27641" lon="6.11989">
        <ele>312.57</ele>
        <time>2015-07-12T07:46:31.000Z</time>
      </trkpt>
      <trkpt lat="47.27631" lon="6.11977">
        <ele>312.57</ele>
        <time>2015-07-12T07:46:33.000Z</time>
      </trkpt>
      <trkpt lat="47.27622" lon="6.11965">
        <ele>312.57</ele>
        <time>2015-07-12T07:46:35.000Z</time>
      </trkpt>
      <trkpt lat="47.27613" lon="6.11952">
        <ele>312.57</ele>
        <time>2015-07-12T07:46:37.000Z</time>
      </trkpt>
      <trkpt lat="47.27603" lon="6.1194">
        <ele>312.57</ele>
        <time>2015-07-12T07:46:39.000Z</time>
      </trkpt>
      <trkpt lat="47.27593" lon="6.11928">
        <ele>312.57</ele>
        <time>2015-07-12T07:46:41.000Z</time>
      </trkpt>
      <trkpt lat="47.27584" lon="6.11916">
        <ele>312.57</ele>
        <time>2015-07-12T07:46:43.000Z</time>
      </trkpt>
      <trkpt lat="47.27574" lon="6.11904">
        <ele>313.05</ele>
        <time>2015-07-12T07:46:45.000Z</time>
      </trkpt>
      <trkpt lat="47.27565" lon="6.11893">
        <ele>313.05</ele>
        <time>2015-07-12T07:46:47.000Z</time>
      </trkpt>
      <trkpt lat="47.27556" lon="6.11881">
        <ele>312.57</ele>
        <time>2015-07-12T07:46:49.000Z</time>
      </trkpt>
      <trkpt lat="47.27547" lon="6.1187">
        <ele>313.05</ele>
        <time>2015-07-12T07:46:51.000Z</time>
      </trkpt>
      <trkpt lat="47.27538" lon="6.11859">
        <ele>312.57</ele>
        <time>2015-07-12T07:46:53.000Z</time>
      </trkpt>
      <trkpt lat="47.27528" lon="6.11848">
        <ele>313.05</ele>
        <time>2015-07-12T07:46:55.000Z</time>
      </trkpt>
      <trkpt lat="47.27519" lon="6.11837">
        <ele>313.53</ele>
        <time>2015-07-12T07:46:57.000Z</time>
      </trkpt>
      <trkpt lat="47.2751" lon="6.11827">
        <ele>313.05</ele>
        <time>2015-07-12T07:46:59.000Z</time>
      </trkpt>
      <trkpt lat="47.275" lon="6.11816">
        <ele>313.05</ele>
        <time>2015-07-12T07:47:01.000Z</time>
      </trkpt>
      <trkpt lat="47.2749" lon="6.11805">
        <ele>312.57</ele>
        <time>2015-07-12T07:47:03.000Z</time>
      </trkpt>
      <trkpt lat="47.2748" lon="6.11794">
        <ele>313.05</ele>
        <time>2015-07-12T07:47:05.000Z</time>
      </trkpt>
      <trkpt lat="47.2747" lon="6.11783">
        <ele>313.05</ele>
        <time>2015-07-12T07:47:07.000Z</time>
      </trkpt>
      <trkpt lat="47.2746" lon="6.11773">
        <ele>313.05</ele>
        <time>2015-07-12T07:47:09.000Z</time>
      </trkpt>
      <trkpt lat="47.2745" lon="6.11763">
        <ele>312.57</ele>
        <time>2015-07-12T07:47:11.000Z</time>
      </trkpt>
      <trkpt lat="47.27439" lon="6.11755">
        <ele>312.57</ele>
        <time>2015-07-12T07:47:13.000Z</time>
      </trkpt>
      <trkpt lat="47.27428" lon="6.11751">
        <ele>312.57</ele>
        <time>2015-07-12T07:47:15.000Z</time>
      </trkpt>
      <trkpt lat="47.27418" lon="6.11748">
        <ele>313.05</ele>
        <time>2015-07-12T07:47:17.000Z</time>
      </trkpt>
      <trkpt lat="47.27408" lon="6.11744">
        <ele>313.05</ele>
        <time>2015-07-12T07:47:19.000Z</time>
      </trkpt>
      <trkpt lat="47.27398" lon="6.11738">
        <ele>313.53</ele>
        <time>2015-07-12T07:47:22.000Z</time>
      </trkpt>
      <trkpt lat="47.27388" lon="6.11729">
        <ele>313.53</ele>
        <time>2015-07-12T07:47:25.000Z</time>
      </trkpt>
      <trkpt lat="47.27376" lon="6.11718">
        <ele>313.53</ele>
        <time>2015-07-12T07:47:28.000Z</time>
      </trkpt>
      <trkpt lat="47.27368" lon="6.11711">
        <ele>314.01</ele>
        <time>2015-07-12T07:47:30.000Z</time>
      </trkpt>
      <trkpt lat="47.27361" lon="6.11703">
        <ele>314.01</ele>
        <time>2015-07-12T07:47:32.000Z</time>
      </trkpt>
      <trkpt lat="47.2735" lon="6.11692">
        <ele>314.01</ele>
        <time>2015-07-12T07:47:35.000Z</time>
      </trkpt>
      <trkpt lat="47.27342" lon="6.1168">
        <ele>314.01</ele>
        <time>2015-07-12T07:47:38.000Z</time>
      </trkpt>
      <trkpt lat="47.27334" lon="6.11669">
        <ele>314.49</ele>
        <time>2015-07-12T07:47:41.000Z</time>
      </trkpt>
      <trkpt lat="47.27327" lon="6.1166">
        <ele>314.49</ele>
        <time>2015-07-12T07:47:44.000Z</time>
      </trkpt>
      <trkpt lat="47.27318" lon="6.11649">
        <ele>314.49</ele>
        <time>2015-07-12T07:47:47.000Z</time>
      </trkpt>
      <trkpt lat="47.27309" lon="6.11639">
        <ele>314.49</ele>
        <time>2015-07-12T07:47:50.000Z</time>
      </trkpt>
      <trkpt lat="47.27299" lon="6.11629">
        <ele>314.49</ele>
        <time>2015-07-12T07:47:53.000Z</time>
      </trkpt>
      <trkpt lat="47.27289" lon="6.1162">
        <ele>314.49</ele>
        <time>2015-07-12T07:47:56.000Z</time>
      </trkpt>
      <trkpt lat="47.2728" lon="6.11612">
        <ele>315.45</ele>
        <time>2015-07-12T07:47:59.000Z</time>
      </trkpt>
      <trkpt lat="47.27271" lon="6.11604">
        <ele>315.45</ele>
        <time>2015-07-12T07:48:02.000Z</time>
      </trkpt>
      <trkpt lat="47.2726" lon="6.11594">
        <ele>314.97</ele>
        <time>2015-07-12T07:48:05.000Z</time>
      </trkpt>
      <trkpt lat="47.27252" lon="6.11585">
        <ele>314.49</ele>
        <time>2015-07-12T07:48:07.000Z</time>
      </trkpt>
      <trkpt lat="47.27243" lon="6.11574">
        <ele>314.01</ele>
        <time>2015-07-12T07:48:09.000Z</time>
      </trkpt>
      <trkpt lat="47.27233" lon="6.11564">
        <ele>314.49</ele>
        <time>2015-07-12T07:48:11.000Z</time>
      </trkpt>
      <trkpt lat="47.27222" lon="6.11555">
        <ele>314.01</ele>
        <time>2015-07-12T07:48:13.000Z</time>
      </trkpt>
      <trkpt lat="47.27212" lon="6.11547">
        <ele>314.01</ele>
        <time>2015-07-12T07:48:15.000Z</time>
      </trkpt>
      <trkpt lat="47.27202" lon="6.11537">
        <ele>314.49</ele>
        <time>2015-07-12T07:48:17.000Z</time>
      </trkpt>
      <trkpt lat="47.27193" lon="6.11528">
        <ele>314.01</ele>
        <time>2015-07-12T07:48:19.000Z</time>
      </trkpt>
      <trkpt lat="47.27183" lon="6.11519">
        <ele>314.01</ele>
        <time>2015-07-12T07:48:21.000Z</time>
      </trkpt>
      <trkpt lat="47.27173" lon="6.1151">
        <ele>314.49</ele>
        <time>2015-07-12T07:48:23.000Z</time>
      </trkpt>
      <trkpt lat="47.27164" lon="6.115">
        <ele>314.01</ele>
        <time>2015-07-12T07:48:25.000Z</time>
      </trkpt>
      <trkpt lat="47.27154" lon="6.1149">
        <ele>314.49</ele>
        <time>2015-07-12T07:48:27.000Z</time>
      </trkpt>
      <trkpt lat="47.27145" lon="6.1148">
        <ele>314.49</ele>
        <time>2015-07-12T07:48:29.000Z</time>
      </trkpt>
      <trkpt lat="47.27135" lon="6.1147">
        <ele>314.01</ele>
        <time>2015-07-12T07:48:31.000Z</time>
      </trkpt>
      <trkpt lat="47.27126" lon="6.11459">
        <ele>314.01</ele>
        <time>2015-07-12T07:48:33.000Z</time>
      </trkpt>
      <trkpt lat="47.27117" lon="6.11449">
        <ele>312.57</ele>
        <time>2015-07-12T07:48:35.000Z</time>
      </trkpt>
      <trkpt lat="47.27108" lon="6.11439">
        <ele>313.53</ele>
        <time>2015-07-12T07:48:37.000Z</time>
      </trkpt>
      <trkpt lat="47.27098" lon="6.11427">
        <ele>313.05</ele>
        <time>2015-07-12T07:48:39.000Z</time>
      </trkpt>
      <trkpt lat="47.2709" lon="6.11414">
        <ele>313.53</ele>
        <time>2015-07-12T07:48:41.000Z</time>
      </trkpt>
      <trkpt lat="47.27082" lon="6.11402">
        <ele>313.53</ele>
        <time>2015-07-12T07:48:43.000Z</time>
      </trkpt>
      <trkpt lat="47.27073" lon="6.11389">
        <ele>313.05</ele>
        <time>2015-07-12T07:48:45.000Z</time>
      </trkpt>
      <trkpt lat="47.27065" lon="6.11376">
        <ele>312.57</ele>
        <time>2015-07-12T07:48:47.000Z</time>
      </trkpt>
      <trkpt lat="47.27057" lon="6.11362">
        <ele>312.57</ele>
        <time>2015-07-12T07:48:49.000Z</time>
      </trkpt>
      <trkpt lat="47.2705" lon="6.11349">
        <ele>314.01</ele>
        <time>2015-07-12T07:48:51.000Z</time>
      </trkpt>
      <trkpt lat="47.27042" lon="6.11335">
        <ele>314.01</ele>
        <time>2015-07-12T07:48:53.000Z</time>
      </trkpt>
      <trkpt lat="47.27035" lon="6.11322">
        <ele>314.01</ele>
        <time>2015-07-12T07:48:55.000Z</time>
      </trkpt>
      <trkpt lat="47.27028" lon="6.11308">
        <ele>314.01</ele>
        <time>2015-07-12T07:48:57.000Z</time>
      </trkpt>
      <trkpt lat="47.27021" lon="6.11294">
        <ele>314.01</ele>
        <time>2015-07-12T07:48:59.000Z</time>
      </trkpt>
      <trkpt lat="47.27015" lon="6.11279">
        <ele>314.01</ele>
        <time>2015-07-12T07:49:01.000Z</time>
      </trkpt>
      <trkpt lat="47.27008" lon="6.11265">
        <ele>313.53</ele>
        <time>2015-07-12T07:49:03.000Z</time>
      </trkpt>
      <trkpt lat="47.27002" lon="6.1125">
        <ele>314.01</ele>
        <time>2015-07-12T07:49:05.000Z</time>
      </trkpt>
      <trkpt lat="47.26996" lon="6.11235">
        <ele>314.49</ele>
        <time>2015-07-12T07:49:07.000Z</time>
      </trkpt>
      <trkpt lat="47.26991" lon="6.11221">
        <ele>314.01</ele>
        <time>2015-07-12T07:49:09.000Z</time>
      </trkpt>
      <trkpt lat="47.26985" lon="6.11206">
        <ele>314.01</ele>
        <time>2015-07-12T07:49:11.000Z</time>
      </trkpt>
      <trkpt lat="47.26979" lon="6.1119">
        <ele>314.01</ele>
        <time>2015-07-12T07:49:13.000Z</time>
      </trkpt>
      <trkpt lat="47.26974" lon="6.11176">
        <ele>314.01</ele>
        <time>2015-07-12T07:49:15.000Z</time>
      </trkpt>
      <trkpt lat="47.26969" lon="6.1116">
        <ele>314.01</ele>
        <time>2015-07-12T07:49:17.000Z</time>
      </trkpt>
      <trkpt lat="47.26965" lon="6.11144">
        <ele>314.01</ele>
        <time>2015-07-12T07:49:19.000Z</time>
      </trkpt>
      <trkpt lat="47.2696" lon="6.1113">
        <ele>314.01</ele>
        <time>2015-07-12T07:49:21.000Z</time>
      </trkpt>
      <trkpt lat="47.26955" lon="6.11114">
        <ele>314.01</ele>
        <time>2015-07-12T07:49:23.000Z</time>
      </trkpt>
      <trkpt lat="47.26952" lon="6.11098">
        <ele>314.01</ele>
        <time>2015-07-12T07:49:25.000Z</time>
      </trkpt>
      <trkpt lat="47.26947" lon="6.11082">
        <ele>314.01</ele>
        <time>2015-07-12T07:49:27.000Z</time>
      </trkpt>
      <trkpt lat="47.26943" lon="6.11067">
        <ele>313.53</ele>
        <time>2015-07-12T07:49:29.000Z</time>
      </trkpt>
      <trkpt lat="47.26939" lon="6.11051">
        <ele>313.53</ele>
        <time>2015-07-12T07:49:31.000Z</time>
      </trkpt>
      <trkpt lat="47.26936" lon="6.11034">
        <ele>313.05</ele>
        <time>2015-07-12T07:49:33.000Z</time>
      </trkpt>
      <trkpt lat="47.26933" lon="6.11017">
        <ele>313.05</ele>
        <time>2015-07-12T07:49:35.000Z</time>
      </trkpt>
      <trkpt lat="47.26929" lon="6.11">
        <ele>313.53</ele>
        <time>2015-07-12T07:49:37.000Z</time>
      </trkpt>
      <trkpt lat="47.26927" lon="6.10983">
        <ele>313.05</ele>
        <time>2015-07-12T07:49:39.000Z</time>
      </trkpt>
      <trkpt lat="47.26924" lon="6.10966">
        <ele>313.53</ele>
        <time>2015-07-12T07:49:41.000Z</time>
      </trkpt>
      <trkpt lat="47.26922" lon="6.1095">
        <ele>313.53</ele>
        <time>2015-07-12T07:49:43.000Z</time>
      </trkpt>
      <trkpt lat="47.2692" lon="6.10934">
        <ele>313.53</ele>
        <time>2015-07-12T07:49:45.000Z</time>
      </trkpt>
      <trkpt lat="47.26917" lon="6.10917">
        <ele>313.53</ele>
        <time>2015-07-12T07:49:47.000Z</time>
      </trkpt>
      <trkpt lat="47.26915" lon="6.109">
        <ele>313.53</ele>
        <time>2015-07-12T07:49:49.000Z</time>
      </trkpt>
      <trkpt lat="47.26913" lon="6.10883">
        <ele>314.01</ele>
        <time>2015-07-12T07:49:51.000Z</time>
      </trkpt>
      <trkpt lat="47.26912" lon="6.10867">
        <ele>313.53</ele>
        <time>2015-07-12T07:49:53.000Z</time>
      </trkpt>
      <trkpt lat="47.2691" lon="6.10851">
        <ele>314.01</ele>
        <time>2015-07-12T07:49:55.000Z</time>
      </trkpt>
      <trkpt lat="47.26908" lon="6.10835">
        <ele>313.53</ele>
        <time>2015-07-12T07:49:57.000Z</time>
      </trkpt>
      <trkpt lat="47.26907" lon="6.1082">
        <ele>313.53</ele>
        <time>2015-07-12T07:49:59.000Z</time>
      </trkpt>
      <trkpt lat="47.26906" lon="6.10806">
        <ele>313.53</ele>
        <time>2015-07-12T07:50:01.000Z</time>
      </trkpt>
      <trkpt lat="47.26905" lon="6.10789">
        <ele>313.05</ele>
        <time>2015-07-12T07:50:04.000Z</time>
      </trkpt>
      <trkpt lat="47.26905" lon="6.10777">
        <ele>313.53</ele>
        <time>2015-07-12T07:54:35.000Z</time>
      </trkpt>
      <trkpt lat="47.26904" lon="6.10759">
        <ele>313.53</ele>
        <time>2015-07-12T07:55:04.000Z</time>
      </trkpt>
      <trkpt lat="47.26904" lon="6.10746">
        <ele>313.53</ele>
        <time>2015-07-12T07:55:07.000Z</time>
      </trkpt>
      <trkpt lat="47.26903" lon="6.10729">
        <ele>314.01</ele>
        <time>2015-07-12T07:55:10.000Z</time>
      </trkpt>
      <trkpt lat="47.26903" lon="6.10711">
        <ele>314.01</ele>
        <time>2015-07-12T07:55:13.000Z</time>
      </trkpt>
      <trkpt lat="47.26902" lon="6.10692">
        <ele>314.01</ele>
        <time>2015-07-12T07:55:16.000Z</time>
      </trkpt>
      <trkpt lat="47.26902" lon="6.10671">
        <ele>313.53</ele>
        <time>2015-07-12T07:55:19.000Z</time>
      </trkpt>
      <trkpt lat="47.26902" lon="6.10657">
        <ele>314.01</ele>
        <time>2015-07-12T07:55:21.000Z</time>
      </trkpt>
      <trkpt lat="47.26901" lon="6.10642">
        <ele>314.01</ele>
        <time>2015-07-12T07:55:23.000Z</time>
      </trkpt>
      <trkpt lat="47.26901" lon="6.10628">
        <ele>313.53</ele>
        <time>2015-07-12T07:55:25.000Z</time>
      </trkpt>
      <trkpt lat="47.26902" lon="6.10614">
        <ele>314.01</ele>
        <time>2015-07-12T07:55:27.000Z</time>
      </trkpt>
      <trkpt lat="47.26902" lon="6.10599">
        <ele>313.53</ele>
        <time>2015-07-12T07:55:29.000Z</time>
      </trkpt>
      <trkpt lat="47.26902" lon="6.10584">
        <ele>313.53</ele>
        <time>2015-07-12T07:55:31.000Z</time>
      </trkpt>
      <trkpt lat="47.26903" lon="6.10569">
        <ele>314.01</ele>
        <time>2015-07-12T07:55:33.000Z</time>
      </trkpt>
      <trkpt lat="47.26904" lon="6.10554">
        <ele>314.01</ele>
        <time>2015-07-12T07:55:35.000Z</time>
      </trkpt>
      <trkpt lat="47.26905" lon="6.10539">
        <ele>314.01</ele>
        <time>2015-07-12T07:55:37.000Z</time>
      </trkpt>
      <trkpt lat="47.26905" lon="6.10525">
        <ele>314.01</ele>
        <time>2015-07-12T07:55:39.000Z</time>
      </trkpt>
      <trkpt lat="47.26907" lon="6.1051">
        <ele>314.01</ele>
        <time>2015-07-12T07:55:41.000Z</time>
      </trkpt>
      <trkpt lat="47.26908" lon="6.10495">
        <ele>313.53</ele>
        <time>2015-07-12T07:55:43.000Z</time>
      </trkpt>
      <trkpt lat="47.26909" lon="6.1048">
        <ele>313.53</ele>
        <time>2015-07-12T07:55:45.000Z</time>
      </trkpt>
      <trkpt lat="47.2691" lon="6.10464">
        <ele>313.53</ele>
        <time>2015-07-12T07:55:47.000Z</time>
      </trkpt>
      <trkpt lat="47.26912" lon="6.10448">
        <ele>313.53</ele>
        <time>2015-07-12T07:55:49.000Z</time>
      </trkpt>
      <trkpt lat="47.26914" lon="6.10432">
        <ele>313.53</ele>
        <time>2015-07-12T07:55:51.000Z</time>
      </trkpt>
      <trkpt lat="47.26917" lon="6.10416">
        <ele>313.53</ele>
        <time>2015-07-12T07:55:53.000Z</time>
      </trkpt>
      <trkpt lat="47.26919" lon="6.10399">
        <ele>314.01</ele>
        <time>2015-07-12T07:55:55.000Z</time>
      </trkpt>
      <trkpt lat="47.26921" lon="6.10384">
        <ele>313.53</ele>
        <time>2015-07-12T07:55:57.000Z</time>
      </trkpt>
      <trkpt lat="47.26924" lon="6.10368">
        <ele>313.53</ele>
        <time>2015-07-12T07:55:59.000Z</time>
      </trkpt>
      <trkpt lat="47.26926" lon="6.10352">
        <ele>313.53</ele>
        <time>2015-07-12T07:56:01.000Z</time>
      </trkpt>
      <trkpt lat="47.26929" lon="6.10336">
        <ele>313.53</ele>
        <time>2015-07-12T07:56:03.000Z</time>
      </trkpt>
      <trkpt lat="47.26932" lon="6.10321">
        <ele>313.53</ele>
        <time>2015-07-12T07:56:05.000Z</time>
      </trkpt>
      <trkpt lat="47.26934" lon="6.10305">
        <ele>313.53</ele>
        <time>2015-07-12T07:56:07.000Z</time>
      </trkpt>
      <trkpt lat="47.26937" lon="6.10289">
        <ele>313.53</ele>
        <time>2015-07-12T07:56:09.000Z</time>
      </trkpt>
      <trkpt lat="47.2694" lon="6.10274">
        <ele>314.01</ele>
        <time>2015-07-12T07:56:11.000Z</time>
      </trkpt>
      <trkpt lat="47.26942" lon="6.10258">
        <ele>314.01</ele>
        <time>2015-07-12T07:56:13.000Z</time>
      </trkpt>
      <trkpt lat="47.26945" lon="6.10243">
        <ele>313.53</ele>
        <time>2015-07-12T07:56:15.000Z</time>
      </trkpt>
      <trkpt lat="47.26948" lon="6.10227">
        <ele>314.01</ele>
        <time>2015-07-12T07:56:17.000Z</time>
      </trkpt>
      <trkpt lat="47.26951" lon="6.10213">
        <ele>314.01</ele>
        <time>2015-07-12T07:56:19.000Z</time>
      </trkpt>
      <trkpt lat="47.26953" lon="6.10198">
        <ele>314.01</ele>
        <time>2015-07-12T07:56:21.000Z</time>
      </trkpt>
      <trkpt lat="47.26955" lon="6.10183">
        <ele>314.49</ele>
        <time>2015-07-12T07:56:23.000Z</time>
      </trkpt>
      <trkpt lat="47.26959" lon="6.10167">
        <ele>313.53</ele>
        <time>2015-07-12T07:56:25.000Z</time>
      </trkpt>
      <trkpt lat="47.26962" lon="6.10151">
        <ele>314.01</ele>
        <time>2015-07-12T07:56:27.000Z</time>
      </trkpt>
      <trkpt lat="47.26965" lon="6.10135">
        <ele>314.01</ele>
        <time>2015-07-12T07:56:29.000Z</time>
      </trkpt>
      <trkpt lat="47.26967" lon="6.1012">
        <ele>314.01</ele>
        <time>2015-07-12T07:56:31.000Z</time>
      </trkpt>
      <trkpt lat="47.2697" lon="6.10104">
        <ele>314.01</ele>
        <time>2015-07-12T07:56:33.000Z</time>
      </trkpt>
      <trkpt lat="47.26973" lon="6.10088">
        <ele>314.01</ele>
        <time>2015-07-12T07:56:35.000Z</time>
      </trkpt>
      <trkpt lat="47.26975" lon="6.10072">
        <ele>314.01</ele>
        <time>2015-07-12T07:56:37.000Z</time>
      </trkpt>
      <trkpt lat="47.26978" lon="6.10057">
        <ele>314.01</ele>
        <time>2015-07-12T07:56:39.000Z</time>
      </trkpt>
      <trkpt lat="47.2698" lon="6.10041">
        <ele>313.53</ele>
        <time>2015-07-12T07:56:41.000Z</time>
      </trkpt>
      <trkpt lat="47.26983" lon="6.10024">
        <ele>313.53</ele>
        <time>2015-07-12T07:56:43.000Z</time>
      </trkpt>
      <trkpt lat="47.26985" lon="6.10007">
        <ele>314.01</ele>
        <time>2015-07-12T07:56:45.000Z</time>
      </trkpt>
      <trkpt lat="47.26987" lon="6.09991">
        <ele>313.53</ele>
        <time>2015-07-12T07:56:47.000Z</time>
      </trkpt>
      <trkpt lat="47.26989" lon="6.09975">
        <ele>314.01</ele>
        <time>2015-07-12T07:56:49.000Z</time>
      </trkpt>
      <trkpt lat="47.2699" lon="6.0996">
        <ele>314.01</ele>
        <time>2015-07-12T07:56:51.000Z</time>
      </trkpt>
      <trkpt lat="47.26991" lon="6.09944">
        <ele>314.01</ele>
        <time>2015-07-12T07:56:53.000Z</time>
      </trkpt>
      <trkpt lat="47.26992" lon="6.09928">
        <ele>314.01</ele>
        <time>2015-07-12T07:56:55.000Z</time>
      </trkpt>
      <trkpt lat="47.26992" lon="6.09911">
        <ele>314.01</ele>
        <time>2015-07-12T07:56:57.000Z</time>
      </trkpt>
      <trkpt lat="47.26992" lon="6.09896">
        <ele>314.01</ele>
        <time>2015-07-12T07:56:59.000Z</time>
      </trkpt>
      <trkpt lat="47.26992" lon="6.09881">
        <ele>314.49</ele>
        <time>2015-07-12T07:57:01.000Z</time>
      </trkpt>
      <trkpt lat="47.26992" lon="6.09865">
        <ele>314.49</ele>
        <time>2015-07-12T07:57:03.000Z</time>
      </trkpt>
      <trkpt lat="47.26991" lon="6.09849">
        <ele>314.01</ele>
        <time>2015-07-12T07:57:05.000Z</time>
      </trkpt>
      <trkpt lat="47.26991" lon="6.09834">
        <ele>314.01</ele>
        <time>2015-07-12T07:57:07.000Z</time>
      </trkpt>
      <trkpt lat="47.26991" lon="6.09818">
        <ele>313.53</ele>
        <time>2015-07-12T07:57:09.000Z</time>
      </trkpt>
      <trkpt lat="47.26989" lon="6.09802">
        <ele>313.53</ele>
        <time>2015-07-12T07:57:11.000Z</time>
      </trkpt>
      <trkpt lat="47.26988" lon="6.09786">
        <ele>314.01</ele>
        <time>2015-07-12T07:57:13.000Z</time>
      </trkpt>
      <trkpt lat="47.26988" lon="6.09769">
        <ele>314.01</ele>
        <time>2015-07-12T07:57:15.000Z</time>
      </trkpt>
      <trkpt lat="47.26987" lon="6.09751">
        <ele>313.53</ele>
        <time>2015-07-12T07:57:17.000Z</time>
      </trkpt>
      <trkpt lat="47.26986" lon="6.09734">
        <ele>313.53</ele>
        <time>2015-07-12T07:57:19.000Z</time>
      </trkpt>
      <trkpt lat="47.26985" lon="6.09717">
        <ele>313.53</ele>
        <time>2015-07-12T07:57:21.000Z</time>
      </trkpt>
      <trkpt lat="47.26984" lon="6.09701">
        <ele>314.01</ele>
        <time>2015-07-12T07:57:23.000Z</time>
      </trkpt>
      <trkpt lat="47.26982" lon="6.09684">
        <ele>313.53</ele>
        <time>2015-07-12T07:57:25.000Z</time>
      </trkpt>
      <trkpt lat="47.26982" lon="6.09668">
        <ele>313.53</ele>
        <time>2015-07-12T07:57:27.000Z</time>
      </trkpt>
      <trkpt lat="47.26982" lon="6.09652">
        <ele>314.01</ele>
        <time>2015-07-12T07:57:29.000Z</time>
      </trkpt>
      <trkpt lat="47.26981" lon="6.09635">
        <ele>313.53</ele>
        <time>2015-07-12T07:57:31.000Z</time>
      </trkpt>
      <trkpt lat="47.26981" lon="6.09618">
        <ele>313.53</ele>
        <time>2015-07-12T07:57:33.000Z</time>
      </trkpt>
      <trkpt lat="47.26981" lon="6.09602">
        <ele>313.53</ele>
        <time>2015-07-12T07:57:35.000Z</time>
      </trkpt>
      <trkpt lat="47.26981" lon="6.09586">
        <ele>313.53</ele>
        <time>2015-07-12T07:57:37.000Z</time>
      </trkpt>
      <trkpt lat="47.26981" lon="6.09569">
        <ele>314.01</ele>
        <time>2015-07-12T07:57:39.000Z</time>
      </trkpt>
      <trkpt lat="47.26982" lon="6.09553">
        <ele>314.01</ele>
        <time>2015-07-12T07:57:41.000Z</time>
      </trkpt>
      <trkpt lat="47.26982" lon="6.09537">
        <ele>313.53</ele>
        <time>2015-07-12T07:57:43.000Z</time>
      </trkpt>
      <trkpt lat="47.26982" lon="6.09521">
        <ele>313.53</ele>
        <time>2015-07-12T07:57:45.000Z</time>
      </trkpt>
      <trkpt lat="47.26983" lon="6.09506">
        <ele>313.53</ele>
        <time>2015-07-12T07:57:47.000Z</time>
      </trkpt>
      <trkpt lat="47.26984" lon="6.0949">
        <ele>313.53</ele>
        <time>2015-07-12T07:57:49.000Z</time>
      </trkpt>
      <trkpt lat="47.26985" lon="6.09474">
        <ele>313.53</ele>
        <time>2015-07-12T07:57:51.000Z</time>
      </trkpt>
      <trkpt lat="47.26986" lon="6.09458">
        <ele>313.53</ele>
        <time>2015-07-12T07:57:53.000Z</time>
      </trkpt>
      <trkpt lat="47.26987" lon="6.09442">
        <ele>313.53</ele>
        <time>2015-07-12T07:57:55.000Z</time>
      </trkpt>
      <trkpt lat="47.26988" lon="6.09425">
        <ele>314.01</ele>
        <time>2015-07-12T07:57:57.000Z</time>
      </trkpt>
      <trkpt lat="47.2699" lon="6.09409">
        <ele>313.53</ele>
        <time>2015-07-12T07:57:59.000Z</time>
      </trkpt>
      <trkpt lat="47.26992" lon="6.09393">
        <ele>313.53</ele>
        <time>2015-07-12T07:58:01.000Z</time>
      </trkpt>
      <trkpt lat="47.26994" lon="6.09377">
        <ele>313.05</ele>
        <time>2015-07-12T07:58:03.000Z</time>
      </trkpt>
      <trkpt lat="47.26996" lon="6.09361">
        <ele>313.53</ele>
        <time>2015-07-12T07:58:05.000Z</time>
      </trkpt>
      <trkpt lat="47.26998" lon="6.09345">
        <ele>313.05</ele>
        <time>2015-07-12T07:58:07.000Z</time>
      </trkpt>
      <trkpt lat="47.27" lon="6.0933">
        <ele>313.53</ele>
        <time>2015-07-12T07:58:09.000Z</time>
      </trkpt>
      <trkpt lat="47.27002" lon="6.09314">
        <ele>313.05</ele>
        <time>2015-07-12T07:58:11.000Z</time>
      </trkpt>
      <trkpt lat="47.27004" lon="6.09298">
        <ele>313.53</ele>
        <time>2015-07-12T07:58:13.000Z</time>
      </trkpt>
      <trkpt lat="47.27007" lon="6.09282">
        <ele>313.05</ele>
        <time>2015-07-12T07:58:15.000Z</time>
      </trkpt>
      <trkpt lat="47.27009" lon="6.09265">
        <ele>313.05</ele>
        <time>2015-07-12T07:58:17.000Z</time>
      </trkpt>
      <trkpt lat="47.27011" lon="6.09249">
        <ele>313.05</ele>
        <time>2015-07-12T07:58:19.000Z</time>
      </trkpt>
      <trkpt lat="47.27013" lon="6.09233">
        <ele>313.53</ele>
        <time>2015-07-12T07:58:21.000Z</time>
      </trkpt>
      <trkpt lat="47.27016" lon="6.09217">
        <ele>313.53</ele>
        <time>2015-07-12T07:58:23.000Z</time>
      </trkpt>
      <trkpt lat="47.27018" lon="6.09202">
        <ele>313.53</ele>
        <time>2015-07-12T07:58:25.000Z</time>
      </trkpt>
      <trkpt lat="47.27021" lon="6.09187">
        <ele>313.05</ele>
        <time>2015-07-12T07:58:27.000Z</time>
      </trkpt>
      <trkpt lat="47.27023" lon="6.09172">
        <ele>313.53</ele>
        <time>2015-07-12T07:58:29.000Z</time>
      </trkpt>
      <trkpt lat="47.27026" lon="6.09156">
        <ele>313.53</ele>
        <time>2015-07-12T07:58:31.000Z</time>
      </trkpt>
      <trkpt lat="47.27028" lon="6.09141">
        <ele>313.53</ele>
        <time>2015-07-12T07:58:33.000Z</time>
      </trkpt>
      <trkpt lat="47.27031" lon="6.09126">
        <ele>314.01</ele>
        <time>2015-07-12T07:58:35.000Z</time>
      </trkpt>
      <trkpt lat="47.27033" lon="6.09109">
        <ele>313.53</ele>
        <time>2015-07-12T07:58:37.000Z</time>
      </trkpt>
      <trkpt lat="47.27035" lon="6.09093">
        <ele>313.53</ele>
        <time>2015-07-12T07:58:39.000Z</time>
      </trkpt>
      <trkpt lat="47.27038" lon="6.09077">
        <ele>313.53</ele>
        <time>2015-07-12T07:58:41.000Z</time>
      </trkpt>
      <trkpt lat="47.2704" lon="6.09059">
        <ele>313.05</ele>
        <time>2015-07-12T07:58:43.000Z</time>
      </trkpt>
      <trkpt lat="47.27042" lon="6.09043">
        <ele>313.53</ele>
        <time>2015-07-12T07:58:45.000Z</time>
      </trkpt>
      <trkpt lat="47.27045" lon="6.09027">
        <ele>313.53</ele>
        <time>2015-07-12T07:58:47.000Z</time>
      </trkpt>
      <trkpt lat="47.27047" lon="6.09011">
        <ele>313.53</ele>
        <time>2015-07-12T07:58:49.000Z</time>
      </trkpt>
      <trkpt lat="47.2705" lon="6.08995">
        <ele>313.53</ele>
        <time>2015-07-12T07:58:51.000Z</time>
      </trkpt>
      <trkpt lat="47.27052" lon="6.0898">
        <ele>313.53</ele>
        <time>2015-07-12T07:58:53.000Z</time>
      </trkpt>
      <trkpt lat="47.27054" lon="6.08964">
        <ele>313.05</ele>
        <time>2015-07-12T07:58:55.000Z</time>
      </trkpt>
      <trkpt lat="47.27057" lon="6.08949">
        <ele>313.05</ele>
        <time>2015-07-12T07:58:57.000Z</time>
      </trkpt>
      <trkpt lat="47.27059" lon="6.08934">
        <ele>313.05</ele>
        <time>2015-07-12T07:58:59.000Z</time>
      </trkpt>
      <trkpt lat="47.27062" lon="6.08919">
        <ele>313.53</ele>
        <time>2015-07-12T07:59:01.000Z</time>
      </trkpt>
      <trkpt lat="47.27064" lon="6.08904">
        <ele>313.53</ele>
        <time>2015-07-12T07:59:03.000Z</time>
      </trkpt>
      <trkpt lat="47.27066" lon="6.08889">
        <ele>313.53</ele>
        <time>2015-07-12T07:59:05.000Z</time>
      </trkpt>
      <trkpt lat="47.27068" lon="6.08874">
        <ele>314.01</ele>
        <time>2015-07-12T07:59:07.000Z</time>
      </trkpt>
      <trkpt lat="47.2707" lon="6.0886">
        <ele>314.01</ele>
        <time>2015-07-12T07:59:09.000Z</time>
      </trkpt>
      <trkpt lat="47.27073" lon="6.08846">
        <ele>314.01</ele>
        <time>2015-07-12T07:59:11.000Z</time>
      </trkpt>
      <trkpt lat="47.27074" lon="6.08831">
        <ele>314.01</ele>
        <time>2015-07-12T07:59:13.000Z</time>
      </trkpt>
      <trkpt lat="47.27077" lon="6.08815">
        <ele>314.01</ele>
        <time>2015-07-12T07:59:15.000Z</time>
      </trkpt>
      <trkpt lat="47.27079" lon="6.088">
        <ele>314.01</ele>
        <time>2015-07-12T07:59:17.000Z</time>
      </trkpt>
      <trkpt lat="47.27081" lon="6.08784">
        <ele>314.01</ele>
        <time>2015-07-12T07:59:19.000Z</time>
      </trkpt>
      <trkpt lat="47.27084" lon="6.08767">
        <ele>313.53</ele>
        <time>2015-07-12T07:59:21.000Z</time>
      </trkpt>
      <trkpt lat="47.27086" lon="6.08751">
        <ele>313.53</ele>
        <time>2015-07-12T07:59:23.000Z</time>
      </trkpt>
      <trkpt lat="47.27087" lon="6.08735">
        <ele>313.53</ele>
        <time>2015-07-12T07:59:25.000Z</time>
      </trkpt>
      <trkpt lat="47.27089" lon="6.08718">
        <ele>314.01</ele>
        <time>2015-07-12T07:59:27.000Z</time>
      </trkpt>
      <trkpt lat="47.2709" lon="6.08701">
        <ele>314.01</ele>
        <time>2015-07-12T07:59:29.000Z</time>
      </trkpt>
      <trkpt lat="47.2709" lon="6.08684">
        <ele>314.01</ele>
        <time>2015-07-12T07:59:31.000Z</time>
      </trkpt>
      <trkpt lat="47.27092" lon="6.08668">
        <ele>314.01</ele>
        <time>2015-07-12T07:59:33.000Z</time>
      </trkpt>
      <trkpt lat="47.27092" lon="6.08651">
        <ele>314.01</ele>
        <time>2015-07-12T07:59:35.000Z</time>
      </trkpt>
      <trkpt lat="47.27091" lon="6.08636">
        <ele>314.01</ele>
        <time>2015-07-12T07:59:37.000Z</time>
      </trkpt>
      <trkpt lat="47.27091" lon="6.08621">
        <ele>313.53</ele>
        <time>2015-07-12T07:59:39.000Z</time>
      </trkpt>
      <trkpt lat="47.27091" lon="6.08606">
        <ele>313.53</ele>
        <time>2015-07-12T07:59:41.000Z</time>
      </trkpt>
      <trkpt lat="47.2709" lon="6.08591">
        <ele>313.53</ele>
        <time>2015-07-12T07:59:43.000Z</time>
      </trkpt>
      <trkpt lat="47.2709" lon="6.08576">
        <ele>313.53</ele>
        <time>2015-07-12T07:59:45.000Z</time>
      </trkpt>
      <trkpt lat="47.27089" lon="6.08557">
        <ele>312.09</ele>
        <time>2015-07-12T07:59:48.000Z</time>
      </trkpt>
      <trkpt lat="47.27085" lon="6.0854">
        <ele>312.57</ele>
        <time>2015-07-12T07:59:51.000Z</time>
      </trkpt>
      <trkpt lat="47.27084" lon="6.08522">
        <ele>312.57</ele>
        <time>2015-07-12T07:59:54.000Z</time>
      </trkpt>
      <trkpt lat="47.27082" lon="6.08505">
        <ele>312.57</ele>
        <time>2015-07-12T07:59:57.000Z</time>
      </trkpt>
      <trkpt lat="47.27082" lon="6.08489">
        <ele>312.57</ele>
        <time>2015-07-12T08:00:01.000Z</time>
      </trkpt>
      <trkpt lat="47.27075" lon="6.08478">
        <ele>314.49</ele>
        <time>2015-07-12T08:00:06.000Z</time>
      </trkpt>
      <trkpt lat="47.27063" lon="6.08481">
        <ele>314.49</ele>
        <time>2015-07-12T08:00:10.000Z</time>
      </trkpt>
      <trkpt lat="47.27053" lon="6.08483">
        <ele>315.45</ele>
        <time>2015-07-12T08:00:13.000Z</time>
      </trkpt>
      <trkpt lat="47.27042" lon="6.08484">
        <ele>315.45</ele>
        <time>2015-07-12T08:00:16.000Z</time>
      </trkpt>
      <trkpt lat="47.27032" lon="6.08487">
        <ele>315.93</ele>
        <time>2015-07-12T08:00:19.000Z</time>
      </trkpt>
      <trkpt lat="47.27021" lon="6.08489">
        <ele>315.93</ele>
        <time>2015-07-12T08:00:22.000Z</time>
      </trkpt>
      <trkpt lat="47.2701" lon="6.08492">
        <ele>315.93</ele>
        <time>2015-07-12T08:00:25.000Z</time>
      </trkpt>
      <trkpt lat="47.26998" lon="6.08495">
        <ele>316.41</ele>
        <time>2015-07-12T08:00:28.000Z</time>
      </trkpt>
      <trkpt lat="47.26986" lon="6.08499">
        <ele>316.41</ele>
        <time>2015-07-12T08:00:31.000Z</time>
      </trkpt>
      <trkpt lat="47.26974" lon="6.08502">
        <ele>316.89</ele>
        <time>2015-07-12T08:00:34.000Z</time>
      </trkpt>
      <trkpt lat="47.26961" lon="6.08505">
        <ele>316.41</ele>
        <time>2015-07-12T08:00:37.000Z</time>
      </trkpt>
      <trkpt lat="47.26952" lon="6.08506">
        <ele>315.45</ele>
        <time>2015-07-12T08:00:39.000Z</time>
      </trkpt>
      <trkpt lat="47.26943" lon="6.08509">
        <ele>315.45</ele>
        <time>2015-07-12T08:00:41.000Z</time>
      </trkpt>
      <trkpt lat="47.26933" lon="6.08511">
        <ele>314.97</ele>
        <time>2015-07-12T08:00:43.000Z</time>
      </trkpt>
      <trkpt lat="47.26923" lon="6.08514">
        <ele>314.97</ele>
        <time>2015-07-12T08:00:45.000Z</time>
      </trkpt>
      <trkpt lat="47.26912" lon="6.08516">
        <ele>314.49</ele>
        <time>2015-07-12T08:00:47.000Z</time>
      </trkpt>
      <trkpt lat="47.26901" lon="6.08519">
        <ele>314.49</ele>
        <time>2015-07-12T08:00:49.000Z</time>
      </trkpt>
      <trkpt lat="47.2689" lon="6.08524">
        <ele>314.49</ele>
        <time>2015-07-12T08:00:51.000Z</time>
      </trkpt>
      <trkpt lat="47.2688" lon="6.08531">
        <ele>314.97</ele>
        <time>2015-07-12T08:00:53.000Z</time>
      </trkpt>
      <trkpt lat="47.2687" lon="6.08539">
        <ele>314.49</ele>
        <time>2015-07-12T08:00:55.000Z</time>
      </trkpt>
      <trkpt lat="47.26861" lon="6.0855">
        <ele>314.49</ele>
        <time>2015-07-12T08:00:57.000Z</time>
      </trkpt>
      <trkpt lat="47.26853" lon="6.08562">
        <ele>314.01</ele>
        <time>2015-07-12T08:00:59.000Z</time>
      </trkpt>
      <trkpt lat="47.26846" lon="6.08576">
        <ele>313.53</ele>
        <time>2015-07-12T08:01:01.000Z</time>
      </trkpt>
      <trkpt lat="47.26841" lon="6.08591">
        <ele>313.05</ele>
        <time>2015-07-12T08:01:03.000Z</time>
      </trkpt>
      <trkpt lat="47.26836" lon="6.08607">
        <ele>313.05</ele>
        <time>2015-07-12T08:01:05.000Z</time>
      </trkpt>
      <trkpt lat="47.26833" lon="6.08625">
        <ele>312.09</ele>
        <time>2015-07-12T08:01:08.000Z</time>
      </trkpt>
      <trkpt lat="47.26828" lon="6.08633">
        <ele>311.12</ele>
        <time>2015-07-12T08:01:14.000Z</time>
      </trkpt>
      <trkpt lat="47.26823" lon="6.08618">
        <ele>310.64</ele>
        <time>2015-07-12T08:01:19.000Z</time>
      </trkpt>
      <trkpt lat="47.2682" lon="6.08601">
        <ele>311.6</ele>
        <time>2015-07-12T08:01:23.000Z</time>
      </trkpt>
      <trkpt lat="47.26815" lon="6.08588">
        <ele>311.12</ele>
        <time>2015-07-12T08:01:26.000Z</time>
      </trkpt>
      <trkpt lat="47.26809" lon="6.08575">
        <ele>311.6</ele>
        <time>2015-07-12T08:01:29.000Z</time>
      </trkpt>
      <trkpt lat="47.26802" lon="6.08562">
        <ele>310.64</ele>
        <time>2015-07-12T08:01:32.000Z</time>
      </trkpt>
      <trkpt lat="47.26794" lon="6.08549">
        <ele>311.12</ele>
        <time>2015-07-12T08:01:35.000Z</time>
      </trkpt>
      <trkpt lat="47.26788" lon="6.08537">
        <ele>310.64</ele>
        <time>2015-07-12T08:01:38.000Z</time>
      </trkpt>
      <trkpt lat="47.26781" lon="6.08526">
        <ele>310.64</ele>
        <time>2015-07-12T08:01:42.000Z</time>
      </trkpt>
      <trkpt lat="47.26775" lon="6.08516">
        <ele>311.6</ele>
        <time>2015-07-12T08:01:46.000Z</time>
      </trkpt>
      <trkpt lat="47.26767" lon="6.08503">
        <ele>310.64</ele>
        <time>2015-07-12T08:02:15.000Z</time>
      </trkpt>
      <trkpt lat="47.2676" lon="6.08489">
        <ele>311.12</ele>
        <time>2015-07-12T08:02:19.000Z</time>
      </trkpt>
      <trkpt lat="47.26754" lon="6.08477">
        <ele>310.64</ele>
        <time>2015-07-12T08:02:22.000Z</time>
      </trkpt>
      <trkpt lat="47.26749" lon="6.08464">
        <ele>311.12</ele>
        <time>2015-07-12T08:02:25.000Z</time>
      </trkpt>
      <trkpt lat="47.26743" lon="6.08449">
        <ele>311.6</ele>
        <time>2015-07-12T08:02:28.000Z</time>
      </trkpt>
      <trkpt lat="47.26738" lon="6.08434">
        <ele>311.6</ele>
        <time>2015-07-12T08:02:31.000Z</time>
      </trkpt>
      <trkpt lat="47.26732" lon="6.08418">
        <ele>311.6</ele>
        <time>2015-07-12T08:02:34.000Z</time>
      </trkpt>
      <trkpt lat="47.26727" lon="6.08401">
        <ele>311.6</ele>
        <time>2015-07-12T08:02:37.000Z</time>
      </trkpt>
      <trkpt lat="47.26722" lon="6.08385">
        <ele>311.12</ele>
        <time>2015-07-12T08:02:40.000Z</time>
      </trkpt>
      <trkpt lat="47.26717" lon="6.08368">
        <ele>311.12</ele>
        <time>2015-07-12T08:02:43.000Z</time>
      </trkpt>
      <trkpt lat="47.26712" lon="6.08351">
        <ele>311.12</ele>
        <time>2015-07-12T08:02:46.000Z</time>
      </trkpt>
      <trkpt lat="47.26707" lon="6.08334">
        <ele>311.12</ele>
        <time>2015-07-12T08:02:49.000Z</time>
      </trkpt>
      <trkpt lat="47.26702" lon="6.08319">
        <ele>311.12</ele>
        <time>2015-07-12T08:02:52.000Z</time>
      </trkpt>
      <trkpt lat="47.26697" lon="6.08302">
        <ele>311.12</ele>
        <time>2015-07-12T08:02:55.000Z</time>
      </trkpt>
      <trkpt lat="47.26691" lon="6.08286">
        <ele>311.12</ele>
        <time>2015-07-12T08:02:58.000Z</time>
      </trkpt>
      <trkpt lat="47.26685" lon="6.0827">
        <ele>311.12</ele>
        <time>2015-07-12T08:03:01.000Z</time>
      </trkpt>
      <trkpt lat="47.26678" lon="6.08254">
        <ele>311.12</ele>
        <time>2015-07-12T08:03:04.000Z</time>
      </trkpt>
      <trkpt lat="47.26672" lon="6.08239">
        <ele>311.12</ele>
        <time>2015-07-12T08:03:07.000Z</time>
      </trkpt>
      <trkpt lat="47.26666" lon="6.08226">
        <ele>311.12</ele>
        <time>2015-07-12T08:03:10.000Z</time>
      </trkpt>
      <trkpt lat="47.26659" lon="6.08214">
        <ele>311.12</ele>
        <time>2015-07-12T08:03:13.000Z</time>
      </trkpt>
      <trkpt lat="47.26654" lon="6.08201">
        <ele>311.12</ele>
        <time>2015-07-12T08:03:16.000Z</time>
      </trkpt>
      <trkpt lat="47.26648" lon="6.08187">
        <ele>311.6</ele>
        <time>2015-07-12T08:03:19.000Z</time>
      </trkpt>
      <trkpt lat="47.26641" lon="6.08174">
        <ele>311.12</ele>
        <time>2015-07-12T08:03:22.000Z</time>
      </trkpt>
      <trkpt lat="47.26634" lon="6.08159">
        <ele>311.12</ele>
        <time>2015-07-12T08:03:25.000Z</time>
      </trkpt>
      <trkpt lat="47.26625" lon="6.08145">
        <ele>310.64</ele>
        <time>2015-07-12T08:03:28.000Z</time>
      </trkpt>
      <trkpt lat="47.26617" lon="6.08131">
        <ele>310.64</ele>
        <time>2015-07-12T08:03:31.000Z</time>
      </trkpt>
      <trkpt lat="47.2661" lon="6.08118">
        <ele>311.12</ele>
        <time>2015-07-12T08:03:34.000Z</time>
      </trkpt>
      <trkpt lat="47.26603" lon="6.08104">
        <ele>311.12</ele>
        <time>2015-07-12T08:03:37.000Z</time>
      </trkpt>
      <trkpt lat="47.26595" lon="6.08091">
        <ele>311.12</ele>
        <time>2015-07-12T08:03:40.000Z</time>
      </trkpt>
      <trkpt lat="47.26587" lon="6.08077">
        <ele>311.12</ele>
        <time>2015-07-12T08:03:43.000Z</time>
      </trkpt>
      <trkpt lat="47.2658" lon="6.08062">
        <ele>311.6</ele>
        <time>2015-07-12T08:03:46.000Z</time>
      </trkpt>
      <trkpt lat="47.26574" lon="6.08048">
        <ele>311.12</ele>
        <time>2015-07-12T08:03:49.000Z</time>
      </trkpt>
      <trkpt lat="47.26566" lon="6.08034">
        <ele>311.6</ele>
        <time>2015-07-12T08:03:52.000Z</time>
      </trkpt>
      <trkpt lat="47.26557" lon="6.08019">
        <ele>311.6</ele>
        <time>2015-07-12T08:03:55.000Z</time>
      </trkpt>
      <trkpt lat="47.2655" lon="6.0801">
        <ele>311.6</ele>
        <time>2015-07-12T08:03:57.000Z</time>
      </trkpt>
      <trkpt lat="47.26543" lon="6.08001">
        <ele>311.12</ele>
        <time>2015-07-12T08:03:59.000Z</time>
      </trkpt>
      <trkpt lat="47.26537" lon="6.07992">
        <ele>311.12</ele>
        <time>2015-07-12T08:04:01.000Z</time>
      </trkpt>
      <trkpt lat="47.26527" lon="6.07979">
        <ele>311.12</ele>
        <time>2015-07-12T08:04:04.000Z</time>
      </trkpt>
      <trkpt lat="47.26518" lon="6.07967">
        <ele>311.6</ele>
        <time>2015-07-12T08:04:07.000Z</time>
      </trkpt>
      <trkpt lat="47.26509" lon="6.07956">
        <ele>311.6</ele>
        <time>2015-07-12T08:04:10.000Z</time>
      </trkpt>
      <trkpt lat="47.265" lon="6.07943">
        <ele>311.6</ele>
        <time>2015-07-12T08:04:13.000Z</time>
      </trkpt>
      <trkpt lat="47.26493" lon="6.07934">
        <ele>311.6</ele>
        <time>2015-07-12T08:04:15.000Z</time>
      </trkpt>
      <trkpt lat="47.26485" lon="6.07924">
        <ele>311.6</ele>
        <time>2015-07-12T08:04:17.000Z</time>
      </trkpt>
      <trkpt lat="47.26479" lon="6.07916">
        <ele>311.12</ele>
        <time>2015-07-12T08:04:19.000Z</time>
      </trkpt>
      <trkpt lat="47.26469" lon="6.07904">
        <ele>311.12</ele>
        <time>2015-07-12T08:04:22.000Z</time>
      </trkpt>
      <trkpt lat="47.26459" lon="6.07894">
        <ele>311.6</ele>
        <time>2015-07-12T08:04:25.000Z</time>
      </trkpt>
      <trkpt lat="47.26449" lon="6.07884">
        <ele>311.6</ele>
        <time>2015-07-12T08:04:28.000Z</time>
      </trkpt>
      <trkpt lat="47.26439" lon="6.07874">
        <ele>311.6</ele>
        <time>2015-07-12T08:04:31.000Z</time>
      </trkpt>
      <trkpt lat="47.26428" lon="6.07863">
        <ele>311.12</ele>
        <time>2015-07-12T08:04:34.000Z</time>
      </trkpt>
      <trkpt lat="47.26418" lon="6.07854">
        <ele>311.12</ele>
        <time>2015-07-12T08:04:37.000Z</time>
      </trkpt>
      <trkpt lat="47.26408" lon="6.07845">
        <ele>311.6</ele>
        <time>2015-07-12T08:04:40.000Z</time>
      </trkpt>
      <trkpt lat="47.26398" lon="6.07837">
        <ele>311.12</ele>
        <time>2015-07-12T08:04:43.000Z</time>
      </trkpt>
      <trkpt lat="47.2639" lon="6.07829">
        <ele>311.12</ele>
        <time>2015-07-12T08:04:45.000Z</time>
      </trkpt>
      <trkpt lat="47.26382" lon="6.07822">
        <ele>311.12</ele>
        <time>2015-07-12T08:04:47.000Z</time>
      </trkpt>
      <trkpt lat="47.26375" lon="6.07815">
        <ele>311.12</ele>
        <time>2015-07-12T08:04:49.000Z</time>
      </trkpt>
      <trkpt lat="47.26365" lon="6.07805">
        <ele>310.64</ele>
        <time>2015-07-12T08:04:52.000Z</time>
      </trkpt>
      <trkpt lat="47.26356" lon="6.07797">
        <ele>311.12</ele>
        <time>2015-07-12T08:04:55.000Z</time>
      </trkpt>
      <trkpt lat="47.26345" lon="6.07788">
        <ele>311.12</ele>
        <time>2015-07-12T08:04:58.000Z</time>
      </trkpt>
      <trkpt lat="47.26336" lon="6.07779">
        <ele>311.12</ele>
        <time>2015-07-12T08:05:01.000Z</time>
      </trkpt>
      <trkpt lat="47.26324" lon="6.07772">
        <ele>311.12</ele>
        <time>2015-07-12T08:05:04.000Z</time>
      </trkpt>
      <trkpt lat="47.26311" lon="6.07764">
        <ele>310.64</ele>
        <time>2015-07-12T08:05:07.000Z</time>
      </trkpt>
      <trkpt lat="47.26303" lon="6.07759">
        <ele>310.64</ele>
        <time>2015-07-12T08:05:09.000Z</time>
      </trkpt>
      <trkpt lat="47.26295" lon="6.07753">
        <ele>311.12</ele>
        <time>2015-07-12T08:05:11.000Z</time>
      </trkpt>
      <trkpt lat="47.26287" lon="6.07748">
        <ele>310.64</ele>
        <time>2015-07-12T08:05:13.000Z</time>
      </trkpt>
      <trkpt lat="47.26275" lon="6.0774">
        <ele>310.64</ele>
        <time>2015-07-12T08:05:16.000Z</time>
      </trkpt>
      <trkpt lat="47.26263" lon="6.07732">
        <ele>310.64</ele>
        <time>2015-07-12T08:05:19.000Z</time>
      </trkpt>
      <trkpt lat="47.26252" lon="6.07725">
        <ele>311.12</ele>
        <time>2015-07-12T08:05:22.000Z</time>
      </trkpt>
      <trkpt lat="47.26241" lon="6.07719">
        <ele>311.6</ele>
        <time>2015-07-12T08:05:25.000Z</time>
      </trkpt>
      <trkpt lat="47.2623" lon="6.07712">
        <ele>311.6</ele>
        <time>2015-07-12T08:05:28.000Z</time>
      </trkpt>
      <trkpt lat="47.26218" lon="6.07704">
        <ele>311.6</ele>
        <time>2015-07-12T08:05:31.000Z</time>
      </trkpt>
      <trkpt lat="47.26207" lon="6.07697">
        <ele>311.6</ele>
        <time>2015-07-12T08:05:34.000Z</time>
      </trkpt>
      <trkpt lat="47.26196" lon="6.07691">
        <ele>311.6</ele>
        <time>2015-07-12T08:05:37.000Z</time>
      </trkpt>
      <trkpt lat="47.26183" lon="6.07685">
        <ele>311.6</ele>
        <time>2015-07-12T08:05:40.000Z</time>
      </trkpt>
      <trkpt lat="47.26172" lon="6.07679">
        <ele>311.12</ele>
        <time>2015-07-12T08:05:43.000Z</time>
      </trkpt>
      <trkpt lat="47.26163" lon="6.07674">
        <ele>311.12</ele>
        <time>2015-07-12T08:05:46.000Z</time>
      </trkpt>
      <trkpt lat="47.26152" lon="6.07669">
        <ele>311.12</ele>
        <time>2015-07-12T08:05:50.000Z</time>
      </trkpt>
      <trkpt lat="47.26144" lon="6.07665">
        <ele>311.12</ele>
        <time>2015-07-12T08:05:54.000Z</time>
      </trkpt>
      <trkpt lat="47.26138" lon="6.07678">
        <ele>310.64</ele>
        <time>2015-07-12T08:06:00.000Z</time>
      </trkpt>
      <trkpt lat="47.26134" lon="6.07692">
        <ele>310.16</ele>
        <time>2015-07-12T08:06:04.000Z</time>
      </trkpt>
      <trkpt lat="47.2613" lon="6.07708">
        <ele>310.16</ele>
        <time>2015-07-12T08:06:08.000Z</time>
      </trkpt>
      <trkpt lat="47.26125" lon="6.07722">
        <ele>310.16</ele>
        <time>2015-07-12T08:06:12.000Z</time>
      </trkpt>
      <trkpt lat="47.26122" lon="6.07735">
        <ele>310.64</ele>
        <time>2015-07-12T08:06:15.000Z</time>
      </trkpt>
      <trkpt lat="47.26119" lon="6.07749">
        <ele>310.64</ele>
        <time>2015-07-12T08:06:18.000Z</time>
      </trkpt>
      <trkpt lat="47.26115" lon="6.07763">
        <ele>310.64</ele>
        <time>2015-07-12T08:06:21.000Z</time>
      </trkpt>
      <trkpt lat="47.26112" lon="6.07776">
        <ele>310.64</ele>
        <time>2015-07-12T08:06:24.000Z</time>
      </trkpt>
      <trkpt lat="47.26109" lon="6.07791">
        <ele>310.16</ele>
        <time>2015-07-12T08:06:27.000Z</time>
      </trkpt>
      <trkpt lat="47.26105" lon="6.07805">
        <ele>310.64</ele>
        <time>2015-07-12T08:06:30.000Z</time>
      </trkpt>
      <trkpt lat="47.26101" lon="6.0782">
        <ele>310.64</ele>
        <time>2015-07-12T08:06:33.000Z</time>
      </trkpt>
      <trkpt lat="47.26098" lon="6.07835">
        <ele>309.2</ele>
        <time>2015-07-12T08:06:36.000Z</time>
      </trkpt>
      <trkpt lat="47.26094" lon="6.0785">
        <ele>309.2</ele>
        <time>2015-07-12T08:06:39.000Z</time>
      </trkpt>
      <trkpt lat="47.2609" lon="6.07865">
        <ele>310.16</ele>
        <time>2015-07-12T08:06:42.000Z</time>
      </trkpt>
      <trkpt lat="47.26086" lon="6.0788">
        <ele>309.68</ele>
        <time>2015-07-12T08:06:45.000Z</time>
      </trkpt>
      <trkpt lat="47.26082" lon="6.07895">
        <ele>309.68</ele>
        <time>2015-07-12T08:06:48.000Z</time>
      </trkpt>
      <trkpt lat="47.26078" lon="6.0791">
        <ele>310.16</ele>
        <time>2015-07-12T08:06:51.000Z</time>
      </trkpt>
      <trkpt lat="47.26073" lon="6.07925">
        <ele>310.16</ele>
        <time>2015-07-12T08:06:54.000Z</time>
      </trkpt>
      <trkpt lat="47.26068" lon="6.07939">
        <ele>310.64</ele>
        <time>2015-07-12T08:06:57.000Z</time>
      </trkpt>
      <trkpt lat="47.26063" lon="6.07951">
        <ele>310.64</ele>
        <time>2015-07-12T08:07:00.000Z</time>
      </trkpt>
      <trkpt lat="47.26058" lon="6.07965">
        <ele>310.16</ele>
        <time>2015-07-12T08:07:03.000Z</time>
      </trkpt>
      <trkpt lat="47.26053" lon="6.07978">
        <ele>310.16</ele>
        <time>2015-07-12T08:07:06.000Z</time>
      </trkpt>
      <trkpt lat="47.26047" lon="6.07991">
        <ele>310.64</ele>
        <time>2015-07-12T08:07:09.000Z</time>
      </trkpt>
      <trkpt lat="47.26042" lon="6.08005">
        <ele>310.16</ele>
        <time>2015-07-12T08:07:12.000Z</time>
      </trkpt>
      <trkpt lat="47.26038" lon="6.0802">
        <ele>310.16</ele>
        <time>2015-07-12T08:07:15.000Z</time>
      </trkpt>
      <trkpt lat="47.26034" lon="6.08032">
        <ele>310.64</ele>
        <time>2015-07-12T08:07:18.000Z</time>
      </trkpt>
      <trkpt lat="47.2603" lon="6.08045">
        <ele>310.16</ele>
        <time>2015-07-12T08:07:21.000Z</time>
      </trkpt>
      <trkpt lat="47.26025" lon="6.08059">
        <ele>310.16</ele>
        <time>2015-07-12T08:07:24.000Z</time>
      </trkpt>
      <trkpt lat="47.26022" lon="6.08073">
        <ele>310.16</ele>
        <time>2015-07-12T08:07:27.000Z</time>
      </trkpt>
      <trkpt lat="47.26018" lon="6.08085">
        <ele>310.16</ele>
        <time>2015-07-12T08:07:30.000Z</time>
      </trkpt>
      <trkpt lat="47.26014" lon="6.08098">
        <ele>310.64</ele>
        <time>2015-07-12T08:07:33.000Z</time>
      </trkpt>
      <trkpt lat="47.26011" lon="6.0811">
        <ele>310.64</ele>
        <time>2015-07-12T08:07:36.000Z</time>
      </trkpt>
      <trkpt lat="47.26007" lon="6.08123">
        <ele>310.16</ele>
        <time>2015-07-12T08:07:39.000Z</time>
      </trkpt>
      <trkpt lat="47.26002" lon="6.08135">
        <ele>310.16</ele>
        <time>2015-07-12T08:07:42.000Z</time>
      </trkpt>
      <trkpt lat="47.25996" lon="6.08147">
        <ele>310.16</ele>
        <time>2015-07-12T08:07:45.000Z</time>
      </trkpt>
      <trkpt lat="47.25992" lon="6.0816">
        <ele>310.16</ele>
        <time>2015-07-12T08:07:48.000Z</time>
      </trkpt>
      <trkpt lat="47.25986" lon="6.08171">
        <ele>310.16</ele>
        <time>2015-07-12T08:07:51.000Z</time>
      </trkpt>
      <trkpt lat="47.25982" lon="6.08183">
        <ele>310.16</ele>
        <time>2015-07-12T08:07:54.000Z</time>
      </trkpt>
      <trkpt lat="47.25975" lon="6.08197">
        <ele>310.64</ele>
        <time>2015-07-12T08:07:58.000Z</time>
      </trkpt>
      <trkpt lat="47.25969" lon="6.08209">
        <ele>310.16</ele>
        <time>2015-07-12T08:08:01.000Z</time>
      </trkpt>
      <trkpt lat="47.25962" lon="6.08222">
        <ele>309.68</ele>
        <time>2015-07-12T08:08:05.000Z</time>
      </trkpt>
      <trkpt lat="47.25956" lon="6.08231">
        <ele>310.16</ele>
        <time>2015-07-12T08:08:08.000Z</time>
      </trkpt>
      <trkpt lat="47.2595" lon="6.08241">
        <ele>310.16</ele>
        <time>2015-07-12T08:08:11.000Z</time>
      </trkpt>
      <trkpt lat="47.25941" lon="6.08252">
        <ele>310.16</ele>
        <time>2015-07-12T08:08:15.000Z</time>
      </trkpt>
      <trkpt lat="47.25933" lon="6.08261">
        <ele>310.64</ele>
        <time>2015-07-12T08:08:18.000Z</time>
      </trkpt>
      <trkpt lat="47.25926" lon="6.08272">
        <ele>310.16</ele>
        <time>2015-07-12T08:08:21.000Z</time>
      </trkpt>
      <trkpt lat="47.25919" lon="6.08283">
        <ele>309.68</ele>
        <time>2015-07-12T08:08:24.000Z</time>
      </trkpt>
      <trkpt lat="47.25911" lon="6.08294">
        <ele>310.16</ele>
        <time>2015-07-12T08:08:27.000Z</time>
      </trkpt>
      <trkpt lat="47.25903" lon="6.08305">
        <ele>309.68</ele>
        <time>2015-07-12T08:08:30.000Z</time>
      </trkpt>
      <trkpt lat="47.25896" lon="6.08316">
        <ele>310.16</ele>
        <time>2015-07-12T08:08:33.000Z</time>
      </trkpt>
      <trkpt lat="47.25888" lon="6.08326">
        <ele>309.68</ele>
        <time>2015-07-12T08:08:36.000Z</time>
      </trkpt>
      <trkpt lat="47.25879" lon="6.08335">
        <ele>309.68</ele>
        <time>2015-07-12T08:08:39.000Z</time>
      </trkpt>
      <trkpt lat="47.25872" lon="6.08345">
        <ele>309.68</ele>
        <time>2015-07-12T08:08:42.000Z</time>
      </trkpt>
      <trkpt lat="47.25864" lon="6.08353">
        <ele>309.68</ele>
        <time>2015-07-12T08:08:45.000Z</time>
      </trkpt>
      <trkpt lat="47.25855" lon="6.08359">
        <ele>310.16</ele>
        <time>2015-07-12T08:08:48.000Z</time>
      </trkpt>
      <trkpt lat="47.25846" lon="6.08364">
        <ele>310.16</ele>
        <time>2015-07-12T08:08:51.000Z</time>
      </trkpt>
      <trkpt lat="47.25837" lon="6.08366">
        <ele>310.16</ele>
        <time>2015-07-12T08:08:54.000Z</time>
      </trkpt>
      <trkpt lat="47.25824" lon="6.08367">
        <ele>309.68</ele>
        <time>2015-07-12T08:08:58.000Z</time>
      </trkpt>
      <trkpt lat="47.25814" lon="6.08367">
        <ele>310.16</ele>
        <time>2015-07-12T08:09:02.000Z</time>
      </trkpt>
      <trkpt lat="47.25803" lon="6.08367">
        <ele>310.64</ele>
        <time>2015-07-12T08:09:06.000Z</time>
      </trkpt>
      <trkpt lat="47.25792" lon="6.08365">
        <ele>311.6</ele>
        <time>2015-07-12T08:09:11.000Z</time>
      </trkpt>
      <trkpt lat="47.25782" lon="6.08365">
        <ele>312.09</ele>
        <time>2015-07-12T08:09:15.000Z</time>
      </trkpt>
      <trkpt lat="47.25772" lon="6.08358">
        <ele>312.09</ele>
        <time>2015-07-12T08:09:18.000Z</time>
      </trkpt>
      <trkpt lat="47.25763" lon="6.08351">
        <ele>312.09</ele>
        <time>2015-07-12T08:09:21.000Z</time>
      </trkpt>
      <trkpt lat="47.25751" lon="6.08345">
        <ele>311.6</ele>
        <time>2015-07-12T08:09:24.000Z</time>
      </trkpt>
      <trkpt lat="47.25739" lon="6.08338">
        <ele>312.09</ele>
        <time>2015-07-12T08:09:27.000Z</time>
      </trkpt>
      <trkpt lat="47.2573" lon="6.08333">
        <ele>311.6</ele>
        <time>2015-07-12T08:09:29.000Z</time>
      </trkpt>
      <trkpt lat="47.25721" lon="6.08328">
        <ele>311.6</ele>
        <time>2015-07-12T08:09:31.000Z</time>
      </trkpt>
      <trkpt lat="47.25712" lon="6.08322">
        <ele>311.6</ele>
        <time>2015-07-12T08:09:33.000Z</time>
      </trkpt>
      <trkpt lat="47.25703" lon="6.08317">
        <ele>311.6</ele>
        <time>2015-07-12T08:09:35.000Z</time>
      </trkpt>
      <trkpt lat="47.25693" lon="6.08311">
        <ele>312.09</ele>
        <time>2015-07-12T08:09:37.000Z</time>
      </trkpt>
      <trkpt lat="47.25683" lon="6.08305">
        <ele>312.09</ele>
        <time>2015-07-12T08:09:39.000Z</time>
      </trkpt>
      <trkpt lat="47.25673" lon="6.08298">
        <ele>312.09</ele>
        <time>2015-07-12T08:09:41.000Z</time>
      </trkpt>
      <trkpt lat="47.25663" lon="6.08291">
        <ele>311.6</ele>
        <time>2015-07-12T08:09:43.000Z</time>
      </trkpt>
      <trkpt lat="47.25653" lon="6.08285">
        <ele>311.6</ele>
        <time>2015-07-12T08:09:45.000Z</time>
      </trkpt>
      <trkpt lat="47.25642" lon="6.08279">
        <ele>312.09</ele>
        <time>2015-07-12T08:09:47.000Z</time>
      </trkpt>
      <trkpt lat="47.25632" lon="6.08272">
        <ele>311.6</ele>
        <time>2015-07-12T08:09:49.000Z</time>
      </trkpt>
      <trkpt lat="47.25621" lon="6.08266">
        <ele>311.6</ele>
        <time>2015-07-12T08:09:51.000Z</time>
      </trkpt>
      <trkpt lat="47.25611" lon="6.08259">
        <ele>311.6</ele>
        <time>2015-07-12T08:09:53.000Z</time>
      </trkpt>
      <trkpt lat="47.256" lon="6.08254">
        <ele>311.12</ele>
        <time>2015-07-12T08:09:55.000Z</time>
      </trkpt>
      <trkpt lat="47.2559" lon="6.08248">
        <ele>311.12</ele>
        <time>2015-07-12T08:09:57.000Z</time>
      </trkpt>
      <trkpt lat="47.25579" lon="6.08241">
        <ele>311.6</ele>
        <time>2015-07-12T08:09:59.000Z</time>
      </trkpt>
      <trkpt lat="47.25569" lon="6.08235">
        <ele>311.12</ele>
        <time>2015-07-12T08:10:01.000Z</time>
      </trkpt>
      <trkpt lat="47.25557" lon="6.08229">
        <ele>311.12</ele>
        <time>2015-07-12T08:10:03.000Z</time>
      </trkpt>
      <trkpt lat="47.25547" lon="6.08222">
        <ele>311.12</ele>
        <time>2015-07-12T08:10:05.000Z</time>
      </trkpt>
      <trkpt lat="47.25536" lon="6.08217">
        <ele>311.6</ele>
        <time>2015-07-12T08:10:07.000Z</time>
      </trkpt>
      <trkpt lat="47.25525" lon="6.08211">
        <ele>311.12</ele>
        <time>2015-07-12T08:10:09.000Z</time>
      </trkpt>
      <trkpt lat="47.25514" lon="6.08205">
        <ele>311.12</ele>
        <time>2015-07-12T08:10:11.000Z</time>
      </trkpt>
      <trkpt lat="47.25504" lon="6.08199">
        <ele>311.12</ele>
        <time>2015-07-12T08:10:13.000Z</time>
      </trkpt>
      <trkpt lat="47.25493" lon="6.08192">
        <ele>311.12</ele>
        <time>2015-07-12T08:10:15.000Z</time>
      </trkpt>
      <trkpt lat="47.25482" lon="6.08184">
        <ele>311.12</ele>
        <time>2015-07-12T08:10:17.000Z</time>
      </trkpt>
      <trkpt lat="47.25472" lon="6.08177">
        <ele>311.12</ele>
        <time>2015-07-12T08:10:19.000Z</time>
      </trkpt>
      <trkpt lat="47.25462" lon="6.08169">
        <ele>311.12</ele>
        <time>2015-07-12T08:10:21.000Z</time>
      </trkpt>
      <trkpt lat="47.25452" lon="6.0816">
        <ele>311.12</ele>
        <time>2015-07-12T08:10:23.000Z</time>
      </trkpt>
      <trkpt lat="47.25442" lon="6.08151">
        <ele>311.6</ele>
        <time>2015-07-12T08:10:25.000Z</time>
      </trkpt>
      <trkpt lat="47.25432" lon="6.08144">
        <ele>311.12</ele>
        <time>2015-07-12T08:10:27.000Z</time>
      </trkpt>
      <trkpt lat="47.25422" lon="6.08136">
        <ele>311.6</ele>
        <time>2015-07-12T08:10:29.000Z</time>
      </trkpt>
      <trkpt lat="47.25412" lon="6.0813">
        <ele>311.12</ele>
        <time>2015-07-12T08:10:31.000Z</time>
      </trkpt>
      <trkpt lat="47.25402" lon="6.08122">
        <ele>311.12</ele>
        <time>2015-07-12T08:10:33.000Z</time>
      </trkpt>
      <trkpt lat="47.25391" lon="6.08114">
        <ele>311.12</ele>
        <time>2015-07-12T08:10:35.000Z</time>
      </trkpt>
      <trkpt lat="47.25381" lon="6.08106">
        <ele>311.12</ele>
        <time>2015-07-12T08:10:37.000Z</time>
      </trkpt>
      <trkpt lat="47.25372" lon="6.08096">
        <ele>310.16</ele>
        <time>2015-07-12T08:10:39.000Z</time>
      </trkpt>
      <trkpt lat="47.25362" lon="6.08087">
        <ele>310.16</ele>
        <time>2015-07-12T08:10:41.000Z</time>
      </trkpt>
      <trkpt lat="47.25352" lon="6.08077">
        <ele>309.68</ele>
        <time>2015-07-12T08:10:43.000Z</time>
      </trkpt>
      <trkpt lat="47.25343" lon="6.08068">
        <ele>310.16</ele>
        <time>2015-07-12T08:10:45.000Z</time>
      </trkpt>
      <trkpt lat="47.25334" lon="6.08059">
        <ele>309.68</ele>
        <time>2015-07-12T08:10:47.000Z</time>
      </trkpt>
      <trkpt lat="47.25324" lon="6.0805">
        <ele>310.16</ele>
        <time>2015-07-12T08:10:49.000Z</time>
      </trkpt>
      <trkpt lat="47.25315" lon="6.0804">
        <ele>310.16</ele>
        <time>2015-07-12T08:10:51.000Z</time>
      </trkpt>
      <trkpt lat="47.25307" lon="6.08031">
        <ele>310.64</ele>
        <time>2015-07-12T08:10:53.000Z</time>
      </trkpt>
      <trkpt lat="47.25299" lon="6.08022">
        <ele>311.12</ele>
        <time>2015-07-12T08:10:55.000Z</time>
      </trkpt>
      <trkpt lat="47.25296" lon="6.08005">
        <ele>310.64</ele>
        <time>2015-07-12T08:10:58.000Z</time>
      </trkpt>
      <trkpt lat="47.25289" lon="6.07987">
        <ele>310.64</ele>
        <time>2015-07-12T08:11:01.000Z</time>
      </trkpt>
      <trkpt lat="47.25285" lon="6.07975">
        <ele>310.64</ele>
        <time>2015-07-12T08:11:03.000Z</time>
      </trkpt>
      <trkpt lat="47.2528" lon="6.07963">
        <ele>310.64</ele>
        <time>2015-07-12T08:11:05.000Z</time>
      </trkpt>
      <trkpt lat="47.25276" lon="6.07951">
        <ele>310.64</ele>
        <time>2015-07-12T08:11:07.000Z</time>
      </trkpt>
      <trkpt lat="47.25272" lon="6.07938">
        <ele>311.12</ele>
        <time>2015-07-12T08:11:09.000Z</time>
      </trkpt>
      <trkpt lat="47.25269" lon="6.07924">
        <ele>310.64</ele>
        <time>2015-07-12T08:11:11.000Z</time>
      </trkpt>
      <trkpt lat="47.25266" lon="6.0791">
        <ele>310.16</ele>
        <time>2015-07-12T08:11:13.000Z</time>
      </trkpt>
      <trkpt lat="47.25263" lon="6.07896">
        <ele>310.16</ele>
        <time>2015-07-12T08:11:15.000Z</time>
      </trkpt>
      <trkpt lat="47.25261" lon="6.07881">
        <ele>310.16</ele>
        <time>2015-07-12T08:11:17.000Z</time>
      </trkpt>
      <trkpt lat="47.25258" lon="6.07866">
        <ele>310.16</ele>
        <time>2015-07-12T08:11:19.000Z</time>
      </trkpt>
      <trkpt lat="47.25255" lon="6.07851">
        <ele>310.16</ele>
        <time>2015-07-12T08:11:21.000Z</time>
      </trkpt>
      <trkpt lat="47.25252" lon="6.07835">
        <ele>309.68</ele>
        <time>2015-07-12T08:11:23.000Z</time>
      </trkpt>
      <trkpt lat="47.25249" lon="6.07819">
        <ele>309.68</ele>
        <time>2015-07-12T08:11:25.000Z</time>
      </trkpt>
      <trkpt lat="47.25245" lon="6.07802">
        <ele>310.64</ele>
        <time>2015-07-12T08:11:27.000Z</time>
      </trkpt>
      <trkpt lat="47.25242" lon="6.07785">
        <ele>310.64</ele>
        <time>2015-07-12T08:11:29.000Z</time>
      </trkpt>
      <trkpt lat="47.25237" lon="6.0777">
        <ele>310.64</ele>
        <time>2015-07-12T08:11:31.000Z</time>
      </trkpt>
      <trkpt lat="47.25233" lon="6.07754">
        <ele>310.16</ele>
        <time>2015-07-12T08:11:33.000Z</time>
      </trkpt>
      <trkpt lat="47.25228" lon="6.07738">
        <ele>309.68</ele>
        <time>2015-07-12T08:11:35.000Z</time>
      </trkpt>
      <trkpt lat="47.25223" lon="6.07723">
        <ele>310.16</ele>
        <time>2015-07-12T08:11:37.000Z</time>
      </trkpt>
      <trkpt lat="47.25217" lon="6.07708">
        <ele>310.64</ele>
        <time>2015-07-12T08:11:39.000Z</time>
      </trkpt>
      <trkpt lat="47.25212" lon="6.07694">
        <ele>310.16</ele>
        <time>2015-07-12T08:11:41.000Z</time>
      </trkpt>
      <trkpt lat="47.25207" lon="6.07681">
        <ele>310.64</ele>
        <time>2015-07-12T08:11:43.000Z</time>
      </trkpt>
      <trkpt lat="47.25201" lon="6.07668">
        <ele>310.64</ele>
        <time>2015-07-12T08:11:45.000Z</time>
      </trkpt>
      <trkpt lat="47.25196" lon="6.07656">
        <ele>310.64</ele>
        <time>2015-07-12T08:11:47.000Z</time>
      </trkpt>
      <trkpt lat="47.2519" lon="6.07643">
        <ele>310.64</ele>
        <time>2015-07-12T08:11:49.000Z</time>
      </trkpt>
      <trkpt lat="47.25184" lon="6.0763">
        <ele>311.12</ele>
        <time>2015-07-12T08:11:51.000Z</time>
      </trkpt>
      <trkpt lat="47.25177" lon="6.07618">
        <ele>310.64</ele>
        <time>2015-07-12T08:11:53.000Z</time>
      </trkpt>
      <trkpt lat="47.25169" lon="6.07606">
        <ele>310.16</ele>
        <time>2015-07-12T08:11:55.000Z</time>
      </trkpt>
      <trkpt lat="47.2516" lon="6.07593">
        <ele>310.16</ele>
        <time>2015-07-12T08:11:57.000Z</time>
      </trkpt>
      <trkpt lat="47.25152" lon="6.0758">
        <ele>310.16</ele>
        <time>2015-07-12T08:11:59.000Z</time>
      </trkpt>
      <trkpt lat="47.25144" lon="6.07568">
        <ele>310.16</ele>
        <time>2015-07-12T08:12:01.000Z</time>
      </trkpt>
      <trkpt lat="47.25134" lon="6.07555">
        <ele>310.16</ele>
        <time>2015-07-12T08:12:03.000Z</time>
      </trkpt>
      <trkpt lat="47.25125" lon="6.07543">
        <ele>310.16</ele>
        <time>2015-07-12T08:12:05.000Z</time>
      </trkpt>
      <trkpt lat="47.25115" lon="6.0753">
        <ele>309.68</ele>
        <time>2015-07-12T08:12:07.000Z</time>
      </trkpt>
      <trkpt lat="47.25104" lon="6.07518">
        <ele>309.68</ele>
        <time>2015-07-12T08:12:09.000Z</time>
      </trkpt>
      <trkpt lat="47.25093" lon="6.07507">
        <ele>309.68</ele>
        <time>2015-07-12T08:12:11.000Z</time>
      </trkpt>
      <trkpt lat="47.25083" lon="6.07496">
        <ele>309.68</ele>
        <time>2015-07-12T08:12:13.000Z</time>
      </trkpt>
      <trkpt lat="47.25072" lon="6.07484">
        <ele>309.68</ele>
        <time>2015-07-12T08:12:15.000Z</time>
      </trkpt>
      <trkpt lat="47.25061" lon="6.07474">
        <ele>309.68</ele>
        <time>2015-07-12T08:12:17.000Z</time>
      </trkpt>
      <trkpt lat="47.25051" lon="6.07463">
        <ele>309.68</ele>
        <time>2015-07-12T08:12:19.000Z</time>
      </trkpt>
      <trkpt lat="47.2504" lon="6.07453">
        <ele>309.68</ele>
        <time>2015-07-12T08:12:21.000Z</time>
      </trkpt>
      <trkpt lat="47.2503" lon="6.07444">
        <ele>309.68</ele>
        <time>2015-07-12T08:12:23.000Z</time>
      </trkpt>
      <trkpt lat="47.25019" lon="6.07435">
        <ele>309.68</ele>
        <time>2015-07-12T08:12:25.000Z</time>
      </trkpt>
      <trkpt lat="47.25008" lon="6.07426">
        <ele>309.68</ele>
        <time>2015-07-12T08:12:27.000Z</time>
      </trkpt>
      <trkpt lat="47.24997" lon="6.07417">
        <ele>309.68</ele>
        <time>2015-07-12T08:12:29.000Z</time>
      </trkpt>
      <trkpt lat="47.24987" lon="6.07407">
        <ele>309.68</ele>
        <time>2015-07-12T08:12:31.000Z</time>
      </trkpt>
      <trkpt lat="47.24976" lon="6.07398">
        <ele>309.68</ele>
        <time>2015-07-12T08:12:33.000Z</time>
      </trkpt>
      <trkpt lat="47.24966" lon="6.07389">
        <ele>309.68</ele>
        <time>2015-07-12T08:12:35.000Z</time>
      </trkpt>
      <trkpt lat="47.24955" lon="6.0738">
        <ele>309.68</ele>
        <time>2015-07-12T08:12:37.000Z</time>
      </trkpt>
      <trkpt lat="47.24944" lon="6.07371">
        <ele>309.2</ele>
        <time>2015-07-12T08:12:39.000Z</time>
      </trkpt>
      <trkpt lat="47.24932" lon="6.07362">
        <ele>309.68</ele>
        <time>2015-07-12T08:12:41.000Z</time>
      </trkpt>
      <trkpt lat="47.24922" lon="6.07353">
        <ele>309.68</ele>
        <time>2015-07-12T08:12:43.000Z</time>
      </trkpt>
      <trkpt lat="47.24911" lon="6.07345">
        <ele>309.68</ele>
        <time>2015-07-12T08:12:45.000Z</time>
      </trkpt>
      <trkpt lat="47.249" lon="6.07336">
        <ele>309.68</ele>
        <time>2015-07-12T08:12:47.000Z</time>
      </trkpt>
      <trkpt lat="47.2489" lon="6.07327">
        <ele>309.68</ele>
        <time>2015-07-12T08:12:49.000Z</time>
      </trkpt>
      <trkpt lat="47.2488" lon="6.07319">
        <ele>309.68</ele>
        <time>2015-07-12T08:12:51.000Z</time>
      </trkpt>
      <trkpt lat="47.24871" lon="6.07309">
        <ele>309.68</ele>
        <time>2015-07-12T08:12:53.000Z</time>
      </trkpt>
      <trkpt lat="47.24862" lon="6.07299">
        <ele>309.68</ele>
        <time>2015-07-12T08:12:55.000Z</time>
      </trkpt>
      <trkpt lat="47.24852" lon="6.07289">
        <ele>309.68</ele>
        <time>2015-07-12T08:12:57.000Z</time>
      </trkpt>
      <trkpt lat="47.24844" lon="6.07278">
        <ele>309.68</ele>
        <time>2015-07-12T08:12:59.000Z</time>
      </trkpt>
      <trkpt lat="47.24835" lon="6.07267">
        <ele>309.68</ele>
        <time>2015-07-12T08:13:01.000Z</time>
      </trkpt>
      <trkpt lat="47.24826" lon="6.07256">
        <ele>309.68</ele>
        <time>2015-07-12T08:13:03.000Z</time>
      </trkpt>
      <trkpt lat="47.24819" lon="6.07244">
        <ele>310.16</ele>
        <time>2015-07-12T08:13:05.000Z</time>
      </trkpt>
      <trkpt lat="47.2481" lon="6.07232">
        <ele>310.16</ele>
        <time>2015-07-12T08:13:07.000Z</time>
      </trkpt>
      <trkpt lat="47.24802" lon="6.0722">
        <ele>310.16</ele>
        <time>2015-07-12T08:13:09.000Z</time>
      </trkpt>
      <trkpt lat="47.24794" lon="6.07207">
        <ele>310.16</ele>
        <time>2015-07-12T08:13:11.000Z</time>
      </trkpt>
      <trkpt lat="47.24786" lon="6.07194">
        <ele>310.16</ele>
        <time>2015-07-12T08:13:13.000Z</time>
      </trkpt>
      <trkpt lat="47.24779" lon="6.07181">
        <ele>310.16</ele>
        <time>2015-07-12T08:13:15.000Z</time>
      </trkpt>
      <trkpt lat="47.24771" lon="6.07168">
        <ele>310.16</ele>
        <time>2015-07-12T08:13:17.000Z</time>
      </trkpt>
      <trkpt lat="47.24764" lon="6.07155">
        <ele>310.16</ele>
        <time>2015-07-12T08:13:19.000Z</time>
      </trkpt>
      <trkpt lat="47.24756" lon="6.07143">
        <ele>310.16</ele>
        <time>2015-07-12T08:13:21.000Z</time>
      </trkpt>
      <trkpt lat="47.24748" lon="6.0713">
        <ele>310.64</ele>
        <time>2015-07-12T08:13:23.000Z</time>
      </trkpt>
      <trkpt lat="47.2474" lon="6.07118">
        <ele>310.64</ele>
        <time>2015-07-12T08:13:25.000Z</time>
      </trkpt>
      <trkpt lat="47.24732" lon="6.07105">
        <ele>310.64</ele>
        <time>2015-07-12T08:13:27.000Z</time>
      </trkpt>
      <trkpt lat="47.24723" lon="6.07092">
        <ele>310.64</ele>
        <time>2015-07-12T08:13:29.000Z</time>
      </trkpt>
      <trkpt lat="47.24715" lon="6.0708">
        <ele>310.64</ele>
        <time>2015-07-12T08:13:31.000Z</time>
      </trkpt>
      <trkpt lat="47.24707" lon="6.07067">
        <ele>310.64</ele>
        <time>2015-07-12T08:13:33.000Z</time>
      </trkpt>
      <trkpt lat="47.24698" lon="6.07054">
        <ele>311.12</ele>
        <time>2015-07-12T08:13:35.000Z</time>
      </trkpt>
      <trkpt lat="47.2469" lon="6.07041">
        <ele>310.64</ele>
        <time>2015-07-12T08:13:37.000Z</time>
      </trkpt>
      <trkpt lat="47.24681" lon="6.07029">
        <ele>310.64</ele>
        <time>2015-07-12T08:13:39.000Z</time>
      </trkpt>
      <trkpt lat="47.24672" lon="6.07017">
        <ele>311.12</ele>
        <time>2015-07-12T08:13:41.000Z</time>
      </trkpt>
      <trkpt lat="47.24663" lon="6.07005">
        <ele>311.12</ele>
        <time>2015-07-12T08:13:43.000Z</time>
      </trkpt>
      <trkpt lat="47.24654" lon="6.06993">
        <ele>311.12</ele>
        <time>2015-07-12T08:13:45.000Z</time>
      </trkpt>
      <trkpt lat="47.24645" lon="6.06981">
        <ele>310.64</ele>
        <time>2015-07-12T08:13:47.000Z</time>
      </trkpt>
      <trkpt lat="47.24636" lon="6.06969">
        <ele>310.64</ele>
        <time>2015-07-12T08:13:49.000Z</time>
      </trkpt>
      <trkpt lat="47.24628" lon="6.06956">
        <ele>310.64</ele>
        <time>2015-07-12T08:13:51.000Z</time>
      </trkpt>
      <trkpt lat="47.24619" lon="6.06944">
        <ele>310.64</ele>
        <time>2015-07-12T08:13:53.000Z</time>
      </trkpt>
      <trkpt lat="47.2461" lon="6.06932">
        <ele>311.12</ele>
        <time>2015-07-12T08:13:55.000Z</time>
      </trkpt>
      <trkpt lat="47.24602" lon="6.0692">
        <ele>311.12</ele>
        <time>2015-07-12T08:13:57.000Z</time>
      </trkpt>
      <trkpt lat="47.24593" lon="6.06908">
        <ele>311.12</ele>
        <time>2015-07-12T08:13:59.000Z</time>
      </trkpt>
      <trkpt lat="47.24583" lon="6.06897">
        <ele>311.12</ele>
        <time>2015-07-12T08:14:01.000Z</time>
      </trkpt>
      <trkpt lat="47.24573" lon="6.06887">
        <ele>311.12</ele>
        <time>2015-07-12T08:14:03.000Z</time>
      </trkpt>
      <trkpt lat="47.24562" lon="6.06879">
        <ele>311.12</ele>
        <time>2015-07-12T08:14:05.000Z</time>
      </trkpt>
      <trkpt lat="47.24552" lon="6.0687">
        <ele>311.12</ele>
        <time>2015-07-12T08:14:07.000Z</time>
      </trkpt>
      <trkpt lat="47.24541" lon="6.06862">
        <ele>311.12</ele>
        <time>2015-07-12T08:14:09.000Z</time>
      </trkpt>
      <trkpt lat="47.24531" lon="6.06853">
        <ele>311.12</ele>
        <time>2015-07-12T08:14:11.000Z</time>
      </trkpt>
      <trkpt lat="47.2452" lon="6.06846">
        <ele>311.12</ele>
        <time>2015-07-12T08:14:13.000Z</time>
      </trkpt>
      <trkpt lat="47.24509" lon="6.0684">
        <ele>311.12</ele>
        <time>2015-07-12T08:14:15.000Z</time>
      </trkpt>
      <trkpt lat="47.24497" lon="6.06834">
        <ele>311.6</ele>
        <time>2015-07-12T08:14:17.000Z</time>
      </trkpt>
      <trkpt lat="47.24487" lon="6.06827">
        <ele>311.6</ele>
        <time>2015-07-12T08:14:19.000Z</time>
      </trkpt>
      <trkpt lat="47.24475" lon="6.06821">
        <ele>311.6</ele>
        <time>2015-07-12T08:14:21.000Z</time>
      </trkpt>
      <trkpt lat="47.24463" lon="6.06816">
        <ele>311.6</ele>
        <time>2015-07-12T08:14:23.000Z</time>
      </trkpt>
      <trkpt lat="47.24452" lon="6.06812">
        <ele>311.6</ele>
        <time>2015-07-12T08:14:25.000Z</time>
      </trkpt>
      <trkpt lat="47.2444" lon="6.06807">
        <ele>311.6</ele>
        <time>2015-07-12T08:14:27.000Z</time>
      </trkpt>
      <trkpt lat="47.24429" lon="6.06803">
        <ele>311.6</ele>
        <time>2015-07-12T08:14:29.000Z</time>
      </trkpt>
      <trkpt lat="47.24417" lon="6.06798">
        <ele>311.12</ele>
        <time>2015-07-12T08:14:31.000Z</time>
      </trkpt>
      <trkpt lat="47.24405" lon="6.06793">
        <ele>311.12</ele>
        <time>2015-07-12T08:14:33.000Z</time>
      </trkpt>
      <trkpt lat="47.24393" lon="6.06789">
        <ele>311.12</ele>
        <time>2015-07-12T08:14:35.000Z</time>
      </trkpt>
      <trkpt lat="47.24381" lon="6.06785">
        <ele>311.12</ele>
        <time>2015-07-12T08:14:37.000Z</time>
      </trkpt>
      <trkpt lat="47.2437" lon="6.0678">
        <ele>311.12</ele>
        <time>2015-07-12T08:14:39.000Z</time>
      </trkpt>
      <trkpt lat="47.24358" lon="6.06776">
        <ele>310.64</ele>
        <time>2015-07-12T08:14:41.000Z</time>
      </trkpt>
      <trkpt lat="47.24346" lon="6.06771">
        <ele>311.12</ele>
        <time>2015-07-12T08:14:43.000Z</time>
      </trkpt>
      <trkpt lat="47.24334" lon="6.06766">
        <ele>311.12</ele>
        <time>2015-07-12T08:14:45.000Z</time>
      </trkpt>
      <trkpt lat="47.24323" lon="6.06761">
        <ele>311.12</ele>
        <time>2015-07-12T08:14:47.000Z</time>
      </trkpt>
      <trkpt lat="47.2431" lon="6.06757">
        <ele>311.12</ele>
        <time>2015-07-12T08:14:49.000Z</time>
      </trkpt>
      <trkpt lat="47.24298" lon="6.06752">
        <ele>311.12</ele>
        <time>2015-07-12T08:14:51.000Z</time>
      </trkpt>
      <trkpt lat="47.24286" lon="6.06748">
        <ele>311.12</ele>
        <time>2015-07-12T08:14:53.000Z</time>
      </trkpt>
      <trkpt lat="47.24274" lon="6.06743">
        <ele>311.12</ele>
        <time>2015-07-12T08:14:55.000Z</time>
      </trkpt>
      <trkpt lat="47.24262" lon="6.06739">
        <ele>311.12</ele>
        <time>2015-07-12T08:14:57.000Z</time>
      </trkpt>
      <trkpt lat="47.2425" lon="6.06734">
        <ele>311.12</ele>
        <time>2015-07-12T08:14:59.000Z</time>
      </trkpt>
      <trkpt lat="47.24239" lon="6.06729">
        <ele>311.12</ele>
        <time>2015-07-12T08:15:01.000Z</time>
      </trkpt>
      <trkpt lat="47.24228" lon="6.06723">
        <ele>311.12</ele>
        <time>2015-07-12T08:15:03.000Z</time>
      </trkpt>
      <trkpt lat="47.24216" lon="6.06717">
        <ele>311.12</ele>
        <time>2015-07-12T08:15:05.000Z</time>
      </trkpt>
      <trkpt lat="47.24205" lon="6.0671">
        <ele>311.12</ele>
        <time>2015-07-12T08:15:07.000Z</time>
      </trkpt>
      <trkpt lat="47.24194" lon="6.06704">
        <ele>311.12</ele>
        <time>2015-07-12T08:15:09.000Z</time>
      </trkpt>
      <trkpt lat="47.24184" lon="6.06699">
        <ele>311.6</ele>
        <time>2015-07-12T08:15:11.000Z</time>
      </trkpt>
      <trkpt lat="47.24175" lon="6.06693">
        <ele>311.12</ele>
        <time>2015-07-12T08:15:13.000Z</time>
      </trkpt>
      <trkpt lat="47.24167" lon="6.06684">
        <ele>311.12</ele>
        <time>2015-07-12T08:15:15.000Z</time>
      </trkpt>
      <trkpt lat="47.24158" lon="6.06674">
        <ele>311.12</ele>
        <time>2015-07-12T08:15:17.000Z</time>
      </trkpt>
      <trkpt lat="47.24149" lon="6.06664">
        <ele>311.12</ele>
        <time>2015-07-12T08:15:19.000Z</time>
      </trkpt>
      <trkpt lat="47.2414" lon="6.06653">
        <ele>310.64</ele>
        <time>2015-07-12T08:15:21.000Z</time>
      </trkpt>
      <trkpt lat="47.2413" lon="6.06643">
        <ele>310.64</ele>
        <time>2015-07-12T08:15:23.000Z</time>
      </trkpt>
      <trkpt lat="47.2412" lon="6.06632">
        <ele>310.16</ele>
        <time>2015-07-12T08:15:25.000Z</time>
      </trkpt>
      <trkpt lat="47.2411" lon="6.06622">
        <ele>310.64</ele>
        <time>2015-07-12T08:15:27.000Z</time>
      </trkpt>
      <trkpt lat="47.241" lon="6.06611">
        <ele>310.64</ele>
        <time>2015-07-12T08:15:29.000Z</time>
      </trkpt>
      <trkpt lat="47.24091" lon="6.066">
        <ele>310.64</ele>
        <time>2015-07-12T08:15:31.000Z</time>
      </trkpt>
      <trkpt lat="47.24082" lon="6.06589">
        <ele>310.64</ele>
        <time>2015-07-12T08:15:33.000Z</time>
      </trkpt>
      <trkpt lat="47.24073" lon="6.06577">
        <ele>310.64</ele>
        <time>2015-07-12T08:15:35.000Z</time>
      </trkpt>
      <trkpt lat="47.24064" lon="6.06566">
        <ele>310.16</ele>
        <time>2015-07-12T08:15:37.000Z</time>
      </trkpt>
      <trkpt lat="47.24055" lon="6.06555">
        <ele>310.64</ele>
        <time>2015-07-12T08:15:39.000Z</time>
      </trkpt>
      <trkpt lat="47.24047" lon="6.06545">
        <ele>310.16</ele>
        <time>2015-07-12T08:15:41.000Z</time>
      </trkpt>
      <trkpt lat="47.24039" lon="6.06536">
        <ele>310.64</ele>
        <time>2015-07-12T08:15:43.000Z</time>
      </trkpt>
      <trkpt lat="47.24031" lon="6.06528">
        <ele>310.16</ele>
        <time>2015-07-12T08:15:45.000Z</time>
      </trkpt>
      <trkpt lat="47.24023" lon="6.0652">
        <ele>310.64</ele>
        <time>2015-07-12T08:15:47.000Z</time>
      </trkpt>
      <trkpt lat="47.24012" lon="6.06509">
        <ele>310.64</ele>
        <time>2015-07-12T08:15:50.000Z</time>
      </trkpt>
      <trkpt lat="47.24004" lon="6.06502">
        <ele>310.64</ele>
        <time>2015-07-12T08:15:52.000Z</time>
      </trkpt>
      <trkpt lat="47.23996" lon="6.06494">
        <ele>311.12</ele>
        <time>2015-07-12T08:15:54.000Z</time>
      </trkpt>
      <trkpt lat="47.23989" lon="6.06485">
        <ele>311.12</ele>
        <time>2015-07-12T08:15:56.000Z</time>
      </trkpt>
      <trkpt lat="47.23981" lon="6.06476">
        <ele>311.12</ele>
        <time>2015-07-12T08:15:58.000Z</time>
      </trkpt>
      <trkpt lat="47.23972" lon="6.06467">
        <ele>311.12</ele>
        <time>2015-07-12T08:16:00.000Z</time>
      </trkpt>
      <trkpt lat="47.23965" lon="6.06456">
        <ele>310.64</ele>
        <time>2015-07-12T08:16:02.000Z</time>
      </trkpt>
      <trkpt lat="47.23957" lon="6.06444">
        <ele>311.12</ele>
        <time>2015-07-12T08:16:04.000Z</time>
      </trkpt>
      <trkpt lat="47.23949" lon="6.06432">
        <ele>310.64</ele>
        <time>2015-07-12T08:16:06.000Z</time>
      </trkpt>
      <trkpt lat="47.2394" lon="6.0642">
        <ele>310.64</ele>
        <time>2015-07-12T08:16:08.000Z</time>
      </trkpt>
      <trkpt lat="47.23932" lon="6.06409">
        <ele>311.12</ele>
        <time>2015-07-12T08:16:10.000Z</time>
      </trkpt>
      <trkpt lat="47.23924" lon="6.06397">
        <ele>310.64</ele>
        <time>2015-07-12T08:16:12.000Z</time>
      </trkpt>
      <trkpt lat="47.23916" lon="6.06385">
        <ele>310.64</ele>
        <time>2015-07-12T08:16:14.000Z</time>
      </trkpt>
      <trkpt lat="47.23907" lon="6.06373">
        <ele>310.64</ele>
        <time>2015-07-12T08:16:16.000Z</time>
      </trkpt>
      <trkpt lat="47.23899" lon="6.06362">
        <ele>310.64</ele>
        <time>2015-07-12T08:16:18.000Z</time>
      </trkpt>
      <trkpt lat="47.2389" lon="6.0635">
        <ele>310.64</ele>
        <time>2015-07-12T08:16:20.000Z</time>
      </trkpt>
      <trkpt lat="47.23882" lon="6.06339">
        <ele>310.64</ele>
        <time>2015-07-12T08:16:22.000Z</time>
      </trkpt>
      <trkpt lat="47.23874" lon="6.06328">
        <ele>311.12</ele>
        <time>2015-07-12T08:16:24.000Z</time>
      </trkpt>
      <trkpt lat="47.23866" lon="6.06317">
        <ele>311.12</ele>
        <time>2015-07-12T08:16:26.000Z</time>
      </trkpt>
      <trkpt lat="47.23857" lon="6.06306">
        <ele>311.12</ele>
        <time>2015-07-12T08:16:28.000Z</time>
      </trkpt>
      <trkpt lat="47.23848" lon="6.06296">
        <ele>310.64</ele>
        <time>2015-07-12T08:16:30.000Z</time>
      </trkpt>
      <trkpt lat="47.23839" lon="6.06287">
        <ele>311.12</ele>
        <time>2015-07-12T08:16:32.000Z</time>
      </trkpt>
      <trkpt lat="47.23831" lon="6.06279">
        <ele>310.64</ele>
        <time>2015-07-12T08:16:34.000Z</time>
      </trkpt>
      <trkpt lat="47.23823" lon="6.06272">
        <ele>311.12</ele>
        <time>2015-07-12T08:16:36.000Z</time>
      </trkpt>
      <trkpt lat="47.23814" lon="6.06264">
        <ele>310.64</ele>
        <time>2015-07-12T08:16:38.000Z</time>
      </trkpt>
      <trkpt lat="47.23805" lon="6.06254">
        <ele>310.64</ele>
        <time>2015-07-12T08:16:40.000Z</time>
      </trkpt>
      <trkpt lat="47.23795" lon="6.06245">
        <ele>310.16</ele>
        <time>2015-07-12T08:16:42.000Z</time>
      </trkpt>
      <trkpt lat="47.23784" lon="6.06237">
        <ele>310.16</ele>
        <time>2015-07-12T08:16:44.000Z</time>
      </trkpt>
      <trkpt lat="47.23773" lon="6.0623">
        <ele>310.16</ele>
        <time>2015-07-12T08:16:46.000Z</time>
      </trkpt>
      <trkpt lat="47.23763" lon="6.06222">
        <ele>310.16</ele>
        <time>2015-07-12T08:16:48.000Z</time>
      </trkpt>
      <trkpt lat="47.23752" lon="6.06215">
        <ele>310.16</ele>
        <time>2015-07-12T08:16:50.000Z</time>
      </trkpt>
      <trkpt lat="47.23742" lon="6.06208">
        <ele>310.16</ele>
        <time>2015-07-12T08:16:52.000Z</time>
      </trkpt>
      <trkpt lat="47.2373" lon="6.06202">
        <ele>310.16</ele>
        <time>2015-07-12T08:16:54.000Z</time>
      </trkpt>
      <trkpt lat="47.2372" lon="6.06195">
        <ele>310.16</ele>
        <time>2015-07-12T08:16:56.000Z</time>
      </trkpt>
      <trkpt lat="47.23708" lon="6.06189">
        <ele>310.16</ele>
        <time>2015-07-12T08:16:58.000Z</time>
      </trkpt>
      <trkpt lat="47.23698" lon="6.06183">
        <ele>310.16</ele>
        <time>2015-07-12T08:17:00.000Z</time>
      </trkpt>
      <trkpt lat="47.23687" lon="6.06177">
        <ele>309.68</ele>
        <time>2015-07-12T08:17:02.000Z</time>
      </trkpt>
      <trkpt lat="47.23676" lon="6.06171">
        <ele>310.16</ele>
        <time>2015-07-12T08:17:04.000Z</time>
      </trkpt>
      <trkpt lat="47.23664" lon="6.06166">
        <ele>310.16</ele>
        <time>2015-07-12T08:17:06.000Z</time>
      </trkpt>
      <trkpt lat="47.23653" lon="6.06162">
        <ele>309.68</ele>
        <time>2015-07-12T08:17:08.000Z</time>
      </trkpt>
      <trkpt lat="47.23642" lon="6.06158">
        <ele>309.68</ele>
        <time>2015-07-12T08:17:10.000Z</time>
      </trkpt>
      <trkpt lat="47.23629" lon="6.06154">
        <ele>310.16</ele>
        <time>2015-07-12T08:17:12.000Z</time>
      </trkpt>
      <trkpt lat="47.23617" lon="6.06149">
        <ele>309.68</ele>
        <time>2015-07-12T08:17:14.000Z</time>
      </trkpt>
      <trkpt lat="47.23605" lon="6.06145">
        <ele>310.16</ele>
        <time>2015-07-12T08:17:16.000Z</time>
      </trkpt>
      <trkpt lat="47.23593" lon="6.06141">
        <ele>309.68</ele>
        <time>2015-07-12T08:17:18.000Z</time>
      </trkpt>
      <trkpt lat="47.23581" lon="6.06138">
        <ele>309.68</ele>
        <time>2015-07-12T08:17:20.000Z</time>
      </trkpt>
      <trkpt lat="47.23569" lon="6.06135">
        <ele>309.68</ele>
        <time>2015-07-12T08:17:22.000Z</time>
      </trkpt>
      <trkpt lat="47.23557" lon="6.06132">
        <ele>309.68</ele>
        <time>2015-07-12T08:17:24.000Z</time>
      </trkpt>
      <trkpt lat="47.23545" lon="6.06128">
        <ele>309.68</ele>
        <time>2015-07-12T08:17:26.000Z</time>
      </trkpt>
      <trkpt lat="47.23534" lon="6.06125">
        <ele>310.16</ele>
        <time>2015-07-12T08:17:28.000Z</time>
      </trkpt>
      <trkpt lat="47.23521" lon="6.06122">
        <ele>309.68</ele>
        <time>2015-07-12T08:17:30.000Z</time>
      </trkpt>
      <trkpt lat="47.23509" lon="6.06119">
        <ele>309.68</ele>
        <time>2015-07-12T08:17:32.000Z</time>
      </trkpt>
      <trkpt lat="47.23497" lon="6.06116">
        <ele>310.16</ele>
        <time>2015-07-12T08:17:34.000Z</time>
      </trkpt>
      <trkpt lat="47.23484" lon="6.06114">
        <ele>310.16</ele>
        <time>2015-07-12T08:17:36.000Z</time>
      </trkpt>
      <trkpt lat="47.23472" lon="6.06112">
        <ele>310.16</ele>
        <time>2015-07-12T08:17:38.000Z</time>
      </trkpt>
      <trkpt lat="47.23459" lon="6.06108">
        <ele>309.68</ele>
        <time>2015-07-12T08:17:40.000Z</time>
      </trkpt>
      <trkpt lat="47.23445" lon="6.06105">
        <ele>309.68</ele>
        <time>2015-07-12T08:17:42.000Z</time>
      </trkpt>
      <trkpt lat="47.2343" lon="6.06101">
        <ele>309.68</ele>
        <time>2015-07-12T08:17:44.000Z</time>
      </trkpt>
      <trkpt lat="47.23416" lon="6.06096">
        <ele>309.68</ele>
        <time>2015-07-12T08:17:46.000Z</time>
      </trkpt>
      <trkpt lat="47.23402" lon="6.06093">
        <ele>309.68</ele>
        <time>2015-07-12T08:17:48.000Z</time>
      </trkpt>
      <trkpt lat="47.23387" lon="6.06089">
        <ele>310.16</ele>
        <time>2015-07-12T08:17:50.000Z</time>
      </trkpt>
      <trkpt lat="47.23374" lon="6.06083">
        <ele>310.16</ele>
        <time>2015-07-12T08:17:52.000Z</time>
      </trkpt>
      <trkpt lat="47.2336" lon="6.06077">
        <ele>309.68</ele>
        <time>2015-07-12T08:17:54.000Z</time>
      </trkpt>
      <trkpt lat="47.23347" lon="6.0607">
        <ele>309.68</ele>
        <time>2015-07-12T08:17:56.000Z</time>
      </trkpt>
      <trkpt lat="47.23333" lon="6.06062">
        <ele>310.16</ele>
        <time>2015-07-12T08:17:58.000Z</time>
      </trkpt>
      <trkpt lat="47.2332" lon="6.06051">
        <ele>310.16</ele>
        <time>2015-07-12T08:18:00.000Z</time>
      </trkpt>
      <trkpt lat="47.23306" lon="6.06039">
        <ele>310.16</ele>
        <time>2015-07-12T08:18:02.000Z</time>
      </trkpt>
      <trkpt lat="47.23293" lon="6.06025">
        <ele>310.16</ele>
        <time>2015-07-12T08:18:04.000Z</time>
      </trkpt>
      <trkpt lat="47.2328" lon="6.06011">
        <ele>310.16</ele>
        <time>2015-07-12T08:18:06.000Z</time>
      </trkpt>
      <trkpt lat="47.23269" lon="6.05998">
        <ele>309.68</ele>
        <time>2015-07-12T08:18:08.000Z</time>
      </trkpt>
      <trkpt lat="47.23257" lon="6.05984">
        <ele>310.16</ele>
        <time>2015-07-12T08:18:10.000Z</time>
      </trkpt>
      <trkpt lat="47.23245" lon="6.0597">
        <ele>310.16</ele>
        <time>2015-07-12T08:18:12.000Z</time>
      </trkpt>
      <trkpt lat="47.23233" lon="6.05957">
        <ele>309.68</ele>
        <time>2015-07-12T08:18:14.000Z</time>
      </trkpt>
      <trkpt lat="47.2322" lon="6.05945">
        <ele>309.68</ele>
        <time>2015-07-12T08:18:16.000Z</time>
      </trkpt>
      <trkpt lat="47.23207" lon="6.05934">
        <ele>309.68</ele>
        <time>2015-07-12T08:18:18.000Z</time>
      </trkpt>
      <trkpt lat="47.23195" lon="6.05923">
        <ele>310.16</ele>
        <time>2015-07-12T08:18:20.000Z</time>
      </trkpt>
      <trkpt lat="47.23183" lon="6.05913">
        <ele>310.16</ele>
        <time>2015-07-12T08:18:22.000Z</time>
      </trkpt>
      <trkpt lat="47.23171" lon="6.05903">
        <ele>309.68</ele>
        <time>2015-07-12T08:18:24.000Z</time>
      </trkpt>
      <trkpt lat="47.23159" lon="6.05894">
        <ele>310.16</ele>
        <time>2015-07-12T08:18:26.000Z</time>
      </trkpt>
      <trkpt lat="47.23148" lon="6.05886">
        <ele>310.16</ele>
        <time>2015-07-12T08:18:28.000Z</time>
      </trkpt>
      <trkpt lat="47.23137" lon="6.05878">
        <ele>309.68</ele>
        <time>2015-07-12T08:18:30.000Z</time>
      </trkpt>
      <trkpt lat="47.23127" lon="6.05868">
        <ele>309.68</ele>
        <time>2015-07-12T08:18:32.000Z</time>
      </trkpt>
      <trkpt lat="47.23116" lon="6.05859">
        <ele>309.68</ele>
        <time>2015-07-12T08:18:34.000Z</time>
      </trkpt>
      <trkpt lat="47.23105" lon="6.05851">
        <ele>310.64</ele>
        <time>2015-07-12T08:18:36.000Z</time>
      </trkpt>
      <trkpt lat="47.23095" lon="6.05841">
        <ele>310.64</ele>
        <time>2015-07-12T08:18:38.000Z</time>
      </trkpt>
      <trkpt lat="47.23083" lon="6.05832">
        <ele>310.64</ele>
        <time>2015-07-12T08:18:40.000Z</time>
      </trkpt>
      <trkpt lat="47.23073" lon="6.05823">
        <ele>310.64</ele>
        <time>2015-07-12T08:18:42.000Z</time>
      </trkpt>
      <trkpt lat="47.23061" lon="6.05812">
        <ele>310.64</ele>
        <time>2015-07-12T08:18:44.000Z</time>
      </trkpt>
      <trkpt lat="47.23049" lon="6.05803">
        <ele>310.16</ele>
        <time>2015-07-12T08:18:46.000Z</time>
      </trkpt>
      <trkpt lat="47.23036" lon="6.05792">
        <ele>309.68</ele>
        <time>2015-07-12T08:18:48.000Z</time>
      </trkpt>
      <trkpt lat="47.23024" lon="6.05781">
        <ele>309.2</ele>
        <time>2015-07-12T08:18:50.000Z</time>
      </trkpt>
      <trkpt lat="47.23011" lon="6.0577">
        <ele>309.2</ele>
        <time>2015-07-12T08:18:52.000Z</time>
      </trkpt>
      <trkpt lat="47.23" lon="6.05758">
        <ele>309.2</ele>
        <time>2015-07-12T08:18:54.000Z</time>
      </trkpt>
      <trkpt lat="47.2299" lon="6.05747">
        <ele>308.72</ele>
        <time>2015-07-12T08:18:56.000Z</time>
      </trkpt>
      <trkpt lat="47.2298" lon="6.05737">
        <ele>309.2</ele>
        <time>2015-07-12T08:18:58.000Z</time>
      </trkpt>
      <trkpt lat="47.2297" lon="6.05726">
        <ele>309.2</ele>
        <time>2015-07-12T08:19:00.000Z</time>
      </trkpt>
      <trkpt lat="47.22961" lon="6.05712">
        <ele>309.2</ele>
        <time>2015-07-12T08:19:02.000Z</time>
      </trkpt>
      <trkpt lat="47.2295" lon="6.05697">
        <ele>309.2</ele>
        <time>2015-07-12T08:19:04.000Z</time>
      </trkpt>
      <trkpt lat="47.2294" lon="6.05683">
        <ele>309.2</ele>
        <time>2015-07-12T08:19:06.000Z</time>
      </trkpt>
      <trkpt lat="47.22929" lon="6.05668">
        <ele>309.2</ele>
        <time>2015-07-12T08:19:08.000Z</time>
      </trkpt>
      <trkpt lat="47.22918" lon="6.05654">
        <ele>308.72</ele>
        <time>2015-07-12T08:19:10.000Z</time>
      </trkpt>
      <trkpt lat="47.22907" lon="6.05638">
        <ele>308.72</ele>
        <time>2015-07-12T08:19:12.000Z</time>
      </trkpt>
      <trkpt lat="47.22897" lon="6.05622">
        <ele>308.72</ele>
        <time>2015-07-12T08:19:14.000Z</time>
      </trkpt>
      <trkpt lat="47.22886" lon="6.05606">
        <ele>308.72</ele>
        <time>2015-07-12T08:19:16.000Z</time>
      </trkpt>
      <trkpt lat="47.22876" lon="6.0559">
        <ele>308.72</ele>
        <time>2015-07-12T08:19:18.000Z</time>
      </trkpt>
      <trkpt lat="47.22865" lon="6.05574">
        <ele>308.72</ele>
        <time>2015-07-12T08:19:20.000Z</time>
      </trkpt>
      <trkpt lat="47.22854" lon="6.05557">
        <ele>308.72</ele>
        <time>2015-07-12T08:19:22.000Z</time>
      </trkpt>
      <trkpt lat="47.22844" lon="6.05539">
        <ele>308.72</ele>
        <time>2015-07-12T08:19:24.000Z</time>
      </trkpt>
      <trkpt lat="47.22832" lon="6.0552">
        <ele>309.2</ele>
        <time>2015-07-12T08:19:26.000Z</time>
      </trkpt>
      <trkpt lat="47.22822" lon="6.05501">
        <ele>308.72</ele>
        <time>2015-07-12T08:19:28.000Z</time>
      </trkpt>
      <trkpt lat="47.22812" lon="6.05481">
        <ele>309.2</ele>
        <time>2015-07-12T08:19:30.000Z</time>
      </trkpt>
      <trkpt lat="47.22802" lon="6.05461">
        <ele>308.72</ele>
        <time>2015-07-12T08:19:32.000Z</time>
      </trkpt>
      <trkpt lat="47.22792" lon="6.05442">
        <ele>309.2</ele>
        <time>2015-07-12T08:19:34.000Z</time>
      </trkpt>
      <trkpt lat="47.22782" lon="6.05423">
        <ele>308.72</ele>
        <time>2015-07-12T08:19:36.000Z</time>
      </trkpt>
      <trkpt lat="47.22774" lon="6.05405">
        <ele>309.2</ele>
        <time>2015-07-12T08:19:38.000Z</time>
      </trkpt>
      <trkpt lat="47.22766" lon="6.05387">
        <ele>309.2</ele>
        <time>2015-07-12T08:19:40.000Z</time>
      </trkpt>
      <trkpt lat="47.22759" lon="6.05368">
        <ele>309.2</ele>
        <time>2015-07-12T08:19:42.000Z</time>
      </trkpt>
      <trkpt lat="47.22752" lon="6.05349">
        <ele>309.2</ele>
        <time>2015-07-12T08:19:44.000Z</time>
      </trkpt>
      <trkpt lat="47.22745" lon="6.0533">
        <ele>309.2</ele>
        <time>2015-07-12T08:19:46.000Z</time>
      </trkpt>
      <trkpt lat="47.22738" lon="6.05311">
        <ele>309.2</ele>
        <time>2015-07-12T08:19:48.000Z</time>
      </trkpt>
      <trkpt lat="47.22732" lon="6.05291">
        <ele>309.2</ele>
        <time>2015-07-12T08:19:50.000Z</time>
      </trkpt>
      <trkpt lat="47.22725" lon="6.05272">
        <ele>309.2</ele>
        <time>2015-07-12T08:19:52.000Z</time>
      </trkpt>
      <trkpt lat="47.22719" lon="6.05252">
        <ele>309.2</ele>
        <time>2015-07-12T08:19:54.000Z</time>
      </trkpt>
      <trkpt lat="47.22713" lon="6.05233">
        <ele>309.2</ele>
        <time>2015-07-12T08:19:56.000Z</time>
      </trkpt>
      <trkpt lat="47.22707" lon="6.05216">
        <ele>308.72</ele>
        <time>2015-07-12T08:19:58.000Z</time>
      </trkpt>
      <trkpt lat="47.22702" lon="6.05198">
        <ele>309.2</ele>
        <time>2015-07-12T08:20:00.000Z</time>
      </trkpt>
      <trkpt lat="47.22699" lon="6.0518">
        <ele>309.2</ele>
        <time>2015-07-12T08:20:02.000Z</time>
      </trkpt>
      <trkpt lat="47.22694" lon="6.05161">
        <ele>309.2</ele>
        <time>2015-07-12T08:20:04.000Z</time>
      </trkpt>
      <trkpt lat="47.22689" lon="6.05142">
        <ele>308.72</ele>
        <time>2015-07-12T08:20:06.000Z</time>
      </trkpt>
      <trkpt lat="47.22683" lon="6.05124">
        <ele>308.72</ele>
        <time>2015-07-12T08:20:08.000Z</time>
      </trkpt>
      <trkpt lat="47.22677" lon="6.05106">
        <ele>309.2</ele>
        <time>2015-07-12T08:20:10.000Z</time>
      </trkpt>
      <trkpt lat="47.22671" lon="6.05088">
        <ele>309.2</ele>
        <time>2015-07-12T08:20:12.000Z</time>
      </trkpt>
      <trkpt lat="47.22667" lon="6.05068">
        <ele>308.72</ele>
        <time>2015-07-12T08:20:14.000Z</time>
      </trkpt>
      <trkpt lat="47.22662" lon="6.05049">
        <ele>308.72</ele>
        <time>2015-07-12T08:20:16.000Z</time>
      </trkpt>
      <trkpt lat="47.22657" lon="6.05032">
        <ele>308.24</ele>
        <time>2015-07-12T08:20:18.000Z</time>
      </trkpt>
      <trkpt lat="47.22652" lon="6.05016">
        <ele>308.72</ele>
        <time>2015-07-12T08:20:20.000Z</time>
      </trkpt>
      <trkpt lat="47.22647" lon="6.04999">
        <ele>308.72</ele>
        <time>2015-07-12T08:20:22.000Z</time>
      </trkpt>
      <trkpt lat="47.22643" lon="6.04981">
        <ele>308.24</ele>
        <time>2015-07-12T08:20:24.000Z</time>
      </trkpt>
      <trkpt lat="47.22638" lon="6.04963">
        <ele>308.72</ele>
        <time>2015-07-12T08:20:26.000Z</time>
      </trkpt>
      <trkpt lat="47.22634" lon="6.04944">
        <ele>308.24</ele>
        <time>2015-07-12T08:20:28.000Z</time>
      </trkpt>
      <trkpt lat="47.22629" lon="6.04925">
        <ele>308.72</ele>
        <time>2015-07-12T08:20:30.000Z</time>
      </trkpt>
      <trkpt lat="47.22624" lon="6.04906">
        <ele>308.72</ele>
        <time>2015-07-12T08:20:32.000Z</time>
      </trkpt>
      <trkpt lat="47.22619" lon="6.04886">
        <ele>308.72</ele>
        <time>2015-07-12T08:20:34.000Z</time>
      </trkpt>
      <trkpt lat="47.22614" lon="6.04867">
        <ele>308.24</ele>
        <time>2015-07-12T08:20:36.000Z</time>
      </trkpt>
      <trkpt lat="47.2261" lon="6.04847">
        <ele>308.72</ele>
        <time>2015-07-12T08:20:38.000Z</time>
      </trkpt>
      <trkpt lat="47.22607" lon="6.04827">
        <ele>308.72</ele>
        <time>2015-07-12T08:20:40.000Z</time>
      </trkpt>
      <trkpt lat="47.22604" lon="6.04807">
        <ele>308.72</ele>
        <time>2015-07-12T08:20:42.000Z</time>
      </trkpt>
      <trkpt lat="47.22601" lon="6.04787">
        <ele>308.72</ele>
        <time>2015-07-12T08:20:44.000Z</time>
      </trkpt>
      <trkpt lat="47.22599" lon="6.04767">
        <ele>308.72</ele>
        <time>2015-07-12T08:20:46.000Z</time>
      </trkpt>
      <trkpt lat="47.22597" lon="6.04746">
        <ele>308.24</ele>
        <time>2015-07-12T08:20:48.000Z</time>
      </trkpt>
      <trkpt lat="47.22594" lon="6.04726">
        <ele>308.24</ele>
        <time>2015-07-12T08:20:50.000Z</time>
      </trkpt>
      <trkpt lat="47.22593" lon="6.04706">
        <ele>308.24</ele>
        <time>2015-07-12T08:20:52.000Z</time>
      </trkpt>
      <trkpt lat="47.22591" lon="6.04686">
        <ele>308.24</ele>
        <time>2015-07-12T08:20:54.000Z</time>
      </trkpt>
      <trkpt lat="47.22589" lon="6.04666">
        <ele>308.24</ele>
        <time>2015-07-12T08:20:56.000Z</time>
      </trkpt>
      <trkpt lat="47.22587" lon="6.04646">
        <ele>308.24</ele>
        <time>2015-07-12T08:20:58.000Z</time>
      </trkpt>
      <trkpt lat="47.22586" lon="6.04627">
        <ele>308.24</ele>
        <time>2015-07-12T08:21:00.000Z</time>
      </trkpt>
      <trkpt lat="47.22585" lon="6.04607">
        <ele>308.72</ele>
        <time>2015-07-12T08:21:02.000Z</time>
      </trkpt>
      <trkpt lat="47.22583" lon="6.04586">
        <ele>308.72</ele>
        <time>2015-07-12T08:21:04.000Z</time>
      </trkpt>
      <trkpt lat="47.22582" lon="6.04566">
        <ele>308.72</ele>
        <time>2015-07-12T08:21:06.000Z</time>
      </trkpt>
      <trkpt lat="47.22581" lon="6.04545">
        <ele>308.72</ele>
        <time>2015-07-12T08:21:08.000Z</time>
      </trkpt>
      <trkpt lat="47.2258" lon="6.04525">
        <ele>308.72</ele>
        <time>2015-07-12T08:21:10.000Z</time>
      </trkpt>
      <trkpt lat="47.2258" lon="6.04504">
        <ele>308.72</ele>
        <time>2015-07-12T08:21:12.000Z</time>
      </trkpt>
      <trkpt lat="47.2258" lon="6.04484">
        <ele>308.72</ele>
        <time>2015-07-12T08:21:14.000Z</time>
      </trkpt>
      <trkpt lat="47.22581" lon="6.04473">
        <ele>308.72</ele>
        <time>2015-07-12T08:21:15.000Z</time>
      </trkpt>
      <trkpt lat="47.22585" lon="6.04441">
        <ele>308.72</ele>
        <time>2015-07-12T08:21:18.000Z</time>
      </trkpt>
      <trkpt lat="47.22588" lon="6.0442">
        <ele>308.72</ele>
        <time>2015-07-12T08:21:20.000Z</time>
      </trkpt>
      <trkpt lat="47.22592" lon="6.04399">
        <ele>308.24</ele>
        <time>2015-07-12T08:21:22.000Z</time>
      </trkpt>
      <trkpt lat="47.22597" lon="6.04378">
        <ele>308.24</ele>
        <time>2015-07-12T08:21:24.000Z</time>
      </trkpt>
      <trkpt lat="47.226" lon="6.04358">
        <ele>308.72</ele>
        <time>2015-07-12T08:21:26.000Z</time>
      </trkpt>
      <trkpt lat="47.22603" lon="6.04339">
        <ele>308.72</ele>
        <time>2015-07-12T08:21:28.000Z</time>
      </trkpt>
      <trkpt lat="47.22606" lon="6.04325">
        <ele>308.24</ele>
        <time>2015-07-12T08:21:30.000Z</time>
      </trkpt>
      <trkpt lat="47.22609" lon="6.0431">
        <ele>308.24</ele>
        <time>2015-07-12T08:21:33.000Z</time>
      </trkpt>
      <trkpt lat="47.22613" lon="6.04292">
        <ele>308.24</ele>
        <time>2015-07-12T08:21:36.000Z</time>
      </trkpt>
      <trkpt lat="47.22617" lon="6.04277">
        <ele>308.24</ele>
        <time>2015-07-12T08:21:38.000Z</time>
      </trkpt>
      <trkpt lat="47.22621" lon="6.04263">
        <ele>308.24</ele>
        <time>2015-07-12T08:21:40.000Z</time>
      </trkpt>
      <trkpt lat="47.22627" lon="6.04249">
        <ele>308.24</ele>
        <time>2015-07-12T08:21:42.000Z</time>
      </trkpt>
      <trkpt lat="47.22632" lon="6.04233">
        <ele>308.24</ele>
        <time>2015-07-12T08:21:44.000Z</time>
      </trkpt>
      <trkpt lat="47.22637" lon="6.04217">
        <ele>308.24</ele>
        <time>2015-07-12T08:21:46.000Z</time>
      </trkpt>
      <trkpt lat="47.22642" lon="6.04201">
        <ele>308.24</ele>
        <time>2015-07-12T08:21:48.000Z</time>
      </trkpt>
      <trkpt lat="47.22644" lon="6.04192">
        <ele>308.24</ele>
        <time>2015-07-12T08:21:49.000Z</time>
      </trkpt>
      <trkpt lat="47.22652" lon="6.04168">
        <ele>308.24</ele>
        <time>2015-07-12T08:21:52.000Z</time>
      </trkpt>
      <trkpt lat="47.22657" lon="6.04152">
        <ele>308.24</ele>
        <time>2015-07-12T08:21:54.000Z</time>
      </trkpt>
      <trkpt lat="47.22663" lon="6.04138">
        <ele>308.24</ele>
        <time>2015-07-12T08:21:56.000Z</time>
      </trkpt>
      <trkpt lat="47.22668" lon="6.04124">
        <ele>308.24</ele>
        <time>2015-07-12T08:21:58.000Z</time>
      </trkpt>
      <trkpt lat="47.22673" lon="6.0411">
        <ele>308.72</ele>
        <time>2015-07-12T08:22:00.000Z</time>
      </trkpt>
      <trkpt lat="47.22678" lon="6.04097">
        <ele>308.24</ele>
        <time>2015-07-12T08:22:02.000Z</time>
      </trkpt>
      <trkpt lat="47.22684" lon="6.04084">
        <ele>308.24</ele>
        <time>2015-07-12T08:22:04.000Z</time>
      </trkpt>
      <trkpt lat="47.2269" lon="6.0407">
        <ele>308.24</ele>
        <time>2015-07-12T08:22:06.000Z</time>
      </trkpt>
      <trkpt lat="47.22697" lon="6.04056">
        <ele>308.24</ele>
        <time>2015-07-12T08:22:08.000Z</time>
      </trkpt>
      <trkpt lat="47.22703" lon="6.04042">
        <ele>307.76</ele>
        <time>2015-07-12T08:22:10.000Z</time>
      </trkpt>
      <trkpt lat="47.22709" lon="6.04028">
        <ele>308.24</ele>
        <time>2015-07-12T08:22:12.000Z</time>
      </trkpt>
      <trkpt lat="47.22715" lon="6.04014">
        <ele>308.24</ele>
        <time>2015-07-12T08:22:14.000Z</time>
      </trkpt>
      <trkpt lat="47.22721" lon="6.04001">
        <ele>308.24</ele>
        <time>2015-07-12T08:22:16.000Z</time>
      </trkpt>
      <trkpt lat="47.22728" lon="6.03987">
        <ele>307.76</ele>
        <time>2015-07-12T08:22:18.000Z</time>
      </trkpt>
      <trkpt lat="47.22734" lon="6.03973">
        <ele>308.24</ele>
        <time>2015-07-12T08:22:20.000Z</time>
      </trkpt>
      <trkpt lat="47.22742" lon="6.0396">
        <ele>308.24</ele>
        <time>2015-07-12T08:22:22.000Z</time>
      </trkpt>
      <trkpt lat="47.22751" lon="6.03947">
        <ele>307.76</ele>
        <time>2015-07-12T08:22:24.000Z</time>
      </trkpt>
      <trkpt lat="47.2276" lon="6.03933">
        <ele>308.24</ele>
        <time>2015-07-12T08:22:26.000Z</time>
      </trkpt>
      <trkpt lat="47.22769" lon="6.03921">
        <ele>308.24</ele>
        <time>2015-07-12T08:22:28.000Z</time>
      </trkpt>
      <trkpt lat="47.22778" lon="6.03911">
        <ele>308.24</ele>
        <time>2015-07-12T08:22:30.000Z</time>
      </trkpt>
      <trkpt lat="47.22787" lon="6.03902">
        <ele>308.72</ele>
        <time>2015-07-12T08:22:32.000Z</time>
      </trkpt>
      <trkpt lat="47.22797" lon="6.03893">
        <ele>308.24</ele>
        <time>2015-07-12T08:22:34.000Z</time>
      </trkpt>
      <trkpt lat="47.22808" lon="6.03885">
        <ele>308.24</ele>
        <time>2015-07-12T08:22:36.000Z</time>
      </trkpt>
      <trkpt lat="47.2282" lon="6.03877">
        <ele>308.24</ele>
        <time>2015-07-12T08:22:38.000Z</time>
      </trkpt>
      <trkpt lat="47.22831" lon="6.03869">
        <ele>308.72</ele>
        <time>2015-07-12T08:22:40.000Z</time>
      </trkpt>
      <trkpt lat="47.22842" lon="6.03864">
        <ele>309.2</ele>
        <time>2015-07-12T08:22:42.000Z</time>
      </trkpt>
      <trkpt lat="47.22852" lon="6.0386">
        <ele>309.68</ele>
        <time>2015-07-12T08:22:44.000Z</time>
      </trkpt>
      <trkpt lat="47.22861" lon="6.03856">
        <ele>309.68</ele>
        <time>2015-07-12T08:22:46.000Z</time>
      </trkpt>
      <trkpt lat="47.2287" lon="6.03852">
        <ele>310.16</ele>
        <time>2015-07-12T08:22:48.000Z</time>
      </trkpt>
      <trkpt lat="47.22879" lon="6.03846">
        <ele>309.68</ele>
        <time>2015-07-12T08:22:50.000Z</time>
      </trkpt>
      <trkpt lat="47.22887" lon="6.03839">
        <ele>309.68</ele>
        <time>2015-07-12T08:22:52.000Z</time>
      </trkpt>
      <trkpt lat="47.22897" lon="6.03832">
        <ele>309.68</ele>
        <time>2015-07-12T08:22:54.000Z</time>
      </trkpt>
      <trkpt lat="47.22907" lon="6.03824">
        <ele>310.16</ele>
        <time>2015-07-12T08:22:56.000Z</time>
      </trkpt>
      <trkpt lat="47.22916" lon="6.03817">
        <ele>309.68</ele>
        <time>2015-07-12T08:22:58.000Z</time>
      </trkpt>
      <trkpt lat="47.22926" lon="6.03809">
        <ele>309.68</ele>
        <time>2015-07-12T08:23:00.000Z</time>
      </trkpt>
      <trkpt lat="47.22937" lon="6.038">
        <ele>309.68</ele>
        <time>2015-07-12T08:23:02.000Z</time>
      </trkpt>
      <trkpt lat="47.22947" lon="6.03793">
        <ele>309.68</ele>
        <time>2015-07-12T08:23:04.000Z</time>
      </trkpt>
      <trkpt lat="47.22957" lon="6.03784">
        <ele>309.68</ele>
        <time>2015-07-12T08:23:06.000Z</time>
      </trkpt>
      <trkpt lat="47.22966" lon="6.03775">
        <ele>309.68</ele>
        <time>2015-07-12T08:23:08.000Z</time>
      </trkpt>
      <trkpt lat="47.22977" lon="6.03767">
        <ele>309.68</ele>
        <time>2015-07-12T08:23:10.000Z</time>
      </trkpt>
      <trkpt lat="47.22988" lon="6.03758">
        <ele>309.68</ele>
        <time>2015-07-12T08:23:12.000Z</time>
      </trkpt>
      <trkpt lat="47.22999" lon="6.03748">
        <ele>310.16</ele>
        <time>2015-07-12T08:23:14.000Z</time>
      </trkpt>
      <trkpt lat="47.2301" lon="6.0374">
        <ele>309.68</ele>
        <time>2015-07-12T08:23:16.000Z</time>
      </trkpt>
      <trkpt lat="47.2302" lon="6.03731">
        <ele>310.16</ele>
        <time>2015-07-12T08:23:18.000Z</time>
      </trkpt>
      <trkpt lat="47.2303" lon="6.03722">
        <ele>309.68</ele>
        <time>2015-07-12T08:23:20.000Z</time>
      </trkpt>
      <trkpt lat="47.23039" lon="6.03715">
        <ele>309.68</ele>
        <time>2015-07-12T08:23:22.000Z</time>
      </trkpt>
      <trkpt lat="47.23048" lon="6.03707">
        <ele>309.68</ele>
        <time>2015-07-12T08:23:25.000Z</time>
      </trkpt>
      <trkpt lat="47.23057" lon="6.037">
        <ele>310.16</ele>
        <time>2015-07-12T08:23:30.000Z</time>
      </trkpt>
      <trkpt lat="47.23067" lon="6.03694">
        <ele>309.68</ele>
        <time>2015-07-12T08:23:34.000Z</time>
      </trkpt>
      <trkpt lat="47.23076" lon="6.03687">
        <ele>310.16</ele>
        <time>2015-07-12T08:23:37.000Z</time>
      </trkpt>
      <trkpt lat="47.23087" lon="6.03679">
        <ele>310.16</ele>
        <time>2015-07-12T08:23:40.000Z</time>
      </trkpt>
      <trkpt lat="47.23098" lon="6.03668">
        <ele>310.16</ele>
        <time>2015-07-12T08:23:43.000Z</time>
      </trkpt>
      <trkpt lat="47.23108" lon="6.03657">
        <ele>310.16</ele>
        <time>2015-07-12T08:23:46.000Z</time>
      </trkpt>
      <trkpt lat="47.23119" lon="6.03647">
        <ele>309.68</ele>
        <time>2015-07-12T08:23:49.000Z</time>
      </trkpt>
      <trkpt lat="47.23128" lon="6.03638">
        <ele>310.16</ele>
        <time>2015-07-12T08:23:52.000Z</time>
      </trkpt>
      <trkpt lat="47.23135" lon="6.03627">
        <ele>309.68</ele>
        <time>2015-07-12T08:23:55.000Z</time>
      </trkpt>
      <trkpt lat="47.23141" lon="6.03614">
        <ele>310.16</ele>
        <time>2015-07-12T08:23:59.000Z</time>
      </trkpt>
      <trkpt lat="47.23146" lon="6.03598">
        <ele>309.68</ele>
        <time>2015-07-12T08:24:09.000Z</time>
      </trkpt>
      <trkpt lat="47.23144" lon="6.03605">
        <ele>310.16</ele>
        <time>2015-07-12T08:24:23.000Z</time>
      </trkpt>
      <trkpt lat="47.23137" lon="6.03614">
        <ele>310.16</ele>
        <time>2015-07-12T08:24:28.000Z</time>
      </trkpt>
      <trkpt lat="47.2313" lon="6.03628">
        <ele>310.16</ele>
        <time>2015-07-12T08:24:33.000Z</time>
      </trkpt>
      <trkpt lat="47.23123" lon="6.03637">
        <ele>309.68</ele>
        <time>2015-07-12T08:24:37.000Z</time>
      </trkpt>
      <trkpt lat="47.23121" lon="6.03627">
        <ele>310.64</ele>
        <time>2015-07-12T08:24:42.000Z</time>
      </trkpt>
      <trkpt lat="47.23128" lon="6.03618">
        <ele>311.6</ele>
        <time>2015-07-12T08:24:46.000Z</time>
      </trkpt>
      <trkpt lat="47.23132" lon="6.03606">
        <ele>312.57</ele>
        <time>2015-07-12T08:24:50.000Z</time>
      </trkpt>
      <trkpt lat="47.23137" lon="6.03594">
        <ele>312.57</ele>
        <time>2015-07-12T08:24:56.000Z</time>
      </trkpt>
      <trkpt lat="47.23147" lon="6.03583">
        <ele>312.57</ele>
        <time>2015-07-12T08:25:01.000Z</time>
      </trkpt>
      <trkpt lat="47.23159" lon="6.03578">
        <ele>312.57</ele>
        <time>2015-07-12T08:25:05.000Z</time>
      </trkpt>
      <trkpt lat="47.2317" lon="6.03583">
        <ele>312.09</ele>
        <time>2015-07-12T08:25:08.000Z</time>
      </trkpt>
      <trkpt lat="47.23183" lon="6.0359">
        <ele>312.57</ele>
        <time>2015-07-12T08:25:11.000Z</time>
      </trkpt>
      <trkpt lat="47.23192" lon="6.03593">
        <ele>312.09</ele>
        <time>2015-07-12T08:25:13.000Z</time>
      </trkpt>
      <trkpt lat="47.23203" lon="6.03595">
        <ele>312.09</ele>
        <time>2015-07-12T08:25:15.000Z</time>
      </trkpt>
      <trkpt lat="47.23212" lon="6.03598">
        <ele>311.6</ele>
        <time>2015-07-12T08:25:17.000Z</time>
      </trkpt>
      <trkpt lat="47.23222" lon="6.036">
        <ele>310.64</ele>
        <time>2015-07-12T08:25:21.000Z</time>
      </trkpt>
      <trkpt lat="47.23232" lon="6.03598">
        <ele>310.64</ele>
        <time>2015-07-12T08:25:46.000Z</time>
      </trkpt>
      <trkpt lat="47.23243" lon="6.03596">
        <ele>310.16</ele>
        <time>2015-07-12T08:25:50.000Z</time>
      </trkpt>
      <trkpt lat="47.23251" lon="6.03591">
        <ele>310.64</ele>
        <time>2015-07-12T08:25:53.000Z</time>
      </trkpt>
      <trkpt lat="47.23262" lon="6.03587">
        <ele>310.64</ele>
        <time>2015-07-12T08:25:56.000Z</time>
      </trkpt>
      <trkpt lat="47.23273" lon="6.0358">
        <ele>310.64</ele>
        <time>2015-07-12T08:25:59.000Z</time>
      </trkpt>
      <trkpt lat="47.23285" lon="6.03576">
        <ele>310.64</ele>
        <time>2015-07-12T08:26:02.000Z</time>
      </trkpt>
      <trkpt lat="47.23296" lon="6.03571">
        <ele>311.12</ele>
        <time>2015-07-12T08:26:05.000Z</time>
      </trkpt>
      <trkpt lat="47.23307" lon="6.03564">
        <ele>310.64</ele>
        <time>2015-07-12T08:26:08.000Z</time>
      </trkpt>
      <trkpt lat="47.2332" lon="6.03558">
        <ele>311.12</ele>
        <time>2015-07-12T08:26:11.000Z</time>
      </trkpt>
      <trkpt lat="47.23331" lon="6.03552">
        <ele>310.64</ele>
        <time>2015-07-12T08:26:14.000Z</time>
      </trkpt>
      <trkpt lat="47.23343" lon="6.03546">
        <ele>311.12</ele>
        <time>2015-07-12T08:26:17.000Z</time>
      </trkpt>
      <trkpt lat="47.23355" lon="6.0354">
        <ele>311.12</ele>
        <time>2015-07-12T08:26:20.000Z</time>
      </trkpt>
      <trkpt lat="47.23367" lon="6.03533">
        <ele>310.64</ele>
        <time>2015-07-12T08:26:23.000Z</time>
      </trkpt>
      <trkpt lat="47.23378" lon="6.03525">
        <ele>311.12</ele>
        <time>2015-07-12T08:26:26.000Z</time>
      </trkpt>
      <trkpt lat="47.23389" lon="6.03517">
        <ele>310.64</ele>
        <time>2015-07-12T08:26:29.000Z</time>
      </trkpt>
      <trkpt lat="47.234" lon="6.03511">
        <ele>310.64</ele>
        <time>2015-07-12T08:26:32.000Z</time>
      </trkpt>
      <trkpt lat="47.23412" lon="6.03504">
        <ele>310.64</ele>
        <time>2015-07-12T08:26:35.000Z</time>
      </trkpt>
      <trkpt lat="47.23423" lon="6.03498">
        <ele>311.12</ele>
        <time>2015-07-12T08:26:38.000Z</time>
      </trkpt>
      <trkpt lat="47.23434" lon="6.03491">
        <ele>311.12</ele>
        <time>2015-07-12T08:26:41.000Z</time>
      </trkpt>
      <trkpt lat="47.23444" lon="6.03485">
        <ele>311.12</ele>
        <time>2015-07-12T08:26:44.000Z</time>
      </trkpt>
      <trkpt lat="47.23453" lon="6.03479">
        <ele>311.12</ele>
        <time>2015-07-12T08:26:47.000Z</time>
      </trkpt>
      <trkpt lat="47.23462" lon="6.03472">
        <ele>311.12</ele>
        <time>2015-07-12T08:26:50.000Z</time>
      </trkpt>
      <trkpt lat="47.2347" lon="6.03463">
        <ele>310.64</ele>
        <time>2015-07-12T08:26:53.000Z</time>
      </trkpt>
      <trkpt lat="47.23479" lon="6.03452">
        <ele>310.64</ele>
        <time>2015-07-12T08:26:56.000Z</time>
      </trkpt>
      <trkpt lat="47.23489" lon="6.03443">
        <ele>310.16</ele>
        <time>2015-07-12T08:26:59.000Z</time>
      </trkpt>
      <trkpt lat="47.23499" lon="6.03437">
        <ele>310.64</ele>
        <time>2015-07-12T08:27:02.000Z</time>
      </trkpt>
      <trkpt lat="47.23508" lon="6.03432">
        <ele>310.16</ele>
        <time>2015-07-12T08:27:05.000Z</time>
      </trkpt>
      <trkpt lat="47.23518" lon="6.03428">
        <ele>310.16</ele>
        <time>2015-07-12T08:27:08.000Z</time>
      </trkpt>
      <trkpt lat="47.23529" lon="6.03429">
        <ele>310.16</ele>
        <time>2015-07-12T08:27:11.000Z</time>
      </trkpt>
      <trkpt lat="47.23538" lon="6.03435">
        <ele>310.16</ele>
        <time>2015-07-12T08:27:14.000Z</time>
      </trkpt>
      <trkpt lat="47.23547" lon="6.03441">
        <ele>310.16</ele>
        <time>2015-07-12T08:27:17.000Z</time>
      </trkpt>
      <trkpt lat="47.23558" lon="6.03446">
        <ele>310.16</ele>
        <time>2015-07-12T08:27:21.000Z</time>
      </trkpt>
      <trkpt lat="47.23568" lon="6.03443">
        <ele>310.64</ele>
        <time>2015-07-12T08:27:24.000Z</time>
      </trkpt>
      <trkpt lat="47.23581" lon="6.03434">
        <ele>310.64</ele>
        <time>2015-07-12T08:27:27.000Z</time>
      </trkpt>
      <trkpt lat="47.23594" lon="6.03426">
        <ele>310.16</ele>
        <time>2015-07-12T08:27:30.000Z</time>
      </trkpt>
      <trkpt lat="47.23605" lon="6.03417">
        <ele>310.64</ele>
        <time>2015-07-12T08:27:33.000Z</time>
      </trkpt>
      <trkpt lat="47.23617" lon="6.03409">
        <ele>310.64</ele>
        <time>2015-07-12T08:27:36.000Z</time>
      </trkpt>
      <trkpt lat="47.23627" lon="6.03402">
        <ele>310.16</ele>
        <time>2015-07-12T08:27:39.000Z</time>
      </trkpt>
      <trkpt lat="47.23638" lon="6.03395">
        <ele>310.64</ele>
        <time>2015-07-12T08:27:42.000Z</time>
      </trkpt>
      <trkpt lat="47.23648" lon="6.03387">
        <ele>310.64</ele>
        <time>2015-07-12T08:27:45.000Z</time>
      </trkpt>
      <trkpt lat="47.23658" lon="6.03381">
        <ele>310.64</ele>
        <time>2015-07-12T08:27:48.000Z</time>
      </trkpt>
      <trkpt lat="47.23668" lon="6.03376">
        <ele>310.64</ele>
        <time>2015-07-12T08:27:51.000Z</time>
      </trkpt>
      <trkpt lat="47.23679" lon="6.03369">
        <ele>310.64</ele>
        <time>2015-07-12T08:27:54.000Z</time>
      </trkpt>
      <trkpt lat="47.23689" lon="6.03363">
        <ele>310.64</ele>
        <time>2015-07-12T08:27:57.000Z</time>
      </trkpt>
      <trkpt lat="47.23698" lon="6.03356">
        <ele>310.64</ele>
        <time>2015-07-12T08:28:00.000Z</time>
      </trkpt>
      <trkpt lat="47.23708" lon="6.03348">
        <ele>310.64</ele>
        <time>2015-07-12T08:28:03.000Z</time>
      </trkpt>
      <trkpt lat="47.23719" lon="6.03341">
        <ele>310.64</ele>
        <time>2015-07-12T08:28:06.000Z</time>
      </trkpt>
      <trkpt lat="47.23728" lon="6.03334">
        <ele>310.64</ele>
        <time>2015-07-12T08:28:09.000Z</time>
      </trkpt>
      <trkpt lat="47.23739" lon="6.03327">
        <ele>310.64</ele>
        <time>2015-07-12T08:28:12.000Z</time>
      </trkpt>
      <trkpt lat="47.23748" lon="6.03319">
        <ele>310.64</ele>
        <time>2015-07-12T08:28:15.000Z</time>
      </trkpt>
      <trkpt lat="47.23754" lon="6.03309">
        <ele>310.64</ele>
        <time>2015-07-12T08:28:18.000Z</time>
      </trkpt>
      <trkpt lat="47.2376" lon="6.03297">
        <ele>310.64</ele>
        <time>2015-07-12T08:28:22.000Z</time>
      </trkpt>
      <trkpt lat="47.23765" lon="6.03283">
        <ele>310.64</ele>
        <time>2015-07-12T08:28:27.000Z</time>
      </trkpt>
      <trkpt lat="47.23772" lon="6.0327">
        <ele>310.64</ele>
        <time>2015-07-12T08:28:32.000Z</time>
      </trkpt>
      <trkpt lat="47.23781" lon="6.03255">
        <ele>310.64</ele>
        <time>2015-07-12T08:28:38.000Z</time>
      </trkpt>
      <trkpt lat="47.23787" lon="6.03266">
        <ele>311.6</ele>
        <time>2015-07-12T08:30:41.000Z</time>
      </trkpt>
      <trkpt lat="47.23793" lon="6.03277">
        <ele>312.09</ele>
        <time>2015-07-12T08:31:05.000Z</time>
      </trkpt>
      <trkpt lat="47.23792" lon="6.03272">
        <ele>311.6</ele>
        <time>2015-07-12T08:31:53.000Z</time>
      </trkpt>
      <trkpt lat="47.2379" lon="6.03263">
        <ele>311.12</ele>
        <time>2015-07-12T08:32:16.000Z</time>
      </trkpt>
      <trkpt lat="47.23789" lon="6.03253">
        <ele>310.64</ele>
        <time>2015-07-12T08:33:11.000Z</time>
      </trkpt>
      <trkpt lat="47.23791" lon="6.03231">
        <ele>310.16</ele>
        <time>2015-07-12T08:33:18.000Z</time>
      </trkpt>
      <trkpt lat="47.23797" lon="6.03214">
        <ele>310.16</ele>
        <time>2015-07-12T08:33:22.000Z</time>
      </trkpt>
      <trkpt lat="47.23805" lon="6.03204">
        <ele>309.68</ele>
        <time>2015-07-12T08:33:25.000Z</time>
      </trkpt>
      <trkpt lat="47.23815" lon="6.03192">
        <ele>309.68</ele>
        <time>2015-07-12T08:33:28.000Z</time>
      </trkpt>
      <trkpt lat="47.23824" lon="6.0318">
        <ele>309.68</ele>
        <time>2015-07-12T08:33:31.000Z</time>
      </trkpt>
      <trkpt lat="47.23832" lon="6.0317">
        <ele>309.68</ele>
        <time>2015-07-12T08:33:34.000Z</time>
      </trkpt>
      <trkpt lat="47.23841" lon="6.03158">
        <ele>309.68</ele>
        <time>2015-07-12T08:33:37.000Z</time>
      </trkpt>
      <trkpt lat="47.23851" lon="6.03147">
        <ele>310.16</ele>
        <time>2015-07-12T08:33:40.000Z</time>
      </trkpt>
      <trkpt lat="47.2386" lon="6.03137">
        <ele>310.16</ele>
        <time>2015-07-12T08:33:43.000Z</time>
      </trkpt>
      <trkpt lat="47.23869" lon="6.03127">
        <ele>310.16</ele>
        <time>2015-07-12T08:33:46.000Z</time>
      </trkpt>
      <trkpt lat="47.23877" lon="6.03115">
        <ele>310.16</ele>
        <time>2015-07-12T08:33:49.000Z</time>
      </trkpt>
      <trkpt lat="47.23892" lon="6.031">
        <ele>309.68</ele>
        <time>2015-07-12T08:33:52.000Z</time>
      </trkpt>
      <trkpt lat="47.23905" lon="6.03087">
        <ele>309.68</ele>
        <time>2015-07-12T08:33:54.000Z</time>
      </trkpt>
      <trkpt lat="47.23917" lon="6.03073">
        <ele>309.68</ele>
        <time>2015-07-12T08:33:57.000Z</time>
      </trkpt>
      <trkpt lat="47.23928" lon="6.03062">
        <ele>309.68</ele>
        <time>2015-07-12T08:34:00.000Z</time>
      </trkpt>
      <trkpt lat="47.23937" lon="6.03052">
        <ele>309.2</ele>
        <time>2015-07-12T08:34:03.000Z</time>
      </trkpt>
      <trkpt lat="47.23945" lon="6.0304">
        <ele>308.72</ele>
        <time>2015-07-12T08:34:34.000Z</time>
      </trkpt>
      <trkpt lat="47.23952" lon="6.03028">
        <ele>309.68</ele>
        <time>2015-07-12T08:34:38.000Z</time>
      </trkpt>
      <trkpt lat="47.2396" lon="6.03019">
        <ele>309.2</ele>
        <time>2015-07-12T08:34:41.000Z</time>
      </trkpt>
      <trkpt lat="47.23968" lon="6.03008">
        <ele>309.2</ele>
        <time>2015-07-12T08:34:44.000Z</time>
      </trkpt>
      <trkpt lat="47.23976" lon="6.02998">
        <ele>308.72</ele>
        <time>2015-07-12T08:34:47.000Z</time>
      </trkpt>
      <trkpt lat="47.23984" lon="6.02986">
        <ele>309.2</ele>
        <time>2015-07-12T08:34:50.000Z</time>
      </trkpt>
      <trkpt lat="47.23992" lon="6.02973">
        <ele>308.72</ele>
        <time>2015-07-12T08:34:53.000Z</time>
      </trkpt>
      <trkpt lat="47.23998" lon="6.0296">
        <ele>309.2</ele>
        <time>2015-07-12T08:34:56.000Z</time>
      </trkpt>
      <trkpt lat="47.24007" lon="6.02946">
        <ele>308.72</ele>
        <time>2015-07-12T08:34:59.000Z</time>
      </trkpt>
      <trkpt lat="47.24015" lon="6.0293">
        <ele>309.2</ele>
        <time>2015-07-12T08:35:02.000Z</time>
      </trkpt>
      <trkpt lat="47.24023" lon="6.02912">
        <ele>309.68</ele>
        <time>2015-07-12T08:35:05.000Z</time>
      </trkpt>
      <trkpt lat="47.24029" lon="6.02895">
        <ele>309.68</ele>
        <time>2015-07-12T08:35:08.000Z</time>
      </trkpt>
      <trkpt lat="47.24036" lon="6.02877">
        <ele>309.68</ele>
        <time>2015-07-12T08:35:11.000Z</time>
      </trkpt>
      <trkpt lat="47.24042" lon="6.0286">
        <ele>309.68</ele>
        <time>2015-07-12T08:35:14.000Z</time>
      </trkpt>
      <trkpt lat="47.24049" lon="6.02844">
        <ele>309.68</ele>
        <time>2015-07-12T08:35:17.000Z</time>
      </trkpt>
      <trkpt lat="47.24056" lon="6.0283">
        <ele>309.68</ele>
        <time>2015-07-12T08:35:20.000Z</time>
      </trkpt>
      <trkpt lat="47.24062" lon="6.02819">
        <ele>310.16</ele>
        <time>2015-07-12T08:35:23.000Z</time>
      </trkpt>
      <trkpt lat="47.24058" lon="6.02809">
        <ele>310.16</ele>
        <time>2015-07-12T08:35:39.000Z</time>
      </trkpt>
      <trkpt lat="47.24052" lon="6.02797">
        <ele>309.68</ele>
        <time>2015-07-12T08:35:47.000Z</time>
      </trkpt>
      <trkpt lat="47.24048" lon="6.02781">
        <ele>309.68</ele>
        <time>2015-07-12T08:35:54.000Z</time>
      </trkpt>
      <trkpt lat="47.24049" lon="6.02769">
        <ele>309.68</ele>
        <time>2015-07-12T08:36:03.000Z</time>
      </trkpt>
      <trkpt lat="47.24056" lon="6.02766">
        <ele>309.68</ele>
        <time>2015-07-12T08:36:22.000Z</time>
      </trkpt>
      <trkpt lat="47.24056" lon="6.02764">
        <ele>310.16</ele>
        <time>2015-07-12T08:40:20.000Z</time>
      </trkpt>
      <trkpt lat="47.24045" lon="6.02762">
        <ele>310.16</ele>
        <time>2015-07-12T08:45:57.000Z</time>
      </trkpt>
      <trkpt lat="47.24045" lon="6.02756">
        <ele>310.16</ele>
        <time>2015-07-12T08:46:19.000Z</time>
      </trkpt>
      <trkpt lat="47.24041" lon="6.02742">
        <ele>310.16</ele>
        <time>2015-07-12T08:46:26.000Z</time>
      </trkpt>
      <trkpt lat="47.24034" lon="6.02733">
        <ele>309.68</ele>
        <time>2015-07-12T08:46:33.000Z</time>
      </trkpt>
      <trkpt lat="47.24028" lon="6.02724">
        <ele>309.68</ele>
        <time>2015-07-12T08:46:39.000Z</time>
      </trkpt>
      <trkpt lat="47.24033" lon="6.02714">
        <ele>309.68</ele>
        <time>2015-07-12T08:46:44.000Z</time>
      </trkpt>
      <trkpt lat="47.24039" lon="6.02705">
        <ele>309.68</ele>
        <time>2015-07-12T08:46:49.000Z</time>
      </trkpt>
      <trkpt lat="47.24038" lon="6.02695">
        <ele>310.64</ele>
        <time>2015-07-12T08:47:22.000Z</time>
      </trkpt>
      <trkpt lat="47.24035" lon="6.02679">
        <ele>310.64</ele>
        <time>2015-07-12T08:47:27.000Z</time>
      </trkpt>
      <trkpt lat="47.24031" lon="6.02666">
        <ele>310.16</ele>
        <time>2015-07-12T08:47:31.000Z</time>
      </trkpt>
      <trkpt lat="47.24028" lon="6.02653">
        <ele>310.16</ele>
        <time>2015-07-12T08:47:35.000Z</time>
      </trkpt>
      <trkpt lat="47.24023" lon="6.02639">
        <ele>310.64</ele>
        <time>2015-07-12T08:47:40.000Z</time>
      </trkpt>
      <trkpt lat="47.2401" lon="6.0263">
        <ele>310.64</ele>
        <time>2015-07-12T08:47:54.000Z</time>
      </trkpt>
      <trkpt lat="47.23992" lon="6.02622">
        <ele>310.64</ele>
        <time>2015-07-12T08:47:59.000Z</time>
      </trkpt>
      <trkpt lat="47.23974" lon="6.02619">
        <ele>310.64</ele>
        <time>2015-07-12T08:48:03.000Z</time>
      </trkpt>
      <trkpt lat="47.23966" lon="6.02608">
        <ele>311.12</ele>
        <time>2015-07-12T08:48:07.000Z</time>
      </trkpt>
      <trkpt lat="47.23962" lon="6.02598">
        <ele>311.12</ele>
        <time>2015-07-12T08:48:10.000Z</time>
      </trkpt>
      <trkpt lat="47.23954" lon="6.02582">
        <ele>311.6</ele>
        <time>2015-07-12T08:48:15.000Z</time>
      </trkpt>
      <trkpt lat="47.23946" lon="6.02569">
        <ele>311.6</ele>
        <time>2015-07-12T08:48:19.000Z</time>
      </trkpt>
      <trkpt lat="47.23937" lon="6.02557">
        <ele>311.6</ele>
        <time>2015-07-12T08:48:23.000Z</time>
      </trkpt>
      <trkpt lat="47.23932" lon="6.02551">
        <ele>311.6</ele>
        <time>2015-07-12T08:48:41.000Z</time>
      </trkpt>
      <trkpt lat="47.23928" lon="6.0255">
        <ele>312.09</ele>
        <time>2015-07-12T08:49:59.000Z</time>
      </trkpt>
      <trkpt lat="47.23927" lon="6.02546">
        <ele>312.09</ele>
        <time>2015-07-12T08:52:00.000Z</time>
      </trkpt>
      <trkpt lat="47.23917" lon="6.02536">
        <ele>312.09</ele>
        <time>2015-07-12T08:52:05.000Z</time>
      </trkpt>
      <trkpt lat="47.23909" lon="6.02524">
        <ele>312.57</ele>
        <time>2015-07-12T08:52:10.000Z</time>
      </trkpt>
      <trkpt lat="47.23903" lon="6.02512">
        <ele>312.57</ele>
        <time>2015-07-12T08:52:17.000Z</time>
      </trkpt>
      <trkpt lat="47.23894" lon="6.025">
        <ele>312.57</ele>
        <time>2015-07-12T08:52:23.000Z</time>
      </trkpt>
      <trkpt lat="47.23885" lon="6.02491">
        <ele>312.57</ele>
        <time>2015-07-12T08:52:28.000Z</time>
      </trkpt>
      <trkpt lat="47.23879" lon="6.02479">
        <ele>312.57</ele>
        <time>2015-07-12T08:52:32.000Z</time>
      </trkpt>
      <trkpt lat="47.23876" lon="6.02466">
        <ele>313.05</ele>
        <time>2015-07-12T08:52:36.000Z</time>
      </trkpt>
      <trkpt lat="47.2387" lon="6.02454">
        <ele>312.57</ele>
        <time>2015-07-12T08:52:40.000Z</time>
      </trkpt>
      <trkpt lat="47.23862" lon="6.02443">
        <ele>312.57</ele>
        <time>2015-07-12T08:52:44.000Z</time>
      </trkpt>
      <trkpt lat="47.23856" lon="6.02435">
        <ele>313.05</ele>
        <time>2015-07-12T08:52:47.000Z</time>
      </trkpt>
      <trkpt lat="47.23846" lon="6.02429">
        <ele>313.05</ele>
        <time>2015-07-12T08:52:51.000Z</time>
      </trkpt>
      <trkpt lat="47.23829" lon="6.02425">
        <ele>313.05</ele>
        <time>2015-07-12T08:52:59.000Z</time>
      </trkpt>
      <trkpt lat="47.23827" lon="6.02418">
        <ele>313.05</ele>
        <time>2015-07-12T08:53:26.000Z</time>
      </trkpt>
      <trkpt lat="47.23825" lon="6.0242">
        <ele>311.12</ele>
        <time>2015-07-12T08:53:58.000Z</time>
      </trkpt>
      <trkpt lat="47.23825" lon="6.0242">
        <ele>266.42</ele>
        <time>2015-07-12T09:14:35.000Z</time>
      </trkpt>
      <trkpt lat="47.23792" lon="6.02553">
        <ele>313.05</ele>
        <time>2015-07-12T09:14:42.000Z</time>
      </trkpt>
      <trkpt lat="47.23819" lon="6.02421">
        <ele>311.6</ele>
        <time>2015-07-12T09:16:58.000Z</time>
      </trkpt>
      <trkpt lat="47.23819" lon="6.02421">
        <ele>251.04</ele>
        <time>2015-07-12T09:25:59.000Z</time>
      </trkpt>
      <trkpt lat="47.23817" lon="6.02408">
        <ele>312.09</ele>
        <time>2015-07-12T09:26:12.000Z</time>
      </trkpt>
      <trkpt lat="47.23812" lon="6.02424">
        <ele>313.53</ele>
        <time>2015-07-12T09:31:39.000Z</time>
      </trkpt>
      <trkpt lat="47.23803" lon="6.02427">
        <ele>314.01</ele>
        <time>2015-07-12T09:33:53.000Z</time>
      </trkpt>
      <trkpt lat="47.23793" lon="6.02426">
        <ele>313.05</ele>
        <time>2015-07-12T09:33:58.000Z</time>
      </trkpt>
      <trkpt lat="47.23783" lon="6.02427">
        <ele>313.53</ele>
        <time>2015-07-12T09:34:04.000Z</time>
      </trkpt>
      <trkpt lat="47.23774" lon="6.02429">
        <ele>314.01</ele>
        <time>2015-07-12T09:34:14.000Z</time>
      </trkpt>
      <trkpt lat="47.23769" lon="6.02422">
        <ele>313.53</ele>
        <time>2015-07-12T09:34:30.000Z</time>
      </trkpt>
      <trkpt lat="47.23758" lon="6.02409">
        <ele>312.57</ele>
        <time>2015-07-12T09:34:36.000Z</time>
      </trkpt>
      <trkpt lat="47.23748" lon="6.02393">
        <ele>312.57</ele>
        <time>2015-07-12T09:34:41.000Z</time>
      </trkpt>
      <trkpt lat="47.23739" lon="6.02387">
        <ele>313.05</ele>
        <time>2015-07-12T09:34:47.000Z</time>
      </trkpt>
      <trkpt lat="47.23729" lon="6.02377">
        <ele>313.05</ele>
        <time>2015-07-12T09:34:54.000Z</time>
      </trkpt>
      <trkpt lat="47.2372" lon="6.02363">
        <ele>312.57</ele>
        <time>2015-07-12T09:34:58.000Z</time>
      </trkpt>
      <trkpt lat="47.23703" lon="6.02345">
        <ele>312.57</ele>
        <time>2015-07-12T09:35:04.000Z</time>
      </trkpt>
      <trkpt lat="47.23692" lon="6.02334">
        <ele>312.57</ele>
        <time>2015-07-12T09:35:08.000Z</time>
      </trkpt>
      <trkpt lat="47.23684" lon="6.02324">
        <ele>312.09</ele>
        <time>2015-07-12T09:35:12.000Z</time>
      </trkpt>
      <trkpt lat="47.23675" lon="6.02315">
        <ele>312.09</ele>
        <time>2015-07-12T09:35:16.000Z</time>
      </trkpt>
      <trkpt lat="47.23667" lon="6.02307">
        <ele>311.6</ele>
        <time>2015-07-12T09:35:20.000Z</time>
      </trkpt>
      <trkpt lat="47.23656" lon="6.02296">
        <ele>311.12</ele>
        <time>2015-07-12T09:35:25.000Z</time>
      </trkpt>
      <trkpt lat="47.23655" lon="6.02277">
        <ele>312.09</ele>
        <time>2015-07-12T09:35:48.000Z</time>
      </trkpt>
      <trkpt lat="47.23661" lon="6.02264">
        <ele>310.64</ele>
        <time>2015-07-12T09:35:53.000Z</time>
      </trkpt>
      <trkpt lat="47.23668" lon="6.02253">
        <ele>310.64</ele>
        <time>2015-07-12T09:35:57.000Z</time>
      </trkpt>
      <trkpt lat="47.23674" lon="6.02242">
        <ele>309.68</ele>
        <time>2015-07-12T09:36:01.000Z</time>
      </trkpt>
      <trkpt lat="47.2368" lon="6.02231">
        <ele>310.16</ele>
        <time>2015-07-12T09:36:05.000Z</time>
      </trkpt>
      <trkpt lat="47.23685" lon="6.02219">
        <ele>311.6</ele>
        <time>2015-07-12T09:36:10.000Z</time>
      </trkpt>
      <trkpt lat="47.23683" lon="6.02207">
        <ele>311.12</ele>
        <time>2015-07-12T09:36:18.000Z</time>
      </trkpt>
      <trkpt lat="47.23673" lon="6.02201">
        <ele>310.64</ele>
        <time>2015-07-12T09:36:23.000Z</time>
      </trkpt>
      <trkpt lat="47.23658" lon="6.02186">
        <ele>310.16</ele>
        <time>2015-07-12T09:36:27.000Z</time>
      </trkpt>
      <trkpt lat="47.23646" lon="6.0218">
        <ele>310.16</ele>
        <time>2015-07-12T09:36:31.000Z</time>
      </trkpt>
      <trkpt lat="47.23635" lon="6.02175">
        <ele>310.16</ele>
        <time>2015-07-12T09:36:35.000Z</time>
      </trkpt>
      <trkpt lat="47.23623" lon="6.02169">
        <ele>311.12</ele>
        <time>2015-07-12T09:36:39.000Z</time>
      </trkpt>
      <trkpt lat="47.23613" lon="6.02163">
        <ele>311.12</ele>
        <time>2015-07-12T09:36:42.000Z</time>
      </trkpt>
      <trkpt lat="47.23603" lon="6.02157">
        <ele>311.12</ele>
        <time>2015-07-12T09:36:45.000Z</time>
      </trkpt>
      <trkpt lat="47.23592" lon="6.02151">
        <ele>310.64</ele>
        <time>2015-07-12T09:36:48.000Z</time>
      </trkpt>
      <trkpt lat="47.23582" lon="6.02146">
        <ele>310.16</ele>
        <time>2015-07-12T09:36:51.000Z</time>
      </trkpt>
      <trkpt lat="47.23572" lon="6.02141">
        <ele>310.64</ele>
        <time>2015-07-12T09:36:54.000Z</time>
      </trkpt>
      <trkpt lat="47.23562" lon="6.02136">
        <ele>310.64</ele>
        <time>2015-07-12T09:36:57.000Z</time>
      </trkpt>
      <trkpt lat="47.23553" lon="6.02132">
        <ele>310.16</ele>
        <time>2015-07-12T09:37:00.000Z</time>
      </trkpt>
      <trkpt lat="47.23544" lon="6.02126">
        <ele>310.16</ele>
        <time>2015-07-12T09:37:03.000Z</time>
      </trkpt>
      <trkpt lat="47.23534" lon="6.02119">
        <ele>310.16</ele>
        <time>2015-07-12T09:37:06.000Z</time>
      </trkpt>
      <trkpt lat="47.23524" lon="6.02112">
        <ele>310.16</ele>
        <time>2015-07-12T09:37:09.000Z</time>
      </trkpt>
      <trkpt lat="47.23514" lon="6.02104">
        <ele>310.16</ele>
        <time>2015-07-12T09:37:12.000Z</time>
      </trkpt>
      <trkpt lat="47.23504" lon="6.02094">
        <ele>310.16</ele>
        <time>2015-07-12T09:37:15.000Z</time>
      </trkpt>
      <trkpt lat="47.23495" lon="6.02085">
        <ele>310.16</ele>
        <time>2015-07-12T09:37:18.000Z</time>
      </trkpt>
      <trkpt lat="47.23486" lon="6.02076">
        <ele>309.68</ele>
        <time>2015-07-12T09:37:21.000Z</time>
      </trkpt>
      <trkpt lat="47.23476" lon="6.02067">
        <ele>309.2</ele>
        <time>2015-07-12T09:37:24.000Z</time>
      </trkpt>
      <trkpt lat="47.23468" lon="6.02059">
        <ele>308.72</ele>
        <time>2015-07-12T09:37:27.000Z</time>
      </trkpt>
      <trkpt lat="47.2346" lon="6.02052">
        <ele>308.72</ele>
        <time>2015-07-12T09:37:30.000Z</time>
      </trkpt>
      <trkpt lat="47.23451" lon="6.02042">
        <ele>309.68</ele>
        <time>2015-07-12T09:38:18.000Z</time>
      </trkpt>
      <trkpt lat="47.23445" lon="6.02032">
        <ele>309.68</ele>
        <time>2015-07-12T09:38:22.000Z</time>
      </trkpt>
      <trkpt lat="47.23443" lon="6.02015">
        <ele>309.68</ele>
        <time>2015-07-12T09:38:26.000Z</time>
      </trkpt>
      <trkpt lat="47.23437" lon="6.02003">
        <ele>309.68</ele>
        <time>2015-07-12T09:38:29.000Z</time>
      </trkpt>
      <trkpt lat="47.23427" lon="6.01994">
        <ele>309.68</ele>
        <time>2015-07-12T09:38:33.000Z</time>
      </trkpt>
      <trkpt lat="47.23416" lon="6.01987">
        <ele>309.2</ele>
        <time>2015-07-12T09:38:36.000Z</time>
      </trkpt>
      <trkpt lat="47.23404" lon="6.01981">
        <ele>309.2</ele>
        <time>2015-07-12T09:38:39.000Z</time>
      </trkpt>
      <trkpt lat="47.23392" lon="6.01974">
        <ele>309.68</ele>
        <time>2015-07-12T09:38:42.000Z</time>
      </trkpt>
      <trkpt lat="47.23379" lon="6.01967">
        <ele>309.2</ele>
        <time>2015-07-12T09:38:45.000Z</time>
      </trkpt>
      <trkpt lat="47.23367" lon="6.01961">
        <ele>308.24</ele>
        <time>2015-07-12T09:38:48.000Z</time>
      </trkpt>
      <trkpt lat="47.23355" lon="6.01954">
        <ele>308.24</ele>
        <time>2015-07-12T09:38:51.000Z</time>
      </trkpt>
      <trkpt lat="47.23344" lon="6.01947">
        <ele>307.76</ele>
        <time>2015-07-12T09:38:54.000Z</time>
      </trkpt>
      <trkpt lat="47.23335" lon="6.01942">
        <ele>307.76</ele>
        <time>2015-07-12T09:38:57.000Z</time>
      </trkpt>
      <trkpt lat="47.23325" lon="6.01938">
        <ele>308.24</ele>
        <time>2015-07-12T09:39:04.000Z</time>
      </trkpt>
      <trkpt lat="47.23316" lon="6.01933">
        <ele>308.24</ele>
        <time>2015-07-12T09:39:08.000Z</time>
      </trkpt>
      <trkpt lat="47.23307" lon="6.01927">
        <ele>308.24</ele>
        <time>2015-07-12T09:39:11.000Z</time>
      </trkpt>
      <trkpt lat="47.23296" lon="6.01921">
        <ele>309.2</ele>
        <time>2015-07-12T09:39:14.000Z</time>
      </trkpt>
      <trkpt lat="47.23285" lon="6.01916">
        <ele>309.2</ele>
        <time>2015-07-12T09:39:17.000Z</time>
      </trkpt>
      <trkpt lat="47.23275" lon="6.0191">
        <ele>308.24</ele>
        <time>2015-07-12T09:39:20.000Z</time>
      </trkpt>
      <trkpt lat="47.23264" lon="6.01905">
        <ele>308.24</ele>
        <time>2015-07-12T09:39:23.000Z</time>
      </trkpt>
      <trkpt lat="47.23253" lon="6.01899">
        <ele>308.72</ele>
        <time>2015-07-12T09:39:26.000Z</time>
      </trkpt>
      <trkpt lat="47.23241" lon="6.01892">
        <ele>308.72</ele>
        <time>2015-07-12T09:39:29.000Z</time>
      </trkpt>
      <trkpt lat="47.2323" lon="6.01886">
        <ele>308.72</ele>
        <time>2015-07-12T09:39:32.000Z</time>
      </trkpt>
      <trkpt lat="47.23219" lon="6.01881">
        <ele>309.68</ele>
        <time>2015-07-12T09:39:35.000Z</time>
      </trkpt>
      <trkpt lat="47.23207" lon="6.01879">
        <ele>310.64</ele>
        <time>2015-07-12T09:39:39.000Z</time>
      </trkpt>
      <trkpt lat="47.23196" lon="6.01875">
        <ele>311.12</ele>
        <time>2015-07-12T09:39:44.000Z</time>
      </trkpt>
      <trkpt lat="47.23186" lon="6.01867">
        <ele>312.09</ele>
        <time>2015-07-12T09:39:48.000Z</time>
      </trkpt>
      <trkpt lat="47.23175" lon="6.01859">
        <ele>312.57</ele>
        <time>2015-07-12T09:39:52.000Z</time>
      </trkpt>
      <trkpt lat="47.23167" lon="6.01847">
        <ele>313.05</ele>
        <time>2015-07-12T09:39:56.000Z</time>
      </trkpt>
      <trkpt lat="47.23158" lon="6.01835">
        <ele>313.05</ele>
        <time>2015-07-12T09:40:00.000Z</time>
      </trkpt>
      <trkpt lat="47.23152" lon="6.01822">
        <ele>313.53</ele>
        <time>2015-07-12T09:40:04.000Z</time>
      </trkpt>
      <trkpt lat="47.23146" lon="6.01808">
        <ele>313.53</ele>
        <time>2015-07-12T09:40:08.000Z</time>
      </trkpt>
      <trkpt lat="47.2314" lon="6.01795">
        <ele>314.49</ele>
        <time>2015-07-12T09:40:12.000Z</time>
      </trkpt>
      <trkpt lat="47.23134" lon="6.01781">
        <ele>314.97</ele>
        <time>2015-07-12T09:40:16.000Z</time>
      </trkpt>
      <trkpt lat="47.23128" lon="6.01768">
        <ele>314.97</ele>
        <time>2015-07-12T09:40:20.000Z</time>
      </trkpt>
      <trkpt lat="47.23121" lon="6.01755">
        <ele>315.45</ele>
        <time>2015-07-12T09:40:24.000Z</time>
      </trkpt>
      <trkpt lat="47.23114" lon="6.0174">
        <ele>315.45</ele>
        <time>2015-07-12T09:40:28.000Z</time>
      </trkpt>
      <trkpt lat="47.23108" lon="6.01727">
        <ele>315.45</ele>
        <time>2015-07-12T09:40:32.000Z</time>
      </trkpt>
      <trkpt lat="47.23101" lon="6.01711">
        <ele>315.93</ele>
        <time>2015-07-12T09:40:36.000Z</time>
      </trkpt>
      <trkpt lat="47.23095" lon="6.01697">
        <ele>316.41</ele>
        <time>2015-07-12T09:40:40.000Z</time>
      </trkpt>
      <trkpt lat="47.23088" lon="6.01683">
        <ele>316.41</ele>
        <time>2015-07-12T09:40:44.000Z</time>
      </trkpt>
      <trkpt lat="47.23082" lon="6.0167">
        <ele>316.41</ele>
        <time>2015-07-12T09:40:48.000Z</time>
      </trkpt>
      <trkpt lat="47.23076" lon="6.01656">
        <ele>316.41</ele>
        <time>2015-07-12T09:40:52.000Z</time>
      </trkpt>
      <trkpt lat="47.2307" lon="6.01642">
        <ele>316.89</ele>
        <time>2015-07-12T09:40:56.000Z</time>
      </trkpt>
      <trkpt lat="47.23063" lon="6.01627">
        <ele>316.89</ele>
        <time>2015-07-12T09:41:00.000Z</time>
      </trkpt>
      <trkpt lat="47.23059" lon="6.01613">
        <ele>318.33</ele>
        <time>2015-07-12T09:41:05.000Z</time>
      </trkpt>
      <trkpt lat="47.23051" lon="6.0162">
        <ele>318.81</ele>
        <time>2015-07-12T09:41:58.000Z</time>
      </trkpt>
      <trkpt lat="47.23048" lon="6.01631">
        <ele>318.33</ele>
        <time>2015-07-12T09:42:18.000Z</time>
      </trkpt>
      <trkpt lat="47.23054" lon="6.01646">
        <ele>318.33</ele>
        <time>2015-07-12T09:42:28.000Z</time>
      </trkpt>
      <trkpt lat="47.2306" lon="6.01658">
        <ele>317.85</ele>
        <time>2015-07-12T09:42:31.000Z</time>
      </trkpt>
      <trkpt lat="47.23067" lon="6.01673">
        <ele>317.37</ele>
        <time>2015-07-12T09:42:34.000Z</time>
      </trkpt>
      <trkpt lat="47.23074" lon="6.01689">
        <ele>317.37</ele>
        <time>2015-07-12T09:42:37.000Z</time>
      </trkpt>
      <trkpt lat="47.23082" lon="6.01706">
        <ele>317.37</ele>
        <time>2015-07-12T09:42:40.000Z</time>
      </trkpt>
      <trkpt lat="47.23086" lon="6.01717">
        <ele>316.89</ele>
        <time>2015-07-12T09:42:42.000Z</time>
      </trkpt>
      <trkpt lat="47.23092" lon="6.01728">
        <ele>316.41</ele>
        <time>2015-07-12T09:42:44.000Z</time>
      </trkpt>
      <trkpt lat="47.23096" lon="6.01738">
        <ele>316.41</ele>
        <time>2015-07-12T09:42:46.000Z</time>
      </trkpt>
      <trkpt lat="47.23101" lon="6.01749">
        <ele>316.41</ele>
        <time>2015-07-12T09:42:48.000Z</time>
      </trkpt>
      <trkpt lat="47.23106" lon="6.0176">
        <ele>316.41</ele>
        <time>2015-07-12T09:42:50.000Z</time>
      </trkpt>
      <trkpt lat="47.23111" lon="6.01771">
        <ele>315.93</ele>
        <time>2015-07-12T09:42:52.000Z</time>
      </trkpt>
      <trkpt lat="47.23117" lon="6.01783">
        <ele>315.93</ele>
        <time>2015-07-12T09:42:54.000Z</time>
      </trkpt>
      <trkpt lat="47.23122" lon="6.01794">
        <ele>315.93</ele>
        <time>2015-07-12T09:42:56.000Z</time>
      </trkpt>
      <trkpt lat="47.23128" lon="6.01807">
        <ele>315.45</ele>
        <time>2015-07-12T09:42:58.000Z</time>
      </trkpt>
      <trkpt lat="47.23134" lon="6.01821">
        <ele>315.45</ele>
        <time>2015-07-12T09:43:00.000Z</time>
      </trkpt>
      <trkpt lat="47.2314" lon="6.01834">
        <ele>315.45</ele>
        <time>2015-07-12T09:43:02.000Z</time>
      </trkpt>
      <trkpt lat="47.23146" lon="6.01846">
        <ele>314.49</ele>
        <time>2015-07-12T09:43:04.000Z</time>
      </trkpt>
      <trkpt lat="47.23152" lon="6.0186">
        <ele>314.01</ele>
        <time>2015-07-12T09:43:07.000Z</time>
      </trkpt>
      <trkpt lat="47.23158" lon="6.01875">
        <ele>314.01</ele>
        <time>2015-07-12T09:43:11.000Z</time>
      </trkpt>
      <trkpt lat="47.23163" lon="6.01887">
        <ele>313.53</ele>
        <time>2015-07-12T09:43:14.000Z</time>
      </trkpt>
      <trkpt lat="47.23169" lon="6.01898">
        <ele>313.05</ele>
        <time>2015-07-12T09:43:17.000Z</time>
      </trkpt>
      <trkpt lat="47.23175" lon="6.01908">
        <ele>312.57</ele>
        <time>2015-07-12T09:43:20.000Z</time>
      </trkpt>
      <trkpt lat="47.23183" lon="6.0192">
        <ele>311.6</ele>
        <time>2015-07-12T09:43:24.000Z</time>
      </trkpt>
      <trkpt lat="47.23192" lon="6.01932">
        <ele>311.12</ele>
        <time>2015-07-12T09:43:28.000Z</time>
      </trkpt>
      <trkpt lat="47.23203" lon="6.01937">
        <ele>310.16</ele>
        <time>2015-07-12T09:43:32.000Z</time>
      </trkpt>
      <trkpt lat="47.23211" lon="6.01948">
        <ele>309.68</ele>
        <time>2015-07-12T09:43:37.000Z</time>
      </trkpt>
      <trkpt lat="47.23218" lon="6.01954">
        <ele>308.72</ele>
        <time>2015-07-12T09:43:55.000Z</time>
      </trkpt>
      <trkpt lat="47.2321" lon="6.01953">
        <ele>309.2</ele>
        <time>2015-07-12T09:44:08.000Z</time>
      </trkpt>
      <trkpt lat="47.23202" lon="6.01946">
        <ele>309.68</ele>
        <time>2015-07-12T09:44:16.000Z</time>
      </trkpt>
      <trkpt lat="47.23189" lon="6.01938">
        <ele>309.2</ele>
        <time>2015-07-12T09:44:21.000Z</time>
      </trkpt>
      <trkpt lat="47.23177" lon="6.01932">
        <ele>309.2</ele>
        <time>2015-07-12T09:44:25.000Z</time>
      </trkpt>
      <trkpt lat="47.23165" lon="6.01925">
        <ele>309.2</ele>
        <time>2015-07-12T09:44:29.000Z</time>
      </trkpt>
      <trkpt lat="47.23154" lon="6.01919">
        <ele>309.2</ele>
        <time>2015-07-12T09:44:33.000Z</time>
      </trkpt>
      <trkpt lat="47.23143" lon="6.01913">
        <ele>309.2</ele>
        <time>2015-07-12T09:44:37.000Z</time>
      </trkpt>
      <trkpt lat="47.23133" lon="6.01906">
        <ele>309.2</ele>
        <time>2015-07-12T09:44:41.000Z</time>
      </trkpt>
      <trkpt lat="47.23125" lon="6.01897">
        <ele>309.2</ele>
        <time>2015-07-12T09:44:45.000Z</time>
      </trkpt>
      <trkpt lat="47.23119" lon="6.01885">
        <ele>310.16</ele>
        <time>2015-07-12T09:44:49.000Z</time>
      </trkpt>
      <trkpt lat="47.23112" lon="6.01873">
        <ele>310.16</ele>
        <time>2015-07-12T09:44:53.000Z</time>
      </trkpt>
      <trkpt lat="47.23106" lon="6.01863">
        <ele>310.16</ele>
        <time>2015-07-12T09:44:56.000Z</time>
      </trkpt>
      <trkpt lat="47.23095" lon="6.01861">
        <ele>309.68</ele>
        <time>2015-07-12T09:45:00.000Z</time>
      </trkpt>
      <trkpt lat="47.23087" lon="6.01868">
        <ele>309.2</ele>
        <time>2015-07-12T09:45:03.000Z</time>
      </trkpt>
      <trkpt lat="47.23084" lon="6.01884">
        <ele>309.2</ele>
        <time>2015-07-12T09:45:07.000Z</time>
      </trkpt>
      <trkpt lat="47.23087" lon="6.019">
        <ele>309.2</ele>
        <time>2015-07-12T09:45:10.000Z</time>
      </trkpt>
      <trkpt lat="47.23087" lon="6.01916">
        <ele>309.2</ele>
        <time>2015-07-12T09:45:13.000Z</time>
      </trkpt>
      <trkpt lat="47.23087" lon="6.01931">
        <ele>308.72</ele>
        <time>2015-07-12T09:45:16.000Z</time>
      </trkpt>
      <trkpt lat="47.23087" lon="6.01947">
        <ele>309.2</ele>
        <time>2015-07-12T09:45:19.000Z</time>
      </trkpt>
      <trkpt lat="47.23087" lon="6.01962">
        <ele>309.68</ele>
        <time>2015-07-12T09:45:22.000Z</time>
      </trkpt>
      <trkpt lat="47.23087" lon="6.01977">
        <ele>308.72</ele>
        <time>2015-07-12T09:45:25.000Z</time>
      </trkpt>
      <trkpt lat="47.23087" lon="6.01992">
        <ele>308.72</ele>
        <time>2015-07-12T09:45:28.000Z</time>
      </trkpt>
      <trkpt lat="47.23088" lon="6.02005">
        <ele>309.2</ele>
        <time>2015-07-12T09:45:31.000Z</time>
      </trkpt>
      <trkpt lat="47.23088" lon="6.02022">
        <ele>309.2</ele>
        <time>2015-07-12T09:47:27.000Z</time>
      </trkpt>
      <trkpt lat="47.23089" lon="6.0204">
        <ele>309.68</ele>
        <time>2015-07-12T09:47:31.000Z</time>
      </trkpt>
      <trkpt lat="47.23089" lon="6.02056">
        <ele>309.2</ele>
        <time>2015-07-12T09:47:34.000Z</time>
      </trkpt>
      <trkpt lat="47.23089" lon="6.02072">
        <ele>309.68</ele>
        <time>2015-07-12T09:47:37.000Z</time>
      </trkpt>
      <trkpt lat="47.23089" lon="6.02089">
        <ele>309.2</ele>
        <time>2015-07-12T09:47:40.000Z</time>
      </trkpt>
      <trkpt lat="47.23084" lon="6.02105">
        <ele>309.2</ele>
        <time>2015-07-12T09:47:43.000Z</time>
      </trkpt>
      <trkpt lat="47.23081" lon="6.02119">
        <ele>308.24</ele>
        <time>2015-07-12T09:47:46.000Z</time>
      </trkpt>
      <trkpt lat="47.2308" lon="6.02133">
        <ele>307.76</ele>
        <time>2015-07-12T09:47:50.000Z</time>
      </trkpt>
      <trkpt lat="47.23079" lon="6.02148">
        <ele>307.76</ele>
        <time>2015-07-12T09:47:55.000Z</time>
      </trkpt>
      <trkpt lat="47.2308" lon="6.02164">
        <ele>308.24</ele>
        <time>2015-07-12T09:48:00.000Z</time>
      </trkpt>
      <trkpt lat="47.23082" lon="6.02177">
        <ele>307.76</ele>
        <time>2015-07-12T09:48:04.000Z</time>
      </trkpt>
      <trkpt lat="47.23084" lon="6.02195">
        <ele>307.76</ele>
        <time>2015-07-12T09:48:08.000Z</time>
      </trkpt>
      <trkpt lat="47.23083" lon="6.02212">
        <ele>307.76</ele>
        <time>2015-07-12T09:48:11.000Z</time>
      </trkpt>
      <trkpt lat="47.23082" lon="6.02228">
        <ele>307.76</ele>
        <time>2015-07-12T09:48:14.000Z</time>
      </trkpt>
      <trkpt lat="47.23082" lon="6.02245">
        <ele>307.76</ele>
        <time>2015-07-12T09:48:17.000Z</time>
      </trkpt>
      <trkpt lat="47.2308" lon="6.02262">
        <ele>308.24</ele>
        <time>2015-07-12T09:48:20.000Z</time>
      </trkpt>
      <trkpt lat="47.23079" lon="6.02279">
        <ele>308.24</ele>
        <time>2015-07-12T09:48:23.000Z</time>
      </trkpt>
      <trkpt lat="47.23077" lon="6.02294">
        <ele>308.24</ele>
        <time>2015-07-12T09:48:26.000Z</time>
      </trkpt>
      <trkpt lat="47.23076" lon="6.02309">
        <ele>307.76</ele>
        <time>2015-07-12T09:48:29.000Z</time>
      </trkpt>
      <trkpt lat="47.23077" lon="6.02324">
        <ele>309.2</ele>
        <time>2015-07-12T09:48:32.000Z</time>
      </trkpt>
      <trkpt lat="47.23085" lon="6.02335">
        <ele>309.68</ele>
        <time>2015-07-12T09:48:37.000Z</time>
      </trkpt>
      <trkpt lat="47.23085" lon="6.02348">
        <ele>309.2</ele>
        <time>2015-07-12T09:48:42.000Z</time>
      </trkpt>
      <trkpt lat="47.23079" lon="6.02361">
        <ele>308.24</ele>
        <time>2015-07-12T09:48:45.000Z</time>
      </trkpt>
      <trkpt lat="47.23075" lon="6.02378">
        <ele>308.24</ele>
        <time>2015-07-12T09:48:48.000Z</time>
      </trkpt>
      <trkpt lat="47.23076" lon="6.02395">
        <ele>308.24</ele>
        <time>2015-07-12T09:48:51.000Z</time>
      </trkpt>
      <trkpt lat="47.23076" lon="6.02411">
        <ele>307.76</ele>
        <time>2015-07-12T09:48:54.000Z</time>
      </trkpt>
      <trkpt lat="47.23076" lon="6.02427">
        <ele>307.76</ele>
        <time>2015-07-12T09:48:57.000Z</time>
      </trkpt>
      <trkpt lat="47.23075" lon="6.02442">
        <ele>307.76</ele>
        <time>2015-07-12T09:49:00.000Z</time>
      </trkpt>
      <trkpt lat="47.23075" lon="6.02457">
        <ele>307.28</ele>
        <time>2015-07-12T09:49:03.000Z</time>
      </trkpt>
      <trkpt lat="47.23075" lon="6.02472">
        <ele>307.28</ele>
        <time>2015-07-12T09:49:06.000Z</time>
      </trkpt>
      <trkpt lat="47.23077" lon="6.02486">
        <ele>307.76</ele>
        <time>2015-07-12T09:49:09.000Z</time>
      </trkpt>
      <trkpt lat="47.23078" lon="6.02499">
        <ele>307.76</ele>
        <time>2015-07-12T09:49:12.000Z</time>
      </trkpt>
      <trkpt lat="47.23078" lon="6.02514">
        <ele>307.76</ele>
        <time>2015-07-12T09:49:15.000Z</time>
      </trkpt>
      <trkpt lat="47.23078" lon="6.02529">
        <ele>307.76</ele>
        <time>2015-07-12T09:49:18.000Z</time>
      </trkpt>
      <trkpt lat="47.23078" lon="6.02543">
        <ele>307.28</ele>
        <time>2015-07-12T09:49:21.000Z</time>
      </trkpt>
      <trkpt lat="47.23078" lon="6.02557">
        <ele>307.76</ele>
        <time>2015-07-12T09:49:24.000Z</time>
      </trkpt>
      <trkpt lat="47.23077" lon="6.02571">
        <ele>307.76</ele>
        <time>2015-07-12T09:49:27.000Z</time>
      </trkpt>
      <trkpt lat="47.23077" lon="6.02584">
        <ele>307.28</ele>
        <time>2015-07-12T09:49:30.000Z</time>
      </trkpt>
      <trkpt lat="47.23076" lon="6.02601">
        <ele>307.76</ele>
        <time>2015-07-12T09:49:34.000Z</time>
      </trkpt>
      <trkpt lat="47.23075" lon="6.02614">
        <ele>307.76</ele>
        <time>2015-07-12T09:49:37.000Z</time>
      </trkpt>
      <trkpt lat="47.23074" lon="6.02628">
        <ele>307.76</ele>
        <time>2015-07-12T09:49:40.000Z</time>
      </trkpt>
      <trkpt lat="47.23073" lon="6.02643">
        <ele>307.76</ele>
        <time>2015-07-12T09:49:43.000Z</time>
      </trkpt>
      <trkpt lat="47.23072" lon="6.02657">
        <ele>307.76</ele>
        <time>2015-07-12T09:49:46.000Z</time>
      </trkpt>
      <trkpt lat="47.2307" lon="6.02669">
        <ele>307.76</ele>
        <time>2015-07-12T09:49:49.000Z</time>
      </trkpt>
      <trkpt lat="47.23069" lon="6.02683">
        <ele>308.24</ele>
        <time>2015-07-12T09:49:52.000Z</time>
      </trkpt>
      <trkpt lat="47.23069" lon="6.02697">
        <ele>307.76</ele>
        <time>2015-07-12T09:49:55.000Z</time>
      </trkpt>
      <trkpt lat="47.23067" lon="6.0271">
        <ele>307.76</ele>
        <time>2015-07-12T09:49:58.000Z</time>
      </trkpt>
      <trkpt lat="47.23064" lon="6.02723">
        <ele>307.76</ele>
        <time>2015-07-12T09:50:01.000Z</time>
      </trkpt>
      <trkpt lat="47.23061" lon="6.02737">
        <ele>307.76</ele>
        <time>2015-07-12T09:50:04.000Z</time>
      </trkpt>
      <trkpt lat="47.23057" lon="6.02751">
        <ele>307.76</ele>
        <time>2015-07-12T09:50:07.000Z</time>
      </trkpt>
      <trkpt lat="47.23052" lon="6.02763">
        <ele>307.76</ele>
        <time>2015-07-12T09:50:10.000Z</time>
      </trkpt>
      <trkpt lat="47.23049" lon="6.02776">
        <ele>307.76</ele>
        <time>2015-07-12T09:50:13.000Z</time>
      </trkpt>
      <trkpt lat="47.23047" lon="6.0279">
        <ele>308.24</ele>
        <time>2015-07-12T09:50:16.000Z</time>
      </trkpt>
      <trkpt lat="47.23044" lon="6.02805">
        <ele>308.72</ele>
        <time>2015-07-12T09:50:20.000Z</time>
      </trkpt>
      <trkpt lat="47.23039" lon="6.02819">
        <ele>309.68</ele>
        <time>2015-07-12T09:50:24.000Z</time>
      </trkpt>
      <trkpt lat="47.23035" lon="6.02834">
        <ele>309.68</ele>
        <time>2015-07-12T09:50:28.000Z</time>
      </trkpt>
      <trkpt lat="47.23031" lon="6.02847">
        <ele>308.72</ele>
        <time>2015-07-12T09:50:31.000Z</time>
      </trkpt>
      <trkpt lat="47.23027" lon="6.02864">
        <ele>307.76</ele>
        <time>2015-07-12T09:50:34.000Z</time>
      </trkpt>
      <trkpt lat="47.23024" lon="6.0288">
        <ele>307.76</ele>
        <time>2015-07-12T09:50:37.000Z</time>
      </trkpt>
      <trkpt lat="47.23019" lon="6.02896">
        <ele>307.76</ele>
        <time>2015-07-12T09:50:40.000Z</time>
      </trkpt>
      <trkpt lat="47.23015" lon="6.02911">
        <ele>307.76</ele>
        <time>2015-07-12T09:50:43.000Z</time>
      </trkpt>
      <trkpt lat="47.23011" lon="6.02923">
        <ele>308.24</ele>
        <time>2015-07-12T09:50:46.000Z</time>
      </trkpt>
      <trkpt lat="47.23006" lon="6.02939">
        <ele>308.24</ele>
        <time>2015-07-12T09:50:50.000Z</time>
      </trkpt>
      <trkpt lat="47.23001" lon="6.02952">
        <ele>308.72</ele>
        <time>2015-07-12T09:50:53.000Z</time>
      </trkpt>
      <trkpt lat="47.22998" lon="6.02966">
        <ele>308.72</ele>
        <time>2015-07-12T09:50:56.000Z</time>
      </trkpt>
      <trkpt lat="47.22995" lon="6.02979">
        <ele>309.68</ele>
        <time>2015-07-12T09:50:59.000Z</time>
      </trkpt>
      <trkpt lat="47.22992" lon="6.02995">
        <ele>310.64</ele>
        <time>2015-07-12T09:51:03.000Z</time>
      </trkpt>
      <trkpt lat="47.22988" lon="6.03009">
        <ele>312.09</ele>
        <time>2015-07-12T09:51:07.000Z</time>
      </trkpt>
      <trkpt lat="47.22987" lon="6.03022">
        <ele>312.09</ele>
        <time>2015-07-12T09:51:11.000Z</time>
      </trkpt>
      <trkpt lat="47.22982" lon="6.03036">
        <ele>312.09</ele>
        <time>2015-07-12T09:51:15.000Z</time>
      </trkpt>
      <trkpt lat="47.22976" lon="6.03049">
        <ele>312.09</ele>
        <time>2015-07-12T09:51:19.000Z</time>
      </trkpt>
      <trkpt lat="47.22969" lon="6.03061">
        <ele>311.12</ele>
        <time>2015-07-12T09:51:23.000Z</time>
      </trkpt>
      <trkpt lat="47.22963" lon="6.03056">
        <ele>309.68</ele>
        <time>2015-07-12T09:51:28.000Z</time>
      </trkpt>
      <trkpt lat="47.22969" lon="6.03042">
        <ele>309.2</ele>
        <time>2015-07-12T09:51:33.000Z</time>
      </trkpt>
      <trkpt lat="47.2296" lon="6.03039">
        <ele>309.2</ele>
        <time>2015-07-12T09:52:14.000Z</time>
      </trkpt>
      <trkpt lat="47.22948" lon="6.03037">
        <ele>309.2</ele>
        <time>2015-07-12T09:52:19.000Z</time>
      </trkpt>
      <trkpt lat="47.22936" lon="6.03035">
        <ele>309.2</ele>
        <time>2015-07-12T09:52:23.000Z</time>
      </trkpt>
      <trkpt lat="47.22926" lon="6.03034">
        <ele>308.72</ele>
        <time>2015-07-12T09:52:27.000Z</time>
      </trkpt>
      <trkpt lat="47.22917" lon="6.03036">
        <ele>309.2</ele>
        <time>2015-07-12T09:52:31.000Z</time>
      </trkpt>
      <trkpt lat="47.22905" lon="6.03041">
        <ele>308.72</ele>
        <time>2015-07-12T09:52:35.000Z</time>
      </trkpt>
      <trkpt lat="47.22895" lon="6.03047">
        <ele>308.24</ele>
        <time>2015-07-12T09:52:38.000Z</time>
      </trkpt>
      <trkpt lat="47.22885" lon="6.03055">
        <ele>308.24</ele>
        <time>2015-07-12T09:52:41.000Z</time>
      </trkpt>
      <trkpt lat="47.22876" lon="6.03065">
        <ele>308.24</ele>
        <time>2015-07-12T09:52:44.000Z</time>
      </trkpt>
      <trkpt lat="47.22868" lon="6.03077">
        <ele>308.24</ele>
        <time>2015-07-12T09:52:47.000Z</time>
      </trkpt>
      <trkpt lat="47.22861" lon="6.03089">
        <ele>308.72</ele>
        <time>2015-07-12T09:52:50.000Z</time>
      </trkpt>
      <trkpt lat="47.22853" lon="6.03102">
        <ele>308.72</ele>
        <time>2015-07-12T09:52:53.000Z</time>
      </trkpt>
      <trkpt lat="47.22848" lon="6.03109">
        <ele>308.72</ele>
        <time>2015-07-12T09:52:55.000Z</time>
      </trkpt>
      <trkpt lat="47.22837" lon="6.03125">
        <ele>308.72</ele>
        <time>2015-07-12T09:52:59.000Z</time>
      </trkpt>
      <trkpt lat="47.22831" lon="6.03138">
        <ele>308.72</ele>
        <time>2015-07-12T09:53:02.000Z</time>
      </trkpt>
      <trkpt lat="47.22824" lon="6.03153">
        <ele>308.72</ele>
        <time>2015-07-12T09:53:05.000Z</time>
      </trkpt>
      <trkpt lat="47.22816" lon="6.03166">
        <ele>309.2</ele>
        <time>2015-07-12T09:53:08.000Z</time>
      </trkpt>
      <trkpt lat="47.22807" lon="6.03178">
        <ele>308.72</ele>
        <time>2015-07-12T09:53:11.000Z</time>
      </trkpt>
      <trkpt lat="47.22798" lon="6.03187">
        <ele>309.2</ele>
        <time>2015-07-12T09:53:14.000Z</time>
      </trkpt>
      <trkpt lat="47.22788" lon="6.03196">
        <ele>308.72</ele>
        <time>2015-07-12T09:53:17.000Z</time>
      </trkpt>
      <trkpt lat="47.22778" lon="6.03204">
        <ele>308.72</ele>
        <time>2015-07-12T09:53:20.000Z</time>
      </trkpt>
      <trkpt lat="47.22768" lon="6.03211">
        <ele>308.72</ele>
        <time>2015-07-12T09:53:23.000Z</time>
      </trkpt>
      <trkpt lat="47.2276" lon="6.03219">
        <ele>309.2</ele>
        <time>2015-07-12T09:53:26.000Z</time>
      </trkpt>
      <trkpt lat="47.22751" lon="6.03222">
        <ele>309.68</ele>
        <time>2015-07-12T09:53:29.000Z</time>
      </trkpt>
      <trkpt lat="47.22742" lon="6.03224">
        <ele>309.68</ele>
        <time>2015-07-12T09:53:32.000Z</time>
      </trkpt>
      <trkpt lat="47.22731" lon="6.0323">
        <ele>310.16</ele>
        <time>2015-07-12T09:53:36.000Z</time>
      </trkpt>
      <trkpt lat="47.22722" lon="6.03232">
        <ele>309.68</ele>
        <time>2015-07-12T09:53:39.000Z</time>
      </trkpt>
      <trkpt lat="47.22713" lon="6.03235">
        <ele>310.16</ele>
        <time>2015-07-12T09:53:42.000Z</time>
      </trkpt>
      <trkpt lat="47.227" lon="6.0324">
        <ele>309.68</ele>
        <time>2015-07-12T09:53:46.000Z</time>
      </trkpt>
      <trkpt lat="47.22686" lon="6.03244">
        <ele>308.72</ele>
        <time>2015-07-12T09:53:49.000Z</time>
      </trkpt>
      <trkpt lat="47.22675" lon="6.03249">
        <ele>309.2</ele>
        <time>2015-07-12T09:53:51.000Z</time>
      </trkpt>
      <trkpt lat="47.22663" lon="6.03252">
        <ele>308.72</ele>
        <time>2015-07-12T09:53:53.000Z</time>
      </trkpt>
      <trkpt lat="47.2265" lon="6.03254">
        <ele>308.24</ele>
        <time>2015-07-12T09:53:55.000Z</time>
      </trkpt>
      <trkpt lat="47.22638" lon="6.03257">
        <ele>308.72</ele>
        <time>2015-07-12T09:53:57.000Z</time>
      </trkpt>
      <trkpt lat="47.22626" lon="6.03259">
        <ele>308.24</ele>
        <time>2015-07-12T09:53:59.000Z</time>
      </trkpt>
      <trkpt lat="47.22615" lon="6.0326">
        <ele>308.24</ele>
        <time>2015-07-12T09:54:01.000Z</time>
      </trkpt>
      <trkpt lat="47.22604" lon="6.03259">
        <ele>308.24</ele>
        <time>2015-07-12T09:54:03.000Z</time>
      </trkpt>
      <trkpt lat="47.22594" lon="6.03256">
        <ele>308.24</ele>
        <time>2015-07-12T09:54:05.000Z</time>
      </trkpt>
      <trkpt lat="47.22584" lon="6.03252">
        <ele>308.24</ele>
        <time>2015-07-12T09:54:07.000Z</time>
      </trkpt>
      <trkpt lat="47.22574" lon="6.03247">
        <ele>308.24</ele>
        <time>2015-07-12T09:54:09.000Z</time>
      </trkpt>
      <trkpt lat="47.22565" lon="6.0324">
        <ele>307.76</ele>
        <time>2015-07-12T09:54:11.000Z</time>
      </trkpt>
      <trkpt lat="47.22557" lon="6.03231">
        <ele>307.76</ele>
        <time>2015-07-12T09:54:13.000Z</time>
      </trkpt>
      <trkpt lat="47.22549" lon="6.03223">
        <ele>307.76</ele>
        <time>2015-07-12T09:54:15.000Z</time>
      </trkpt>
      <trkpt lat="47.22541" lon="6.03214">
        <ele>308.24</ele>
        <time>2015-07-12T09:54:17.000Z</time>
      </trkpt>
      <trkpt lat="47.22533" lon="6.03206">
        <ele>308.24</ele>
        <time>2015-07-12T09:54:19.000Z</time>
      </trkpt>
      <trkpt lat="47.22526" lon="6.03198">
        <ele>308.24</ele>
        <time>2015-07-12T09:54:21.000Z</time>
      </trkpt>
      <trkpt lat="47.22519" lon="6.0319">
        <ele>308.72</ele>
        <time>2015-07-12T09:54:23.000Z</time>
      </trkpt>
      <trkpt lat="47.2251" lon="6.03186">
        <ele>308.72</ele>
        <time>2015-07-12T09:54:25.000Z</time>
      </trkpt>
      <trkpt lat="47.22501" lon="6.03183">
        <ele>308.72</ele>
        <time>2015-07-12T09:54:27.000Z</time>
      </trkpt>
      <trkpt lat="47.22491" lon="6.03181">
        <ele>308.24</ele>
        <time>2015-07-12T09:54:29.000Z</time>
      </trkpt>
      <trkpt lat="47.22482" lon="6.03179">
        <ele>308.24</ele>
        <time>2015-07-12T09:54:31.000Z</time>
      </trkpt>
      <trkpt lat="47.22474" lon="6.03177">
        <ele>308.72</ele>
        <time>2015-07-12T09:54:33.000Z</time>
      </trkpt>
      <trkpt lat="47.22462" lon="6.03174">
        <ele>308.72</ele>
        <time>2015-07-12T09:54:36.000Z</time>
      </trkpt>
      <trkpt lat="47.22452" lon="6.03169">
        <ele>308.72</ele>
        <time>2015-07-12T09:54:39.000Z</time>
      </trkpt>
      <trkpt lat="47.22441" lon="6.03163">
        <ele>308.72</ele>
        <time>2015-07-12T09:54:42.000Z</time>
      </trkpt>
      <trkpt lat="47.2243" lon="6.03156">
        <ele>308.24</ele>
        <time>2015-07-12T09:54:45.000Z</time>
      </trkpt>
      <trkpt lat="47.22418" lon="6.0315">
        <ele>307.76</ele>
        <time>2015-07-12T09:54:48.000Z</time>
      </trkpt>
      <trkpt lat="47.22405" lon="6.03145">
        <ele>307.28</ele>
        <time>2015-07-12T09:54:51.000Z</time>
      </trkpt>
      <trkpt lat="47.22393" lon="6.03137">
        <ele>307.76</ele>
        <time>2015-07-12T09:54:54.000Z</time>
      </trkpt>
      <trkpt lat="47.22381" lon="6.0313">
        <ele>307.28</ele>
        <time>2015-07-12T09:54:57.000Z</time>
      </trkpt>
      <trkpt lat="47.22369" lon="6.03123">
        <ele>308.24</ele>
        <time>2015-07-12T09:55:00.000Z</time>
      </trkpt>
      <trkpt lat="47.2236" lon="6.03118">
        <ele>308.72</ele>
        <time>2015-07-12T09:55:02.000Z</time>
      </trkpt>
      <trkpt lat="47.22348" lon="6.03111">
        <ele>308.24</ele>
        <time>2015-07-12T09:55:05.000Z</time>
      </trkpt>
      <trkpt lat="47.22335" lon="6.03105">
        <ele>308.72</ele>
        <time>2015-07-12T09:55:08.000Z</time>
      </trkpt>
      <trkpt lat="47.22323" lon="6.03099">
        <ele>308.24</ele>
        <time>2015-07-12T09:55:11.000Z</time>
      </trkpt>
      <trkpt lat="47.22313" lon="6.0309">
        <ele>308.24</ele>
        <time>2015-07-12T09:55:14.000Z</time>
      </trkpt>
      <trkpt lat="47.22301" lon="6.03082">
        <ele>308.72</ele>
        <time>2015-07-12T09:55:17.000Z</time>
      </trkpt>
      <trkpt lat="47.22289" lon="6.03076">
        <ele>308.72</ele>
        <time>2015-07-12T09:55:20.000Z</time>
      </trkpt>
      <trkpt lat="47.22276" lon="6.0307">
        <ele>308.24</ele>
        <time>2015-07-12T09:55:23.000Z</time>
      </trkpt>
      <trkpt lat="47.22264" lon="6.03062">
        <ele>308.24</ele>
        <time>2015-07-12T09:55:26.000Z</time>
      </trkpt>
      <trkpt lat="47.22253" lon="6.03055">
        <ele>308.24</ele>
        <time>2015-07-12T09:55:29.000Z</time>
      </trkpt>
      <trkpt lat="47.22242" lon="6.0305">
        <ele>308.72</ele>
        <time>2015-07-12T09:55:32.000Z</time>
      </trkpt>
      <trkpt lat="47.22229" lon="6.03043">
        <ele>308.72</ele>
        <time>2015-07-12T09:55:35.000Z</time>
      </trkpt>
      <trkpt lat="47.22218" lon="6.03036">
        <ele>308.24</ele>
        <time>2015-07-12T09:55:38.000Z</time>
      </trkpt>
      <trkpt lat="47.22205" lon="6.0303">
        <ele>308.72</ele>
        <time>2015-07-12T09:55:41.000Z</time>
      </trkpt>
      <trkpt lat="47.22194" lon="6.03023">
        <ele>308.24</ele>
        <time>2015-07-12T09:55:44.000Z</time>
      </trkpt>
      <trkpt lat="47.22182" lon="6.03016">
        <ele>308.24</ele>
        <time>2015-07-12T09:55:47.000Z</time>
      </trkpt>
      <trkpt lat="47.22171" lon="6.03008">
        <ele>308.24</ele>
        <time>2015-07-12T09:55:50.000Z</time>
      </trkpt>
      <trkpt lat="47.2216" lon="6.02999">
        <ele>308.24</ele>
        <time>2015-07-12T09:55:53.000Z</time>
      </trkpt>
      <trkpt lat="47.22148" lon="6.0299">
        <ele>308.24</ele>
        <time>2015-07-12T09:55:56.000Z</time>
      </trkpt>
      <trkpt lat="47.22136" lon="6.02979">
        <ele>308.24</ele>
        <time>2015-07-12T09:55:59.000Z</time>
      </trkpt>
      <trkpt lat="47.22128" lon="6.02971">
        <ele>308.24</ele>
        <time>2015-07-12T09:56:01.000Z</time>
      </trkpt>
      <trkpt lat="47.2212" lon="6.02963">
        <ele>307.76</ele>
        <time>2015-07-12T09:56:03.000Z</time>
      </trkpt>
      <trkpt lat="47.22113" lon="6.02955">
        <ele>307.76</ele>
        <time>2015-07-12T09:56:05.000Z</time>
      </trkpt>
      <trkpt lat="47.22103" lon="6.02942">
        <ele>307.76</ele>
        <time>2015-07-12T09:56:08.000Z</time>
      </trkpt>
      <trkpt lat="47.22094" lon="6.02931">
        <ele>307.76</ele>
        <time>2015-07-12T09:56:11.000Z</time>
      </trkpt>
      <trkpt lat="47.22087" lon="6.02921">
        <ele>307.76</ele>
        <time>2015-07-12T09:56:14.000Z</time>
      </trkpt>
      <trkpt lat="47.22079" lon="6.02908">
        <ele>308.24</ele>
        <time>2015-07-12T09:56:18.000Z</time>
      </trkpt>
      <trkpt lat="47.22073" lon="6.02898">
        <ele>307.76</ele>
        <time>2015-07-12T09:56:21.000Z</time>
      </trkpt>
      <trkpt lat="47.22066" lon="6.02887">
        <ele>308.24</ele>
        <time>2015-07-12T09:56:24.000Z</time>
      </trkpt>
      <trkpt lat="47.22059" lon="6.02876">
        <ele>307.76</ele>
        <time>2015-07-12T09:56:27.000Z</time>
      </trkpt>
      <trkpt lat="47.22054" lon="6.02865">
        <ele>307.76</ele>
        <time>2015-07-12T09:56:30.000Z</time>
      </trkpt>
      <trkpt lat="47.22047" lon="6.02854">
        <ele>307.76</ele>
        <time>2015-07-12T09:56:33.000Z</time>
      </trkpt>
      <trkpt lat="47.22041" lon="6.02843">
        <ele>307.76</ele>
        <time>2015-07-12T09:56:36.000Z</time>
      </trkpt>
      <trkpt lat="47.22035" lon="6.02832">
        <ele>308.24</ele>
        <time>2015-07-12T09:56:39.000Z</time>
      </trkpt>
      <trkpt lat="47.22029" lon="6.02818">
        <ele>307.76</ele>
        <time>2015-07-12T09:56:42.000Z</time>
      </trkpt>
      <trkpt lat="47.22023" lon="6.02803">
        <ele>307.76</ele>
        <time>2015-07-12T09:56:45.000Z</time>
      </trkpt>
      <trkpt lat="47.22018" lon="6.02785">
        <ele>307.76</ele>
        <time>2015-07-12T09:56:48.000Z</time>
      </trkpt>
      <trkpt lat="47.22015" lon="6.02772">
        <ele>307.76</ele>
        <time>2015-07-12T09:56:50.000Z</time>
      </trkpt>
      <trkpt lat="47.22012" lon="6.0276">
        <ele>307.76</ele>
        <time>2015-07-12T09:56:52.000Z</time>
      </trkpt>
      <trkpt lat="47.2201" lon="6.02746">
        <ele>307.76</ele>
        <time>2015-07-12T09:56:54.000Z</time>
      </trkpt>
      <trkpt lat="47.22007" lon="6.02733">
        <ele>307.76</ele>
        <time>2015-07-12T09:56:56.000Z</time>
      </trkpt>
      <trkpt lat="47.22004" lon="6.0272">
        <ele>307.76</ele>
        <time>2015-07-12T09:56:58.000Z</time>
      </trkpt>
      <trkpt lat="47.22002" lon="6.02707">
        <ele>307.28</ele>
        <time>2015-07-12T09:57:00.000Z</time>
      </trkpt>
      <trkpt lat="47.21999" lon="6.02693">
        <ele>307.28</ele>
        <time>2015-07-12T09:57:02.000Z</time>
      </trkpt>
      <trkpt lat="47.21997" lon="6.02679">
        <ele>307.28</ele>
        <time>2015-07-12T09:57:04.000Z</time>
      </trkpt>
      <trkpt lat="47.21996" lon="6.02666">
        <ele>307.76</ele>
        <time>2015-07-12T09:57:06.000Z</time>
      </trkpt>
      <trkpt lat="47.21994" lon="6.02652">
        <ele>307.76</ele>
        <time>2015-07-12T09:57:08.000Z</time>
      </trkpt>
      <trkpt lat="47.21991" lon="6.02634">
        <ele>307.76</ele>
        <time>2015-07-12T09:57:11.000Z</time>
      </trkpt>
      <trkpt lat="47.21989" lon="6.02616">
        <ele>307.76</ele>
        <time>2015-07-12T09:57:14.000Z</time>
      </trkpt>
      <trkpt lat="47.21986" lon="6.02598">
        <ele>307.28</ele>
        <time>2015-07-12T09:57:17.000Z</time>
      </trkpt>
      <trkpt lat="47.21984" lon="6.02579">
        <ele>307.28</ele>
        <time>2015-07-12T09:57:20.000Z</time>
      </trkpt>
      <trkpt lat="47.21981" lon="6.0256">
        <ele>307.76</ele>
        <time>2015-07-12T09:57:23.000Z</time>
      </trkpt>
      <trkpt lat="47.21979" lon="6.0254">
        <ele>307.28</ele>
        <time>2015-07-12T09:57:26.000Z</time>
      </trkpt>
      <trkpt lat="47.21977" lon="6.02527">
        <ele>307.76</ele>
        <time>2015-07-12T09:57:28.000Z</time>
      </trkpt>
      <trkpt lat="47.21975" lon="6.02514">
        <ele>307.28</ele>
        <time>2015-07-12T09:57:30.000Z</time>
      </trkpt>
      <trkpt lat="47.21973" lon="6.02496">
        <ele>307.28</ele>
        <time>2015-07-12T09:57:33.000Z</time>
      </trkpt>
      <trkpt lat="47.21972" lon="6.02478">
        <ele>307.28</ele>
        <time>2015-07-12T09:57:36.000Z</time>
      </trkpt>
      <trkpt lat="47.2197" lon="6.0246">
        <ele>307.76</ele>
        <time>2015-07-12T09:57:39.000Z</time>
      </trkpt>
      <trkpt lat="47.21967" lon="6.02447">
        <ele>307.76</ele>
        <time>2015-07-12T09:57:41.000Z</time>
      </trkpt>
      <trkpt lat="47.21965" lon="6.02435">
        <ele>307.76</ele>
        <time>2015-07-12T09:57:43.000Z</time>
      </trkpt>
      <trkpt lat="47.21962" lon="6.02416">
        <ele>307.28</ele>
        <time>2015-07-12T09:57:46.000Z</time>
      </trkpt>
      <trkpt lat="47.21956" lon="6.02398">
        <ele>307.76</ele>
        <time>2015-07-12T09:57:49.000Z</time>
      </trkpt>
      <trkpt lat="47.21951" lon="6.02381">
        <ele>307.76</ele>
        <time>2015-07-12T09:57:52.000Z</time>
      </trkpt>
      <trkpt lat="47.21944" lon="6.02365">
        <ele>307.76</ele>
        <time>2015-07-12T09:57:55.000Z</time>
      </trkpt>
      <trkpt lat="47.21938" lon="6.02351">
        <ele>307.76</ele>
        <time>2015-07-12T09:57:58.000Z</time>
      </trkpt>
      <trkpt lat="47.21932" lon="6.02337">
        <ele>307.76</ele>
        <time>2015-07-12T09:58:01.000Z</time>
      </trkpt>
      <trkpt lat="47.21927" lon="6.02323">
        <ele>308.24</ele>
        <time>2015-07-12T09:58:04.000Z</time>
      </trkpt>
      <trkpt lat="47.21921" lon="6.02308">
        <ele>307.76</ele>
        <time>2015-07-12T09:58:07.000Z</time>
      </trkpt>
      <trkpt lat="47.21913" lon="6.02291">
        <ele>307.28</ele>
        <time>2015-07-12T09:58:10.000Z</time>
      </trkpt>
      <trkpt lat="47.21908" lon="6.02279">
        <ele>307.28</ele>
        <time>2015-07-12T09:58:12.000Z</time>
      </trkpt>
      <trkpt lat="47.21901" lon="6.02263">
        <ele>306.8</ele>
        <time>2015-07-12T09:58:15.000Z</time>
      </trkpt>
      <trkpt lat="47.21893" lon="6.02246">
        <ele>306.8</ele>
        <time>2015-07-12T09:58:18.000Z</time>
      </trkpt>
      <trkpt lat="47.21886" lon="6.0223">
        <ele>306.8</ele>
        <time>2015-07-12T09:58:21.000Z</time>
      </trkpt>
      <trkpt lat="47.21878" lon="6.02214">
        <ele>306.8</ele>
        <time>2015-07-12T09:58:24.000Z</time>
      </trkpt>
      <trkpt lat="47.21872" lon="6.02197">
        <ele>306.8</ele>
        <time>2015-07-12T09:58:27.000Z</time>
      </trkpt>
      <trkpt lat="47.21867" lon="6.02186">
        <ele>306.8</ele>
        <time>2015-07-12T09:58:29.000Z</time>
      </trkpt>
      <trkpt lat="47.21859" lon="6.02169">
        <ele>306.8</ele>
        <time>2015-07-12T09:58:32.000Z</time>
      </trkpt>
      <trkpt lat="47.21853" lon="6.02153">
        <ele>306.8</ele>
        <time>2015-07-12T09:58:35.000Z</time>
      </trkpt>
      <trkpt lat="47.21846" lon="6.02138">
        <ele>306.8</ele>
        <time>2015-07-12T09:58:38.000Z</time>
      </trkpt>
      <trkpt lat="47.21839" lon="6.02123">
        <ele>306.32</ele>
        <time>2015-07-12T09:58:41.000Z</time>
      </trkpt>
      <trkpt lat="47.21836" lon="6.02111">
        <ele>305.84</ele>
        <time>2015-07-12T09:58:44.000Z</time>
      </trkpt>
      <trkpt lat="47.21833" lon="6.02098">
        <ele>305.84</ele>
        <time>2015-07-12T09:58:49.000Z</time>
      </trkpt>
      <trkpt lat="47.21827" lon="6.02087">
        <ele>306.32</ele>
        <time>2015-07-12T09:58:55.000Z</time>
      </trkpt>
      <trkpt lat="47.2182" lon="6.02074">
        <ele>306.32</ele>
        <time>2015-07-12T09:58:59.000Z</time>
      </trkpt>
      <trkpt lat="47.21814" lon="6.02062">
        <ele>306.32</ele>
        <time>2015-07-12T09:59:02.000Z</time>
      </trkpt>
      <trkpt lat="47.21807" lon="6.02048">
        <ele>306.32</ele>
        <time>2015-07-12T09:59:05.000Z</time>
      </trkpt>
      <trkpt lat="47.218" lon="6.02032">
        <ele>306.8</ele>
        <time>2015-07-12T09:59:08.000Z</time>
      </trkpt>
      <trkpt lat="47.21794" lon="6.02017">
        <ele>307.28</ele>
        <time>2015-07-12T09:59:11.000Z</time>
      </trkpt>
      <trkpt lat="47.21787" lon="6.02001">
        <ele>306.8</ele>
        <time>2015-07-12T09:59:14.000Z</time>
      </trkpt>
      <trkpt lat="47.2178" lon="6.01985">
        <ele>306.32</ele>
        <time>2015-07-12T09:59:17.000Z</time>
      </trkpt>
      <trkpt lat="47.21773" lon="6.01969">
        <ele>305.84</ele>
        <time>2015-07-12T09:59:20.000Z</time>
      </trkpt>
      <trkpt lat="47.21767" lon="6.01953">
        <ele>306.32</ele>
        <time>2015-07-12T09:59:23.000Z</time>
      </trkpt>
      <trkpt lat="47.21761" lon="6.01937">
        <ele>306.32</ele>
        <time>2015-07-12T09:59:26.000Z</time>
      </trkpt>
      <trkpt lat="47.21754" lon="6.01922">
        <ele>306.8</ele>
        <time>2015-07-12T09:59:29.000Z</time>
      </trkpt>
      <trkpt lat="47.2175" lon="6.01907">
        <ele>306.8</ele>
        <time>2015-07-12T09:59:32.000Z</time>
      </trkpt>
      <trkpt lat="47.21744" lon="6.01896">
        <ele>307.28</ele>
        <time>2015-07-12T09:59:35.000Z</time>
      </trkpt>
      <trkpt lat="47.21738" lon="6.01889">
        <ele>306.8</ele>
        <time>2015-07-12T09:59:37.000Z</time>
      </trkpt>
      <trkpt lat="47.21735" lon="6.01866">
        <ele>306.32</ele>
        <time>2015-07-12T09:59:41.000Z</time>
      </trkpt>
      <trkpt lat="47.21733" lon="6.01851">
        <ele>305.84</ele>
        <time>2015-07-12T09:59:43.000Z</time>
      </trkpt>
      <trkpt lat="47.21729" lon="6.01837">
        <ele>305.36</ele>
        <time>2015-07-12T09:59:45.000Z</time>
      </trkpt>
      <trkpt lat="47.21725" lon="6.01824">
        <ele>305.84</ele>
        <time>2015-07-12T09:59:47.000Z</time>
      </trkpt>
      <trkpt lat="47.21721" lon="6.01808">
        <ele>307.28</ele>
        <time>2015-07-12T09:59:50.000Z</time>
      </trkpt>
      <trkpt lat="47.21717" lon="6.01789">
        <ele>306.8</ele>
        <time>2015-07-12T09:59:53.000Z</time>
      </trkpt>
      <trkpt lat="47.21715" lon="6.01775">
        <ele>306.32</ele>
        <time>2015-07-12T09:59:55.000Z</time>
      </trkpt>
      <trkpt lat="47.21713" lon="6.01761">
        <ele>306.8</ele>
        <time>2015-07-12T09:59:57.000Z</time>
      </trkpt>
      <trkpt lat="47.21711" lon="6.01746">
        <ele>306.32</ele>
        <time>2015-07-12T09:59:59.000Z</time>
      </trkpt>
      <trkpt lat="47.2171" lon="6.01729">
        <ele>305.84</ele>
        <time>2015-07-12T10:00:01.000Z</time>
      </trkpt>
      <trkpt lat="47.21709" lon="6.01712">
        <ele>305.84</ele>
        <time>2015-07-12T10:00:03.000Z</time>
      </trkpt>
      <trkpt lat="47.21707" lon="6.01695">
        <ele>305.84</ele>
        <time>2015-07-12T10:00:05.000Z</time>
      </trkpt>
      <trkpt lat="47.21706" lon="6.01678">
        <ele>306.32</ele>
        <time>2015-07-12T10:00:07.000Z</time>
      </trkpt>
      <trkpt lat="47.21703" lon="6.0166">
        <ele>306.32</ele>
        <time>2015-07-12T10:00:09.000Z</time>
      </trkpt>
      <trkpt lat="47.21701" lon="6.01643">
        <ele>306.8</ele>
        <time>2015-07-12T10:00:11.000Z</time>
      </trkpt>
      <trkpt lat="47.217" lon="6.01626">
        <ele>306.8</ele>
        <time>2015-07-12T10:00:13.000Z</time>
      </trkpt>
      <trkpt lat="47.21698" lon="6.01608">
        <ele>306.32</ele>
        <time>2015-07-12T10:00:15.000Z</time>
      </trkpt>
      <trkpt lat="47.21696" lon="6.01591">
        <ele>306.32</ele>
        <time>2015-07-12T10:00:17.000Z</time>
      </trkpt>
      <trkpt lat="47.21695" lon="6.01575">
        <ele>306.8</ele>
        <time>2015-07-12T10:00:19.000Z</time>
      </trkpt>
      <trkpt lat="47.21694" lon="6.01558">
        <ele>306.32</ele>
        <time>2015-07-12T10:00:21.000Z</time>
      </trkpt>
      <trkpt lat="47.21693" lon="6.01541">
        <ele>306.32</ele>
        <time>2015-07-12T10:00:23.000Z</time>
      </trkpt>
      <trkpt lat="47.21692" lon="6.01525">
        <ele>306.32</ele>
        <time>2015-07-12T10:00:25.000Z</time>
      </trkpt>
      <trkpt lat="47.21692" lon="6.01508">
        <ele>305.84</ele>
        <time>2015-07-12T10:00:27.000Z</time>
      </trkpt>
      <trkpt lat="47.21691" lon="6.01493">
        <ele>306.32</ele>
        <time>2015-07-12T10:00:29.000Z</time>
      </trkpt>
      <trkpt lat="47.2169" lon="6.01479">
        <ele>305.84</ele>
        <time>2015-07-12T10:00:31.000Z</time>
      </trkpt>
      <trkpt lat="47.2169" lon="6.01464">
        <ele>305.84</ele>
        <time>2015-07-12T10:00:33.000Z</time>
      </trkpt>
      <trkpt lat="47.21689" lon="6.0145">
        <ele>306.32</ele>
        <time>2015-07-12T10:00:35.000Z</time>
      </trkpt>
      <trkpt lat="47.21688" lon="6.01435">
        <ele>305.84</ele>
        <time>2015-07-12T10:00:37.000Z</time>
      </trkpt>
      <trkpt lat="47.21686" lon="6.0142">
        <ele>305.36</ele>
        <time>2015-07-12T10:00:39.000Z</time>
      </trkpt>
      <trkpt lat="47.21684" lon="6.01404">
        <ele>305.84</ele>
        <time>2015-07-12T10:00:41.000Z</time>
      </trkpt>
      <trkpt lat="47.21682" lon="6.01389">
        <ele>305.84</ele>
        <time>2015-07-12T10:00:43.000Z</time>
      </trkpt>
      <trkpt lat="47.21682" lon="6.01373">
        <ele>305.84</ele>
        <time>2015-07-12T10:00:45.000Z</time>
      </trkpt>
      <trkpt lat="47.2168" lon="6.01358">
        <ele>305.84</ele>
        <time>2015-07-12T10:00:47.000Z</time>
      </trkpt>
      <trkpt lat="47.21678" lon="6.01343">
        <ele>305.84</ele>
        <time>2015-07-12T10:00:49.000Z</time>
      </trkpt>
      <trkpt lat="47.21677" lon="6.01328">
        <ele>305.84</ele>
        <time>2015-07-12T10:00:51.000Z</time>
      </trkpt>
      <trkpt lat="47.21675" lon="6.01312">
        <ele>305.84</ele>
        <time>2015-07-12T10:00:53.000Z</time>
      </trkpt>
      <trkpt lat="47.21674" lon="6.01298">
        <ele>305.36</ele>
        <time>2015-07-12T10:00:55.000Z</time>
      </trkpt>
      <trkpt lat="47.21672" lon="6.01283">
        <ele>305.84</ele>
        <time>2015-07-12T10:00:57.000Z</time>
      </trkpt>
      <trkpt lat="47.21671" lon="6.01269">
        <ele>306.32</ele>
        <time>2015-07-12T10:00:59.000Z</time>
      </trkpt>
      <trkpt lat="47.21669" lon="6.01252">
        <ele>306.32</ele>
        <time>2015-07-12T10:01:02.000Z</time>
      </trkpt>
      <trkpt lat="47.21667" lon="6.01237">
        <ele>306.8</ele>
        <time>2015-07-12T10:01:06.000Z</time>
      </trkpt>
      <trkpt lat="47.21667" lon="6.01222">
        <ele>306.8</ele>
        <time>2015-07-12T10:01:11.000Z</time>
      </trkpt>
      <trkpt lat="47.21667" lon="6.01208">
        <ele>306.8</ele>
        <time>2015-07-12T10:01:17.000Z</time>
      </trkpt>
      <trkpt lat="47.21667" lon="6.01194">
        <ele>307.28</ele>
        <time>2015-07-12T10:01:24.000Z</time>
      </trkpt>
      <trkpt lat="47.21666" lon="6.0118">
        <ele>306.8</ele>
        <time>2015-07-12T10:01:29.000Z</time>
      </trkpt>
      <trkpt lat="47.21666" lon="6.01165">
        <ele>306.8</ele>
        <time>2015-07-12T10:01:37.000Z</time>
      </trkpt>
      <trkpt lat="47.21666" lon="6.01153">
        <ele>307.28</ele>
        <time>2015-07-12T10:01:42.000Z</time>
      </trkpt>
      <trkpt lat="47.21664" lon="6.01138">
        <ele>307.28</ele>
        <time>2015-07-12T10:01:47.000Z</time>
      </trkpt>
      <trkpt lat="47.21664" lon="6.01124">
        <ele>306.8</ele>
        <time>2015-07-12T10:01:53.000Z</time>
      </trkpt>
      <trkpt lat="47.21665" lon="6.01134">
        <ele>306.32</ele>
        <time>2015-07-12T10:02:29.000Z</time>
      </trkpt>
      <trkpt lat="47.21664" lon="6.01148">
        <ele>306.8</ele>
        <time>2015-07-12T10:02:33.000Z</time>
      </trkpt>
      <trkpt lat="47.21667" lon="6.01166">
        <ele>306.8</ele>
        <time>2015-07-12T10:02:36.000Z</time>
      </trkpt>
      <trkpt lat="47.21668" lon="6.01183">
        <ele>306.8</ele>
        <time>2015-07-12T10:02:38.000Z</time>
      </trkpt>
      <trkpt lat="47.21668" lon="6.01201">
        <ele>307.76</ele>
        <time>2015-07-12T10:02:40.000Z</time>
      </trkpt>
      <trkpt lat="47.21669" lon="6.0122">
        <ele>307.76</ele>
        <time>2015-07-12T10:02:42.000Z</time>
      </trkpt>
      <trkpt lat="47.2167" lon="6.01241">
        <ele>307.28</ele>
        <time>2015-07-12T10:02:44.000Z</time>
      </trkpt>
      <trkpt lat="47.21672" lon="6.01263">
        <ele>307.28</ele>
        <time>2015-07-12T10:02:46.000Z</time>
      </trkpt>
      <trkpt lat="47.21674" lon="6.01287">
        <ele>307.28</ele>
        <time>2015-07-12T10:02:48.000Z</time>
      </trkpt>
      <trkpt lat="47.21676" lon="6.0131">
        <ele>307.28</ele>
        <time>2015-07-12T10:02:50.000Z</time>
      </trkpt>
      <trkpt lat="47.21678" lon="6.01333">
        <ele>306.8</ele>
        <time>2015-07-12T10:02:52.000Z</time>
      </trkpt>
      <trkpt lat="47.2168" lon="6.01355">
        <ele>307.28</ele>
        <time>2015-07-12T10:02:54.000Z</time>
      </trkpt>
      <trkpt lat="47.21682" lon="6.01377">
        <ele>307.28</ele>
        <time>2015-07-12T10:02:56.000Z</time>
      </trkpt>
      <trkpt lat="47.21684" lon="6.01398">
        <ele>306.8</ele>
        <time>2015-07-12T10:02:58.000Z</time>
      </trkpt>
      <trkpt lat="47.21685" lon="6.01419">
        <ele>306.8</ele>
        <time>2015-07-12T10:03:00.000Z</time>
      </trkpt>
      <trkpt lat="47.21688" lon="6.0144">
        <ele>307.28</ele>
        <time>2015-07-12T10:03:02.000Z</time>
      </trkpt>
      <trkpt lat="47.2169" lon="6.0146">
        <ele>306.8</ele>
        <time>2015-07-12T10:03:04.000Z</time>
      </trkpt>
      <trkpt lat="47.21691" lon="6.01481">
        <ele>307.28</ele>
        <time>2015-07-12T10:03:06.000Z</time>
      </trkpt>
      <trkpt lat="47.21692" lon="6.01503">
        <ele>306.8</ele>
        <time>2015-07-12T10:03:08.000Z</time>
      </trkpt>
      <trkpt lat="47.21693" lon="6.01524">
        <ele>306.8</ele>
        <time>2015-07-12T10:03:10.000Z</time>
      </trkpt>
      <trkpt lat="47.21693" lon="6.01545">
        <ele>306.8</ele>
        <time>2015-07-12T10:03:12.000Z</time>
      </trkpt>
      <trkpt lat="47.21695" lon="6.01566">
        <ele>307.28</ele>
        <time>2015-07-12T10:03:14.000Z</time>
      </trkpt>
      <trkpt lat="47.21696" lon="6.01587">
        <ele>306.8</ele>
        <time>2015-07-12T10:03:16.000Z</time>
      </trkpt>
      <trkpt lat="47.21698" lon="6.01608">
        <ele>307.28</ele>
        <time>2015-07-12T10:03:18.000Z</time>
      </trkpt>
      <trkpt lat="47.21701" lon="6.01628">
        <ele>306.8</ele>
        <time>2015-07-12T10:03:20.000Z</time>
      </trkpt>
      <trkpt lat="47.21703" lon="6.01649">
        <ele>307.28</ele>
        <time>2015-07-12T10:03:22.000Z</time>
      </trkpt>
      <trkpt lat="47.21705" lon="6.01669">
        <ele>306.8</ele>
        <time>2015-07-12T10:03:24.000Z</time>
      </trkpt>
      <trkpt lat="47.21707" lon="6.0169">
        <ele>307.28</ele>
        <time>2015-07-12T10:03:26.000Z</time>
      </trkpt>
      <trkpt lat="47.21709" lon="6.0171">
        <ele>307.28</ele>
        <time>2015-07-12T10:03:28.000Z</time>
      </trkpt>
      <trkpt lat="47.2171" lon="6.0173">
        <ele>307.76</ele>
        <time>2015-07-12T10:03:30.000Z</time>
      </trkpt>
      <trkpt lat="47.21711" lon="6.0175">
        <ele>308.24</ele>
        <time>2015-07-12T10:03:32.000Z</time>
      </trkpt>
      <trkpt lat="47.21713" lon="6.01769">
        <ele>307.76</ele>
        <time>2015-07-12T10:03:34.000Z</time>
      </trkpt>
      <trkpt lat="47.21717" lon="6.01787">
        <ele>307.76</ele>
        <time>2015-07-12T10:03:36.000Z</time>
      </trkpt>
      <trkpt lat="47.21722" lon="6.01805">
        <ele>307.28</ele>
        <time>2015-07-12T10:03:38.000Z</time>
      </trkpt>
      <trkpt lat="47.21728" lon="6.01822">
        <ele>306.8</ele>
        <time>2015-07-12T10:03:40.000Z</time>
      </trkpt>
      <trkpt lat="47.21734" lon="6.01841">
        <ele>306.32</ele>
        <time>2015-07-12T10:03:42.000Z</time>
      </trkpt>
      <trkpt lat="47.2174" lon="6.01861">
        <ele>305.36</ele>
        <time>2015-07-12T10:03:44.000Z</time>
      </trkpt>
      <trkpt lat="47.21744" lon="6.01879">
        <ele>305.84</ele>
        <time>2015-07-12T10:03:46.000Z</time>
      </trkpt>
      <trkpt lat="47.21747" lon="6.01892">
        <ele>307.28</ele>
        <time>2015-07-12T10:03:48.000Z</time>
      </trkpt>
      <trkpt lat="47.21753" lon="6.0191">
        <ele>307.28</ele>
        <time>2015-07-12T10:03:51.000Z</time>
      </trkpt>
      <trkpt lat="47.21758" lon="6.01924">
        <ele>307.28</ele>
        <time>2015-07-12T10:03:53.000Z</time>
      </trkpt>
      <trkpt lat="47.21762" lon="6.0194">
        <ele>307.28</ele>
        <time>2015-07-12T10:03:55.000Z</time>
      </trkpt>
      <trkpt lat="47.21769" lon="6.01954">
        <ele>307.28</ele>
        <time>2015-07-12T10:03:57.000Z</time>
      </trkpt>
      <trkpt lat="47.21777" lon="6.01969">
        <ele>307.28</ele>
        <time>2015-07-12T10:03:59.000Z</time>
      </trkpt>
      <trkpt lat="47.21783" lon="6.01985">
        <ele>307.28</ele>
        <time>2015-07-12T10:04:01.000Z</time>
      </trkpt>
      <trkpt lat="47.21789" lon="6.01999">
        <ele>307.28</ele>
        <time>2015-07-12T10:04:03.000Z</time>
      </trkpt>
      <trkpt lat="47.21794" lon="6.02013">
        <ele>307.28</ele>
        <time>2015-07-12T10:04:05.000Z</time>
      </trkpt>
      <trkpt lat="47.21799" lon="6.02024">
        <ele>306.8</ele>
        <time>2015-07-12T10:04:07.000Z</time>
      </trkpt>
      <trkpt lat="47.21806" lon="6.0204">
        <ele>306.8</ele>
        <time>2015-07-12T10:04:10.000Z</time>
      </trkpt>
      <trkpt lat="47.21811" lon="6.02053">
        <ele>307.28</ele>
        <time>2015-07-12T10:04:12.000Z</time>
      </trkpt>
      <trkpt lat="47.21816" lon="6.02066">
        <ele>307.76</ele>
        <time>2015-07-12T10:04:14.000Z</time>
      </trkpt>
      <trkpt lat="47.21822" lon="6.02079">
        <ele>307.28</ele>
        <time>2015-07-12T10:04:16.000Z</time>
      </trkpt>
      <trkpt lat="47.21827" lon="6.02091">
        <ele>306.32</ele>
        <time>2015-07-12T10:04:18.000Z</time>
      </trkpt>
      <trkpt lat="47.21834" lon="6.02105">
        <ele>306.32</ele>
        <time>2015-07-12T10:04:21.000Z</time>
      </trkpt>
      <trkpt lat="47.21839" lon="6.02118">
        <ele>306.32</ele>
        <time>2015-07-12T10:04:24.000Z</time>
      </trkpt>
      <trkpt lat="47.21843" lon="6.02133">
        <ele>306.32</ele>
        <time>2015-07-12T10:04:27.000Z</time>
      </trkpt>
      <trkpt lat="47.2185" lon="6.0215">
        <ele>306.8</ele>
        <time>2015-07-12T10:04:30.000Z</time>
      </trkpt>
      <trkpt lat="47.21856" lon="6.02164">
        <ele>306.8</ele>
        <time>2015-07-12T10:04:32.000Z</time>
      </trkpt>
      <trkpt lat="47.21863" lon="6.02178">
        <ele>306.8</ele>
        <time>2015-07-12T10:04:34.000Z</time>
      </trkpt>
      <trkpt lat="47.2187" lon="6.02194">
        <ele>307.28</ele>
        <time>2015-07-12T10:04:36.000Z</time>
      </trkpt>
      <trkpt lat="47.21877" lon="6.02211">
        <ele>307.28</ele>
        <time>2015-07-12T10:04:38.000Z</time>
      </trkpt>
      <trkpt lat="47.21884" lon="6.02227">
        <ele>307.28</ele>
        <time>2015-07-12T10:04:40.000Z</time>
      </trkpt>
      <trkpt lat="47.2189" lon="6.02243">
        <ele>306.8</ele>
        <time>2015-07-12T10:04:42.000Z</time>
      </trkpt>
      <trkpt lat="47.21898" lon="6.02259">
        <ele>307.76</ele>
        <time>2015-07-12T10:04:44.000Z</time>
      </trkpt>
      <trkpt lat="47.21904" lon="6.02276">
        <ele>307.28</ele>
        <time>2015-07-12T10:04:46.000Z</time>
      </trkpt>
      <trkpt lat="47.21913" lon="6.02291">
        <ele>307.76</ele>
        <time>2015-07-12T10:04:48.000Z</time>
      </trkpt>
      <trkpt lat="47.2192" lon="6.02307">
        <ele>308.24</ele>
        <time>2015-07-12T10:04:50.000Z</time>
      </trkpt>
      <trkpt lat="47.21926" lon="6.02322">
        <ele>308.72</ele>
        <time>2015-07-12T10:04:52.000Z</time>
      </trkpt>
      <trkpt lat="47.21934" lon="6.02337">
        <ele>308.72</ele>
        <time>2015-07-12T10:04:54.000Z</time>
      </trkpt>
      <trkpt lat="47.2194" lon="6.02354">
        <ele>308.24</ele>
        <time>2015-07-12T10:04:56.000Z</time>
      </trkpt>
      <trkpt lat="47.21947" lon="6.02373">
        <ele>308.72</ele>
        <time>2015-07-12T10:04:58.000Z</time>
      </trkpt>
      <trkpt lat="47.21952" lon="6.02391">
        <ele>308.24</ele>
        <time>2015-07-12T10:05:00.000Z</time>
      </trkpt>
      <trkpt lat="47.21957" lon="6.0241">
        <ele>307.76</ele>
        <time>2015-07-12T10:05:02.000Z</time>
      </trkpt>
      <trkpt lat="47.21962" lon="6.02428">
        <ele>307.76</ele>
        <time>2015-07-12T10:05:04.000Z</time>
      </trkpt>
      <trkpt lat="47.21967" lon="6.02445">
        <ele>307.76</ele>
        <time>2015-07-12T10:05:06.000Z</time>
      </trkpt>
      <trkpt lat="47.21969" lon="6.02461">
        <ele>307.76</ele>
        <time>2015-07-12T10:05:08.000Z</time>
      </trkpt>
      <trkpt lat="47.21972" lon="6.02476">
        <ele>307.76</ele>
        <time>2015-07-12T10:05:10.000Z</time>
      </trkpt>
      <trkpt lat="47.21975" lon="6.02491">
        <ele>307.76</ele>
        <time>2015-07-12T10:05:12.000Z</time>
      </trkpt>
      <trkpt lat="47.21976" lon="6.02508">
        <ele>308.24</ele>
        <time>2015-07-12T10:05:14.000Z</time>
      </trkpt>
      <trkpt lat="47.21978" lon="6.02525">
        <ele>308.24</ele>
        <time>2015-07-12T10:05:16.000Z</time>
      </trkpt>
      <trkpt lat="47.2198" lon="6.02542">
        <ele>308.72</ele>
        <time>2015-07-12T10:05:18.000Z</time>
      </trkpt>
      <trkpt lat="47.21982" lon="6.0256">
        <ele>308.72</ele>
        <time>2015-07-12T10:05:20.000Z</time>
      </trkpt>
      <trkpt lat="47.21984" lon="6.02578">
        <ele>308.72</ele>
        <time>2015-07-12T10:05:22.000Z</time>
      </trkpt>
      <trkpt lat="47.21986" lon="6.02597">
        <ele>308.72</ele>
        <time>2015-07-12T10:05:24.000Z</time>
      </trkpt>
      <trkpt lat="47.21989" lon="6.02615">
        <ele>308.72</ele>
        <time>2015-07-12T10:05:26.000Z</time>
      </trkpt>
      <trkpt lat="47.21992" lon="6.02633">
        <ele>308.72</ele>
        <time>2015-07-12T10:05:28.000Z</time>
      </trkpt>
      <trkpt lat="47.21994" lon="6.02651">
        <ele>309.2</ele>
        <time>2015-07-12T10:05:30.000Z</time>
      </trkpt>
      <trkpt lat="47.21997" lon="6.02669">
        <ele>309.2</ele>
        <time>2015-07-12T10:05:32.000Z</time>
      </trkpt>
      <trkpt lat="47.21999" lon="6.02688">
        <ele>308.72</ele>
        <time>2015-07-12T10:05:34.000Z</time>
      </trkpt>
      <trkpt lat="47.22001" lon="6.02706">
        <ele>309.2</ele>
        <time>2015-07-12T10:05:36.000Z</time>
      </trkpt>
      <trkpt lat="47.22005" lon="6.02723">
        <ele>309.2</ele>
        <time>2015-07-12T10:05:38.000Z</time>
      </trkpt>
      <trkpt lat="47.22008" lon="6.0274">
        <ele>309.2</ele>
        <time>2015-07-12T10:05:40.000Z</time>
      </trkpt>
      <trkpt lat="47.22011" lon="6.02758">
        <ele>309.2</ele>
        <time>2015-07-12T10:05:42.000Z</time>
      </trkpt>
      <trkpt lat="47.22015" lon="6.02775">
        <ele>309.2</ele>
        <time>2015-07-12T10:05:44.000Z</time>
      </trkpt>
      <trkpt lat="47.22019" lon="6.02793">
        <ele>309.2</ele>
        <time>2015-07-12T10:05:46.000Z</time>
      </trkpt>
      <trkpt lat="47.22025" lon="6.0281">
        <ele>309.2</ele>
        <time>2015-07-12T10:05:48.000Z</time>
      </trkpt>
      <trkpt lat="47.22032" lon="6.02826">
        <ele>309.68</ele>
        <time>2015-07-12T10:05:50.000Z</time>
      </trkpt>
      <trkpt lat="47.22039" lon="6.02842">
        <ele>309.68</ele>
        <time>2015-07-12T10:05:52.000Z</time>
      </trkpt>
      <trkpt lat="47.22046" lon="6.02856">
        <ele>309.68</ele>
        <time>2015-07-12T10:05:54.000Z</time>
      </trkpt>
      <trkpt lat="47.22052" lon="6.02869">
        <ele>308.72</ele>
        <time>2015-07-12T10:05:56.000Z</time>
      </trkpt>
      <trkpt lat="47.2206" lon="6.02881">
        <ele>309.2</ele>
        <time>2015-07-12T10:05:58.000Z</time>
      </trkpt>
      <trkpt lat="47.22067" lon="6.02894">
        <ele>309.2</ele>
        <time>2015-07-12T10:06:00.000Z</time>
      </trkpt>
      <trkpt lat="47.22075" lon="6.02907">
        <ele>309.2</ele>
        <time>2015-07-12T10:06:02.000Z</time>
      </trkpt>
      <trkpt lat="47.22083" lon="6.02919">
        <ele>308.72</ele>
        <time>2015-07-12T10:06:04.000Z</time>
      </trkpt>
      <trkpt lat="47.22091" lon="6.02931">
        <ele>309.2</ele>
        <time>2015-07-12T10:06:06.000Z</time>
      </trkpt>
      <trkpt lat="47.22099" lon="6.02942">
        <ele>308.72</ele>
        <time>2015-07-12T10:06:08.000Z</time>
      </trkpt>
      <trkpt lat="47.22107" lon="6.02951">
        <ele>308.72</ele>
        <time>2015-07-12T10:06:10.000Z</time>
      </trkpt>
      <trkpt lat="47.22115" lon="6.02959">
        <ele>308.72</ele>
        <time>2015-07-12T10:06:12.000Z</time>
      </trkpt>
      <trkpt lat="47.22124" lon="6.02967">
        <ele>308.72</ele>
        <time>2015-07-12T10:06:14.000Z</time>
      </trkpt>
      <trkpt lat="47.22134" lon="6.02977">
        <ele>308.72</ele>
        <time>2015-07-12T10:06:16.000Z</time>
      </trkpt>
      <trkpt lat="47.22144" lon="6.02987">
        <ele>308.72</ele>
        <time>2015-07-12T10:06:18.000Z</time>
      </trkpt>
      <trkpt lat="47.22155" lon="6.02996">
        <ele>309.2</ele>
        <time>2015-07-12T10:06:20.000Z</time>
      </trkpt>
      <trkpt lat="47.22166" lon="6.03005">
        <ele>309.2</ele>
        <time>2015-07-12T10:06:22.000Z</time>
      </trkpt>
      <trkpt lat="47.22176" lon="6.03012">
        <ele>309.2</ele>
        <time>2015-07-12T10:06:24.000Z</time>
      </trkpt>
      <trkpt lat="47.22188" lon="6.03019">
        <ele>309.2</ele>
        <time>2015-07-12T10:06:26.000Z</time>
      </trkpt>
      <trkpt lat="47.22201" lon="6.03027">
        <ele>309.68</ele>
        <time>2015-07-12T10:06:28.000Z</time>
      </trkpt>
      <trkpt lat="47.22213" lon="6.03034">
        <ele>309.2</ele>
        <time>2015-07-12T10:06:30.000Z</time>
      </trkpt>
      <trkpt lat="47.22226" lon="6.03041">
        <ele>309.2</ele>
        <time>2015-07-12T10:06:32.000Z</time>
      </trkpt>
      <trkpt lat="47.22238" lon="6.03049">
        <ele>309.2</ele>
        <time>2015-07-12T10:06:34.000Z</time>
      </trkpt>
      <trkpt lat="47.2225" lon="6.03056">
        <ele>309.68</ele>
        <time>2015-07-12T10:06:36.000Z</time>
      </trkpt>
      <trkpt lat="47.2226" lon="6.03061">
        <ele>309.68</ele>
        <time>2015-07-12T10:06:38.000Z</time>
      </trkpt>
      <trkpt lat="47.22271" lon="6.03067">
        <ele>309.2</ele>
        <time>2015-07-12T10:06:40.000Z</time>
      </trkpt>
      <trkpt lat="47.22282" lon="6.03074">
        <ele>309.68</ele>
        <time>2015-07-12T10:06:42.000Z</time>
      </trkpt>
      <trkpt lat="47.22294" lon="6.0308">
        <ele>309.68</ele>
        <time>2015-07-12T10:06:44.000Z</time>
      </trkpt>
      <trkpt lat="47.22306" lon="6.03087">
        <ele>309.68</ele>
        <time>2015-07-12T10:06:46.000Z</time>
      </trkpt>
      <trkpt lat="47.22318" lon="6.03094">
        <ele>309.68</ele>
        <time>2015-07-12T10:06:48.000Z</time>
      </trkpt>
      <trkpt lat="47.22328" lon="6.03101">
        <ele>309.68</ele>
        <time>2015-07-12T10:06:50.000Z</time>
      </trkpt>
      <trkpt lat="47.22338" lon="6.03106">
        <ele>309.2</ele>
        <time>2015-07-12T10:06:52.000Z</time>
      </trkpt>
      <trkpt lat="47.22349" lon="6.03113">
        <ele>309.2</ele>
        <time>2015-07-12T10:06:54.000Z</time>
      </trkpt>
      <trkpt lat="47.22361" lon="6.0312">
        <ele>309.68</ele>
        <time>2015-07-12T10:06:56.000Z</time>
      </trkpt>
      <trkpt lat="47.22373" lon="6.03127">
        <ele>309.68</ele>
        <time>2015-07-12T10:06:58.000Z</time>
      </trkpt>
      <trkpt lat="47.22385" lon="6.03133">
        <ele>309.68</ele>
        <time>2015-07-12T10:07:00.000Z</time>
      </trkpt>
      <trkpt lat="47.22397" lon="6.03139">
        <ele>309.68</ele>
        <time>2015-07-12T10:07:02.000Z</time>
      </trkpt>
      <trkpt lat="47.22409" lon="6.03146">
        <ele>309.68</ele>
        <time>2015-07-12T10:07:04.000Z</time>
      </trkpt>
      <trkpt lat="47.22421" lon="6.03152">
        <ele>309.68</ele>
        <time>2015-07-12T10:07:06.000Z</time>
      </trkpt>
      <trkpt lat="47.22434" lon="6.03158">
        <ele>309.68</ele>
        <time>2015-07-12T10:07:08.000Z</time>
      </trkpt>
      <trkpt lat="47.22446" lon="6.03165">
        <ele>309.2</ele>
        <time>2015-07-12T10:07:10.000Z</time>
      </trkpt>
      <trkpt lat="47.22458" lon="6.03171">
        <ele>309.68</ele>
        <time>2015-07-12T10:07:12.000Z</time>
      </trkpt>
      <trkpt lat="47.22469" lon="6.03176">
        <ele>309.2</ele>
        <time>2015-07-12T10:07:14.000Z</time>
      </trkpt>
      <trkpt lat="47.2248" lon="6.0318">
        <ele>309.2</ele>
        <time>2015-07-12T10:07:16.000Z</time>
      </trkpt>
      <trkpt lat="47.22493" lon="6.03183">
        <ele>309.2</ele>
        <time>2015-07-12T10:07:18.000Z</time>
      </trkpt>
      <trkpt lat="47.22506" lon="6.03188">
        <ele>309.2</ele>
        <time>2015-07-12T10:07:20.000Z</time>
      </trkpt>
      <trkpt lat="47.22519" lon="6.03192">
        <ele>309.2</ele>
        <time>2015-07-12T10:07:22.000Z</time>
      </trkpt>
      <trkpt lat="47.2253" lon="6.03201">
        <ele>309.2</ele>
        <time>2015-07-12T10:07:24.000Z</time>
      </trkpt>
      <trkpt lat="47.2254" lon="6.03213">
        <ele>309.2</ele>
        <time>2015-07-12T10:07:26.000Z</time>
      </trkpt>
      <trkpt lat="47.22552" lon="6.03225">
        <ele>308.72</ele>
        <time>2015-07-12T10:07:28.000Z</time>
      </trkpt>
      <trkpt lat="47.22563" lon="6.03237">
        <ele>308.72</ele>
        <time>2015-07-12T10:07:30.000Z</time>
      </trkpt>
      <trkpt lat="47.22574" lon="6.03248">
        <ele>309.2</ele>
        <time>2015-07-12T10:07:32.000Z</time>
      </trkpt>
      <trkpt lat="47.22587" lon="6.03256">
        <ele>308.72</ele>
        <time>2015-07-12T10:07:34.000Z</time>
      </trkpt>
      <trkpt lat="47.226" lon="6.03262">
        <ele>308.72</ele>
        <time>2015-07-12T10:07:36.000Z</time>
      </trkpt>
      <trkpt lat="47.22613" lon="6.03265">
        <ele>309.2</ele>
        <time>2015-07-12T10:07:38.000Z</time>
      </trkpt>
      <trkpt lat="47.22626" lon="6.03265">
        <ele>308.72</ele>
        <time>2015-07-12T10:07:40.000Z</time>
      </trkpt>
      <trkpt lat="47.22638" lon="6.03263">
        <ele>308.72</ele>
        <time>2015-07-12T10:07:42.000Z</time>
      </trkpt>
      <trkpt lat="47.22649" lon="6.0326">
        <ele>308.72</ele>
        <time>2015-07-12T10:07:44.000Z</time>
      </trkpt>
      <trkpt lat="47.2266" lon="6.03257">
        <ele>309.2</ele>
        <time>2015-07-12T10:07:46.000Z</time>
      </trkpt>
      <trkpt lat="47.22671" lon="6.03253">
        <ele>308.72</ele>
        <time>2015-07-12T10:07:48.000Z</time>
      </trkpt>
      <trkpt lat="47.22683" lon="6.03251">
        <ele>308.72</ele>
        <time>2015-07-12T10:07:50.000Z</time>
      </trkpt>
      <trkpt lat="47.22694" lon="6.03249">
        <ele>309.68</ele>
        <time>2015-07-12T10:07:52.000Z</time>
      </trkpt>
      <trkpt lat="47.22705" lon="6.03246">
        <ele>310.16</ele>
        <time>2015-07-12T10:07:54.000Z</time>
      </trkpt>
      <trkpt lat="47.22715" lon="6.03242">
        <ele>310.64</ele>
        <time>2015-07-12T10:07:56.000Z</time>
      </trkpt>
      <trkpt lat="47.22727" lon="6.03236">
        <ele>311.6</ele>
        <time>2015-07-12T10:07:58.000Z</time>
      </trkpt>
      <trkpt lat="47.22739" lon="6.03232">
        <ele>311.12</ele>
        <time>2015-07-12T10:08:00.000Z</time>
      </trkpt>
      <trkpt lat="47.22752" lon="6.03227">
        <ele>310.64</ele>
        <time>2015-07-12T10:08:02.000Z</time>
      </trkpt>
      <trkpt lat="47.22765" lon="6.0322">
        <ele>310.16</ele>
        <time>2015-07-12T10:08:04.000Z</time>
      </trkpt>
      <trkpt lat="47.22778" lon="6.03211">
        <ele>310.16</ele>
        <time>2015-07-12T10:08:06.000Z</time>
      </trkpt>
      <trkpt lat="47.2279" lon="6.03203">
        <ele>310.16</ele>
        <time>2015-07-12T10:08:08.000Z</time>
      </trkpt>
      <trkpt lat="47.22802" lon="6.03193">
        <ele>310.16</ele>
        <time>2015-07-12T10:08:10.000Z</time>
      </trkpt>
      <trkpt lat="47.22813" lon="6.03182">
        <ele>310.16</ele>
        <time>2015-07-12T10:08:12.000Z</time>
      </trkpt>
      <trkpt lat="47.22824" lon="6.03169">
        <ele>310.16</ele>
        <time>2015-07-12T10:08:14.000Z</time>
      </trkpt>
      <trkpt lat="47.22833" lon="6.03154">
        <ele>309.68</ele>
        <time>2015-07-12T10:08:16.000Z</time>
      </trkpt>
      <trkpt lat="47.22841" lon="6.03137">
        <ele>309.68</ele>
        <time>2015-07-12T10:08:18.000Z</time>
      </trkpt>
      <trkpt lat="47.2285" lon="6.03121">
        <ele>309.68</ele>
        <time>2015-07-12T10:08:20.000Z</time>
      </trkpt>
      <trkpt lat="47.22859" lon="6.03107">
        <ele>309.68</ele>
        <time>2015-07-12T10:08:22.000Z</time>
      </trkpt>
      <trkpt lat="47.22869" lon="6.03093">
        <ele>309.68</ele>
        <time>2015-07-12T10:08:24.000Z</time>
      </trkpt>
      <trkpt lat="47.22878" lon="6.03079">
        <ele>310.16</ele>
        <time>2015-07-12T10:08:26.000Z</time>
      </trkpt>
      <trkpt lat="47.22886" lon="6.03066">
        <ele>309.68</ele>
        <time>2015-07-12T10:08:28.000Z</time>
      </trkpt>
      <trkpt lat="47.22893" lon="6.03055">
        <ele>309.68</ele>
        <time>2015-07-12T10:08:30.000Z</time>
      </trkpt>
      <trkpt lat="47.22903" lon="6.03048">
        <ele>309.68</ele>
        <time>2015-07-12T10:08:32.000Z</time>
      </trkpt>
      <trkpt lat="47.22913" lon="6.03042">
        <ele>310.16</ele>
        <time>2015-07-12T10:08:34.000Z</time>
      </trkpt>
      <trkpt lat="47.22922" lon="6.03038">
        <ele>310.64</ele>
        <time>2015-07-12T10:08:36.000Z</time>
      </trkpt>
      <trkpt lat="47.22935" lon="6.03036">
        <ele>310.16</ele>
        <time>2015-07-12T10:08:39.000Z</time>
      </trkpt>
      <trkpt lat="47.22945" lon="6.03037">
        <ele>310.16</ele>
        <time>2015-07-12T10:08:41.000Z</time>
      </trkpt>
      <trkpt lat="47.22954" lon="6.03037">
        <ele>309.68</ele>
        <time>2015-07-12T10:08:43.000Z</time>
      </trkpt>
      <trkpt lat="47.22963" lon="6.03038">
        <ele>309.68</ele>
        <time>2015-07-12T10:08:45.000Z</time>
      </trkpt>
      <trkpt lat="47.22972" lon="6.03043">
        <ele>309.2</ele>
        <time>2015-07-12T10:08:48.000Z</time>
      </trkpt>
      <trkpt lat="47.22969" lon="6.03055">
        <ele>309.68</ele>
        <time>2015-07-12T10:08:51.000Z</time>
      </trkpt>
      <trkpt lat="47.22968" lon="6.03066">
        <ele>310.16</ele>
        <time>2015-07-12T10:08:55.000Z</time>
      </trkpt>
      <trkpt lat="47.22976" lon="6.03053">
        <ele>311.6</ele>
        <time>2015-07-12T10:08:59.000Z</time>
      </trkpt>
      <trkpt lat="47.22984" lon="6.03042">
        <ele>312.57</ele>
        <time>2015-07-12T10:09:03.000Z</time>
      </trkpt>
      <trkpt lat="47.22989" lon="6.03027">
        <ele>312.57</ele>
        <time>2015-07-12T10:09:07.000Z</time>
      </trkpt>
      <trkpt lat="47.22993" lon="6.03015">
        <ele>312.09</ele>
        <time>2015-07-12T10:09:10.000Z</time>
      </trkpt>
      <trkpt lat="47.22997" lon="6.02999">
        <ele>312.57</ele>
        <time>2015-07-12T10:09:13.000Z</time>
      </trkpt>
      <trkpt lat="47.23001" lon="6.02986">
        <ele>312.09</ele>
        <time>2015-07-12T10:09:15.000Z</time>
      </trkpt>
      <trkpt lat="47.23006" lon="6.02973">
        <ele>311.6</ele>
        <time>2015-07-12T10:09:17.000Z</time>
      </trkpt>
      <trkpt lat="47.2301" lon="6.02958">
        <ele>311.6</ele>
        <time>2015-07-12T10:09:19.000Z</time>
      </trkpt>
      <trkpt lat="47.23015" lon="6.02943">
        <ele>311.6</ele>
        <time>2015-07-12T10:09:21.000Z</time>
      </trkpt>
      <trkpt lat="47.2302" lon="6.02928">
        <ele>311.12</ele>
        <time>2015-07-12T10:09:23.000Z</time>
      </trkpt>
      <trkpt lat="47.23024" lon="6.02913">
        <ele>311.6</ele>
        <time>2015-07-12T10:09:25.000Z</time>
      </trkpt>
      <trkpt lat="47.23029" lon="6.02899">
        <ele>311.12</ele>
        <time>2015-07-12T10:09:27.000Z</time>
      </trkpt>
      <trkpt lat="47.23032" lon="6.02885">
        <ele>311.12</ele>
        <time>2015-07-12T10:09:29.000Z</time>
      </trkpt>
      <trkpt lat="47.23037" lon="6.02871">
        <ele>311.12</ele>
        <time>2015-07-12T10:09:31.000Z</time>
      </trkpt>
      <trkpt lat="47.23043" lon="6.02857">
        <ele>311.12</ele>
        <time>2015-07-12T10:09:33.000Z</time>
      </trkpt>
      <trkpt lat="47.23047" lon="6.02843">
        <ele>311.6</ele>
        <time>2015-07-12T10:09:35.000Z</time>
      </trkpt>
      <trkpt lat="47.23052" lon="6.02829">
        <ele>311.6</ele>
        <time>2015-07-12T10:09:37.000Z</time>
      </trkpt>
      <trkpt lat="47.23057" lon="6.02815">
        <ele>311.12</ele>
        <time>2015-07-12T10:09:39.000Z</time>
      </trkpt>
      <trkpt lat="47.23061" lon="6.02803">
        <ele>311.12</ele>
        <time>2015-07-12T10:09:41.000Z</time>
      </trkpt>
      <trkpt lat="47.23066" lon="6.0279">
        <ele>311.12</ele>
        <time>2015-07-12T10:09:43.000Z</time>
      </trkpt>
      <trkpt lat="47.23072" lon="6.02778">
        <ele>311.12</ele>
        <time>2015-07-12T10:09:45.000Z</time>
      </trkpt>
      <trkpt lat="47.23079" lon="6.02763">
        <ele>310.64</ele>
        <time>2015-07-12T10:09:48.000Z</time>
      </trkpt>
      <trkpt lat="47.23085" lon="6.02749">
        <ele>310.64</ele>
        <time>2015-07-12T10:09:52.000Z</time>
      </trkpt>
      <trkpt lat="47.23097" lon="6.02738">
        <ele>310.64</ele>
        <time>2015-07-12T10:09:55.000Z</time>
      </trkpt>
      <trkpt lat="47.23104" lon="6.02725">
        <ele>311.12</ele>
        <time>2015-07-12T10:09:57.000Z</time>
      </trkpt>
      <trkpt lat="47.23111" lon="6.02709">
        <ele>310.64</ele>
        <time>2015-07-12T10:09:59.000Z</time>
      </trkpt>
      <trkpt lat="47.23119" lon="6.02695">
        <ele>311.6</ele>
        <time>2015-07-12T10:10:01.000Z</time>
      </trkpt>
      <trkpt lat="47.23125" lon="6.0268">
        <ele>311.6</ele>
        <time>2015-07-12T10:10:03.000Z</time>
      </trkpt>
      <trkpt lat="47.23133" lon="6.02665">
        <ele>311.6</ele>
        <time>2015-07-12T10:10:05.000Z</time>
      </trkpt>
      <trkpt lat="47.23141" lon="6.0265">
        <ele>312.09</ele>
        <time>2015-07-12T10:10:07.000Z</time>
      </trkpt>
      <trkpt lat="47.23149" lon="6.02634">
        <ele>312.09</ele>
        <time>2015-07-12T10:10:09.000Z</time>
      </trkpt>
      <trkpt lat="47.23158" lon="6.02617">
        <ele>312.09</ele>
        <time>2015-07-12T10:10:11.000Z</time>
      </trkpt>
      <trkpt lat="47.23166" lon="6.02601">
        <ele>312.57</ele>
        <time>2015-07-12T10:10:13.000Z</time>
      </trkpt>
      <trkpt lat="47.23174" lon="6.02585">
        <ele>312.09</ele>
        <time>2015-07-12T10:10:15.000Z</time>
      </trkpt>
      <trkpt lat="47.23183" lon="6.02569">
        <ele>312.57</ele>
        <time>2015-07-12T10:10:17.000Z</time>
      </trkpt>
      <trkpt lat="47.23191" lon="6.02552">
        <ele>312.09</ele>
        <time>2015-07-12T10:10:19.000Z</time>
      </trkpt>
      <trkpt lat="47.23199" lon="6.02537">
        <ele>311.6</ele>
        <time>2015-07-12T10:10:21.000Z</time>
      </trkpt>
      <trkpt lat="47.23207" lon="6.02523">
        <ele>311.12</ele>
        <time>2015-07-12T10:10:23.000Z</time>
      </trkpt>
      <trkpt lat="47.23214" lon="6.0251">
        <ele>312.09</ele>
        <time>2015-07-12T10:10:25.000Z</time>
      </trkpt>
      <trkpt lat="47.23221" lon="6.02498">
        <ele>311.12</ele>
        <time>2015-07-12T10:10:28.000Z</time>
      </trkpt>
      <trkpt lat="47.23226" lon="6.02482">
        <ele>311.12</ele>
        <time>2015-07-12T10:10:33.000Z</time>
      </trkpt>
      <trkpt lat="47.23233" lon="6.02463">
        <ele>312.09</ele>
        <time>2015-07-12T10:10:36.000Z</time>
      </trkpt>
      <trkpt lat="47.2324" lon="6.02448">
        <ele>312.09</ele>
        <time>2015-07-12T10:10:38.000Z</time>
      </trkpt>
      <trkpt lat="47.23248" lon="6.02433">
        <ele>311.6</ele>
        <time>2015-07-12T10:10:40.000Z</time>
      </trkpt>
      <trkpt lat="47.23257" lon="6.02417">
        <ele>311.6</ele>
        <time>2015-07-12T10:10:42.000Z</time>
      </trkpt>
      <trkpt lat="47.23265" lon="6.02401">
        <ele>311.6</ele>
        <time>2015-07-12T10:10:44.000Z</time>
      </trkpt>
      <trkpt lat="47.23275" lon="6.02384">
        <ele>311.12</ele>
        <time>2015-07-12T10:10:46.000Z</time>
      </trkpt>
      <trkpt lat="47.23284" lon="6.02368">
        <ele>311.12</ele>
        <time>2015-07-12T10:10:48.000Z</time>
      </trkpt>
      <trkpt lat="47.23293" lon="6.02352">
        <ele>311.12</ele>
        <time>2015-07-12T10:10:50.000Z</time>
      </trkpt>
      <trkpt lat="47.23302" lon="6.02335">
        <ele>311.6</ele>
        <time>2015-07-12T10:10:52.000Z</time>
      </trkpt>
      <trkpt lat="47.23312" lon="6.02318">
        <ele>312.09</ele>
        <time>2015-07-12T10:10:54.000Z</time>
      </trkpt>
      <trkpt lat="47.23321" lon="6.02302">
        <ele>312.09</ele>
        <time>2015-07-12T10:10:56.000Z</time>
      </trkpt>
      <trkpt lat="47.2333" lon="6.02286">
        <ele>312.09</ele>
        <time>2015-07-12T10:10:58.000Z</time>
      </trkpt>
      <trkpt lat="47.23338" lon="6.02272">
        <ele>312.09</ele>
        <time>2015-07-12T10:11:00.000Z</time>
      </trkpt>
      <trkpt lat="47.23346" lon="6.02259">
        <ele>312.57</ele>
        <time>2015-07-12T10:11:02.000Z</time>
      </trkpt>
      <trkpt lat="47.23353" lon="6.02245">
        <ele>312.09</ele>
        <time>2015-07-12T10:11:04.000Z</time>
      </trkpt>
      <trkpt lat="47.2336" lon="6.02228">
        <ele>312.09</ele>
        <time>2015-07-12T10:11:06.000Z</time>
      </trkpt>
      <trkpt lat="47.23368" lon="6.02212">
        <ele>312.57</ele>
        <time>2015-07-12T10:11:08.000Z</time>
      </trkpt>
      <trkpt lat="47.23376" lon="6.02195">
        <ele>311.6</ele>
        <time>2015-07-12T10:11:10.000Z</time>
      </trkpt>
      <trkpt lat="47.23386" lon="6.02178">
        <ele>311.12</ele>
        <time>2015-07-12T10:11:12.000Z</time>
      </trkpt>
      <trkpt lat="47.23395" lon="6.02161">
        <ele>310.64</ele>
        <time>2015-07-12T10:11:14.000Z</time>
      </trkpt>
      <trkpt lat="47.23404" lon="6.02144">
        <ele>310.64</ele>
        <time>2015-07-12T10:11:16.000Z</time>
      </trkpt>
      <trkpt lat="47.23413" lon="6.02128">
        <ele>310.64</ele>
        <time>2015-07-12T10:11:18.000Z</time>
      </trkpt>
      <trkpt lat="47.2342" lon="6.02113">
        <ele>310.64</ele>
        <time>2015-07-12T10:11:20.000Z</time>
      </trkpt>
      <trkpt lat="47.23427" lon="6.02099">
        <ele>310.16</ele>
        <time>2015-07-12T10:11:22.000Z</time>
      </trkpt>
      <trkpt lat="47.23432" lon="6.02085">
        <ele>311.12</ele>
        <time>2015-07-12T10:11:24.000Z</time>
      </trkpt>
      <trkpt lat="47.23436" lon="6.02072">
        <ele>311.12</ele>
        <time>2015-07-12T10:11:26.000Z</time>
      </trkpt>
      <trkpt lat="47.23445" lon="6.02059">
        <ele>311.12</ele>
        <time>2015-07-12T10:11:29.000Z</time>
      </trkpt>
      <trkpt lat="47.23455" lon="6.02062">
        <ele>311.12</ele>
        <time>2015-07-12T10:11:31.000Z</time>
      </trkpt>
      <trkpt lat="47.23465" lon="6.02071">
        <ele>310.64</ele>
        <time>2015-07-12T10:11:33.000Z</time>
      </trkpt>
      <trkpt lat="47.23475" lon="6.0208">
        <ele>311.12</ele>
        <time>2015-07-12T10:11:35.000Z</time>
      </trkpt>
      <trkpt lat="47.23485" lon="6.02089">
        <ele>310.64</ele>
        <time>2015-07-12T10:11:37.000Z</time>
      </trkpt>
      <trkpt lat="47.23497" lon="6.02099">
        <ele>311.12</ele>
        <time>2015-07-12T10:11:39.000Z</time>
      </trkpt>
      <trkpt lat="47.2351" lon="6.02107">
        <ele>310.64</ele>
        <time>2015-07-12T10:11:41.000Z</time>
      </trkpt>
      <trkpt lat="47.23523" lon="6.02116">
        <ele>311.12</ele>
        <time>2015-07-12T10:11:43.000Z</time>
      </trkpt>
      <trkpt lat="47.23537" lon="6.02125">
        <ele>311.12</ele>
        <time>2015-07-12T10:11:45.000Z</time>
      </trkpt>
      <trkpt lat="47.23553" lon="6.02132">
        <ele>312.09</ele>
        <time>2015-07-12T10:11:47.000Z</time>
      </trkpt>
      <trkpt lat="47.23568" lon="6.02141">
        <ele>312.09</ele>
        <time>2015-07-12T10:11:49.000Z</time>
      </trkpt>
      <trkpt lat="47.23582" lon="6.02148">
        <ele>312.57</ele>
        <time>2015-07-12T10:11:51.000Z</time>
      </trkpt>
      <trkpt lat="47.23597" lon="6.02157">
        <ele>312.09</ele>
        <time>2015-07-12T10:11:53.000Z</time>
      </trkpt>
      <trkpt lat="47.23612" lon="6.02165">
        <ele>311.6</ele>
        <time>2015-07-12T10:11:55.000Z</time>
      </trkpt>
      <trkpt lat="47.23627" lon="6.02174">
        <ele>312.09</ele>
        <time>2015-07-12T10:11:57.000Z</time>
      </trkpt>
      <trkpt lat="47.23642" lon="6.02181">
        <ele>312.57</ele>
        <time>2015-07-12T10:11:59.000Z</time>
      </trkpt>
      <trkpt lat="47.23657" lon="6.02188">
        <ele>312.57</ele>
        <time>2015-07-12T10:12:01.000Z</time>
      </trkpt>
      <trkpt lat="47.23671" lon="6.02196">
        <ele>312.57</ele>
        <time>2015-07-12T10:12:03.000Z</time>
      </trkpt>
      <trkpt lat="47.23683" lon="6.02202">
        <ele>313.05</ele>
        <time>2015-07-12T10:12:05.000Z</time>
      </trkpt>
      <trkpt lat="47.23693" lon="6.02208">
        <ele>313.05</ele>
        <time>2015-07-12T10:12:07.000Z</time>
      </trkpt>
      <trkpt lat="47.23702" lon="6.02208">
        <ele>313.53</ele>
        <time>2015-07-12T10:12:09.000Z</time>
      </trkpt>
      <trkpt lat="47.23713" lon="6.02202">
        <ele>313.53</ele>
        <time>2015-07-12T10:12:12.000Z</time>
      </trkpt>
      <trkpt lat="47.2372" lon="6.02188">
        <ele>313.05</ele>
        <time>2015-07-12T10:12:15.000Z</time>
      </trkpt>
      <trkpt lat="47.23723" lon="6.02176">
        <ele>313.05</ele>
        <time>2015-07-12T10:12:17.000Z</time>
      </trkpt>
      <trkpt lat="47.23726" lon="6.02162">
        <ele>313.05</ele>
        <time>2015-07-12T10:12:19.000Z</time>
      </trkpt>
      <trkpt lat="47.23732" lon="6.02146">
        <ele>314.01</ele>
        <time>2015-07-12T10:12:21.000Z</time>
      </trkpt>
      <trkpt lat="47.23738" lon="6.02134">
        <ele>313.53</ele>
        <time>2015-07-12T10:12:23.000Z</time>
      </trkpt>
      <trkpt lat="47.23746" lon="6.02123">
        <ele>312.57</ele>
        <time>2015-07-12T10:12:25.000Z</time>
      </trkpt>
      <trkpt lat="47.23752" lon="6.02113">
        <ele>313.05</ele>
        <time>2015-07-12T10:12:27.000Z</time>
      </trkpt>
      <trkpt lat="47.23759" lon="6.02104">
        <ele>312.57</ele>
        <time>2015-07-12T10:12:29.000Z</time>
      </trkpt>
      <trkpt lat="47.23766" lon="6.02094">
        <ele>311.6</ele>
        <time>2015-07-12T10:12:33.000Z</time>
      </trkpt>
      <trkpt lat="47.23773" lon="6.02083">
        <ele>312.57</ele>
        <time>2015-07-12T10:12:38.000Z</time>
      </trkpt>
      <trkpt lat="47.23785" lon="6.02076">
        <ele>312.09</ele>
        <time>2015-07-12T10:12:41.000Z</time>
      </trkpt>
      <trkpt lat="47.23796" lon="6.02069">
        <ele>312.09</ele>
        <time>2015-07-12T10:12:43.000Z</time>
      </trkpt>
      <trkpt lat="47.23808" lon="6.02058">
        <ele>312.09</ele>
        <time>2015-07-12T10:12:45.000Z</time>
      </trkpt>
      <trkpt lat="47.23815" lon="6.02041">
        <ele>312.57</ele>
        <time>2015-07-12T10:12:47.000Z</time>
      </trkpt>
      <trkpt lat="47.23823" lon="6.02026">
        <ele>312.09</ele>
        <time>2015-07-12T10:12:49.000Z</time>
      </trkpt>
      <trkpt lat="47.2383" lon="6.02011">
        <ele>312.57</ele>
        <time>2015-07-12T10:12:51.000Z</time>
      </trkpt>
      <trkpt lat="47.23837" lon="6.01997">
        <ele>312.09</ele>
        <time>2015-07-12T10:12:53.000Z</time>
      </trkpt>
      <trkpt lat="47.23847" lon="6.01993">
        <ele>311.6</ele>
        <time>2015-07-12T10:12:55.000Z</time>
      </trkpt>
      <trkpt lat="47.23858" lon="6.01999">
        <ele>312.09</ele>
        <time>2015-07-12T10:12:57.000Z</time>
      </trkpt>
      <trkpt lat="47.23869" lon="6.02006">
        <ele>312.09</ele>
        <time>2015-07-12T10:12:59.000Z</time>
      </trkpt>
      <trkpt lat="47.2388" lon="6.02014">
        <ele>312.09</ele>
        <time>2015-07-12T10:13:01.000Z</time>
      </trkpt>
      <trkpt lat="47.23889" lon="6.02024">
        <ele>312.57</ele>
        <time>2015-07-12T10:13:03.000Z</time>
      </trkpt>
      <trkpt lat="47.23896" lon="6.02036">
        <ele>312.09</ele>
        <time>2015-07-12T10:13:05.000Z</time>
      </trkpt>
      <trkpt lat="47.23903" lon="6.02049">
        <ele>312.57</ele>
        <time>2015-07-12T10:13:07.000Z</time>
      </trkpt>
      <trkpt lat="47.2391" lon="6.0206">
        <ele>312.09</ele>
        <time>2015-07-12T10:13:09.000Z</time>
      </trkpt>
      <trkpt lat="47.23917" lon="6.0207">
        <ele>312.57</ele>
        <time>2015-07-12T10:13:11.000Z</time>
      </trkpt>
      <trkpt lat="47.23926" lon="6.02083">
        <ele>312.57</ele>
        <time>2015-07-12T10:13:14.000Z</time>
      </trkpt>
      <trkpt lat="47.23933" lon="6.02094">
        <ele>313.05</ele>
        <time>2015-07-12T10:13:17.000Z</time>
      </trkpt>
      <trkpt lat="47.23943" lon="6.02105">
        <ele>313.53</ele>
        <time>2015-07-12T10:13:20.000Z</time>
      </trkpt>
      <trkpt lat="47.23945" lon="6.02118">
        <ele>313.05</ele>
        <time>2015-07-12T10:13:24.000Z</time>
      </trkpt>
      <trkpt lat="47.23939" lon="6.02132">
        <ele>313.05</ele>
        <time>2015-07-12T10:13:26.000Z</time>
      </trkpt>
      <trkpt lat="47.23932" lon="6.02144">
        <ele>313.53</ele>
        <time>2015-07-12T10:13:28.000Z</time>
      </trkpt>
      <trkpt lat="47.23923" lon="6.02156">
        <ele>313.53</ele>
        <time>2015-07-12T10:13:30.000Z</time>
      </trkpt>
      <trkpt lat="47.23915" lon="6.02168">
        <ele>313.53</ele>
        <time>2015-07-12T10:13:32.000Z</time>
      </trkpt>
      <trkpt lat="47.23906" lon="6.0218">
        <ele>313.53</ele>
        <time>2015-07-12T10:13:34.000Z</time>
      </trkpt>
      <trkpt lat="47.23898" lon="6.02194">
        <ele>314.01</ele>
        <time>2015-07-12T10:13:36.000Z</time>
      </trkpt>
      <trkpt lat="47.23889" lon="6.02209">
        <ele>314.49</ele>
        <time>2015-07-12T10:13:38.000Z</time>
      </trkpt>
      <trkpt lat="47.23881" lon="6.02223">
        <ele>314.49</ele>
        <time>2015-07-12T10:13:40.000Z</time>
      </trkpt>
      <trkpt lat="47.23874" lon="6.02238">
        <ele>314.97</ele>
        <time>2015-07-12T10:13:42.000Z</time>
      </trkpt>
      <trkpt lat="47.23867" lon="6.02254">
        <ele>315.45</ele>
        <time>2015-07-12T10:13:44.000Z</time>
      </trkpt>
      <trkpt lat="47.23859" lon="6.02268">
        <ele>314.49</ele>
        <time>2015-07-12T10:13:46.000Z</time>
      </trkpt>
      <trkpt lat="47.23852" lon="6.02283">
        <ele>314.97</ele>
        <time>2015-07-12T10:13:48.000Z</time>
      </trkpt>
      <trkpt lat="47.23845" lon="6.02297">
        <ele>314.97</ele>
        <time>2015-07-12T10:13:50.000Z</time>
      </trkpt>
      <trkpt lat="47.23837" lon="6.02311">
        <ele>314.49</ele>
        <time>2015-07-12T10:13:52.000Z</time>
      </trkpt>
      <trkpt lat="47.23829" lon="6.02327">
        <ele>314.97</ele>
        <time>2015-07-12T10:13:54.000Z</time>
      </trkpt>
      <trkpt lat="47.23821" lon="6.02343">
        <ele>314.97</ele>
        <time>2015-07-12T10:13:56.000Z</time>
      </trkpt>
      <trkpt lat="47.23813" lon="6.02358">
        <ele>314.49</ele>
        <time>2015-07-12T10:13:58.000Z</time>
      </trkpt>
      <trkpt lat="47.23804" lon="6.02372">
        <ele>315.45</ele>
        <time>2015-07-12T10:14:00.000Z</time>
      </trkpt>
      <trkpt lat="47.23798" lon="6.02384">
        <ele>314.97</ele>
        <time>2015-07-12T10:14:02.000Z</time>
      </trkpt>
      <trkpt lat="47.23799" lon="6.02398">
        <ele>314.97</ele>
        <time>2015-07-12T10:14:05.000Z</time>
      </trkpt>
      <trkpt lat="47.23803" lon="6.02411">
        <ele>314.97</ele>
        <time>2015-07-12T10:14:08.000Z</time>
      </trkpt>
      <trkpt lat="47.2381" lon="6.02423">
        <ele>314.49</ele>
        <time>2015-07-12T10:14:13.000Z</time>
      </trkpt>
      <trkpt lat="47.2382" lon="6.02425">
        <ele>314.97</ele>
        <time>2015-07-12T10:14:22.000Z</time>
      </trkpt>
      <trkpt lat="47.23818" lon="6.02431">
        <ele>314.49</ele>
        <time>2015-07-12T10:14:50.000Z</time>
      </trkpt>
      <trkpt lat="47.23808" lon="6.02429">
        <ele>314.49</ele>
        <time>2015-07-12T10:14:54.000Z</time>
      </trkpt>
      <trkpt lat="47.23795" lon="6.0243">
        <ele>314.97</ele>
        <time>2015-07-12T10:14:57.000Z</time>
      </trkpt>
      <trkpt lat="47.23785" lon="6.02429">
        <ele>315.45</ele>
        <time>2015-07-12T10:14:59.000Z</time>
      </trkpt>
      <trkpt lat="47.23774" lon="6.02427">
        <ele>314.49</ele>
        <time>2015-07-12T10:15:02.000Z</time>
      </trkpt>
      <trkpt lat="47.23764" lon="6.02419">
        <ele>314.01</ele>
        <time>2015-07-12T10:15:05.000Z</time>
      </trkpt>
      <trkpt lat="47.23755" lon="6.02408">
        <ele>313.53</ele>
        <time>2015-07-12T10:15:08.000Z</time>
      </trkpt>
      <trkpt lat="47.23745" lon="6.02393">
        <ele>314.01</ele>
        <time>2015-07-12T10:15:11.000Z</time>
      </trkpt>
      <trkpt lat="47.23735" lon="6.02383">
        <ele>314.01</ele>
        <time>2015-07-12T10:15:13.000Z</time>
      </trkpt>
      <trkpt lat="47.23724" lon="6.02372">
        <ele>314.01</ele>
        <time>2015-07-12T10:15:15.000Z</time>
      </trkpt>
      <trkpt lat="47.23712" lon="6.02361">
        <ele>314.49</ele>
        <time>2015-07-12T10:15:17.000Z</time>
      </trkpt>
      <trkpt lat="47.237" lon="6.02349">
        <ele>313.53</ele>
        <time>2015-07-12T10:15:19.000Z</time>
      </trkpt>
      <trkpt lat="47.23689" lon="6.02336">
        <ele>313.53</ele>
        <time>2015-07-12T10:15:21.000Z</time>
      </trkpt>
      <trkpt lat="47.23677" lon="6.02325">
        <ele>313.05</ele>
        <time>2015-07-12T10:15:23.000Z</time>
      </trkpt>
      <trkpt lat="47.23667" lon="6.02313">
        <ele>313.05</ele>
        <time>2015-07-12T10:15:25.000Z</time>
      </trkpt>
      <trkpt lat="47.23657" lon="6.02302">
        <ele>313.05</ele>
        <time>2015-07-12T10:15:27.000Z</time>
      </trkpt>
      <trkpt lat="47.23648" lon="6.02293">
        <ele>312.09</ele>
        <time>2015-07-12T10:15:29.000Z</time>
      </trkpt>
      <trkpt lat="47.23642" lon="6.02282">
        <ele>312.57</ele>
        <time>2015-07-12T10:15:33.000Z</time>
      </trkpt>
      <trkpt lat="47.23647" lon="6.0227">
        <ele>312.57</ele>
        <time>2015-07-12T10:15:37.000Z</time>
      </trkpt>
      <trkpt lat="47.23655" lon="6.02254">
        <ele>313.05</ele>
        <time>2015-07-12T10:15:40.000Z</time>
      </trkpt>
      <trkpt lat="47.23662" lon="6.02241">
        <ele>313.53</ele>
        <time>2015-07-12T10:15:42.000Z</time>
      </trkpt>
      <trkpt lat="47.23669" lon="6.0223">
        <ele>313.05</ele>
        <time>2015-07-12T10:15:44.000Z</time>
      </trkpt>
      <trkpt lat="47.23676" lon="6.02218">
        <ele>312.57</ele>
        <time>2015-07-12T10:15:46.000Z</time>
      </trkpt>
      <trkpt lat="47.23686" lon="6.02202">
        <ele>312.57</ele>
        <time>2015-07-12T10:15:48.000Z</time>
      </trkpt>
      <trkpt lat="47.23695" lon="6.0219">
        <ele>312.09</ele>
        <time>2015-07-12T10:15:50.000Z</time>
      </trkpt>
      <trkpt lat="47.23701" lon="6.02179">
        <ele>312.57</ele>
        <time>2015-07-12T10:15:52.000Z</time>
      </trkpt>
      <trkpt lat="47.23698" lon="6.02166">
        <ele>312.57</ele>
        <time>2015-07-12T10:15:55.000Z</time>
      </trkpt>
      <trkpt lat="47.23682" lon="6.02158">
        <ele>311.12</ele>
        <time>2015-07-12T10:15:57.000Z</time>
      </trkpt>
      <trkpt lat="47.23666" lon="6.02152">
        <ele>311.12</ele>
        <time>2015-07-12T10:15:59.000Z</time>
      </trkpt>
      <trkpt lat="47.23649" lon="6.02147">
        <ele>311.12</ele>
        <time>2015-07-12T10:16:01.000Z</time>
      </trkpt>
      <trkpt lat="47.23634" lon="6.02141">
        <ele>311.12</ele>
        <time>2015-07-12T10:16:03.000Z</time>
      </trkpt>
      <trkpt lat="47.23619" lon="6.02135">
        <ele>311.12</ele>
        <time>2015-07-12T10:16:05.000Z</time>
      </trkpt>
      <trkpt lat="47.23603" lon="6.02129">
        <ele>311.6</ele>
        <time>2015-07-12T10:16:07.000Z</time>
      </trkpt>
      <trkpt lat="47.23583" lon="6.02122">
        <ele>311.12</ele>
        <time>2015-07-12T10:16:09.000Z</time>
      </trkpt>
      <trkpt lat="47.23566" lon="6.02116">
        <ele>311.6</ele>
        <time>2015-07-12T10:16:11.000Z</time>
      </trkpt>
      <trkpt lat="47.2355" lon="6.02112">
        <ele>311.6</ele>
        <time>2015-07-12T10:16:13.000Z</time>
      </trkpt>
      <trkpt lat="47.23534" lon="6.02107">
        <ele>311.6</ele>
        <time>2015-07-12T10:16:15.000Z</time>
      </trkpt>
      <trkpt lat="47.23521" lon="6.021">
        <ele>312.09</ele>
        <time>2015-07-12T10:16:17.000Z</time>
      </trkpt>
      <trkpt lat="47.23508" lon="6.02091">
        <ele>311.6</ele>
        <time>2015-07-12T10:16:19.000Z</time>
      </trkpt>
      <trkpt lat="47.23496" lon="6.02082">
        <ele>311.6</ele>
        <time>2015-07-12T10:16:21.000Z</time>
      </trkpt>
      <trkpt lat="47.23485" lon="6.02073">
        <ele>311.12</ele>
        <time>2015-07-12T10:16:23.000Z</time>
      </trkpt>
      <trkpt lat="47.23473" lon="6.02065">
        <ele>310.64</ele>
        <time>2015-07-12T10:16:25.000Z</time>
      </trkpt>
      <trkpt lat="47.23463" lon="6.02058">
        <ele>311.6</ele>
        <time>2015-07-12T10:16:27.000Z</time>
      </trkpt>
      <trkpt lat="47.23454" lon="6.02053">
        <ele>311.12</ele>
        <time>2015-07-12T10:16:29.000Z</time>
      </trkpt>
      <trkpt lat="47.23447" lon="6.02044">
        <ele>309.68</ele>
        <time>2015-07-12T10:17:09.000Z</time>
      </trkpt>
      <trkpt lat="47.23442" lon="6.02028">
        <ele>309.68</ele>
        <time>2015-07-12T10:17:12.000Z</time>
      </trkpt>
      <trkpt lat="47.23439" lon="6.02014">
        <ele>310.16</ele>
        <time>2015-07-12T10:17:14.000Z</time>
      </trkpt>
      <trkpt lat="47.23434" lon="6.02003">
        <ele>311.12</ele>
        <time>2015-07-12T10:17:16.000Z</time>
      </trkpt>
      <trkpt lat="47.23426" lon="6.01994">
        <ele>310.64</ele>
        <time>2015-07-12T10:17:18.000Z</time>
      </trkpt>
      <trkpt lat="47.23416" lon="6.01988">
        <ele>310.64</ele>
        <time>2015-07-12T10:17:20.000Z</time>
      </trkpt>
      <trkpt lat="47.23405" lon="6.01981">
        <ele>310.16</ele>
        <time>2015-07-12T10:17:22.000Z</time>
      </trkpt>
      <trkpt lat="47.23393" lon="6.01975">
        <ele>310.64</ele>
        <time>2015-07-12T10:17:24.000Z</time>
      </trkpt>
      <trkpt lat="47.23381" lon="6.01968">
        <ele>309.68</ele>
        <time>2015-07-12T10:17:26.000Z</time>
      </trkpt>
      <trkpt lat="47.23369" lon="6.01963">
        <ele>309.68</ele>
        <time>2015-07-12T10:17:28.000Z</time>
      </trkpt>
      <trkpt lat="47.23357" lon="6.01958">
        <ele>309.2</ele>
        <time>2015-07-12T10:17:30.000Z</time>
      </trkpt>
      <trkpt lat="47.23345" lon="6.01953">
        <ele>309.2</ele>
        <time>2015-07-12T10:17:32.000Z</time>
      </trkpt>
      <trkpt lat="47.23333" lon="6.01948">
        <ele>309.2</ele>
        <time>2015-07-12T10:17:34.000Z</time>
      </trkpt>
      <trkpt lat="47.2332" lon="6.01941">
        <ele>309.2</ele>
        <time>2015-07-12T10:17:36.000Z</time>
      </trkpt>
      <trkpt lat="47.23308" lon="6.01939">
        <ele>308.72</ele>
        <time>2015-07-12T10:17:38.000Z</time>
      </trkpt>
      <trkpt lat="47.23297" lon="6.01948">
        <ele>309.2</ele>
        <time>2015-07-12T10:17:40.000Z</time>
      </trkpt>
      <trkpt lat="47.23292" lon="6.01961">
        <ele>309.68</ele>
        <time>2015-07-12T10:17:42.000Z</time>
      </trkpt>
      <trkpt lat="47.23288" lon="6.01978">
        <ele>309.68</ele>
        <time>2015-07-12T10:17:44.000Z</time>
      </trkpt>
      <trkpt lat="47.23284" lon="6.01996">
        <ele>309.68</ele>
        <time>2015-07-12T10:17:46.000Z</time>
      </trkpt>
      <trkpt lat="47.2328" lon="6.02014">
        <ele>310.16</ele>
        <time>2015-07-12T10:17:48.000Z</time>
      </trkpt>
      <trkpt lat="47.23275" lon="6.02033">
        <ele>311.6</ele>
        <time>2015-07-12T10:17:50.000Z</time>
      </trkpt>
      <trkpt lat="47.23272" lon="6.02054">
        <ele>309.2</ele>
        <time>2015-07-12T10:17:52.000Z</time>
      </trkpt>
      <trkpt lat="47.23269" lon="6.02074">
        <ele>309.2</ele>
        <time>2015-07-12T10:17:54.000Z</time>
      </trkpt>
      <trkpt lat="47.23265" lon="6.02095">
        <ele>309.2</ele>
        <time>2015-07-12T10:17:56.000Z</time>
      </trkpt>
      <trkpt lat="47.2326" lon="6.02115">
        <ele>308.72</ele>
        <time>2015-07-12T10:17:58.000Z</time>
      </trkpt>
      <trkpt lat="47.23256" lon="6.02136">
        <ele>309.2</ele>
        <time>2015-07-12T10:18:00.000Z</time>
      </trkpt>
      <trkpt lat="47.23252" lon="6.02157">
        <ele>309.68</ele>
        <time>2015-07-12T10:18:02.000Z</time>
      </trkpt>
      <trkpt lat="47.23248" lon="6.02178">
        <ele>309.68</ele>
        <time>2015-07-12T10:18:04.000Z</time>
      </trkpt>
      <trkpt lat="47.23244" lon="6.022">
        <ele>310.16</ele>
        <time>2015-07-12T10:18:06.000Z</time>
      </trkpt>
      <trkpt lat="47.23241" lon="6.02222">
        <ele>310.16</ele>
        <time>2015-07-12T10:18:08.000Z</time>
      </trkpt>
      <trkpt lat="47.23237" lon="6.02245">
        <ele>310.16</ele>
        <time>2015-07-12T10:18:10.000Z</time>
      </trkpt>
      <trkpt lat="47.23231" lon="6.02267">
        <ele>310.16</ele>
        <time>2015-07-12T10:18:12.000Z</time>
      </trkpt>
      <trkpt lat="47.23222" lon="6.02287">
        <ele>309.68</ele>
        <time>2015-07-12T10:18:14.000Z</time>
      </trkpt>
      <trkpt lat="47.23211" lon="6.02304">
        <ele>310.16</ele>
        <time>2015-07-12T10:18:16.000Z</time>
      </trkpt>
      <trkpt lat="47.23198" lon="6.02316">
        <ele>310.16</ele>
        <time>2015-07-12T10:18:18.000Z</time>
      </trkpt>
      <trkpt lat="47.23185" lon="6.02326">
        <ele>310.16</ele>
        <time>2015-07-12T10:18:20.000Z</time>
      </trkpt>
      <trkpt lat="47.23172" lon="6.02336">
        <ele>310.16</ele>
        <time>2015-07-12T10:18:22.000Z</time>
      </trkpt>
      <trkpt lat="47.2316" lon="6.02349">
        <ele>309.68</ele>
        <time>2015-07-12T10:18:24.000Z</time>
      </trkpt>
      <trkpt lat="47.23149" lon="6.02364">
        <ele>309.68</ele>
        <time>2015-07-12T10:18:26.000Z</time>
      </trkpt>
      <trkpt lat="47.23138" lon="6.02378">
        <ele>310.16</ele>
        <time>2015-07-12T10:18:28.000Z</time>
      </trkpt>
      <trkpt lat="47.23127" lon="6.02391">
        <ele>310.16</ele>
        <time>2015-07-12T10:18:30.000Z</time>
      </trkpt>
      <trkpt lat="47.23119" lon="6.02406">
        <ele>310.64</ele>
        <time>2015-07-12T10:18:32.000Z</time>
      </trkpt>
      <trkpt lat="47.23112" lon="6.02423">
        <ele>311.12</ele>
        <time>2015-07-12T10:18:34.000Z</time>
      </trkpt>
      <trkpt lat="47.23108" lon="6.0244">
        <ele>311.12</ele>
        <time>2015-07-12T10:18:36.000Z</time>
      </trkpt>
      <trkpt lat="47.23104" lon="6.02458">
        <ele>311.6</ele>
        <time>2015-07-12T10:18:38.000Z</time>
      </trkpt>
      <trkpt lat="47.23101" lon="6.02478">
        <ele>311.6</ele>
        <time>2015-07-12T10:18:40.000Z</time>
      </trkpt>
      <trkpt lat="47.23099" lon="6.02497">
        <ele>312.09</ele>
        <time>2015-07-12T10:18:42.000Z</time>
      </trkpt>
      <trkpt lat="47.23096" lon="6.02517">
        <ele>312.09</ele>
        <time>2015-07-12T10:18:44.000Z</time>
      </trkpt>
      <trkpt lat="47.23092" lon="6.02536">
        <ele>312.09</ele>
        <time>2015-07-12T10:18:46.000Z</time>
      </trkpt>
      <trkpt lat="47.2309" lon="6.02557">
        <ele>312.09</ele>
        <time>2015-07-12T10:18:48.000Z</time>
      </trkpt>
      <trkpt lat="47.23088" lon="6.02578">
        <ele>312.09</ele>
        <time>2015-07-12T10:18:50.000Z</time>
      </trkpt>
      <trkpt lat="47.23088" lon="6.02599">
        <ele>311.6</ele>
        <time>2015-07-12T10:18:52.000Z</time>
      </trkpt>
      <trkpt lat="47.23088" lon="6.02621">
        <ele>311.6</ele>
        <time>2015-07-12T10:18:54.000Z</time>
      </trkpt>
      <trkpt lat="47.23086" lon="6.02643">
        <ele>311.6</ele>
        <time>2015-07-12T10:18:56.000Z</time>
      </trkpt>
      <trkpt lat="47.23084" lon="6.02665">
        <ele>311.6</ele>
        <time>2015-07-12T10:18:58.000Z</time>
      </trkpt>
      <trkpt lat="47.23082" lon="6.02686">
        <ele>311.6</ele>
        <time>2015-07-12T10:19:00.000Z</time>
      </trkpt>
      <trkpt lat="47.23079" lon="6.02707">
        <ele>311.6</ele>
        <time>2015-07-12T10:19:02.000Z</time>
      </trkpt>
      <trkpt lat="47.23077" lon="6.02729">
        <ele>311.6</ele>
        <time>2015-07-12T10:19:04.000Z</time>
      </trkpt>
      <trkpt lat="47.23077" lon="6.0275">
        <ele>311.12</ele>
        <time>2015-07-12T10:19:06.000Z</time>
      </trkpt>
      <trkpt lat="47.23077" lon="6.0277">
        <ele>310.64</ele>
        <time>2015-07-12T10:19:08.000Z</time>
      </trkpt>
      <trkpt lat="47.2307" lon="6.02787">
        <ele>310.64</ele>
        <time>2015-07-12T10:19:10.000Z</time>
      </trkpt>
      <trkpt lat="47.23063" lon="6.02804">
        <ele>310.64</ele>
        <time>2015-07-12T10:19:12.000Z</time>
      </trkpt>
      <trkpt lat="47.23058" lon="6.02819">
        <ele>310.64</ele>
        <time>2015-07-12T10:19:14.000Z</time>
      </trkpt>
      <trkpt lat="47.23055" lon="6.02832">
        <ele>310.64</ele>
        <time>2015-07-12T10:19:16.000Z</time>
      </trkpt>
      <trkpt lat="47.23049" lon="6.0284">
        <ele>311.12</ele>
        <time>2015-07-12T10:19:20.000Z</time>
      </trkpt>
      <trkpt lat="47.23043" lon="6.0285">
        <ele>311.12</ele>
        <time>2015-07-12T10:19:25.000Z</time>
      </trkpt>
      <trkpt lat="47.2304" lon="6.02863">
        <ele>310.64</ele>
        <time>2015-07-12T10:19:28.000Z</time>
      </trkpt>
      <trkpt lat="47.23034" lon="6.02879">
        <ele>310.16</ele>
        <time>2015-07-12T10:19:31.000Z</time>
      </trkpt>
      <trkpt lat="47.23029" lon="6.02895">
        <ele>310.16</ele>
        <time>2015-07-12T10:19:34.000Z</time>
      </trkpt>
      <trkpt lat="47.23027" lon="6.02909">
        <ele>309.68</ele>
        <time>2015-07-12T10:19:37.000Z</time>
      </trkpt>
      <trkpt lat="47.23024" lon="6.02923">
        <ele>309.2</ele>
        <time>2015-07-12T10:19:39.000Z</time>
      </trkpt>
      <trkpt lat="47.23019" lon="6.02939">
        <ele>309.68</ele>
        <time>2015-07-12T10:19:41.000Z</time>
      </trkpt>
      <trkpt lat="47.23014" lon="6.02956">
        <ele>310.16</ele>
        <time>2015-07-12T10:19:43.000Z</time>
      </trkpt>
      <trkpt lat="47.23008" lon="6.02974">
        <ele>311.6</ele>
        <time>2015-07-12T10:19:45.000Z</time>
      </trkpt>
      <trkpt lat="47.23002" lon="6.0299">
        <ele>311.6</ele>
        <time>2015-07-12T10:19:47.000Z</time>
      </trkpt>
      <trkpt lat="47.22997" lon="6.03006">
        <ele>312.09</ele>
        <time>2015-07-12T10:19:49.000Z</time>
      </trkpt>
      <trkpt lat="47.22992" lon="6.03019">
        <ele>312.09</ele>
        <time>2015-07-12T10:19:52.000Z</time>
      </trkpt>
      <trkpt lat="47.22987" lon="6.03034">
        <ele>312.09</ele>
        <time>2015-07-12T10:19:55.000Z</time>
      </trkpt>
      <trkpt lat="47.2298" lon="6.03049">
        <ele>312.57</ele>
        <time>2015-07-12T10:19:58.000Z</time>
      </trkpt>
      <trkpt lat="47.22973" lon="6.03064">
        <ele>311.6</ele>
        <time>2015-07-12T10:20:01.000Z</time>
      </trkpt>
      <trkpt lat="47.22967" lon="6.03061">
        <ele>310.16</ele>
        <time>2015-07-12T10:20:05.000Z</time>
      </trkpt>
      <trkpt lat="47.22966" lon="6.03046">
        <ele>309.2</ele>
        <time>2015-07-12T10:20:10.000Z</time>
      </trkpt>
      <trkpt lat="47.2296" lon="6.03042">
        <ele>310.16</ele>
        <time>2015-07-12T10:20:13.000Z</time>
      </trkpt>
      <trkpt lat="47.22947" lon="6.03039">
        <ele>309.68</ele>
        <time>2015-07-12T10:20:16.000Z</time>
      </trkpt>
      <trkpt lat="47.22934" lon="6.03037">
        <ele>309.68</ele>
        <time>2015-07-12T10:20:19.000Z</time>
      </trkpt>
      <trkpt lat="47.22925" lon="6.03038">
        <ele>309.68</ele>
        <time>2015-07-12T10:20:21.000Z</time>
      </trkpt>
      <trkpt lat="47.22915" lon="6.03042">
        <ele>309.68</ele>
        <time>2015-07-12T10:20:23.000Z</time>
      </trkpt>
      <trkpt lat="47.22905" lon="6.03048">
        <ele>309.68</ele>
        <time>2015-07-12T10:20:25.000Z</time>
      </trkpt>
      <trkpt lat="47.22894" lon="6.03054">
        <ele>309.2</ele>
        <time>2015-07-12T10:20:27.000Z</time>
      </trkpt>
      <trkpt lat="47.22885" lon="6.03063">
        <ele>308.72</ele>
        <time>2015-07-12T10:20:29.000Z</time>
      </trkpt>
      <trkpt lat="47.22877" lon="6.03074">
        <ele>309.2</ele>
        <time>2015-07-12T10:20:31.000Z</time>
      </trkpt>
      <trkpt lat="47.22869" lon="6.03088">
        <ele>309.2</ele>
        <time>2015-07-12T10:20:33.000Z</time>
      </trkpt>
      <trkpt lat="47.2286" lon="6.03101">
        <ele>309.68</ele>
        <time>2015-07-12T10:20:35.000Z</time>
      </trkpt>
      <trkpt lat="47.22852" lon="6.03114">
        <ele>309.68</ele>
        <time>2015-07-12T10:20:37.000Z</time>
      </trkpt>
      <trkpt lat="47.22844" lon="6.03128">
        <ele>309.2</ele>
        <time>2015-07-12T10:20:39.000Z</time>
      </trkpt>
      <trkpt lat="47.22836" lon="6.03144">
        <ele>309.2</ele>
        <time>2015-07-12T10:20:41.000Z</time>
      </trkpt>
      <trkpt lat="47.22829" lon="6.03159">
        <ele>309.2</ele>
        <time>2015-07-12T10:20:43.000Z</time>
      </trkpt>
      <trkpt lat="47.22819" lon="6.03171">
        <ele>309.68</ele>
        <time>2015-07-12T10:20:45.000Z</time>
      </trkpt>
      <trkpt lat="47.22809" lon="6.03183">
        <ele>309.68</ele>
        <time>2015-07-12T10:20:47.000Z</time>
      </trkpt>
      <trkpt lat="47.22799" lon="6.03193">
        <ele>309.68</ele>
        <time>2015-07-12T10:20:49.000Z</time>
      </trkpt>
      <trkpt lat="47.22788" lon="6.03201">
        <ele>310.16</ele>
        <time>2015-07-12T10:20:51.000Z</time>
      </trkpt>
      <trkpt lat="47.22777" lon="6.0321">
        <ele>309.68</ele>
        <time>2015-07-12T10:20:53.000Z</time>
      </trkpt>
      <trkpt lat="47.22766" lon="6.03217">
        <ele>309.68</ele>
        <time>2015-07-12T10:20:55.000Z</time>
      </trkpt>
      <trkpt lat="47.22758" lon="6.03225">
        <ele>309.68</ele>
        <time>2015-07-12T10:20:57.000Z</time>
      </trkpt>
      <trkpt lat="47.22748" lon="6.03228">
        <ele>309.68</ele>
        <time>2015-07-12T10:20:59.000Z</time>
      </trkpt>
      <trkpt lat="47.22737" lon="6.03232">
        <ele>310.16</ele>
        <time>2015-07-12T10:21:01.000Z</time>
      </trkpt>
      <trkpt lat="47.22726" lon="6.03236">
        <ele>310.64</ele>
        <time>2015-07-12T10:21:03.000Z</time>
      </trkpt>
      <trkpt lat="47.22716" lon="6.03241">
        <ele>311.12</ele>
        <time>2015-07-12T10:21:05.000Z</time>
      </trkpt>
      <trkpt lat="47.22705" lon="6.03245">
        <ele>311.12</ele>
        <time>2015-07-12T10:21:07.000Z</time>
      </trkpt>
      <trkpt lat="47.22692" lon="6.03249">
        <ele>310.64</ele>
        <time>2015-07-12T10:21:09.000Z</time>
      </trkpt>
      <trkpt lat="47.22678" lon="6.03252">
        <ele>309.68</ele>
        <time>2015-07-12T10:21:11.000Z</time>
      </trkpt>
      <trkpt lat="47.22663" lon="6.03256">
        <ele>309.2</ele>
        <time>2015-07-12T10:21:13.000Z</time>
      </trkpt>
      <trkpt lat="47.22648" lon="6.03261">
        <ele>308.72</ele>
        <time>2015-07-12T10:21:15.000Z</time>
      </trkpt>
      <trkpt lat="47.22633" lon="6.03264">
        <ele>308.72</ele>
        <time>2015-07-12T10:21:17.000Z</time>
      </trkpt>
      <trkpt lat="47.22617" lon="6.03265">
        <ele>308.72</ele>
        <time>2015-07-12T10:21:19.000Z</time>
      </trkpt>
      <trkpt lat="47.22601" lon="6.03263">
        <ele>308.24</ele>
        <time>2015-07-12T10:21:21.000Z</time>
      </trkpt>
      <trkpt lat="47.22586" lon="6.03256">
        <ele>308.24</ele>
        <time>2015-07-12T10:21:23.000Z</time>
      </trkpt>
      <trkpt lat="47.22572" lon="6.03247">
        <ele>308.24</ele>
        <time>2015-07-12T10:21:25.000Z</time>
      </trkpt>
      <trkpt lat="47.22559" lon="6.03234">
        <ele>308.72</ele>
        <time>2015-07-12T10:21:27.000Z</time>
      </trkpt>
      <trkpt lat="47.22547" lon="6.0322">
        <ele>308.72</ele>
        <time>2015-07-12T10:21:29.000Z</time>
      </trkpt>
      <trkpt lat="47.22535" lon="6.03207">
        <ele>309.2</ele>
        <time>2015-07-12T10:21:31.000Z</time>
      </trkpt>
      <trkpt lat="47.22523" lon="6.03195">
        <ele>309.2</ele>
        <time>2015-07-12T10:21:33.000Z</time>
      </trkpt>
      <trkpt lat="47.22509" lon="6.03188">
        <ele>309.2</ele>
        <time>2015-07-12T10:21:35.000Z</time>
      </trkpt>
      <trkpt lat="47.22495" lon="6.03184">
        <ele>309.2</ele>
        <time>2015-07-12T10:21:37.000Z</time>
      </trkpt>
      <trkpt lat="47.22482" lon="6.03181">
        <ele>309.2</ele>
        <time>2015-07-12T10:21:39.000Z</time>
      </trkpt>
      <trkpt lat="47.2247" lon="6.03178">
        <ele>309.2</ele>
        <time>2015-07-12T10:21:41.000Z</time>
      </trkpt>
      <trkpt lat="47.22459" lon="6.03173">
        <ele>309.2</ele>
        <time>2015-07-12T10:21:43.000Z</time>
      </trkpt>
      <trkpt lat="47.22447" lon="6.03167">
        <ele>309.68</ele>
        <time>2015-07-12T10:21:45.000Z</time>
      </trkpt>
      <trkpt lat="47.22435" lon="6.0316">
        <ele>309.2</ele>
        <time>2015-07-12T10:21:47.000Z</time>
      </trkpt>
      <trkpt lat="47.22422" lon="6.03153">
        <ele>309.68</ele>
        <time>2015-07-12T10:21:49.000Z</time>
      </trkpt>
      <trkpt lat="47.22409" lon="6.03147">
        <ele>309.68</ele>
        <time>2015-07-12T10:21:51.000Z</time>
      </trkpt>
      <trkpt lat="47.22397" lon="6.03139">
        <ele>309.2</ele>
        <time>2015-07-12T10:21:53.000Z</time>
      </trkpt>
      <trkpt lat="47.22383" lon="6.03132">
        <ele>309.2</ele>
        <time>2015-07-12T10:21:55.000Z</time>
      </trkpt>
      <trkpt lat="47.22371" lon="6.03125">
        <ele>309.68</ele>
        <time>2015-07-12T10:21:57.000Z</time>
      </trkpt>
      <trkpt lat="47.22358" lon="6.03118">
        <ele>309.68</ele>
        <time>2015-07-12T10:21:59.000Z</time>
      </trkpt>
      <trkpt lat="47.22345" lon="6.03111">
        <ele>309.2</ele>
        <time>2015-07-12T10:22:01.000Z</time>
      </trkpt>
      <trkpt lat="47.22332" lon="6.03105">
        <ele>309.68</ele>
        <time>2015-07-12T10:22:03.000Z</time>
      </trkpt>
      <trkpt lat="47.22319" lon="6.03098">
        <ele>309.2</ele>
        <time>2015-07-12T10:22:05.000Z</time>
      </trkpt>
      <trkpt lat="47.22307" lon="6.03088">
        <ele>308.72</ele>
        <time>2015-07-12T10:22:07.000Z</time>
      </trkpt>
      <trkpt lat="47.22295" lon="6.03081">
        <ele>309.2</ele>
        <time>2015-07-12T10:22:09.000Z</time>
      </trkpt>
      <trkpt lat="47.22282" lon="6.03074">
        <ele>309.2</ele>
        <time>2015-07-12T10:22:11.000Z</time>
      </trkpt>
      <trkpt lat="47.22269" lon="6.03066">
        <ele>309.2</ele>
        <time>2015-07-12T10:22:13.000Z</time>
      </trkpt>
      <trkpt lat="47.22257" lon="6.03059">
        <ele>309.2</ele>
        <time>2015-07-12T10:22:15.000Z</time>
      </trkpt>
      <trkpt lat="47.22246" lon="6.03052">
        <ele>309.2</ele>
        <time>2015-07-12T10:22:17.000Z</time>
      </trkpt>
      <trkpt lat="47.22234" lon="6.03047">
        <ele>309.2</ele>
        <time>2015-07-12T10:22:19.000Z</time>
      </trkpt>
      <trkpt lat="47.22223" lon="6.0304">
        <ele>309.2</ele>
        <time>2015-07-12T10:22:21.000Z</time>
      </trkpt>
      <trkpt lat="47.22211" lon="6.03032">
        <ele>309.68</ele>
        <time>2015-07-12T10:22:23.000Z</time>
      </trkpt>
      <trkpt lat="47.22198" lon="6.03025">
        <ele>309.2</ele>
        <time>2015-07-12T10:22:25.000Z</time>
      </trkpt>
      <trkpt lat="47.22187" lon="6.03017">
        <ele>309.2</ele>
        <time>2015-07-12T10:22:27.000Z</time>
      </trkpt>
      <trkpt lat="47.22175" lon="6.03009">
        <ele>309.68</ele>
        <time>2015-07-12T10:22:29.000Z</time>
      </trkpt>
      <trkpt lat="47.22163" lon="6.03">
        <ele>309.2</ele>
        <time>2015-07-12T10:22:31.000Z</time>
      </trkpt>
      <trkpt lat="47.22151" lon="6.02991">
        <ele>309.68</ele>
        <time>2015-07-12T10:22:33.000Z</time>
      </trkpt>
      <trkpt lat="47.22139" lon="6.02981">
        <ele>309.2</ele>
        <time>2015-07-12T10:22:35.000Z</time>
      </trkpt>
      <trkpt lat="47.22128" lon="6.02969">
        <ele>309.2</ele>
        <time>2015-07-12T10:22:37.000Z</time>
      </trkpt>
      <trkpt lat="47.22116" lon="6.02958">
        <ele>309.2</ele>
        <time>2015-07-12T10:22:39.000Z</time>
      </trkpt>
      <trkpt lat="47.22106" lon="6.02946">
        <ele>309.2</ele>
        <time>2015-07-12T10:22:41.000Z</time>
      </trkpt>
      <trkpt lat="47.22096" lon="6.02933">
        <ele>309.2</ele>
        <time>2015-07-12T10:22:43.000Z</time>
      </trkpt>
      <trkpt lat="47.22087" lon="6.02921">
        <ele>309.2</ele>
        <time>2015-07-12T10:22:45.000Z</time>
      </trkpt>
      <trkpt lat="47.2208" lon="6.0291">
        <ele>309.2</ele>
        <time>2015-07-12T10:22:47.000Z</time>
      </trkpt>
      <trkpt lat="47.22073" lon="6.029">
        <ele>309.2</ele>
        <time>2015-07-12T10:22:49.000Z</time>
      </trkpt>
      <trkpt lat="47.22065" lon="6.0289">
        <ele>309.2</ele>
        <time>2015-07-12T10:22:51.000Z</time>
      </trkpt>
      <trkpt lat="47.22058" lon="6.02878">
        <ele>309.2</ele>
        <time>2015-07-12T10:22:53.000Z</time>
      </trkpt>
      <trkpt lat="47.22052" lon="6.02866">
        <ele>309.2</ele>
        <time>2015-07-12T10:22:55.000Z</time>
      </trkpt>
      <trkpt lat="47.22045" lon="6.02852">
        <ele>309.2</ele>
        <time>2015-07-12T10:22:57.000Z</time>
      </trkpt>
      <trkpt lat="47.22039" lon="6.02839">
        <ele>309.2</ele>
        <time>2015-07-12T10:22:59.000Z</time>
      </trkpt>
      <trkpt lat="47.22032" lon="6.02825">
        <ele>309.2</ele>
        <time>2015-07-12T10:23:01.000Z</time>
      </trkpt>
      <trkpt lat="47.22025" lon="6.02809">
        <ele>309.2</ele>
        <time>2015-07-12T10:23:03.000Z</time>
      </trkpt>
      <trkpt lat="47.2202" lon="6.02792">
        <ele>308.72</ele>
        <time>2015-07-12T10:23:05.000Z</time>
      </trkpt>
      <trkpt lat="47.22015" lon="6.02774">
        <ele>309.2</ele>
        <time>2015-07-12T10:23:07.000Z</time>
      </trkpt>
      <trkpt lat="47.22011" lon="6.02755">
        <ele>309.2</ele>
        <time>2015-07-12T10:23:09.000Z</time>
      </trkpt>
      <trkpt lat="47.22007" lon="6.02736">
        <ele>309.2</ele>
        <time>2015-07-12T10:23:11.000Z</time>
      </trkpt>
      <trkpt lat="47.22003" lon="6.02717">
        <ele>309.2</ele>
        <time>2015-07-12T10:23:13.000Z</time>
      </trkpt>
      <trkpt lat="47.22" lon="6.02697">
        <ele>308.72</ele>
        <time>2015-07-12T10:23:15.000Z</time>
      </trkpt>
      <trkpt lat="47.21996" lon="6.02676">
        <ele>309.2</ele>
        <time>2015-07-12T10:23:17.000Z</time>
      </trkpt>
      <trkpt lat="47.21994" lon="6.02654">
        <ele>308.72</ele>
        <time>2015-07-12T10:23:19.000Z</time>
      </trkpt>
      <trkpt lat="47.21991" lon="6.02633">
        <ele>308.72</ele>
        <time>2015-07-12T10:23:21.000Z</time>
      </trkpt>
      <trkpt lat="47.21988" lon="6.02611">
        <ele>308.72</ele>
        <time>2015-07-12T10:23:23.000Z</time>
      </trkpt>
      <trkpt lat="47.21985" lon="6.0259">
        <ele>308.72</ele>
        <time>2015-07-12T10:23:25.000Z</time>
      </trkpt>
      <trkpt lat="47.21982" lon="6.02569">
        <ele>308.72</ele>
        <time>2015-07-12T10:23:27.000Z</time>
      </trkpt>
      <trkpt lat="47.2198" lon="6.0255">
        <ele>308.72</ele>
        <time>2015-07-12T10:23:29.000Z</time>
      </trkpt>
      <trkpt lat="47.21977" lon="6.02531">
        <ele>309.2</ele>
        <time>2015-07-12T10:23:31.000Z</time>
      </trkpt>
      <trkpt lat="47.21976" lon="6.02515">
        <ele>308.72</ele>
        <time>2015-07-12T10:23:33.000Z</time>
      </trkpt>
      <trkpt lat="47.21974" lon="6.02499">
        <ele>308.72</ele>
        <time>2015-07-12T10:23:35.000Z</time>
      </trkpt>
      <trkpt lat="47.21972" lon="6.02484">
        <ele>308.24</ele>
        <time>2015-07-12T10:23:37.000Z</time>
      </trkpt>
      <trkpt lat="47.2197" lon="6.02467">
        <ele>308.24</ele>
        <time>2015-07-12T10:23:39.000Z</time>
      </trkpt>
      <trkpt lat="47.21967" lon="6.0245">
        <ele>308.72</ele>
        <time>2015-07-12T10:23:41.000Z</time>
      </trkpt>
      <trkpt lat="47.21964" lon="6.02432">
        <ele>308.24</ele>
        <time>2015-07-12T10:23:43.000Z</time>
      </trkpt>
      <trkpt lat="47.2196" lon="6.02414">
        <ele>308.24</ele>
        <time>2015-07-12T10:23:45.000Z</time>
      </trkpt>
      <trkpt lat="47.21955" lon="6.02397">
        <ele>308.24</ele>
        <time>2015-07-12T10:23:47.000Z</time>
      </trkpt>
      <trkpt lat="47.2195" lon="6.0238">
        <ele>308.72</ele>
        <time>2015-07-12T10:23:49.000Z</time>
      </trkpt>
      <trkpt lat="47.21943" lon="6.02365">
        <ele>308.72</ele>
        <time>2015-07-12T10:23:51.000Z</time>
      </trkpt>
      <trkpt lat="47.21937" lon="6.0235">
        <ele>308.24</ele>
        <time>2015-07-12T10:23:53.000Z</time>
      </trkpt>
      <trkpt lat="47.21931" lon="6.02335">
        <ele>308.72</ele>
        <time>2015-07-12T10:23:55.000Z</time>
      </trkpt>
      <trkpt lat="47.21925" lon="6.0232">
        <ele>309.2</ele>
        <time>2015-07-12T10:23:57.000Z</time>
      </trkpt>
      <trkpt lat="47.21918" lon="6.02305">
        <ele>309.2</ele>
        <time>2015-07-12T10:23:59.000Z</time>
      </trkpt>
      <trkpt lat="47.21911" lon="6.02288">
        <ele>308.24</ele>
        <time>2015-07-12T10:24:01.000Z</time>
      </trkpt>
      <trkpt lat="47.21903" lon="6.0227">
        <ele>307.76</ele>
        <time>2015-07-12T10:24:03.000Z</time>
      </trkpt>
      <trkpt lat="47.21895" lon="6.02251">
        <ele>307.76</ele>
        <time>2015-07-12T10:24:05.000Z</time>
      </trkpt>
      <trkpt lat="47.21887" lon="6.02234">
        <ele>307.76</ele>
        <time>2015-07-12T10:24:07.000Z</time>
      </trkpt>
      <trkpt lat="47.2188" lon="6.02217">
        <ele>307.76</ele>
        <time>2015-07-12T10:24:09.000Z</time>
      </trkpt>
      <trkpt lat="47.21872" lon="6.022">
        <ele>308.24</ele>
        <time>2015-07-12T10:24:11.000Z</time>
      </trkpt>
      <trkpt lat="47.21865" lon="6.02184">
        <ele>307.76</ele>
        <time>2015-07-12T10:24:13.000Z</time>
      </trkpt>
      <trkpt lat="47.21858" lon="6.02168">
        <ele>307.28</ele>
        <time>2015-07-12T10:24:15.000Z</time>
      </trkpt>
      <trkpt lat="47.21851" lon="6.02152">
        <ele>307.76</ele>
        <time>2015-07-12T10:24:17.000Z</time>
      </trkpt>
      <trkpt lat="47.21845" lon="6.02137">
        <ele>307.76</ele>
        <time>2015-07-12T10:24:19.000Z</time>
      </trkpt>
      <trkpt lat="47.21839" lon="6.02123">
        <ele>306.8</ele>
        <time>2015-07-12T10:24:21.000Z</time>
      </trkpt>
      <trkpt lat="47.21836" lon="6.0211">
        <ele>306.8</ele>
        <time>2015-07-12T10:24:23.000Z</time>
      </trkpt>
      <trkpt lat="47.21831" lon="6.02095">
        <ele>306.32</ele>
        <time>2015-07-12T10:24:26.000Z</time>
      </trkpt>
      <trkpt lat="47.21825" lon="6.02085">
        <ele>306.8</ele>
        <time>2015-07-12T10:24:29.000Z</time>
      </trkpt>
      <trkpt lat="47.21818" lon="6.02074">
        <ele>306.8</ele>
        <time>2015-07-12T10:24:31.000Z</time>
      </trkpt>
      <trkpt lat="47.21812" lon="6.02062">
        <ele>306.8</ele>
        <time>2015-07-12T10:24:33.000Z</time>
      </trkpt>
      <trkpt lat="47.21806" lon="6.02048">
        <ele>307.28</ele>
        <time>2015-07-12T10:24:35.000Z</time>
      </trkpt>
      <trkpt lat="47.21799" lon="6.02033">
        <ele>307.28</ele>
        <time>2015-07-12T10:24:37.000Z</time>
      </trkpt>
      <trkpt lat="47.21793" lon="6.02017">
        <ele>307.28</ele>
        <time>2015-07-12T10:24:39.000Z</time>
      </trkpt>
      <trkpt lat="47.21787" lon="6.02001">
        <ele>307.76</ele>
        <time>2015-07-12T10:24:41.000Z</time>
      </trkpt>
      <trkpt lat="47.21779" lon="6.01986">
        <ele>307.76</ele>
        <time>2015-07-12T10:24:43.000Z</time>
      </trkpt>
      <trkpt lat="47.21772" lon="6.0197">
        <ele>307.28</ele>
        <time>2015-07-12T10:24:45.000Z</time>
      </trkpt>
      <trkpt lat="47.21766" lon="6.01955">
        <ele>307.76</ele>
        <time>2015-07-12T10:24:47.000Z</time>
      </trkpt>
      <trkpt lat="47.2176" lon="6.0194">
        <ele>307.76</ele>
        <time>2015-07-12T10:24:49.000Z</time>
      </trkpt>
      <trkpt lat="47.21754" lon="6.01926">
        <ele>307.76</ele>
        <time>2015-07-12T10:24:51.000Z</time>
      </trkpt>
      <trkpt lat="47.21749" lon="6.01912">
        <ele>308.24</ele>
        <time>2015-07-12T10:24:53.000Z</time>
      </trkpt>
      <trkpt lat="47.21745" lon="6.019">
        <ele>307.76</ele>
        <time>2015-07-12T10:24:55.000Z</time>
      </trkpt>
      <trkpt lat="47.21741" lon="6.01884">
        <ele>308.24</ele>
        <time>2015-07-12T10:24:58.000Z</time>
      </trkpt>
      <trkpt lat="47.21739" lon="6.01869">
        <ele>307.28</ele>
        <time>2015-07-12T10:25:00.000Z</time>
      </trkpt>
      <trkpt lat="47.21735" lon="6.01851">
        <ele>307.28</ele>
        <time>2015-07-12T10:25:02.000Z</time>
      </trkpt>
      <trkpt lat="47.21729" lon="6.01834">
        <ele>306.8</ele>
        <time>2015-07-12T10:25:04.000Z</time>
      </trkpt>
      <trkpt lat="47.21723" lon="6.01819">
        <ele>307.28</ele>
        <time>2015-07-12T10:25:06.000Z</time>
      </trkpt>
      <trkpt lat="47.21717" lon="6.01805">
        <ele>307.76</ele>
        <time>2015-07-12T10:25:08.000Z</time>
      </trkpt>
      <trkpt lat="47.21714" lon="6.01788">
        <ele>307.76</ele>
        <time>2015-07-12T10:25:10.000Z</time>
      </trkpt>
      <trkpt lat="47.21711" lon="6.0177">
        <ele>308.72</ele>
        <time>2015-07-12T10:25:12.000Z</time>
      </trkpt>
      <trkpt lat="47.21709" lon="6.0175">
        <ele>308.72</ele>
        <time>2015-07-12T10:25:14.000Z</time>
      </trkpt>
      <trkpt lat="47.21707" lon="6.01729">
        <ele>308.24</ele>
        <time>2015-07-12T10:25:16.000Z</time>
      </trkpt>
      <trkpt lat="47.21705" lon="6.01708">
        <ele>309.2</ele>
        <time>2015-07-12T10:25:18.000Z</time>
      </trkpt>
      <trkpt lat="47.21704" lon="6.01688">
        <ele>308.72</ele>
        <time>2015-07-12T10:25:20.000Z</time>
      </trkpt>
      <trkpt lat="47.21701" lon="6.01667">
        <ele>307.76</ele>
        <time>2015-07-12T10:25:22.000Z</time>
      </trkpt>
      <trkpt lat="47.217" lon="6.01647">
        <ele>308.72</ele>
        <time>2015-07-12T10:25:24.000Z</time>
      </trkpt>
      <trkpt lat="47.21698" lon="6.01626">
        <ele>308.24</ele>
        <time>2015-07-12T10:25:26.000Z</time>
      </trkpt>
      <trkpt lat="47.21696" lon="6.01607">
        <ele>307.76</ele>
        <time>2015-07-12T10:25:28.000Z</time>
      </trkpt>
      <trkpt lat="47.21693" lon="6.01588">
        <ele>307.76</ele>
        <time>2015-07-12T10:25:30.000Z</time>
      </trkpt>
      <trkpt lat="47.21692" lon="6.01568">
        <ele>307.76</ele>
        <time>2015-07-12T10:25:32.000Z</time>
      </trkpt>
      <trkpt lat="47.21691" lon="6.01549">
        <ele>308.24</ele>
        <time>2015-07-12T10:25:34.000Z</time>
      </trkpt>
      <trkpt lat="47.21691" lon="6.0153">
        <ele>307.76</ele>
        <time>2015-07-12T10:25:36.000Z</time>
      </trkpt>
      <trkpt lat="47.2169" lon="6.01511">
        <ele>307.28</ele>
        <time>2015-07-12T10:25:38.000Z</time>
      </trkpt>
      <trkpt lat="47.2169" lon="6.01492">
        <ele>307.28</ele>
        <time>2015-07-12T10:25:40.000Z</time>
      </trkpt>
      <trkpt lat="47.21689" lon="6.01473">
        <ele>307.76</ele>
        <time>2015-07-12T10:25:42.000Z</time>
      </trkpt>
      <trkpt lat="47.21688" lon="6.01455">
        <ele>307.76</ele>
        <time>2015-07-12T10:25:44.000Z</time>
      </trkpt>
      <trkpt lat="47.21686" lon="6.01438">
        <ele>307.76</ele>
        <time>2015-07-12T10:25:46.000Z</time>
      </trkpt>
      <trkpt lat="47.21684" lon="6.01419">
        <ele>307.28</ele>
        <time>2015-07-12T10:25:48.000Z</time>
      </trkpt>
      <trkpt lat="47.21683" lon="6.01401">
        <ele>306.8</ele>
        <time>2015-07-12T10:25:50.000Z</time>
      </trkpt>
      <trkpt lat="47.21682" lon="6.01383">
        <ele>307.28</ele>
        <time>2015-07-12T10:25:52.000Z</time>
      </trkpt>
      <trkpt lat="47.2168" lon="6.01366">
        <ele>306.8</ele>
        <time>2015-07-12T10:25:54.000Z</time>
      </trkpt>
      <trkpt lat="47.21677" lon="6.01348">
        <ele>306.8</ele>
        <time>2015-07-12T10:25:56.000Z</time>
      </trkpt>
      <trkpt lat="47.21675" lon="6.0133">
        <ele>306.8</ele>
        <time>2015-07-12T10:25:58.000Z</time>
      </trkpt>
      <trkpt lat="47.21674" lon="6.01312">
        <ele>307.28</ele>
        <time>2015-07-12T10:26:00.000Z</time>
      </trkpt>
      <trkpt lat="47.21673" lon="6.01296">
        <ele>306.8</ele>
        <time>2015-07-12T10:26:02.000Z</time>
      </trkpt>
      <trkpt lat="47.21672" lon="6.01281">
        <ele>306.32</ele>
        <time>2015-07-12T10:26:04.000Z</time>
      </trkpt>
      <trkpt lat="47.21671" lon="6.01267">
        <ele>306.32</ele>
        <time>2015-07-12T10:26:06.000Z</time>
      </trkpt>
      <trkpt lat="47.21669" lon="6.01251">
        <ele>306.8</ele>
        <time>2015-07-12T10:26:09.000Z</time>
      </trkpt>
      <trkpt lat="47.21668" lon="6.01235">
        <ele>306.8</ele>
        <time>2015-07-12T10:26:13.000Z</time>
      </trkpt>
      <trkpt lat="47.21667" lon="6.01222">
        <ele>307.28</ele>
        <time>2015-07-12T10:26:16.000Z</time>
      </trkpt>
      <trkpt lat="47.21666" lon="6.01208">
        <ele>306.8</ele>
        <time>2015-07-12T10:26:19.000Z</time>
      </trkpt>
      <trkpt lat="47.21666" lon="6.01192">
        <ele>307.28</ele>
        <time>2015-07-12T10:26:22.000Z</time>
      </trkpt>
      <trkpt lat="47.21666" lon="6.01176">
        <ele>307.28</ele>
        <time>2015-07-12T10:26:25.000Z</time>
      </trkpt>
      <trkpt lat="47.21664" lon="6.0116">
        <ele>307.28</ele>
        <time>2015-07-12T10:26:28.000Z</time>
      </trkpt>
      <trkpt lat="47.21663" lon="6.01144">
        <ele>307.28</ele>
        <time>2015-07-12T10:26:31.000Z</time>
      </trkpt>
      <trkpt lat="47.21662" lon="6.01128">
        <ele>306.8</ele>
        <time>2015-07-12T10:26:34.000Z</time>
      </trkpt>
      <trkpt lat="47.21663" lon="6.01121">
        <ele>306.32</ele>
        <time>2015-07-12T10:28:07.000Z</time>
      </trkpt>
      <trkpt lat="47.21662" lon="6.01103">
        <ele>306.8</ele>
        <time>2015-07-12T10:28:11.000Z</time>
      </trkpt>
      <trkpt lat="47.21661" lon="6.01087">
        <ele>306.8</ele>
        <time>2015-07-12T10:28:14.000Z</time>
      </trkpt>
      <trkpt lat="47.21661" lon="6.01072">
        <ele>306.8</ele>
        <time>2015-07-12T10:28:17.000Z</time>
      </trkpt>
      <trkpt lat="47.2166" lon="6.01056">
        <ele>306.8</ele>
        <time>2015-07-12T10:28:20.000Z</time>
      </trkpt>
      <trkpt lat="47.2166" lon="6.01042">
        <ele>306.8</ele>
        <time>2015-07-12T10:28:23.000Z</time>
      </trkpt>
      <trkpt lat="47.21662" lon="6.01028">
        <ele>305.84</ele>
        <time>2015-07-12T10:28:27.000Z</time>
      </trkpt>
      <trkpt lat="47.21659" lon="6.01042">
        <ele>306.8</ele>
        <time>2015-07-12T10:29:36.000Z</time>
      </trkpt>
      <trkpt lat="47.2166" lon="6.01058">
        <ele>306.8</ele>
        <time>2015-07-12T10:29:40.000Z</time>
      </trkpt>
      <trkpt lat="47.21661" lon="6.01073">
        <ele>306.8</ele>
        <time>2015-07-12T10:29:43.000Z</time>
      </trkpt>
      <trkpt lat="47.21662" lon="6.01087">
        <ele>306.32</ele>
        <time>2015-07-12T10:29:46.000Z</time>
      </trkpt>
      <trkpt lat="47.21662" lon="6.011">
        <ele>306.8</ele>
        <time>2015-07-12T10:29:49.000Z</time>
      </trkpt>
      <trkpt lat="47.21663" lon="6.01115">
        <ele>306.8</ele>
        <time>2015-07-12T10:29:53.000Z</time>
      </trkpt>
      <trkpt lat="47.21661" lon="6.01127">
        <ele>307.28</ele>
        <time>2015-07-12T10:30:05.000Z</time>
      </trkpt>
      <trkpt lat="47.21663" lon="6.01122">
        <ele>307.28</ele>
        <time>2015-07-12T10:31:18.000Z</time>
      </trkpt>
      <trkpt lat="47.21663" lon="6.01106">
        <ele>307.28</ele>
        <time>2015-07-12T10:31:50.000Z</time>
      </trkpt>
      <trkpt lat="47.21663" lon="6.0109">
        <ele>307.28</ele>
        <time>2015-07-12T10:31:54.000Z</time>
      </trkpt>
      <trkpt lat="47.21662" lon="6.01075">
        <ele>307.28</ele>
        <time>2015-07-12T10:31:57.000Z</time>
      </trkpt>
      <trkpt lat="47.2166" lon="6.01057">
        <ele>307.28</ele>
        <time>2015-07-12T10:32:00.000Z</time>
      </trkpt>
      <trkpt lat="47.21659" lon="6.01044">
        <ele>307.28</ele>
        <time>2015-07-12T10:32:02.000Z</time>
      </trkpt>
      <trkpt lat="47.21658" lon="6.01025">
        <ele>307.28</ele>
        <time>2015-07-12T10:32:05.000Z</time>
      </trkpt>
      <trkpt lat="47.21657" lon="6.01011">
        <ele>307.28</ele>
        <time>2015-07-12T10:32:07.000Z</time>
      </trkpt>
      <trkpt lat="47.21656" lon="6.00997">
        <ele>307.28</ele>
        <time>2015-07-12T10:32:09.000Z</time>
      </trkpt>
      <trkpt lat="47.21654" lon="6.00978">
        <ele>307.28</ele>
        <time>2015-07-12T10:32:12.000Z</time>
      </trkpt>
      <trkpt lat="47.21653" lon="6.00959">
        <ele>307.76</ele>
        <time>2015-07-12T10:32:15.000Z</time>
      </trkpt>
      <trkpt lat="47.21652" lon="6.00941">
        <ele>307.76</ele>
        <time>2015-07-12T10:32:18.000Z</time>
      </trkpt>
      <trkpt lat="47.21653" lon="6.00923">
        <ele>307.76</ele>
        <time>2015-07-12T10:32:21.000Z</time>
      </trkpt>
      <trkpt lat="47.21652" lon="6.00905">
        <ele>307.76</ele>
        <time>2015-07-12T10:32:24.000Z</time>
      </trkpt>
      <trkpt lat="47.21652" lon="6.00886">
        <ele>307.76</ele>
        <time>2015-07-12T10:32:27.000Z</time>
      </trkpt>
      <trkpt lat="47.21651" lon="6.00867">
        <ele>307.76</ele>
        <time>2015-07-12T10:32:30.000Z</time>
      </trkpt>
      <trkpt lat="47.21649" lon="6.00849">
        <ele>307.76</ele>
        <time>2015-07-12T10:32:33.000Z</time>
      </trkpt>
      <trkpt lat="47.21647" lon="6.00831">
        <ele>307.76</ele>
        <time>2015-07-12T10:32:36.000Z</time>
      </trkpt>
      <trkpt lat="47.21645" lon="6.00811">
        <ele>307.76</ele>
        <time>2015-07-12T10:32:39.000Z</time>
      </trkpt>
      <trkpt lat="47.21645" lon="6.00793">
        <ele>307.76</ele>
        <time>2015-07-12T10:32:42.000Z</time>
      </trkpt>
      <trkpt lat="47.21645" lon="6.00774">
        <ele>308.24</ele>
        <time>2015-07-12T10:32:45.000Z</time>
      </trkpt>
      <trkpt lat="47.21643" lon="6.00756">
        <ele>307.76</ele>
        <time>2015-07-12T10:32:48.000Z</time>
      </trkpt>
      <trkpt lat="47.21642" lon="6.00737">
        <ele>307.76</ele>
        <time>2015-07-12T10:32:51.000Z</time>
      </trkpt>
      <trkpt lat="47.2164" lon="6.00718">
        <ele>307.76</ele>
        <time>2015-07-12T10:32:54.000Z</time>
      </trkpt>
      <trkpt lat="47.21638" lon="6.00699">
        <ele>307.76</ele>
        <time>2015-07-12T10:32:57.000Z</time>
      </trkpt>
      <trkpt lat="47.21637" lon="6.00685">
        <ele>307.76</ele>
        <time>2015-07-12T10:32:59.000Z</time>
      </trkpt>
      <trkpt lat="47.21635" lon="6.00665">
        <ele>307.76</ele>
        <time>2015-07-12T10:33:02.000Z</time>
      </trkpt>
      <trkpt lat="47.21634" lon="6.00652">
        <ele>307.76</ele>
        <time>2015-07-12T10:33:04.000Z</time>
      </trkpt>
      <trkpt lat="47.21632" lon="6.00638">
        <ele>307.28</ele>
        <time>2015-07-12T10:33:06.000Z</time>
      </trkpt>
      <trkpt lat="47.21631" lon="6.00625">
        <ele>307.28</ele>
        <time>2015-07-12T10:33:08.000Z</time>
      </trkpt>
      <trkpt lat="47.21629" lon="6.00612">
        <ele>307.28</ele>
        <time>2015-07-12T10:33:10.000Z</time>
      </trkpt>
      <trkpt lat="47.21628" lon="6.00599">
        <ele>307.28</ele>
        <time>2015-07-12T10:33:12.000Z</time>
      </trkpt>
      <trkpt lat="47.21626" lon="6.00586">
        <ele>307.28</ele>
        <time>2015-07-12T10:33:14.000Z</time>
      </trkpt>
      <trkpt lat="47.21624" lon="6.00573">
        <ele>307.76</ele>
        <time>2015-07-12T10:33:16.000Z</time>
      </trkpt>
      <trkpt lat="47.21622" lon="6.00554">
        <ele>307.76</ele>
        <time>2015-07-12T10:33:19.000Z</time>
      </trkpt>
      <trkpt lat="47.21619" lon="6.00536">
        <ele>307.28</ele>
        <time>2015-07-12T10:33:22.000Z</time>
      </trkpt>
      <trkpt lat="47.21616" lon="6.00516">
        <ele>307.28</ele>
        <time>2015-07-12T10:33:25.000Z</time>
      </trkpt>
      <trkpt lat="47.21613" lon="6.00503">
        <ele>307.28</ele>
        <time>2015-07-12T10:33:27.000Z</time>
      </trkpt>
      <trkpt lat="47.21611" lon="6.00489">
        <ele>307.28</ele>
        <time>2015-07-12T10:33:29.000Z</time>
      </trkpt>
      <trkpt lat="47.21609" lon="6.00476">
        <ele>307.28</ele>
        <time>2015-07-12T10:33:31.000Z</time>
      </trkpt>
      <trkpt lat="47.21606" lon="6.00462">
        <ele>307.28</ele>
        <time>2015-07-12T10:33:33.000Z</time>
      </trkpt>
      <trkpt lat="47.21603" lon="6.00449">
        <ele>307.28</ele>
        <time>2015-07-12T10:33:35.000Z</time>
      </trkpt>
      <trkpt lat="47.216" lon="6.00434">
        <ele>307.28</ele>
        <time>2015-07-12T10:33:37.000Z</time>
      </trkpt>
      <trkpt lat="47.21597" lon="6.00421">
        <ele>307.28</ele>
        <time>2015-07-12T10:33:39.000Z</time>
      </trkpt>
      <trkpt lat="47.21594" lon="6.00409">
        <ele>307.28</ele>
        <time>2015-07-12T10:33:41.000Z</time>
      </trkpt>
      <trkpt lat="47.2159" lon="6.00396">
        <ele>307.28</ele>
        <time>2015-07-12T10:33:43.000Z</time>
      </trkpt>
      <trkpt lat="47.21586" lon="6.00384">
        <ele>307.76</ele>
        <time>2015-07-12T10:33:45.000Z</time>
      </trkpt>
      <trkpt lat="47.21581" lon="6.00372">
        <ele>307.28</ele>
        <time>2015-07-12T10:33:47.000Z</time>
      </trkpt>
      <trkpt lat="47.21576" lon="6.0036">
        <ele>307.76</ele>
        <time>2015-07-12T10:33:49.000Z</time>
      </trkpt>
      <trkpt lat="47.21568" lon="6.00345">
        <ele>307.76</ele>
        <time>2015-07-12T10:33:52.000Z</time>
      </trkpt>
      <trkpt lat="47.21558" lon="6.00332">
        <ele>307.76</ele>
        <time>2015-07-12T10:33:55.000Z</time>
      </trkpt>
      <trkpt lat="47.21549" lon="6.00318">
        <ele>308.24</ele>
        <time>2015-07-12T10:33:58.000Z</time>
      </trkpt>
      <trkpt lat="47.2154" lon="6.00303">
        <ele>308.24</ele>
        <time>2015-07-12T10:34:01.000Z</time>
      </trkpt>
      <trkpt lat="47.21531" lon="6.0029">
        <ele>308.72</ele>
        <time>2015-07-12T10:34:04.000Z</time>
      </trkpt>
      <trkpt lat="47.21524" lon="6.0028">
        <ele>308.24</ele>
        <time>2015-07-12T10:34:06.000Z</time>
      </trkpt>
      <trkpt lat="47.21517" lon="6.0027">
        <ele>307.76</ele>
        <time>2015-07-12T10:34:08.000Z</time>
      </trkpt>
      <trkpt lat="47.21509" lon="6.0026">
        <ele>307.76</ele>
        <time>2015-07-12T10:34:10.000Z</time>
      </trkpt>
      <trkpt lat="47.21502" lon="6.00249">
        <ele>307.28</ele>
        <time>2015-07-12T10:34:12.000Z</time>
      </trkpt>
      <trkpt lat="47.21494" lon="6.00238">
        <ele>307.28</ele>
        <time>2015-07-12T10:34:14.000Z</time>
      </trkpt>
      <trkpt lat="47.21487" lon="6.00228">
        <ele>307.28</ele>
        <time>2015-07-12T10:34:16.000Z</time>
      </trkpt>
      <trkpt lat="47.21479" lon="6.00219">
        <ele>307.28</ele>
        <time>2015-07-12T10:34:18.000Z</time>
      </trkpt>
      <trkpt lat="47.21472" lon="6.00209">
        <ele>307.28</ele>
        <time>2015-07-12T10:34:20.000Z</time>
      </trkpt>
      <trkpt lat="47.21465" lon="6.00199">
        <ele>307.28</ele>
        <time>2015-07-12T10:34:22.000Z</time>
      </trkpt>
      <trkpt lat="47.21457" lon="6.00189">
        <ele>306.8</ele>
        <time>2015-07-12T10:34:24.000Z</time>
      </trkpt>
      <trkpt lat="47.2145" lon="6.00179">
        <ele>306.8</ele>
        <time>2015-07-12T10:34:26.000Z</time>
      </trkpt>
      <trkpt lat="47.21442" lon="6.00169">
        <ele>306.8</ele>
        <time>2015-07-12T10:34:28.000Z</time>
      </trkpt>
      <trkpt lat="47.21436" lon="6.0016">
        <ele>306.8</ele>
        <time>2015-07-12T10:34:30.000Z</time>
      </trkpt>
      <trkpt lat="47.21428" lon="6.0015">
        <ele>307.28</ele>
        <time>2015-07-12T10:34:32.000Z</time>
      </trkpt>
      <trkpt lat="47.2142" lon="6.00141">
        <ele>307.28</ele>
        <time>2015-07-12T10:34:34.000Z</time>
      </trkpt>
      <trkpt lat="47.21413" lon="6.00132">
        <ele>307.28</ele>
        <time>2015-07-12T10:34:36.000Z</time>
      </trkpt>
      <trkpt lat="47.21405" lon="6.00123">
        <ele>307.28</ele>
        <time>2015-07-12T10:34:38.000Z</time>
      </trkpt>
      <trkpt lat="47.21397" lon="6.00114">
        <ele>307.28</ele>
        <time>2015-07-12T10:34:40.000Z</time>
      </trkpt>
      <trkpt lat="47.21389" lon="6.00106">
        <ele>307.28</ele>
        <time>2015-07-12T10:34:42.000Z</time>
      </trkpt>
      <trkpt lat="47.21381" lon="6.00097">
        <ele>307.76</ele>
        <time>2015-07-12T10:34:44.000Z</time>
      </trkpt>
      <trkpt lat="47.21373" lon="6.00088">
        <ele>307.28</ele>
        <time>2015-07-12T10:34:46.000Z</time>
      </trkpt>
      <trkpt lat="47.21365" lon="6.00078">
        <ele>307.28</ele>
        <time>2015-07-12T10:34:48.000Z</time>
      </trkpt>
      <trkpt lat="47.21357" lon="6.0007">
        <ele>306.8</ele>
        <time>2015-07-12T10:34:50.000Z</time>
      </trkpt>
      <trkpt lat="47.21349" lon="6.00062">
        <ele>307.28</ele>
        <time>2015-07-12T10:34:52.000Z</time>
      </trkpt>
      <trkpt lat="47.21341" lon="6.00057">
        <ele>306.8</ele>
        <time>2015-07-12T10:34:56.000Z</time>
      </trkpt>
      <trkpt lat="47.21339" lon="6.00063">
        <ele>305.36</ele>
        <time>2015-07-12T10:35:45.000Z</time>
      </trkpt>
      <trkpt lat="47.21339" lon="6.00063">
        <ele>241.91</ele>
        <time>2015-07-12T11:15:35.000Z</time>
      </trkpt>
      <trkpt lat="47.2134" lon="6.00064">
        <ele>310.64</ele>
        <time>2015-07-12T11:15:40.000Z</time>
      </trkpt>
      <trkpt lat="47.21338" lon="6.00052">
        <ele>309.2</ele>
        <time>2015-07-12T11:15:58.000Z</time>
      </trkpt>
      <trkpt lat="47.21329" lon="6.00041">
        <ele>309.68</ele>
        <time>2015-07-12T11:16:03.000Z</time>
      </trkpt>
      <trkpt lat="47.21321" lon="6.00032">
        <ele>310.16</ele>
        <time>2015-07-12T11:16:06.000Z</time>
      </trkpt>
      <trkpt lat="47.21311" lon="6.00022">
        <ele>309.68</ele>
        <time>2015-07-12T11:16:09.000Z</time>
      </trkpt>
      <trkpt lat="47.21299" lon="6.00011">
        <ele>309.68</ele>
        <time>2015-07-12T11:16:12.000Z</time>
      </trkpt>
      <trkpt lat="47.21291" lon="6.00003">
        <ele>309.2</ele>
        <time>2015-07-12T11:16:14.000Z</time>
      </trkpt>
      <trkpt lat="47.21283" lon="5.99996">
        <ele>308.72</ele>
        <time>2015-07-12T11:16:16.000Z</time>
      </trkpt>
      <trkpt lat="47.21275" lon="5.99988">
        <ele>308.24</ele>
        <time>2015-07-12T11:16:18.000Z</time>
      </trkpt>
      <trkpt lat="47.21267" lon="5.9998">
        <ele>308.24</ele>
        <time>2015-07-12T11:16:20.000Z</time>
      </trkpt>
      <trkpt lat="47.21259" lon="5.99971">
        <ele>308.72</ele>
        <time>2015-07-12T11:16:22.000Z</time>
      </trkpt>
      <trkpt lat="47.21252" lon="5.99964">
        <ele>309.2</ele>
        <time>2015-07-12T11:16:24.000Z</time>
      </trkpt>
      <trkpt lat="47.21244" lon="5.99956">
        <ele>308.72</ele>
        <time>2015-07-12T11:16:26.000Z</time>
      </trkpt>
      <trkpt lat="47.21237" lon="5.99949">
        <ele>309.2</ele>
        <time>2015-07-12T11:16:28.000Z</time>
      </trkpt>
      <trkpt lat="47.21225" lon="5.99938">
        <ele>309.68</ele>
        <time>2015-07-12T11:16:31.000Z</time>
      </trkpt>
      <trkpt lat="47.21217" lon="5.9993">
        <ele>310.16</ele>
        <time>2015-07-12T11:16:33.000Z</time>
      </trkpt>
      <trkpt lat="47.21209" lon="5.99922">
        <ele>310.16</ele>
        <time>2015-07-12T11:16:35.000Z</time>
      </trkpt>
      <trkpt lat="47.21201" lon="5.99914">
        <ele>310.16</ele>
        <time>2015-07-12T11:16:37.000Z</time>
      </trkpt>
      <trkpt lat="47.21193" lon="5.99906">
        <ele>310.16</ele>
        <time>2015-07-12T11:16:39.000Z</time>
      </trkpt>
      <trkpt lat="47.21186" lon="5.99898">
        <ele>310.16</ele>
        <time>2015-07-12T11:16:41.000Z</time>
      </trkpt>
      <trkpt lat="47.21178" lon="5.9989">
        <ele>310.64</ele>
        <time>2015-07-12T11:16:43.000Z</time>
      </trkpt>
      <trkpt lat="47.2117" lon="5.99883">
        <ele>310.64</ele>
        <time>2015-07-12T11:16:45.000Z</time>
      </trkpt>
      <trkpt lat="47.21162" lon="5.99876">
        <ele>310.64</ele>
        <time>2015-07-12T11:16:47.000Z</time>
      </trkpt>
      <trkpt lat="47.21154" lon="5.99868">
        <ele>310.64</ele>
        <time>2015-07-12T11:16:49.000Z</time>
      </trkpt>
      <trkpt lat="47.21147" lon="5.99861">
        <ele>310.16</ele>
        <time>2015-07-12T11:16:51.000Z</time>
      </trkpt>
      <trkpt lat="47.21136" lon="5.9985">
        <ele>310.16</ele>
        <time>2015-07-12T11:16:54.000Z</time>
      </trkpt>
      <trkpt lat="47.21124" lon="5.99841">
        <ele>309.68</ele>
        <time>2015-07-12T11:16:57.000Z</time>
      </trkpt>
      <trkpt lat="47.21114" lon="5.9983">
        <ele>310.16</ele>
        <time>2015-07-12T11:17:00.000Z</time>
      </trkpt>
      <trkpt lat="47.21103" lon="5.9982">
        <ele>310.16</ele>
        <time>2015-07-12T11:17:03.000Z</time>
      </trkpt>
      <trkpt lat="47.21092" lon="5.99808">
        <ele>310.16</ele>
        <time>2015-07-12T11:17:06.000Z</time>
      </trkpt>
      <trkpt lat="47.21081" lon="5.99797">
        <ele>310.16</ele>
        <time>2015-07-12T11:17:09.000Z</time>
      </trkpt>
      <trkpt lat="47.2107" lon="5.99787">
        <ele>310.16</ele>
        <time>2015-07-12T11:17:12.000Z</time>
      </trkpt>
      <trkpt lat="47.21059" lon="5.99777">
        <ele>310.64</ele>
        <time>2015-07-12T11:17:15.000Z</time>
      </trkpt>
      <trkpt lat="47.21052" lon="5.9977">
        <ele>310.64</ele>
        <time>2015-07-12T11:17:17.000Z</time>
      </trkpt>
      <trkpt lat="47.21044" lon="5.99762">
        <ele>310.16</ele>
        <time>2015-07-12T11:17:19.000Z</time>
      </trkpt>
      <trkpt lat="47.21037" lon="5.99755">
        <ele>310.64</ele>
        <time>2015-07-12T11:17:21.000Z</time>
      </trkpt>
      <trkpt lat="47.21029" lon="5.99747">
        <ele>310.64</ele>
        <time>2015-07-12T11:17:23.000Z</time>
      </trkpt>
      <trkpt lat="47.21021" lon="5.9974">
        <ele>310.64</ele>
        <time>2015-07-12T11:17:25.000Z</time>
      </trkpt>
      <trkpt lat="47.21013" lon="5.99732">
        <ele>310.64</ele>
        <time>2015-07-12T11:17:27.000Z</time>
      </trkpt>
      <trkpt lat="47.21006" lon="5.99724">
        <ele>310.64</ele>
        <time>2015-07-12T11:17:29.000Z</time>
      </trkpt>
      <trkpt lat="47.20998" lon="5.99716">
        <ele>310.64</ele>
        <time>2015-07-12T11:17:31.000Z</time>
      </trkpt>
      <trkpt lat="47.2099" lon="5.99708">
        <ele>310.16</ele>
        <time>2015-07-12T11:17:33.000Z</time>
      </trkpt>
      <trkpt lat="47.20982" lon="5.99699">
        <ele>310.16</ele>
        <time>2015-07-12T11:17:35.000Z</time>
      </trkpt>
      <trkpt lat="47.20975" lon="5.9969">
        <ele>310.16</ele>
        <time>2015-07-12T11:17:37.000Z</time>
      </trkpt>
      <trkpt lat="47.20968" lon="5.99683">
        <ele>310.16</ele>
        <time>2015-07-12T11:17:39.000Z</time>
      </trkpt>
      <trkpt lat="47.20957" lon="5.99669">
        <ele>310.16</ele>
        <time>2015-07-12T11:17:42.000Z</time>
      </trkpt>
      <trkpt lat="47.2095" lon="5.9966">
        <ele>310.16</ele>
        <time>2015-07-12T11:17:44.000Z</time>
      </trkpt>
      <trkpt lat="47.20942" lon="5.99652">
        <ele>310.16</ele>
        <time>2015-07-12T11:17:46.000Z</time>
      </trkpt>
      <trkpt lat="47.20935" lon="5.99643">
        <ele>309.68</ele>
        <time>2015-07-12T11:17:48.000Z</time>
      </trkpt>
      <trkpt lat="47.20927" lon="5.99634">
        <ele>309.68</ele>
        <time>2015-07-12T11:17:50.000Z</time>
      </trkpt>
      <trkpt lat="47.20918" lon="5.99626">
        <ele>310.16</ele>
        <time>2015-07-12T11:17:52.000Z</time>
      </trkpt>
      <trkpt lat="47.2091" lon="5.99619">
        <ele>309.68</ele>
        <time>2015-07-12T11:17:54.000Z</time>
      </trkpt>
      <trkpt lat="47.20901" lon="5.99613">
        <ele>309.68</ele>
        <time>2015-07-12T11:17:56.000Z</time>
      </trkpt>
      <trkpt lat="47.20892" lon="5.99605">
        <ele>309.68</ele>
        <time>2015-07-12T11:17:58.000Z</time>
      </trkpt>
      <trkpt lat="47.20883" lon="5.996">
        <ele>309.68</ele>
        <time>2015-07-12T11:18:00.000Z</time>
      </trkpt>
      <trkpt lat="47.20874" lon="5.99596">
        <ele>309.68</ele>
        <time>2015-07-12T11:18:02.000Z</time>
      </trkpt>
      <trkpt lat="47.20865" lon="5.99593">
        <ele>309.68</ele>
        <time>2015-07-12T11:18:04.000Z</time>
      </trkpt>
      <trkpt lat="47.20855" lon="5.9959">
        <ele>309.68</ele>
        <time>2015-07-12T11:18:06.000Z</time>
      </trkpt>
      <trkpt lat="47.20846" lon="5.99585">
        <ele>309.68</ele>
        <time>2015-07-12T11:18:08.000Z</time>
      </trkpt>
      <trkpt lat="47.20837" lon="5.99582">
        <ele>309.68</ele>
        <time>2015-07-12T11:18:10.000Z</time>
      </trkpt>
      <trkpt lat="47.20828" lon="5.99578">
        <ele>309.68</ele>
        <time>2015-07-12T11:18:12.000Z</time>
      </trkpt>
      <trkpt lat="47.20819" lon="5.99574">
        <ele>309.68</ele>
        <time>2015-07-12T11:18:14.000Z</time>
      </trkpt>
      <trkpt lat="47.2081" lon="5.9957">
        <ele>310.16</ele>
        <time>2015-07-12T11:18:16.000Z</time>
      </trkpt>
      <trkpt lat="47.208" lon="5.99564">
        <ele>309.68</ele>
        <time>2015-07-12T11:18:18.000Z</time>
      </trkpt>
      <trkpt lat="47.20791" lon="5.99558">
        <ele>309.68</ele>
        <time>2015-07-12T11:18:20.000Z</time>
      </trkpt>
      <trkpt lat="47.20782" lon="5.99552">
        <ele>309.2</ele>
        <time>2015-07-12T11:18:22.000Z</time>
      </trkpt>
      <trkpt lat="47.20773" lon="5.99547">
        <ele>309.2</ele>
        <time>2015-07-12T11:18:24.000Z</time>
      </trkpt>
      <trkpt lat="47.20763" lon="5.99542">
        <ele>309.2</ele>
        <time>2015-07-12T11:18:26.000Z</time>
      </trkpt>
      <trkpt lat="47.20754" lon="5.99538">
        <ele>309.2</ele>
        <time>2015-07-12T11:18:28.000Z</time>
      </trkpt>
      <trkpt lat="47.20744" lon="5.99533">
        <ele>309.2</ele>
        <time>2015-07-12T11:18:30.000Z</time>
      </trkpt>
      <trkpt lat="47.20733" lon="5.99531">
        <ele>309.2</ele>
        <time>2015-07-12T11:18:32.000Z</time>
      </trkpt>
      <trkpt lat="47.20724" lon="5.99528">
        <ele>309.68</ele>
        <time>2015-07-12T11:18:34.000Z</time>
      </trkpt>
      <trkpt lat="47.20715" lon="5.99524">
        <ele>309.2</ele>
        <time>2015-07-12T11:18:36.000Z</time>
      </trkpt>
      <trkpt lat="47.20705" lon="5.99521">
        <ele>309.68</ele>
        <time>2015-07-12T11:18:38.000Z</time>
      </trkpt>
      <trkpt lat="47.20695" lon="5.99518">
        <ele>309.2</ele>
        <time>2015-07-12T11:18:40.000Z</time>
      </trkpt>
      <trkpt lat="47.20686" lon="5.99514">
        <ele>309.68</ele>
        <time>2015-07-12T11:18:42.000Z</time>
      </trkpt>
      <trkpt lat="47.20675" lon="5.99516">
        <ele>309.2</ele>
        <time>2015-07-12T11:18:45.000Z</time>
      </trkpt>
      <trkpt lat="47.20671" lon="5.9953">
        <ele>309.2</ele>
        <time>2015-07-12T11:18:48.000Z</time>
      </trkpt>
      <trkpt lat="47.20668" lon="5.99547">
        <ele>309.68</ele>
        <time>2015-07-12T11:18:51.000Z</time>
      </trkpt>
      <trkpt lat="47.20663" lon="5.99563">
        <ele>309.68</ele>
        <time>2015-07-12T11:18:54.000Z</time>
      </trkpt>
      <trkpt lat="47.2066" lon="5.99577">
        <ele>309.68</ele>
        <time>2015-07-12T11:18:57.000Z</time>
      </trkpt>
      <trkpt lat="47.20654" lon="5.9958">
        <ele>310.16</ele>
        <time>2015-07-12T11:19:02.000Z</time>
      </trkpt>
      <trkpt lat="47.20644" lon="5.99572">
        <ele>310.16</ele>
        <time>2015-07-12T11:19:06.000Z</time>
      </trkpt>
      <trkpt lat="47.20635" lon="5.99566">
        <ele>309.68</ele>
        <time>2015-07-12T11:19:09.000Z</time>
      </trkpt>
      <trkpt lat="47.20624" lon="5.99561">
        <ele>308.72</ele>
        <time>2015-07-12T11:19:12.000Z</time>
      </trkpt>
      <trkpt lat="47.20615" lon="5.99556">
        <ele>309.2</ele>
        <time>2015-07-12T11:19:15.000Z</time>
      </trkpt>
      <trkpt lat="47.20606" lon="5.99551">
        <ele>309.2</ele>
        <time>2015-07-12T11:19:18.000Z</time>
      </trkpt>
      <trkpt lat="47.20597" lon="5.99547">
        <ele>309.2</ele>
        <time>2015-07-12T11:19:21.000Z</time>
      </trkpt>
      <trkpt lat="47.20587" lon="5.99542">
        <ele>309.2</ele>
        <time>2015-07-12T11:19:25.000Z</time>
      </trkpt>
      <trkpt lat="47.20577" lon="5.99539">
        <ele>309.2</ele>
        <time>2015-07-12T11:19:29.000Z</time>
      </trkpt>
      <trkpt lat="47.20567" lon="5.99535">
        <ele>309.2</ele>
        <time>2015-07-12T11:19:34.000Z</time>
      </trkpt>
      <trkpt lat="47.20555" lon="5.99531">
        <ele>309.68</ele>
        <time>2015-07-12T11:19:38.000Z</time>
      </trkpt>
      <trkpt lat="47.20544" lon="5.99528">
        <ele>309.2</ele>
        <time>2015-07-12T11:19:41.000Z</time>
      </trkpt>
      <trkpt lat="47.20533" lon="5.99523">
        <ele>309.68</ele>
        <time>2015-07-12T11:19:44.000Z</time>
      </trkpt>
      <trkpt lat="47.20522" lon="5.99519">
        <ele>312.57</ele>
        <time>2015-07-12T11:19:47.000Z</time>
      </trkpt>
      <trkpt lat="47.2051" lon="5.99515">
        <ele>306.32</ele>
        <time>2015-07-12T11:19:50.000Z</time>
      </trkpt>
      <trkpt lat="47.20499" lon="5.9951">
        <ele>310.16</ele>
        <time>2015-07-12T11:19:53.000Z</time>
      </trkpt>
      <trkpt lat="47.20488" lon="5.99504">
        <ele>309.68</ele>
        <time>2015-07-12T11:19:56.000Z</time>
      </trkpt>
      <trkpt lat="47.20477" lon="5.99498">
        <ele>310.16</ele>
        <time>2015-07-12T11:19:59.000Z</time>
      </trkpt>
      <trkpt lat="47.20464" lon="5.99491">
        <ele>309.68</ele>
        <time>2015-07-12T11:20:02.000Z</time>
      </trkpt>
      <trkpt lat="47.20456" lon="5.99486">
        <ele>310.16</ele>
        <time>2015-07-12T11:20:04.000Z</time>
      </trkpt>
      <trkpt lat="47.20447" lon="5.99481">
        <ele>311.12</ele>
        <time>2015-07-12T11:20:06.000Z</time>
      </trkpt>
      <trkpt lat="47.20434" lon="5.99475">
        <ele>310.64</ele>
        <time>2015-07-12T11:20:09.000Z</time>
      </trkpt>
      <trkpt lat="47.20425" lon="5.99472">
        <ele>311.12</ele>
        <time>2015-07-12T11:20:11.000Z</time>
      </trkpt>
      <trkpt lat="47.20415" lon="5.99469">
        <ele>311.12</ele>
        <time>2015-07-12T11:20:13.000Z</time>
      </trkpt>
      <trkpt lat="47.20405" lon="5.99465">
        <ele>311.12</ele>
        <time>2015-07-12T11:20:15.000Z</time>
      </trkpt>
      <trkpt lat="47.20395" lon="5.99462">
        <ele>311.12</ele>
        <time>2015-07-12T11:20:17.000Z</time>
      </trkpt>
      <trkpt lat="47.20385" lon="5.99459">
        <ele>311.12</ele>
        <time>2015-07-12T11:20:19.000Z</time>
      </trkpt>
      <trkpt lat="47.20375" lon="5.99457">
        <ele>311.12</ele>
        <time>2015-07-12T11:20:21.000Z</time>
      </trkpt>
      <trkpt lat="47.20366" lon="5.99454">
        <ele>310.64</ele>
        <time>2015-07-12T11:20:23.000Z</time>
      </trkpt>
      <trkpt lat="47.20357" lon="5.9945">
        <ele>311.12</ele>
        <time>2015-07-12T11:20:25.000Z</time>
      </trkpt>
      <trkpt lat="47.20348" lon="5.99445">
        <ele>310.64</ele>
        <time>2015-07-12T11:20:27.000Z</time>
      </trkpt>
      <trkpt lat="47.20337" lon="5.99442">
        <ele>310.64</ele>
        <time>2015-07-12T11:20:29.000Z</time>
      </trkpt>
      <trkpt lat="47.20327" lon="5.99437">
        <ele>310.16</ele>
        <time>2015-07-12T11:20:31.000Z</time>
      </trkpt>
      <trkpt lat="47.20317" lon="5.99433">
        <ele>310.64</ele>
        <time>2015-07-12T11:20:33.000Z</time>
      </trkpt>
      <trkpt lat="47.20306" lon="5.99429">
        <ele>310.16</ele>
        <time>2015-07-12T11:20:35.000Z</time>
      </trkpt>
      <trkpt lat="47.20295" lon="5.99424">
        <ele>310.16</ele>
        <time>2015-07-12T11:20:37.000Z</time>
      </trkpt>
      <trkpt lat="47.20285" lon="5.99419">
        <ele>310.16</ele>
        <time>2015-07-12T11:20:39.000Z</time>
      </trkpt>
      <trkpt lat="47.20275" lon="5.99414">
        <ele>310.16</ele>
        <time>2015-07-12T11:20:41.000Z</time>
      </trkpt>
      <trkpt lat="47.20266" lon="5.99408">
        <ele>310.16</ele>
        <time>2015-07-12T11:20:43.000Z</time>
      </trkpt>
      <trkpt lat="47.20256" lon="5.99402">
        <ele>310.16</ele>
        <time>2015-07-12T11:20:45.000Z</time>
      </trkpt>
      <trkpt lat="47.20247" lon="5.99395">
        <ele>310.16</ele>
        <time>2015-07-12T11:20:47.000Z</time>
      </trkpt>
      <trkpt lat="47.20237" lon="5.99389">
        <ele>310.64</ele>
        <time>2015-07-12T11:20:49.000Z</time>
      </trkpt>
      <trkpt lat="47.20228" lon="5.99383">
        <ele>310.16</ele>
        <time>2015-07-12T11:20:51.000Z</time>
      </trkpt>
      <trkpt lat="47.2022" lon="5.99376">
        <ele>310.16</ele>
        <time>2015-07-12T11:20:53.000Z</time>
      </trkpt>
      <trkpt lat="47.20211" lon="5.99368">
        <ele>310.64</ele>
        <time>2015-07-12T11:20:55.000Z</time>
      </trkpt>
      <trkpt lat="47.20203" lon="5.99361">
        <ele>310.64</ele>
        <time>2015-07-12T11:20:57.000Z</time>
      </trkpt>
      <trkpt lat="47.20195" lon="5.99353">
        <ele>310.64</ele>
        <time>2015-07-12T11:20:59.000Z</time>
      </trkpt>
      <trkpt lat="47.20186" lon="5.99345">
        <ele>310.64</ele>
        <time>2015-07-12T11:21:01.000Z</time>
      </trkpt>
      <trkpt lat="47.20178" lon="5.99338">
        <ele>310.16</ele>
        <time>2015-07-12T11:21:03.000Z</time>
      </trkpt>
      <trkpt lat="47.20169" lon="5.99331">
        <ele>310.16</ele>
        <time>2015-07-12T11:21:05.000Z</time>
      </trkpt>
      <trkpt lat="47.20161" lon="5.99324">
        <ele>310.16</ele>
        <time>2015-07-12T11:21:07.000Z</time>
      </trkpt>
      <trkpt lat="47.2015" lon="5.99313">
        <ele>310.64</ele>
        <time>2015-07-12T11:21:10.000Z</time>
      </trkpt>
      <trkpt lat="47.20143" lon="5.99307">
        <ele>310.64</ele>
        <time>2015-07-12T11:21:12.000Z</time>
      </trkpt>
      <trkpt lat="47.20132" lon="5.99297">
        <ele>310.64</ele>
        <time>2015-07-12T11:21:15.000Z</time>
      </trkpt>
      <trkpt lat="47.20124" lon="5.99289">
        <ele>311.12</ele>
        <time>2015-07-12T11:21:18.000Z</time>
      </trkpt>
      <trkpt lat="47.20116" lon="5.99278">
        <ele>311.12</ele>
        <time>2015-07-12T11:21:21.000Z</time>
      </trkpt>
      <trkpt lat="47.20107" lon="5.99266">
        <ele>311.12</ele>
        <time>2015-07-12T11:21:24.000Z</time>
      </trkpt>
      <trkpt lat="47.20097" lon="5.99253">
        <ele>311.12</ele>
        <time>2015-07-12T11:21:27.000Z</time>
      </trkpt>
      <trkpt lat="47.20087" lon="5.9924">
        <ele>311.6</ele>
        <time>2015-07-12T11:21:30.000Z</time>
      </trkpt>
      <trkpt lat="47.20079" lon="5.99226">
        <ele>311.6</ele>
        <time>2015-07-12T11:21:33.000Z</time>
      </trkpt>
      <trkpt lat="47.20071" lon="5.99211">
        <ele>311.6</ele>
        <time>2015-07-12T11:21:36.000Z</time>
      </trkpt>
      <trkpt lat="47.20065" lon="5.992">
        <ele>311.6</ele>
        <time>2015-07-12T11:21:38.000Z</time>
      </trkpt>
      <trkpt lat="47.20057" lon="5.99184">
        <ele>311.6</ele>
        <time>2015-07-12T11:21:41.000Z</time>
      </trkpt>
      <trkpt lat="47.2005" lon="5.99168">
        <ele>311.6</ele>
        <time>2015-07-12T11:21:44.000Z</time>
      </trkpt>
      <trkpt lat="47.20045" lon="5.99156">
        <ele>311.6</ele>
        <time>2015-07-12T11:21:46.000Z</time>
      </trkpt>
      <trkpt lat="47.20041" lon="5.99145">
        <ele>311.6</ele>
        <time>2015-07-12T11:21:48.000Z</time>
      </trkpt>
      <trkpt lat="47.20034" lon="5.99129">
        <ele>311.6</ele>
        <time>2015-07-12T11:21:51.000Z</time>
      </trkpt>
      <trkpt lat="47.20031" lon="5.99116">
        <ele>311.12</ele>
        <time>2015-07-12T11:21:53.000Z</time>
      </trkpt>
      <trkpt lat="47.20031" lon="5.99092">
        <ele>310.64</ele>
        <time>2015-07-12T11:21:56.000Z</time>
      </trkpt>
      <trkpt lat="47.20031" lon="5.99076">
        <ele>310.64</ele>
        <time>2015-07-12T11:21:58.000Z</time>
      </trkpt>
      <trkpt lat="47.2003" lon="5.99061">
        <ele>310.16</ele>
        <time>2015-07-12T11:22:00.000Z</time>
      </trkpt>
      <trkpt lat="47.20026" lon="5.99048">
        <ele>310.64</ele>
        <time>2015-07-12T11:22:02.000Z</time>
      </trkpt>
      <trkpt lat="47.20021" lon="5.99036">
        <ele>310.16</ele>
        <time>2015-07-12T11:22:04.000Z</time>
      </trkpt>
      <trkpt lat="47.20016" lon="5.99025">
        <ele>310.16</ele>
        <time>2015-07-12T11:22:06.000Z</time>
      </trkpt>
      <trkpt lat="47.20012" lon="5.99014">
        <ele>310.16</ele>
        <time>2015-07-12T11:22:08.000Z</time>
      </trkpt>
      <trkpt lat="47.20004" lon="5.98997">
        <ele>310.16</ele>
        <time>2015-07-12T11:22:11.000Z</time>
      </trkpt>
      <trkpt lat="47.19999" lon="5.98984">
        <ele>309.68</ele>
        <time>2015-07-12T11:22:13.000Z</time>
      </trkpt>
      <trkpt lat="47.19994" lon="5.98971">
        <ele>309.68</ele>
        <time>2015-07-12T11:22:15.000Z</time>
      </trkpt>
      <trkpt lat="47.19988" lon="5.98956">
        <ele>309.68</ele>
        <time>2015-07-12T11:22:17.000Z</time>
      </trkpt>
      <trkpt lat="47.19983" lon="5.98942">
        <ele>309.2</ele>
        <time>2015-07-12T11:22:19.000Z</time>
      </trkpt>
      <trkpt lat="47.19977" lon="5.98927">
        <ele>309.68</ele>
        <time>2015-07-12T11:22:21.000Z</time>
      </trkpt>
      <trkpt lat="47.19972" lon="5.98913">
        <ele>309.2</ele>
        <time>2015-07-12T11:22:23.000Z</time>
      </trkpt>
      <trkpt lat="47.19968" lon="5.98899">
        <ele>308.72</ele>
        <time>2015-07-12T11:22:25.000Z</time>
      </trkpt>
      <trkpt lat="47.19964" lon="5.98885">
        <ele>308.72</ele>
        <time>2015-07-12T11:22:27.000Z</time>
      </trkpt>
      <trkpt lat="47.19959" lon="5.98872">
        <ele>308.72</ele>
        <time>2015-07-12T11:22:29.000Z</time>
      </trkpt>
      <trkpt lat="47.19955" lon="5.98859">
        <ele>308.72</ele>
        <time>2015-07-12T11:22:31.000Z</time>
      </trkpt>
      <trkpt lat="47.1995" lon="5.98846">
        <ele>308.72</ele>
        <time>2015-07-12T11:22:33.000Z</time>
      </trkpt>
      <trkpt lat="47.19945" lon="5.98834">
        <ele>308.72</ele>
        <time>2015-07-12T11:22:35.000Z</time>
      </trkpt>
      <trkpt lat="47.1994" lon="5.98821">
        <ele>308.72</ele>
        <time>2015-07-12T11:22:37.000Z</time>
      </trkpt>
      <trkpt lat="47.19935" lon="5.98809">
        <ele>309.68</ele>
        <time>2015-07-12T11:22:39.000Z</time>
      </trkpt>
      <trkpt lat="47.19931" lon="5.98798">
        <ele>309.68</ele>
        <time>2015-07-12T11:22:41.000Z</time>
      </trkpt>
      <trkpt lat="47.19926" lon="5.98785">
        <ele>309.68</ele>
        <time>2015-07-12T11:22:43.000Z</time>
      </trkpt>
      <trkpt lat="47.19921" lon="5.98772">
        <ele>309.2</ele>
        <time>2015-07-12T11:22:45.000Z</time>
      </trkpt>
      <trkpt lat="47.19917" lon="5.98761">
        <ele>309.2</ele>
        <time>2015-07-12T11:22:47.000Z</time>
      </trkpt>
      <trkpt lat="47.19912" lon="5.98749">
        <ele>309.2</ele>
        <time>2015-07-12T11:22:49.000Z</time>
      </trkpt>
      <trkpt lat="47.19907" lon="5.98737">
        <ele>309.2</ele>
        <time>2015-07-12T11:22:51.000Z</time>
      </trkpt>
      <trkpt lat="47.19902" lon="5.98725">
        <ele>309.2</ele>
        <time>2015-07-12T11:22:53.000Z</time>
      </trkpt>
      <trkpt lat="47.19897" lon="5.98712">
        <ele>309.2</ele>
        <time>2015-07-12T11:22:55.000Z</time>
      </trkpt>
      <trkpt lat="47.19893" lon="5.987">
        <ele>309.2</ele>
        <time>2015-07-12T11:22:57.000Z</time>
      </trkpt>
      <trkpt lat="47.19888" lon="5.98689">
        <ele>309.2</ele>
        <time>2015-07-12T11:22:59.000Z</time>
      </trkpt>
      <trkpt lat="47.19883" lon="5.98677">
        <ele>309.2</ele>
        <time>2015-07-12T11:23:01.000Z</time>
      </trkpt>
      <trkpt lat="47.19878" lon="5.98665">
        <ele>309.68</ele>
        <time>2015-07-12T11:23:03.000Z</time>
      </trkpt>
      <trkpt lat="47.19873" lon="5.98652">
        <ele>309.68</ele>
        <time>2015-07-12T11:23:05.000Z</time>
      </trkpt>
      <trkpt lat="47.19869" lon="5.9864">
        <ele>309.68</ele>
        <time>2015-07-12T11:23:07.000Z</time>
      </trkpt>
      <trkpt lat="47.19864" lon="5.98627">
        <ele>310.16</ele>
        <time>2015-07-12T11:23:09.000Z</time>
      </trkpt>
      <trkpt lat="47.19859" lon="5.98616">
        <ele>310.16</ele>
        <time>2015-07-12T11:23:11.000Z</time>
      </trkpt>
      <trkpt lat="47.19854" lon="5.98604">
        <ele>309.68</ele>
        <time>2015-07-12T11:23:13.000Z</time>
      </trkpt>
      <trkpt lat="47.1985" lon="5.98591">
        <ele>309.68</ele>
        <time>2015-07-12T11:23:15.000Z</time>
      </trkpt>
      <trkpt lat="47.19846" lon="5.98579">
        <ele>309.68</ele>
        <time>2015-07-12T11:23:17.000Z</time>
      </trkpt>
      <trkpt lat="47.1984" lon="5.98562">
        <ele>310.16</ele>
        <time>2015-07-12T11:23:20.000Z</time>
      </trkpt>
      <trkpt lat="47.19834" lon="5.98547">
        <ele>309.68</ele>
        <time>2015-07-12T11:23:23.000Z</time>
      </trkpt>
      <trkpt lat="47.19828" lon="5.98531">
        <ele>310.16</ele>
        <time>2015-07-12T11:23:26.000Z</time>
      </trkpt>
      <trkpt lat="47.19823" lon="5.98514">
        <ele>310.16</ele>
        <time>2015-07-12T11:23:29.000Z</time>
      </trkpt>
      <trkpt lat="47.19819" lon="5.98501">
        <ele>310.16</ele>
        <time>2015-07-12T11:23:31.000Z</time>
      </trkpt>
      <trkpt lat="47.19815" lon="5.98488">
        <ele>310.16</ele>
        <time>2015-07-12T11:23:33.000Z</time>
      </trkpt>
      <trkpt lat="47.19812" lon="5.98475">
        <ele>310.16</ele>
        <time>2015-07-12T11:23:35.000Z</time>
      </trkpt>
      <trkpt lat="47.19809" lon="5.98461">
        <ele>310.16</ele>
        <time>2015-07-12T11:23:37.000Z</time>
      </trkpt>
      <trkpt lat="47.19806" lon="5.98447">
        <ele>310.16</ele>
        <time>2015-07-12T11:23:39.000Z</time>
      </trkpt>
      <trkpt lat="47.19804" lon="5.98432">
        <ele>310.64</ele>
        <time>2015-07-12T11:23:41.000Z</time>
      </trkpt>
      <trkpt lat="47.19803" lon="5.98417">
        <ele>310.16</ele>
        <time>2015-07-12T11:23:43.000Z</time>
      </trkpt>
      <trkpt lat="47.19802" lon="5.98402">
        <ele>310.16</ele>
        <time>2015-07-12T11:23:45.000Z</time>
      </trkpt>
      <trkpt lat="47.19803" lon="5.98387">
        <ele>310.16</ele>
        <time>2015-07-12T11:23:47.000Z</time>
      </trkpt>
      <trkpt lat="47.19805" lon="5.98372">
        <ele>310.64</ele>
        <time>2015-07-12T11:23:49.000Z</time>
      </trkpt>
      <trkpt lat="47.19807" lon="5.98357">
        <ele>310.64</ele>
        <time>2015-07-12T11:23:51.000Z</time>
      </trkpt>
      <trkpt lat="47.19809" lon="5.98342">
        <ele>310.16</ele>
        <time>2015-07-12T11:23:53.000Z</time>
      </trkpt>
      <trkpt lat="47.19811" lon="5.98327">
        <ele>310.64</ele>
        <time>2015-07-12T11:23:55.000Z</time>
      </trkpt>
      <trkpt lat="47.19815" lon="5.98312">
        <ele>310.64</ele>
        <time>2015-07-12T11:23:57.000Z</time>
      </trkpt>
      <trkpt lat="47.19818" lon="5.98299">
        <ele>311.12</ele>
        <time>2015-07-12T11:23:59.000Z</time>
      </trkpt>
      <trkpt lat="47.19823" lon="5.98283">
        <ele>312.09</ele>
        <time>2015-07-12T11:24:02.000Z</time>
      </trkpt>
      <trkpt lat="47.19828" lon="5.98268">
        <ele>311.12</ele>
        <time>2015-07-12T11:24:05.000Z</time>
      </trkpt>
      <trkpt lat="47.19834" lon="5.98251">
        <ele>310.64</ele>
        <time>2015-07-12T11:24:08.000Z</time>
      </trkpt>
      <trkpt lat="47.19839" lon="5.98239">
        <ele>311.12</ele>
        <time>2015-07-12T11:24:10.000Z</time>
      </trkpt>
      <trkpt lat="47.19845" lon="5.98227">
        <ele>310.16</ele>
        <time>2015-07-12T11:24:12.000Z</time>
      </trkpt>
      <trkpt lat="47.19851" lon="5.98214">
        <ele>310.16</ele>
        <time>2015-07-12T11:24:14.000Z</time>
      </trkpt>
      <trkpt lat="47.19855" lon="5.982">
        <ele>309.68</ele>
        <time>2015-07-12T11:24:16.000Z</time>
      </trkpt>
      <trkpt lat="47.19859" lon="5.98184">
        <ele>309.68</ele>
        <time>2015-07-12T11:24:18.000Z</time>
      </trkpt>
      <trkpt lat="47.1986" lon="5.98168">
        <ele>309.68</ele>
        <time>2015-07-12T11:24:20.000Z</time>
      </trkpt>
      <trkpt lat="47.19862" lon="5.98151">
        <ele>309.68</ele>
        <time>2015-07-12T11:24:22.000Z</time>
      </trkpt>
      <trkpt lat="47.19862" lon="5.98136">
        <ele>309.2</ele>
        <time>2015-07-12T11:24:24.000Z</time>
      </trkpt>
      <trkpt lat="47.19865" lon="5.98121">
        <ele>310.64</ele>
        <time>2015-07-12T11:24:26.000Z</time>
      </trkpt>
      <trkpt lat="47.19868" lon="5.98107">
        <ele>310.64</ele>
        <time>2015-07-12T11:24:28.000Z</time>
      </trkpt>
      <trkpt lat="47.19872" lon="5.98092">
        <ele>310.64</ele>
        <time>2015-07-12T11:24:30.000Z</time>
      </trkpt>
      <trkpt lat="47.19875" lon="5.98077">
        <ele>310.64</ele>
        <time>2015-07-12T11:24:32.000Z</time>
      </trkpt>
      <trkpt lat="47.19878" lon="5.98062">
        <ele>310.64</ele>
        <time>2015-07-12T11:24:34.000Z</time>
      </trkpt>
      <trkpt lat="47.1988" lon="5.98047">
        <ele>310.64</ele>
        <time>2015-07-12T11:24:36.000Z</time>
      </trkpt>
      <trkpt lat="47.19882" lon="5.98032">
        <ele>310.64</ele>
        <time>2015-07-12T11:24:38.000Z</time>
      </trkpt>
      <trkpt lat="47.19884" lon="5.98017">
        <ele>310.64</ele>
        <time>2015-07-12T11:24:40.000Z</time>
      </trkpt>
      <trkpt lat="47.19885" lon="5.98002">
        <ele>310.64</ele>
        <time>2015-07-12T11:24:42.000Z</time>
      </trkpt>
      <trkpt lat="47.19886" lon="5.97988">
        <ele>310.64</ele>
        <time>2015-07-12T11:24:44.000Z</time>
      </trkpt>
      <trkpt lat="47.19887" lon="5.97973">
        <ele>310.16</ele>
        <time>2015-07-12T11:24:46.000Z</time>
      </trkpt>
      <trkpt lat="47.19887" lon="5.97959">
        <ele>310.16</ele>
        <time>2015-07-12T11:24:48.000Z</time>
      </trkpt>
      <trkpt lat="47.19888" lon="5.97939">
        <ele>310.64</ele>
        <time>2015-07-12T11:24:51.000Z</time>
      </trkpt>
      <trkpt lat="47.19888" lon="5.97919">
        <ele>310.16</ele>
        <time>2015-07-12T11:24:54.000Z</time>
      </trkpt>
      <trkpt lat="47.19889" lon="5.97904">
        <ele>310.16</ele>
        <time>2015-07-12T11:24:56.000Z</time>
      </trkpt>
      <trkpt lat="47.1989" lon="5.9789">
        <ele>309.68</ele>
        <time>2015-07-12T11:24:58.000Z</time>
      </trkpt>
      <trkpt lat="47.19891" lon="5.97876">
        <ele>309.68</ele>
        <time>2015-07-12T11:25:00.000Z</time>
      </trkpt>
      <trkpt lat="47.19892" lon="5.97862">
        <ele>309.68</ele>
        <time>2015-07-12T11:25:02.000Z</time>
      </trkpt>
      <trkpt lat="47.19893" lon="5.97849">
        <ele>310.16</ele>
        <time>2015-07-12T11:25:04.000Z</time>
      </trkpt>
      <trkpt lat="47.19894" lon="5.97829">
        <ele>309.68</ele>
        <time>2015-07-12T11:25:07.000Z</time>
      </trkpt>
      <trkpt lat="47.19896" lon="5.9781">
        <ele>310.16</ele>
        <time>2015-07-12T11:25:10.000Z</time>
      </trkpt>
      <trkpt lat="47.19896" lon="5.97797">
        <ele>309.68</ele>
        <time>2015-07-12T11:25:12.000Z</time>
      </trkpt>
      <trkpt lat="47.19896" lon="5.97782">
        <ele>309.68</ele>
        <time>2015-07-12T11:25:14.000Z</time>
      </trkpt>
      <trkpt lat="47.19896" lon="5.97767">
        <ele>310.64</ele>
        <time>2015-07-12T11:25:16.000Z</time>
      </trkpt>
      <trkpt lat="47.19898" lon="5.97753">
        <ele>310.64</ele>
        <time>2015-07-12T11:25:18.000Z</time>
      </trkpt>
      <trkpt lat="47.19899" lon="5.97738">
        <ele>310.16</ele>
        <time>2015-07-12T11:25:20.000Z</time>
      </trkpt>
      <trkpt lat="47.199" lon="5.97724">
        <ele>310.16</ele>
        <time>2015-07-12T11:25:22.000Z</time>
      </trkpt>
      <trkpt lat="47.19901" lon="5.9771">
        <ele>310.16</ele>
        <time>2015-07-12T11:25:24.000Z</time>
      </trkpt>
      <trkpt lat="47.19901" lon="5.97696">
        <ele>310.16</ele>
        <time>2015-07-12T11:25:26.000Z</time>
      </trkpt>
      <trkpt lat="47.19902" lon="5.97682">
        <ele>309.68</ele>
        <time>2015-07-12T11:25:28.000Z</time>
      </trkpt>
      <trkpt lat="47.19902" lon="5.97669">
        <ele>310.16</ele>
        <time>2015-07-12T11:25:30.000Z</time>
      </trkpt>
      <trkpt lat="47.19904" lon="5.9765">
        <ele>310.16</ele>
        <time>2015-07-12T11:25:33.000Z</time>
      </trkpt>
      <trkpt lat="47.19904" lon="5.97631">
        <ele>309.68</ele>
        <time>2015-07-12T11:25:36.000Z</time>
      </trkpt>
      <trkpt lat="47.19905" lon="5.97617">
        <ele>309.68</ele>
        <time>2015-07-12T11:25:38.000Z</time>
      </trkpt>
      <trkpt lat="47.19905" lon="5.97604">
        <ele>310.16</ele>
        <time>2015-07-12T11:25:40.000Z</time>
      </trkpt>
      <trkpt lat="47.19906" lon="5.97583">
        <ele>309.2</ele>
        <time>2015-07-12T11:25:43.000Z</time>
      </trkpt>
      <trkpt lat="47.19906" lon="5.9757">
        <ele>309.2</ele>
        <time>2015-07-12T11:25:45.000Z</time>
      </trkpt>
      <trkpt lat="47.19908" lon="5.97551">
        <ele>309.2</ele>
        <time>2015-07-12T11:25:48.000Z</time>
      </trkpt>
      <trkpt lat="47.19909" lon="5.97537">
        <ele>309.68</ele>
        <time>2015-07-12T11:25:50.000Z</time>
      </trkpt>
      <trkpt lat="47.1991" lon="5.97522">
        <ele>309.2</ele>
        <time>2015-07-12T11:25:52.000Z</time>
      </trkpt>
      <trkpt lat="47.1991" lon="5.97509">
        <ele>309.2</ele>
        <time>2015-07-12T11:25:54.000Z</time>
      </trkpt>
      <trkpt lat="47.1991" lon="5.97495">
        <ele>309.2</ele>
        <time>2015-07-12T11:25:56.000Z</time>
      </trkpt>
      <trkpt lat="47.19911" lon="5.9748">
        <ele>309.68</ele>
        <time>2015-07-12T11:25:58.000Z</time>
      </trkpt>
      <trkpt lat="47.19911" lon="5.97465">
        <ele>309.2</ele>
        <time>2015-07-12T11:26:00.000Z</time>
      </trkpt>
      <trkpt lat="47.19911" lon="5.97451">
        <ele>309.2</ele>
        <time>2015-07-12T11:26:02.000Z</time>
      </trkpt>
      <trkpt lat="47.19912" lon="5.97437">
        <ele>309.2</ele>
        <time>2015-07-12T11:26:04.000Z</time>
      </trkpt>
      <trkpt lat="47.19913" lon="5.97422">
        <ele>309.2</ele>
        <time>2015-07-12T11:26:06.000Z</time>
      </trkpt>
      <trkpt lat="47.19913" lon="5.97407">
        <ele>309.2</ele>
        <time>2015-07-12T11:26:08.000Z</time>
      </trkpt>
      <trkpt lat="47.19914" lon="5.97393">
        <ele>309.2</ele>
        <time>2015-07-12T11:26:10.000Z</time>
      </trkpt>
      <trkpt lat="47.19914" lon="5.97378">
        <ele>309.2</ele>
        <time>2015-07-12T11:26:12.000Z</time>
      </trkpt>
      <trkpt lat="47.19915" lon="5.97363">
        <ele>309.68</ele>
        <time>2015-07-12T11:26:14.000Z</time>
      </trkpt>
      <trkpt lat="47.19916" lon="5.97348">
        <ele>309.68</ele>
        <time>2015-07-12T11:26:16.000Z</time>
      </trkpt>
      <trkpt lat="47.19917" lon="5.97333">
        <ele>309.68</ele>
        <time>2015-07-12T11:26:18.000Z</time>
      </trkpt>
      <trkpt lat="47.19917" lon="5.97319">
        <ele>309.68</ele>
        <time>2015-07-12T11:26:20.000Z</time>
      </trkpt>
      <trkpt lat="47.19918" lon="5.97304">
        <ele>309.2</ele>
        <time>2015-07-12T11:26:22.000Z</time>
      </trkpt>
      <trkpt lat="47.1992" lon="5.97289">
        <ele>308.72</ele>
        <time>2015-07-12T11:26:24.000Z</time>
      </trkpt>
      <trkpt lat="47.19921" lon="5.97274">
        <ele>309.2</ele>
        <time>2015-07-12T11:26:26.000Z</time>
      </trkpt>
      <trkpt lat="47.19922" lon="5.97259">
        <ele>309.2</ele>
        <time>2015-07-12T11:26:28.000Z</time>
      </trkpt>
      <trkpt lat="47.19923" lon="5.97244">
        <ele>309.2</ele>
        <time>2015-07-12T11:26:30.000Z</time>
      </trkpt>
      <trkpt lat="47.19924" lon="5.97229">
        <ele>309.2</ele>
        <time>2015-07-12T11:26:32.000Z</time>
      </trkpt>
      <trkpt lat="47.19925" lon="5.97214">
        <ele>309.2</ele>
        <time>2015-07-12T11:26:34.000Z</time>
      </trkpt>
      <trkpt lat="47.19925" lon="5.972">
        <ele>309.2</ele>
        <time>2015-07-12T11:26:36.000Z</time>
      </trkpt>
      <trkpt lat="47.19926" lon="5.97187">
        <ele>309.2</ele>
        <time>2015-07-12T11:26:38.000Z</time>
      </trkpt>
      <trkpt lat="47.19928" lon="5.97172">
        <ele>309.2</ele>
        <time>2015-07-12T11:26:40.000Z</time>
      </trkpt>
      <trkpt lat="47.19929" lon="5.97158">
        <ele>309.2</ele>
        <time>2015-07-12T11:26:42.000Z</time>
      </trkpt>
      <trkpt lat="47.19929" lon="5.97145">
        <ele>309.2</ele>
        <time>2015-07-12T11:26:44.000Z</time>
      </trkpt>
      <trkpt lat="47.19929" lon="5.97131">
        <ele>309.2</ele>
        <time>2015-07-12T11:26:46.000Z</time>
      </trkpt>
      <trkpt lat="47.19929" lon="5.97118">
        <ele>309.2</ele>
        <time>2015-07-12T11:26:48.000Z</time>
      </trkpt>
      <trkpt lat="47.1993" lon="5.97103">
        <ele>309.68</ele>
        <time>2015-07-12T11:26:50.000Z</time>
      </trkpt>
      <trkpt lat="47.1993" lon="5.97089">
        <ele>309.2</ele>
        <time>2015-07-12T11:26:52.000Z</time>
      </trkpt>
      <trkpt lat="47.1993" lon="5.97076">
        <ele>309.2</ele>
        <time>2015-07-12T11:26:54.000Z</time>
      </trkpt>
      <trkpt lat="47.1993" lon="5.97062">
        <ele>309.68</ele>
        <time>2015-07-12T11:26:56.000Z</time>
      </trkpt>
      <trkpt lat="47.19929" lon="5.97048">
        <ele>309.68</ele>
        <time>2015-07-12T11:26:58.000Z</time>
      </trkpt>
      <trkpt lat="47.1993" lon="5.97034">
        <ele>309.68</ele>
        <time>2015-07-12T11:27:00.000Z</time>
      </trkpt>
      <trkpt lat="47.1993" lon="5.97019">
        <ele>309.68</ele>
        <time>2015-07-12T11:27:02.000Z</time>
      </trkpt>
      <trkpt lat="47.1993" lon="5.97004">
        <ele>309.68</ele>
        <time>2015-07-12T11:27:04.000Z</time>
      </trkpt>
      <trkpt lat="47.1993" lon="5.96988">
        <ele>309.68</ele>
        <time>2015-07-12T11:27:06.000Z</time>
      </trkpt>
      <trkpt lat="47.19931" lon="5.96973">
        <ele>309.68</ele>
        <time>2015-07-12T11:27:08.000Z</time>
      </trkpt>
      <trkpt lat="47.19931" lon="5.96958">
        <ele>309.68</ele>
        <time>2015-07-12T11:27:10.000Z</time>
      </trkpt>
      <trkpt lat="47.19931" lon="5.96942">
        <ele>309.2</ele>
        <time>2015-07-12T11:27:12.000Z</time>
      </trkpt>
      <trkpt lat="47.19931" lon="5.96928">
        <ele>309.68</ele>
        <time>2015-07-12T11:27:14.000Z</time>
      </trkpt>
      <trkpt lat="47.19931" lon="5.96913">
        <ele>309.68</ele>
        <time>2015-07-12T11:27:16.000Z</time>
      </trkpt>
      <trkpt lat="47.19931" lon="5.96898">
        <ele>309.68</ele>
        <time>2015-07-12T11:27:18.000Z</time>
      </trkpt>
      <trkpt lat="47.1993" lon="5.96883">
        <ele>309.2</ele>
        <time>2015-07-12T11:27:20.000Z</time>
      </trkpt>
      <trkpt lat="47.19927" lon="5.96869">
        <ele>309.68</ele>
        <time>2015-07-12T11:27:22.000Z</time>
      </trkpt>
      <trkpt lat="47.19925" lon="5.96855">
        <ele>309.68</ele>
        <time>2015-07-12T11:27:24.000Z</time>
      </trkpt>
      <trkpt lat="47.19923" lon="5.96841">
        <ele>310.16</ele>
        <time>2015-07-12T11:27:26.000Z</time>
      </trkpt>
      <trkpt lat="47.19919" lon="5.96828">
        <ele>310.16</ele>
        <time>2015-07-12T11:27:28.000Z</time>
      </trkpt>
      <trkpt lat="47.19914" lon="5.96809">
        <ele>310.16</ele>
        <time>2015-07-12T11:27:31.000Z</time>
      </trkpt>
      <trkpt lat="47.1991" lon="5.96796">
        <ele>310.16</ele>
        <time>2015-07-12T11:27:33.000Z</time>
      </trkpt>
      <trkpt lat="47.19907" lon="5.96783">
        <ele>310.64</ele>
        <time>2015-07-12T11:27:35.000Z</time>
      </trkpt>
      <trkpt lat="47.19905" lon="5.9677">
        <ele>309.68</ele>
        <time>2015-07-12T11:27:37.000Z</time>
      </trkpt>
      <trkpt lat="47.19902" lon="5.9675">
        <ele>310.16</ele>
        <time>2015-07-12T11:27:40.000Z</time>
      </trkpt>
      <trkpt lat="47.199" lon="5.96732">
        <ele>310.16</ele>
        <time>2015-07-12T11:27:43.000Z</time>
      </trkpt>
      <trkpt lat="47.19899" lon="5.96712">
        <ele>310.16</ele>
        <time>2015-07-12T11:27:46.000Z</time>
      </trkpt>
      <trkpt lat="47.19898" lon="5.96698">
        <ele>310.16</ele>
        <time>2015-07-12T11:27:48.000Z</time>
      </trkpt>
      <trkpt lat="47.19899" lon="5.96684">
        <ele>310.16</ele>
        <time>2015-07-12T11:27:50.000Z</time>
      </trkpt>
      <trkpt lat="47.19899" lon="5.9667">
        <ele>310.16</ele>
        <time>2015-07-12T11:27:52.000Z</time>
      </trkpt>
      <trkpt lat="47.19899" lon="5.96656">
        <ele>310.64</ele>
        <time>2015-07-12T11:27:54.000Z</time>
      </trkpt>
      <trkpt lat="47.19901" lon="5.96636">
        <ele>310.64</ele>
        <time>2015-07-12T11:27:57.000Z</time>
      </trkpt>
      <trkpt lat="47.19905" lon="5.96618">
        <ele>311.12</ele>
        <time>2015-07-12T11:28:00.000Z</time>
      </trkpt>
      <trkpt lat="47.19907" lon="5.966">
        <ele>311.12</ele>
        <time>2015-07-12T11:28:03.000Z</time>
      </trkpt>
      <trkpt lat="47.19907" lon="5.9658">
        <ele>311.6</ele>
        <time>2015-07-12T11:28:06.000Z</time>
      </trkpt>
      <trkpt lat="47.19908" lon="5.96566">
        <ele>311.12</ele>
        <time>2015-07-12T11:28:08.000Z</time>
      </trkpt>
      <trkpt lat="47.19908" lon="5.96552">
        <ele>311.12</ele>
        <time>2015-07-12T11:28:10.000Z</time>
      </trkpt>
      <trkpt lat="47.19909" lon="5.96538">
        <ele>311.12</ele>
        <time>2015-07-12T11:28:12.000Z</time>
      </trkpt>
      <trkpt lat="47.19909" lon="5.96525">
        <ele>311.12</ele>
        <time>2015-07-12T11:28:14.000Z</time>
      </trkpt>
      <trkpt lat="47.19909" lon="5.96505">
        <ele>310.64</ele>
        <time>2015-07-12T11:28:17.000Z</time>
      </trkpt>
      <trkpt lat="47.19909" lon="5.96486">
        <ele>311.12</ele>
        <time>2015-07-12T11:28:20.000Z</time>
      </trkpt>
      <trkpt lat="47.19908" lon="5.96466">
        <ele>311.12</ele>
        <time>2015-07-12T11:28:23.000Z</time>
      </trkpt>
      <trkpt lat="47.19905" lon="5.96452">
        <ele>311.12</ele>
        <time>2015-07-12T11:28:25.000Z</time>
      </trkpt>
      <trkpt lat="47.19904" lon="5.96437">
        <ele>311.12</ele>
        <time>2015-07-12T11:28:27.000Z</time>
      </trkpt>
      <trkpt lat="47.19902" lon="5.96423">
        <ele>310.64</ele>
        <time>2015-07-12T11:28:29.000Z</time>
      </trkpt>
      <trkpt lat="47.19902" lon="5.96409">
        <ele>311.12</ele>
        <time>2015-07-12T11:28:31.000Z</time>
      </trkpt>
      <trkpt lat="47.19902" lon="5.96395">
        <ele>310.64</ele>
        <time>2015-07-12T11:28:33.000Z</time>
      </trkpt>
      <trkpt lat="47.19902" lon="5.96381">
        <ele>311.12</ele>
        <time>2015-07-12T11:28:35.000Z</time>
      </trkpt>
      <trkpt lat="47.19902" lon="5.96361">
        <ele>310.64</ele>
        <time>2015-07-12T11:28:38.000Z</time>
      </trkpt>
      <trkpt lat="47.19902" lon="5.96347">
        <ele>310.64</ele>
        <time>2015-07-12T11:28:40.000Z</time>
      </trkpt>
      <trkpt lat="47.19902" lon="5.96333">
        <ele>310.64</ele>
        <time>2015-07-12T11:28:42.000Z</time>
      </trkpt>
      <trkpt lat="47.19902" lon="5.96318">
        <ele>310.64</ele>
        <time>2015-07-12T11:28:44.000Z</time>
      </trkpt>
      <trkpt lat="47.19903" lon="5.96305">
        <ele>311.12</ele>
        <time>2015-07-12T11:28:46.000Z</time>
      </trkpt>
      <trkpt lat="47.19903" lon="5.9629">
        <ele>311.12</ele>
        <time>2015-07-12T11:28:48.000Z</time>
      </trkpt>
      <trkpt lat="47.19904" lon="5.96276">
        <ele>311.12</ele>
        <time>2015-07-12T11:28:50.000Z</time>
      </trkpt>
      <trkpt lat="47.19904" lon="5.96262">
        <ele>311.12</ele>
        <time>2015-07-12T11:28:52.000Z</time>
      </trkpt>
      <trkpt lat="47.19905" lon="5.96243">
        <ele>311.6</ele>
        <time>2015-07-12T11:28:55.000Z</time>
      </trkpt>
      <trkpt lat="47.19905" lon="5.96227">
        <ele>312.57</ele>
        <time>2015-07-12T11:29:00.000Z</time>
      </trkpt>
      <trkpt lat="47.19906" lon="5.96211">
        <ele>312.09</ele>
        <time>2015-07-12T11:29:04.000Z</time>
      </trkpt>
      <trkpt lat="47.19906" lon="5.96198">
        <ele>311.12</ele>
        <time>2015-07-12T11:29:06.000Z</time>
      </trkpt>
      <trkpt lat="47.19905" lon="5.96182">
        <ele>310.64</ele>
        <time>2015-07-12T11:29:08.000Z</time>
      </trkpt>
      <trkpt lat="47.19904" lon="5.96165">
        <ele>310.16</ele>
        <time>2015-07-12T11:29:10.000Z</time>
      </trkpt>
      <trkpt lat="47.19902" lon="5.96148">
        <ele>310.16</ele>
        <time>2015-07-12T11:29:12.000Z</time>
      </trkpt>
      <trkpt lat="47.19899" lon="5.96132">
        <ele>309.68</ele>
        <time>2015-07-12T11:29:14.000Z</time>
      </trkpt>
      <trkpt lat="47.19895" lon="5.96117">
        <ele>309.2</ele>
        <time>2015-07-12T11:29:16.000Z</time>
      </trkpt>
      <trkpt lat="47.19891" lon="5.96104">
        <ele>309.2</ele>
        <time>2015-07-12T11:29:18.000Z</time>
      </trkpt>
      <trkpt lat="47.19886" lon="5.96092">
        <ele>308.72</ele>
        <time>2015-07-12T11:29:20.000Z</time>
      </trkpt>
      <trkpt lat="47.19881" lon="5.96081">
        <ele>308.24</ele>
        <time>2015-07-12T11:29:22.000Z</time>
      </trkpt>
      <trkpt lat="47.19876" lon="5.9607">
        <ele>308.24</ele>
        <time>2015-07-12T11:29:24.000Z</time>
      </trkpt>
      <trkpt lat="47.19869" lon="5.96059">
        <ele>308.24</ele>
        <time>2015-07-12T11:29:26.000Z</time>
      </trkpt>
      <trkpt lat="47.19864" lon="5.96047">
        <ele>308.24</ele>
        <time>2015-07-12T11:29:28.000Z</time>
      </trkpt>
      <trkpt lat="47.19858" lon="5.96037">
        <ele>308.24</ele>
        <time>2015-07-12T11:29:30.000Z</time>
      </trkpt>
      <trkpt lat="47.19852" lon="5.96026">
        <ele>308.24</ele>
        <time>2015-07-12T11:29:32.000Z</time>
      </trkpt>
      <trkpt lat="47.19846" lon="5.96015">
        <ele>309.2</ele>
        <time>2015-07-12T11:29:34.000Z</time>
      </trkpt>
      <trkpt lat="47.1984" lon="5.96003">
        <ele>309.2</ele>
        <time>2015-07-12T11:29:36.000Z</time>
      </trkpt>
      <trkpt lat="47.19834" lon="5.95992">
        <ele>308.72</ele>
        <time>2015-07-12T11:29:38.000Z</time>
      </trkpt>
      <trkpt lat="47.19828" lon="5.95982">
        <ele>308.72</ele>
        <time>2015-07-12T11:29:40.000Z</time>
      </trkpt>
      <trkpt lat="47.19821" lon="5.95973">
        <ele>308.72</ele>
        <time>2015-07-12T11:29:42.000Z</time>
      </trkpt>
      <trkpt lat="47.19813" lon="5.95965">
        <ele>308.72</ele>
        <time>2015-07-12T11:29:44.000Z</time>
      </trkpt>
      <trkpt lat="47.19805" lon="5.95958">
        <ele>308.72</ele>
        <time>2015-07-12T11:29:46.000Z</time>
      </trkpt>
      <trkpt lat="47.19796" lon="5.95952">
        <ele>309.2</ele>
        <time>2015-07-12T11:29:48.000Z</time>
      </trkpt>
      <trkpt lat="47.19788" lon="5.95948">
        <ele>309.2</ele>
        <time>2015-07-12T11:29:50.000Z</time>
      </trkpt>
      <trkpt lat="47.19779" lon="5.95945">
        <ele>309.2</ele>
        <time>2015-07-12T11:29:52.000Z</time>
      </trkpt>
      <trkpt lat="47.1977" lon="5.95942">
        <ele>309.2</ele>
        <time>2015-07-12T11:29:54.000Z</time>
      </trkpt>
      <trkpt lat="47.19761" lon="5.95941">
        <ele>308.72</ele>
        <time>2015-07-12T11:29:56.000Z</time>
      </trkpt>
      <trkpt lat="47.19751" lon="5.95941">
        <ele>309.2</ele>
        <time>2015-07-12T11:29:58.000Z</time>
      </trkpt>
      <trkpt lat="47.19741" lon="5.9594">
        <ele>308.72</ele>
        <time>2015-07-12T11:30:00.000Z</time>
      </trkpt>
      <trkpt lat="47.19732" lon="5.95939">
        <ele>309.2</ele>
        <time>2015-07-12T11:30:02.000Z</time>
      </trkpt>
      <trkpt lat="47.19722" lon="5.95938">
        <ele>308.72</ele>
        <time>2015-07-12T11:30:04.000Z</time>
      </trkpt>
      <trkpt lat="47.19713" lon="5.95938">
        <ele>309.2</ele>
        <time>2015-07-12T11:30:06.000Z</time>
      </trkpt>
      <trkpt lat="47.19703" lon="5.95939">
        <ele>308.72</ele>
        <time>2015-07-12T11:30:08.000Z</time>
      </trkpt>
      <trkpt lat="47.19693" lon="5.95938">
        <ele>308.72</ele>
        <time>2015-07-12T11:30:10.000Z</time>
      </trkpt>
      <trkpt lat="47.19684" lon="5.95938">
        <ele>308.72</ele>
        <time>2015-07-12T11:30:12.000Z</time>
      </trkpt>
      <trkpt lat="47.19674" lon="5.95937">
        <ele>308.72</ele>
        <time>2015-07-12T11:30:14.000Z</time>
      </trkpt>
      <trkpt lat="47.19664" lon="5.95938">
        <ele>308.72</ele>
        <time>2015-07-12T11:30:16.000Z</time>
      </trkpt>
      <trkpt lat="47.19654" lon="5.95937">
        <ele>308.72</ele>
        <time>2015-07-12T11:30:18.000Z</time>
      </trkpt>
      <trkpt lat="47.19645" lon="5.95937">
        <ele>309.2</ele>
        <time>2015-07-12T11:30:20.000Z</time>
      </trkpt>
      <trkpt lat="47.19635" lon="5.95935">
        <ele>309.2</ele>
        <time>2015-07-12T11:30:22.000Z</time>
      </trkpt>
      <trkpt lat="47.19625" lon="5.95935">
        <ele>308.72</ele>
        <time>2015-07-12T11:30:24.000Z</time>
      </trkpt>
      <trkpt lat="47.19615" lon="5.95934">
        <ele>308.72</ele>
        <time>2015-07-12T11:30:26.000Z</time>
      </trkpt>
      <trkpt lat="47.19605" lon="5.95934">
        <ele>308.72</ele>
        <time>2015-07-12T11:30:28.000Z</time>
      </trkpt>
      <trkpt lat="47.19595" lon="5.95934">
        <ele>309.2</ele>
        <time>2015-07-12T11:30:30.000Z</time>
      </trkpt>
      <trkpt lat="47.19585" lon="5.95932">
        <ele>309.2</ele>
        <time>2015-07-12T11:30:32.000Z</time>
      </trkpt>
      <trkpt lat="47.19576" lon="5.95932">
        <ele>309.2</ele>
        <time>2015-07-12T11:30:34.000Z</time>
      </trkpt>
      <trkpt lat="47.19566" lon="5.95931">
        <ele>308.72</ele>
        <time>2015-07-12T11:30:36.000Z</time>
      </trkpt>
      <trkpt lat="47.19556" lon="5.95931">
        <ele>309.2</ele>
        <time>2015-07-12T11:30:38.000Z</time>
      </trkpt>
      <trkpt lat="47.19547" lon="5.95931">
        <ele>308.72</ele>
        <time>2015-07-12T11:30:40.000Z</time>
      </trkpt>
      <trkpt lat="47.19538" lon="5.9593">
        <ele>308.72</ele>
        <time>2015-07-12T11:30:42.000Z</time>
      </trkpt>
      <trkpt lat="47.19529" lon="5.95929">
        <ele>308.24</ele>
        <time>2015-07-12T11:30:44.000Z</time>
      </trkpt>
      <trkpt lat="47.19519" lon="5.95928">
        <ele>307.76</ele>
        <time>2015-07-12T11:30:46.000Z</time>
      </trkpt>
      <trkpt lat="47.1951" lon="5.95928">
        <ele>308.24</ele>
        <time>2015-07-12T11:30:48.000Z</time>
      </trkpt>
      <trkpt lat="47.195" lon="5.95928">
        <ele>308.72</ele>
        <time>2015-07-12T11:30:50.000Z</time>
      </trkpt>
      <trkpt lat="47.1949" lon="5.95927">
        <ele>308.72</ele>
        <time>2015-07-12T11:30:52.000Z</time>
      </trkpt>
      <trkpt lat="47.1948" lon="5.95928">
        <ele>308.72</ele>
        <time>2015-07-12T11:30:54.000Z</time>
      </trkpt>
      <trkpt lat="47.19471" lon="5.95929">
        <ele>308.72</ele>
        <time>2015-07-12T11:30:56.000Z</time>
      </trkpt>
      <trkpt lat="47.19461" lon="5.9593">
        <ele>309.2</ele>
        <time>2015-07-12T11:30:58.000Z</time>
      </trkpt>
      <trkpt lat="47.19451" lon="5.95933">
        <ele>309.2</ele>
        <time>2015-07-12T11:31:00.000Z</time>
      </trkpt>
      <trkpt lat="47.19441" lon="5.95937">
        <ele>309.2</ele>
        <time>2015-07-12T11:31:02.000Z</time>
      </trkpt>
      <trkpt lat="47.19432" lon="5.95941">
        <ele>308.72</ele>
        <time>2015-07-12T11:31:04.000Z</time>
      </trkpt>
      <trkpt lat="47.19423" lon="5.95946">
        <ele>309.2</ele>
        <time>2015-07-12T11:31:06.000Z</time>
      </trkpt>
      <trkpt lat="47.19414" lon="5.95951">
        <ele>309.2</ele>
        <time>2015-07-12T11:31:08.000Z</time>
      </trkpt>
      <trkpt lat="47.19405" lon="5.95957">
        <ele>308.72</ele>
        <time>2015-07-12T11:31:10.000Z</time>
      </trkpt>
      <trkpt lat="47.19397" lon="5.95963">
        <ele>308.72</ele>
        <time>2015-07-12T11:31:12.000Z</time>
      </trkpt>
      <trkpt lat="47.19389" lon="5.95969">
        <ele>309.2</ele>
        <time>2015-07-12T11:31:14.000Z</time>
      </trkpt>
      <trkpt lat="47.19381" lon="5.95977">
        <ele>309.2</ele>
        <time>2015-07-12T11:31:16.000Z</time>
      </trkpt>
      <trkpt lat="47.19373" lon="5.95985">
        <ele>309.2</ele>
        <time>2015-07-12T11:31:18.000Z</time>
      </trkpt>
      <trkpt lat="47.19366" lon="5.95994">
        <ele>309.68</ele>
        <time>2015-07-12T11:31:20.000Z</time>
      </trkpt>
      <trkpt lat="47.19358" lon="5.96002">
        <ele>309.2</ele>
        <time>2015-07-12T11:31:22.000Z</time>
      </trkpt>
      <trkpt lat="47.19352" lon="5.96012">
        <ele>309.68</ele>
        <time>2015-07-12T11:31:24.000Z</time>
      </trkpt>
      <trkpt lat="47.19345" lon="5.96024">
        <ele>309.68</ele>
        <time>2015-07-12T11:31:26.000Z</time>
      </trkpt>
      <trkpt lat="47.19338" lon="5.96036">
        <ele>309.2</ele>
        <time>2015-07-12T11:31:28.000Z</time>
      </trkpt>
      <trkpt lat="47.19331" lon="5.96047">
        <ele>309.2</ele>
        <time>2015-07-12T11:31:30.000Z</time>
      </trkpt>
      <trkpt lat="47.19325" lon="5.96058">
        <ele>309.68</ele>
        <time>2015-07-12T11:31:32.000Z</time>
      </trkpt>
      <trkpt lat="47.19318" lon="5.96069">
        <ele>309.68</ele>
        <time>2015-07-12T11:31:34.000Z</time>
      </trkpt>
      <trkpt lat="47.19311" lon="5.96079">
        <ele>309.2</ele>
        <time>2015-07-12T11:31:36.000Z</time>
      </trkpt>
      <trkpt lat="47.19305" lon="5.96091">
        <ele>309.68</ele>
        <time>2015-07-12T11:31:38.000Z</time>
      </trkpt>
      <trkpt lat="47.19298" lon="5.96102">
        <ele>309.68</ele>
        <time>2015-07-12T11:31:40.000Z</time>
      </trkpt>
      <trkpt lat="47.19291" lon="5.96112">
        <ele>309.68</ele>
        <time>2015-07-12T11:31:42.000Z</time>
      </trkpt>
      <trkpt lat="47.19284" lon="5.96123">
        <ele>309.68</ele>
        <time>2015-07-12T11:31:44.000Z</time>
      </trkpt>
      <trkpt lat="47.19277" lon="5.96134">
        <ele>309.68</ele>
        <time>2015-07-12T11:31:46.000Z</time>
      </trkpt>
      <trkpt lat="47.1927" lon="5.96145">
        <ele>309.68</ele>
        <time>2015-07-12T11:31:48.000Z</time>
      </trkpt>
      <trkpt lat="47.19263" lon="5.96156">
        <ele>309.68</ele>
        <time>2015-07-12T11:31:50.000Z</time>
      </trkpt>
      <trkpt lat="47.19257" lon="5.96168">
        <ele>309.68</ele>
        <time>2015-07-12T11:31:52.000Z</time>
      </trkpt>
      <trkpt lat="47.1925" lon="5.96178">
        <ele>309.68</ele>
        <time>2015-07-12T11:31:54.000Z</time>
      </trkpt>
      <trkpt lat="47.19244" lon="5.96189">
        <ele>309.68</ele>
        <time>2015-07-12T11:31:56.000Z</time>
      </trkpt>
      <trkpt lat="47.19237" lon="5.962">
        <ele>309.68</ele>
        <time>2015-07-12T11:31:58.000Z</time>
      </trkpt>
      <trkpt lat="47.1923" lon="5.96211">
        <ele>309.2</ele>
        <time>2015-07-12T11:32:00.000Z</time>
      </trkpt>
      <trkpt lat="47.19223" lon="5.96221">
        <ele>309.68</ele>
        <time>2015-07-12T11:32:02.000Z</time>
      </trkpt>
      <trkpt lat="47.19216" lon="5.96232">
        <ele>309.68</ele>
        <time>2015-07-12T11:32:04.000Z</time>
      </trkpt>
      <trkpt lat="47.1921" lon="5.96242">
        <ele>309.68</ele>
        <time>2015-07-12T11:32:06.000Z</time>
      </trkpt>
      <trkpt lat="47.19204" lon="5.96253">
        <ele>309.68</ele>
        <time>2015-07-12T11:32:08.000Z</time>
      </trkpt>
      <trkpt lat="47.19197" lon="5.96263">
        <ele>309.68</ele>
        <time>2015-07-12T11:32:10.000Z</time>
      </trkpt>
      <trkpt lat="47.19191" lon="5.96273">
        <ele>309.68</ele>
        <time>2015-07-12T11:32:12.000Z</time>
      </trkpt>
      <trkpt lat="47.19185" lon="5.96284">
        <ele>309.68</ele>
        <time>2015-07-12T11:32:14.000Z</time>
      </trkpt>
      <trkpt lat="47.19178" lon="5.96294">
        <ele>310.16</ele>
        <time>2015-07-12T11:32:16.000Z</time>
      </trkpt>
      <trkpt lat="47.19172" lon="5.96304">
        <ele>310.16</ele>
        <time>2015-07-12T11:32:18.000Z</time>
      </trkpt>
      <trkpt lat="47.19165" lon="5.96314">
        <ele>309.68</ele>
        <time>2015-07-12T11:32:20.000Z</time>
      </trkpt>
      <trkpt lat="47.1916" lon="5.96324">
        <ele>310.16</ele>
        <time>2015-07-12T11:32:22.000Z</time>
      </trkpt>
      <trkpt lat="47.19153" lon="5.96333">
        <ele>309.68</ele>
        <time>2015-07-12T11:32:24.000Z</time>
      </trkpt>
      <trkpt lat="47.19146" lon="5.96343">
        <ele>309.68</ele>
        <time>2015-07-12T11:32:26.000Z</time>
      </trkpt>
      <trkpt lat="47.19138" lon="5.96352">
        <ele>309.68</ele>
        <time>2015-07-12T11:32:28.000Z</time>
      </trkpt>
      <trkpt lat="47.19128" lon="5.96363">
        <ele>309.68</ele>
        <time>2015-07-12T11:32:31.000Z</time>
      </trkpt>
      <trkpt lat="47.1912" lon="5.96372">
        <ele>309.68</ele>
        <time>2015-07-12T11:32:33.000Z</time>
      </trkpt>
      <trkpt lat="47.19112" lon="5.96381">
        <ele>309.68</ele>
        <time>2015-07-12T11:32:35.000Z</time>
      </trkpt>
      <trkpt lat="47.19102" lon="5.96389">
        <ele>309.68</ele>
        <time>2015-07-12T11:32:37.000Z</time>
      </trkpt>
      <trkpt lat="47.19094" lon="5.96396">
        <ele>309.68</ele>
        <time>2015-07-12T11:32:39.000Z</time>
      </trkpt>
      <trkpt lat="47.19085" lon="5.96403">
        <ele>309.68</ele>
        <time>2015-07-12T11:32:41.000Z</time>
      </trkpt>
      <trkpt lat="47.19075" lon="5.9641">
        <ele>309.68</ele>
        <time>2015-07-12T11:32:43.000Z</time>
      </trkpt>
      <trkpt lat="47.19065" lon="5.96416">
        <ele>309.68</ele>
        <time>2015-07-12T11:32:45.000Z</time>
      </trkpt>
      <trkpt lat="47.19055" lon="5.96421">
        <ele>309.68</ele>
        <time>2015-07-12T11:32:47.000Z</time>
      </trkpt>
      <trkpt lat="47.19045" lon="5.96426">
        <ele>309.68</ele>
        <time>2015-07-12T11:32:49.000Z</time>
      </trkpt>
      <trkpt lat="47.19035" lon="5.96431">
        <ele>309.68</ele>
        <time>2015-07-12T11:32:51.000Z</time>
      </trkpt>
      <trkpt lat="47.19025" lon="5.96434">
        <ele>309.68</ele>
        <time>2015-07-12T11:32:53.000Z</time>
      </trkpt>
      <trkpt lat="47.19016" lon="5.96436">
        <ele>309.68</ele>
        <time>2015-07-12T11:32:55.000Z</time>
      </trkpt>
      <trkpt lat="47.19006" lon="5.96438">
        <ele>309.68</ele>
        <time>2015-07-12T11:32:57.000Z</time>
      </trkpt>
      <trkpt lat="47.18996" lon="5.96439">
        <ele>309.68</ele>
        <time>2015-07-12T11:32:59.000Z</time>
      </trkpt>
      <trkpt lat="47.18986" lon="5.9644">
        <ele>309.68</ele>
        <time>2015-07-12T11:33:01.000Z</time>
      </trkpt>
      <trkpt lat="47.18976" lon="5.96441">
        <ele>309.68</ele>
        <time>2015-07-12T11:33:03.000Z</time>
      </trkpt>
      <trkpt lat="47.18966" lon="5.96441">
        <ele>310.16</ele>
        <time>2015-07-12T11:33:05.000Z</time>
      </trkpt>
      <trkpt lat="47.18953" lon="5.96441">
        <ele>309.68</ele>
        <time>2015-07-12T11:33:08.000Z</time>
      </trkpt>
      <trkpt lat="47.18944" lon="5.9644">
        <ele>310.16</ele>
        <time>2015-07-12T11:33:10.000Z</time>
      </trkpt>
      <trkpt lat="47.18935" lon="5.96438">
        <ele>310.16</ele>
        <time>2015-07-12T11:33:12.000Z</time>
      </trkpt>
      <trkpt lat="47.18925" lon="5.96438">
        <ele>309.68</ele>
        <time>2015-07-12T11:33:14.000Z</time>
      </trkpt>
      <trkpt lat="47.18916" lon="5.96437">
        <ele>310.16</ele>
        <time>2015-07-12T11:33:16.000Z</time>
      </trkpt>
      <trkpt lat="47.18906" lon="5.96436">
        <ele>310.16</ele>
        <time>2015-07-12T11:33:18.000Z</time>
      </trkpt>
      <trkpt lat="47.18897" lon="5.96433">
        <ele>310.16</ele>
        <time>2015-07-12T11:33:20.000Z</time>
      </trkpt>
      <trkpt lat="47.18888" lon="5.9643">
        <ele>310.16</ele>
        <time>2015-07-12T11:33:22.000Z</time>
      </trkpt>
      <trkpt lat="47.18879" lon="5.96428">
        <ele>310.16</ele>
        <time>2015-07-12T11:33:24.000Z</time>
      </trkpt>
      <trkpt lat="47.1887" lon="5.96426">
        <ele>310.16</ele>
        <time>2015-07-12T11:33:26.000Z</time>
      </trkpt>
      <trkpt lat="47.18861" lon="5.96424">
        <ele>309.68</ele>
        <time>2015-07-12T11:33:28.000Z</time>
      </trkpt>
      <trkpt lat="47.18852" lon="5.9642">
        <ele>310.16</ele>
        <time>2015-07-12T11:33:30.000Z</time>
      </trkpt>
      <trkpt lat="47.18843" lon="5.96416">
        <ele>309.68</ele>
        <time>2015-07-12T11:33:32.000Z</time>
      </trkpt>
      <trkpt lat="47.18834" lon="5.96412">
        <ele>309.68</ele>
        <time>2015-07-12T11:33:34.000Z</time>
      </trkpt>
      <trkpt lat="47.18825" lon="5.96408">
        <ele>309.68</ele>
        <time>2015-07-12T11:33:36.000Z</time>
      </trkpt>
      <trkpt lat="47.18815" lon="5.96403">
        <ele>309.2</ele>
        <time>2015-07-12T11:33:38.000Z</time>
      </trkpt>
      <trkpt lat="47.18805" lon="5.96399">
        <ele>309.2</ele>
        <time>2015-07-12T11:33:40.000Z</time>
      </trkpt>
      <trkpt lat="47.18796" lon="5.96394">
        <ele>309.68</ele>
        <time>2015-07-12T11:33:42.000Z</time>
      </trkpt>
      <trkpt lat="47.18787" lon="5.96389">
        <ele>309.68</ele>
        <time>2015-07-12T11:33:44.000Z</time>
      </trkpt>
      <trkpt lat="47.18779" lon="5.96384">
        <ele>309.68</ele>
        <time>2015-07-12T11:33:46.000Z</time>
      </trkpt>
      <trkpt lat="47.1877" lon="5.96379">
        <ele>309.68</ele>
        <time>2015-07-12T11:33:48.000Z</time>
      </trkpt>
      <trkpt lat="47.18761" lon="5.96373">
        <ele>309.68</ele>
        <time>2015-07-12T11:33:50.000Z</time>
      </trkpt>
      <trkpt lat="47.18752" lon="5.96366">
        <ele>309.2</ele>
        <time>2015-07-12T11:33:52.000Z</time>
      </trkpt>
      <trkpt lat="47.18744" lon="5.96359">
        <ele>309.68</ele>
        <time>2015-07-12T11:33:54.000Z</time>
      </trkpt>
      <trkpt lat="47.18733" lon="5.96349">
        <ele>309.2</ele>
        <time>2015-07-12T11:33:57.000Z</time>
      </trkpt>
      <trkpt lat="47.18721" lon="5.96341">
        <ele>309.2</ele>
        <time>2015-07-12T11:34:00.000Z</time>
      </trkpt>
      <trkpt lat="47.18713" lon="5.96334">
        <ele>309.68</ele>
        <time>2015-07-12T11:34:02.000Z</time>
      </trkpt>
      <trkpt lat="47.18704" lon="5.96328">
        <ele>309.68</ele>
        <time>2015-07-12T11:34:04.000Z</time>
      </trkpt>
      <trkpt lat="47.18693" lon="5.96318">
        <ele>309.68</ele>
        <time>2015-07-12T11:34:07.000Z</time>
      </trkpt>
      <trkpt lat="47.18685" lon="5.96311">
        <ele>309.2</ele>
        <time>2015-07-12T11:34:09.000Z</time>
      </trkpt>
      <trkpt lat="47.18677" lon="5.96304">
        <ele>309.68</ele>
        <time>2015-07-12T11:34:11.000Z</time>
      </trkpt>
      <trkpt lat="47.18669" lon="5.96296">
        <ele>309.2</ele>
        <time>2015-07-12T11:34:13.000Z</time>
      </trkpt>
      <trkpt lat="47.1866" lon="5.96288">
        <ele>309.68</ele>
        <time>2015-07-12T11:34:15.000Z</time>
      </trkpt>
      <trkpt lat="47.18653" lon="5.96279">
        <ele>309.2</ele>
        <time>2015-07-12T11:34:17.000Z</time>
      </trkpt>
      <trkpt lat="47.18645" lon="5.9627">
        <ele>309.68</ele>
        <time>2015-07-12T11:34:19.000Z</time>
      </trkpt>
      <trkpt lat="47.18639" lon="5.9626">
        <ele>309.68</ele>
        <time>2015-07-12T11:34:21.000Z</time>
      </trkpt>
      <trkpt lat="47.18632" lon="5.9625">
        <ele>309.2</ele>
        <time>2015-07-12T11:34:23.000Z</time>
      </trkpt>
      <trkpt lat="47.18626" lon="5.96239">
        <ele>309.2</ele>
        <time>2015-07-12T11:34:25.000Z</time>
      </trkpt>
      <trkpt lat="47.1862" lon="5.96229">
        <ele>309.2</ele>
        <time>2015-07-12T11:34:27.000Z</time>
      </trkpt>
      <trkpt lat="47.18613" lon="5.96219">
        <ele>309.2</ele>
        <time>2015-07-12T11:34:29.000Z</time>
      </trkpt>
      <trkpt lat="47.18605" lon="5.96203">
        <ele>309.2</ele>
        <time>2015-07-12T11:34:32.000Z</time>
      </trkpt>
      <trkpt lat="47.18599" lon="5.96193">
        <ele>309.68</ele>
        <time>2015-07-12T11:34:34.000Z</time>
      </trkpt>
      <trkpt lat="47.18592" lon="5.96182">
        <ele>309.68</ele>
        <time>2015-07-12T11:34:36.000Z</time>
      </trkpt>
      <trkpt lat="47.18586" lon="5.96172">
        <ele>309.68</ele>
        <time>2015-07-12T11:34:38.000Z</time>
      </trkpt>
      <trkpt lat="47.18579" lon="5.96162">
        <ele>309.2</ele>
        <time>2015-07-12T11:34:40.000Z</time>
      </trkpt>
      <trkpt lat="47.18573" lon="5.96151">
        <ele>309.2</ele>
        <time>2015-07-12T11:34:42.000Z</time>
      </trkpt>
      <trkpt lat="47.18568" lon="5.9614">
        <ele>309.68</ele>
        <time>2015-07-12T11:34:44.000Z</time>
      </trkpt>
      <trkpt lat="47.18561" lon="5.9613">
        <ele>309.68</ele>
        <time>2015-07-12T11:34:46.000Z</time>
      </trkpt>
      <trkpt lat="47.18555" lon="5.96119">
        <ele>309.2</ele>
        <time>2015-07-12T11:34:48.000Z</time>
      </trkpt>
      <trkpt lat="47.18548" lon="5.96108">
        <ele>309.2</ele>
        <time>2015-07-12T11:34:50.000Z</time>
      </trkpt>
      <trkpt lat="47.18541" lon="5.96097">
        <ele>309.2</ele>
        <time>2015-07-12T11:34:52.000Z</time>
      </trkpt>
      <trkpt lat="47.18535" lon="5.96086">
        <ele>309.2</ele>
        <time>2015-07-12T11:34:54.000Z</time>
      </trkpt>
      <trkpt lat="47.18528" lon="5.96075">
        <ele>309.2</ele>
        <time>2015-07-12T11:34:56.000Z</time>
      </trkpt>
      <trkpt lat="47.18522" lon="5.96063">
        <ele>309.68</ele>
        <time>2015-07-12T11:34:58.000Z</time>
      </trkpt>
      <trkpt lat="47.18516" lon="5.96052">
        <ele>309.2</ele>
        <time>2015-07-12T11:35:00.000Z</time>
      </trkpt>
      <trkpt lat="47.18509" lon="5.9604">
        <ele>309.2</ele>
        <time>2015-07-12T11:35:02.000Z</time>
      </trkpt>
      <trkpt lat="47.18502" lon="5.96029">
        <ele>309.2</ele>
        <time>2015-07-12T11:35:04.000Z</time>
      </trkpt>
      <trkpt lat="47.18496" lon="5.96018">
        <ele>309.68</ele>
        <time>2015-07-12T11:35:06.000Z</time>
      </trkpt>
      <trkpt lat="47.18489" lon="5.96006">
        <ele>309.2</ele>
        <time>2015-07-12T11:35:08.000Z</time>
      </trkpt>
      <trkpt lat="47.18483" lon="5.95995">
        <ele>309.2</ele>
        <time>2015-07-12T11:35:10.000Z</time>
      </trkpt>
      <trkpt lat="47.18476" lon="5.95984">
        <ele>309.2</ele>
        <time>2015-07-12T11:35:12.000Z</time>
      </trkpt>
      <trkpt lat="47.18469" lon="5.95972">
        <ele>309.2</ele>
        <time>2015-07-12T11:35:14.000Z</time>
      </trkpt>
      <trkpt lat="47.18463" lon="5.95961">
        <ele>309.2</ele>
        <time>2015-07-12T11:35:16.000Z</time>
      </trkpt>
      <trkpt lat="47.18456" lon="5.9595">
        <ele>309.2</ele>
        <time>2015-07-12T11:35:18.000Z</time>
      </trkpt>
      <trkpt lat="47.1845" lon="5.95939">
        <ele>309.2</ele>
        <time>2015-07-12T11:35:20.000Z</time>
      </trkpt>
      <trkpt lat="47.18443" lon="5.95927">
        <ele>309.2</ele>
        <time>2015-07-12T11:35:22.000Z</time>
      </trkpt>
      <trkpt lat="47.18436" lon="5.95916">
        <ele>309.2</ele>
        <time>2015-07-12T11:35:24.000Z</time>
      </trkpt>
      <trkpt lat="47.1843" lon="5.95905">
        <ele>309.68</ele>
        <time>2015-07-12T11:35:26.000Z</time>
      </trkpt>
      <trkpt lat="47.18423" lon="5.95894">
        <ele>309.2</ele>
        <time>2015-07-12T11:35:28.000Z</time>
      </trkpt>
      <trkpt lat="47.18417" lon="5.95883">
        <ele>309.2</ele>
        <time>2015-07-12T11:35:30.000Z</time>
      </trkpt>
      <trkpt lat="47.18411" lon="5.95872">
        <ele>309.2</ele>
        <time>2015-07-12T11:35:32.000Z</time>
      </trkpt>
      <trkpt lat="47.18405" lon="5.95862">
        <ele>309.2</ele>
        <time>2015-07-12T11:35:34.000Z</time>
      </trkpt>
      <trkpt lat="47.18398" lon="5.95851">
        <ele>309.2</ele>
        <time>2015-07-12T11:35:36.000Z</time>
      </trkpt>
      <trkpt lat="47.18393" lon="5.9584">
        <ele>309.2</ele>
        <time>2015-07-12T11:35:38.000Z</time>
      </trkpt>
      <trkpt lat="47.18386" lon="5.95829">
        <ele>309.68</ele>
        <time>2015-07-12T11:35:40.000Z</time>
      </trkpt>
      <trkpt lat="47.18381" lon="5.95819">
        <ele>309.2</ele>
        <time>2015-07-12T11:35:42.000Z</time>
      </trkpt>
      <trkpt lat="47.18374" lon="5.95807">
        <ele>309.2</ele>
        <time>2015-07-12T11:35:44.000Z</time>
      </trkpt>
      <trkpt lat="47.18367" lon="5.95795">
        <ele>309.2</ele>
        <time>2015-07-12T11:35:46.000Z</time>
      </trkpt>
      <trkpt lat="47.18359" lon="5.95783">
        <ele>309.2</ele>
        <time>2015-07-12T11:35:48.000Z</time>
      </trkpt>
      <trkpt lat="47.18353" lon="5.95772">
        <ele>309.68</ele>
        <time>2015-07-12T11:35:50.000Z</time>
      </trkpt>
      <trkpt lat="47.18346" lon="5.95759">
        <ele>309.68</ele>
        <time>2015-07-12T11:35:52.000Z</time>
      </trkpt>
      <trkpt lat="47.18339" lon="5.95748">
        <ele>308.72</ele>
        <time>2015-07-12T11:35:54.000Z</time>
      </trkpt>
      <trkpt lat="47.18333" lon="5.95736">
        <ele>308.72</ele>
        <time>2015-07-12T11:35:56.000Z</time>
      </trkpt>
      <trkpt lat="47.18326" lon="5.95724">
        <ele>308.72</ele>
        <time>2015-07-12T11:35:58.000Z</time>
      </trkpt>
      <trkpt lat="47.18319" lon="5.95714">
        <ele>308.72</ele>
        <time>2015-07-12T11:36:00.000Z</time>
      </trkpt>
      <trkpt lat="47.18313" lon="5.95703">
        <ele>309.2</ele>
        <time>2015-07-12T11:36:02.000Z</time>
      </trkpt>
      <trkpt lat="47.18307" lon="5.95691">
        <ele>309.2</ele>
        <time>2015-07-12T11:36:04.000Z</time>
      </trkpt>
      <trkpt lat="47.183" lon="5.95679">
        <ele>309.2</ele>
        <time>2015-07-12T11:36:06.000Z</time>
      </trkpt>
      <trkpt lat="47.18293" lon="5.95668">
        <ele>309.68</ele>
        <time>2015-07-12T11:36:08.000Z</time>
      </trkpt>
      <trkpt lat="47.18287" lon="5.95656">
        <ele>309.68</ele>
        <time>2015-07-12T11:36:10.000Z</time>
      </trkpt>
      <trkpt lat="47.1828" lon="5.95643">
        <ele>309.68</ele>
        <time>2015-07-12T11:36:12.000Z</time>
      </trkpt>
      <trkpt lat="47.18275" lon="5.9563">
        <ele>309.68</ele>
        <time>2015-07-12T11:36:14.000Z</time>
      </trkpt>
      <trkpt lat="47.18269" lon="5.95617">
        <ele>310.16</ele>
        <time>2015-07-12T11:36:16.000Z</time>
      </trkpt>
      <trkpt lat="47.18264" lon="5.95604">
        <ele>309.68</ele>
        <time>2015-07-12T11:36:18.000Z</time>
      </trkpt>
      <trkpt lat="47.1826" lon="5.9559">
        <ele>310.16</ele>
        <time>2015-07-12T11:36:20.000Z</time>
      </trkpt>
      <trkpt lat="47.18256" lon="5.95577">
        <ele>310.16</ele>
        <time>2015-07-12T11:36:22.000Z</time>
      </trkpt>
      <trkpt lat="47.18251" lon="5.95563">
        <ele>310.16</ele>
        <time>2015-07-12T11:36:24.000Z</time>
      </trkpt>
      <trkpt lat="47.18248" lon="5.95549">
        <ele>310.16</ele>
        <time>2015-07-12T11:36:26.000Z</time>
      </trkpt>
      <trkpt lat="47.18244" lon="5.95534">
        <ele>310.16</ele>
        <time>2015-07-12T11:36:28.000Z</time>
      </trkpt>
      <trkpt lat="47.1824" lon="5.95519">
        <ele>310.16</ele>
        <time>2015-07-12T11:36:30.000Z</time>
      </trkpt>
      <trkpt lat="47.18236" lon="5.95505">
        <ele>310.16</ele>
        <time>2015-07-12T11:36:32.000Z</time>
      </trkpt>
      <trkpt lat="47.18232" lon="5.95491">
        <ele>310.16</ele>
        <time>2015-07-12T11:36:34.000Z</time>
      </trkpt>
      <trkpt lat="47.18229" lon="5.95477">
        <ele>310.16</ele>
        <time>2015-07-12T11:36:36.000Z</time>
      </trkpt>
      <trkpt lat="47.18226" lon="5.95463">
        <ele>310.16</ele>
        <time>2015-07-12T11:36:38.000Z</time>
      </trkpt>
      <trkpt lat="47.18222" lon="5.95448">
        <ele>310.16</ele>
        <time>2015-07-12T11:36:40.000Z</time>
      </trkpt>
      <trkpt lat="47.18219" lon="5.95434">
        <ele>310.16</ele>
        <time>2015-07-12T11:36:42.000Z</time>
      </trkpt>
      <trkpt lat="47.18215" lon="5.95421">
        <ele>310.16</ele>
        <time>2015-07-12T11:36:44.000Z</time>
      </trkpt>
      <trkpt lat="47.18211" lon="5.95407">
        <ele>310.16</ele>
        <time>2015-07-12T11:36:46.000Z</time>
      </trkpt>
      <trkpt lat="47.18208" lon="5.95393">
        <ele>310.16</ele>
        <time>2015-07-12T11:36:48.000Z</time>
      </trkpt>
      <trkpt lat="47.18204" lon="5.95377">
        <ele>310.16</ele>
        <time>2015-07-12T11:36:50.000Z</time>
      </trkpt>
      <trkpt lat="47.18201" lon="5.95362">
        <ele>310.16</ele>
        <time>2015-07-12T11:36:52.000Z</time>
      </trkpt>
      <trkpt lat="47.18197" lon="5.95347">
        <ele>310.64</ele>
        <time>2015-07-12T11:36:54.000Z</time>
      </trkpt>
      <trkpt lat="47.18193" lon="5.95333">
        <ele>310.16</ele>
        <time>2015-07-12T11:36:56.000Z</time>
      </trkpt>
      <trkpt lat="47.18189" lon="5.95319">
        <ele>310.16</ele>
        <time>2015-07-12T11:36:58.000Z</time>
      </trkpt>
      <trkpt lat="47.18186" lon="5.95305">
        <ele>310.64</ele>
        <time>2015-07-12T11:37:00.000Z</time>
      </trkpt>
      <trkpt lat="47.18183" lon="5.95291">
        <ele>310.16</ele>
        <time>2015-07-12T11:37:02.000Z</time>
      </trkpt>
      <trkpt lat="47.18179" lon="5.95276">
        <ele>310.16</ele>
        <time>2015-07-12T11:37:04.000Z</time>
      </trkpt>
      <trkpt lat="47.18176" lon="5.95262">
        <ele>310.16</ele>
        <time>2015-07-12T11:37:06.000Z</time>
      </trkpt>
      <trkpt lat="47.18173" lon="5.95249">
        <ele>310.16</ele>
        <time>2015-07-12T11:37:08.000Z</time>
      </trkpt>
      <trkpt lat="47.18169" lon="5.95234">
        <ele>310.16</ele>
        <time>2015-07-12T11:37:10.000Z</time>
      </trkpt>
      <trkpt lat="47.18166" lon="5.9522">
        <ele>310.64</ele>
        <time>2015-07-12T11:37:12.000Z</time>
      </trkpt>
      <trkpt lat="47.18162" lon="5.95206">
        <ele>310.16</ele>
        <time>2015-07-12T11:37:14.000Z</time>
      </trkpt>
      <trkpt lat="47.18159" lon="5.95191">
        <ele>310.64</ele>
        <time>2015-07-12T11:37:16.000Z</time>
      </trkpt>
      <trkpt lat="47.18156" lon="5.95177">
        <ele>310.16</ele>
        <time>2015-07-12T11:37:18.000Z</time>
      </trkpt>
      <trkpt lat="47.18151" lon="5.95163">
        <ele>309.68</ele>
        <time>2015-07-12T11:37:20.000Z</time>
      </trkpt>
      <trkpt lat="47.18148" lon="5.95149">
        <ele>309.68</ele>
        <time>2015-07-12T11:37:22.000Z</time>
      </trkpt>
      <trkpt lat="47.18145" lon="5.95135">
        <ele>310.16</ele>
        <time>2015-07-12T11:37:24.000Z</time>
      </trkpt>
      <trkpt lat="47.18142" lon="5.95121">
        <ele>309.68</ele>
        <time>2015-07-12T11:37:26.000Z</time>
      </trkpt>
      <trkpt lat="47.18139" lon="5.95107">
        <ele>310.16</ele>
        <time>2015-07-12T11:37:28.000Z</time>
      </trkpt>
      <trkpt lat="47.18136" lon="5.95094">
        <ele>310.16</ele>
        <time>2015-07-12T11:37:30.000Z</time>
      </trkpt>
      <trkpt lat="47.18131" lon="5.95076">
        <ele>310.16</ele>
        <time>2015-07-12T11:37:33.000Z</time>
      </trkpt>
      <trkpt lat="47.18127" lon="5.95059">
        <ele>310.16</ele>
        <time>2015-07-12T11:37:36.000Z</time>
      </trkpt>
      <trkpt lat="47.18123" lon="5.95042">
        <ele>310.16</ele>
        <time>2015-07-12T11:37:39.000Z</time>
      </trkpt>
      <trkpt lat="47.18118" lon="5.95024">
        <ele>310.16</ele>
        <time>2015-07-12T11:37:42.000Z</time>
      </trkpt>
      <trkpt lat="47.18115" lon="5.95011">
        <ele>310.64</ele>
        <time>2015-07-12T11:37:44.000Z</time>
      </trkpt>
      <trkpt lat="47.18112" lon="5.94997">
        <ele>310.16</ele>
        <time>2015-07-12T11:37:46.000Z</time>
      </trkpt>
      <trkpt lat="47.18109" lon="5.94984">
        <ele>310.16</ele>
        <time>2015-07-12T11:37:48.000Z</time>
      </trkpt>
      <trkpt lat="47.18106" lon="5.94971">
        <ele>310.64</ele>
        <time>2015-07-12T11:37:50.000Z</time>
      </trkpt>
      <trkpt lat="47.18103" lon="5.94957">
        <ele>310.64</ele>
        <time>2015-07-12T11:37:52.000Z</time>
      </trkpt>
      <trkpt lat="47.18099" lon="5.94944">
        <ele>310.64</ele>
        <time>2015-07-12T11:37:54.000Z</time>
      </trkpt>
      <trkpt lat="47.18096" lon="5.9493">
        <ele>310.64</ele>
        <time>2015-07-12T11:37:56.000Z</time>
      </trkpt>
      <trkpt lat="47.18092" lon="5.94916">
        <ele>310.64</ele>
        <time>2015-07-12T11:37:58.000Z</time>
      </trkpt>
      <trkpt lat="47.18089" lon="5.94903">
        <ele>311.12</ele>
        <time>2015-07-12T11:38:00.000Z</time>
      </trkpt>
      <trkpt lat="47.18086" lon="5.94889">
        <ele>311.12</ele>
        <time>2015-07-12T11:38:02.000Z</time>
      </trkpt>
      <trkpt lat="47.18082" lon="5.94874">
        <ele>311.12</ele>
        <time>2015-07-12T11:38:04.000Z</time>
      </trkpt>
      <trkpt lat="47.18079" lon="5.9486">
        <ele>310.64</ele>
        <time>2015-07-12T11:38:06.000Z</time>
      </trkpt>
      <trkpt lat="47.18076" lon="5.94845">
        <ele>310.64</ele>
        <time>2015-07-12T11:38:08.000Z</time>
      </trkpt>
      <trkpt lat="47.18072" lon="5.94831">
        <ele>311.12</ele>
        <time>2015-07-12T11:38:10.000Z</time>
      </trkpt>
      <trkpt lat="47.18069" lon="5.94816">
        <ele>311.12</ele>
        <time>2015-07-12T11:38:12.000Z</time>
      </trkpt>
      <trkpt lat="47.18066" lon="5.94802">
        <ele>310.64</ele>
        <time>2015-07-12T11:38:14.000Z</time>
      </trkpt>
      <trkpt lat="47.18062" lon="5.94787">
        <ele>310.16</ele>
        <time>2015-07-12T11:38:16.000Z</time>
      </trkpt>
      <trkpt lat="47.18057" lon="5.94771">
        <ele>309.68</ele>
        <time>2015-07-12T11:38:18.000Z</time>
      </trkpt>
      <trkpt lat="47.18053" lon="5.94754">
        <ele>309.2</ele>
        <time>2015-07-12T11:38:20.000Z</time>
      </trkpt>
      <trkpt lat="47.18047" lon="5.94736">
        <ele>309.2</ele>
        <time>2015-07-12T11:38:22.000Z</time>
      </trkpt>
      <trkpt lat="47.18042" lon="5.94719">
        <ele>308.72</ele>
        <time>2015-07-12T11:38:24.000Z</time>
      </trkpt>
      <trkpt lat="47.18037" lon="5.94702">
        <ele>308.72</ele>
        <time>2015-07-12T11:38:26.000Z</time>
      </trkpt>
      <trkpt lat="47.18031" lon="5.94686">
        <ele>307.28</ele>
        <time>2015-07-12T11:38:28.000Z</time>
      </trkpt>
      <trkpt lat="47.18024" lon="5.94673">
        <ele>307.28</ele>
        <time>2015-07-12T11:38:30.000Z</time>
      </trkpt>
      <trkpt lat="47.18016" lon="5.94661">
        <ele>307.76</ele>
        <time>2015-07-12T11:38:32.000Z</time>
      </trkpt>
      <trkpt lat="47.18009" lon="5.94651">
        <ele>307.28</ele>
        <time>2015-07-12T11:38:34.000Z</time>
      </trkpt>
      <trkpt lat="47.18001" lon="5.9464">
        <ele>307.76</ele>
        <time>2015-07-12T11:38:36.000Z</time>
      </trkpt>
      <trkpt lat="47.17993" lon="5.9463">
        <ele>307.76</ele>
        <time>2015-07-12T11:38:38.000Z</time>
      </trkpt>
      <trkpt lat="47.17985" lon="5.94621">
        <ele>307.76</ele>
        <time>2015-07-12T11:38:40.000Z</time>
      </trkpt>
      <trkpt lat="47.17978" lon="5.94612">
        <ele>308.72</ele>
        <time>2015-07-12T11:38:42.000Z</time>
      </trkpt>
      <trkpt lat="47.1797" lon="5.94603">
        <ele>308.72</ele>
        <time>2015-07-12T11:38:44.000Z</time>
      </trkpt>
      <trkpt lat="47.17963" lon="5.94594">
        <ele>308.72</ele>
        <time>2015-07-12T11:38:46.000Z</time>
      </trkpt>
      <trkpt lat="47.17955" lon="5.94585">
        <ele>309.2</ele>
        <time>2015-07-12T11:38:48.000Z</time>
      </trkpt>
      <trkpt lat="47.17948" lon="5.94575">
        <ele>309.2</ele>
        <time>2015-07-12T11:38:50.000Z</time>
      </trkpt>
      <trkpt lat="47.17941" lon="5.94566">
        <ele>309.2</ele>
        <time>2015-07-12T11:38:52.000Z</time>
      </trkpt>
      <trkpt lat="47.17934" lon="5.94556">
        <ele>309.68</ele>
        <time>2015-07-12T11:38:54.000Z</time>
      </trkpt>
      <trkpt lat="47.17927" lon="5.94546">
        <ele>309.2</ele>
        <time>2015-07-12T11:38:56.000Z</time>
      </trkpt>
      <trkpt lat="47.1792" lon="5.94536">
        <ele>309.2</ele>
        <time>2015-07-12T11:38:58.000Z</time>
      </trkpt>
      <trkpt lat="47.17913" lon="5.94525">
        <ele>309.2</ele>
        <time>2015-07-12T11:39:00.000Z</time>
      </trkpt>
      <trkpt lat="47.17906" lon="5.94516">
        <ele>308.72</ele>
        <time>2015-07-12T11:39:02.000Z</time>
      </trkpt>
      <trkpt lat="47.179" lon="5.94505">
        <ele>309.2</ele>
        <time>2015-07-12T11:39:04.000Z</time>
      </trkpt>
      <trkpt lat="47.17893" lon="5.94495">
        <ele>309.68</ele>
        <time>2015-07-12T11:39:06.000Z</time>
      </trkpt>
      <trkpt lat="47.17886" lon="5.94484">
        <ele>309.2</ele>
        <time>2015-07-12T11:39:08.000Z</time>
      </trkpt>
      <trkpt lat="47.17878" lon="5.94473">
        <ele>308.72</ele>
        <time>2015-07-12T11:39:10.000Z</time>
      </trkpt>
      <trkpt lat="47.1787" lon="5.94463">
        <ele>308.72</ele>
        <time>2015-07-12T11:39:12.000Z</time>
      </trkpt>
      <trkpt lat="47.1786" lon="5.94453">
        <ele>308.72</ele>
        <time>2015-07-12T11:39:14.000Z</time>
      </trkpt>
      <trkpt lat="47.17852" lon="5.94445">
        <ele>308.72</ele>
        <time>2015-07-12T11:39:16.000Z</time>
      </trkpt>
      <trkpt lat="47.17843" lon="5.94438">
        <ele>308.24</ele>
        <time>2015-07-12T11:39:18.000Z</time>
      </trkpt>
      <trkpt lat="47.17834" lon="5.9443">
        <ele>308.72</ele>
        <time>2015-07-12T11:39:20.000Z</time>
      </trkpt>
      <trkpt lat="47.17825" lon="5.94423">
        <ele>308.24</ele>
        <time>2015-07-12T11:39:22.000Z</time>
      </trkpt>
      <trkpt lat="47.17816" lon="5.94414">
        <ele>308.24</ele>
        <time>2015-07-12T11:39:24.000Z</time>
      </trkpt>
      <trkpt lat="47.17807" lon="5.94406">
        <ele>308.72</ele>
        <time>2015-07-12T11:39:26.000Z</time>
      </trkpt>
      <trkpt lat="47.17798" lon="5.94398">
        <ele>308.24</ele>
        <time>2015-07-12T11:39:28.000Z</time>
      </trkpt>
      <trkpt lat="47.17789" lon="5.9439">
        <ele>308.24</ele>
        <time>2015-07-12T11:39:30.000Z</time>
      </trkpt>
      <trkpt lat="47.17781" lon="5.94381">
        <ele>307.76</ele>
        <time>2015-07-12T11:39:32.000Z</time>
      </trkpt>
      <trkpt lat="47.17772" lon="5.94373">
        <ele>307.28</ele>
        <time>2015-07-12T11:39:34.000Z</time>
      </trkpt>
      <trkpt lat="47.17762" lon="5.94366">
        <ele>307.76</ele>
        <time>2015-07-12T11:39:36.000Z</time>
      </trkpt>
      <trkpt lat="47.17753" lon="5.94359">
        <ele>307.28</ele>
        <time>2015-07-12T11:39:38.000Z</time>
      </trkpt>
      <trkpt lat="47.17744" lon="5.94353">
        <ele>307.76</ele>
        <time>2015-07-12T11:39:40.000Z</time>
      </trkpt>
      <trkpt lat="47.17733" lon="5.94348">
        <ele>307.28</ele>
        <time>2015-07-12T11:39:42.000Z</time>
      </trkpt>
      <trkpt lat="47.17723" lon="5.94342">
        <ele>307.76</ele>
        <time>2015-07-12T11:39:44.000Z</time>
      </trkpt>
      <trkpt lat="47.17714" lon="5.94336">
        <ele>307.76</ele>
        <time>2015-07-12T11:39:46.000Z</time>
      </trkpt>
      <trkpt lat="47.17704" lon="5.94329">
        <ele>308.24</ele>
        <time>2015-07-12T11:39:48.000Z</time>
      </trkpt>
      <trkpt lat="47.17695" lon="5.94322">
        <ele>308.24</ele>
        <time>2015-07-12T11:39:50.000Z</time>
      </trkpt>
      <trkpt lat="47.17685" lon="5.94315">
        <ele>308.24</ele>
        <time>2015-07-12T11:39:52.000Z</time>
      </trkpt>
      <trkpt lat="47.17676" lon="5.94309">
        <ele>307.76</ele>
        <time>2015-07-12T11:39:54.000Z</time>
      </trkpt>
      <trkpt lat="47.17667" lon="5.94302">
        <ele>308.24</ele>
        <time>2015-07-12T11:39:56.000Z</time>
      </trkpt>
      <trkpt lat="47.17657" lon="5.94295">
        <ele>307.76</ele>
        <time>2015-07-12T11:39:58.000Z</time>
      </trkpt>
      <trkpt lat="47.17648" lon="5.94289">
        <ele>307.76</ele>
        <time>2015-07-12T11:40:00.000Z</time>
      </trkpt>
      <trkpt lat="47.17638" lon="5.94282">
        <ele>307.76</ele>
        <time>2015-07-12T11:40:02.000Z</time>
      </trkpt>
      <trkpt lat="47.17628" lon="5.94274">
        <ele>307.76</ele>
        <time>2015-07-12T11:40:04.000Z</time>
      </trkpt>
      <trkpt lat="47.17618" lon="5.94268">
        <ele>307.28</ele>
        <time>2015-07-12T11:40:06.000Z</time>
      </trkpt>
      <trkpt lat="47.17607" lon="5.9426">
        <ele>307.76</ele>
        <time>2015-07-12T11:40:08.000Z</time>
      </trkpt>
      <trkpt lat="47.17597" lon="5.94252">
        <ele>307.76</ele>
        <time>2015-07-12T11:40:10.000Z</time>
      </trkpt>
      <trkpt lat="47.17588" lon="5.94244">
        <ele>307.76</ele>
        <time>2015-07-12T11:40:12.000Z</time>
      </trkpt>
      <trkpt lat="47.17579" lon="5.94235">
        <ele>307.28</ele>
        <time>2015-07-12T11:40:14.000Z</time>
      </trkpt>
      <trkpt lat="47.1757" lon="5.94227">
        <ele>307.76</ele>
        <time>2015-07-12T11:40:16.000Z</time>
      </trkpt>
      <trkpt lat="47.17561" lon="5.9422">
        <ele>307.76</ele>
        <time>2015-07-12T11:40:18.000Z</time>
      </trkpt>
      <trkpt lat="47.1755" lon="5.9421">
        <ele>307.28</ele>
        <time>2015-07-12T11:40:21.000Z</time>
      </trkpt>
      <trkpt lat="47.1754" lon="5.94198">
        <ele>307.28</ele>
        <time>2015-07-12T11:40:24.000Z</time>
      </trkpt>
      <trkpt lat="47.17532" lon="5.94187">
        <ele>307.28</ele>
        <time>2015-07-12T11:40:27.000Z</time>
      </trkpt>
      <trkpt lat="47.17524" lon="5.94177">
        <ele>307.28</ele>
        <time>2015-07-12T11:40:30.000Z</time>
      </trkpt>
      <trkpt lat="47.17516" lon="5.94168">
        <ele>307.28</ele>
        <time>2015-07-12T11:40:34.000Z</time>
      </trkpt>
      <trkpt lat="47.17512" lon="5.94156">
        <ele>306.8</ele>
        <time>2015-07-12T11:43:06.000Z</time>
      </trkpt>
      <trkpt lat="47.17506" lon="5.94143">
        <ele>306.8</ele>
        <time>2015-07-12T11:43:10.000Z</time>
      </trkpt>
      <trkpt lat="47.17499" lon="5.94132">
        <ele>306.8</ele>
        <time>2015-07-12T11:43:13.000Z</time>
      </trkpt>
      <trkpt lat="47.17492" lon="5.94118">
        <ele>306.32</ele>
        <time>2015-07-12T11:43:16.000Z</time>
      </trkpt>
      <trkpt lat="47.17487" lon="5.94103">
        <ele>306.8</ele>
        <time>2015-07-12T11:43:19.000Z</time>
      </trkpt>
      <trkpt lat="47.1748" lon="5.94088">
        <ele>306.32</ele>
        <time>2015-07-12T11:43:22.000Z</time>
      </trkpt>
      <trkpt lat="47.17474" lon="5.94073">
        <ele>306.8</ele>
        <time>2015-07-12T11:43:25.000Z</time>
      </trkpt>
      <trkpt lat="47.17468" lon="5.94058">
        <ele>306.32</ele>
        <time>2015-07-12T11:43:28.000Z</time>
      </trkpt>
      <trkpt lat="47.17463" lon="5.94043">
        <ele>306.32</ele>
        <time>2015-07-12T11:43:31.000Z</time>
      </trkpt>
      <trkpt lat="47.17457" lon="5.94029">
        <ele>306.8</ele>
        <time>2015-07-12T11:43:34.000Z</time>
      </trkpt>
      <trkpt lat="47.17452" lon="5.94017">
        <ele>306.32</ele>
        <time>2015-07-12T11:43:37.000Z</time>
      </trkpt>
      <trkpt lat="47.17448" lon="5.94001">
        <ele>306.32</ele>
        <time>2015-07-12T11:43:41.000Z</time>
      </trkpt>
      <trkpt lat="47.17444" lon="5.93988">
        <ele>306.32</ele>
        <time>2015-07-12T11:43:44.000Z</time>
      </trkpt>
      <trkpt lat="47.1744" lon="5.93976">
        <ele>306.32</ele>
        <time>2015-07-12T11:43:47.000Z</time>
      </trkpt>
      <trkpt lat="47.17437" lon="5.93963">
        <ele>306.8</ele>
        <time>2015-07-12T11:43:50.000Z</time>
      </trkpt>
      <trkpt lat="47.17433" lon="5.93949">
        <ele>306.32</ele>
        <time>2015-07-12T11:43:53.000Z</time>
      </trkpt>
      <trkpt lat="47.17429" lon="5.93934">
        <ele>306.32</ele>
        <time>2015-07-12T11:43:56.000Z</time>
      </trkpt>
      <trkpt lat="47.17424" lon="5.9392">
        <ele>305.36</ele>
        <time>2015-07-12T11:43:59.000Z</time>
      </trkpt>
      <trkpt lat="47.17421" lon="5.93907">
        <ele>305.36</ele>
        <time>2015-07-12T11:44:02.000Z</time>
      </trkpt>
      <trkpt lat="47.17418" lon="5.93894">
        <ele>305.36</ele>
        <time>2015-07-12T11:44:05.000Z</time>
      </trkpt>
      <trkpt lat="47.17415" lon="5.93881">
        <ele>305.36</ele>
        <time>2015-07-12T11:44:08.000Z</time>
      </trkpt>
      <trkpt lat="47.17411" lon="5.93868">
        <ele>305.36</ele>
        <time>2015-07-12T11:44:11.000Z</time>
      </trkpt>
      <trkpt lat="47.17407" lon="5.93852">
        <ele>305.84</ele>
        <time>2015-07-12T11:44:15.000Z</time>
      </trkpt>
      <trkpt lat="47.17405" lon="5.93836">
        <ele>305.36</ele>
        <time>2015-07-12T11:44:19.000Z</time>
      </trkpt>
      <trkpt lat="47.174" lon="5.93821">
        <ele>305.84</ele>
        <time>2015-07-12T11:44:23.000Z</time>
      </trkpt>
      <trkpt lat="47.17398" lon="5.93808">
        <ele>305.36</ele>
        <time>2015-07-12T11:44:27.000Z</time>
      </trkpt>
      <trkpt lat="47.17395" lon="5.93793">
        <ele>305.36</ele>
        <time>2015-07-12T11:44:32.000Z</time>
      </trkpt>
      <trkpt lat="47.17392" lon="5.93778">
        <ele>304.88</ele>
        <time>2015-07-12T11:44:38.000Z</time>
      </trkpt>
      <trkpt lat="47.17389" lon="5.93762">
        <ele>305.84</ele>
        <time>2015-07-12T11:46:05.000Z</time>
      </trkpt>
      <trkpt lat="47.17386" lon="5.93748">
        <ele>305.84</ele>
        <time>2015-07-12T11:46:09.000Z</time>
      </trkpt>
      <trkpt lat="47.17383" lon="5.93731">
        <ele>305.84</ele>
        <time>2015-07-12T11:46:13.000Z</time>
      </trkpt>
      <trkpt lat="47.1738" lon="5.93717">
        <ele>305.36</ele>
        <time>2015-07-12T11:46:16.000Z</time>
      </trkpt>
      <trkpt lat="47.17376" lon="5.93701">
        <ele>305.84</ele>
        <time>2015-07-12T11:46:20.000Z</time>
      </trkpt>
      <trkpt lat="47.17373" lon="5.93687">
        <ele>305.36</ele>
        <time>2015-07-12T11:46:23.000Z</time>
      </trkpt>
      <trkpt lat="47.17369" lon="5.93673">
        <ele>305.84</ele>
        <time>2015-07-12T11:46:26.000Z</time>
      </trkpt>
      <trkpt lat="47.17363" lon="5.93659">
        <ele>305.84</ele>
        <time>2015-07-12T11:46:29.000Z</time>
      </trkpt>
      <trkpt lat="47.17357" lon="5.93644">
        <ele>305.36</ele>
        <time>2015-07-12T11:46:32.000Z</time>
      </trkpt>
      <trkpt lat="47.17351" lon="5.93629">
        <ele>305.84</ele>
        <time>2015-07-12T11:46:35.000Z</time>
      </trkpt>
      <trkpt lat="47.17345" lon="5.93614">
        <ele>305.36</ele>
        <time>2015-07-12T11:46:38.000Z</time>
      </trkpt>
      <trkpt lat="47.17339" lon="5.936">
        <ele>305.36</ele>
        <time>2015-07-12T11:46:41.000Z</time>
      </trkpt>
      <trkpt lat="47.17333" lon="5.93584">
        <ele>304.88</ele>
        <time>2015-07-12T11:46:44.000Z</time>
      </trkpt>
      <trkpt lat="47.17327" lon="5.93569">
        <ele>304.88</ele>
        <time>2015-07-12T11:46:47.000Z</time>
      </trkpt>
      <trkpt lat="47.17321" lon="5.93553">
        <ele>304.88</ele>
        <time>2015-07-12T11:46:50.000Z</time>
      </trkpt>
      <trkpt lat="47.17315" lon="5.93536">
        <ele>304.88</ele>
        <time>2015-07-12T11:46:53.000Z</time>
      </trkpt>
      <trkpt lat="47.17308" lon="5.9352">
        <ele>304.88</ele>
        <time>2015-07-12T11:46:56.000Z</time>
      </trkpt>
      <trkpt lat="47.17302" lon="5.93503">
        <ele>304.88</ele>
        <time>2015-07-12T11:46:59.000Z</time>
      </trkpt>
      <trkpt lat="47.17297" lon="5.93486">
        <ele>305.36</ele>
        <time>2015-07-12T11:47:02.000Z</time>
      </trkpt>
      <trkpt lat="47.1729" lon="5.93471">
        <ele>304.88</ele>
        <time>2015-07-12T11:47:05.000Z</time>
      </trkpt>
      <trkpt lat="47.17285" lon="5.93455">
        <ele>305.36</ele>
        <time>2015-07-12T11:47:08.000Z</time>
      </trkpt>
      <trkpt lat="47.17278" lon="5.9344">
        <ele>305.36</ele>
        <time>2015-07-12T11:47:11.000Z</time>
      </trkpt>
      <trkpt lat="47.17272" lon="5.93424">
        <ele>305.84</ele>
        <time>2015-07-12T11:47:14.000Z</time>
      </trkpt>
      <trkpt lat="47.17265" lon="5.93407">
        <ele>305.84</ele>
        <time>2015-07-12T11:47:17.000Z</time>
      </trkpt>
      <trkpt lat="47.1726" lon="5.93394">
        <ele>305.36</ele>
        <time>2015-07-12T11:47:19.000Z</time>
      </trkpt>
      <trkpt lat="47.17255" lon="5.93382">
        <ele>305.36</ele>
        <time>2015-07-12T11:47:21.000Z</time>
      </trkpt>
      <trkpt lat="47.17251" lon="5.93369">
        <ele>305.36</ele>
        <time>2015-07-12T11:47:23.000Z</time>
      </trkpt>
      <trkpt lat="47.17246" lon="5.93356">
        <ele>305.36</ele>
        <time>2015-07-12T11:47:25.000Z</time>
      </trkpt>
      <trkpt lat="47.17242" lon="5.93344">
        <ele>305.36</ele>
        <time>2015-07-12T11:47:27.000Z</time>
      </trkpt>
      <trkpt lat="47.17238" lon="5.93331">
        <ele>305.36</ele>
        <time>2015-07-12T11:47:29.000Z</time>
      </trkpt>
      <trkpt lat="47.17234" lon="5.93318">
        <ele>305.84</ele>
        <time>2015-07-12T11:47:31.000Z</time>
      </trkpt>
      <trkpt lat="47.1723" lon="5.93305">
        <ele>305.84</ele>
        <time>2015-07-12T11:47:33.000Z</time>
      </trkpt>
      <trkpt lat="47.17226" lon="5.93292">
        <ele>305.84</ele>
        <time>2015-07-12T11:47:35.000Z</time>
      </trkpt>
      <trkpt lat="47.17223" lon="5.93279">
        <ele>306.32</ele>
        <time>2015-07-12T11:47:37.000Z</time>
      </trkpt>
      <trkpt lat="47.17219" lon="5.93265">
        <ele>305.84</ele>
        <time>2015-07-12T11:47:39.000Z</time>
      </trkpt>
      <trkpt lat="47.17216" lon="5.93252">
        <ele>305.84</ele>
        <time>2015-07-12T11:47:41.000Z</time>
      </trkpt>
      <trkpt lat="47.17212" lon="5.93239">
        <ele>306.32</ele>
        <time>2015-07-12T11:47:43.000Z</time>
      </trkpt>
      <trkpt lat="47.17208" lon="5.93226">
        <ele>305.84</ele>
        <time>2015-07-12T11:47:45.000Z</time>
      </trkpt>
      <trkpt lat="47.17205" lon="5.93213">
        <ele>306.32</ele>
        <time>2015-07-12T11:47:47.000Z</time>
      </trkpt>
      <trkpt lat="47.17201" lon="5.93199">
        <ele>305.84</ele>
        <time>2015-07-12T11:47:49.000Z</time>
      </trkpt>
      <trkpt lat="47.17197" lon="5.93186">
        <ele>306.32</ele>
        <time>2015-07-12T11:47:51.000Z</time>
      </trkpt>
      <trkpt lat="47.17193" lon="5.93173">
        <ele>306.8</ele>
        <time>2015-07-12T11:47:53.000Z</time>
      </trkpt>
      <trkpt lat="47.17189" lon="5.9316">
        <ele>305.84</ele>
        <time>2015-07-12T11:47:55.000Z</time>
      </trkpt>
      <trkpt lat="47.17186" lon="5.93147">
        <ele>306.32</ele>
        <time>2015-07-12T11:47:57.000Z</time>
      </trkpt>
      <trkpt lat="47.17182" lon="5.93134">
        <ele>306.32</ele>
        <time>2015-07-12T11:47:59.000Z</time>
      </trkpt>
      <trkpt lat="47.17178" lon="5.93121">
        <ele>306.8</ele>
        <time>2015-07-12T11:48:01.000Z</time>
      </trkpt>
      <trkpt lat="47.17175" lon="5.93107">
        <ele>306.32</ele>
        <time>2015-07-12T11:48:03.000Z</time>
      </trkpt>
      <trkpt lat="47.17171" lon="5.93093">
        <ele>306.8</ele>
        <time>2015-07-12T11:48:05.000Z</time>
      </trkpt>
      <trkpt lat="47.17168" lon="5.93079">
        <ele>306.8</ele>
        <time>2015-07-12T11:48:07.000Z</time>
      </trkpt>
      <trkpt lat="47.17165" lon="5.93065">
        <ele>306.8</ele>
        <time>2015-07-12T11:48:09.000Z</time>
      </trkpt>
      <trkpt lat="47.17162" lon="5.93051">
        <ele>306.32</ele>
        <time>2015-07-12T11:48:11.000Z</time>
      </trkpt>
      <trkpt lat="47.17159" lon="5.93037">
        <ele>306.8</ele>
        <time>2015-07-12T11:48:13.000Z</time>
      </trkpt>
      <trkpt lat="47.17155" lon="5.93023">
        <ele>306.8</ele>
        <time>2015-07-12T11:48:15.000Z</time>
      </trkpt>
      <trkpt lat="47.17153" lon="5.93008">
        <ele>306.8</ele>
        <time>2015-07-12T11:48:17.000Z</time>
      </trkpt>
      <trkpt lat="47.17149" lon="5.92993">
        <ele>306.32</ele>
        <time>2015-07-12T11:48:19.000Z</time>
      </trkpt>
      <trkpt lat="47.17147" lon="5.92978">
        <ele>306.32</ele>
        <time>2015-07-12T11:48:21.000Z</time>
      </trkpt>
      <trkpt lat="47.17144" lon="5.92963">
        <ele>305.84</ele>
        <time>2015-07-12T11:48:23.000Z</time>
      </trkpt>
      <trkpt lat="47.17142" lon="5.92948">
        <ele>305.84</ele>
        <time>2015-07-12T11:48:25.000Z</time>
      </trkpt>
      <trkpt lat="47.17139" lon="5.92934">
        <ele>305.84</ele>
        <time>2015-07-12T11:48:27.000Z</time>
      </trkpt>
      <trkpt lat="47.17136" lon="5.92919">
        <ele>305.84</ele>
        <time>2015-07-12T11:48:29.000Z</time>
      </trkpt>
      <trkpt lat="47.17134" lon="5.92905">
        <ele>305.84</ele>
        <time>2015-07-12T11:48:31.000Z</time>
      </trkpt>
      <trkpt lat="47.17131" lon="5.9289">
        <ele>305.84</ele>
        <time>2015-07-12T11:48:33.000Z</time>
      </trkpt>
      <trkpt lat="47.17129" lon="5.92874">
        <ele>306.32</ele>
        <time>2015-07-12T11:48:35.000Z</time>
      </trkpt>
      <trkpt lat="47.17126" lon="5.92858">
        <ele>306.32</ele>
        <time>2015-07-12T11:48:37.000Z</time>
      </trkpt>
      <trkpt lat="47.17124" lon="5.92842">
        <ele>305.84</ele>
        <time>2015-07-12T11:48:39.000Z</time>
      </trkpt>
      <trkpt lat="47.17122" lon="5.92826">
        <ele>306.32</ele>
        <time>2015-07-12T11:48:41.000Z</time>
      </trkpt>
      <trkpt lat="47.1712" lon="5.9281">
        <ele>305.84</ele>
        <time>2015-07-12T11:48:43.000Z</time>
      </trkpt>
      <trkpt lat="47.17118" lon="5.92795">
        <ele>305.84</ele>
        <time>2015-07-12T11:48:45.000Z</time>
      </trkpt>
      <trkpt lat="47.17116" lon="5.92778">
        <ele>306.32</ele>
        <time>2015-07-12T11:48:47.000Z</time>
      </trkpt>
      <trkpt lat="47.17113" lon="5.92763">
        <ele>305.84</ele>
        <time>2015-07-12T11:48:49.000Z</time>
      </trkpt>
      <trkpt lat="47.17111" lon="5.92748">
        <ele>306.32</ele>
        <time>2015-07-12T11:48:51.000Z</time>
      </trkpt>
      <trkpt lat="47.17109" lon="5.92732">
        <ele>306.32</ele>
        <time>2015-07-12T11:48:53.000Z</time>
      </trkpt>
      <trkpt lat="47.17108" lon="5.92716">
        <ele>306.32</ele>
        <time>2015-07-12T11:48:55.000Z</time>
      </trkpt>
      <trkpt lat="47.17106" lon="5.927">
        <ele>306.32</ele>
        <time>2015-07-12T11:48:57.000Z</time>
      </trkpt>
      <trkpt lat="47.17104" lon="5.92683">
        <ele>306.32</ele>
        <time>2015-07-12T11:48:59.000Z</time>
      </trkpt>
      <trkpt lat="47.17103" lon="5.92666">
        <ele>306.32</ele>
        <time>2015-07-12T11:49:01.000Z</time>
      </trkpt>
      <trkpt lat="47.17101" lon="5.92649">
        <ele>306.32</ele>
        <time>2015-07-12T11:49:03.000Z</time>
      </trkpt>
      <trkpt lat="47.17099" lon="5.92632">
        <ele>305.84</ele>
        <time>2015-07-12T11:49:05.000Z</time>
      </trkpt>
      <trkpt lat="47.17098" lon="5.92614">
        <ele>305.84</ele>
        <time>2015-07-12T11:49:07.000Z</time>
      </trkpt>
      <trkpt lat="47.17096" lon="5.92595">
        <ele>305.84</ele>
        <time>2015-07-12T11:49:09.000Z</time>
      </trkpt>
      <trkpt lat="47.17094" lon="5.92577">
        <ele>304.88</ele>
        <time>2015-07-12T11:49:11.000Z</time>
      </trkpt>
      <trkpt lat="47.17092" lon="5.92559">
        <ele>305.36</ele>
        <time>2015-07-12T11:49:13.000Z</time>
      </trkpt>
      <trkpt lat="47.17091" lon="5.92542">
        <ele>305.36</ele>
        <time>2015-07-12T11:49:15.000Z</time>
      </trkpt>
      <trkpt lat="47.17089" lon="5.92525">
        <ele>305.36</ele>
        <time>2015-07-12T11:49:17.000Z</time>
      </trkpt>
      <trkpt lat="47.17088" lon="5.92508">
        <ele>305.84</ele>
        <time>2015-07-12T11:49:19.000Z</time>
      </trkpt>
      <trkpt lat="47.17088" lon="5.92491">
        <ele>305.84</ele>
        <time>2015-07-12T11:49:21.000Z</time>
      </trkpt>
      <trkpt lat="47.17086" lon="5.92474">
        <ele>305.84</ele>
        <time>2015-07-12T11:49:23.000Z</time>
      </trkpt>
      <trkpt lat="47.17085" lon="5.92459">
        <ele>305.84</ele>
        <time>2015-07-12T11:49:25.000Z</time>
      </trkpt>
      <trkpt lat="47.17084" lon="5.92443">
        <ele>305.84</ele>
        <time>2015-07-12T11:49:27.000Z</time>
      </trkpt>
      <trkpt lat="47.17083" lon="5.92426">
        <ele>305.84</ele>
        <time>2015-07-12T11:49:29.000Z</time>
      </trkpt>
      <trkpt lat="47.17082" lon="5.9241">
        <ele>305.84</ele>
        <time>2015-07-12T11:49:31.000Z</time>
      </trkpt>
      <trkpt lat="47.1708" lon="5.92393">
        <ele>306.32</ele>
        <time>2015-07-12T11:49:33.000Z</time>
      </trkpt>
      <trkpt lat="47.17079" lon="5.92376">
        <ele>305.84</ele>
        <time>2015-07-12T11:49:35.000Z</time>
      </trkpt>
      <trkpt lat="47.17078" lon="5.9236">
        <ele>306.32</ele>
        <time>2015-07-12T11:49:37.000Z</time>
      </trkpt>
      <trkpt lat="47.17076" lon="5.92344">
        <ele>306.32</ele>
        <time>2015-07-12T11:49:39.000Z</time>
      </trkpt>
      <trkpt lat="47.17075" lon="5.92327">
        <ele>306.32</ele>
        <time>2015-07-12T11:49:41.000Z</time>
      </trkpt>
      <trkpt lat="47.17073" lon="5.92311">
        <ele>306.32</ele>
        <time>2015-07-12T11:49:43.000Z</time>
      </trkpt>
      <trkpt lat="47.17072" lon="5.92294">
        <ele>306.32</ele>
        <time>2015-07-12T11:49:45.000Z</time>
      </trkpt>
      <trkpt lat="47.17071" lon="5.92277">
        <ele>306.8</ele>
        <time>2015-07-12T11:49:47.000Z</time>
      </trkpt>
      <trkpt lat="47.17071" lon="5.9226">
        <ele>306.32</ele>
        <time>2015-07-12T11:49:49.000Z</time>
      </trkpt>
      <trkpt lat="47.1707" lon="5.92243">
        <ele>306.32</ele>
        <time>2015-07-12T11:49:51.000Z</time>
      </trkpt>
      <trkpt lat="47.1707" lon="5.92226">
        <ele>305.84</ele>
        <time>2015-07-12T11:49:53.000Z</time>
      </trkpt>
      <trkpt lat="47.1707" lon="5.92208">
        <ele>306.32</ele>
        <time>2015-07-12T11:49:55.000Z</time>
      </trkpt>
      <trkpt lat="47.1707" lon="5.92191">
        <ele>306.32</ele>
        <time>2015-07-12T11:49:57.000Z</time>
      </trkpt>
      <trkpt lat="47.17069" lon="5.92173">
        <ele>306.32</ele>
        <time>2015-07-12T11:49:59.000Z</time>
      </trkpt>
      <trkpt lat="47.17068" lon="5.92156">
        <ele>306.32</ele>
        <time>2015-07-12T11:50:01.000Z</time>
      </trkpt>
      <trkpt lat="47.17067" lon="5.92139">
        <ele>306.8</ele>
        <time>2015-07-12T11:50:03.000Z</time>
      </trkpt>
      <trkpt lat="47.17065" lon="5.92121">
        <ele>306.32</ele>
        <time>2015-07-12T11:50:05.000Z</time>
      </trkpt>
      <trkpt lat="47.17064" lon="5.92104">
        <ele>306.32</ele>
        <time>2015-07-12T11:50:07.000Z</time>
      </trkpt>
      <trkpt lat="47.17064" lon="5.92087">
        <ele>306.32</ele>
        <time>2015-07-12T11:50:09.000Z</time>
      </trkpt>
      <trkpt lat="47.17063" lon="5.9207">
        <ele>306.32</ele>
        <time>2015-07-12T11:50:11.000Z</time>
      </trkpt>
      <trkpt lat="47.17062" lon="5.92053">
        <ele>306.8</ele>
        <time>2015-07-12T11:50:13.000Z</time>
      </trkpt>
      <trkpt lat="47.17061" lon="5.92035">
        <ele>306.32</ele>
        <time>2015-07-12T11:50:15.000Z</time>
      </trkpt>
      <trkpt lat="47.1706" lon="5.92018">
        <ele>306.32</ele>
        <time>2015-07-12T11:50:17.000Z</time>
      </trkpt>
      <trkpt lat="47.1706" lon="5.92">
        <ele>306.32</ele>
        <time>2015-07-12T11:50:19.000Z</time>
      </trkpt>
      <trkpt lat="47.1706" lon="5.91983">
        <ele>306.32</ele>
        <time>2015-07-12T11:50:21.000Z</time>
      </trkpt>
      <trkpt lat="47.17061" lon="5.91966">
        <ele>305.84</ele>
        <time>2015-07-12T11:50:23.000Z</time>
      </trkpt>
      <trkpt lat="47.17061" lon="5.91949">
        <ele>306.32</ele>
        <time>2015-07-12T11:50:25.000Z</time>
      </trkpt>
      <trkpt lat="47.17061" lon="5.91932">
        <ele>306.32</ele>
        <time>2015-07-12T11:50:27.000Z</time>
      </trkpt>
      <trkpt lat="47.17062" lon="5.91916">
        <ele>306.32</ele>
        <time>2015-07-12T11:50:29.000Z</time>
      </trkpt>
      <trkpt lat="47.17062" lon="5.919">
        <ele>306.8</ele>
        <time>2015-07-12T11:50:31.000Z</time>
      </trkpt>
      <trkpt lat="47.17063" lon="5.91884">
        <ele>306.8</ele>
        <time>2015-07-12T11:50:33.000Z</time>
      </trkpt>
      <trkpt lat="47.17062" lon="5.91867">
        <ele>306.32</ele>
        <time>2015-07-12T11:50:35.000Z</time>
      </trkpt>
      <trkpt lat="47.17062" lon="5.91851">
        <ele>306.32</ele>
        <time>2015-07-12T11:50:37.000Z</time>
      </trkpt>
      <trkpt lat="47.17062" lon="5.91834">
        <ele>306.32</ele>
        <time>2015-07-12T11:50:39.000Z</time>
      </trkpt>
      <trkpt lat="47.17062" lon="5.91817">
        <ele>306.32</ele>
        <time>2015-07-12T11:50:41.000Z</time>
      </trkpt>
      <trkpt lat="47.17062" lon="5.918">
        <ele>306.32</ele>
        <time>2015-07-12T11:50:43.000Z</time>
      </trkpt>
      <trkpt lat="47.17062" lon="5.91783">
        <ele>306.32</ele>
        <time>2015-07-12T11:50:45.000Z</time>
      </trkpt>
      <trkpt lat="47.1706" lon="5.91767">
        <ele>305.84</ele>
        <time>2015-07-12T11:50:47.000Z</time>
      </trkpt>
      <trkpt lat="47.17058" lon="5.91751">
        <ele>305.84</ele>
        <time>2015-07-12T11:50:49.000Z</time>
      </trkpt>
      <trkpt lat="47.17054" lon="5.91735">
        <ele>305.84</ele>
        <time>2015-07-12T11:50:51.000Z</time>
      </trkpt>
      <trkpt lat="47.1705" lon="5.91719">
        <ele>305.84</ele>
        <time>2015-07-12T11:50:53.000Z</time>
      </trkpt>
      <trkpt lat="47.17046" lon="5.91703">
        <ele>305.84</ele>
        <time>2015-07-12T11:50:55.000Z</time>
      </trkpt>
      <trkpt lat="47.17042" lon="5.91687">
        <ele>306.32</ele>
        <time>2015-07-12T11:50:57.000Z</time>
      </trkpt>
      <trkpt lat="47.17038" lon="5.91672">
        <ele>306.32</ele>
        <time>2015-07-12T11:50:59.000Z</time>
      </trkpt>
      <trkpt lat="47.17034" lon="5.91656">
        <ele>306.32</ele>
        <time>2015-07-12T11:51:01.000Z</time>
      </trkpt>
      <trkpt lat="47.1703" lon="5.91641">
        <ele>305.84</ele>
        <time>2015-07-12T11:51:03.000Z</time>
      </trkpt>
      <trkpt lat="47.17027" lon="5.91625">
        <ele>305.36</ele>
        <time>2015-07-12T11:51:05.000Z</time>
      </trkpt>
      <trkpt lat="47.17023" lon="5.9161">
        <ele>305.36</ele>
        <time>2015-07-12T11:51:07.000Z</time>
      </trkpt>
      <trkpt lat="47.17019" lon="5.91595">
        <ele>305.36</ele>
        <time>2015-07-12T11:51:09.000Z</time>
      </trkpt>
      <trkpt lat="47.17015" lon="5.91581">
        <ele>305.84</ele>
        <time>2015-07-12T11:51:11.000Z</time>
      </trkpt>
      <trkpt lat="47.17011" lon="5.91565">
        <ele>305.36</ele>
        <time>2015-07-12T11:51:13.000Z</time>
      </trkpt>
      <trkpt lat="47.17007" lon="5.91551">
        <ele>306.32</ele>
        <time>2015-07-12T11:51:15.000Z</time>
      </trkpt>
      <trkpt lat="47.17003" lon="5.91538">
        <ele>306.32</ele>
        <time>2015-07-12T11:51:17.000Z</time>
      </trkpt>
      <trkpt lat="47.16998" lon="5.91524">
        <ele>306.8</ele>
        <time>2015-07-12T11:51:19.000Z</time>
      </trkpt>
      <trkpt lat="47.16994" lon="5.91512">
        <ele>306.8</ele>
        <time>2015-07-12T11:51:21.000Z</time>
      </trkpt>
      <trkpt lat="47.16989" lon="5.91496">
        <ele>307.76</ele>
        <time>2015-07-12T11:51:24.000Z</time>
      </trkpt>
      <trkpt lat="47.16991" lon="5.91482">
        <ele>307.28</ele>
        <time>2015-07-12T11:51:27.000Z</time>
      </trkpt>
      <trkpt lat="47.17" lon="5.91476">
        <ele>307.28</ele>
        <time>2015-07-12T11:51:30.000Z</time>
      </trkpt>
      <trkpt lat="47.17009" lon="5.91471">
        <ele>307.76</ele>
        <time>2015-07-12T11:51:33.000Z</time>
      </trkpt>
      <trkpt lat="47.17019" lon="5.9146">
        <ele>307.28</ele>
        <time>2015-07-12T11:51:36.000Z</time>
      </trkpt>
      <trkpt lat="47.17019" lon="5.91443">
        <ele>306.8</ele>
        <time>2015-07-12T11:51:39.000Z</time>
      </trkpt>
      <trkpt lat="47.17012" lon="5.91425">
        <ele>306.8</ele>
        <time>2015-07-12T11:51:42.000Z</time>
      </trkpt>
      <trkpt lat="47.17005" lon="5.91413">
        <ele>306.32</ele>
        <time>2015-07-12T11:51:44.000Z</time>
      </trkpt>
      <trkpt lat="47.16999" lon="5.914">
        <ele>306.8</ele>
        <time>2015-07-12T11:51:46.000Z</time>
      </trkpt>
      <trkpt lat="47.16994" lon="5.91387">
        <ele>306.32</ele>
        <time>2015-07-12T11:51:48.000Z</time>
      </trkpt>
      <trkpt lat="47.16991" lon="5.91372">
        <ele>306.32</ele>
        <time>2015-07-12T11:51:50.000Z</time>
      </trkpt>
      <trkpt lat="47.16988" lon="5.91356">
        <ele>306.32</ele>
        <time>2015-07-12T11:51:52.000Z</time>
      </trkpt>
      <trkpt lat="47.16985" lon="5.9134">
        <ele>306.32</ele>
        <time>2015-07-12T11:51:54.000Z</time>
      </trkpt>
      <trkpt lat="47.16985" lon="5.91323">
        <ele>306.32</ele>
        <time>2015-07-12T11:51:56.000Z</time>
      </trkpt>
      <trkpt lat="47.16985" lon="5.91306">
        <ele>306.32</ele>
        <time>2015-07-12T11:51:58.000Z</time>
      </trkpt>
      <trkpt lat="47.16986" lon="5.91289">
        <ele>306.8</ele>
        <time>2015-07-12T11:52:00.000Z</time>
      </trkpt>
      <trkpt lat="47.16988" lon="5.91274">
        <ele>306.32</ele>
        <time>2015-07-12T11:52:02.000Z</time>
      </trkpt>
      <trkpt lat="47.1699" lon="5.91258">
        <ele>305.84</ele>
        <time>2015-07-12T11:52:04.000Z</time>
      </trkpt>
      <trkpt lat="47.16993" lon="5.91242">
        <ele>306.32</ele>
        <time>2015-07-12T11:52:06.000Z</time>
      </trkpt>
      <trkpt lat="47.16996" lon="5.91226">
        <ele>306.8</ele>
        <time>2015-07-12T11:52:08.000Z</time>
      </trkpt>
      <trkpt lat="47.16999" lon="5.91211">
        <ele>306.8</ele>
        <time>2015-07-12T11:52:10.000Z</time>
      </trkpt>
      <trkpt lat="47.17003" lon="5.91196">
        <ele>306.8</ele>
        <time>2015-07-12T11:52:12.000Z</time>
      </trkpt>
      <trkpt lat="47.17006" lon="5.91182">
        <ele>307.28</ele>
        <time>2015-07-12T11:52:14.000Z</time>
      </trkpt>
      <trkpt lat="47.17011" lon="5.91166">
        <ele>306.8</ele>
        <time>2015-07-12T11:52:16.000Z</time>
      </trkpt>
      <trkpt lat="47.17015" lon="5.91152">
        <ele>306.8</ele>
        <time>2015-07-12T11:52:18.000Z</time>
      </trkpt>
      <trkpt lat="47.17019" lon="5.91137">
        <ele>306.8</ele>
        <time>2015-07-12T11:52:20.000Z</time>
      </trkpt>
      <trkpt lat="47.17022" lon="5.91122">
        <ele>307.28</ele>
        <time>2015-07-12T11:52:22.000Z</time>
      </trkpt>
      <trkpt lat="47.17026" lon="5.91107">
        <ele>307.28</ele>
        <time>2015-07-12T11:52:24.000Z</time>
      </trkpt>
      <trkpt lat="47.1703" lon="5.91092">
        <ele>306.8</ele>
        <time>2015-07-12T11:52:26.000Z</time>
      </trkpt>
      <trkpt lat="47.17035" lon="5.91077">
        <ele>306.8</ele>
        <time>2015-07-12T11:52:28.000Z</time>
      </trkpt>
      <trkpt lat="47.1704" lon="5.91062">
        <ele>306.8</ele>
        <time>2015-07-12T11:52:30.000Z</time>
      </trkpt>
      <trkpt lat="47.17044" lon="5.91048">
        <ele>306.8</ele>
        <time>2015-07-12T11:52:32.000Z</time>
      </trkpt>
      <trkpt lat="47.17048" lon="5.91034">
        <ele>306.32</ele>
        <time>2015-07-12T11:52:34.000Z</time>
      </trkpt>
      <trkpt lat="47.17053" lon="5.91019">
        <ele>306.8</ele>
        <time>2015-07-12T11:52:36.000Z</time>
      </trkpt>
      <trkpt lat="47.17059" lon="5.91004">
        <ele>306.8</ele>
        <time>2015-07-12T11:52:38.000Z</time>
      </trkpt>
      <trkpt lat="47.17064" lon="5.90989">
        <ele>306.8</ele>
        <time>2015-07-12T11:52:40.000Z</time>
      </trkpt>
      <trkpt lat="47.1707" lon="5.90975">
        <ele>306.32</ele>
        <time>2015-07-12T11:52:42.000Z</time>
      </trkpt>
      <trkpt lat="47.17075" lon="5.90961">
        <ele>306.8</ele>
        <time>2015-07-12T11:52:44.000Z</time>
      </trkpt>
      <trkpt lat="47.17081" lon="5.90946">
        <ele>306.32</ele>
        <time>2015-07-12T11:52:46.000Z</time>
      </trkpt>
      <trkpt lat="47.17085" lon="5.90931">
        <ele>306.8</ele>
        <time>2015-07-12T11:52:48.000Z</time>
      </trkpt>
      <trkpt lat="47.17091" lon="5.90915">
        <ele>306.32</ele>
        <time>2015-07-12T11:52:50.000Z</time>
      </trkpt>
      <trkpt lat="47.17096" lon="5.909">
        <ele>307.28</ele>
        <time>2015-07-12T11:52:52.000Z</time>
      </trkpt>
      <trkpt lat="47.17101" lon="5.90886">
        <ele>306.8</ele>
        <time>2015-07-12T11:52:54.000Z</time>
      </trkpt>
      <trkpt lat="47.17106" lon="5.90872">
        <ele>306.32</ele>
        <time>2015-07-12T11:52:56.000Z</time>
      </trkpt>
      <trkpt lat="47.17112" lon="5.90859">
        <ele>305.84</ele>
        <time>2015-07-12T11:52:58.000Z</time>
      </trkpt>
      <trkpt lat="47.17117" lon="5.90847">
        <ele>306.32</ele>
        <time>2015-07-12T11:53:00.000Z</time>
      </trkpt>
      <trkpt lat="47.17126" lon="5.90835">
        <ele>306.32</ele>
        <time>2015-07-12T11:53:03.000Z</time>
      </trkpt>
      <trkpt lat="47.17134" lon="5.90824">
        <ele>306.32</ele>
        <time>2015-07-12T11:53:06.000Z</time>
      </trkpt>
      <trkpt lat="47.1714" lon="5.90813">
        <ele>305.84</ele>
        <time>2015-07-12T11:53:10.000Z</time>
      </trkpt>
      <trkpt lat="47.17142" lon="5.90795">
        <ele>306.32</ele>
        <time>2015-07-12T11:53:52.000Z</time>
      </trkpt>
      <trkpt lat="47.17144" lon="5.90777">
        <ele>306.8</ele>
        <time>2015-07-12T11:54:06.000Z</time>
      </trkpt>
      <trkpt lat="47.17149" lon="5.90763">
        <ele>307.28</ele>
        <time>2015-07-12T11:54:11.000Z</time>
      </trkpt>
      <trkpt lat="47.17153" lon="5.90744">
        <ele>307.28</ele>
        <time>2015-07-12T11:54:16.000Z</time>
      </trkpt>
      <trkpt lat="47.1716" lon="5.9073">
        <ele>307.28</ele>
        <time>2015-07-12T11:54:20.000Z</time>
      </trkpt>
      <trkpt lat="47.17167" lon="5.90714">
        <ele>307.76</ele>
        <time>2015-07-12T11:54:25.000Z</time>
      </trkpt>
      <trkpt lat="47.17174" lon="5.907">
        <ele>307.76</ele>
        <time>2015-07-12T11:54:29.000Z</time>
      </trkpt>
      <trkpt lat="47.17179" lon="5.90686">
        <ele>307.76</ele>
        <time>2015-07-12T11:54:33.000Z</time>
      </trkpt>
      <trkpt lat="47.17183" lon="5.90669">
        <ele>308.24</ele>
        <time>2015-07-12T11:54:37.000Z</time>
      </trkpt>
      <trkpt lat="47.17189" lon="5.90655">
        <ele>308.72</ele>
        <time>2015-07-12T11:54:42.000Z</time>
      </trkpt>
      <trkpt lat="47.17198" lon="5.90641">
        <ele>310.64</ele>
        <time>2015-07-12T11:54:47.000Z</time>
      </trkpt>
      <trkpt lat="47.17208" lon="5.90628">
        <ele>311.12</ele>
        <time>2015-07-12T11:54:52.000Z</time>
      </trkpt>
      <trkpt lat="47.17215" lon="5.90617">
        <ele>312.09</ele>
        <time>2015-07-12T11:54:57.000Z</time>
      </trkpt>
      <trkpt lat="47.17221" lon="5.90605">
        <ele>312.57</ele>
        <time>2015-07-12T11:55:02.000Z</time>
      </trkpt>
      <trkpt lat="47.17228" lon="5.90596">
        <ele>313.53</ele>
        <time>2015-07-12T11:55:07.000Z</time>
      </trkpt>
      <trkpt lat="47.17234" lon="5.90583">
        <ele>314.49</ele>
        <time>2015-07-12T11:55:13.000Z</time>
      </trkpt>
      <trkpt lat="47.17244" lon="5.90574">
        <ele>315.45</ele>
        <time>2015-07-12T11:55:19.000Z</time>
      </trkpt>
      <trkpt lat="47.17249" lon="5.90561">
        <ele>316.41</ele>
        <time>2015-07-12T11:55:25.000Z</time>
      </trkpt>
      <trkpt lat="47.17246" lon="5.9055">
        <ele>317.37</ele>
        <time>2015-07-12T11:55:30.000Z</time>
      </trkpt>
      <trkpt lat="47.17239" lon="5.90538">
        <ele>317.85</ele>
        <time>2015-07-12T11:55:35.000Z</time>
      </trkpt>
      <trkpt lat="47.17237" lon="5.90522">
        <ele>318.81</ele>
        <time>2015-07-12T11:55:40.000Z</time>
      </trkpt>
      <trkpt lat="47.17235" lon="5.90509">
        <ele>319.3</ele>
        <time>2015-07-12T11:55:44.000Z</time>
      </trkpt>
      <trkpt lat="47.17234" lon="5.90496">
        <ele>320.26</ele>
        <time>2015-07-12T11:55:49.000Z</time>
      </trkpt>
      <trkpt lat="47.17229" lon="5.90486">
        <ele>320.26</ele>
        <time>2015-07-12T11:55:56.000Z</time>
      </trkpt>
      <trkpt lat="47.17223" lon="5.90483">
        <ele>320.26</ele>
        <time>2015-07-12T11:56:01.000Z</time>
      </trkpt>
      <trkpt lat="47.17214" lon="5.9048">
        <ele>319.78</ele>
        <time>2015-07-12T11:56:04.000Z</time>
      </trkpt>
      <trkpt lat="47.17203" lon="5.90482">
        <ele>319.78</ele>
        <time>2015-07-12T11:56:07.000Z</time>
      </trkpt>
      <trkpt lat="47.17191" lon="5.90486">
        <ele>319.3</ele>
        <time>2015-07-12T11:56:10.000Z</time>
      </trkpt>
      <trkpt lat="47.17179" lon="5.90489">
        <ele>318.33</ele>
        <time>2015-07-12T11:56:13.000Z</time>
      </trkpt>
      <trkpt lat="47.17168" lon="5.90493">
        <ele>317.85</ele>
        <time>2015-07-12T11:56:15.000Z</time>
      </trkpt>
      <trkpt lat="47.17156" lon="5.90499">
        <ele>317.37</ele>
        <time>2015-07-12T11:56:17.000Z</time>
      </trkpt>
      <trkpt lat="47.17144" lon="5.90507">
        <ele>316.41</ele>
        <time>2015-07-12T11:56:19.000Z</time>
      </trkpt>
      <trkpt lat="47.17132" lon="5.90516">
        <ele>316.41</ele>
        <time>2015-07-12T11:56:21.000Z</time>
      </trkpt>
      <trkpt lat="47.1712" lon="5.90525">
        <ele>314.49</ele>
        <time>2015-07-12T11:56:23.000Z</time>
      </trkpt>
      <trkpt lat="47.17107" lon="5.90534">
        <ele>314.01</ele>
        <time>2015-07-12T11:56:25.000Z</time>
      </trkpt>
      <trkpt lat="47.17093" lon="5.90545">
        <ele>313.05</ele>
        <time>2015-07-12T11:56:27.000Z</time>
      </trkpt>
      <trkpt lat="47.17079" lon="5.90555">
        <ele>312.09</ele>
        <time>2015-07-12T11:56:29.000Z</time>
      </trkpt>
      <trkpt lat="47.17066" lon="5.90564">
        <ele>311.12</ele>
        <time>2015-07-12T11:56:31.000Z</time>
      </trkpt>
      <trkpt lat="47.17054" lon="5.90573">
        <ele>309.68</ele>
        <time>2015-07-12T11:56:33.000Z</time>
      </trkpt>
      <trkpt lat="47.17042" lon="5.9058">
        <ele>309.2</ele>
        <time>2015-07-12T11:56:35.000Z</time>
      </trkpt>
      <trkpt lat="47.17031" lon="5.90586">
        <ele>308.24</ele>
        <time>2015-07-12T11:56:37.000Z</time>
      </trkpt>
      <trkpt lat="47.17019" lon="5.9059">
        <ele>307.28</ele>
        <time>2015-07-12T11:56:39.000Z</time>
      </trkpt>
      <trkpt lat="47.17005" lon="5.9059">
        <ele>307.28</ele>
        <time>2015-07-12T11:56:41.000Z</time>
      </trkpt>
      <trkpt lat="47.1699" lon="5.90587">
        <ele>305.84</ele>
        <time>2015-07-12T11:56:43.000Z</time>
      </trkpt>
      <trkpt lat="47.16978" lon="5.90581">
        <ele>305.36</ele>
        <time>2015-07-12T11:56:45.000Z</time>
      </trkpt>
      <trkpt lat="47.1697" lon="5.90571">
        <ele>305.36</ele>
        <time>2015-07-12T11:56:47.000Z</time>
      </trkpt>
      <trkpt lat="47.16964" lon="5.9056">
        <ele>304.88</ele>
        <time>2015-07-12T11:56:49.000Z</time>
      </trkpt>
      <trkpt lat="47.16956" lon="5.9055">
        <ele>304.39</ele>
        <time>2015-07-12T11:56:53.000Z</time>
      </trkpt>
      <trkpt lat="47.16951" lon="5.90541">
        <ele>304.39</ele>
        <time>2015-07-12T11:57:10.000Z</time>
      </trkpt>
      <trkpt lat="47.16941" lon="5.90531">
        <ele>304.39</ele>
        <time>2015-07-12T11:57:14.000Z</time>
      </trkpt>
      <trkpt lat="47.16933" lon="5.9052">
        <ele>304.39</ele>
        <time>2015-07-12T11:57:17.000Z</time>
      </trkpt>
      <trkpt lat="47.16927" lon="5.90508">
        <ele>304.39</ele>
        <time>2015-07-12T11:57:20.000Z</time>
      </trkpt>
      <trkpt lat="47.16919" lon="5.90497">
        <ele>304.39</ele>
        <time>2015-07-12T11:57:23.000Z</time>
      </trkpt>
      <trkpt lat="47.16908" lon="5.90481">
        <ele>304.39</ele>
        <time>2015-07-12T11:57:26.000Z</time>
      </trkpt>
      <trkpt lat="47.16899" lon="5.9047">
        <ele>304.39</ele>
        <time>2015-07-12T11:57:28.000Z</time>
      </trkpt>
      <trkpt lat="47.16891" lon="5.9046">
        <ele>304.39</ele>
        <time>2015-07-12T11:57:30.000Z</time>
      </trkpt>
      <trkpt lat="47.16884" lon="5.90448">
        <ele>304.39</ele>
        <time>2015-07-12T11:57:32.000Z</time>
      </trkpt>
      <trkpt lat="47.16877" lon="5.90437">
        <ele>304.39</ele>
        <time>2015-07-12T11:57:34.000Z</time>
      </trkpt>
      <trkpt lat="47.16869" lon="5.90426">
        <ele>304.39</ele>
        <time>2015-07-12T11:57:36.000Z</time>
      </trkpt>
      <trkpt lat="47.16862" lon="5.90416">
        <ele>303.91</ele>
        <time>2015-07-12T11:57:38.000Z</time>
      </trkpt>
      <trkpt lat="47.16855" lon="5.90405">
        <ele>304.39</ele>
        <time>2015-07-12T11:57:40.000Z</time>
      </trkpt>
      <trkpt lat="47.16848" lon="5.90395">
        <ele>304.39</ele>
        <time>2015-07-12T11:57:42.000Z</time>
      </trkpt>
      <trkpt lat="47.1684" lon="5.90383">
        <ele>304.39</ele>
        <time>2015-07-12T11:57:44.000Z</time>
      </trkpt>
      <trkpt lat="47.16832" lon="5.90373">
        <ele>304.39</ele>
        <time>2015-07-12T11:57:46.000Z</time>
      </trkpt>
      <trkpt lat="47.16824" lon="5.90363">
        <ele>304.39</ele>
        <time>2015-07-12T11:57:48.000Z</time>
      </trkpt>
      <trkpt lat="47.16816" lon="5.90353">
        <ele>304.39</ele>
        <time>2015-07-12T11:57:50.000Z</time>
      </trkpt>
      <trkpt lat="47.16808" lon="5.90344">
        <ele>304.39</ele>
        <time>2015-07-12T11:57:52.000Z</time>
      </trkpt>
      <trkpt lat="47.16797" lon="5.90333">
        <ele>304.39</ele>
        <time>2015-07-12T11:57:55.000Z</time>
      </trkpt>
      <trkpt lat="47.16788" lon="5.90324">
        <ele>303.91</ele>
        <time>2015-07-12T11:57:59.000Z</time>
      </trkpt>
      <trkpt lat="47.16779" lon="5.90315">
        <ele>303.43</ele>
        <time>2015-07-12T11:59:48.000Z</time>
      </trkpt>
      <trkpt lat="47.16771" lon="5.90304">
        <ele>304.39</ele>
        <time>2015-07-12T11:59:55.000Z</time>
      </trkpt>
      <trkpt lat="47.16763" lon="5.9031">
        <ele>305.36</ele>
        <time>2015-07-12T12:00:02.000Z</time>
      </trkpt>
      <trkpt lat="47.16754" lon="5.9032">
        <ele>304.39</ele>
        <time>2015-07-12T12:00:21.000Z</time>
      </trkpt>
      <trkpt lat="47.1674" lon="5.9032">
        <ele>303.91</ele>
        <time>2015-07-12T12:00:24.000Z</time>
      </trkpt>
      <trkpt lat="47.1673" lon="5.90319">
        <ele>303.43</ele>
        <time>2015-07-12T12:00:26.000Z</time>
      </trkpt>
      <trkpt lat="47.16718" lon="5.90321">
        <ele>302.95</ele>
        <time>2015-07-12T12:00:28.000Z</time>
      </trkpt>
      <trkpt lat="47.16706" lon="5.90322">
        <ele>302.47</ele>
        <time>2015-07-12T12:00:30.000Z</time>
      </trkpt>
      <trkpt lat="47.16693" lon="5.90325">
        <ele>301.99</ele>
        <time>2015-07-12T12:00:32.000Z</time>
      </trkpt>
      <trkpt lat="47.1668" lon="5.90329">
        <ele>301.51</ele>
        <time>2015-07-12T12:00:34.000Z</time>
      </trkpt>
      <trkpt lat="47.16668" lon="5.90331">
        <ele>301.03</ele>
        <time>2015-07-12T12:00:36.000Z</time>
      </trkpt>
      <trkpt lat="47.16657" lon="5.90334">
        <ele>301.51</ele>
        <time>2015-07-12T12:00:38.000Z</time>
      </trkpt>
      <trkpt lat="47.16647" lon="5.90337">
        <ele>301.99</ele>
        <time>2015-07-12T12:00:40.000Z</time>
      </trkpt>
      <trkpt lat="47.16637" lon="5.90338">
        <ele>301.51</ele>
        <time>2015-07-12T12:00:42.000Z</time>
      </trkpt>
      <trkpt lat="47.16625" lon="5.90338">
        <ele>301.51</ele>
        <time>2015-07-12T12:00:45.000Z</time>
      </trkpt>
      <trkpt lat="47.16613" lon="5.90336">
        <ele>301.99</ele>
        <time>2015-07-12T12:00:48.000Z</time>
      </trkpt>
      <trkpt lat="47.16601" lon="5.90332">
        <ele>300.55</ele>
        <time>2015-07-12T12:00:51.000Z</time>
      </trkpt>
      <trkpt lat="47.16589" lon="5.90329">
        <ele>301.03</ele>
        <time>2015-07-12T12:00:54.000Z</time>
      </trkpt>
      <trkpt lat="47.16579" lon="5.90326">
        <ele>301.03</ele>
        <time>2015-07-12T12:00:57.000Z</time>
      </trkpt>
      <trkpt lat="47.16569" lon="5.90322">
        <ele>301.51</ele>
        <time>2015-07-12T12:01:00.000Z</time>
      </trkpt>
      <trkpt lat="47.16559" lon="5.90318">
        <ele>302.47</ele>
        <time>2015-07-12T12:01:03.000Z</time>
      </trkpt>
      <trkpt lat="47.16551" lon="5.90313">
        <ele>304.39</ele>
        <time>2015-07-12T12:01:06.000Z</time>
      </trkpt>
      <trkpt lat="47.16542" lon="5.90306">
        <ele>304.88</ele>
        <time>2015-07-12T12:01:10.000Z</time>
      </trkpt>
      <trkpt lat="47.16534" lon="5.90299">
        <ele>305.36</ele>
        <time>2015-07-12T12:01:14.000Z</time>
      </trkpt>
      <trkpt lat="47.16526" lon="5.9029">
        <ele>305.84</ele>
        <time>2015-07-12T12:01:18.000Z</time>
      </trkpt>
      <trkpt lat="47.16518" lon="5.90279">
        <ele>305.36</ele>
        <time>2015-07-12T12:01:21.000Z</time>
      </trkpt>
      <trkpt lat="47.16508" lon="5.90267">
        <ele>305.36</ele>
        <time>2015-07-12T12:01:24.000Z</time>
      </trkpt>
      <trkpt lat="47.16499" lon="5.90255">
        <ele>305.84</ele>
        <time>2015-07-12T12:01:27.000Z</time>
      </trkpt>
      <trkpt lat="47.1649" lon="5.90243">
        <ele>305.84</ele>
        <time>2015-07-12T12:01:30.000Z</time>
      </trkpt>
      <trkpt lat="47.16482" lon="5.9023">
        <ele>306.32</ele>
        <time>2015-07-12T12:01:33.000Z</time>
      </trkpt>
      <trkpt lat="47.16475" lon="5.90219">
        <ele>306.32</ele>
        <time>2015-07-12T12:01:36.000Z</time>
      </trkpt>
      <trkpt lat="47.16468" lon="5.90208">
        <ele>306.8</ele>
        <time>2015-07-12T12:01:39.000Z</time>
      </trkpt>
      <trkpt lat="47.16461" lon="5.90193">
        <ele>306.8</ele>
        <time>2015-07-12T12:01:42.000Z</time>
      </trkpt>
      <trkpt lat="47.16452" lon="5.90177">
        <ele>306.32</ele>
        <time>2015-07-12T12:01:45.000Z</time>
      </trkpt>
      <trkpt lat="47.16444" lon="5.9016">
        <ele>306.8</ele>
        <time>2015-07-12T12:01:48.000Z</time>
      </trkpt>
      <trkpt lat="47.16438" lon="5.90149">
        <ele>306.8</ele>
        <time>2015-07-12T12:01:50.000Z</time>
      </trkpt>
      <trkpt lat="47.16432" lon="5.90138">
        <ele>306.8</ele>
        <time>2015-07-12T12:01:52.000Z</time>
      </trkpt>
      <trkpt lat="47.16426" lon="5.90127">
        <ele>306.32</ele>
        <time>2015-07-12T12:01:54.000Z</time>
      </trkpt>
      <trkpt lat="47.16421" lon="5.90114">
        <ele>306.8</ele>
        <time>2015-07-12T12:01:56.000Z</time>
      </trkpt>
      <trkpt lat="47.16416" lon="5.90102">
        <ele>306.8</ele>
        <time>2015-07-12T12:01:58.000Z</time>
      </trkpt>
      <trkpt lat="47.1641" lon="5.9009">
        <ele>306.32</ele>
        <time>2015-07-12T12:02:00.000Z</time>
      </trkpt>
      <trkpt lat="47.16406" lon="5.90078">
        <ele>306.32</ele>
        <time>2015-07-12T12:02:02.000Z</time>
      </trkpt>
      <trkpt lat="47.164" lon="5.90066">
        <ele>306.8</ele>
        <time>2015-07-12T12:02:04.000Z</time>
      </trkpt>
      <trkpt lat="47.16395" lon="5.90054">
        <ele>306.32</ele>
        <time>2015-07-12T12:02:06.000Z</time>
      </trkpt>
      <trkpt lat="47.16389" lon="5.9004">
        <ele>306.8</ele>
        <time>2015-07-12T12:02:08.000Z</time>
      </trkpt>
      <trkpt lat="47.16384" lon="5.90027">
        <ele>306.32</ele>
        <time>2015-07-12T12:02:10.000Z</time>
      </trkpt>
      <trkpt lat="47.16379" lon="5.90014">
        <ele>306.32</ele>
        <time>2015-07-12T12:02:12.000Z</time>
      </trkpt>
      <trkpt lat="47.16374" lon="5.90001">
        <ele>306.8</ele>
        <time>2015-07-12T12:02:14.000Z</time>
      </trkpt>
      <trkpt lat="47.16369" lon="5.89988">
        <ele>306.32</ele>
        <time>2015-07-12T12:02:16.000Z</time>
      </trkpt>
      <trkpt lat="47.16364" lon="5.89974">
        <ele>306.32</ele>
        <time>2015-07-12T12:02:18.000Z</time>
      </trkpt>
      <trkpt lat="47.1636" lon="5.89961">
        <ele>306.32</ele>
        <time>2015-07-12T12:02:20.000Z</time>
      </trkpt>
      <trkpt lat="47.16355" lon="5.89948">
        <ele>306.32</ele>
        <time>2015-07-12T12:02:22.000Z</time>
      </trkpt>
      <trkpt lat="47.1635" lon="5.89935">
        <ele>306.32</ele>
        <time>2015-07-12T12:02:24.000Z</time>
      </trkpt>
      <trkpt lat="47.16346" lon="5.89922">
        <ele>306.32</ele>
        <time>2015-07-12T12:02:26.000Z</time>
      </trkpt>
      <trkpt lat="47.16341" lon="5.89909">
        <ele>306.8</ele>
        <time>2015-07-12T12:02:28.000Z</time>
      </trkpt>
      <trkpt lat="47.16337" lon="5.89896">
        <ele>306.8</ele>
        <time>2015-07-12T12:02:30.000Z</time>
      </trkpt>
      <trkpt lat="47.16333" lon="5.89883">
        <ele>306.32</ele>
        <time>2015-07-12T12:02:32.000Z</time>
      </trkpt>
      <trkpt lat="47.16329" lon="5.8987">
        <ele>306.32</ele>
        <time>2015-07-12T12:02:34.000Z</time>
      </trkpt>
      <trkpt lat="47.16325" lon="5.89857">
        <ele>306.32</ele>
        <time>2015-07-12T12:02:36.000Z</time>
      </trkpt>
      <trkpt lat="47.16322" lon="5.89842">
        <ele>306.32</ele>
        <time>2015-07-12T12:02:38.000Z</time>
      </trkpt>
      <trkpt lat="47.16318" lon="5.89827">
        <ele>305.84</ele>
        <time>2015-07-12T12:02:40.000Z</time>
      </trkpt>
      <trkpt lat="47.16315" lon="5.89812">
        <ele>305.84</ele>
        <time>2015-07-12T12:02:42.000Z</time>
      </trkpt>
      <trkpt lat="47.16311" lon="5.89796">
        <ele>306.32</ele>
        <time>2015-07-12T12:02:44.000Z</time>
      </trkpt>
      <trkpt lat="47.1631" lon="5.89789">
        <ele>306.32</ele>
        <time>2015-07-12T12:02:45.000Z</time>
      </trkpt>
      <trkpt lat="47.16306" lon="5.89765">
        <ele>306.32</ele>
        <time>2015-07-12T12:02:48.000Z</time>
      </trkpt>
      <trkpt lat="47.16304" lon="5.89749">
        <ele>305.84</ele>
        <time>2015-07-12T12:02:50.000Z</time>
      </trkpt>
      <trkpt lat="47.16301" lon="5.89734">
        <ele>305.84</ele>
        <time>2015-07-12T12:02:52.000Z</time>
      </trkpt>
      <trkpt lat="47.16297" lon="5.89718">
        <ele>305.84</ele>
        <time>2015-07-12T12:02:54.000Z</time>
      </trkpt>
      <trkpt lat="47.16296" lon="5.89711">
        <ele>305.36</ele>
        <time>2015-07-12T12:02:55.000Z</time>
      </trkpt>
      <trkpt lat="47.16293" lon="5.89696">
        <ele>305.36</ele>
        <time>2015-07-12T12:02:57.000Z</time>
      </trkpt>
      <trkpt lat="47.16285" lon="5.89674">
        <ele>305.84</ele>
        <time>2015-07-12T12:03:00.000Z</time>
      </trkpt>
      <trkpt lat="47.16281" lon="5.8966">
        <ele>305.36</ele>
        <time>2015-07-12T12:03:02.000Z</time>
      </trkpt>
      <trkpt lat="47.16277" lon="5.89645">
        <ele>305.84</ele>
        <time>2015-07-12T12:03:04.000Z</time>
      </trkpt>
      <trkpt lat="47.16272" lon="5.89629">
        <ele>305.84</ele>
        <time>2015-07-12T12:03:06.000Z</time>
      </trkpt>
      <trkpt lat="47.16268" lon="5.89614">
        <ele>305.84</ele>
        <time>2015-07-12T12:03:08.000Z</time>
      </trkpt>
      <trkpt lat="47.16264" lon="5.89598">
        <ele>305.36</ele>
        <time>2015-07-12T12:03:10.000Z</time>
      </trkpt>
      <trkpt lat="47.16261" lon="5.89583">
        <ele>305.84</ele>
        <time>2015-07-12T12:03:12.000Z</time>
      </trkpt>
      <trkpt lat="47.16258" lon="5.89568">
        <ele>305.84</ele>
        <time>2015-07-12T12:03:14.000Z</time>
      </trkpt>
      <trkpt lat="47.16255" lon="5.89551">
        <ele>305.84</ele>
        <time>2015-07-12T12:03:16.000Z</time>
      </trkpt>
      <trkpt lat="47.16252" lon="5.89536">
        <ele>305.84</ele>
        <time>2015-07-12T12:03:18.000Z</time>
      </trkpt>
      <trkpt lat="47.1625" lon="5.89521">
        <ele>305.36</ele>
        <time>2015-07-12T12:03:20.000Z</time>
      </trkpt>
      <trkpt lat="47.16248" lon="5.89505">
        <ele>305.36</ele>
        <time>2015-07-12T12:03:22.000Z</time>
      </trkpt>
      <trkpt lat="47.16245" lon="5.89489">
        <ele>305.36</ele>
        <time>2015-07-12T12:03:24.000Z</time>
      </trkpt>
      <trkpt lat="47.16243" lon="5.89473">
        <ele>305.84</ele>
        <time>2015-07-12T12:03:26.000Z</time>
      </trkpt>
      <trkpt lat="47.16242" lon="5.89458">
        <ele>305.84</ele>
        <time>2015-07-12T12:03:28.000Z</time>
      </trkpt>
      <trkpt lat="47.16242" lon="5.89443">
        <ele>305.84</ele>
        <time>2015-07-12T12:03:30.000Z</time>
      </trkpt>
      <trkpt lat="47.1624" lon="5.89428">
        <ele>305.84</ele>
        <time>2015-07-12T12:03:32.000Z</time>
      </trkpt>
      <trkpt lat="47.16237" lon="5.89413">
        <ele>304.88</ele>
        <time>2015-07-12T12:03:34.000Z</time>
      </trkpt>
      <trkpt lat="47.16235" lon="5.89397">
        <ele>304.88</ele>
        <time>2015-07-12T12:03:36.000Z</time>
      </trkpt>
      <trkpt lat="47.16231" lon="5.89383">
        <ele>304.39</ele>
        <time>2015-07-12T12:03:38.000Z</time>
      </trkpt>
      <trkpt lat="47.16229" lon="5.89368">
        <ele>304.88</ele>
        <time>2015-07-12T12:03:40.000Z</time>
      </trkpt>
      <trkpt lat="47.16226" lon="5.89353">
        <ele>304.88</ele>
        <time>2015-07-12T12:03:42.000Z</time>
      </trkpt>
      <trkpt lat="47.16222" lon="5.89338">
        <ele>304.88</ele>
        <time>2015-07-12T12:03:44.000Z</time>
      </trkpt>
      <trkpt lat="47.16217" lon="5.89324">
        <ele>304.39</ele>
        <time>2015-07-12T12:03:46.000Z</time>
      </trkpt>
      <trkpt lat="47.16213" lon="5.8931">
        <ele>304.88</ele>
        <time>2015-07-12T12:03:48.000Z</time>
      </trkpt>
      <trkpt lat="47.1621" lon="5.89296">
        <ele>304.88</ele>
        <time>2015-07-12T12:03:50.000Z</time>
      </trkpt>
      <trkpt lat="47.16206" lon="5.89282">
        <ele>304.39</ele>
        <time>2015-07-12T12:03:52.000Z</time>
      </trkpt>
      <trkpt lat="47.16203" lon="5.89268">
        <ele>304.39</ele>
        <time>2015-07-12T12:03:54.000Z</time>
      </trkpt>
      <trkpt lat="47.16199" lon="5.89254">
        <ele>304.39</ele>
        <time>2015-07-12T12:03:56.000Z</time>
      </trkpt>
      <trkpt lat="47.16196" lon="5.8924">
        <ele>304.39</ele>
        <time>2015-07-12T12:03:58.000Z</time>
      </trkpt>
      <trkpt lat="47.16191" lon="5.89226">
        <ele>303.91</ele>
        <time>2015-07-12T12:04:00.000Z</time>
      </trkpt>
      <trkpt lat="47.16187" lon="5.89212">
        <ele>303.43</ele>
        <time>2015-07-12T12:04:02.000Z</time>
      </trkpt>
      <trkpt lat="47.16182" lon="5.89197">
        <ele>303.91</ele>
        <time>2015-07-12T12:04:04.000Z</time>
      </trkpt>
      <trkpt lat="47.16177" lon="5.89182">
        <ele>303.91</ele>
        <time>2015-07-12T12:04:06.000Z</time>
      </trkpt>
      <trkpt lat="47.16168" lon="5.89168">
        <ele>302.47</ele>
        <time>2015-07-12T12:04:08.000Z</time>
      </trkpt>
      <trkpt lat="47.1616" lon="5.89156">
        <ele>302.95</ele>
        <time>2015-07-12T12:04:10.000Z</time>
      </trkpt>
      <trkpt lat="47.16154" lon="5.89145">
        <ele>302.95</ele>
        <time>2015-07-12T12:04:12.000Z</time>
      </trkpt>
      <trkpt lat="47.16145" lon="5.89128">
        <ele>302.95</ele>
        <time>2015-07-12T12:04:15.000Z</time>
      </trkpt>
      <trkpt lat="47.16135" lon="5.89114">
        <ele>302.95</ele>
        <time>2015-07-12T12:04:18.000Z</time>
      </trkpt>
      <trkpt lat="47.16128" lon="5.89103">
        <ele>302.95</ele>
        <time>2015-07-12T12:04:21.000Z</time>
      </trkpt>
      <trkpt lat="47.16129" lon="5.89089">
        <ele>302.95</ele>
        <time>2015-07-12T12:04:25.000Z</time>
      </trkpt>
      <trkpt lat="47.16134" lon="5.89077">
        <ele>302.95</ele>
        <time>2015-07-12T12:04:28.000Z</time>
      </trkpt>
      <trkpt lat="47.16137" lon="5.89061">
        <ele>302.47</ele>
        <time>2015-07-12T12:04:31.000Z</time>
      </trkpt>
      <trkpt lat="47.1614" lon="5.89043">
        <ele>302.95</ele>
        <time>2015-07-12T12:04:34.000Z</time>
      </trkpt>
      <trkpt lat="47.16142" lon="5.89024">
        <ele>302.47</ele>
        <time>2015-07-12T12:04:37.000Z</time>
      </trkpt>
      <trkpt lat="47.16138" lon="5.89008">
        <ele>302.47</ele>
        <time>2015-07-12T12:04:40.000Z</time>
      </trkpt>
      <trkpt lat="47.1613" lon="5.88993">
        <ele>302.47</ele>
        <time>2015-07-12T12:04:43.000Z</time>
      </trkpt>
      <trkpt lat="47.1612" lon="5.88977">
        <ele>302.47</ele>
        <time>2015-07-12T12:04:46.000Z</time>
      </trkpt>
      <trkpt lat="47.16114" lon="5.88967">
        <ele>302.47</ele>
        <time>2015-07-12T12:04:48.000Z</time>
      </trkpt>
      <trkpt lat="47.16108" lon="5.88957">
        <ele>302.47</ele>
        <time>2015-07-12T12:04:50.000Z</time>
      </trkpt>
      <trkpt lat="47.16101" lon="5.88946">
        <ele>302.47</ele>
        <time>2015-07-12T12:04:52.000Z</time>
      </trkpt>
      <trkpt lat="47.16095" lon="5.88935">
        <ele>302.47</ele>
        <time>2015-07-12T12:04:54.000Z</time>
      </trkpt>
      <trkpt lat="47.16087" lon="5.8892">
        <ele>301.99</ele>
        <time>2015-07-12T12:04:57.000Z</time>
      </trkpt>
      <trkpt lat="47.16079" lon="5.88909">
        <ele>302.47</ele>
        <time>2015-07-12T12:05:00.000Z</time>
      </trkpt>
      <trkpt lat="47.16069" lon="5.88899">
        <ele>302.47</ele>
        <time>2015-07-12T12:05:03.000Z</time>
      </trkpt>
      <trkpt lat="47.16059" lon="5.88888">
        <ele>302.47</ele>
        <time>2015-07-12T12:05:06.000Z</time>
      </trkpt>
      <trkpt lat="47.16052" lon="5.8888">
        <ele>302.47</ele>
        <time>2015-07-12T12:05:08.000Z</time>
      </trkpt>
      <trkpt lat="47.16045" lon="5.88871">
        <ele>302.47</ele>
        <time>2015-07-12T12:05:10.000Z</time>
      </trkpt>
      <trkpt lat="47.16034" lon="5.8886">
        <ele>302.47</ele>
        <time>2015-07-12T12:05:13.000Z</time>
      </trkpt>
      <trkpt lat="47.16026" lon="5.88852">
        <ele>302.47</ele>
        <time>2015-07-12T12:05:15.000Z</time>
      </trkpt>
      <trkpt lat="47.16018" lon="5.88843">
        <ele>302.47</ele>
        <time>2015-07-12T12:05:17.000Z</time>
      </trkpt>
      <trkpt lat="47.1601" lon="5.88836">
        <ele>302.95</ele>
        <time>2015-07-12T12:05:19.000Z</time>
      </trkpt>
      <trkpt lat="47.16003" lon="5.88827">
        <ele>302.95</ele>
        <time>2015-07-12T12:05:21.000Z</time>
      </trkpt>
      <trkpt lat="47.15995" lon="5.88818">
        <ele>302.95</ele>
        <time>2015-07-12T12:05:23.000Z</time>
      </trkpt>
      <trkpt lat="47.15988" lon="5.88808">
        <ele>302.95</ele>
        <time>2015-07-12T12:05:25.000Z</time>
      </trkpt>
      <trkpt lat="47.1598" lon="5.88801">
        <ele>302.95</ele>
        <time>2015-07-12T12:05:27.000Z</time>
      </trkpt>
      <trkpt lat="47.1597" lon="5.88788">
        <ele>303.43</ele>
        <time>2015-07-12T12:05:30.000Z</time>
      </trkpt>
      <trkpt lat="47.15965" lon="5.88774">
        <ele>303.43</ele>
        <time>2015-07-12T12:05:33.000Z</time>
      </trkpt>
      <trkpt lat="47.15965" lon="5.8876">
        <ele>303.91</ele>
        <time>2015-07-12T12:05:36.000Z</time>
      </trkpt>
      <trkpt lat="47.15974" lon="5.88746">
        <ele>302.95</ele>
        <time>2015-07-12T12:05:40.000Z</time>
      </trkpt>
      <trkpt lat="47.15983" lon="5.88738">
        <ele>302.95</ele>
        <time>2015-07-12T12:05:43.000Z</time>
      </trkpt>
      <trkpt lat="47.15996" lon="5.8873">
        <ele>302.95</ele>
        <time>2015-07-12T12:05:46.000Z</time>
      </trkpt>
      <trkpt lat="47.16008" lon="5.88724">
        <ele>302.95</ele>
        <time>2015-07-12T12:05:49.000Z</time>
      </trkpt>
      <trkpt lat="47.16018" lon="5.88718">
        <ele>303.91</ele>
        <time>2015-07-12T12:05:52.000Z</time>
      </trkpt>
      <trkpt lat="47.16026" lon="5.88712">
        <ele>304.88</ele>
        <time>2015-07-12T12:05:55.000Z</time>
      </trkpt>
      <trkpt lat="47.16036" lon="5.88706">
        <ele>305.84</ele>
        <time>2015-07-12T12:05:58.000Z</time>
      </trkpt>
      <trkpt lat="47.16045" lon="5.88701">
        <ele>306.32</ele>
        <time>2015-07-12T12:06:01.000Z</time>
      </trkpt>
      <trkpt lat="47.16056" lon="5.88693">
        <ele>307.28</ele>
        <time>2015-07-12T12:06:05.000Z</time>
      </trkpt>
      <trkpt lat="47.16064" lon="5.88687">
        <ele>307.28</ele>
        <time>2015-07-12T12:06:08.000Z</time>
      </trkpt>
      <trkpt lat="47.16073" lon="5.88682">
        <ele>307.76</ele>
        <time>2015-07-12T12:06:11.000Z</time>
      </trkpt>
      <trkpt lat="47.16083" lon="5.88676">
        <ele>306.8</ele>
        <time>2015-07-12T12:06:14.000Z</time>
      </trkpt>
      <trkpt lat="47.16093" lon="5.88671">
        <ele>307.28</ele>
        <time>2015-07-12T12:06:17.000Z</time>
      </trkpt>
      <trkpt lat="47.16104" lon="5.88666">
        <ele>307.76</ele>
        <time>2015-07-12T12:06:20.000Z</time>
      </trkpt>
      <trkpt lat="47.16115" lon="5.8866">
        <ele>307.28</ele>
        <time>2015-07-12T12:06:23.000Z</time>
      </trkpt>
      <trkpt lat="47.16127" lon="5.88654">
        <ele>307.76</ele>
        <time>2015-07-12T12:06:26.000Z</time>
      </trkpt>
      <trkpt lat="47.16138" lon="5.88648">
        <ele>308.24</ele>
        <time>2015-07-12T12:06:29.000Z</time>
      </trkpt>
      <trkpt lat="47.1615" lon="5.88641">
        <ele>308.72</ele>
        <time>2015-07-12T12:06:32.000Z</time>
      </trkpt>
      <trkpt lat="47.16161" lon="5.88636">
        <ele>306.8</ele>
        <time>2015-07-12T12:06:35.000Z</time>
      </trkpt>
      <trkpt lat="47.1617" lon="5.88631">
        <ele>306.8</ele>
        <time>2015-07-12T12:06:37.000Z</time>
      </trkpt>
      <trkpt lat="47.16181" lon="5.88627">
        <ele>305.84</ele>
        <time>2015-07-12T12:06:39.000Z</time>
      </trkpt>
      <trkpt lat="47.16193" lon="5.88621">
        <ele>305.84</ele>
        <time>2015-07-12T12:06:41.000Z</time>
      </trkpt>
      <trkpt lat="47.16204" lon="5.88615">
        <ele>304.88</ele>
        <time>2015-07-12T12:06:43.000Z</time>
      </trkpt>
      <trkpt lat="47.16216" lon="5.88608">
        <ele>304.39</ele>
        <time>2015-07-12T12:06:45.000Z</time>
      </trkpt>
      <trkpt lat="47.16228" lon="5.88601">
        <ele>304.88</ele>
        <time>2015-07-12T12:06:47.000Z</time>
      </trkpt>
      <trkpt lat="47.1624" lon="5.88594">
        <ele>304.39</ele>
        <time>2015-07-12T12:06:49.000Z</time>
      </trkpt>
      <trkpt lat="47.16253" lon="5.88591">
        <ele>303.91</ele>
        <time>2015-07-12T12:06:51.000Z</time>
      </trkpt>
      <trkpt lat="47.16265" lon="5.88587">
        <ele>303.91</ele>
        <time>2015-07-12T12:06:53.000Z</time>
      </trkpt>
      <trkpt lat="47.16276" lon="5.88581">
        <ele>303.43</ele>
        <time>2015-07-12T12:06:55.000Z</time>
      </trkpt>
      <trkpt lat="47.16287" lon="5.88575">
        <ele>303.43</ele>
        <time>2015-07-12T12:06:57.000Z</time>
      </trkpt>
      <trkpt lat="47.16298" lon="5.88574">
        <ele>303.43</ele>
        <time>2015-07-12T12:06:59.000Z</time>
      </trkpt>
      <trkpt lat="47.16307" lon="5.88571">
        <ele>303.43</ele>
        <time>2015-07-12T12:07:01.000Z</time>
      </trkpt>
      <trkpt lat="47.16314" lon="5.88556">
        <ele>303.43</ele>
        <time>2015-07-12T12:07:04.000Z</time>
      </trkpt>
      <trkpt lat="47.16313" lon="5.88541">
        <ele>302.95</ele>
        <time>2015-07-12T12:07:07.000Z</time>
      </trkpt>
      <trkpt lat="47.16306" lon="5.88523">
        <ele>302.95</ele>
        <time>2015-07-12T12:07:10.000Z</time>
      </trkpt>
      <trkpt lat="47.16301" lon="5.88511">
        <ele>302.95</ele>
        <time>2015-07-12T12:07:12.000Z</time>
      </trkpt>
      <trkpt lat="47.16297" lon="5.88499">
        <ele>302.95</ele>
        <time>2015-07-12T12:07:14.000Z</time>
      </trkpt>
      <trkpt lat="47.16292" lon="5.88486">
        <ele>302.95</ele>
        <time>2015-07-12T12:07:16.000Z</time>
      </trkpt>
      <trkpt lat="47.16287" lon="5.88474">
        <ele>302.95</ele>
        <time>2015-07-12T12:07:18.000Z</time>
      </trkpt>
      <trkpt lat="47.16282" lon="5.88462">
        <ele>303.43</ele>
        <time>2015-07-12T12:07:20.000Z</time>
      </trkpt>
      <trkpt lat="47.16274" lon="5.88446">
        <ele>302.95</ele>
        <time>2015-07-12T12:07:23.000Z</time>
      </trkpt>
      <trkpt lat="47.16268" lon="5.88434">
        <ele>303.43</ele>
        <time>2015-07-12T12:07:25.000Z</time>
      </trkpt>
      <trkpt lat="47.16261" lon="5.88424">
        <ele>302.47</ele>
        <time>2015-07-12T12:07:27.000Z</time>
      </trkpt>
      <trkpt lat="47.16254" lon="5.88413">
        <ele>302.47</ele>
        <time>2015-07-12T12:07:29.000Z</time>
      </trkpt>
      <trkpt lat="47.16247" lon="5.88403">
        <ele>302.47</ele>
        <time>2015-07-12T12:07:31.000Z</time>
      </trkpt>
      <trkpt lat="47.16237" lon="5.8839">
        <ele>302.47</ele>
        <time>2015-07-12T12:07:34.000Z</time>
      </trkpt>
      <trkpt lat="47.16227" lon="5.88378">
        <ele>302.47</ele>
        <time>2015-07-12T12:07:37.000Z</time>
      </trkpt>
      <trkpt lat="47.1622" lon="5.8837">
        <ele>302.47</ele>
        <time>2015-07-12T12:07:39.000Z</time>
      </trkpt>
      <trkpt lat="47.16212" lon="5.88361">
        <ele>302.95</ele>
        <time>2015-07-12T12:07:41.000Z</time>
      </trkpt>
      <trkpt lat="47.16204" lon="5.88352">
        <ele>303.43</ele>
        <time>2015-07-12T12:07:43.000Z</time>
      </trkpt>
      <trkpt lat="47.16196" lon="5.88344">
        <ele>302.95</ele>
        <time>2015-07-12T12:07:45.000Z</time>
      </trkpt>
      <trkpt lat="47.16188" lon="5.88336">
        <ele>303.43</ele>
        <time>2015-07-12T12:07:47.000Z</time>
      </trkpt>
      <trkpt lat="47.16179" lon="5.88328">
        <ele>303.43</ele>
        <time>2015-07-12T12:07:49.000Z</time>
      </trkpt>
      <trkpt lat="47.16171" lon="5.88319">
        <ele>303.43</ele>
        <time>2015-07-12T12:07:51.000Z</time>
      </trkpt>
      <trkpt lat="47.16161" lon="5.88311">
        <ele>303.91</ele>
        <time>2015-07-12T12:07:53.000Z</time>
      </trkpt>
      <trkpt lat="47.16152" lon="5.88303">
        <ele>303.43</ele>
        <time>2015-07-12T12:07:55.000Z</time>
      </trkpt>
      <trkpt lat="47.16143" lon="5.88296">
        <ele>302.47</ele>
        <time>2015-07-12T12:07:57.000Z</time>
      </trkpt>
      <trkpt lat="47.16133" lon="5.88289">
        <ele>302.47</ele>
        <time>2015-07-12T12:07:59.000Z</time>
      </trkpt>
      <trkpt lat="47.16122" lon="5.88282">
        <ele>302.95</ele>
        <time>2015-07-12T12:08:01.000Z</time>
      </trkpt>
      <trkpt lat="47.16112" lon="5.88276">
        <ele>302.95</ele>
        <time>2015-07-12T12:08:03.000Z</time>
      </trkpt>
      <trkpt lat="47.16101" lon="5.8827">
        <ele>302.47</ele>
        <time>2015-07-12T12:08:05.000Z</time>
      </trkpt>
      <trkpt lat="47.16091" lon="5.88264">
        <ele>302.95</ele>
        <time>2015-07-12T12:08:07.000Z</time>
      </trkpt>
      <trkpt lat="47.1608" lon="5.8826">
        <ele>302.47</ele>
        <time>2015-07-12T12:08:09.000Z</time>
      </trkpt>
      <trkpt lat="47.16069" lon="5.88255">
        <ele>302.47</ele>
        <time>2015-07-12T12:08:11.000Z</time>
      </trkpt>
      <trkpt lat="47.16058" lon="5.88252">
        <ele>303.91</ele>
        <time>2015-07-12T12:08:13.000Z</time>
      </trkpt>
      <trkpt lat="47.16047" lon="5.88248">
        <ele>303.91</ele>
        <time>2015-07-12T12:08:15.000Z</time>
      </trkpt>
      <trkpt lat="47.16036" lon="5.88245">
        <ele>303.43</ele>
        <time>2015-07-12T12:08:17.000Z</time>
      </trkpt>
      <trkpt lat="47.16025" lon="5.88242">
        <ele>303.43</ele>
        <time>2015-07-12T12:08:19.000Z</time>
      </trkpt>
      <trkpt lat="47.16014" lon="5.88239">
        <ele>303.43</ele>
        <time>2015-07-12T12:08:21.000Z</time>
      </trkpt>
      <trkpt lat="47.16002" lon="5.88238">
        <ele>303.43</ele>
        <time>2015-07-12T12:08:23.000Z</time>
      </trkpt>
      <trkpt lat="47.15991" lon="5.88236">
        <ele>303.43</ele>
        <time>2015-07-12T12:08:25.000Z</time>
      </trkpt>
      <trkpt lat="47.1598" lon="5.88235">
        <ele>303.91</ele>
        <time>2015-07-12T12:08:27.000Z</time>
      </trkpt>
      <trkpt lat="47.15969" lon="5.88234">
        <ele>303.43</ele>
        <time>2015-07-12T12:08:29.000Z</time>
      </trkpt>
      <trkpt lat="47.15959" lon="5.88233">
        <ele>303.91</ele>
        <time>2015-07-12T12:08:31.000Z</time>
      </trkpt>
      <trkpt lat="47.15948" lon="5.88235">
        <ele>304.39</ele>
        <time>2015-07-12T12:08:33.000Z</time>
      </trkpt>
      <trkpt lat="47.15938" lon="5.88236">
        <ele>303.91</ele>
        <time>2015-07-12T12:08:35.000Z</time>
      </trkpt>
      <trkpt lat="47.15928" lon="5.88237">
        <ele>303.91</ele>
        <time>2015-07-12T12:08:37.000Z</time>
      </trkpt>
      <trkpt lat="47.15917" lon="5.88238">
        <ele>303.91</ele>
        <time>2015-07-12T12:08:39.000Z</time>
      </trkpt>
      <trkpt lat="47.15907" lon="5.8824">
        <ele>303.91</ele>
        <time>2015-07-12T12:08:41.000Z</time>
      </trkpt>
      <trkpt lat="47.15895" lon="5.88242">
        <ele>303.91</ele>
        <time>2015-07-12T12:08:43.000Z</time>
      </trkpt>
      <trkpt lat="47.15884" lon="5.88245">
        <ele>303.43</ele>
        <time>2015-07-12T12:08:45.000Z</time>
      </trkpt>
      <trkpt lat="47.15873" lon="5.88249">
        <ele>303.43</ele>
        <time>2015-07-12T12:08:47.000Z</time>
      </trkpt>
      <trkpt lat="47.15862" lon="5.88252">
        <ele>303.43</ele>
        <time>2015-07-12T12:08:49.000Z</time>
      </trkpt>
      <trkpt lat="47.1585" lon="5.88256">
        <ele>303.43</ele>
        <time>2015-07-12T12:08:51.000Z</time>
      </trkpt>
      <trkpt lat="47.15839" lon="5.88261">
        <ele>303.43</ele>
        <time>2015-07-12T12:08:53.000Z</time>
      </trkpt>
      <trkpt lat="47.15828" lon="5.88267">
        <ele>303.43</ele>
        <time>2015-07-12T12:08:55.000Z</time>
      </trkpt>
      <trkpt lat="47.15817" lon="5.88272">
        <ele>303.43</ele>
        <time>2015-07-12T12:08:57.000Z</time>
      </trkpt>
      <trkpt lat="47.15806" lon="5.88277">
        <ele>303.43</ele>
        <time>2015-07-12T12:08:59.000Z</time>
      </trkpt>
      <trkpt lat="47.15794" lon="5.88282">
        <ele>303.43</ele>
        <time>2015-07-12T12:09:01.000Z</time>
      </trkpt>
      <trkpt lat="47.15783" lon="5.88287">
        <ele>303.43</ele>
        <time>2015-07-12T12:09:03.000Z</time>
      </trkpt>
      <trkpt lat="47.15771" lon="5.88292">
        <ele>302.95</ele>
        <time>2015-07-12T12:09:05.000Z</time>
      </trkpt>
      <trkpt lat="47.15759" lon="5.88298">
        <ele>303.43</ele>
        <time>2015-07-12T12:09:07.000Z</time>
      </trkpt>
      <trkpt lat="47.15748" lon="5.88303">
        <ele>303.43</ele>
        <time>2015-07-12T12:09:09.000Z</time>
      </trkpt>
      <trkpt lat="47.15737" lon="5.88308">
        <ele>303.43</ele>
        <time>2015-07-12T12:09:11.000Z</time>
      </trkpt>
      <trkpt lat="47.15726" lon="5.88313">
        <ele>303.43</ele>
        <time>2015-07-12T12:09:13.000Z</time>
      </trkpt>
      <trkpt lat="47.15716" lon="5.88319">
        <ele>303.43</ele>
        <time>2015-07-12T12:09:15.000Z</time>
      </trkpt>
      <trkpt lat="47.15706" lon="5.88324">
        <ele>302.47</ele>
        <time>2015-07-12T12:09:17.000Z</time>
      </trkpt>
      <trkpt lat="47.15696" lon="5.88329">
        <ele>302.95</ele>
        <time>2015-07-12T12:09:19.000Z</time>
      </trkpt>
      <trkpt lat="47.15685" lon="5.88333">
        <ele>303.43</ele>
        <time>2015-07-12T12:09:21.000Z</time>
      </trkpt>
      <trkpt lat="47.15675" lon="5.88337">
        <ele>303.43</ele>
        <time>2015-07-12T12:09:23.000Z</time>
      </trkpt>
      <trkpt lat="47.15664" lon="5.8834">
        <ele>302.95</ele>
        <time>2015-07-12T12:09:25.000Z</time>
      </trkpt>
      <trkpt lat="47.15653" lon="5.88343">
        <ele>303.43</ele>
        <time>2015-07-12T12:09:27.000Z</time>
      </trkpt>
      <trkpt lat="47.15642" lon="5.88345">
        <ele>302.95</ele>
        <time>2015-07-12T12:09:29.000Z</time>
      </trkpt>
      <trkpt lat="47.15631" lon="5.88347">
        <ele>303.43</ele>
        <time>2015-07-12T12:09:31.000Z</time>
      </trkpt>
      <trkpt lat="47.1562" lon="5.88349">
        <ele>302.95</ele>
        <time>2015-07-12T12:09:33.000Z</time>
      </trkpt>
      <trkpt lat="47.15609" lon="5.8835">
        <ele>303.43</ele>
        <time>2015-07-12T12:09:35.000Z</time>
      </trkpt>
      <trkpt lat="47.15598" lon="5.8835">
        <ele>303.43</ele>
        <time>2015-07-12T12:09:37.000Z</time>
      </trkpt>
      <trkpt lat="47.15588" lon="5.88351">
        <ele>303.43</ele>
        <time>2015-07-12T12:09:39.000Z</time>
      </trkpt>
      <trkpt lat="47.15578" lon="5.88351">
        <ele>303.43</ele>
        <time>2015-07-12T12:09:41.000Z</time>
      </trkpt>
      <trkpt lat="47.15568" lon="5.88351">
        <ele>303.91</ele>
        <time>2015-07-12T12:09:43.000Z</time>
      </trkpt>
      <trkpt lat="47.15558" lon="5.88351">
        <ele>303.91</ele>
        <time>2015-07-12T12:09:45.000Z</time>
      </trkpt>
      <trkpt lat="47.15548" lon="5.88351">
        <ele>303.91</ele>
        <time>2015-07-12T12:09:47.000Z</time>
      </trkpt>
      <trkpt lat="47.15538" lon="5.88351">
        <ele>303.91</ele>
        <time>2015-07-12T12:09:49.000Z</time>
      </trkpt>
      <trkpt lat="47.15527" lon="5.88352">
        <ele>303.43</ele>
        <time>2015-07-12T12:09:51.000Z</time>
      </trkpt>
      <trkpt lat="47.15516" lon="5.88353">
        <ele>303.91</ele>
        <time>2015-07-12T12:09:53.000Z</time>
      </trkpt>
      <trkpt lat="47.15506" lon="5.88353">
        <ele>303.91</ele>
        <time>2015-07-12T12:09:55.000Z</time>
      </trkpt>
      <trkpt lat="47.15495" lon="5.88353">
        <ele>303.91</ele>
        <time>2015-07-12T12:09:57.000Z</time>
      </trkpt>
      <trkpt lat="47.15484" lon="5.88353">
        <ele>303.91</ele>
        <time>2015-07-12T12:09:59.000Z</time>
      </trkpt>
      <trkpt lat="47.15474" lon="5.88352">
        <ele>303.91</ele>
        <time>2015-07-12T12:10:01.000Z</time>
      </trkpt>
      <trkpt lat="47.15464" lon="5.88351">
        <ele>304.39</ele>
        <time>2015-07-12T12:10:03.000Z</time>
      </trkpt>
      <trkpt lat="47.15451" lon="5.8835">
        <ele>303.91</ele>
        <time>2015-07-12T12:10:06.000Z</time>
      </trkpt>
      <trkpt lat="47.15439" lon="5.88351">
        <ele>303.91</ele>
        <time>2015-07-12T12:10:09.000Z</time>
      </trkpt>
      <trkpt lat="47.15428" lon="5.88351">
        <ele>304.39</ele>
        <time>2015-07-12T12:10:12.000Z</time>
      </trkpt>
      <trkpt lat="47.15417" lon="5.88351">
        <ele>303.91</ele>
        <time>2015-07-12T12:10:15.000Z</time>
      </trkpt>
      <trkpt lat="47.15409" lon="5.88351">
        <ele>303.91</ele>
        <time>2015-07-12T12:10:50.000Z</time>
      </trkpt>
      <trkpt lat="47.15397" lon="5.88349">
        <ele>302.47</ele>
        <time>2015-07-12T12:10:55.000Z</time>
      </trkpt>
      <trkpt lat="47.15386" lon="5.88347">
        <ele>303.43</ele>
        <time>2015-07-12T12:10:59.000Z</time>
      </trkpt>
      <trkpt lat="47.15376" lon="5.88346">
        <ele>302.47</ele>
        <time>2015-07-12T12:11:02.000Z</time>
      </trkpt>
      <trkpt lat="47.15364" lon="5.88344">
        <ele>302.95</ele>
        <time>2015-07-12T12:11:05.000Z</time>
      </trkpt>
      <trkpt lat="47.15352" lon="5.88344">
        <ele>302.95</ele>
        <time>2015-07-12T12:11:08.000Z</time>
      </trkpt>
      <trkpt lat="47.15339" lon="5.88342">
        <ele>303.43</ele>
        <time>2015-07-12T12:11:11.000Z</time>
      </trkpt>
      <trkpt lat="47.15331" lon="5.88341">
        <ele>302.95</ele>
        <time>2015-07-12T12:11:13.000Z</time>
      </trkpt>
      <trkpt lat="47.15321" lon="5.88339">
        <ele>303.43</ele>
        <time>2015-07-12T12:11:15.000Z</time>
      </trkpt>
      <trkpt lat="47.15311" lon="5.88337">
        <ele>303.43</ele>
        <time>2015-07-12T12:11:17.000Z</time>
      </trkpt>
      <trkpt lat="47.15302" lon="5.88336">
        <ele>303.91</ele>
        <time>2015-07-12T12:11:19.000Z</time>
      </trkpt>
      <trkpt lat="47.15292" lon="5.88335">
        <ele>303.91</ele>
        <time>2015-07-12T12:11:21.000Z</time>
      </trkpt>
      <trkpt lat="47.15282" lon="5.88335">
        <ele>303.91</ele>
        <time>2015-07-12T12:11:23.000Z</time>
      </trkpt>
      <trkpt lat="47.15271" lon="5.88337">
        <ele>303.91</ele>
        <time>2015-07-12T12:11:25.000Z</time>
      </trkpt>
      <trkpt lat="47.15261" lon="5.88338">
        <ele>303.91</ele>
        <time>2015-07-12T12:11:27.000Z</time>
      </trkpt>
      <trkpt lat="47.15251" lon="5.88339">
        <ele>303.91</ele>
        <time>2015-07-12T12:11:29.000Z</time>
      </trkpt>
      <trkpt lat="47.1524" lon="5.88338">
        <ele>303.91</ele>
        <time>2015-07-12T12:11:31.000Z</time>
      </trkpt>
      <trkpt lat="47.1523" lon="5.88338">
        <ele>303.91</ele>
        <time>2015-07-12T12:11:33.000Z</time>
      </trkpt>
      <trkpt lat="47.1522" lon="5.88338">
        <ele>303.91</ele>
        <time>2015-07-12T12:11:35.000Z</time>
      </trkpt>
      <trkpt lat="47.1521" lon="5.88337">
        <ele>303.91</ele>
        <time>2015-07-12T12:11:37.000Z</time>
      </trkpt>
      <trkpt lat="47.15199" lon="5.88336">
        <ele>303.91</ele>
        <time>2015-07-12T12:11:39.000Z</time>
      </trkpt>
      <trkpt lat="47.15188" lon="5.88335">
        <ele>303.91</ele>
        <time>2015-07-12T12:11:41.000Z</time>
      </trkpt>
      <trkpt lat="47.15178" lon="5.88334">
        <ele>303.91</ele>
        <time>2015-07-12T12:11:43.000Z</time>
      </trkpt>
      <trkpt lat="47.15166" lon="5.88334">
        <ele>303.91</ele>
        <time>2015-07-12T12:11:45.000Z</time>
      </trkpt>
      <trkpt lat="47.15155" lon="5.88333">
        <ele>303.91</ele>
        <time>2015-07-12T12:11:47.000Z</time>
      </trkpt>
      <trkpt lat="47.15145" lon="5.88332">
        <ele>303.91</ele>
        <time>2015-07-12T12:11:49.000Z</time>
      </trkpt>
      <trkpt lat="47.15134" lon="5.88332">
        <ele>303.91</ele>
        <time>2015-07-12T12:11:51.000Z</time>
      </trkpt>
      <trkpt lat="47.15123" lon="5.88331">
        <ele>303.91</ele>
        <time>2015-07-12T12:11:53.000Z</time>
      </trkpt>
      <trkpt lat="47.15112" lon="5.8833">
        <ele>303.91</ele>
        <time>2015-07-12T12:11:55.000Z</time>
      </trkpt>
      <trkpt lat="47.15101" lon="5.88329">
        <ele>303.43</ele>
        <time>2015-07-12T12:11:57.000Z</time>
      </trkpt>
      <trkpt lat="47.1509" lon="5.88329">
        <ele>303.91</ele>
        <time>2015-07-12T12:11:59.000Z</time>
      </trkpt>
      <trkpt lat="47.15078" lon="5.88329">
        <ele>303.91</ele>
        <time>2015-07-12T12:12:01.000Z</time>
      </trkpt>
      <trkpt lat="47.15067" lon="5.88329">
        <ele>303.43</ele>
        <time>2015-07-12T12:12:03.000Z</time>
      </trkpt>
      <trkpt lat="47.15057" lon="5.88327">
        <ele>303.91</ele>
        <time>2015-07-12T12:12:05.000Z</time>
      </trkpt>
      <trkpt lat="47.15046" lon="5.88326">
        <ele>303.91</ele>
        <time>2015-07-12T12:12:07.000Z</time>
      </trkpt>
      <trkpt lat="47.15034" lon="5.88326">
        <ele>303.91</ele>
        <time>2015-07-12T12:12:09.000Z</time>
      </trkpt>
      <trkpt lat="47.15024" lon="5.88326">
        <ele>303.91</ele>
        <time>2015-07-12T12:12:11.000Z</time>
      </trkpt>
      <trkpt lat="47.15014" lon="5.88326">
        <ele>303.91</ele>
        <time>2015-07-12T12:12:13.000Z</time>
      </trkpt>
      <trkpt lat="47.15003" lon="5.88326">
        <ele>303.91</ele>
        <time>2015-07-12T12:12:15.000Z</time>
      </trkpt>
      <trkpt lat="47.14993" lon="5.88325">
        <ele>303.43</ele>
        <time>2015-07-12T12:12:17.000Z</time>
      </trkpt>
      <trkpt lat="47.14981" lon="5.88324">
        <ele>303.43</ele>
        <time>2015-07-12T12:12:19.000Z</time>
      </trkpt>
      <trkpt lat="47.14971" lon="5.88324">
        <ele>303.43</ele>
        <time>2015-07-12T12:12:21.000Z</time>
      </trkpt>
      <trkpt lat="47.1496" lon="5.88323">
        <ele>303.43</ele>
        <time>2015-07-12T12:12:23.000Z</time>
      </trkpt>
      <trkpt lat="47.14949" lon="5.88322">
        <ele>303.43</ele>
        <time>2015-07-12T12:12:25.000Z</time>
      </trkpt>
      <trkpt lat="47.14938" lon="5.88321">
        <ele>303.43</ele>
        <time>2015-07-12T12:12:27.000Z</time>
      </trkpt>
      <trkpt lat="47.14926" lon="5.88321">
        <ele>303.43</ele>
        <time>2015-07-12T12:12:29.000Z</time>
      </trkpt>
      <trkpt lat="47.14914" lon="5.8832">
        <ele>303.43</ele>
        <time>2015-07-12T12:12:31.000Z</time>
      </trkpt>
      <trkpt lat="47.14902" lon="5.8832">
        <ele>303.43</ele>
        <time>2015-07-12T12:12:33.000Z</time>
      </trkpt>
      <trkpt lat="47.14891" lon="5.88319">
        <ele>302.95</ele>
        <time>2015-07-12T12:12:35.000Z</time>
      </trkpt>
      <trkpt lat="47.1488" lon="5.88319">
        <ele>303.43</ele>
        <time>2015-07-12T12:12:37.000Z</time>
      </trkpt>
      <trkpt lat="47.14869" lon="5.88318">
        <ele>303.43</ele>
        <time>2015-07-12T12:12:39.000Z</time>
      </trkpt>
      <trkpt lat="47.14858" lon="5.88318">
        <ele>303.43</ele>
        <time>2015-07-12T12:12:41.000Z</time>
      </trkpt>
      <trkpt lat="47.14847" lon="5.88317">
        <ele>303.43</ele>
        <time>2015-07-12T12:12:43.000Z</time>
      </trkpt>
      <trkpt lat="47.14837" lon="5.88316">
        <ele>303.43</ele>
        <time>2015-07-12T12:12:45.000Z</time>
      </trkpt>
      <trkpt lat="47.14826" lon="5.88313">
        <ele>303.43</ele>
        <time>2015-07-12T12:12:47.000Z</time>
      </trkpt>
      <trkpt lat="47.14815" lon="5.88308">
        <ele>302.95</ele>
        <time>2015-07-12T12:12:49.000Z</time>
      </trkpt>
      <trkpt lat="47.14804" lon="5.88303">
        <ele>302.95</ele>
        <time>2015-07-12T12:12:51.000Z</time>
      </trkpt>
      <trkpt lat="47.14793" lon="5.88295">
        <ele>303.43</ele>
        <time>2015-07-12T12:12:53.000Z</time>
      </trkpt>
      <trkpt lat="47.14782" lon="5.88288">
        <ele>303.43</ele>
        <time>2015-07-12T12:12:55.000Z</time>
      </trkpt>
      <trkpt lat="47.14772" lon="5.8828">
        <ele>302.95</ele>
        <time>2015-07-12T12:12:57.000Z</time>
      </trkpt>
      <trkpt lat="47.14762" lon="5.88271">
        <ele>302.95</ele>
        <time>2015-07-12T12:12:59.000Z</time>
      </trkpt>
      <trkpt lat="47.14752" lon="5.88263">
        <ele>302.95</ele>
        <time>2015-07-12T12:13:01.000Z</time>
      </trkpt>
      <trkpt lat="47.14742" lon="5.88254">
        <ele>303.43</ele>
        <time>2015-07-12T12:13:03.000Z</time>
      </trkpt>
      <trkpt lat="47.14732" lon="5.88245">
        <ele>303.43</ele>
        <time>2015-07-12T12:13:05.000Z</time>
      </trkpt>
      <trkpt lat="47.14722" lon="5.88237">
        <ele>302.95</ele>
        <time>2015-07-12T12:13:07.000Z</time>
      </trkpt>
      <trkpt lat="47.14713" lon="5.88228">
        <ele>303.43</ele>
        <time>2015-07-12T12:13:09.000Z</time>
      </trkpt>
      <trkpt lat="47.14704" lon="5.88219">
        <ele>302.95</ele>
        <time>2015-07-12T12:13:11.000Z</time>
      </trkpt>
      <trkpt lat="47.14695" lon="5.88211">
        <ele>302.95</ele>
        <time>2015-07-12T12:13:13.000Z</time>
      </trkpt>
      <trkpt lat="47.14685" lon="5.88202">
        <ele>301.99</ele>
        <time>2015-07-12T12:13:15.000Z</time>
      </trkpt>
      <trkpt lat="47.14676" lon="5.88192">
        <ele>301.99</ele>
        <time>2015-07-12T12:13:17.000Z</time>
      </trkpt>
      <trkpt lat="47.14666" lon="5.88183">
        <ele>301.99</ele>
        <time>2015-07-12T12:13:19.000Z</time>
      </trkpt>
      <trkpt lat="47.14656" lon="5.88175">
        <ele>301.99</ele>
        <time>2015-07-12T12:13:21.000Z</time>
      </trkpt>
      <trkpt lat="47.14647" lon="5.88166">
        <ele>302.47</ele>
        <time>2015-07-12T12:13:23.000Z</time>
      </trkpt>
      <trkpt lat="47.14638" lon="5.88158">
        <ele>301.99</ele>
        <time>2015-07-12T12:13:25.000Z</time>
      </trkpt>
      <trkpt lat="47.14628" lon="5.88149">
        <ele>302.47</ele>
        <time>2015-07-12T12:13:27.000Z</time>
      </trkpt>
      <trkpt lat="47.14619" lon="5.8814">
        <ele>303.43</ele>
        <time>2015-07-12T12:13:29.000Z</time>
      </trkpt>
      <trkpt lat="47.1461" lon="5.88131">
        <ele>302.95</ele>
        <time>2015-07-12T12:13:31.000Z</time>
      </trkpt>
      <trkpt lat="47.146" lon="5.88122">
        <ele>302.95</ele>
        <time>2015-07-12T12:13:33.000Z</time>
      </trkpt>
      <trkpt lat="47.1459" lon="5.88113">
        <ele>303.43</ele>
        <time>2015-07-12T12:13:35.000Z</time>
      </trkpt>
      <trkpt lat="47.14581" lon="5.88104">
        <ele>302.95</ele>
        <time>2015-07-12T12:13:37.000Z</time>
      </trkpt>
      <trkpt lat="47.14572" lon="5.88095">
        <ele>302.95</ele>
        <time>2015-07-12T12:13:39.000Z</time>
      </trkpt>
      <trkpt lat="47.14562" lon="5.88086">
        <ele>303.43</ele>
        <time>2015-07-12T12:13:41.000Z</time>
      </trkpt>
      <trkpt lat="47.14552" lon="5.88077">
        <ele>302.95</ele>
        <time>2015-07-12T12:13:43.000Z</time>
      </trkpt>
      <trkpt lat="47.14543" lon="5.88068">
        <ele>303.43</ele>
        <time>2015-07-12T12:13:45.000Z</time>
      </trkpt>
      <trkpt lat="47.14533" lon="5.88059">
        <ele>303.43</ele>
        <time>2015-07-12T12:13:47.000Z</time>
      </trkpt>
      <trkpt lat="47.14524" lon="5.8805">
        <ele>303.43</ele>
        <time>2015-07-12T12:13:49.000Z</time>
      </trkpt>
      <trkpt lat="47.14515" lon="5.8804">
        <ele>303.43</ele>
        <time>2015-07-12T12:13:51.000Z</time>
      </trkpt>
      <trkpt lat="47.14505" lon="5.88031">
        <ele>303.43</ele>
        <time>2015-07-12T12:13:53.000Z</time>
      </trkpt>
      <trkpt lat="47.14496" lon="5.8802">
        <ele>303.43</ele>
        <time>2015-07-12T12:13:55.000Z</time>
      </trkpt>
      <trkpt lat="47.14487" lon="5.88009">
        <ele>302.95</ele>
        <time>2015-07-12T12:13:57.000Z</time>
      </trkpt>
      <trkpt lat="47.14479" lon="5.87997">
        <ele>303.43</ele>
        <time>2015-07-12T12:13:59.000Z</time>
      </trkpt>
      <trkpt lat="47.14472" lon="5.87984">
        <ele>302.95</ele>
        <time>2015-07-12T12:14:01.000Z</time>
      </trkpt>
      <trkpt lat="47.14467" lon="5.8797">
        <ele>302.95</ele>
        <time>2015-07-12T12:14:03.000Z</time>
      </trkpt>
      <trkpt lat="47.14461" lon="5.87956">
        <ele>302.95</ele>
        <time>2015-07-12T12:14:05.000Z</time>
      </trkpt>
      <trkpt lat="47.14455" lon="5.87941">
        <ele>303.43</ele>
        <time>2015-07-12T12:14:07.000Z</time>
      </trkpt>
      <trkpt lat="47.14449" lon="5.87928">
        <ele>302.95</ele>
        <time>2015-07-12T12:14:09.000Z</time>
      </trkpt>
      <trkpt lat="47.14443" lon="5.87915">
        <ele>302.95</ele>
        <time>2015-07-12T12:14:11.000Z</time>
      </trkpt>
      <trkpt lat="47.14437" lon="5.87901">
        <ele>302.95</ele>
        <time>2015-07-12T12:14:13.000Z</time>
      </trkpt>
      <trkpt lat="47.14432" lon="5.87888">
        <ele>303.43</ele>
        <time>2015-07-12T12:14:15.000Z</time>
      </trkpt>
      <trkpt lat="47.14426" lon="5.87874">
        <ele>303.43</ele>
        <time>2015-07-12T12:14:17.000Z</time>
      </trkpt>
      <trkpt lat="47.14421" lon="5.8786">
        <ele>302.95</ele>
        <time>2015-07-12T12:14:19.000Z</time>
      </trkpt>
      <trkpt lat="47.14415" lon="5.87847">
        <ele>302.95</ele>
        <time>2015-07-12T12:14:21.000Z</time>
      </trkpt>
      <trkpt lat="47.14409" lon="5.87834">
        <ele>302.95</ele>
        <time>2015-07-12T12:14:23.000Z</time>
      </trkpt>
      <trkpt lat="47.14403" lon="5.8782">
        <ele>302.47</ele>
        <time>2015-07-12T12:14:25.000Z</time>
      </trkpt>
      <trkpt lat="47.14397" lon="5.87807">
        <ele>302.47</ele>
        <time>2015-07-12T12:14:27.000Z</time>
      </trkpt>
      <trkpt lat="47.14392" lon="5.87794">
        <ele>302.47</ele>
        <time>2015-07-12T12:14:29.000Z</time>
      </trkpt>
      <trkpt lat="47.14386" lon="5.87781">
        <ele>302.47</ele>
        <time>2015-07-12T12:14:31.000Z</time>
      </trkpt>
      <trkpt lat="47.1438" lon="5.87768">
        <ele>302.47</ele>
        <time>2015-07-12T12:14:33.000Z</time>
      </trkpt>
      <trkpt lat="47.14375" lon="5.87754">
        <ele>302.47</ele>
        <time>2015-07-12T12:14:35.000Z</time>
      </trkpt>
      <trkpt lat="47.14369" lon="5.87739">
        <ele>302.47</ele>
        <time>2015-07-12T12:14:37.000Z</time>
      </trkpt>
      <trkpt lat="47.14363" lon="5.87725">
        <ele>302.47</ele>
        <time>2015-07-12T12:14:39.000Z</time>
      </trkpt>
      <trkpt lat="47.14357" lon="5.87711">
        <ele>302.47</ele>
        <time>2015-07-12T12:14:41.000Z</time>
      </trkpt>
      <trkpt lat="47.14351" lon="5.87696">
        <ele>302.95</ele>
        <time>2015-07-12T12:14:43.000Z</time>
      </trkpt>
      <trkpt lat="47.14346" lon="5.87681">
        <ele>302.95</ele>
        <time>2015-07-12T12:14:45.000Z</time>
      </trkpt>
      <trkpt lat="47.14339" lon="5.87667">
        <ele>302.47</ele>
        <time>2015-07-12T12:14:47.000Z</time>
      </trkpt>
      <trkpt lat="47.14334" lon="5.87652">
        <ele>302.47</ele>
        <time>2015-07-12T12:14:49.000Z</time>
      </trkpt>
      <trkpt lat="47.14328" lon="5.87638">
        <ele>302.47</ele>
        <time>2015-07-12T12:14:51.000Z</time>
      </trkpt>
      <trkpt lat="47.14322" lon="5.87624">
        <ele>302.47</ele>
        <time>2015-07-12T12:14:53.000Z</time>
      </trkpt>
      <trkpt lat="47.14316" lon="5.87609">
        <ele>302.47</ele>
        <time>2015-07-12T12:14:55.000Z</time>
      </trkpt>
      <trkpt lat="47.1431" lon="5.87595">
        <ele>302.47</ele>
        <time>2015-07-12T12:14:57.000Z</time>
      </trkpt>
      <trkpt lat="47.14304" lon="5.87581">
        <ele>301.99</ele>
        <time>2015-07-12T12:14:59.000Z</time>
      </trkpt>
      <trkpt lat="47.14298" lon="5.87567">
        <ele>302.47</ele>
        <time>2015-07-12T12:15:01.000Z</time>
      </trkpt>
      <trkpt lat="47.14292" lon="5.87553">
        <ele>302.47</ele>
        <time>2015-07-12T12:15:03.000Z</time>
      </trkpt>
      <trkpt lat="47.14286" lon="5.87539">
        <ele>302.47</ele>
        <time>2015-07-12T12:15:05.000Z</time>
      </trkpt>
      <trkpt lat="47.14281" lon="5.87526">
        <ele>302.47</ele>
        <time>2015-07-12T12:15:07.000Z</time>
      </trkpt>
      <trkpt lat="47.14275" lon="5.87512">
        <ele>302.47</ele>
        <time>2015-07-12T12:15:09.000Z</time>
      </trkpt>
      <trkpt lat="47.14269" lon="5.87498">
        <ele>302.95</ele>
        <time>2015-07-12T12:15:11.000Z</time>
      </trkpt>
      <trkpt lat="47.14264" lon="5.87485">
        <ele>302.95</ele>
        <time>2015-07-12T12:15:13.000Z</time>
      </trkpt>
      <trkpt lat="47.14259" lon="5.87471">
        <ele>302.95</ele>
        <time>2015-07-12T12:15:15.000Z</time>
      </trkpt>
      <trkpt lat="47.14253" lon="5.87458">
        <ele>302.95</ele>
        <time>2015-07-12T12:15:17.000Z</time>
      </trkpt>
      <trkpt lat="47.14247" lon="5.87444">
        <ele>302.95</ele>
        <time>2015-07-12T12:15:19.000Z</time>
      </trkpt>
      <trkpt lat="47.14241" lon="5.8743">
        <ele>302.47</ele>
        <time>2015-07-12T12:15:21.000Z</time>
      </trkpt>
      <trkpt lat="47.14236" lon="5.87417">
        <ele>302.47</ele>
        <time>2015-07-12T12:15:23.000Z</time>
      </trkpt>
      <trkpt lat="47.1423" lon="5.87403">
        <ele>302.47</ele>
        <time>2015-07-12T12:15:25.000Z</time>
      </trkpt>
      <trkpt lat="47.14225" lon="5.8739">
        <ele>302.47</ele>
        <time>2015-07-12T12:15:27.000Z</time>
      </trkpt>
      <trkpt lat="47.14219" lon="5.87378">
        <ele>301.99</ele>
        <time>2015-07-12T12:15:29.000Z</time>
      </trkpt>
      <trkpt lat="47.14214" lon="5.87365">
        <ele>301.99</ele>
        <time>2015-07-12T12:15:31.000Z</time>
      </trkpt>
      <trkpt lat="47.14209" lon="5.87353">
        <ele>301.99</ele>
        <time>2015-07-12T12:15:33.000Z</time>
      </trkpt>
      <trkpt lat="47.14202" lon="5.87344">
        <ele>301.99</ele>
        <time>2015-07-12T12:15:35.000Z</time>
      </trkpt>
      <trkpt lat="47.14195" lon="5.87335">
        <ele>301.99</ele>
        <time>2015-07-12T12:15:37.000Z</time>
      </trkpt>
      <trkpt lat="47.14188" lon="5.87321">
        <ele>302.47</ele>
        <time>2015-07-12T12:15:40.000Z</time>
      </trkpt>
      <trkpt lat="47.14184" lon="5.87308">
        <ele>302.47</ele>
        <time>2015-07-12T12:15:42.000Z</time>
      </trkpt>
      <trkpt lat="47.14182" lon="5.87295">
        <ele>302.47</ele>
        <time>2015-07-12T12:15:44.000Z</time>
      </trkpt>
      <trkpt lat="47.14178" lon="5.87282">
        <ele>302.95</ele>
        <time>2015-07-12T12:15:46.000Z</time>
      </trkpt>
      <trkpt lat="47.14174" lon="5.87268">
        <ele>302.47</ele>
        <time>2015-07-12T12:15:48.000Z</time>
      </trkpt>
      <trkpt lat="47.14169" lon="5.87253">
        <ele>302.47</ele>
        <time>2015-07-12T12:15:50.000Z</time>
      </trkpt>
      <trkpt lat="47.14164" lon="5.87239">
        <ele>302.47</ele>
        <time>2015-07-12T12:15:52.000Z</time>
      </trkpt>
      <trkpt lat="47.14159" lon="5.87225">
        <ele>302.47</ele>
        <time>2015-07-12T12:15:54.000Z</time>
      </trkpt>
      <trkpt lat="47.14154" lon="5.87212">
        <ele>302.47</ele>
        <time>2015-07-12T12:15:56.000Z</time>
      </trkpt>
      <trkpt lat="47.1415" lon="5.87198">
        <ele>302.47</ele>
        <time>2015-07-12T12:15:58.000Z</time>
      </trkpt>
      <trkpt lat="47.14145" lon="5.87184">
        <ele>302.47</ele>
        <time>2015-07-12T12:16:00.000Z</time>
      </trkpt>
      <trkpt lat="47.1414" lon="5.87171">
        <ele>302.47</ele>
        <time>2015-07-12T12:16:02.000Z</time>
      </trkpt>
      <trkpt lat="47.14135" lon="5.87158">
        <ele>302.95</ele>
        <time>2015-07-12T12:16:04.000Z</time>
      </trkpt>
      <trkpt lat="47.1413" lon="5.87145">
        <ele>302.47</ele>
        <time>2015-07-12T12:16:06.000Z</time>
      </trkpt>
      <trkpt lat="47.14126" lon="5.87131">
        <ele>302.47</ele>
        <time>2015-07-12T12:16:08.000Z</time>
      </trkpt>
      <trkpt lat="47.14121" lon="5.87118">
        <ele>301.99</ele>
        <time>2015-07-12T12:16:10.000Z</time>
      </trkpt>
      <trkpt lat="47.14117" lon="5.87105">
        <ele>302.47</ele>
        <time>2015-07-12T12:16:12.000Z</time>
      </trkpt>
      <trkpt lat="47.14112" lon="5.87091">
        <ele>302.47</ele>
        <time>2015-07-12T12:16:14.000Z</time>
      </trkpt>
      <trkpt lat="47.14108" lon="5.87078">
        <ele>302.47</ele>
        <time>2015-07-12T12:16:16.000Z</time>
      </trkpt>
      <trkpt lat="47.14104" lon="5.87064">
        <ele>302.47</ele>
        <time>2015-07-12T12:16:18.000Z</time>
      </trkpt>
      <trkpt lat="47.14099" lon="5.87052">
        <ele>302.95</ele>
        <time>2015-07-12T12:16:20.000Z</time>
      </trkpt>
      <trkpt lat="47.14092" lon="5.87039">
        <ele>303.91</ele>
        <time>2015-07-12T12:16:23.000Z</time>
      </trkpt>
      <trkpt lat="47.14086" lon="5.87028">
        <ele>304.88</ele>
        <time>2015-07-12T12:16:26.000Z</time>
      </trkpt>
      <trkpt lat="47.1408" lon="5.87015">
        <ele>304.88</ele>
        <time>2015-07-12T12:16:30.000Z</time>
      </trkpt>
      <trkpt lat="47.14074" lon="5.87001">
        <ele>304.88</ele>
        <time>2015-07-12T12:16:33.000Z</time>
      </trkpt>
      <trkpt lat="47.1407" lon="5.86988">
        <ele>303.91</ele>
        <time>2015-07-12T12:16:35.000Z</time>
      </trkpt>
      <trkpt lat="47.14065" lon="5.86973">
        <ele>303.43</ele>
        <time>2015-07-12T12:16:37.000Z</time>
      </trkpt>
      <trkpt lat="47.1406" lon="5.86957">
        <ele>302.47</ele>
        <time>2015-07-12T12:16:39.000Z</time>
      </trkpt>
      <trkpt lat="47.14055" lon="5.86941">
        <ele>302.47</ele>
        <time>2015-07-12T12:16:41.000Z</time>
      </trkpt>
      <trkpt lat="47.1405" lon="5.86926">
        <ele>302.47</ele>
        <time>2015-07-12T12:16:43.000Z</time>
      </trkpt>
      <trkpt lat="47.14045" lon="5.86913">
        <ele>301.99</ele>
        <time>2015-07-12T12:16:45.000Z</time>
      </trkpt>
      <trkpt lat="47.1404" lon="5.869">
        <ele>302.47</ele>
        <time>2015-07-12T12:16:47.000Z</time>
      </trkpt>
      <trkpt lat="47.14037" lon="5.86887">
        <ele>301.99</ele>
        <time>2015-07-12T12:16:49.000Z</time>
      </trkpt>
      <trkpt lat="47.14032" lon="5.86873">
        <ele>302.47</ele>
        <time>2015-07-12T12:16:51.000Z</time>
      </trkpt>
      <trkpt lat="47.14028" lon="5.8686">
        <ele>302.47</ele>
        <time>2015-07-12T12:16:53.000Z</time>
      </trkpt>
      <trkpt lat="47.14021" lon="5.86842">
        <ele>303.43</ele>
        <time>2015-07-12T12:16:56.000Z</time>
      </trkpt>
      <trkpt lat="47.14018" lon="5.8683">
        <ele>302.95</ele>
        <time>2015-07-12T12:16:58.000Z</time>
      </trkpt>
      <trkpt lat="47.14015" lon="5.86811">
        <ele>302.95</ele>
        <time>2015-07-12T12:17:01.000Z</time>
      </trkpt>
      <trkpt lat="47.14013" lon="5.86798">
        <ele>302.95</ele>
        <time>2015-07-12T12:17:03.000Z</time>
      </trkpt>
      <trkpt lat="47.1401" lon="5.86784">
        <ele>303.43</ele>
        <time>2015-07-12T12:17:05.000Z</time>
      </trkpt>
      <trkpt lat="47.14008" lon="5.86771">
        <ele>302.95</ele>
        <time>2015-07-12T12:17:07.000Z</time>
      </trkpt>
      <trkpt lat="47.14006" lon="5.86757">
        <ele>302.95</ele>
        <time>2015-07-12T12:17:09.000Z</time>
      </trkpt>
      <trkpt lat="47.14003" lon="5.86738">
        <ele>302.95</ele>
        <time>2015-07-12T12:17:12.000Z</time>
      </trkpt>
      <trkpt lat="47.13997" lon="5.86719">
        <ele>302.95</ele>
        <time>2015-07-12T12:17:15.000Z</time>
      </trkpt>
      <trkpt lat="47.13992" lon="5.867">
        <ele>302.95</ele>
        <time>2015-07-12T12:17:18.000Z</time>
      </trkpt>
      <trkpt lat="47.13988" lon="5.86687">
        <ele>302.47</ele>
        <time>2015-07-12T12:17:20.000Z</time>
      </trkpt>
      <trkpt lat="47.13984" lon="5.86673">
        <ele>302.47</ele>
        <time>2015-07-12T12:17:22.000Z</time>
      </trkpt>
      <trkpt lat="47.1398" lon="5.86659">
        <ele>302.47</ele>
        <time>2015-07-12T12:17:24.000Z</time>
      </trkpt>
      <trkpt lat="47.13976" lon="5.86646">
        <ele>302.47</ele>
        <time>2015-07-12T12:17:26.000Z</time>
      </trkpt>
      <trkpt lat="47.13973" lon="5.86633">
        <ele>302.47</ele>
        <time>2015-07-12T12:17:28.000Z</time>
      </trkpt>
      <trkpt lat="47.13969" lon="5.8662">
        <ele>301.99</ele>
        <time>2015-07-12T12:17:30.000Z</time>
      </trkpt>
      <trkpt lat="47.13965" lon="5.86607">
        <ele>302.47</ele>
        <time>2015-07-12T12:17:32.000Z</time>
      </trkpt>
      <trkpt lat="47.13962" lon="5.86593">
        <ele>302.95</ele>
        <time>2015-07-12T12:17:34.000Z</time>
      </trkpt>
      <trkpt lat="47.13959" lon="5.8658">
        <ele>302.47</ele>
        <time>2015-07-12T12:17:36.000Z</time>
      </trkpt>
      <trkpt lat="47.13956" lon="5.86567">
        <ele>302.47</ele>
        <time>2015-07-12T12:17:38.000Z</time>
      </trkpt>
      <trkpt lat="47.13952" lon="5.86554">
        <ele>301.99</ele>
        <time>2015-07-12T12:17:40.000Z</time>
      </trkpt>
      <trkpt lat="47.13948" lon="5.8654">
        <ele>302.47</ele>
        <time>2015-07-12T12:17:42.000Z</time>
      </trkpt>
      <trkpt lat="47.13945" lon="5.86526">
        <ele>302.95</ele>
        <time>2015-07-12T12:17:44.000Z</time>
      </trkpt>
      <trkpt lat="47.13942" lon="5.86513">
        <ele>303.43</ele>
        <time>2015-07-12T12:17:46.000Z</time>
      </trkpt>
      <trkpt lat="47.13939" lon="5.865">
        <ele>302.95</ele>
        <time>2015-07-12T12:17:48.000Z</time>
      </trkpt>
      <trkpt lat="47.13936" lon="5.86486">
        <ele>302.47</ele>
        <time>2015-07-12T12:17:50.000Z</time>
      </trkpt>
      <trkpt lat="47.13932" lon="5.86472">
        <ele>302.47</ele>
        <time>2015-07-12T12:17:52.000Z</time>
      </trkpt>
      <trkpt lat="47.13929" lon="5.86458">
        <ele>302.95</ele>
        <time>2015-07-12T12:17:54.000Z</time>
      </trkpt>
      <trkpt lat="47.13926" lon="5.86445">
        <ele>302.47</ele>
        <time>2015-07-12T12:17:56.000Z</time>
      </trkpt>
      <trkpt lat="47.13924" lon="5.86431">
        <ele>302.47</ele>
        <time>2015-07-12T12:17:58.000Z</time>
      </trkpt>
      <trkpt lat="47.1392" lon="5.86417">
        <ele>302.47</ele>
        <time>2015-07-12T12:18:00.000Z</time>
      </trkpt>
      <trkpt lat="47.13917" lon="5.86403">
        <ele>302.95</ele>
        <time>2015-07-12T12:18:02.000Z</time>
      </trkpt>
      <trkpt lat="47.13913" lon="5.86389">
        <ele>302.95</ele>
        <time>2015-07-12T12:18:04.000Z</time>
      </trkpt>
      <trkpt lat="47.13909" lon="5.86376">
        <ele>302.95</ele>
        <time>2015-07-12T12:18:06.000Z</time>
      </trkpt>
      <trkpt lat="47.13905" lon="5.86362">
        <ele>302.47</ele>
        <time>2015-07-12T12:18:08.000Z</time>
      </trkpt>
      <trkpt lat="47.13903" lon="5.86348">
        <ele>302.47</ele>
        <time>2015-07-12T12:18:10.000Z</time>
      </trkpt>
      <trkpt lat="47.139" lon="5.86334">
        <ele>302.95</ele>
        <time>2015-07-12T12:18:12.000Z</time>
      </trkpt>
      <trkpt lat="47.13897" lon="5.86319">
        <ele>302.95</ele>
        <time>2015-07-12T12:18:14.000Z</time>
      </trkpt>
      <trkpt lat="47.13895" lon="5.86304">
        <ele>302.95</ele>
        <time>2015-07-12T12:18:16.000Z</time>
      </trkpt>
      <trkpt lat="47.13893" lon="5.8629">
        <ele>302.95</ele>
        <time>2015-07-12T12:18:18.000Z</time>
      </trkpt>
      <trkpt lat="47.13892" lon="5.86275">
        <ele>302.95</ele>
        <time>2015-07-12T12:18:20.000Z</time>
      </trkpt>
      <trkpt lat="47.13892" lon="5.8626">
        <ele>302.95</ele>
        <time>2015-07-12T12:18:22.000Z</time>
      </trkpt>
      <trkpt lat="47.13892" lon="5.86244">
        <ele>302.95</ele>
        <time>2015-07-12T12:18:24.000Z</time>
      </trkpt>
      <trkpt lat="47.13893" lon="5.86229">
        <ele>302.95</ele>
        <time>2015-07-12T12:18:26.000Z</time>
      </trkpt>
      <trkpt lat="47.13895" lon="5.86214">
        <ele>303.43</ele>
        <time>2015-07-12T12:18:28.000Z</time>
      </trkpt>
      <trkpt lat="47.13896" lon="5.86199">
        <ele>302.95</ele>
        <time>2015-07-12T12:18:30.000Z</time>
      </trkpt>
      <trkpt lat="47.13897" lon="5.86184">
        <ele>302.95</ele>
        <time>2015-07-12T12:18:32.000Z</time>
      </trkpt>
      <trkpt lat="47.13899" lon="5.86169">
        <ele>302.95</ele>
        <time>2015-07-12T12:18:34.000Z</time>
      </trkpt>
      <trkpt lat="47.139" lon="5.86156">
        <ele>302.95</ele>
        <time>2015-07-12T12:18:36.000Z</time>
      </trkpt>
      <trkpt lat="47.13902" lon="5.86141">
        <ele>302.95</ele>
        <time>2015-07-12T12:18:38.000Z</time>
      </trkpt>
      <trkpt lat="47.13903" lon="5.86127">
        <ele>302.95</ele>
        <time>2015-07-12T12:18:40.000Z</time>
      </trkpt>
      <trkpt lat="47.13905" lon="5.86112">
        <ele>302.95</ele>
        <time>2015-07-12T12:18:42.000Z</time>
      </trkpt>
      <trkpt lat="47.13906" lon="5.86098">
        <ele>302.47</ele>
        <time>2015-07-12T12:18:44.000Z</time>
      </trkpt>
      <trkpt lat="47.13907" lon="5.86082">
        <ele>302.95</ele>
        <time>2015-07-12T12:18:46.000Z</time>
      </trkpt>
      <trkpt lat="47.13909" lon="5.86067">
        <ele>302.95</ele>
        <time>2015-07-12T12:18:48.000Z</time>
      </trkpt>
      <trkpt lat="47.1391" lon="5.86053">
        <ele>302.95</ele>
        <time>2015-07-12T12:18:50.000Z</time>
      </trkpt>
      <trkpt lat="47.13911" lon="5.86038">
        <ele>302.95</ele>
        <time>2015-07-12T12:18:52.000Z</time>
      </trkpt>
      <trkpt lat="47.13913" lon="5.86023">
        <ele>302.95</ele>
        <time>2015-07-12T12:18:54.000Z</time>
      </trkpt>
      <trkpt lat="47.13914" lon="5.86008">
        <ele>302.95</ele>
        <time>2015-07-12T12:18:56.000Z</time>
      </trkpt>
      <trkpt lat="47.13915" lon="5.85993">
        <ele>302.95</ele>
        <time>2015-07-12T12:18:58.000Z</time>
      </trkpt>
      <trkpt lat="47.13916" lon="5.85979">
        <ele>302.95</ele>
        <time>2015-07-12T12:19:00.000Z</time>
      </trkpt>
      <trkpt lat="47.13918" lon="5.85966">
        <ele>302.95</ele>
        <time>2015-07-12T12:19:02.000Z</time>
      </trkpt>
      <trkpt lat="47.13919" lon="5.85953">
        <ele>302.95</ele>
        <time>2015-07-12T12:19:04.000Z</time>
      </trkpt>
      <trkpt lat="47.1392" lon="5.8594">
        <ele>302.47</ele>
        <time>2015-07-12T12:19:06.000Z</time>
      </trkpt>
      <trkpt lat="47.13921" lon="5.85926">
        <ele>302.95</ele>
        <time>2015-07-12T12:19:08.000Z</time>
      </trkpt>
      <trkpt lat="47.13921" lon="5.85909">
        <ele>302.47</ele>
        <time>2015-07-12T12:19:11.000Z</time>
      </trkpt>
      <trkpt lat="47.1392" lon="5.85894">
        <ele>302.47</ele>
        <time>2015-07-12T12:19:14.000Z</time>
      </trkpt>
      <trkpt lat="47.13921" lon="5.85881">
        <ele>301.99</ele>
        <time>2015-07-12T12:19:17.000Z</time>
      </trkpt>
      <trkpt lat="47.13925" lon="5.85867">
        <ele>301.99</ele>
        <time>2015-07-12T12:19:20.000Z</time>
      </trkpt>
      <trkpt lat="47.13928" lon="5.85854">
        <ele>301.99</ele>
        <time>2015-07-12T12:19:23.000Z</time>
      </trkpt>
      <trkpt lat="47.13931" lon="5.85842">
        <ele>301.99</ele>
        <time>2015-07-12T12:19:26.000Z</time>
      </trkpt>
      <trkpt lat="47.13934" lon="5.85825">
        <ele>301.51</ele>
        <time>2015-07-12T12:19:29.000Z</time>
      </trkpt>
      <trkpt lat="47.13935" lon="5.85812">
        <ele>300.07</ele>
        <time>2015-07-12T12:19:31.000Z</time>
      </trkpt>
      <trkpt lat="47.13937" lon="5.85797">
        <ele>300.55</ele>
        <time>2015-07-12T12:19:33.000Z</time>
      </trkpt>
      <trkpt lat="47.13938" lon="5.85783">
        <ele>300.07</ele>
        <time>2015-07-12T12:19:35.000Z</time>
      </trkpt>
      <trkpt lat="47.13939" lon="5.85769">
        <ele>300.55</ele>
        <time>2015-07-12T12:19:37.000Z</time>
      </trkpt>
      <trkpt lat="47.1394" lon="5.85755">
        <ele>300.55</ele>
        <time>2015-07-12T12:19:39.000Z</time>
      </trkpt>
      <trkpt lat="47.13942" lon="5.85742">
        <ele>301.03</ele>
        <time>2015-07-12T12:19:41.000Z</time>
      </trkpt>
      <trkpt lat="47.13942" lon="5.85727">
        <ele>300.55</ele>
        <time>2015-07-12T12:19:43.000Z</time>
      </trkpt>
      <trkpt lat="47.13944" lon="5.85713">
        <ele>300.55</ele>
        <time>2015-07-12T12:19:45.000Z</time>
      </trkpt>
      <trkpt lat="47.13945" lon="5.85699">
        <ele>301.99</ele>
        <time>2015-07-12T12:19:47.000Z</time>
      </trkpt>
      <trkpt lat="47.13946" lon="5.85686">
        <ele>301.51</ele>
        <time>2015-07-12T12:19:49.000Z</time>
      </trkpt>
      <trkpt lat="47.13948" lon="5.85666">
        <ele>301.51</ele>
        <time>2015-07-12T12:19:52.000Z</time>
      </trkpt>
      <trkpt lat="47.1395" lon="5.85646">
        <ele>301.51</ele>
        <time>2015-07-12T12:19:55.000Z</time>
      </trkpt>
      <trkpt lat="47.13953" lon="5.85627">
        <ele>301.51</ele>
        <time>2015-07-12T12:19:58.000Z</time>
      </trkpt>
      <trkpt lat="47.13954" lon="5.85609">
        <ele>301.03</ele>
        <time>2015-07-12T12:20:01.000Z</time>
      </trkpt>
      <trkpt lat="47.13956" lon="5.85596">
        <ele>301.03</ele>
        <time>2015-07-12T12:20:05.000Z</time>
      </trkpt>
      <trkpt lat="47.13956" lon="5.85594">
        <ele>299.59</ele>
        <time>2015-07-12T12:24:45.000Z</time>
      </trkpt>
      <trkpt lat="47.13956" lon="5.85594">
        <ele>227.97</ele>
        <time>2015-07-12T12:32:37.000Z</time>
      </trkpt>
      <trkpt lat="47.13953" lon="5.85587">
        <ele>301.51</ele>
        <time>2015-07-12T12:32:42.000Z</time>
      </trkpt>
      <trkpt lat="47.13956" lon="5.85574">
        <ele>301.99</ele>
        <time>2015-07-12T12:34:43.000Z</time>
      </trkpt>
      <trkpt lat="47.13958" lon="5.85559">
        <ele>301.99</ele>
        <time>2015-07-12T12:34:49.000Z</time>
      </trkpt>
      <trkpt lat="47.13958" lon="5.85547">
        <ele>301.03</ele>
        <time>2015-07-12T12:35:09.000Z</time>
      </trkpt>
      <trkpt lat="47.13959" lon="5.8553">
        <ele>302.47</ele>
        <time>2015-07-12T12:35:13.000Z</time>
      </trkpt>
      <trkpt lat="47.1396" lon="5.85516">
        <ele>300.55</ele>
        <time>2015-07-12T12:35:16.000Z</time>
      </trkpt>
      <trkpt lat="47.13962" lon="5.855">
        <ele>301.51</ele>
        <time>2015-07-12T12:35:19.000Z</time>
      </trkpt>
      <trkpt lat="47.13964" lon="5.85483">
        <ele>301.03</ele>
        <time>2015-07-12T12:35:22.000Z</time>
      </trkpt>
      <trkpt lat="47.13965" lon="5.85464">
        <ele>301.51</ele>
        <time>2015-07-12T12:35:25.000Z</time>
      </trkpt>
      <trkpt lat="47.13968" lon="5.85446">
        <ele>301.51</ele>
        <time>2015-07-12T12:35:28.000Z</time>
      </trkpt>
      <trkpt lat="47.13969" lon="5.85426">
        <ele>301.51</ele>
        <time>2015-07-12T12:35:31.000Z</time>
      </trkpt>
      <trkpt lat="47.13969" lon="5.85413">
        <ele>301.99</ele>
        <time>2015-07-12T12:35:33.000Z</time>
      </trkpt>
      <trkpt lat="47.13971" lon="5.854">
        <ele>301.99</ele>
        <time>2015-07-12T12:35:35.000Z</time>
      </trkpt>
      <trkpt lat="47.13972" lon="5.85387">
        <ele>301.51</ele>
        <time>2015-07-12T12:35:37.000Z</time>
      </trkpt>
      <trkpt lat="47.13974" lon="5.85367">
        <ele>301.99</ele>
        <time>2015-07-12T12:35:40.000Z</time>
      </trkpt>
      <trkpt lat="47.13976" lon="5.85349">
        <ele>301.99</ele>
        <time>2015-07-12T12:35:43.000Z</time>
      </trkpt>
      <trkpt lat="47.13977" lon="5.8533">
        <ele>301.03</ele>
        <time>2015-07-12T12:35:46.000Z</time>
      </trkpt>
      <trkpt lat="47.1398" lon="5.85312">
        <ele>301.03</ele>
        <time>2015-07-12T12:35:49.000Z</time>
      </trkpt>
      <trkpt lat="47.13982" lon="5.85295">
        <ele>301.51</ele>
        <time>2015-07-12T12:35:52.000Z</time>
      </trkpt>
      <trkpt lat="47.13984" lon="5.85281">
        <ele>301.99</ele>
        <time>2015-07-12T12:36:01.000Z</time>
      </trkpt>
      <trkpt lat="47.13978" lon="5.85271">
        <ele>302.95</ele>
        <time>2015-07-12T12:36:07.000Z</time>
      </trkpt>
      <trkpt lat="47.13969" lon="5.85267">
        <ele>302.95</ele>
        <time>2015-07-12T12:36:11.000Z</time>
      </trkpt>
      <trkpt lat="47.13959" lon="5.85261">
        <ele>301.99</ele>
        <time>2015-07-12T12:36:15.000Z</time>
      </trkpt>
      <trkpt lat="47.13959" lon="5.85245">
        <ele>301.99</ele>
        <time>2015-07-12T12:36:19.000Z</time>
      </trkpt>
      <trkpt lat="47.13962" lon="5.8523">
        <ele>300.55</ele>
        <time>2015-07-12T12:36:22.000Z</time>
      </trkpt>
      <trkpt lat="47.13967" lon="5.85213">
        <ele>301.03</ele>
        <time>2015-07-12T12:36:25.000Z</time>
      </trkpt>
      <trkpt lat="47.13972" lon="5.85197">
        <ele>301.51</ele>
        <time>2015-07-12T12:36:28.000Z</time>
      </trkpt>
      <trkpt lat="47.13979" lon="5.8518">
        <ele>301.99</ele>
        <time>2015-07-12T12:36:31.000Z</time>
      </trkpt>
      <trkpt lat="47.13985" lon="5.85163">
        <ele>302.47</ele>
        <time>2015-07-12T12:36:34.000Z</time>
      </trkpt>
      <trkpt lat="47.13994" lon="5.85147">
        <ele>301.99</ele>
        <time>2015-07-12T12:36:37.000Z</time>
      </trkpt>
      <trkpt lat="47.14" lon="5.85137">
        <ele>301.99</ele>
        <time>2015-07-12T12:36:39.000Z</time>
      </trkpt>
      <trkpt lat="47.14006" lon="5.85128">
        <ele>301.51</ele>
        <time>2015-07-12T12:36:41.000Z</time>
      </trkpt>
      <trkpt lat="47.14013" lon="5.85119">
        <ele>301.51</ele>
        <time>2015-07-12T12:36:43.000Z</time>
      </trkpt>
      <trkpt lat="47.1402" lon="5.85109">
        <ele>301.51</ele>
        <time>2015-07-12T12:36:45.000Z</time>
      </trkpt>
      <trkpt lat="47.14026" lon="5.851">
        <ele>301.99</ele>
        <time>2015-07-12T12:36:47.000Z</time>
      </trkpt>
      <trkpt lat="47.14034" lon="5.85091">
        <ele>301.99</ele>
        <time>2015-07-12T12:36:49.000Z</time>
      </trkpt>
      <trkpt lat="47.14041" lon="5.85083">
        <ele>301.99</ele>
        <time>2015-07-12T12:36:51.000Z</time>
      </trkpt>
      <trkpt lat="47.14049" lon="5.85077">
        <ele>301.51</ele>
        <time>2015-07-12T12:36:53.000Z</time>
      </trkpt>
      <trkpt lat="47.14061" lon="5.8507">
        <ele>301.99</ele>
        <time>2015-07-12T12:36:56.000Z</time>
      </trkpt>
      <trkpt lat="47.14073" lon="5.85062">
        <ele>301.99</ele>
        <time>2015-07-12T12:36:59.000Z</time>
      </trkpt>
      <trkpt lat="47.14085" lon="5.85056">
        <ele>301.99</ele>
        <time>2015-07-12T12:37:02.000Z</time>
      </trkpt>
      <trkpt lat="47.14098" lon="5.85049">
        <ele>301.51</ele>
        <time>2015-07-12T12:37:05.000Z</time>
      </trkpt>
      <trkpt lat="47.14111" lon="5.85045">
        <ele>301.03</ele>
        <time>2015-07-12T12:37:08.000Z</time>
      </trkpt>
      <trkpt lat="47.14124" lon="5.85041">
        <ele>301.03</ele>
        <time>2015-07-12T12:37:11.000Z</time>
      </trkpt>
      <trkpt lat="47.14133" lon="5.85041">
        <ele>301.03</ele>
        <time>2015-07-12T12:37:13.000Z</time>
      </trkpt>
      <trkpt lat="47.14143" lon="5.85041">
        <ele>301.03</ele>
        <time>2015-07-12T12:37:15.000Z</time>
      </trkpt>
      <trkpt lat="47.14151" lon="5.85041">
        <ele>301.03</ele>
        <time>2015-07-12T12:37:17.000Z</time>
      </trkpt>
      <trkpt lat="47.14165" lon="5.85042">
        <ele>301.51</ele>
        <time>2015-07-12T12:37:20.000Z</time>
      </trkpt>
      <trkpt lat="47.14175" lon="5.85045">
        <ele>301.99</ele>
        <time>2015-07-12T12:37:22.000Z</time>
      </trkpt>
      <trkpt lat="47.14185" lon="5.85048">
        <ele>301.99</ele>
        <time>2015-07-12T12:37:24.000Z</time>
      </trkpt>
      <trkpt lat="47.14194" lon="5.85051">
        <ele>300.07</ele>
        <time>2015-07-12T12:37:26.000Z</time>
      </trkpt>
      <trkpt lat="47.14203" lon="5.85054">
        <ele>301.51</ele>
        <time>2015-07-12T12:37:28.000Z</time>
      </trkpt>
      <trkpt lat="47.14211" lon="5.85057">
        <ele>300.55</ele>
        <time>2015-07-12T12:37:30.000Z</time>
      </trkpt>
      <trkpt lat="47.1422" lon="5.85062">
        <ele>300.55</ele>
        <time>2015-07-12T12:37:32.000Z</time>
      </trkpt>
      <trkpt lat="47.14229" lon="5.85066">
        <ele>299.59</ele>
        <time>2015-07-12T12:37:34.000Z</time>
      </trkpt>
      <trkpt lat="47.14238" lon="5.8507">
        <ele>300.55</ele>
        <time>2015-07-12T12:37:36.000Z</time>
      </trkpt>
      <trkpt lat="47.14248" lon="5.85075">
        <ele>300.55</ele>
        <time>2015-07-12T12:37:38.000Z</time>
      </trkpt>
      <trkpt lat="47.14257" lon="5.8508">
        <ele>300.07</ele>
        <time>2015-07-12T12:37:40.000Z</time>
      </trkpt>
      <trkpt lat="47.14266" lon="5.85084">
        <ele>301.03</ele>
        <time>2015-07-12T12:37:42.000Z</time>
      </trkpt>
      <trkpt lat="47.14276" lon="5.85089">
        <ele>300.55</ele>
        <time>2015-07-12T12:37:44.000Z</time>
      </trkpt>
      <trkpt lat="47.14286" lon="5.85093">
        <ele>300.55</ele>
        <time>2015-07-12T12:37:46.000Z</time>
      </trkpt>
      <trkpt lat="47.14295" lon="5.85097">
        <ele>301.03</ele>
        <time>2015-07-12T12:37:48.000Z</time>
      </trkpt>
      <trkpt lat="47.14305" lon="5.85102">
        <ele>301.51</ele>
        <time>2015-07-12T12:37:50.000Z</time>
      </trkpt>
      <trkpt lat="47.14315" lon="5.85107">
        <ele>301.51</ele>
        <time>2015-07-12T12:37:52.000Z</time>
      </trkpt>
      <trkpt lat="47.14324" lon="5.85112">
        <ele>301.51</ele>
        <time>2015-07-12T12:37:54.000Z</time>
      </trkpt>
      <trkpt lat="47.14334" lon="5.85116">
        <ele>301.51</ele>
        <time>2015-07-12T12:37:56.000Z</time>
      </trkpt>
      <trkpt lat="47.14344" lon="5.85121">
        <ele>301.03</ele>
        <time>2015-07-12T12:37:58.000Z</time>
      </trkpt>
      <trkpt lat="47.14353" lon="5.85125">
        <ele>301.51</ele>
        <time>2015-07-12T12:38:00.000Z</time>
      </trkpt>
      <trkpt lat="47.14363" lon="5.8513">
        <ele>301.03</ele>
        <time>2015-07-12T12:38:02.000Z</time>
      </trkpt>
      <trkpt lat="47.14373" lon="5.85135">
        <ele>301.03</ele>
        <time>2015-07-12T12:38:04.000Z</time>
      </trkpt>
      <trkpt lat="47.14383" lon="5.8514">
        <ele>301.03</ele>
        <time>2015-07-12T12:38:06.000Z</time>
      </trkpt>
      <trkpt lat="47.14392" lon="5.85145">
        <ele>301.03</ele>
        <time>2015-07-12T12:38:08.000Z</time>
      </trkpt>
      <trkpt lat="47.14403" lon="5.85149">
        <ele>300.55</ele>
        <time>2015-07-12T12:38:10.000Z</time>
      </trkpt>
      <trkpt lat="47.14412" lon="5.85154">
        <ele>301.03</ele>
        <time>2015-07-12T12:38:12.000Z</time>
      </trkpt>
      <trkpt lat="47.14422" lon="5.85159">
        <ele>301.03</ele>
        <time>2015-07-12T12:38:14.000Z</time>
      </trkpt>
      <trkpt lat="47.14432" lon="5.85164">
        <ele>301.03</ele>
        <time>2015-07-12T12:38:16.000Z</time>
      </trkpt>
      <trkpt lat="47.14441" lon="5.85169">
        <ele>301.03</ele>
        <time>2015-07-12T12:38:18.000Z</time>
      </trkpt>
      <trkpt lat="47.14451" lon="5.85174">
        <ele>301.03</ele>
        <time>2015-07-12T12:38:20.000Z</time>
      </trkpt>
      <trkpt lat="47.1446" lon="5.85178">
        <ele>300.55</ele>
        <time>2015-07-12T12:38:22.000Z</time>
      </trkpt>
      <trkpt lat="47.1447" lon="5.85183">
        <ele>300.55</ele>
        <time>2015-07-12T12:38:24.000Z</time>
      </trkpt>
      <trkpt lat="47.1448" lon="5.85187">
        <ele>301.03</ele>
        <time>2015-07-12T12:38:26.000Z</time>
      </trkpt>
      <trkpt lat="47.1449" lon="5.85191">
        <ele>301.03</ele>
        <time>2015-07-12T12:38:28.000Z</time>
      </trkpt>
      <trkpt lat="47.145" lon="5.85194">
        <ele>301.03</ele>
        <time>2015-07-12T12:38:30.000Z</time>
      </trkpt>
      <trkpt lat="47.14509" lon="5.85199">
        <ele>300.55</ele>
        <time>2015-07-12T12:38:32.000Z</time>
      </trkpt>
      <trkpt lat="47.14519" lon="5.85203">
        <ele>301.03</ele>
        <time>2015-07-12T12:38:34.000Z</time>
      </trkpt>
      <trkpt lat="47.14528" lon="5.85206">
        <ele>301.03</ele>
        <time>2015-07-12T12:38:36.000Z</time>
      </trkpt>
      <trkpt lat="47.14537" lon="5.85211">
        <ele>301.03</ele>
        <time>2015-07-12T12:38:38.000Z</time>
      </trkpt>
      <trkpt lat="47.14546" lon="5.85216">
        <ele>301.03</ele>
        <time>2015-07-12T12:38:40.000Z</time>
      </trkpt>
      <trkpt lat="47.14555" lon="5.85221">
        <ele>301.03</ele>
        <time>2015-07-12T12:38:42.000Z</time>
      </trkpt>
      <trkpt lat="47.14563" lon="5.85227">
        <ele>301.03</ele>
        <time>2015-07-12T12:38:44.000Z</time>
      </trkpt>
      <trkpt lat="47.14573" lon="5.85232">
        <ele>301.03</ele>
        <time>2015-07-12T12:38:46.000Z</time>
      </trkpt>
      <trkpt lat="47.14582" lon="5.85237">
        <ele>301.03</ele>
        <time>2015-07-12T12:38:48.000Z</time>
      </trkpt>
      <trkpt lat="47.14592" lon="5.85241">
        <ele>301.03</ele>
        <time>2015-07-12T12:38:50.000Z</time>
      </trkpt>
      <trkpt lat="47.14602" lon="5.85244">
        <ele>300.55</ele>
        <time>2015-07-12T12:38:52.000Z</time>
      </trkpt>
      <trkpt lat="47.14611" lon="5.85249">
        <ele>301.03</ele>
        <time>2015-07-12T12:38:54.000Z</time>
      </trkpt>
      <trkpt lat="47.14621" lon="5.85253">
        <ele>301.03</ele>
        <time>2015-07-12T12:38:56.000Z</time>
      </trkpt>
      <trkpt lat="47.14631" lon="5.85258">
        <ele>301.03</ele>
        <time>2015-07-12T12:38:58.000Z</time>
      </trkpt>
      <trkpt lat="47.1464" lon="5.85262">
        <ele>301.03</ele>
        <time>2015-07-12T12:39:00.000Z</time>
      </trkpt>
      <trkpt lat="47.1465" lon="5.85266">
        <ele>301.03</ele>
        <time>2015-07-12T12:39:02.000Z</time>
      </trkpt>
      <trkpt lat="47.14659" lon="5.8527">
        <ele>301.03</ele>
        <time>2015-07-12T12:39:04.000Z</time>
      </trkpt>
      <trkpt lat="47.14668" lon="5.85275">
        <ele>301.03</ele>
        <time>2015-07-12T12:39:06.000Z</time>
      </trkpt>
      <trkpt lat="47.14678" lon="5.8528">
        <ele>300.55</ele>
        <time>2015-07-12T12:39:08.000Z</time>
      </trkpt>
      <trkpt lat="47.14687" lon="5.85284">
        <ele>300.55</ele>
        <time>2015-07-12T12:39:10.000Z</time>
      </trkpt>
      <trkpt lat="47.14697" lon="5.85289">
        <ele>301.03</ele>
        <time>2015-07-12T12:39:12.000Z</time>
      </trkpt>
      <trkpt lat="47.14706" lon="5.85294">
        <ele>300.55</ele>
        <time>2015-07-12T12:39:14.000Z</time>
      </trkpt>
      <trkpt lat="47.14716" lon="5.85299">
        <ele>300.55</ele>
        <time>2015-07-12T12:39:16.000Z</time>
      </trkpt>
      <trkpt lat="47.14725" lon="5.85303">
        <ele>301.03</ele>
        <time>2015-07-12T12:39:18.000Z</time>
      </trkpt>
      <trkpt lat="47.14735" lon="5.85307">
        <ele>301.03</ele>
        <time>2015-07-12T12:39:20.000Z</time>
      </trkpt>
      <trkpt lat="47.14745" lon="5.85311">
        <ele>301.03</ele>
        <time>2015-07-12T12:39:22.000Z</time>
      </trkpt>
      <trkpt lat="47.14753" lon="5.85316">
        <ele>301.03</ele>
        <time>2015-07-12T12:39:24.000Z</time>
      </trkpt>
      <trkpt lat="47.14762" lon="5.85321">
        <ele>300.55</ele>
        <time>2015-07-12T12:39:26.000Z</time>
      </trkpt>
      <trkpt lat="47.14771" lon="5.85327">
        <ele>300.07</ele>
        <time>2015-07-12T12:39:28.000Z</time>
      </trkpt>
      <trkpt lat="47.14781" lon="5.85331">
        <ele>300.55</ele>
        <time>2015-07-12T12:39:30.000Z</time>
      </trkpt>
      <trkpt lat="47.14791" lon="5.85335">
        <ele>300.55</ele>
        <time>2015-07-12T12:39:32.000Z</time>
      </trkpt>
      <trkpt lat="47.148" lon="5.8534">
        <ele>301.03</ele>
        <time>2015-07-12T12:39:34.000Z</time>
      </trkpt>
      <trkpt lat="47.14809" lon="5.85343">
        <ele>300.55</ele>
        <time>2015-07-12T12:39:36.000Z</time>
      </trkpt>
      <trkpt lat="47.14819" lon="5.85349">
        <ele>300.55</ele>
        <time>2015-07-12T12:39:38.000Z</time>
      </trkpt>
      <trkpt lat="47.14828" lon="5.85354">
        <ele>300.55</ele>
        <time>2015-07-12T12:39:40.000Z</time>
      </trkpt>
      <trkpt lat="47.14838" lon="5.85359">
        <ele>300.55</ele>
        <time>2015-07-12T12:39:42.000Z</time>
      </trkpt>
      <trkpt lat="47.14848" lon="5.85363">
        <ele>300.07</ele>
        <time>2015-07-12T12:39:44.000Z</time>
      </trkpt>
      <trkpt lat="47.14857" lon="5.85367">
        <ele>300.07</ele>
        <time>2015-07-12T12:39:46.000Z</time>
      </trkpt>
      <trkpt lat="47.14867" lon="5.85372">
        <ele>300.55</ele>
        <time>2015-07-12T12:39:48.000Z</time>
      </trkpt>
      <trkpt lat="47.14877" lon="5.85376">
        <ele>300.55</ele>
        <time>2015-07-12T12:39:50.000Z</time>
      </trkpt>
      <trkpt lat="47.14887" lon="5.8538">
        <ele>300.55</ele>
        <time>2015-07-12T12:39:52.000Z</time>
      </trkpt>
      <trkpt lat="47.14896" lon="5.85385">
        <ele>300.55</ele>
        <time>2015-07-12T12:39:54.000Z</time>
      </trkpt>
      <trkpt lat="47.14904" lon="5.8539">
        <ele>300.07</ele>
        <time>2015-07-12T12:39:56.000Z</time>
      </trkpt>
      <trkpt lat="47.14917" lon="5.85395">
        <ele>300.07</ele>
        <time>2015-07-12T12:39:59.000Z</time>
      </trkpt>
      <trkpt lat="47.14928" lon="5.85399">
        <ele>300.07</ele>
        <time>2015-07-12T12:40:02.000Z</time>
      </trkpt>
      <trkpt lat="47.14936" lon="5.85403">
        <ele>300.07</ele>
        <time>2015-07-12T12:40:35.000Z</time>
      </trkpt>
      <trkpt lat="47.14946" lon="5.85409">
        <ele>299.59</ele>
        <time>2015-07-12T12:40:39.000Z</time>
      </trkpt>
      <trkpt lat="47.14956" lon="5.85414">
        <ele>299.11</ele>
        <time>2015-07-12T12:40:42.000Z</time>
      </trkpt>
      <trkpt lat="47.14965" lon="5.85418">
        <ele>299.11</ele>
        <time>2015-07-12T12:40:44.000Z</time>
      </trkpt>
      <trkpt lat="47.14975" lon="5.85422">
        <ele>299.11</ele>
        <time>2015-07-12T12:40:46.000Z</time>
      </trkpt>
      <trkpt lat="47.14984" lon="5.85427">
        <ele>299.11</ele>
        <time>2015-07-12T12:40:48.000Z</time>
      </trkpt>
      <trkpt lat="47.14994" lon="5.85432">
        <ele>299.11</ele>
        <time>2015-07-12T12:40:50.000Z</time>
      </trkpt>
      <trkpt lat="47.15004" lon="5.85436">
        <ele>300.07</ele>
        <time>2015-07-12T12:40:52.000Z</time>
      </trkpt>
      <trkpt lat="47.15014" lon="5.85441">
        <ele>300.07</ele>
        <time>2015-07-12T12:40:54.000Z</time>
      </trkpt>
      <trkpt lat="47.15024" lon="5.85446">
        <ele>300.07</ele>
        <time>2015-07-12T12:40:56.000Z</time>
      </trkpt>
      <trkpt lat="47.15034" lon="5.85452">
        <ele>300.07</ele>
        <time>2015-07-12T12:40:58.000Z</time>
      </trkpt>
      <trkpt lat="47.15044" lon="5.85457">
        <ele>300.55</ele>
        <time>2015-07-12T12:41:00.000Z</time>
      </trkpt>
      <trkpt lat="47.15054" lon="5.85462">
        <ele>300.07</ele>
        <time>2015-07-12T12:41:02.000Z</time>
      </trkpt>
      <trkpt lat="47.15065" lon="5.85466">
        <ele>300.07</ele>
        <time>2015-07-12T12:41:04.000Z</time>
      </trkpt>
      <trkpt lat="47.15075" lon="5.85471">
        <ele>300.07</ele>
        <time>2015-07-12T12:41:06.000Z</time>
      </trkpt>
      <trkpt lat="47.15086" lon="5.85476">
        <ele>300.55</ele>
        <time>2015-07-12T12:41:08.000Z</time>
      </trkpt>
      <trkpt lat="47.15096" lon="5.85481">
        <ele>300.07</ele>
        <time>2015-07-12T12:41:10.000Z</time>
      </trkpt>
      <trkpt lat="47.15106" lon="5.85485">
        <ele>300.07</ele>
        <time>2015-07-12T12:41:12.000Z</time>
      </trkpt>
      <trkpt lat="47.15116" lon="5.8549">
        <ele>299.59</ele>
        <time>2015-07-12T12:41:14.000Z</time>
      </trkpt>
      <trkpt lat="47.15126" lon="5.85496">
        <ele>300.07</ele>
        <time>2015-07-12T12:41:16.000Z</time>
      </trkpt>
      <trkpt lat="47.15137" lon="5.85502">
        <ele>299.59</ele>
        <time>2015-07-12T12:41:18.000Z</time>
      </trkpt>
      <trkpt lat="47.15147" lon="5.85506">
        <ele>300.07</ele>
        <time>2015-07-12T12:41:20.000Z</time>
      </trkpt>
      <trkpt lat="47.15157" lon="5.8551">
        <ele>299.59</ele>
        <time>2015-07-12T12:41:22.000Z</time>
      </trkpt>
      <trkpt lat="47.15167" lon="5.85515">
        <ele>299.59</ele>
        <time>2015-07-12T12:41:24.000Z</time>
      </trkpt>
      <trkpt lat="47.15178" lon="5.8552">
        <ele>300.07</ele>
        <time>2015-07-12T12:41:26.000Z</time>
      </trkpt>
      <trkpt lat="47.15188" lon="5.85524">
        <ele>299.59</ele>
        <time>2015-07-12T12:41:28.000Z</time>
      </trkpt>
      <trkpt lat="47.15199" lon="5.8553">
        <ele>300.07</ele>
        <time>2015-07-12T12:41:30.000Z</time>
      </trkpt>
      <trkpt lat="47.15209" lon="5.85536">
        <ele>299.59</ele>
        <time>2015-07-12T12:41:32.000Z</time>
      </trkpt>
      <trkpt lat="47.15219" lon="5.85541">
        <ele>300.07</ele>
        <time>2015-07-12T12:41:34.000Z</time>
      </trkpt>
      <trkpt lat="47.15229" lon="5.85546">
        <ele>299.59</ele>
        <time>2015-07-12T12:41:36.000Z</time>
      </trkpt>
      <trkpt lat="47.15239" lon="5.85551">
        <ele>299.59</ele>
        <time>2015-07-12T12:41:38.000Z</time>
      </trkpt>
      <trkpt lat="47.1525" lon="5.85556">
        <ele>300.07</ele>
        <time>2015-07-12T12:41:40.000Z</time>
      </trkpt>
      <trkpt lat="47.1526" lon="5.8556">
        <ele>299.59</ele>
        <time>2015-07-12T12:41:42.000Z</time>
      </trkpt>
      <trkpt lat="47.1527" lon="5.85564">
        <ele>299.59</ele>
        <time>2015-07-12T12:41:44.000Z</time>
      </trkpt>
      <trkpt lat="47.1528" lon="5.8557">
        <ele>300.07</ele>
        <time>2015-07-12T12:41:46.000Z</time>
      </trkpt>
      <trkpt lat="47.15291" lon="5.85576">
        <ele>299.11</ele>
        <time>2015-07-12T12:41:48.000Z</time>
      </trkpt>
      <trkpt lat="47.15302" lon="5.8558">
        <ele>300.07</ele>
        <time>2015-07-12T12:41:50.000Z</time>
      </trkpt>
      <trkpt lat="47.15313" lon="5.85584">
        <ele>300.07</ele>
        <time>2015-07-12T12:41:52.000Z</time>
      </trkpt>
      <trkpt lat="47.15324" lon="5.85588">
        <ele>299.59</ele>
        <time>2015-07-12T12:41:54.000Z</time>
      </trkpt>
      <trkpt lat="47.15334" lon="5.85592">
        <ele>299.59</ele>
        <time>2015-07-12T12:41:56.000Z</time>
      </trkpt>
      <trkpt lat="47.15345" lon="5.85595">
        <ele>299.59</ele>
        <time>2015-07-12T12:41:58.000Z</time>
      </trkpt>
      <trkpt lat="47.15355" lon="5.85597">
        <ele>300.07</ele>
        <time>2015-07-12T12:42:00.000Z</time>
      </trkpt>
      <trkpt lat="47.15366" lon="5.85599">
        <ele>299.59</ele>
        <time>2015-07-12T12:42:02.000Z</time>
      </trkpt>
      <trkpt lat="47.15377" lon="5.85601">
        <ele>299.59</ele>
        <time>2015-07-12T12:42:04.000Z</time>
      </trkpt>
      <trkpt lat="47.15387" lon="5.85602">
        <ele>300.07</ele>
        <time>2015-07-12T12:42:06.000Z</time>
      </trkpt>
      <trkpt lat="47.15396" lon="5.85603">
        <ele>299.59</ele>
        <time>2015-07-12T12:42:08.000Z</time>
      </trkpt>
      <trkpt lat="47.15407" lon="5.85604">
        <ele>299.59</ele>
        <time>2015-07-12T12:42:10.000Z</time>
      </trkpt>
      <trkpt lat="47.15418" lon="5.85606">
        <ele>299.59</ele>
        <time>2015-07-12T12:42:12.000Z</time>
      </trkpt>
      <trkpt lat="47.15429" lon="5.85606">
        <ele>299.59</ele>
        <time>2015-07-12T12:42:14.000Z</time>
      </trkpt>
      <trkpt lat="47.15439" lon="5.85608">
        <ele>299.59</ele>
        <time>2015-07-12T12:42:16.000Z</time>
      </trkpt>
      <trkpt lat="47.15451" lon="5.8561">
        <ele>299.11</ele>
        <time>2015-07-12T12:42:19.000Z</time>
      </trkpt>
      <trkpt lat="47.15465" lon="5.85611">
        <ele>299.11</ele>
        <time>2015-07-12T12:42:22.000Z</time>
      </trkpt>
      <trkpt lat="47.15474" lon="5.8561">
        <ele>298.63</ele>
        <time>2015-07-12T12:42:24.000Z</time>
      </trkpt>
      <trkpt lat="47.15485" lon="5.85613">
        <ele>298.63</ele>
        <time>2015-07-12T12:42:26.000Z</time>
      </trkpt>
      <trkpt lat="47.15495" lon="5.85616">
        <ele>299.11</ele>
        <time>2015-07-12T12:42:28.000Z</time>
      </trkpt>
      <trkpt lat="47.15506" lon="5.85618">
        <ele>299.11</ele>
        <time>2015-07-12T12:42:30.000Z</time>
      </trkpt>
      <trkpt lat="47.15519" lon="5.85615">
        <ele>299.59</ele>
        <time>2015-07-12T12:42:33.000Z</time>
      </trkpt>
      <trkpt lat="47.15532" lon="5.85611">
        <ele>299.59</ele>
        <time>2015-07-12T12:42:36.000Z</time>
      </trkpt>
      <trkpt lat="47.15545" lon="5.85609">
        <ele>299.59</ele>
        <time>2015-07-12T12:42:39.000Z</time>
      </trkpt>
      <trkpt lat="47.15557" lon="5.85608">
        <ele>300.55</ele>
        <time>2015-07-12T12:42:42.000Z</time>
      </trkpt>
      <trkpt lat="47.15567" lon="5.85609">
        <ele>301.03</ele>
        <time>2015-07-12T12:42:45.000Z</time>
      </trkpt>
      <trkpt lat="47.15575" lon="5.85618">
        <ele>301.51</ele>
        <time>2015-07-12T12:42:49.000Z</time>
      </trkpt>
      <trkpt lat="47.15578" lon="5.85633">
        <ele>302.47</ele>
        <time>2015-07-12T12:42:53.000Z</time>
      </trkpt>
      <trkpt lat="47.15578" lon="5.85646">
        <ele>302.95</ele>
        <time>2015-07-12T12:42:57.000Z</time>
      </trkpt>
      <trkpt lat="47.15579" lon="5.85663">
        <ele>302.47</ele>
        <time>2015-07-12T12:43:01.000Z</time>
      </trkpt>
      <trkpt lat="47.1559" lon="5.85675">
        <ele>301.51</ele>
        <time>2015-07-12T12:43:04.000Z</time>
      </trkpt>
      <trkpt lat="47.156" lon="5.85677">
        <ele>301.03</ele>
        <time>2015-07-12T12:43:06.000Z</time>
      </trkpt>
      <trkpt lat="47.15611" lon="5.85672">
        <ele>300.55</ele>
        <time>2015-07-12T12:43:08.000Z</time>
      </trkpt>
      <trkpt lat="47.1562" lon="5.85662">
        <ele>300.55</ele>
        <time>2015-07-12T12:43:10.000Z</time>
      </trkpt>
      <trkpt lat="47.15631" lon="5.85656">
        <ele>300.07</ele>
        <time>2015-07-12T12:43:12.000Z</time>
      </trkpt>
      <trkpt lat="47.15642" lon="5.85654">
        <ele>300.07</ele>
        <time>2015-07-12T12:43:14.000Z</time>
      </trkpt>
      <trkpt lat="47.15653" lon="5.85652">
        <ele>300.07</ele>
        <time>2015-07-12T12:43:16.000Z</time>
      </trkpt>
      <trkpt lat="47.15665" lon="5.85649">
        <ele>299.59</ele>
        <time>2015-07-12T12:43:18.000Z</time>
      </trkpt>
      <trkpt lat="47.15676" lon="5.85646">
        <ele>300.07</ele>
        <time>2015-07-12T12:43:20.000Z</time>
      </trkpt>
      <trkpt lat="47.15686" lon="5.85643">
        <ele>299.59</ele>
        <time>2015-07-12T12:43:22.000Z</time>
      </trkpt>
      <trkpt lat="47.15697" lon="5.85641">
        <ele>300.07</ele>
        <time>2015-07-12T12:43:24.000Z</time>
      </trkpt>
      <trkpt lat="47.15708" lon="5.85638">
        <ele>299.59</ele>
        <time>2015-07-12T12:43:26.000Z</time>
      </trkpt>
      <trkpt lat="47.15718" lon="5.85634">
        <ele>300.07</ele>
        <time>2015-07-12T12:43:28.000Z</time>
      </trkpt>
      <trkpt lat="47.15729" lon="5.85631">
        <ele>300.07</ele>
        <time>2015-07-12T12:43:30.000Z</time>
      </trkpt>
      <trkpt lat="47.15739" lon="5.85627">
        <ele>299.59</ele>
        <time>2015-07-12T12:43:32.000Z</time>
      </trkpt>
      <trkpt lat="47.15749" lon="5.85622">
        <ele>299.11</ele>
        <time>2015-07-12T12:43:34.000Z</time>
      </trkpt>
      <trkpt lat="47.1576" lon="5.85617">
        <ele>299.59</ele>
        <time>2015-07-12T12:43:36.000Z</time>
      </trkpt>
      <trkpt lat="47.1577" lon="5.85612">
        <ele>299.11</ele>
        <time>2015-07-12T12:43:38.000Z</time>
      </trkpt>
      <trkpt lat="47.15781" lon="5.85606">
        <ele>298.63</ele>
        <time>2015-07-12T12:43:40.000Z</time>
      </trkpt>
      <trkpt lat="47.15791" lon="5.856">
        <ele>298.63</ele>
        <time>2015-07-12T12:43:42.000Z</time>
      </trkpt>
      <trkpt lat="47.158" lon="5.85594">
        <ele>298.63</ele>
        <time>2015-07-12T12:43:44.000Z</time>
      </trkpt>
      <trkpt lat="47.15811" lon="5.85588">
        <ele>298.63</ele>
        <time>2015-07-12T12:43:46.000Z</time>
      </trkpt>
      <trkpt lat="47.15821" lon="5.85582">
        <ele>298.63</ele>
        <time>2015-07-12T12:43:48.000Z</time>
      </trkpt>
      <trkpt lat="47.15831" lon="5.85575">
        <ele>299.11</ele>
        <time>2015-07-12T12:43:50.000Z</time>
      </trkpt>
      <trkpt lat="47.15841" lon="5.85568">
        <ele>298.63</ele>
        <time>2015-07-12T12:43:52.000Z</time>
      </trkpt>
      <trkpt lat="47.1585" lon="5.8556">
        <ele>299.11</ele>
        <time>2015-07-12T12:43:54.000Z</time>
      </trkpt>
      <trkpt lat="47.1586" lon="5.85553">
        <ele>299.11</ele>
        <time>2015-07-12T12:43:56.000Z</time>
      </trkpt>
      <trkpt lat="47.15869" lon="5.85545">
        <ele>300.07</ele>
        <time>2015-07-12T12:43:58.000Z</time>
      </trkpt>
      <trkpt lat="47.15879" lon="5.85538">
        <ele>299.59</ele>
        <time>2015-07-12T12:44:00.000Z</time>
      </trkpt>
      <trkpt lat="47.15888" lon="5.8553">
        <ele>299.59</ele>
        <time>2015-07-12T12:44:02.000Z</time>
      </trkpt>
      <trkpt lat="47.15898" lon="5.85522">
        <ele>300.07</ele>
        <time>2015-07-12T12:44:04.000Z</time>
      </trkpt>
      <trkpt lat="47.15907" lon="5.85514">
        <ele>299.59</ele>
        <time>2015-07-12T12:44:06.000Z</time>
      </trkpt>
      <trkpt lat="47.15916" lon="5.85506">
        <ele>300.07</ele>
        <time>2015-07-12T12:44:08.000Z</time>
      </trkpt>
      <trkpt lat="47.15925" lon="5.85498">
        <ele>299.59</ele>
        <time>2015-07-12T12:44:10.000Z</time>
      </trkpt>
      <trkpt lat="47.15935" lon="5.85491">
        <ele>299.59</ele>
        <time>2015-07-12T12:44:12.000Z</time>
      </trkpt>
      <trkpt lat="47.15944" lon="5.85484">
        <ele>300.07</ele>
        <time>2015-07-12T12:44:14.000Z</time>
      </trkpt>
      <trkpt lat="47.15953" lon="5.85477">
        <ele>299.59</ele>
        <time>2015-07-12T12:44:16.000Z</time>
      </trkpt>
      <trkpt lat="47.15962" lon="5.8547">
        <ele>300.07</ele>
        <time>2015-07-12T12:44:18.000Z</time>
      </trkpt>
      <trkpt lat="47.15971" lon="5.85463">
        <ele>299.59</ele>
        <time>2015-07-12T12:44:20.000Z</time>
      </trkpt>
      <trkpt lat="47.15981" lon="5.85456">
        <ele>300.07</ele>
        <time>2015-07-12T12:44:22.000Z</time>
      </trkpt>
      <trkpt lat="47.1599" lon="5.85449">
        <ele>300.07</ele>
        <time>2015-07-12T12:44:24.000Z</time>
      </trkpt>
      <trkpt lat="47.15999" lon="5.85441">
        <ele>300.07</ele>
        <time>2015-07-12T12:44:26.000Z</time>
      </trkpt>
      <trkpt lat="47.16008" lon="5.85434">
        <ele>299.59</ele>
        <time>2015-07-12T12:44:28.000Z</time>
      </trkpt>
      <trkpt lat="47.16018" lon="5.85426">
        <ele>299.59</ele>
        <time>2015-07-12T12:44:30.000Z</time>
      </trkpt>
      <trkpt lat="47.16027" lon="5.85419">
        <ele>300.07</ele>
        <time>2015-07-12T12:44:32.000Z</time>
      </trkpt>
      <trkpt lat="47.16036" lon="5.85411">
        <ele>300.07</ele>
        <time>2015-07-12T12:44:34.000Z</time>
      </trkpt>
      <trkpt lat="47.16045" lon="5.85404">
        <ele>299.59</ele>
        <time>2015-07-12T12:44:36.000Z</time>
      </trkpt>
      <trkpt lat="47.16055" lon="5.85396">
        <ele>299.59</ele>
        <time>2015-07-12T12:44:38.000Z</time>
      </trkpt>
      <trkpt lat="47.16064" lon="5.85388">
        <ele>300.07</ele>
        <time>2015-07-12T12:44:40.000Z</time>
      </trkpt>
      <trkpt lat="47.16073" lon="5.85381">
        <ele>300.07</ele>
        <time>2015-07-12T12:44:42.000Z</time>
      </trkpt>
      <trkpt lat="47.16083" lon="5.85373">
        <ele>300.07</ele>
        <time>2015-07-12T12:44:44.000Z</time>
      </trkpt>
      <trkpt lat="47.16092" lon="5.85365">
        <ele>300.07</ele>
        <time>2015-07-12T12:44:46.000Z</time>
      </trkpt>
      <trkpt lat="47.16102" lon="5.85358">
        <ele>300.07</ele>
        <time>2015-07-12T12:44:48.000Z</time>
      </trkpt>
      <trkpt lat="47.16111" lon="5.85351">
        <ele>300.07</ele>
        <time>2015-07-12T12:44:50.000Z</time>
      </trkpt>
      <trkpt lat="47.16121" lon="5.85343">
        <ele>300.07</ele>
        <time>2015-07-12T12:44:52.000Z</time>
      </trkpt>
      <trkpt lat="47.1613" lon="5.85335">
        <ele>300.07</ele>
        <time>2015-07-12T12:44:54.000Z</time>
      </trkpt>
      <trkpt lat="47.1614" lon="5.85328">
        <ele>299.59</ele>
        <time>2015-07-12T12:44:56.000Z</time>
      </trkpt>
      <trkpt lat="47.1615" lon="5.8532">
        <ele>300.07</ele>
        <time>2015-07-12T12:44:58.000Z</time>
      </trkpt>
      <trkpt lat="47.16159" lon="5.85313">
        <ele>300.07</ele>
        <time>2015-07-12T12:45:00.000Z</time>
      </trkpt>
      <trkpt lat="47.16169" lon="5.85305">
        <ele>300.07</ele>
        <time>2015-07-12T12:45:02.000Z</time>
      </trkpt>
      <trkpt lat="47.16178" lon="5.85297">
        <ele>300.07</ele>
        <time>2015-07-12T12:45:04.000Z</time>
      </trkpt>
      <trkpt lat="47.16187" lon="5.8529">
        <ele>300.07</ele>
        <time>2015-07-12T12:45:06.000Z</time>
      </trkpt>
      <trkpt lat="47.16197" lon="5.85283">
        <ele>299.59</ele>
        <time>2015-07-12T12:45:08.000Z</time>
      </trkpt>
      <trkpt lat="47.16206" lon="5.85275">
        <ele>300.07</ele>
        <time>2015-07-12T12:45:10.000Z</time>
      </trkpt>
      <trkpt lat="47.16216" lon="5.85268">
        <ele>299.59</ele>
        <time>2015-07-12T12:45:12.000Z</time>
      </trkpt>
      <trkpt lat="47.16225" lon="5.8526">
        <ele>300.07</ele>
        <time>2015-07-12T12:45:14.000Z</time>
      </trkpt>
      <trkpt lat="47.16234" lon="5.85252">
        <ele>300.07</ele>
        <time>2015-07-12T12:45:16.000Z</time>
      </trkpt>
      <trkpt lat="47.16243" lon="5.85245">
        <ele>299.59</ele>
        <time>2015-07-12T12:45:18.000Z</time>
      </trkpt>
      <trkpt lat="47.16253" lon="5.85237">
        <ele>299.59</ele>
        <time>2015-07-12T12:45:20.000Z</time>
      </trkpt>
      <trkpt lat="47.16262" lon="5.8523">
        <ele>300.07</ele>
        <time>2015-07-12T12:45:22.000Z</time>
      </trkpt>
      <trkpt lat="47.16271" lon="5.85222">
        <ele>300.07</ele>
        <time>2015-07-12T12:45:24.000Z</time>
      </trkpt>
      <trkpt lat="47.1628" lon="5.85214">
        <ele>300.07</ele>
        <time>2015-07-12T12:45:26.000Z</time>
      </trkpt>
      <trkpt lat="47.1629" lon="5.85206">
        <ele>299.59</ele>
        <time>2015-07-12T12:45:28.000Z</time>
      </trkpt>
      <trkpt lat="47.16299" lon="5.85197">
        <ele>300.07</ele>
        <time>2015-07-12T12:45:30.000Z</time>
      </trkpt>
      <trkpt lat="47.16307" lon="5.85189">
        <ele>300.07</ele>
        <time>2015-07-12T12:45:32.000Z</time>
      </trkpt>
      <trkpt lat="47.16316" lon="5.8518">
        <ele>300.07</ele>
        <time>2015-07-12T12:45:34.000Z</time>
      </trkpt>
      <trkpt lat="47.16324" lon="5.8517">
        <ele>299.59</ele>
        <time>2015-07-12T12:45:36.000Z</time>
      </trkpt>
      <trkpt lat="47.16333" lon="5.85161">
        <ele>300.07</ele>
        <time>2015-07-12T12:45:38.000Z</time>
      </trkpt>
      <trkpt lat="47.16341" lon="5.85151">
        <ele>300.07</ele>
        <time>2015-07-12T12:45:40.000Z</time>
      </trkpt>
      <trkpt lat="47.1635" lon="5.85141">
        <ele>300.07</ele>
        <time>2015-07-12T12:45:42.000Z</time>
      </trkpt>
      <trkpt lat="47.16358" lon="5.85131">
        <ele>300.07</ele>
        <time>2015-07-12T12:45:44.000Z</time>
      </trkpt>
      <trkpt lat="47.16367" lon="5.8512">
        <ele>300.07</ele>
        <time>2015-07-12T12:45:46.000Z</time>
      </trkpt>
      <trkpt lat="47.16375" lon="5.8511">
        <ele>300.07</ele>
        <time>2015-07-12T12:45:48.000Z</time>
      </trkpt>
      <trkpt lat="47.16383" lon="5.85099">
        <ele>299.59</ele>
        <time>2015-07-12T12:45:50.000Z</time>
      </trkpt>
      <trkpt lat="47.16391" lon="5.85088">
        <ele>299.59</ele>
        <time>2015-07-12T12:45:52.000Z</time>
      </trkpt>
      <trkpt lat="47.16399" lon="5.85077">
        <ele>299.59</ele>
        <time>2015-07-12T12:45:54.000Z</time>
      </trkpt>
      <trkpt lat="47.16407" lon="5.85066">
        <ele>299.59</ele>
        <time>2015-07-12T12:45:56.000Z</time>
      </trkpt>
      <trkpt lat="47.16414" lon="5.85054">
        <ele>300.07</ele>
        <time>2015-07-12T12:45:58.000Z</time>
      </trkpt>
      <trkpt lat="47.16422" lon="5.85043">
        <ele>300.07</ele>
        <time>2015-07-12T12:46:00.000Z</time>
      </trkpt>
      <trkpt lat="47.16429" lon="5.85031">
        <ele>299.59</ele>
        <time>2015-07-12T12:46:02.000Z</time>
      </trkpt>
      <trkpt lat="47.16436" lon="5.85019">
        <ele>300.07</ele>
        <time>2015-07-12T12:46:04.000Z</time>
      </trkpt>
      <trkpt lat="47.16444" lon="5.85007">
        <ele>300.07</ele>
        <time>2015-07-12T12:46:06.000Z</time>
      </trkpt>
      <trkpt lat="47.16451" lon="5.84995">
        <ele>299.59</ele>
        <time>2015-07-12T12:46:08.000Z</time>
      </trkpt>
      <trkpt lat="47.16458" lon="5.84983">
        <ele>299.59</ele>
        <time>2015-07-12T12:46:10.000Z</time>
      </trkpt>
      <trkpt lat="47.16465" lon="5.8497">
        <ele>299.59</ele>
        <time>2015-07-12T12:46:12.000Z</time>
      </trkpt>
      <trkpt lat="47.16471" lon="5.84957">
        <ele>300.07</ele>
        <time>2015-07-12T12:46:14.000Z</time>
      </trkpt>
      <trkpt lat="47.16478" lon="5.84944">
        <ele>299.59</ele>
        <time>2015-07-12T12:46:16.000Z</time>
      </trkpt>
      <trkpt lat="47.16485" lon="5.84931">
        <ele>300.07</ele>
        <time>2015-07-12T12:46:18.000Z</time>
      </trkpt>
      <trkpt lat="47.16491" lon="5.84917">
        <ele>299.59</ele>
        <time>2015-07-12T12:46:20.000Z</time>
      </trkpt>
      <trkpt lat="47.16497" lon="5.84903">
        <ele>299.59</ele>
        <time>2015-07-12T12:46:22.000Z</time>
      </trkpt>
      <trkpt lat="47.16502" lon="5.84889">
        <ele>299.59</ele>
        <time>2015-07-12T12:46:24.000Z</time>
      </trkpt>
      <trkpt lat="47.16508" lon="5.84876">
        <ele>299.11</ele>
        <time>2015-07-12T12:46:26.000Z</time>
      </trkpt>
      <trkpt lat="47.16515" lon="5.84863">
        <ele>299.11</ele>
        <time>2015-07-12T12:46:28.000Z</time>
      </trkpt>
      <trkpt lat="47.1652" lon="5.84849">
        <ele>299.11</ele>
        <time>2015-07-12T12:46:30.000Z</time>
      </trkpt>
      <trkpt lat="47.16526" lon="5.84835">
        <ele>299.11</ele>
        <time>2015-07-12T12:46:32.000Z</time>
      </trkpt>
      <trkpt lat="47.16532" lon="5.84821">
        <ele>299.59</ele>
        <time>2015-07-12T12:46:34.000Z</time>
      </trkpt>
      <trkpt lat="47.16537" lon="5.84807">
        <ele>299.11</ele>
        <time>2015-07-12T12:46:36.000Z</time>
      </trkpt>
      <trkpt lat="47.16542" lon="5.84793">
        <ele>299.11</ele>
        <time>2015-07-12T12:46:38.000Z</time>
      </trkpt>
      <trkpt lat="47.16547" lon="5.84778">
        <ele>299.59</ele>
        <time>2015-07-12T12:46:40.000Z</time>
      </trkpt>
      <trkpt lat="47.16552" lon="5.84763">
        <ele>299.11</ele>
        <time>2015-07-12T12:46:42.000Z</time>
      </trkpt>
      <trkpt lat="47.16556" lon="5.84748">
        <ele>299.11</ele>
        <time>2015-07-12T12:46:44.000Z</time>
      </trkpt>
      <trkpt lat="47.1656" lon="5.84733">
        <ele>299.11</ele>
        <time>2015-07-12T12:46:46.000Z</time>
      </trkpt>
      <trkpt lat="47.16565" lon="5.84718">
        <ele>299.59</ele>
        <time>2015-07-12T12:46:48.000Z</time>
      </trkpt>
      <trkpt lat="47.16569" lon="5.84702">
        <ele>300.07</ele>
        <time>2015-07-12T12:46:50.000Z</time>
      </trkpt>
      <trkpt lat="47.16572" lon="5.84687">
        <ele>300.07</ele>
        <time>2015-07-12T12:46:52.000Z</time>
      </trkpt>
      <trkpt lat="47.16576" lon="5.84671">
        <ele>300.07</ele>
        <time>2015-07-12T12:46:54.000Z</time>
      </trkpt>
      <trkpt lat="47.1658" lon="5.84656">
        <ele>300.07</ele>
        <time>2015-07-12T12:46:56.000Z</time>
      </trkpt>
      <trkpt lat="47.16583" lon="5.84641">
        <ele>300.07</ele>
        <time>2015-07-12T12:46:58.000Z</time>
      </trkpt>
      <trkpt lat="47.16586" lon="5.84625">
        <ele>300.07</ele>
        <time>2015-07-12T12:47:00.000Z</time>
      </trkpt>
      <trkpt lat="47.16589" lon="5.8461">
        <ele>300.07</ele>
        <time>2015-07-12T12:47:02.000Z</time>
      </trkpt>
      <trkpt lat="47.16592" lon="5.84594">
        <ele>300.07</ele>
        <time>2015-07-12T12:47:04.000Z</time>
      </trkpt>
      <trkpt lat="47.16595" lon="5.84578">
        <ele>300.07</ele>
        <time>2015-07-12T12:47:06.000Z</time>
      </trkpt>
      <trkpt lat="47.16598" lon="5.84563">
        <ele>300.07</ele>
        <time>2015-07-12T12:47:08.000Z</time>
      </trkpt>
      <trkpt lat="47.166" lon="5.84549">
        <ele>300.07</ele>
        <time>2015-07-12T12:47:10.000Z</time>
      </trkpt>
      <trkpt lat="47.16604" lon="5.84533">
        <ele>300.07</ele>
        <time>2015-07-12T12:47:12.000Z</time>
      </trkpt>
      <trkpt lat="47.16607" lon="5.84518">
        <ele>300.07</ele>
        <time>2015-07-12T12:47:14.000Z</time>
      </trkpt>
      <trkpt lat="47.1661" lon="5.84501">
        <ele>299.59</ele>
        <time>2015-07-12T12:47:16.000Z</time>
      </trkpt>
      <trkpt lat="47.16613" lon="5.84485">
        <ele>300.07</ele>
        <time>2015-07-12T12:47:18.000Z</time>
      </trkpt>
      <trkpt lat="47.16616" lon="5.84469">
        <ele>300.07</ele>
        <time>2015-07-12T12:47:20.000Z</time>
      </trkpt>
      <trkpt lat="47.16618" lon="5.84455">
        <ele>300.07</ele>
        <time>2015-07-12T12:47:22.000Z</time>
      </trkpt>
      <trkpt lat="47.1662" lon="5.84442">
        <ele>300.07</ele>
        <time>2015-07-12T12:47:24.000Z</time>
      </trkpt>
      <trkpt lat="47.16623" lon="5.84422">
        <ele>300.07</ele>
        <time>2015-07-12T12:47:27.000Z</time>
      </trkpt>
      <trkpt lat="47.16626" lon="5.84409">
        <ele>300.07</ele>
        <time>2015-07-12T12:47:29.000Z</time>
      </trkpt>
      <trkpt lat="47.16628" lon="5.84395">
        <ele>300.07</ele>
        <time>2015-07-12T12:47:31.000Z</time>
      </trkpt>
      <trkpt lat="47.16631" lon="5.84381">
        <ele>300.07</ele>
        <time>2015-07-12T12:47:33.000Z</time>
      </trkpt>
      <trkpt lat="47.16633" lon="5.84367">
        <ele>300.07</ele>
        <time>2015-07-12T12:47:35.000Z</time>
      </trkpt>
      <trkpt lat="47.16635" lon="5.84352">
        <ele>300.07</ele>
        <time>2015-07-12T12:47:37.000Z</time>
      </trkpt>
      <trkpt lat="47.16637" lon="5.84339">
        <ele>300.07</ele>
        <time>2015-07-12T12:47:39.000Z</time>
      </trkpt>
      <trkpt lat="47.1664" lon="5.84325">
        <ele>300.07</ele>
        <time>2015-07-12T12:47:41.000Z</time>
      </trkpt>
      <trkpt lat="47.16643" lon="5.84311">
        <ele>300.07</ele>
        <time>2015-07-12T12:47:43.000Z</time>
      </trkpt>
      <trkpt lat="47.16645" lon="5.84297">
        <ele>300.07</ele>
        <time>2015-07-12T12:47:45.000Z</time>
      </trkpt>
      <trkpt lat="47.16647" lon="5.84283">
        <ele>300.07</ele>
        <time>2015-07-12T12:47:47.000Z</time>
      </trkpt>
      <trkpt lat="47.16648" lon="5.8427">
        <ele>300.07</ele>
        <time>2015-07-12T12:47:49.000Z</time>
      </trkpt>
      <trkpt lat="47.1665" lon="5.84251">
        <ele>300.07</ele>
        <time>2015-07-12T12:47:52.000Z</time>
      </trkpt>
      <trkpt lat="47.16653" lon="5.84234">
        <ele>300.07</ele>
        <time>2015-07-12T12:47:55.000Z</time>
      </trkpt>
      <trkpt lat="47.16655" lon="5.84218">
        <ele>300.07</ele>
        <time>2015-07-12T12:47:58.000Z</time>
      </trkpt>
      <trkpt lat="47.16657" lon="5.84204">
        <ele>299.59</ele>
        <time>2015-07-12T12:48:01.000Z</time>
      </trkpt>
      <trkpt lat="47.16662" lon="5.84189">
        <ele>300.07</ele>
        <time>2015-07-12T12:48:05.000Z</time>
      </trkpt>
      <trkpt lat="47.16666" lon="5.84176">
        <ele>299.59</ele>
        <time>2015-07-12T12:48:09.000Z</time>
      </trkpt>
      <trkpt lat="47.16669" lon="5.84163">
        <ele>299.59</ele>
        <time>2015-07-12T12:48:14.000Z</time>
      </trkpt>
      <trkpt lat="47.16673" lon="5.84146">
        <ele>299.59</ele>
        <time>2015-07-12T12:48:18.000Z</time>
      </trkpt>
      <trkpt lat="47.16677" lon="5.8413">
        <ele>299.59</ele>
        <time>2015-07-12T12:48:21.000Z</time>
      </trkpt>
      <trkpt lat="47.16679" lon="5.84112">
        <ele>300.07</ele>
        <time>2015-07-12T12:48:24.000Z</time>
      </trkpt>
      <trkpt lat="47.16681" lon="5.84099">
        <ele>299.59</ele>
        <time>2015-07-12T12:48:26.000Z</time>
      </trkpt>
      <trkpt lat="47.16684" lon="5.84086">
        <ele>299.59</ele>
        <time>2015-07-12T12:48:28.000Z</time>
      </trkpt>
      <trkpt lat="47.16687" lon="5.84071">
        <ele>299.59</ele>
        <time>2015-07-12T12:48:30.000Z</time>
      </trkpt>
      <trkpt lat="47.16689" lon="5.84056">
        <ele>300.07</ele>
        <time>2015-07-12T12:48:32.000Z</time>
      </trkpt>
      <trkpt lat="47.16691" lon="5.84042">
        <ele>299.59</ele>
        <time>2015-07-12T12:48:34.000Z</time>
      </trkpt>
      <trkpt lat="47.16694" lon="5.84027">
        <ele>299.59</ele>
        <time>2015-07-12T12:48:36.000Z</time>
      </trkpt>
      <trkpt lat="47.16697" lon="5.84013">
        <ele>300.07</ele>
        <time>2015-07-12T12:48:38.000Z</time>
      </trkpt>
      <trkpt lat="47.16699" lon="5.83998">
        <ele>299.59</ele>
        <time>2015-07-12T12:48:40.000Z</time>
      </trkpt>
      <trkpt lat="47.16702" lon="5.83983">
        <ele>299.59</ele>
        <time>2015-07-12T12:48:42.000Z</time>
      </trkpt>
      <trkpt lat="47.16704" lon="5.83968">
        <ele>299.59</ele>
        <time>2015-07-12T12:48:44.000Z</time>
      </trkpt>
      <trkpt lat="47.16707" lon="5.83952">
        <ele>299.59</ele>
        <time>2015-07-12T12:48:46.000Z</time>
      </trkpt>
      <trkpt lat="47.1671" lon="5.83937">
        <ele>299.59</ele>
        <time>2015-07-12T12:48:48.000Z</time>
      </trkpt>
      <trkpt lat="47.16712" lon="5.83923">
        <ele>299.59</ele>
        <time>2015-07-12T12:48:50.000Z</time>
      </trkpt>
      <trkpt lat="47.16715" lon="5.83908">
        <ele>299.59</ele>
        <time>2015-07-12T12:48:52.000Z</time>
      </trkpt>
      <trkpt lat="47.16718" lon="5.83894">
        <ele>299.59</ele>
        <time>2015-07-12T12:48:54.000Z</time>
      </trkpt>
      <trkpt lat="47.1672" lon="5.83881">
        <ele>299.59</ele>
        <time>2015-07-12T12:48:56.000Z</time>
      </trkpt>
      <trkpt lat="47.16722" lon="5.83866">
        <ele>299.59</ele>
        <time>2015-07-12T12:48:58.000Z</time>
      </trkpt>
      <trkpt lat="47.16725" lon="5.83851">
        <ele>298.63</ele>
        <time>2015-07-12T12:49:00.000Z</time>
      </trkpt>
      <trkpt lat="47.16727" lon="5.83836">
        <ele>298.63</ele>
        <time>2015-07-12T12:49:02.000Z</time>
      </trkpt>
      <trkpt lat="47.16729" lon="5.8382">
        <ele>299.11</ele>
        <time>2015-07-12T12:49:04.000Z</time>
      </trkpt>
      <trkpt lat="47.16731" lon="5.83805">
        <ele>298.63</ele>
        <time>2015-07-12T12:49:06.000Z</time>
      </trkpt>
      <trkpt lat="47.16732" lon="5.83789">
        <ele>298.15</ele>
        <time>2015-07-12T12:49:08.000Z</time>
      </trkpt>
      <trkpt lat="47.16734" lon="5.83774">
        <ele>298.63</ele>
        <time>2015-07-12T12:49:10.000Z</time>
      </trkpt>
      <trkpt lat="47.16736" lon="5.83759">
        <ele>298.63</ele>
        <time>2015-07-12T12:49:12.000Z</time>
      </trkpt>
      <trkpt lat="47.16737" lon="5.83743">
        <ele>299.11</ele>
        <time>2015-07-12T12:49:14.000Z</time>
      </trkpt>
      <trkpt lat="47.16738" lon="5.83728">
        <ele>298.63</ele>
        <time>2015-07-12T12:49:16.000Z</time>
      </trkpt>
      <trkpt lat="47.16739" lon="5.83713">
        <ele>299.11</ele>
        <time>2015-07-12T12:49:18.000Z</time>
      </trkpt>
      <trkpt lat="47.1674" lon="5.83698">
        <ele>299.11</ele>
        <time>2015-07-12T12:49:20.000Z</time>
      </trkpt>
      <trkpt lat="47.1674" lon="5.83684">
        <ele>300.07</ele>
        <time>2015-07-12T12:49:22.000Z</time>
      </trkpt>
      <trkpt lat="47.16741" lon="5.8367">
        <ele>299.59</ele>
        <time>2015-07-12T12:49:24.000Z</time>
      </trkpt>
      <trkpt lat="47.16742" lon="5.83656">
        <ele>299.59</ele>
        <time>2015-07-12T12:49:26.000Z</time>
      </trkpt>
      <trkpt lat="47.16742" lon="5.83641">
        <ele>299.59</ele>
        <time>2015-07-12T12:49:28.000Z</time>
      </trkpt>
      <trkpt lat="47.16742" lon="5.83626">
        <ele>299.59</ele>
        <time>2015-07-12T12:49:30.000Z</time>
      </trkpt>
      <trkpt lat="47.16742" lon="5.83611">
        <ele>299.59</ele>
        <time>2015-07-12T12:49:32.000Z</time>
      </trkpt>
      <trkpt lat="47.16742" lon="5.83597">
        <ele>299.59</ele>
        <time>2015-07-12T12:49:34.000Z</time>
      </trkpt>
      <trkpt lat="47.16741" lon="5.83582">
        <ele>300.07</ele>
        <time>2015-07-12T12:49:36.000Z</time>
      </trkpt>
      <trkpt lat="47.1674" lon="5.83568">
        <ele>299.59</ele>
        <time>2015-07-12T12:49:38.000Z</time>
      </trkpt>
      <trkpt lat="47.1674" lon="5.83554">
        <ele>299.59</ele>
        <time>2015-07-12T12:49:40.000Z</time>
      </trkpt>
      <trkpt lat="47.16739" lon="5.83539">
        <ele>299.59</ele>
        <time>2015-07-12T12:49:42.000Z</time>
      </trkpt>
      <trkpt lat="47.16739" lon="5.83525">
        <ele>299.59</ele>
        <time>2015-07-12T12:49:44.000Z</time>
      </trkpt>
      <trkpt lat="47.16739" lon="5.83511">
        <ele>300.07</ele>
        <time>2015-07-12T12:49:46.000Z</time>
      </trkpt>
      <trkpt lat="47.16738" lon="5.83496">
        <ele>299.59</ele>
        <time>2015-07-12T12:49:48.000Z</time>
      </trkpt>
      <trkpt lat="47.16737" lon="5.83481">
        <ele>300.07</ele>
        <time>2015-07-12T12:49:50.000Z</time>
      </trkpt>
      <trkpt lat="47.16735" lon="5.83466">
        <ele>299.59</ele>
        <time>2015-07-12T12:49:52.000Z</time>
      </trkpt>
      <trkpt lat="47.16734" lon="5.83451">
        <ele>300.07</ele>
        <time>2015-07-12T12:49:54.000Z</time>
      </trkpt>
      <trkpt lat="47.16732" lon="5.83436">
        <ele>299.59</ele>
        <time>2015-07-12T12:49:56.000Z</time>
      </trkpt>
      <trkpt lat="47.16731" lon="5.83421">
        <ele>299.59</ele>
        <time>2015-07-12T12:49:58.000Z</time>
      </trkpt>
      <trkpt lat="47.1673" lon="5.83406">
        <ele>300.07</ele>
        <time>2015-07-12T12:50:00.000Z</time>
      </trkpt>
      <trkpt lat="47.16728" lon="5.83392">
        <ele>300.07</ele>
        <time>2015-07-12T12:50:02.000Z</time>
      </trkpt>
      <trkpt lat="47.16727" lon="5.83377">
        <ele>300.07</ele>
        <time>2015-07-12T12:50:04.000Z</time>
      </trkpt>
      <trkpt lat="47.16725" lon="5.83361">
        <ele>300.07</ele>
        <time>2015-07-12T12:50:06.000Z</time>
      </trkpt>
      <trkpt lat="47.16722" lon="5.83346">
        <ele>300.07</ele>
        <time>2015-07-12T12:50:08.000Z</time>
      </trkpt>
      <trkpt lat="47.16719" lon="5.83331">
        <ele>300.07</ele>
        <time>2015-07-12T12:50:10.000Z</time>
      </trkpt>
      <trkpt lat="47.16717" lon="5.83315">
        <ele>299.59</ele>
        <time>2015-07-12T12:50:12.000Z</time>
      </trkpt>
      <trkpt lat="47.16714" lon="5.833">
        <ele>300.07</ele>
        <time>2015-07-12T12:50:14.000Z</time>
      </trkpt>
      <trkpt lat="47.16711" lon="5.83285">
        <ele>300.07</ele>
        <time>2015-07-12T12:50:16.000Z</time>
      </trkpt>
      <trkpt lat="47.16708" lon="5.83271">
        <ele>300.07</ele>
        <time>2015-07-12T12:50:18.000Z</time>
      </trkpt>
      <trkpt lat="47.16705" lon="5.83257">
        <ele>299.59</ele>
        <time>2015-07-12T12:50:20.000Z</time>
      </trkpt>
      <trkpt lat="47.16703" lon="5.83242">
        <ele>299.59</ele>
        <time>2015-07-12T12:50:22.000Z</time>
      </trkpt>
      <trkpt lat="47.167" lon="5.83227">
        <ele>299.59</ele>
        <time>2015-07-12T12:50:24.000Z</time>
      </trkpt>
      <trkpt lat="47.16696" lon="5.83213">
        <ele>299.59</ele>
        <time>2015-07-12T12:50:26.000Z</time>
      </trkpt>
      <trkpt lat="47.16692" lon="5.83198">
        <ele>299.59</ele>
        <time>2015-07-12T12:50:28.000Z</time>
      </trkpt>
      <trkpt lat="47.16689" lon="5.83184">
        <ele>299.11</ele>
        <time>2015-07-12T12:50:30.000Z</time>
      </trkpt>
      <trkpt lat="47.16685" lon="5.83169">
        <ele>299.11</ele>
        <time>2015-07-12T12:50:32.000Z</time>
      </trkpt>
      <trkpt lat="47.1668" lon="5.83155">
        <ele>299.11</ele>
        <time>2015-07-12T12:50:34.000Z</time>
      </trkpt>
      <trkpt lat="47.16675" lon="5.8314">
        <ele>299.59</ele>
        <time>2015-07-12T12:50:36.000Z</time>
      </trkpt>
      <trkpt lat="47.16671" lon="5.83125">
        <ele>299.11</ele>
        <time>2015-07-12T12:50:38.000Z</time>
      </trkpt>
      <trkpt lat="47.16667" lon="5.83111">
        <ele>299.59</ele>
        <time>2015-07-12T12:50:40.000Z</time>
      </trkpt>
      <trkpt lat="47.16662" lon="5.83098">
        <ele>299.59</ele>
        <time>2015-07-12T12:50:42.000Z</time>
      </trkpt>
      <trkpt lat="47.16658" lon="5.83085">
        <ele>299.11</ele>
        <time>2015-07-12T12:50:44.000Z</time>
      </trkpt>
      <trkpt lat="47.16654" lon="5.83072">
        <ele>298.63</ele>
        <time>2015-07-12T12:50:46.000Z</time>
      </trkpt>
      <trkpt lat="47.16648" lon="5.83055">
        <ele>299.11</ele>
        <time>2015-07-12T12:50:49.000Z</time>
      </trkpt>
      <trkpt lat="47.16643" lon="5.83039">
        <ele>299.11</ele>
        <time>2015-07-12T12:50:52.000Z</time>
      </trkpt>
      <trkpt lat="47.16638" lon="5.83024">
        <ele>299.11</ele>
        <time>2015-07-12T12:50:55.000Z</time>
      </trkpt>
      <trkpt lat="47.16635" lon="5.8301">
        <ele>299.59</ele>
        <time>2015-07-12T12:50:58.000Z</time>
      </trkpt>
      <trkpt lat="47.16631" lon="5.82996">
        <ele>299.59</ele>
        <time>2015-07-12T12:51:02.000Z</time>
      </trkpt>
      <trkpt lat="47.16627" lon="5.82987">
        <ele>299.59</ele>
        <time>2015-07-12T12:51:51.000Z</time>
      </trkpt>
      <trkpt lat="47.16621" lon="5.82977">
        <ele>300.07</ele>
        <time>2015-07-12T12:51:56.000Z</time>
      </trkpt>
      <trkpt lat="47.16621" lon="5.82962">
        <ele>299.59</ele>
        <time>2015-07-12T12:52:01.000Z</time>
      </trkpt>
      <trkpt lat="47.16622" lon="5.82946">
        <ele>299.11</ele>
        <time>2015-07-12T12:52:05.000Z</time>
      </trkpt>
      <trkpt lat="47.1662" lon="5.82928">
        <ele>299.59</ele>
        <time>2015-07-12T12:52:09.000Z</time>
      </trkpt>
      <trkpt lat="47.1662" lon="5.82914">
        <ele>299.59</ele>
        <time>2015-07-12T12:52:12.000Z</time>
      </trkpt>
      <trkpt lat="47.16618" lon="5.82898">
        <ele>299.59</ele>
        <time>2015-07-12T12:52:15.000Z</time>
      </trkpt>
      <trkpt lat="47.16618" lon="5.82882">
        <ele>299.59</ele>
        <time>2015-07-12T12:52:18.000Z</time>
      </trkpt>
      <trkpt lat="47.16616" lon="5.82867">
        <ele>299.59</ele>
        <time>2015-07-12T12:52:21.000Z</time>
      </trkpt>
      <trkpt lat="47.16615" lon="5.82852">
        <ele>299.59</ele>
        <time>2015-07-12T12:52:24.000Z</time>
      </trkpt>
      <trkpt lat="47.16615" lon="5.82835">
        <ele>299.59</ele>
        <time>2015-07-12T12:52:28.000Z</time>
      </trkpt>
      <trkpt lat="47.16624" lon="5.82836">
        <ele>299.11</ele>
        <time>2015-07-12T12:52:34.000Z</time>
      </trkpt>
      <trkpt lat="47.16627" lon="5.8285">
        <ele>298.63</ele>
        <time>2015-07-12T12:52:38.000Z</time>
      </trkpt>
      <trkpt lat="47.16626" lon="5.82867">
        <ele>298.63</ele>
        <time>2015-07-12T12:52:42.000Z</time>
      </trkpt>
      <trkpt lat="47.16628" lon="5.82883">
        <ele>298.15</ele>
        <time>2015-07-12T12:52:46.000Z</time>
      </trkpt>
      <trkpt lat="47.16634" lon="5.82895">
        <ele>298.15</ele>
        <time>2015-07-12T12:52:50.000Z</time>
      </trkpt>
      <trkpt lat="47.16643" lon="5.82902">
        <ele>298.15</ele>
        <time>2015-07-12T12:52:53.000Z</time>
      </trkpt>
      <trkpt lat="47.16654" lon="5.82908">
        <ele>298.63</ele>
        <time>2015-07-12T12:52:57.000Z</time>
      </trkpt>
      <trkpt lat="47.16664" lon="5.8291">
        <ele>298.63</ele>
        <time>2015-07-12T12:53:00.000Z</time>
      </trkpt>
      <trkpt lat="47.16675" lon="5.82914">
        <ele>298.63</ele>
        <time>2015-07-12T12:53:03.000Z</time>
      </trkpt>
      <trkpt lat="47.16687" lon="5.82917">
        <ele>298.63</ele>
        <time>2015-07-12T12:53:06.000Z</time>
      </trkpt>
      <trkpt lat="47.167" lon="5.8292">
        <ele>298.15</ele>
        <time>2015-07-12T12:53:09.000Z</time>
      </trkpt>
      <trkpt lat="47.16714" lon="5.82921">
        <ele>297.67</ele>
        <time>2015-07-12T12:53:12.000Z</time>
      </trkpt>
      <trkpt lat="47.16727" lon="5.82924">
        <ele>297.67</ele>
        <time>2015-07-12T12:53:15.000Z</time>
      </trkpt>
      <trkpt lat="47.16737" lon="5.82927">
        <ele>297.67</ele>
        <time>2015-07-12T12:53:18.000Z</time>
      </trkpt>
      <trkpt lat="47.16749" lon="5.82931">
        <ele>297.67</ele>
        <time>2015-07-12T12:53:22.000Z</time>
      </trkpt>
      <trkpt lat="47.16747" lon="5.82939">
        <ele>297.67</ele>
        <time>2015-07-12T12:53:27.000Z</time>
      </trkpt>
      <trkpt lat="47.16737" lon="5.82935">
        <ele>297.67</ele>
        <time>2015-07-12T12:53:31.000Z</time>
      </trkpt>
      <trkpt lat="47.16727" lon="5.82932">
        <ele>298.15</ele>
        <time>2015-07-12T12:53:35.000Z</time>
      </trkpt>
      <trkpt lat="47.16717" lon="5.82931">
        <ele>298.63</ele>
        <time>2015-07-12T12:53:39.000Z</time>
      </trkpt>
      <trkpt lat="47.16705" lon="5.82932">
        <ele>300.07</ele>
        <time>2015-07-12T12:53:43.000Z</time>
      </trkpt>
      <trkpt lat="47.16694" lon="5.82934">
        <ele>300.55</ele>
        <time>2015-07-12T12:53:47.000Z</time>
      </trkpt>
      <trkpt lat="47.16684" lon="5.82938">
        <ele>301.03</ele>
        <time>2015-07-12T12:53:51.000Z</time>
      </trkpt>
      <trkpt lat="47.16674" lon="5.82943">
        <ele>301.51</ele>
        <time>2015-07-12T12:53:55.000Z</time>
      </trkpt>
      <trkpt lat="47.16664" lon="5.82947">
        <ele>301.51</ele>
        <time>2015-07-12T12:53:59.000Z</time>
      </trkpt>
      <trkpt lat="47.16653" lon="5.82954">
        <ele>302.47</ele>
        <time>2015-07-12T12:54:03.000Z</time>
      </trkpt>
      <trkpt lat="47.16642" lon="5.82961">
        <ele>302.47</ele>
        <time>2015-07-12T12:54:08.000Z</time>
      </trkpt>
      <trkpt lat="47.16632" lon="5.82968">
        <ele>302.95</ele>
        <time>2015-07-12T12:54:19.000Z</time>
      </trkpt>
      <trkpt lat="47.16623" lon="5.82973">
        <ele>302.95</ele>
        <time>2015-07-12T12:54:23.000Z</time>
      </trkpt>
      <trkpt lat="47.16612" lon="5.82981">
        <ele>302.95</ele>
        <time>2015-07-12T12:54:27.000Z</time>
      </trkpt>
      <trkpt lat="47.166" lon="5.82988">
        <ele>303.43</ele>
        <time>2015-07-12T12:54:31.000Z</time>
      </trkpt>
      <trkpt lat="47.16591" lon="5.82995">
        <ele>303.43</ele>
        <time>2015-07-12T12:54:34.000Z</time>
      </trkpt>
      <trkpt lat="47.1658" lon="5.83002">
        <ele>303.43</ele>
        <time>2015-07-12T12:54:37.000Z</time>
      </trkpt>
      <trkpt lat="47.16569" lon="5.83008">
        <ele>303.43</ele>
        <time>2015-07-12T12:54:40.000Z</time>
      </trkpt>
      <trkpt lat="47.16558" lon="5.83014">
        <ele>303.91</ele>
        <time>2015-07-12T12:54:43.000Z</time>
      </trkpt>
      <trkpt lat="47.16547" lon="5.83021">
        <ele>303.43</ele>
        <time>2015-07-12T12:54:46.000Z</time>
      </trkpt>
      <trkpt lat="47.16536" lon="5.83027">
        <ele>303.43</ele>
        <time>2015-07-12T12:54:49.000Z</time>
      </trkpt>
      <trkpt lat="47.16525" lon="5.83034">
        <ele>302.47</ele>
        <time>2015-07-12T12:54:52.000Z</time>
      </trkpt>
      <trkpt lat="47.16513" lon="5.8304">
        <ele>302.47</ele>
        <time>2015-07-12T12:54:55.000Z</time>
      </trkpt>
      <trkpt lat="47.16502" lon="5.83047">
        <ele>301.51</ele>
        <time>2015-07-12T12:54:58.000Z</time>
      </trkpt>
      <trkpt lat="47.16493" lon="5.83051">
        <ele>301.99</ele>
        <time>2015-07-12T12:55:00.000Z</time>
      </trkpt>
      <trkpt lat="47.16484" lon="5.83053">
        <ele>301.51</ele>
        <time>2015-07-12T12:55:02.000Z</time>
      </trkpt>
      <trkpt lat="47.16475" lon="5.83053">
        <ele>301.99</ele>
        <time>2015-07-12T12:55:04.000Z</time>
      </trkpt>
      <trkpt lat="47.16462" lon="5.8305">
        <ele>301.51</ele>
        <time>2015-07-12T12:55:07.000Z</time>
      </trkpt>
      <trkpt lat="47.16451" lon="5.83042">
        <ele>301.99</ele>
        <time>2015-07-12T12:55:10.000Z</time>
      </trkpt>
      <trkpt lat="47.16444" lon="5.83031">
        <ele>303.43</ele>
        <time>2015-07-12T12:55:13.000Z</time>
      </trkpt>
      <trkpt lat="47.16438" lon="5.8302">
        <ele>303.43</ele>
        <time>2015-07-12T12:55:16.000Z</time>
      </trkpt>
      <trkpt lat="47.16433" lon="5.83004">
        <ele>304.88</ele>
        <time>2015-07-12T12:55:20.000Z</time>
      </trkpt>
      <trkpt lat="47.1643" lon="5.82989">
        <ele>305.36</ele>
        <time>2015-07-12T12:55:24.000Z</time>
      </trkpt>
      <trkpt lat="47.16426" lon="5.82974">
        <ele>305.84</ele>
        <time>2015-07-12T12:55:28.000Z</time>
      </trkpt>
      <trkpt lat="47.16424" lon="5.82957">
        <ele>306.8</ele>
        <time>2015-07-12T12:55:33.000Z</time>
      </trkpt>
      <trkpt lat="47.16421" lon="5.82942">
        <ele>307.28</ele>
        <time>2015-07-12T12:55:38.000Z</time>
      </trkpt>
      <trkpt lat="47.16418" lon="5.82925">
        <ele>308.24</ele>
        <time>2015-07-12T12:55:43.000Z</time>
      </trkpt>
      <trkpt lat="47.16417" lon="5.82908">
        <ele>308.72</ele>
        <time>2015-07-12T12:55:48.000Z</time>
      </trkpt>
      <trkpt lat="47.16416" lon="5.82892">
        <ele>309.68</ele>
        <time>2015-07-12T12:55:53.000Z</time>
      </trkpt>
      <trkpt lat="47.16414" lon="5.82875">
        <ele>310.16</ele>
        <time>2015-07-12T12:55:58.000Z</time>
      </trkpt>
      <trkpt lat="47.16412" lon="5.8286">
        <ele>310.64</ele>
        <time>2015-07-12T12:56:03.000Z</time>
      </trkpt>
      <trkpt lat="47.1641" lon="5.82841">
        <ele>311.12</ele>
        <time>2015-07-12T12:56:09.000Z</time>
      </trkpt>
      <trkpt lat="47.16408" lon="5.82825">
        <ele>311.6</ele>
        <time>2015-07-12T12:56:14.000Z</time>
      </trkpt>
      <trkpt lat="47.16404" lon="5.82809">
        <ele>312.57</ele>
        <time>2015-07-12T12:56:19.000Z</time>
      </trkpt>
      <trkpt lat="47.16404" lon="5.82793">
        <ele>314.01</ele>
        <time>2015-07-12T12:56:24.000Z</time>
      </trkpt>
      <trkpt lat="47.16401" lon="5.82776">
        <ele>314.49</ele>
        <time>2015-07-12T12:56:29.000Z</time>
      </trkpt>
      <trkpt lat="47.16396" lon="5.82762">
        <ele>314.49</ele>
        <time>2015-07-12T12:56:34.000Z</time>
      </trkpt>
      <trkpt lat="47.16392" lon="5.82746">
        <ele>315.45</ele>
        <time>2015-07-12T12:56:39.000Z</time>
      </trkpt>
      <trkpt lat="47.16386" lon="5.82733">
        <ele>315.93</ele>
        <time>2015-07-12T12:56:43.000Z</time>
      </trkpt>
      <trkpt lat="47.16379" lon="5.82721">
        <ele>316.89</ele>
        <time>2015-07-12T12:56:48.000Z</time>
      </trkpt>
      <trkpt lat="47.1637" lon="5.82709">
        <ele>317.37</ele>
        <time>2015-07-12T12:56:53.000Z</time>
      </trkpt>
      <trkpt lat="47.16362" lon="5.827">
        <ele>318.33</ele>
        <time>2015-07-12T12:56:57.000Z</time>
      </trkpt>
      <trkpt lat="47.16354" lon="5.82691">
        <ele>317.85</ele>
        <time>2015-07-12T12:57:01.000Z</time>
      </trkpt>
      <trkpt lat="47.16347" lon="5.82683">
        <ele>317.37</ele>
        <time>2015-07-12T12:57:07.000Z</time>
      </trkpt>
      <trkpt lat="47.16352" lon="5.82667">
        <ele>316.41</ele>
        <time>2015-07-12T12:57:26.000Z</time>
      </trkpt>
      <trkpt lat="47.16356" lon="5.82651">
        <ele>315.93</ele>
        <time>2015-07-12T12:57:30.000Z</time>
      </trkpt>
      <trkpt lat="47.1636" lon="5.82638">
        <ele>316.89</ele>
        <time>2015-07-12T12:57:33.000Z</time>
      </trkpt>
      <trkpt lat="47.16362" lon="5.82624">
        <ele>316.41</ele>
        <time>2015-07-12T12:57:36.000Z</time>
      </trkpt>
      <trkpt lat="47.16365" lon="5.8261">
        <ele>315.93</ele>
        <time>2015-07-12T12:57:39.000Z</time>
      </trkpt>
      <trkpt lat="47.16368" lon="5.82597">
        <ele>314.97</ele>
        <time>2015-07-12T12:57:42.000Z</time>
      </trkpt>
      <trkpt lat="47.1637" lon="5.82582">
        <ele>315.45</ele>
        <time>2015-07-12T12:57:46.000Z</time>
      </trkpt>
      <trkpt lat="47.16372" lon="5.82568">
        <ele>315.45</ele>
        <time>2015-07-12T12:57:52.000Z</time>
      </trkpt>
      <trkpt lat="47.16368" lon="5.82582">
        <ele>314.97</ele>
        <time>2015-07-12T12:58:05.000Z</time>
      </trkpt>
      <trkpt lat="47.16367" lon="5.82599">
        <ele>315.45</ele>
        <time>2015-07-12T12:58:10.000Z</time>
      </trkpt>
      <trkpt lat="47.16364" lon="5.82613">
        <ele>315.45</ele>
        <time>2015-07-12T12:58:14.000Z</time>
      </trkpt>
      <trkpt lat="47.16361" lon="5.82627">
        <ele>315.93</ele>
        <time>2015-07-12T12:58:19.000Z</time>
      </trkpt>
      <trkpt lat="47.16358" lon="5.82642">
        <ele>315.45</ele>
        <time>2015-07-12T12:58:25.000Z</time>
      </trkpt>
      <trkpt lat="47.16354" lon="5.82655">
        <ele>315.93</ele>
        <time>2015-07-12T12:58:30.000Z</time>
      </trkpt>
      <trkpt lat="47.16351" lon="5.82666">
        <ele>316.89</ele>
        <time>2015-07-12T12:59:12.000Z</time>
      </trkpt>
      <trkpt lat="47.16346" lon="5.82678">
        <ele>317.37</ele>
        <time>2015-07-12T12:59:20.000Z</time>
      </trkpt>
      <trkpt lat="47.16336" lon="5.8268">
        <ele>317.37</ele>
        <time>2015-07-12T12:59:26.000Z</time>
      </trkpt>
      <trkpt lat="47.16328" lon="5.82678">
        <ele>316.89</ele>
        <time>2015-07-12T12:59:30.000Z</time>
      </trkpt>
      <trkpt lat="47.16316" lon="5.82674">
        <ele>316.89</ele>
        <time>2015-07-12T12:59:34.000Z</time>
      </trkpt>
      <trkpt lat="47.16307" lon="5.8267">
        <ele>316.89</ele>
        <time>2015-07-12T12:59:37.000Z</time>
      </trkpt>
      <trkpt lat="47.16297" lon="5.82667">
        <ele>316.41</ele>
        <time>2015-07-12T12:59:40.000Z</time>
      </trkpt>
      <trkpt lat="47.16289" lon="5.82662">
        <ele>315.93</ele>
        <time>2015-07-12T12:59:45.000Z</time>
      </trkpt>
      <trkpt lat="47.16294" lon="5.82664">
        <ele>316.41</ele>
        <time>2015-07-12T13:00:14.000Z</time>
      </trkpt>
      <trkpt lat="47.16293" lon="5.82658">
        <ele>315.93</ele>
        <time>2015-07-12T13:00:47.000Z</time>
      </trkpt>
      <trkpt lat="47.16288" lon="5.82655">
        <ele>316.41</ele>
        <time>2015-07-12T13:01:10.000Z</time>
      </trkpt>
      <trkpt lat="47.16289" lon="5.82651">
        <ele>315.93</ele>
        <time>2015-07-12T13:01:59.000Z</time>
      </trkpt>
      <trkpt lat="47.16296" lon="5.82653">
        <ele>315.93</ele>
        <time>2015-07-12T13:02:12.000Z</time>
      </trkpt>
      <trkpt lat="47.16298" lon="5.82667">
        <ele>315.93</ele>
        <time>2015-07-12T13:02:23.000Z</time>
      </trkpt>
      <trkpt lat="47.16292" lon="5.82661">
        <ele>315.93</ele>
        <time>2015-07-12T13:02:43.000Z</time>
      </trkpt>
      <trkpt lat="47.16298" lon="5.82652">
        <ele>315.45</ele>
        <time>2015-07-12T13:03:32.000Z</time>
      </trkpt>
      <trkpt lat="47.16287" lon="5.82643">
        <ele>315.45</ele>
        <time>2015-07-12T13:03:53.000Z</time>
      </trkpt>
      <trkpt lat="47.1629" lon="5.82645">
        <ele>315.93</ele>
        <time>2015-07-12T13:04:27.000Z</time>
      </trkpt>
      <trkpt lat="47.16282" lon="5.82631">
        <ele>315.45</ele>
        <time>2015-07-12T13:04:38.000Z</time>
      </trkpt>
      <trkpt lat="47.16294" lon="5.82642">
        <ele>315.45</ele>
        <time>2015-07-12T13:04:52.000Z</time>
      </trkpt>
      <trkpt lat="47.16294" lon="5.82652">
        <ele>315.45</ele>
        <time>2015-07-12T13:05:07.000Z</time>
      </trkpt>
      <trkpt lat="47.1629" lon="5.82651">
        <ele>315.93</ele>
        <time>2015-07-12T13:05:37.000Z</time>
      </trkpt>
      <trkpt lat="47.1629" lon="5.82644">
        <ele>315.93</ele>
        <time>2015-07-12T13:06:02.000Z</time>
      </trkpt>
      <trkpt lat="47.16284" lon="5.82639">
        <ele>315.45</ele>
        <time>2015-07-12T13:06:34.000Z</time>
      </trkpt>
      <trkpt lat="47.1628" lon="5.82632">
        <ele>315.45</ele>
        <time>2015-07-12T13:06:55.000Z</time>
      </trkpt>
      <trkpt lat="47.16292" lon="5.82641">
        <ele>315.45</ele>
        <time>2015-07-12T13:07:30.000Z</time>
      </trkpt>
      <trkpt lat="47.16293" lon="5.8265">
        <ele>315.45</ele>
        <time>2015-07-12T13:08:19.000Z</time>
      </trkpt>
      <trkpt lat="47.16299" lon="5.82647">
        <ele>314.97</ele>
        <time>2015-07-12T13:08:48.000Z</time>
      </trkpt>
      <trkpt lat="47.16296" lon="5.82645">
        <ele>315.45</ele>
        <time>2015-07-12T13:09:22.000Z</time>
      </trkpt>
      <trkpt lat="47.16302" lon="5.82656">
        <ele>314.97</ele>
        <time>2015-07-12T13:09:53.000Z</time>
      </trkpt>
      <trkpt lat="47.16306" lon="5.82663">
        <ele>313.53</ele>
        <time>2015-07-12T13:10:11.000Z</time>
      </trkpt>
      <trkpt lat="47.16306" lon="5.82663">
        <ele>258.25</ele>
        <time>2015-07-12T13:59:49.000Z</time>
      </trkpt>
      <trkpt lat="47.16306" lon="5.82663">
        <ele>258.25</ele>
        <time>2015-07-12T14:45:14.000Z</time>
      </trkpt>
      <trkpt lat="47.16306" lon="5.82663">
        <ele>258.25</ele>
        <time>2015-07-12T14:50:21.000Z</time>
      </trkpt>
      <trkpt lat="47.16306" lon="5.82663">
        <ele>258.25</ele>
        <time>2015-07-12T14:59:46.000Z</time>
      </trkpt>
      <trkpt lat="47.16306" lon="5.82663">
        <ele>258.25</ele>
        <time>2015-07-12T17:11:53.000Z</time>
      </trkpt>
    </trkseg>
  </trk>
</gpx>